<?xml version="1.0" encoding="UTF-8" standalone="no" ?>
<gpx xmlns="http://www.topografix.com/GPX/1/1" xmlns:xsi="http://www.w3.org/2001/XMLSchema-instance" xsi:schemaLocation="http://www.topografix.com/GPX/1/1 http://www.topografix.com/GPX/1/1/gpx.xsd" version="1.1" creator="VisuGPX - https://www.visugpx.com">
  <metadata>
    <name>2015-08-11 Bike ride-Vernay-Varenne-Bonave O</name>
    <desc><![CDATA[2015-08-11 Bike ride-Vernay-Varenne-Bonave O]]></desc>
  </metadata>
  <wpt lat="45.92459" lon="4.73733">
    <ele>173.2</ele>
    <name><![CDATA[2015-08-11 10:15 (Start)]]></name>
  </wpt>
  <wpt lat="45.92455" lon="4.73707">
    <ele>156.9</ele>
    <name><![CDATA[2015-08-11 10:15 (End)]]></name>
    <desc><![CDATA[Created by Google My Tracks on Android  Name: 2015-08-11 10:15 Activity type: biking Description: - Total distance: 43.65 km (27.1 mi) Total time: 2:24:31 Moving time: 2:15:11 Average speed: 18.12 km/h (11.3 mi/h) Average moving speed: 19.37 km/h (12.0 mi/h) Max speed: 55.70 km/h (34.6 mi/h) Average pace: 3:19 min/km (5:20 min/mi) Average moving pace: 3:06 min/km (4:59 min/mi) Fastest pace: 1:05 min/km (1:44 min/mi) Max elevation: 567 m (1859 ft) Min elevation: 157 m (517 ft) Elevation gain: 1050 m (3445 ft) Max grade: 99 % Min grade: -23 % Recorded: 11/08/2015 10:15]]></desc>
  </wpt>
  <trk>
    <name><![CDATA[2015-08-11 10:15]]></name>
    <trkseg>
      <trkpt lat="45.92459" lon="4.73733">
        <ele>173.199996948</ele>
        <time>2015-08-11T08:15:09.509Z</time>
      </trkpt>
      <trkpt lat="45.92457" lon="4.73722">
        <ele>191.5</ele>
        <time>2015-08-11T08:15:14.018Z</time>
      </trkpt>
      <trkpt lat="45.92456" lon="4.73721">
        <ele>192.699996948</ele>
        <time>2015-08-11T08:15:14.917Z</time>
      </trkpt>
      <trkpt lat="45.9246" lon="4.73711">
        <ele>175.399993896</ele>
        <time>2015-08-11T08:15:28.743Z</time>
      </trkpt>
      <trkpt lat="45.92462" lon="4.73709">
        <ele>174.600006104</ele>
        <time>2015-08-11T08:15:31.426Z</time>
      </trkpt>
      <trkpt lat="45.92466" lon="4.73699">
        <ele>173.600006104</ele>
        <time>2015-08-11T08:15:35.59Z</time>
      </trkpt>
      <trkpt lat="45.92467" lon="4.73694">
        <ele>173</ele>
        <time>2015-08-11T08:15:36.447Z</time>
      </trkpt>
      <trkpt lat="45.92466" lon="4.73683">
        <ele>172.399993896</ele>
        <time>2015-08-11T08:15:39.471Z</time>
      </trkpt>
      <trkpt lat="45.92467" lon="4.73678">
        <ele>172.199996948</ele>
        <time>2015-08-11T08:15:40.43Z</time>
      </trkpt>
      <trkpt lat="45.9247" lon="4.73668">
        <ele>171.800003052</ele>
        <time>2015-08-11T08:15:42.505Z</time>
      </trkpt>
      <trkpt lat="45.92472" lon="4.73663">
        <ele>171.600006104</ele>
        <time>2015-08-11T08:15:43.452Z</time>
      </trkpt>
      <trkpt lat="45.92473" lon="4.73654">
        <ele>171.300003052</ele>
        <time>2015-08-11T08:15:44.533Z</time>
      </trkpt>
      <trkpt lat="45.92476" lon="4.73645">
        <ele>170.899993896</ele>
        <time>2015-08-11T08:15:45.453Z</time>
      </trkpt>
      <trkpt lat="45.92479" lon="4.73636">
        <ele>171</ele>
        <time>2015-08-11T08:15:47.513Z</time>
      </trkpt>
      <trkpt lat="45.92483" lon="4.73635">
        <ele>171</ele>
        <time>2015-08-11T08:15:48.439Z</time>
      </trkpt>
      <trkpt lat="45.92487" lon="4.73643">
        <ele>175.199996948</ele>
        <time>2015-08-11T08:15:50.49Z</time>
      </trkpt>
      <trkpt lat="45.92491" lon="4.73645">
        <ele>175.199996948</ele>
        <time>2015-08-11T08:15:51.441Z</time>
      </trkpt>
      <trkpt lat="45.92495" lon="4.73645">
        <ele>174.800003052</ele>
        <time>2015-08-11T08:15:52.479Z</time>
      </trkpt>
      <trkpt lat="45.925" lon="4.73645">
        <ele>172.699996948</ele>
        <time>2015-08-11T08:15:53.471Z</time>
      </trkpt>
      <trkpt lat="45.92505" lon="4.73645">
        <ele>173.600006104</ele>
        <time>2015-08-11T08:15:54.502Z</time>
      </trkpt>
      <trkpt lat="45.92509" lon="4.73646">
        <ele>173.399993896</ele>
        <time>2015-08-11T08:15:55.479Z</time>
      </trkpt>
      <trkpt lat="45.92515" lon="4.73645">
        <ele>172.100006104</ele>
        <time>2015-08-11T08:15:56.515Z</time>
      </trkpt>
      <trkpt lat="45.9252" lon="4.73643">
        <ele>171.100006104</ele>
        <time>2015-08-11T08:15:57.449Z</time>
      </trkpt>
      <trkpt lat="45.92525" lon="4.73642">
        <ele>171.100006104</ele>
        <time>2015-08-11T08:15:58.496Z</time>
      </trkpt>
      <trkpt lat="45.92529" lon="4.73639">
        <ele>171</ele>
        <time>2015-08-11T08:15:59.432Z</time>
      </trkpt>
      <trkpt lat="45.92534" lon="4.73638">
        <ele>171.5</ele>
        <time>2015-08-11T08:16:00.506Z</time>
      </trkpt>
      <trkpt lat="45.92539" lon="4.73637">
        <ele>171.800003052</ele>
        <time>2015-08-11T08:16:01.447Z</time>
      </trkpt>
      <trkpt lat="45.92544" lon="4.73636">
        <ele>171.199996948</ele>
        <time>2015-08-11T08:16:02.489Z</time>
      </trkpt>
      <trkpt lat="45.9255" lon="4.73634">
        <ele>172</ele>
        <time>2015-08-11T08:16:03.509Z</time>
      </trkpt>
      <trkpt lat="45.92554" lon="4.73632">
        <ele>172.600006104</ele>
        <time>2015-08-11T08:16:04.48Z</time>
      </trkpt>
      <trkpt lat="45.92559" lon="4.7363">
        <ele>173</ele>
        <time>2015-08-11T08:16:05.438Z</time>
      </trkpt>
      <trkpt lat="45.92563" lon="4.73627">
        <ele>172.699996948</ele>
        <time>2015-08-11T08:16:06.526Z</time>
      </trkpt>
      <trkpt lat="45.92568" lon="4.73626">
        <ele>172.800003052</ele>
        <time>2015-08-11T08:16:07.456Z</time>
      </trkpt>
      <trkpt lat="45.92572" lon="4.73624">
        <ele>172.899993896</ele>
        <time>2015-08-11T08:16:08.489Z</time>
      </trkpt>
      <trkpt lat="45.92578" lon="4.73624">
        <ele>172.899993896</ele>
        <time>2015-08-11T08:16:09.464Z</time>
      </trkpt>
      <trkpt lat="45.92583" lon="4.73621">
        <ele>171.399993896</ele>
        <time>2015-08-11T08:16:10.474Z</time>
      </trkpt>
      <trkpt lat="45.92589" lon="4.73619">
        <ele>170.699996948</ele>
        <time>2015-08-11T08:16:11.433Z</time>
      </trkpt>
      <trkpt lat="45.92594" lon="4.73619">
        <ele>170.300003052</ele>
        <time>2015-08-11T08:16:12.614Z</time>
      </trkpt>
      <trkpt lat="45.92599" lon="4.73619">
        <ele>169.899993896</ele>
        <time>2015-08-11T08:16:13.449Z</time>
      </trkpt>
      <trkpt lat="45.92604" lon="4.7362">
        <ele>170.600006104</ele>
        <time>2015-08-11T08:16:14.48Z</time>
      </trkpt>
      <trkpt lat="45.9261" lon="4.73622">
        <ele>171.800003052</ele>
        <time>2015-08-11T08:16:15.433Z</time>
      </trkpt>
      <trkpt lat="45.92615" lon="4.73626">
        <ele>172.5</ele>
        <time>2015-08-11T08:16:16.482Z</time>
      </trkpt>
      <trkpt lat="45.92619" lon="4.7363">
        <ele>172.899993896</ele>
        <time>2015-08-11T08:16:17.441Z</time>
      </trkpt>
      <trkpt lat="45.92624" lon="4.73636">
        <ele>172.899993896</ele>
        <time>2015-08-11T08:16:18.519Z</time>
      </trkpt>
      <trkpt lat="45.92628" lon="4.73642">
        <ele>172.800003052</ele>
        <time>2015-08-11T08:16:19.498Z</time>
      </trkpt>
      <trkpt lat="45.92629" lon="4.7365">
        <ele>172.800003052</ele>
        <time>2015-08-11T08:16:20.575Z</time>
      </trkpt>
      <trkpt lat="45.92633" lon="4.73657">
        <ele>172.699996948</ele>
        <time>2015-08-11T08:16:21.454Z</time>
      </trkpt>
      <trkpt lat="45.92636" lon="4.73664">
        <ele>172.5</ele>
        <time>2015-08-11T08:16:22.483Z</time>
      </trkpt>
      <trkpt lat="45.92639" lon="4.7367">
        <ele>172.600006104</ele>
        <time>2015-08-11T08:16:23.444Z</time>
      </trkpt>
      <trkpt lat="45.92643" lon="4.73676">
        <ele>172.800003052</ele>
        <time>2015-08-11T08:16:24.483Z</time>
      </trkpt>
      <trkpt lat="45.92647" lon="4.73682">
        <ele>172.600006104</ele>
        <time>2015-08-11T08:16:25.428Z</time>
      </trkpt>
      <trkpt lat="45.92652" lon="4.73687">
        <ele>172.699996948</ele>
        <time>2015-08-11T08:16:26.484Z</time>
      </trkpt>
      <trkpt lat="45.92657" lon="4.73692">
        <ele>172.899993896</ele>
        <time>2015-08-11T08:16:27.448Z</time>
      </trkpt>
      <trkpt lat="45.92662" lon="4.73695">
        <ele>172.5</ele>
        <time>2015-08-11T08:16:28.481Z</time>
      </trkpt>
      <trkpt lat="45.92668" lon="4.73699">
        <ele>172.5</ele>
        <time>2015-08-11T08:16:29.446Z</time>
      </trkpt>
      <trkpt lat="45.92673" lon="4.73702">
        <ele>172.600006104</ele>
        <time>2015-08-11T08:16:30.499Z</time>
      </trkpt>
      <trkpt lat="45.92678" lon="4.73704">
        <ele>173.600006104</ele>
        <time>2015-08-11T08:16:31.452Z</time>
      </trkpt>
      <trkpt lat="45.92683" lon="4.73707">
        <ele>173.699996948</ele>
        <time>2015-08-11T08:16:32.486Z</time>
      </trkpt>
      <trkpt lat="45.92688" lon="4.73709">
        <ele>173.899993896</ele>
        <time>2015-08-11T08:16:33.45Z</time>
      </trkpt>
      <trkpt lat="45.92693" lon="4.7371">
        <ele>174.100006104</ele>
        <time>2015-08-11T08:16:34.483Z</time>
      </trkpt>
      <trkpt lat="45.92698" lon="4.73711">
        <ele>174.199996948</ele>
        <time>2015-08-11T08:16:35.494Z</time>
      </trkpt>
      <trkpt lat="45.92703" lon="4.73712">
        <ele>174</ele>
        <time>2015-08-11T08:16:36.485Z</time>
      </trkpt>
      <trkpt lat="45.92708" lon="4.73712">
        <ele>174.5</ele>
        <time>2015-08-11T08:16:37.451Z</time>
      </trkpt>
      <trkpt lat="45.92715" lon="4.73713">
        <ele>172.899993896</ele>
        <time>2015-08-11T08:16:38.508Z</time>
      </trkpt>
      <trkpt lat="45.9272" lon="4.73715">
        <ele>172.600006104</ele>
        <time>2015-08-11T08:16:39.449Z</time>
      </trkpt>
      <trkpt lat="45.92725" lon="4.73715">
        <ele>172.300003052</ele>
        <time>2015-08-11T08:16:40.5Z</time>
      </trkpt>
      <trkpt lat="45.92731" lon="4.73716">
        <ele>172.300003052</ele>
        <time>2015-08-11T08:16:41.453Z</time>
      </trkpt>
      <trkpt lat="45.92736" lon="4.73716">
        <ele>172.600006104</ele>
        <time>2015-08-11T08:16:42.494Z</time>
      </trkpt>
      <trkpt lat="45.92741" lon="4.73718">
        <ele>172.800003052</ele>
        <time>2015-08-11T08:16:43.448Z</time>
      </trkpt>
      <trkpt lat="45.92746" lon="4.7372">
        <ele>173.300003052</ele>
        <time>2015-08-11T08:16:44.483Z</time>
      </trkpt>
      <trkpt lat="45.92751" lon="4.73721">
        <ele>173.699996948</ele>
        <time>2015-08-11T08:16:45.453Z</time>
      </trkpt>
      <trkpt lat="45.92755" lon="4.73721">
        <ele>173.899993896</ele>
        <time>2015-08-11T08:16:46.566Z</time>
      </trkpt>
      <trkpt lat="45.9276" lon="4.73723">
        <ele>174.300003052</ele>
        <time>2015-08-11T08:16:47.449Z</time>
      </trkpt>
      <trkpt lat="45.92768" lon="4.73726">
        <ele>175.5</ele>
        <time>2015-08-11T08:16:49.509Z</time>
      </trkpt>
      <trkpt lat="45.92772" lon="4.73728">
        <ele>176.399993896</ele>
        <time>2015-08-11T08:16:50.448Z</time>
      </trkpt>
      <trkpt lat="45.92779" lon="4.73734">
        <ele>175.600006104</ele>
        <time>2015-08-11T08:16:52.573Z</time>
      </trkpt>
      <trkpt lat="45.92784" lon="4.73732">
        <ele>174</ele>
        <time>2015-08-11T08:16:53.454Z</time>
      </trkpt>
      <trkpt lat="45.92787" lon="4.73724">
        <ele>173.699996948</ele>
        <time>2015-08-11T08:16:55.488Z</time>
      </trkpt>
      <trkpt lat="45.92788" lon="4.73718">
        <ele>173.399993896</ele>
        <time>2015-08-11T08:16:56.449Z</time>
      </trkpt>
      <trkpt lat="45.9279" lon="4.7371">
        <ele>172</ele>
        <time>2015-08-11T08:16:57.483Z</time>
      </trkpt>
      <trkpt lat="45.92791" lon="4.73703">
        <ele>171.800003052</ele>
        <time>2015-08-11T08:16:58.453Z</time>
      </trkpt>
      <trkpt lat="45.92792" lon="4.73696">
        <ele>171.699996948</ele>
        <time>2015-08-11T08:16:59.486Z</time>
      </trkpt>
      <trkpt lat="45.92794" lon="4.73689">
        <ele>170.600006104</ele>
        <time>2015-08-11T08:17:00.453Z</time>
      </trkpt>
      <trkpt lat="45.92796" lon="4.73682">
        <ele>169.5</ele>
        <time>2015-08-11T08:17:01.485Z</time>
      </trkpt>
      <trkpt lat="45.92798" lon="4.73674">
        <ele>169</ele>
        <time>2015-08-11T08:17:02.45Z</time>
      </trkpt>
      <trkpt lat="45.928" lon="4.73668">
        <ele>168.699996948</ele>
        <time>2015-08-11T08:17:03.493Z</time>
      </trkpt>
      <trkpt lat="45.92802" lon="4.73661">
        <ele>169.899993896</ele>
        <time>2015-08-11T08:17:04.452Z</time>
      </trkpt>
      <trkpt lat="45.92803" lon="4.7365">
        <ele>169.899993896</ele>
        <time>2015-08-11T08:17:06.76Z</time>
      </trkpt>
      <trkpt lat="45.92804" lon="4.73645">
        <ele>169.600006104</ele>
        <time>2015-08-11T08:17:07.449Z</time>
      </trkpt>
      <trkpt lat="45.92806" lon="4.73641">
        <ele>170.199996948</ele>
        <time>2015-08-11T08:17:08.517Z</time>
      </trkpt>
      <trkpt lat="45.9281" lon="4.73633">
        <ele>170.100006104</ele>
        <time>2015-08-11T08:17:09.553Z</time>
      </trkpt>
      <trkpt lat="45.92815" lon="4.73627">
        <ele>169.300003052</ele>
        <time>2015-08-11T08:17:13.499Z</time>
      </trkpt>
      <trkpt lat="45.92814" lon="4.73629">
        <ele>169.899993896</ele>
        <time>2015-08-11T08:17:14.455Z</time>
      </trkpt>
      <trkpt lat="45.92814" lon="4.73626">
        <ele>171.800003052</ele>
        <time>2015-08-11T08:17:22.579Z</time>
      </trkpt>
      <trkpt lat="45.92814" lon="4.73623">
        <ele>171.800003052</ele>
        <time>2015-08-11T08:17:23.447Z</time>
      </trkpt>
      <trkpt lat="45.92813" lon="4.73614">
        <ele>172.300003052</ele>
        <time>2015-08-11T08:17:26.067Z</time>
      </trkpt>
      <trkpt lat="45.92814" lon="4.73609">
        <ele>172.399993896</ele>
        <time>2015-08-11T08:17:26.595Z</time>
      </trkpt>
      <trkpt lat="45.92813" lon="4.73601">
        <ele>172.899993896</ele>
        <time>2015-08-11T08:17:28.521Z</time>
      </trkpt>
      <trkpt lat="45.92813" lon="4.73595">
        <ele>173.199996948</ele>
        <time>2015-08-11T08:17:29.456Z</time>
      </trkpt>
      <trkpt lat="45.92813" lon="4.73583">
        <ele>173.800003052</ele>
        <time>2015-08-11T08:17:31.493Z</time>
      </trkpt>
      <trkpt lat="45.92814" lon="4.73575">
        <ele>173.800003052</ele>
        <time>2015-08-11T08:17:32.453Z</time>
      </trkpt>
      <trkpt lat="45.92817" lon="4.73565">
        <ele>174.300003052</ele>
        <time>2015-08-11T08:17:33.509Z</time>
      </trkpt>
      <trkpt lat="45.92817" lon="4.73556">
        <ele>174.300003052</ele>
        <time>2015-08-11T08:17:34.447Z</time>
      </trkpt>
      <trkpt lat="45.92819" lon="4.73547">
        <ele>174.100006104</ele>
        <time>2015-08-11T08:17:35.491Z</time>
      </trkpt>
      <trkpt lat="45.9282" lon="4.73539">
        <ele>174.100006104</ele>
        <time>2015-08-11T08:17:36.44Z</time>
      </trkpt>
      <trkpt lat="45.92821" lon="4.73531">
        <ele>174.300003052</ele>
        <time>2015-08-11T08:17:37.486Z</time>
      </trkpt>
      <trkpt lat="45.92821" lon="4.73523">
        <ele>174.399993896</ele>
        <time>2015-08-11T08:17:38.45Z</time>
      </trkpt>
      <trkpt lat="45.92822" lon="4.73516">
        <ele>174.399993896</ele>
        <time>2015-08-11T08:17:39.486Z</time>
      </trkpt>
      <trkpt lat="45.92822" lon="4.73508">
        <ele>174.5</ele>
        <time>2015-08-11T08:17:40.472Z</time>
      </trkpt>
      <trkpt lat="45.92823" lon="4.735">
        <ele>174.600006104</ele>
        <time>2015-08-11T08:17:41.481Z</time>
      </trkpt>
      <trkpt lat="45.92824" lon="4.73492">
        <ele>174.800003052</ele>
        <time>2015-08-11T08:17:42.452Z</time>
      </trkpt>
      <trkpt lat="45.92825" lon="4.73485">
        <ele>174.899993896</ele>
        <time>2015-08-11T08:17:43.486Z</time>
      </trkpt>
      <trkpt lat="45.92826" lon="4.7348">
        <ele>175.100006104</ele>
        <time>2015-08-11T08:17:44.447Z</time>
      </trkpt>
      <trkpt lat="45.92827" lon="4.7347">
        <ele>175.100006104</ele>
        <time>2015-08-11T08:17:45.483Z</time>
      </trkpt>
      <trkpt lat="45.92828" lon="4.73463">
        <ele>175.300003052</ele>
        <time>2015-08-11T08:17:46.444Z</time>
      </trkpt>
      <trkpt lat="45.92829" lon="4.73455">
        <ele>175.600006104</ele>
        <time>2015-08-11T08:17:47.534Z</time>
      </trkpt>
      <trkpt lat="45.92831" lon="4.73447">
        <ele>176.100006104</ele>
        <time>2015-08-11T08:17:48.443Z</time>
      </trkpt>
      <trkpt lat="45.92833" lon="4.73439">
        <ele>176.300003052</ele>
        <time>2015-08-11T08:17:49.487Z</time>
      </trkpt>
      <trkpt lat="45.92834" lon="4.73431">
        <ele>176.5</ele>
        <time>2015-08-11T08:17:50.433Z</time>
      </trkpt>
      <trkpt lat="45.92835" lon="4.73423">
        <ele>176.699996948</ele>
        <time>2015-08-11T08:17:51.482Z</time>
      </trkpt>
      <trkpt lat="45.92836" lon="4.73416">
        <ele>177</ele>
        <time>2015-08-11T08:17:52.451Z</time>
      </trkpt>
      <trkpt lat="45.92837" lon="4.73407">
        <ele>177.5</ele>
        <time>2015-08-11T08:17:53.573Z</time>
      </trkpt>
      <trkpt lat="45.92838" lon="4.73399">
        <ele>177.5</ele>
        <time>2015-08-11T08:17:54.442Z</time>
      </trkpt>
      <trkpt lat="45.92838" lon="4.73391">
        <ele>177.5</ele>
        <time>2015-08-11T08:17:55.48Z</time>
      </trkpt>
      <trkpt lat="45.9284" lon="4.73381">
        <ele>177.199996948</ele>
        <time>2015-08-11T08:17:56.433Z</time>
      </trkpt>
      <trkpt lat="45.92841" lon="4.73372">
        <ele>177</ele>
        <time>2015-08-11T08:17:57.554Z</time>
      </trkpt>
      <trkpt lat="45.92843" lon="4.73362">
        <ele>176.600006104</ele>
        <time>2015-08-11T08:17:58.441Z</time>
      </trkpt>
      <trkpt lat="45.92844" lon="4.73354">
        <ele>176.5</ele>
        <time>2015-08-11T08:17:59.479Z</time>
      </trkpt>
      <trkpt lat="45.92845" lon="4.73346">
        <ele>176.199996948</ele>
        <time>2015-08-11T08:18:00.442Z</time>
      </trkpt>
      <trkpt lat="45.92846" lon="4.73337">
        <ele>176</ele>
        <time>2015-08-11T08:18:01.503Z</time>
      </trkpt>
      <trkpt lat="45.92847" lon="4.73328">
        <ele>175.5</ele>
        <time>2015-08-11T08:18:02.513Z</time>
      </trkpt>
      <trkpt lat="45.92848" lon="4.73319">
        <ele>174.699996948</ele>
        <time>2015-08-11T08:18:03.537Z</time>
      </trkpt>
      <trkpt lat="45.92849" lon="4.7331">
        <ele>174.300003052</ele>
        <time>2015-08-11T08:18:04.466Z</time>
      </trkpt>
      <trkpt lat="45.9285" lon="4.73301">
        <ele>174.300003052</ele>
        <time>2015-08-11T08:18:05.487Z</time>
      </trkpt>
      <trkpt lat="45.92851" lon="4.73292">
        <ele>174.100006104</ele>
        <time>2015-08-11T08:18:06.465Z</time>
      </trkpt>
      <trkpt lat="45.92852" lon="4.73283">
        <ele>173.899993896</ele>
        <time>2015-08-11T08:18:07.487Z</time>
      </trkpt>
      <trkpt lat="45.92854" lon="4.73274">
        <ele>173.899993896</ele>
        <time>2015-08-11T08:18:08.458Z</time>
      </trkpt>
      <trkpt lat="45.92855" lon="4.73265">
        <ele>174</ele>
        <time>2015-08-11T08:18:09.6Z</time>
      </trkpt>
      <trkpt lat="45.92857" lon="4.73261">
        <ele>173.600006104</ele>
        <time>2015-08-11T08:18:10.522Z</time>
      </trkpt>
      <trkpt lat="45.92859" lon="4.73254">
        <ele>174.100006104</ele>
        <time>2015-08-11T08:18:11.483Z</time>
      </trkpt>
      <trkpt lat="45.92859" lon="4.73247">
        <ele>174.699996948</ele>
        <time>2015-08-11T08:18:12.449Z</time>
      </trkpt>
      <trkpt lat="45.9286" lon="4.73235">
        <ele>175.199996948</ele>
        <time>2015-08-11T08:18:13.564Z</time>
      </trkpt>
      <trkpt lat="45.92861" lon="4.73227">
        <ele>175.600006104</ele>
        <time>2015-08-11T08:18:14.469Z</time>
      </trkpt>
      <trkpt lat="45.92862" lon="4.73219">
        <ele>175.699996948</ele>
        <time>2015-08-11T08:18:15.491Z</time>
      </trkpt>
      <trkpt lat="45.92862" lon="4.73211">
        <ele>175.699996948</ele>
        <time>2015-08-11T08:18:16.453Z</time>
      </trkpt>
      <trkpt lat="45.92864" lon="4.73204">
        <ele>175.600006104</ele>
        <time>2015-08-11T08:18:17.485Z</time>
      </trkpt>
      <trkpt lat="45.92864" lon="4.73195">
        <ele>174.899993896</ele>
        <time>2015-08-11T08:18:18.451Z</time>
      </trkpt>
      <trkpt lat="45.92864" lon="4.73185">
        <ele>173</ele>
        <time>2015-08-11T08:18:19.708Z</time>
      </trkpt>
      <trkpt lat="45.92864" lon="4.73176">
        <ele>171.800003052</ele>
        <time>2015-08-11T08:18:20.454Z</time>
      </trkpt>
      <trkpt lat="45.92865" lon="4.73167">
        <ele>170.5</ele>
        <time>2015-08-11T08:18:21.482Z</time>
      </trkpt>
      <trkpt lat="45.92865" lon="4.73159">
        <ele>170.300003052</ele>
        <time>2015-08-11T08:18:22.446Z</time>
      </trkpt>
      <trkpt lat="45.92866" lon="4.7315">
        <ele>169.899993896</ele>
        <time>2015-08-11T08:18:23.564Z</time>
      </trkpt>
      <trkpt lat="45.92867" lon="4.73141">
        <ele>169.699996948</ele>
        <time>2015-08-11T08:18:24.578Z</time>
      </trkpt>
      <trkpt lat="45.92868" lon="4.73133">
        <ele>169.600006104</ele>
        <time>2015-08-11T08:18:25.484Z</time>
      </trkpt>
      <trkpt lat="45.9287" lon="4.73124">
        <ele>169.399993896</ele>
        <time>2015-08-11T08:18:26.45Z</time>
      </trkpt>
      <trkpt lat="45.92872" lon="4.73115">
        <ele>169.300003052</ele>
        <time>2015-08-11T08:18:27.859Z</time>
      </trkpt>
      <trkpt lat="45.92874" lon="4.73106">
        <ele>169.5</ele>
        <time>2015-08-11T08:18:28.696Z</time>
      </trkpt>
      <trkpt lat="45.92876" lon="4.73097">
        <ele>169.300003052</ele>
        <time>2015-08-11T08:18:29.553Z</time>
      </trkpt>
      <trkpt lat="45.92877" lon="4.73089">
        <ele>169.199996948</ele>
        <time>2015-08-11T08:18:30.477Z</time>
      </trkpt>
      <trkpt lat="45.9288" lon="4.73081">
        <ele>168.899993896</ele>
        <time>2015-08-11T08:18:32.205Z</time>
      </trkpt>
      <trkpt lat="45.92883" lon="4.73074">
        <ele>168.5</ele>
        <time>2015-08-11T08:18:32.799Z</time>
      </trkpt>
      <trkpt lat="45.92886" lon="4.73068">
        <ele>168.100006104</ele>
        <time>2015-08-11T08:18:33.5Z</time>
      </trkpt>
      <trkpt lat="45.9289" lon="4.73061">
        <ele>167.699996948</ele>
        <time>2015-08-11T08:18:34.46Z</time>
      </trkpt>
      <trkpt lat="45.92895" lon="4.73054">
        <ele>167.300003052</ele>
        <time>2015-08-11T08:18:35.493Z</time>
      </trkpt>
      <trkpt lat="45.92899" lon="4.73048">
        <ele>166.699996948</ele>
        <time>2015-08-11T08:18:36.457Z</time>
      </trkpt>
      <trkpt lat="45.92904" lon="4.73041">
        <ele>166.5</ele>
        <time>2015-08-11T08:18:37.493Z</time>
      </trkpt>
      <trkpt lat="45.92908" lon="4.73036">
        <ele>166.300003052</ele>
        <time>2015-08-11T08:18:38.454Z</time>
      </trkpt>
      <trkpt lat="45.92912" lon="4.7303">
        <ele>166.199996948</ele>
        <time>2015-08-11T08:18:39.494Z</time>
      </trkpt>
      <trkpt lat="45.92917" lon="4.73025">
        <ele>166</ele>
        <time>2015-08-11T08:18:40.451Z</time>
      </trkpt>
      <trkpt lat="45.92921" lon="4.73019">
        <ele>165.800003052</ele>
        <time>2015-08-11T08:18:41.484Z</time>
      </trkpt>
      <trkpt lat="45.92926" lon="4.73014">
        <ele>165.800003052</ele>
        <time>2015-08-11T08:18:42.507Z</time>
      </trkpt>
      <trkpt lat="45.92931" lon="4.73008">
        <ele>165.699996948</ele>
        <time>2015-08-11T08:18:43.495Z</time>
      </trkpt>
      <trkpt lat="45.92935" lon="4.73003">
        <ele>165.600006104</ele>
        <time>2015-08-11T08:18:44.513Z</time>
      </trkpt>
      <trkpt lat="45.9294" lon="4.72997">
        <ele>165.300003052</ele>
        <time>2015-08-11T08:18:45.493Z</time>
      </trkpt>
      <trkpt lat="45.92944" lon="4.72992">
        <ele>165.100006104</ele>
        <time>2015-08-11T08:18:46.463Z</time>
      </trkpt>
      <trkpt lat="45.92949" lon="4.72986">
        <ele>165.300003052</ele>
        <time>2015-08-11T08:18:47.488Z</time>
      </trkpt>
      <trkpt lat="45.92954" lon="4.72981">
        <ele>165.5</ele>
        <time>2015-08-11T08:18:48.452Z</time>
      </trkpt>
      <trkpt lat="45.92959" lon="4.72975">
        <ele>165.800003052</ele>
        <time>2015-08-11T08:18:49.501Z</time>
      </trkpt>
      <trkpt lat="45.92964" lon="4.72969">
        <ele>165.899993896</ele>
        <time>2015-08-11T08:18:50.452Z</time>
      </trkpt>
      <trkpt lat="45.92969" lon="4.72964">
        <ele>166.100006104</ele>
        <time>2015-08-11T08:18:51.489Z</time>
      </trkpt>
      <trkpt lat="45.92973" lon="4.72958">
        <ele>166.100006104</ele>
        <time>2015-08-11T08:18:52.454Z</time>
      </trkpt>
      <trkpt lat="45.92978" lon="4.72952">
        <ele>166.300003052</ele>
        <time>2015-08-11T08:18:53.487Z</time>
      </trkpt>
      <trkpt lat="45.92982" lon="4.72946">
        <ele>166.199996948</ele>
        <time>2015-08-11T08:18:54.454Z</time>
      </trkpt>
      <trkpt lat="45.92987" lon="4.7294">
        <ele>166.600006104</ele>
        <time>2015-08-11T08:18:55.494Z</time>
      </trkpt>
      <trkpt lat="45.92992" lon="4.72935">
        <ele>166.899993896</ele>
        <time>2015-08-11T08:18:56.458Z</time>
      </trkpt>
      <trkpt lat="45.92997" lon="4.7293">
        <ele>167.300003052</ele>
        <time>2015-08-11T08:18:57.486Z</time>
      </trkpt>
      <trkpt lat="45.93002" lon="4.72924">
        <ele>167.800003052</ele>
        <time>2015-08-11T08:18:58.45Z</time>
      </trkpt>
      <trkpt lat="45.93007" lon="4.72919">
        <ele>168.300003052</ele>
        <time>2015-08-11T08:18:59.621Z</time>
      </trkpt>
      <trkpt lat="45.93011" lon="4.72912">
        <ele>168.399993896</ele>
        <time>2015-08-11T08:19:00.483Z</time>
      </trkpt>
      <trkpt lat="45.93016" lon="4.72907">
        <ele>168.699996948</ele>
        <time>2015-08-11T08:19:01.505Z</time>
      </trkpt>
      <trkpt lat="45.93021" lon="4.72901">
        <ele>169.100006104</ele>
        <time>2015-08-11T08:19:02.454Z</time>
      </trkpt>
      <trkpt lat="45.93026" lon="4.72896">
        <ele>169.300003052</ele>
        <time>2015-08-11T08:19:03.505Z</time>
      </trkpt>
      <trkpt lat="45.9303" lon="4.7289">
        <ele>169.399993896</ele>
        <time>2015-08-11T08:19:04.453Z</time>
      </trkpt>
      <trkpt lat="45.93035" lon="4.72883">
        <ele>169.5</ele>
        <time>2015-08-11T08:19:05.495Z</time>
      </trkpt>
      <trkpt lat="45.9304" lon="4.72877">
        <ele>169.699996948</ele>
        <time>2015-08-11T08:19:06.453Z</time>
      </trkpt>
      <trkpt lat="45.93045" lon="4.72871">
        <ele>169.800003052</ele>
        <time>2015-08-11T08:19:07.49Z</time>
      </trkpt>
      <trkpt lat="45.9305" lon="4.72866">
        <ele>170.199996948</ele>
        <time>2015-08-11T08:19:08.455Z</time>
      </trkpt>
      <trkpt lat="45.93054" lon="4.7286">
        <ele>170.899993896</ele>
        <time>2015-08-11T08:19:09.484Z</time>
      </trkpt>
      <trkpt lat="45.93059" lon="4.72855">
        <ele>171.399993896</ele>
        <time>2015-08-11T08:19:10.452Z</time>
      </trkpt>
      <trkpt lat="45.93064" lon="4.72849">
        <ele>171.5</ele>
        <time>2015-08-11T08:19:11.486Z</time>
      </trkpt>
      <trkpt lat="45.9307" lon="4.72844">
        <ele>171.600006104</ele>
        <time>2015-08-11T08:19:12.453Z</time>
      </trkpt>
      <trkpt lat="45.93075" lon="4.72839">
        <ele>171.699996948</ele>
        <time>2015-08-11T08:19:13.486Z</time>
      </trkpt>
      <trkpt lat="45.9308" lon="4.72835">
        <ele>171.800003052</ele>
        <time>2015-08-11T08:19:14.453Z</time>
      </trkpt>
      <trkpt lat="45.93086" lon="4.72828">
        <ele>171.899993896</ele>
        <time>2015-08-11T08:19:15.486Z</time>
      </trkpt>
      <trkpt lat="45.93091" lon="4.72824">
        <ele>171.899993896</ele>
        <time>2015-08-11T08:19:16.482Z</time>
      </trkpt>
      <trkpt lat="45.93095" lon="4.7282">
        <ele>171.899993896</ele>
        <time>2015-08-11T08:19:17.486Z</time>
      </trkpt>
      <trkpt lat="45.93101" lon="4.72815">
        <ele>172.199996948</ele>
        <time>2015-08-11T08:19:18.445Z</time>
      </trkpt>
      <trkpt lat="45.93105" lon="4.72808">
        <ele>172.800003052</ele>
        <time>2015-08-11T08:19:19.489Z</time>
      </trkpt>
      <trkpt lat="45.9311" lon="4.72802">
        <ele>173.199996948</ele>
        <time>2015-08-11T08:19:20.453Z</time>
      </trkpt>
      <trkpt lat="45.93115" lon="4.72797">
        <ele>173.399993896</ele>
        <time>2015-08-11T08:19:21.485Z</time>
      </trkpt>
      <trkpt lat="45.9312" lon="4.72792">
        <ele>173.5</ele>
        <time>2015-08-11T08:19:22.454Z</time>
      </trkpt>
      <trkpt lat="45.93125" lon="4.72787">
        <ele>173.600006104</ele>
        <time>2015-08-11T08:19:23.485Z</time>
      </trkpt>
      <trkpt lat="45.93129" lon="4.72782">
        <ele>173.699996948</ele>
        <time>2015-08-11T08:19:24.453Z</time>
      </trkpt>
      <trkpt lat="45.93133" lon="4.72776">
        <ele>173.800003052</ele>
        <time>2015-08-11T08:19:25.645Z</time>
      </trkpt>
      <trkpt lat="45.93138" lon="4.7277">
        <ele>173.899993896</ele>
        <time>2015-08-11T08:19:26.449Z</time>
      </trkpt>
      <trkpt lat="45.93143" lon="4.72764">
        <ele>174.100006104</ele>
        <time>2015-08-11T08:19:27.48Z</time>
      </trkpt>
      <trkpt lat="45.93148" lon="4.72758">
        <ele>174.100006104</ele>
        <time>2015-08-11T08:19:28.454Z</time>
      </trkpt>
      <trkpt lat="45.93151" lon="4.72753">
        <ele>174.5</ele>
        <time>2015-08-11T08:19:29.498Z</time>
      </trkpt>
      <trkpt lat="45.93156" lon="4.72748">
        <ele>174.899993896</ele>
        <time>2015-08-11T08:19:30.448Z</time>
      </trkpt>
      <trkpt lat="45.9316" lon="4.72742">
        <ele>175.300003052</ele>
        <time>2015-08-11T08:19:31.488Z</time>
      </trkpt>
      <trkpt lat="45.93164" lon="4.72737">
        <ele>175.5</ele>
        <time>2015-08-11T08:19:32.452Z</time>
      </trkpt>
      <trkpt lat="45.93168" lon="4.72731">
        <ele>175.699996948</ele>
        <time>2015-08-11T08:19:33.485Z</time>
      </trkpt>
      <trkpt lat="45.93171" lon="4.72725">
        <ele>175.600006104</ele>
        <time>2015-08-11T08:19:34.453Z</time>
      </trkpt>
      <trkpt lat="45.93175" lon="4.7272">
        <ele>175.699996948</ele>
        <time>2015-08-11T08:19:35.487Z</time>
      </trkpt>
      <trkpt lat="45.93179" lon="4.72715">
        <ele>175.899993896</ele>
        <time>2015-08-11T08:19:36.449Z</time>
      </trkpt>
      <trkpt lat="45.93183" lon="4.7271">
        <ele>176</ele>
        <time>2015-08-11T08:19:37.486Z</time>
      </trkpt>
      <trkpt lat="45.93188" lon="4.72704">
        <ele>176.199996948</ele>
        <time>2015-08-11T08:19:38.449Z</time>
      </trkpt>
      <trkpt lat="45.93193" lon="4.72699">
        <ele>176.399993896</ele>
        <time>2015-08-11T08:19:39.481Z</time>
      </trkpt>
      <trkpt lat="45.93198" lon="4.72694">
        <ele>176.600006104</ele>
        <time>2015-08-11T08:19:40.447Z</time>
      </trkpt>
      <trkpt lat="45.93203" lon="4.72688">
        <ele>176.699996948</ele>
        <time>2015-08-11T08:19:41.485Z</time>
      </trkpt>
      <trkpt lat="45.93208" lon="4.72683">
        <ele>176.899993896</ele>
        <time>2015-08-11T08:19:42.452Z</time>
      </trkpt>
      <trkpt lat="45.93212" lon="4.72678">
        <ele>177.5</ele>
        <time>2015-08-11T08:19:43.484Z</time>
      </trkpt>
      <trkpt lat="45.93216" lon="4.72675">
        <ele>178.399993896</ele>
        <time>2015-08-11T08:19:44.45Z</time>
      </trkpt>
      <trkpt lat="45.93222" lon="4.72673">
        <ele>178.800003052</ele>
        <time>2015-08-11T08:19:45.494Z</time>
      </trkpt>
      <trkpt lat="45.93227" lon="4.72668">
        <ele>179.5</ele>
        <time>2015-08-11T08:19:46.453Z</time>
      </trkpt>
      <trkpt lat="45.93233" lon="4.72662">
        <ele>180.199996948</ele>
        <time>2015-08-11T08:19:47.488Z</time>
      </trkpt>
      <trkpt lat="45.93239" lon="4.72656">
        <ele>180.699996948</ele>
        <time>2015-08-11T08:19:48.454Z</time>
      </trkpt>
      <trkpt lat="45.93244" lon="4.7265">
        <ele>181</ele>
        <time>2015-08-11T08:19:49.488Z</time>
      </trkpt>
      <trkpt lat="45.93249" lon="4.72644">
        <ele>181.100006104</ele>
        <time>2015-08-11T08:19:50.484Z</time>
      </trkpt>
      <trkpt lat="45.93254" lon="4.72638">
        <ele>181.300003052</ele>
        <time>2015-08-11T08:19:51.643Z</time>
      </trkpt>
      <trkpt lat="45.93259" lon="4.72632">
        <ele>181.5</ele>
        <time>2015-08-11T08:19:52.453Z</time>
      </trkpt>
      <trkpt lat="45.93263" lon="4.72627">
        <ele>181.800003052</ele>
        <time>2015-08-11T08:19:53.484Z</time>
      </trkpt>
      <trkpt lat="45.93268" lon="4.72622">
        <ele>182.100006104</ele>
        <time>2015-08-11T08:19:54.449Z</time>
      </trkpt>
      <trkpt lat="45.93272" lon="4.72617">
        <ele>182.300003052</ele>
        <time>2015-08-11T08:19:55.493Z</time>
      </trkpt>
      <trkpt lat="45.93276" lon="4.72612">
        <ele>182.5</ele>
        <time>2015-08-11T08:19:56.449Z</time>
      </trkpt>
      <trkpt lat="45.93281" lon="4.72606">
        <ele>182.699996948</ele>
        <time>2015-08-11T08:19:57.486Z</time>
      </trkpt>
      <trkpt lat="45.93286" lon="4.72601">
        <ele>183</ele>
        <time>2015-08-11T08:19:58.446Z</time>
      </trkpt>
      <trkpt lat="45.9329" lon="4.72593">
        <ele>183.300003052</ele>
        <time>2015-08-11T08:19:59.485Z</time>
      </trkpt>
      <trkpt lat="45.93294" lon="4.72586">
        <ele>183.699996948</ele>
        <time>2015-08-11T08:20:00.453Z</time>
      </trkpt>
      <trkpt lat="45.933" lon="4.7258">
        <ele>184</ele>
        <time>2015-08-11T08:20:01.546Z</time>
      </trkpt>
      <trkpt lat="45.93306" lon="4.72574">
        <ele>184.5</ele>
        <time>2015-08-11T08:20:02.453Z</time>
      </trkpt>
      <trkpt lat="45.93311" lon="4.72569">
        <ele>184.899993896</ele>
        <time>2015-08-11T08:20:03.486Z</time>
      </trkpt>
      <trkpt lat="45.93315" lon="4.72564">
        <ele>185.199996948</ele>
        <time>2015-08-11T08:20:04.447Z</time>
      </trkpt>
      <trkpt lat="45.9332" lon="4.72559">
        <ele>185.600006104</ele>
        <time>2015-08-11T08:20:05.486Z</time>
      </trkpt>
      <trkpt lat="45.93324" lon="4.72553">
        <ele>185.800003052</ele>
        <time>2015-08-11T08:20:06.455Z</time>
      </trkpt>
      <trkpt lat="45.93328" lon="4.72548">
        <ele>186.199996948</ele>
        <time>2015-08-11T08:20:07.486Z</time>
      </trkpt>
      <trkpt lat="45.93333" lon="4.72543">
        <ele>186.600006104</ele>
        <time>2015-08-11T08:20:08.493Z</time>
      </trkpt>
      <trkpt lat="45.93338" lon="4.72537">
        <ele>186.600006104</ele>
        <time>2015-08-11T08:20:09.483Z</time>
      </trkpt>
      <trkpt lat="45.93343" lon="4.72532">
        <ele>186.800003052</ele>
        <time>2015-08-11T08:20:10.456Z</time>
      </trkpt>
      <trkpt lat="45.93347" lon="4.72527">
        <ele>187.399993896</ele>
        <time>2015-08-11T08:20:11.521Z</time>
      </trkpt>
      <trkpt lat="45.93351" lon="4.72522">
        <ele>187.699996948</ele>
        <time>2015-08-11T08:20:12.456Z</time>
      </trkpt>
      <trkpt lat="45.93355" lon="4.72517">
        <ele>187.800003052</ele>
        <time>2015-08-11T08:20:13.488Z</time>
      </trkpt>
      <trkpt lat="45.9336" lon="4.72512">
        <ele>188.100006104</ele>
        <time>2015-08-11T08:20:14.451Z</time>
      </trkpt>
      <trkpt lat="45.93364" lon="4.72507">
        <ele>188.199996948</ele>
        <time>2015-08-11T08:20:15.488Z</time>
      </trkpt>
      <trkpt lat="45.93369" lon="4.72503">
        <ele>188.800003052</ele>
        <time>2015-08-11T08:20:16.485Z</time>
      </trkpt>
      <trkpt lat="45.93374" lon="4.72498">
        <ele>189.100006104</ele>
        <time>2015-08-11T08:20:17.483Z</time>
      </trkpt>
      <trkpt lat="45.93379" lon="4.72492">
        <ele>189</ele>
        <time>2015-08-11T08:20:18.453Z</time>
      </trkpt>
      <trkpt lat="45.93384" lon="4.72487">
        <ele>188.899993896</ele>
        <time>2015-08-11T08:20:19.488Z</time>
      </trkpt>
      <trkpt lat="45.93388" lon="4.72481">
        <ele>189.100006104</ele>
        <time>2015-08-11T08:20:20.447Z</time>
      </trkpt>
      <trkpt lat="45.93392" lon="4.72476">
        <ele>189.199996948</ele>
        <time>2015-08-11T08:20:21.505Z</time>
      </trkpt>
      <trkpt lat="45.93395" lon="4.72469">
        <ele>189.399993896</ele>
        <time>2015-08-11T08:20:22.452Z</time>
      </trkpt>
      <trkpt lat="45.93398" lon="4.72462">
        <ele>189.600006104</ele>
        <time>2015-08-11T08:20:23.481Z</time>
      </trkpt>
      <trkpt lat="45.93399" lon="4.72456">
        <ele>189.699996948</ele>
        <time>2015-08-11T08:20:24.446Z</time>
      </trkpt>
      <trkpt lat="45.93402" lon="4.72445">
        <ele>189.5</ele>
        <time>2015-08-11T08:20:26.482Z</time>
      </trkpt>
      <trkpt lat="45.93403" lon="4.7244">
        <ele>189.699996948</ele>
        <time>2015-08-11T08:20:27.451Z</time>
      </trkpt>
      <trkpt lat="45.9341" lon="4.72432">
        <ele>189.899993896</ele>
        <time>2015-08-11T08:20:29.505Z</time>
      </trkpt>
      <trkpt lat="45.93414" lon="4.72429">
        <ele>189.800003052</ele>
        <time>2015-08-11T08:20:30.449Z</time>
      </trkpt>
      <trkpt lat="45.93422" lon="4.72423">
        <ele>189.600006104</ele>
        <time>2015-08-11T08:20:32.501Z</time>
      </trkpt>
      <trkpt lat="45.93426" lon="4.7242">
        <ele>189.399993896</ele>
        <time>2015-08-11T08:20:33.443Z</time>
      </trkpt>
      <trkpt lat="45.93431" lon="4.72418">
        <ele>189.199996948</ele>
        <time>2015-08-11T08:20:34.583Z</time>
      </trkpt>
      <trkpt lat="45.93436" lon="4.72414">
        <ele>189</ele>
        <time>2015-08-11T08:20:35.452Z</time>
      </trkpt>
      <trkpt lat="45.93442" lon="4.72411">
        <ele>188.899993896</ele>
        <time>2015-08-11T08:20:36.483Z</time>
      </trkpt>
      <trkpt lat="45.93447" lon="4.72408">
        <ele>188.600006104</ele>
        <time>2015-08-11T08:20:37.448Z</time>
      </trkpt>
      <trkpt lat="45.93452" lon="4.72404">
        <ele>188.600006104</ele>
        <time>2015-08-11T08:20:38.483Z</time>
      </trkpt>
      <trkpt lat="45.93457" lon="4.724">
        <ele>188.600006104</ele>
        <time>2015-08-11T08:20:39.448Z</time>
      </trkpt>
      <trkpt lat="45.93462" lon="4.72395">
        <ele>188.5</ele>
        <time>2015-08-11T08:20:40.5Z</time>
      </trkpt>
      <trkpt lat="45.93466" lon="4.7239">
        <ele>188</ele>
        <time>2015-08-11T08:20:41.449Z</time>
      </trkpt>
      <trkpt lat="45.9347" lon="4.72384">
        <ele>187.600006104</ele>
        <time>2015-08-11T08:20:42.482Z</time>
      </trkpt>
      <trkpt lat="45.93474" lon="4.72379">
        <ele>187.5</ele>
        <time>2015-08-11T08:20:43.428Z</time>
      </trkpt>
      <trkpt lat="45.93477" lon="4.72373">
        <ele>187.399993896</ele>
        <time>2015-08-11T08:20:44.506Z</time>
      </trkpt>
      <trkpt lat="45.9348" lon="4.72367">
        <ele>187.300003052</ele>
        <time>2015-08-11T08:20:45.453Z</time>
      </trkpt>
      <trkpt lat="45.93484" lon="4.72361">
        <ele>187.5</ele>
        <time>2015-08-11T08:20:46.483Z</time>
      </trkpt>
      <trkpt lat="45.93488" lon="4.72355">
        <ele>187.699996948</ele>
        <time>2015-08-11T08:20:47.453Z</time>
      </trkpt>
      <trkpt lat="45.93493" lon="4.72349">
        <ele>188.300003052</ele>
        <time>2015-08-11T08:20:48.479Z</time>
      </trkpt>
      <trkpt lat="45.93497" lon="4.72343">
        <ele>188.5</ele>
        <time>2015-08-11T08:20:49.428Z</time>
      </trkpt>
      <trkpt lat="45.93501" lon="4.72338">
        <ele>188.600006104</ele>
        <time>2015-08-11T08:20:50.48Z</time>
      </trkpt>
      <trkpt lat="45.93506" lon="4.72332">
        <ele>187.199996948</ele>
        <time>2015-08-11T08:20:51.447Z</time>
      </trkpt>
      <trkpt lat="45.93511" lon="4.72326">
        <ele>187</ele>
        <time>2015-08-11T08:20:52.478Z</time>
      </trkpt>
      <trkpt lat="45.93514" lon="4.72321">
        <ele>186.699996948</ele>
        <time>2015-08-11T08:20:53.444Z</time>
      </trkpt>
      <trkpt lat="45.93518" lon="4.72315">
        <ele>186.699996948</ele>
        <time>2015-08-11T08:20:54.481Z</time>
      </trkpt>
      <trkpt lat="45.93521" lon="4.72309">
        <ele>186.600006104</ele>
        <time>2015-08-11T08:20:55.449Z</time>
      </trkpt>
      <trkpt lat="45.93525" lon="4.72303">
        <ele>186.5</ele>
        <time>2015-08-11T08:20:56.482Z</time>
      </trkpt>
      <trkpt lat="45.93527" lon="4.72297">
        <ele>186.5</ele>
        <time>2015-08-11T08:20:57.449Z</time>
      </trkpt>
      <trkpt lat="45.93529" lon="4.7229">
        <ele>186.800003052</ele>
        <time>2015-08-11T08:20:58.48Z</time>
      </trkpt>
      <trkpt lat="45.93532" lon="4.72283">
        <ele>187.100006104</ele>
        <time>2015-08-11T08:20:59.439Z</time>
      </trkpt>
      <trkpt lat="45.93534" lon="4.72276">
        <ele>187.399993896</ele>
        <time>2015-08-11T08:21:00.483Z</time>
      </trkpt>
      <trkpt lat="45.93537" lon="4.7227">
        <ele>186.899993896</ele>
        <time>2015-08-11T08:21:01.455Z</time>
      </trkpt>
      <trkpt lat="45.93539" lon="4.72263">
        <ele>186.899993896</ele>
        <time>2015-08-11T08:21:02.495Z</time>
      </trkpt>
      <trkpt lat="45.93541" lon="4.72256">
        <ele>186.699996948</ele>
        <time>2015-08-11T08:21:03.453Z</time>
      </trkpt>
      <trkpt lat="45.93544" lon="4.72248">
        <ele>186.100006104</ele>
        <time>2015-08-11T08:21:04.532Z</time>
      </trkpt>
      <trkpt lat="45.93547" lon="4.72242">
        <ele>185.699996948</ele>
        <time>2015-08-11T08:21:05.456Z</time>
      </trkpt>
      <trkpt lat="45.93551" lon="4.72235">
        <ele>185.399993896</ele>
        <time>2015-08-11T08:21:06.483Z</time>
      </trkpt>
      <trkpt lat="45.93555" lon="4.7223">
        <ele>185.199996948</ele>
        <time>2015-08-11T08:21:07.448Z</time>
      </trkpt>
      <trkpt lat="45.93559" lon="4.72225">
        <ele>185.100006104</ele>
        <time>2015-08-11T08:21:08.485Z</time>
      </trkpt>
      <trkpt lat="45.93564" lon="4.7222">
        <ele>184.899993896</ele>
        <time>2015-08-11T08:21:09.436Z</time>
      </trkpt>
      <trkpt lat="45.93569" lon="4.72215">
        <ele>184.699996948</ele>
        <time>2015-08-11T08:21:10.489Z</time>
      </trkpt>
      <trkpt lat="45.93574" lon="4.72209">
        <ele>184.699996948</ele>
        <time>2015-08-11T08:21:11.452Z</time>
      </trkpt>
      <trkpt lat="45.93579" lon="4.72204">
        <ele>184.399993896</ele>
        <time>2015-08-11T08:21:12.479Z</time>
      </trkpt>
      <trkpt lat="45.93584" lon="4.72199">
        <ele>184.100006104</ele>
        <time>2015-08-11T08:21:13.452Z</time>
      </trkpt>
      <trkpt lat="45.93589" lon="4.72194">
        <ele>184.199996948</ele>
        <time>2015-08-11T08:21:14.489Z</time>
      </trkpt>
      <trkpt lat="45.93594" lon="4.7219">
        <ele>184.100006104</ele>
        <time>2015-08-11T08:21:15.448Z</time>
      </trkpt>
      <trkpt lat="45.93598" lon="4.72187">
        <ele>184.600006104</ele>
        <time>2015-08-11T08:21:16.499Z</time>
      </trkpt>
      <trkpt lat="45.93603" lon="4.72182">
        <ele>184.100006104</ele>
        <time>2015-08-11T08:21:17.446Z</time>
      </trkpt>
      <trkpt lat="45.93609" lon="4.72177">
        <ele>184</ele>
        <time>2015-08-11T08:21:18.48Z</time>
      </trkpt>
      <trkpt lat="45.93613" lon="4.72171">
        <ele>184.300003052</ele>
        <time>2015-08-11T08:21:19.456Z</time>
      </trkpt>
      <trkpt lat="45.93618" lon="4.72165">
        <ele>184.199996948</ele>
        <time>2015-08-11T08:21:20.485Z</time>
      </trkpt>
      <trkpt lat="45.93622" lon="4.72159">
        <ele>184.100006104</ele>
        <time>2015-08-11T08:21:21.449Z</time>
      </trkpt>
      <trkpt lat="45.93627" lon="4.72153">
        <ele>184.300003052</ele>
        <time>2015-08-11T08:21:22.539Z</time>
      </trkpt>
      <trkpt lat="45.93632" lon="4.72145">
        <ele>184.5</ele>
        <time>2015-08-11T08:21:23.443Z</time>
      </trkpt>
      <trkpt lat="45.93636" lon="4.72138">
        <ele>184.5</ele>
        <time>2015-08-11T08:21:24.482Z</time>
      </trkpt>
      <trkpt lat="45.93641" lon="4.72133">
        <ele>184.699996948</ele>
        <time>2015-08-11T08:21:25.506Z</time>
      </trkpt>
      <trkpt lat="45.93645" lon="4.72128">
        <ele>184.800003052</ele>
        <time>2015-08-11T08:21:26.496Z</time>
      </trkpt>
      <trkpt lat="45.93647" lon="4.72122">
        <ele>185.100006104</ele>
        <time>2015-08-11T08:21:27.455Z</time>
      </trkpt>
      <trkpt lat="45.9365" lon="4.72115">
        <ele>184.899993896</ele>
        <time>2015-08-11T08:21:28.486Z</time>
      </trkpt>
      <trkpt lat="45.93654" lon="4.72107">
        <ele>184.800003052</ele>
        <time>2015-08-11T08:21:29.445Z</time>
      </trkpt>
      <trkpt lat="45.93658" lon="4.721">
        <ele>184.800003052</ele>
        <time>2015-08-11T08:21:30.515Z</time>
      </trkpt>
      <trkpt lat="45.93662" lon="4.72093">
        <ele>184.699996948</ele>
        <time>2015-08-11T08:21:31.429Z</time>
      </trkpt>
      <trkpt lat="45.93667" lon="4.72087">
        <ele>184.399993896</ele>
        <time>2015-08-11T08:21:32.516Z</time>
      </trkpt>
      <trkpt lat="45.9367" lon="4.72079">
        <ele>184.199996948</ele>
        <time>2015-08-11T08:21:33.444Z</time>
      </trkpt>
      <trkpt lat="45.93674" lon="4.72072">
        <ele>184.199996948</ele>
        <time>2015-08-11T08:21:34.483Z</time>
      </trkpt>
      <trkpt lat="45.93678" lon="4.72065">
        <ele>184.199996948</ele>
        <time>2015-08-11T08:21:35.447Z</time>
      </trkpt>
      <trkpt lat="45.93682" lon="4.72059">
        <ele>184.399993896</ele>
        <time>2015-08-11T08:21:36.488Z</time>
      </trkpt>
      <trkpt lat="45.93686" lon="4.72052">
        <ele>184.300003052</ele>
        <time>2015-08-11T08:21:37.456Z</time>
      </trkpt>
      <trkpt lat="45.93688" lon="4.72048">
        <ele>184.300003052</ele>
        <time>2015-08-11T08:21:38.483Z</time>
      </trkpt>
      <trkpt lat="45.93691" lon="4.72043">
        <ele>184.199996948</ele>
        <time>2015-08-11T08:21:39.434Z</time>
      </trkpt>
      <trkpt lat="45.93695" lon="4.72037">
        <ele>184.100006104</ele>
        <time>2015-08-11T08:21:40.527Z</time>
      </trkpt>
      <trkpt lat="45.93698" lon="4.72031">
        <ele>184.300003052</ele>
        <time>2015-08-11T08:21:41.447Z</time>
      </trkpt>
      <trkpt lat="45.93701" lon="4.72025">
        <ele>184.399993896</ele>
        <time>2015-08-11T08:21:42.493Z</time>
      </trkpt>
      <trkpt lat="45.93704" lon="4.72019">
        <ele>184.5</ele>
        <time>2015-08-11T08:21:43.484Z</time>
      </trkpt>
      <trkpt lat="45.93708" lon="4.72013">
        <ele>184.699996948</ele>
        <time>2015-08-11T08:21:44.49Z</time>
      </trkpt>
      <trkpt lat="45.93711" lon="4.72006">
        <ele>184.800003052</ele>
        <time>2015-08-11T08:21:45.452Z</time>
      </trkpt>
      <trkpt lat="45.93715" lon="4.71999">
        <ele>184.800003052</ele>
        <time>2015-08-11T08:21:46.505Z</time>
      </trkpt>
      <trkpt lat="45.93718" lon="4.71993">
        <ele>184.899993896</ele>
        <time>2015-08-11T08:21:47.444Z</time>
      </trkpt>
      <trkpt lat="45.93722" lon="4.71986">
        <ele>185</ele>
        <time>2015-08-11T08:21:48.484Z</time>
      </trkpt>
      <trkpt lat="45.93725" lon="4.7198">
        <ele>185.199996948</ele>
        <time>2015-08-11T08:21:49.427Z</time>
      </trkpt>
      <trkpt lat="45.93729" lon="4.71976">
        <ele>185.300003052</ele>
        <time>2015-08-11T08:21:50.487Z</time>
      </trkpt>
      <trkpt lat="45.93733" lon="4.71971">
        <ele>185.300003052</ele>
        <time>2015-08-11T08:21:51.443Z</time>
      </trkpt>
      <trkpt lat="45.9374" lon="4.71966">
        <ele>185.5</ele>
        <time>2015-08-11T08:21:53.59Z</time>
      </trkpt>
      <trkpt lat="45.93744" lon="4.71966">
        <ele>185.100006104</ele>
        <time>2015-08-11T08:21:54.449Z</time>
      </trkpt>
      <trkpt lat="45.93749" lon="4.71963">
        <ele>185.199996948</ele>
        <time>2015-08-11T08:21:56.551Z</time>
      </trkpt>
      <trkpt lat="45.93753" lon="4.7196">
        <ele>184.800003052</ele>
        <time>2015-08-11T08:21:57.493Z</time>
      </trkpt>
      <trkpt lat="45.93758" lon="4.71951">
        <ele>186.300003052</ele>
        <time>2015-08-11T08:22:00.604Z</time>
      </trkpt>
      <trkpt lat="45.93761" lon="4.71947">
        <ele>186.399993896</ele>
        <time>2015-08-11T08:22:01.459Z</time>
      </trkpt>
      <trkpt lat="45.93766" lon="4.71939">
        <ele>186.699996948</ele>
        <time>2015-08-11T08:22:03.493Z</time>
      </trkpt>
      <trkpt lat="45.93769" lon="4.71933">
        <ele>186.699996948</ele>
        <time>2015-08-11T08:22:04.451Z</time>
      </trkpt>
      <trkpt lat="45.93772" lon="4.71928">
        <ele>186.600006104</ele>
        <time>2015-08-11T08:22:05.481Z</time>
      </trkpt>
      <trkpt lat="45.93775" lon="4.71922">
        <ele>186.399993896</ele>
        <time>2015-08-11T08:22:06.463Z</time>
      </trkpt>
      <trkpt lat="45.93777" lon="4.71915">
        <ele>185.800003052</ele>
        <time>2015-08-11T08:22:07.62Z</time>
      </trkpt>
      <trkpt lat="45.93779" lon="4.71909">
        <ele>185.5</ele>
        <time>2015-08-11T08:22:08.447Z</time>
      </trkpt>
      <trkpt lat="45.9378" lon="4.71902">
        <ele>185.699996948</ele>
        <time>2015-08-11T08:22:09.481Z</time>
      </trkpt>
      <trkpt lat="45.93782" lon="4.71894">
        <ele>185.600006104</ele>
        <time>2015-08-11T08:22:10.446Z</time>
      </trkpt>
      <trkpt lat="45.93784" lon="4.71887">
        <ele>185.300003052</ele>
        <time>2015-08-11T08:22:11.479Z</time>
      </trkpt>
      <trkpt lat="45.93786" lon="4.7188">
        <ele>185.100006104</ele>
        <time>2015-08-11T08:22:12.423Z</time>
      </trkpt>
      <trkpt lat="45.9379" lon="4.71874">
        <ele>184.899993896</ele>
        <time>2015-08-11T08:22:13.482Z</time>
      </trkpt>
      <trkpt lat="45.93794" lon="4.71869">
        <ele>185.100006104</ele>
        <time>2015-08-11T08:22:14.447Z</time>
      </trkpt>
      <trkpt lat="45.93798" lon="4.71862">
        <ele>184.800003052</ele>
        <time>2015-08-11T08:22:15.485Z</time>
      </trkpt>
      <trkpt lat="45.93804" lon="4.71855">
        <ele>184.5</ele>
        <time>2015-08-11T08:22:16.491Z</time>
      </trkpt>
      <trkpt lat="45.93806" lon="4.71849">
        <ele>184.100006104</ele>
        <time>2015-08-11T08:22:17.488Z</time>
      </trkpt>
      <trkpt lat="45.9381" lon="4.71844">
        <ele>183.800003052</ele>
        <time>2015-08-11T08:22:18.446Z</time>
      </trkpt>
      <trkpt lat="45.93812" lon="4.71838">
        <ele>183.5</ele>
        <time>2015-08-11T08:22:19.494Z</time>
      </trkpt>
      <trkpt lat="45.93815" lon="4.71833">
        <ele>183.5</ele>
        <time>2015-08-11T08:22:20.447Z</time>
      </trkpt>
      <trkpt lat="45.93819" lon="4.71826">
        <ele>183.300003052</ele>
        <time>2015-08-11T08:22:21.519Z</time>
      </trkpt>
      <trkpt lat="45.93823" lon="4.7182">
        <ele>183</ele>
        <time>2015-08-11T08:22:22.453Z</time>
      </trkpt>
      <trkpt lat="45.93827" lon="4.71814">
        <ele>182.899993896</ele>
        <time>2015-08-11T08:22:23.481Z</time>
      </trkpt>
      <trkpt lat="45.9383" lon="4.7181">
        <ele>182.600006104</ele>
        <time>2015-08-11T08:22:24.455Z</time>
      </trkpt>
      <trkpt lat="45.93833" lon="4.71805">
        <ele>182.399993896</ele>
        <time>2015-08-11T08:22:25.483Z</time>
      </trkpt>
      <trkpt lat="45.93836" lon="4.71798">
        <ele>182.300003052</ele>
        <time>2015-08-11T08:22:26.447Z</time>
      </trkpt>
      <trkpt lat="45.93839" lon="4.71792">
        <ele>182.300003052</ele>
        <time>2015-08-11T08:22:27.481Z</time>
      </trkpt>
      <trkpt lat="45.93843" lon="4.71787">
        <ele>181.699996948</ele>
        <time>2015-08-11T08:22:28.453Z</time>
      </trkpt>
      <trkpt lat="45.93849" lon="4.71783">
        <ele>181.399993896</ele>
        <time>2015-08-11T08:22:29.479Z</time>
      </trkpt>
      <trkpt lat="45.93852" lon="4.71778">
        <ele>181.399993896</ele>
        <time>2015-08-11T08:22:30.446Z</time>
      </trkpt>
      <trkpt lat="45.93857" lon="4.71774">
        <ele>181.600006104</ele>
        <time>2015-08-11T08:22:31.506Z</time>
      </trkpt>
      <trkpt lat="45.93861" lon="4.71771">
        <ele>181.699996948</ele>
        <time>2015-08-11T08:22:32.446Z</time>
      </trkpt>
      <trkpt lat="45.93864" lon="4.71765">
        <ele>181.800003052</ele>
        <time>2015-08-11T08:22:33.5Z</time>
      </trkpt>
      <trkpt lat="45.93868" lon="4.7176">
        <ele>181.800003052</ele>
        <time>2015-08-11T08:22:34.452Z</time>
      </trkpt>
      <trkpt lat="45.93872" lon="4.71754">
        <ele>181.699996948</ele>
        <time>2015-08-11T08:22:35.478Z</time>
      </trkpt>
      <trkpt lat="45.93876" lon="4.71748">
        <ele>181.5</ele>
        <time>2015-08-11T08:22:36.43Z</time>
      </trkpt>
      <trkpt lat="45.93881" lon="4.71743">
        <ele>181.5</ele>
        <time>2015-08-11T08:22:37.486Z</time>
      </trkpt>
      <trkpt lat="45.93886" lon="4.71739">
        <ele>181.300003052</ele>
        <time>2015-08-11T08:22:38.447Z</time>
      </trkpt>
      <trkpt lat="45.93891" lon="4.71733">
        <ele>180.899993896</ele>
        <time>2015-08-11T08:22:39.483Z</time>
      </trkpt>
      <trkpt lat="45.93896" lon="4.71727">
        <ele>180.5</ele>
        <time>2015-08-11T08:22:40.434Z</time>
      </trkpt>
      <trkpt lat="45.939" lon="4.71722">
        <ele>179.600006104</ele>
        <time>2015-08-11T08:22:41.477Z</time>
      </trkpt>
      <trkpt lat="45.93904" lon="4.71718">
        <ele>179.399993896</ele>
        <time>2015-08-11T08:22:42.445Z</time>
      </trkpt>
      <trkpt lat="45.93908" lon="4.71712">
        <ele>179.399993896</ele>
        <time>2015-08-11T08:22:43.485Z</time>
      </trkpt>
      <trkpt lat="45.93913" lon="4.71709">
        <ele>179.5</ele>
        <time>2015-08-11T08:22:44.449Z</time>
      </trkpt>
      <trkpt lat="45.93919" lon="4.71706">
        <ele>179.100006104</ele>
        <time>2015-08-11T08:22:45.486Z</time>
      </trkpt>
      <trkpt lat="45.93924" lon="4.71703">
        <ele>179</ele>
        <time>2015-08-11T08:22:46.448Z</time>
      </trkpt>
      <trkpt lat="45.9393" lon="4.71701">
        <ele>179.100006104</ele>
        <time>2015-08-11T08:22:47.482Z</time>
      </trkpt>
      <trkpt lat="45.93935" lon="4.71699">
        <ele>179.199996948</ele>
        <time>2015-08-11T08:22:48.452Z</time>
      </trkpt>
      <trkpt lat="45.93941" lon="4.71697">
        <ele>179.300003052</ele>
        <time>2015-08-11T08:22:49.488Z</time>
      </trkpt>
      <trkpt lat="45.93946" lon="4.71694">
        <ele>179.300003052</ele>
        <time>2015-08-11T08:22:50.452Z</time>
      </trkpt>
      <trkpt lat="45.93951" lon="4.71691">
        <ele>179.399993896</ele>
        <time>2015-08-11T08:22:51.495Z</time>
      </trkpt>
      <trkpt lat="45.93956" lon="4.71689">
        <ele>179.600006104</ele>
        <time>2015-08-11T08:22:52.454Z</time>
      </trkpt>
      <trkpt lat="45.9396" lon="4.71687">
        <ele>180</ele>
        <time>2015-08-11T08:22:53.481Z</time>
      </trkpt>
      <trkpt lat="45.93965" lon="4.71684">
        <ele>179.800003052</ele>
        <time>2015-08-11T08:22:54.452Z</time>
      </trkpt>
      <trkpt lat="45.93971" lon="4.71681">
        <ele>179.899993896</ele>
        <time>2015-08-11T08:22:55.485Z</time>
      </trkpt>
      <trkpt lat="45.93977" lon="4.71679">
        <ele>179.800003052</ele>
        <time>2015-08-11T08:22:56.452Z</time>
      </trkpt>
      <trkpt lat="45.93982" lon="4.71679">
        <ele>180.199996948</ele>
        <time>2015-08-11T08:22:57.523Z</time>
      </trkpt>
      <trkpt lat="45.93987" lon="4.71679">
        <ele>180.800003052</ele>
        <time>2015-08-11T08:22:58.446Z</time>
      </trkpt>
      <trkpt lat="45.93992" lon="4.71683">
        <ele>180.899993896</ele>
        <time>2015-08-11T08:22:59.573Z</time>
      </trkpt>
      <trkpt lat="45.93995" lon="4.71687">
        <ele>181.300003052</ele>
        <time>2015-08-11T08:23:00.435Z</time>
      </trkpt>
      <trkpt lat="45.94003" lon="4.71693">
        <ele>181.800003052</ele>
        <time>2015-08-11T08:23:02.479Z</time>
      </trkpt>
      <trkpt lat="45.94008" lon="4.71693">
        <ele>181.699996948</ele>
        <time>2015-08-11T08:23:03.443Z</time>
      </trkpt>
      <trkpt lat="45.94012" lon="4.71689">
        <ele>181.600006104</ele>
        <time>2015-08-11T08:23:04.48Z</time>
      </trkpt>
      <trkpt lat="45.94015" lon="4.71684">
        <ele>181.5</ele>
        <time>2015-08-11T08:23:05.435Z</time>
      </trkpt>
      <trkpt lat="45.94017" lon="4.71678">
        <ele>181.300003052</ele>
        <time>2015-08-11T08:23:06.477Z</time>
      </trkpt>
      <trkpt lat="45.94019" lon="4.71672">
        <ele>181</ele>
        <time>2015-08-11T08:23:07.648Z</time>
      </trkpt>
      <trkpt lat="45.94022" lon="4.71663">
        <ele>180.899993896</ele>
        <time>2015-08-11T08:23:08.496Z</time>
      </trkpt>
      <trkpt lat="45.94026" lon="4.71658">
        <ele>181.300003052</ele>
        <time>2015-08-11T08:23:09.446Z</time>
      </trkpt>
      <trkpt lat="45.94032" lon="4.71654">
        <ele>181.100006104</ele>
        <time>2015-08-11T08:23:10.607Z</time>
      </trkpt>
      <trkpt lat="45.94037" lon="4.71651">
        <ele>180.899993896</ele>
        <time>2015-08-11T08:23:11.531Z</time>
      </trkpt>
      <trkpt lat="45.94043" lon="4.71649">
        <ele>180.800003052</ele>
        <time>2015-08-11T08:23:12.51Z</time>
      </trkpt>
      <trkpt lat="45.94049" lon="4.71647">
        <ele>180.600006104</ele>
        <time>2015-08-11T08:23:13.453Z</time>
      </trkpt>
      <trkpt lat="45.94055" lon="4.71646">
        <ele>180.699996948</ele>
        <time>2015-08-11T08:23:14.496Z</time>
      </trkpt>
      <trkpt lat="45.9406" lon="4.71644">
        <ele>180.399993896</ele>
        <time>2015-08-11T08:23:15.453Z</time>
      </trkpt>
      <trkpt lat="45.94066" lon="4.71641">
        <ele>180.300003052</ele>
        <time>2015-08-11T08:23:16.494Z</time>
      </trkpt>
      <trkpt lat="45.94072" lon="4.71639">
        <ele>179.800003052</ele>
        <time>2015-08-11T08:23:17.453Z</time>
      </trkpt>
      <trkpt lat="45.94077" lon="4.71637">
        <ele>179.699996948</ele>
        <time>2015-08-11T08:23:18.487Z</time>
      </trkpt>
      <trkpt lat="45.94082" lon="4.71635">
        <ele>179.5</ele>
        <time>2015-08-11T08:23:19.449Z</time>
      </trkpt>
      <trkpt lat="45.94088" lon="4.71632">
        <ele>179.300003052</ele>
        <time>2015-08-11T08:23:20.478Z</time>
      </trkpt>
      <trkpt lat="45.94094" lon="4.7163">
        <ele>179</ele>
        <time>2015-08-11T08:23:21.487Z</time>
      </trkpt>
      <trkpt lat="45.941" lon="4.71627">
        <ele>178.899993896</ele>
        <time>2015-08-11T08:23:22.481Z</time>
      </trkpt>
      <trkpt lat="45.94104" lon="4.71624">
        <ele>178.699996948</ele>
        <time>2015-08-11T08:23:23.497Z</time>
      </trkpt>
      <trkpt lat="45.94106" lon="4.7162">
        <ele>179</ele>
        <time>2015-08-11T08:23:24.573Z</time>
      </trkpt>
      <trkpt lat="45.94113" lon="4.71617">
        <ele>178.699996948</ele>
        <time>2015-08-11T08:23:25.452Z</time>
      </trkpt>
      <trkpt lat="45.94119" lon="4.71616">
        <ele>178.600006104</ele>
        <time>2015-08-11T08:23:26.5Z</time>
      </trkpt>
      <trkpt lat="45.94125" lon="4.71614">
        <ele>178.399993896</ele>
        <time>2015-08-11T08:23:27.469Z</time>
      </trkpt>
      <trkpt lat="45.94131" lon="4.71612">
        <ele>178.5</ele>
        <time>2015-08-11T08:23:28.539Z</time>
      </trkpt>
      <trkpt lat="45.94138" lon="4.71609">
        <ele>178.5</ele>
        <time>2015-08-11T08:23:29.454Z</time>
      </trkpt>
      <trkpt lat="45.94145" lon="4.71607">
        <ele>178.399993896</ele>
        <time>2015-08-11T08:23:30.495Z</time>
      </trkpt>
      <trkpt lat="45.94152" lon="4.71604">
        <ele>178.5</ele>
        <time>2015-08-11T08:23:31.453Z</time>
      </trkpt>
      <trkpt lat="45.94159" lon="4.71601">
        <ele>178.199996948</ele>
        <time>2015-08-11T08:23:32.613Z</time>
      </trkpt>
      <trkpt lat="45.94166" lon="4.71599">
        <ele>177.699996948</ele>
        <time>2015-08-11T08:23:33.455Z</time>
      </trkpt>
      <trkpt lat="45.94172" lon="4.71596">
        <ele>177.300003052</ele>
        <time>2015-08-11T08:23:34.481Z</time>
      </trkpt>
      <trkpt lat="45.94178" lon="4.71594">
        <ele>176.5</ele>
        <time>2015-08-11T08:23:35.441Z</time>
      </trkpt>
      <trkpt lat="45.94185" lon="4.7159">
        <ele>175.800003052</ele>
        <time>2015-08-11T08:23:36.479Z</time>
      </trkpt>
      <trkpt lat="45.94192" lon="4.71587">
        <ele>175.199996948</ele>
        <time>2015-08-11T08:23:37.428Z</time>
      </trkpt>
      <trkpt lat="45.94198" lon="4.71584">
        <ele>175.300003052</ele>
        <time>2015-08-11T08:23:38.481Z</time>
      </trkpt>
      <trkpt lat="45.94204" lon="4.7158">
        <ele>174.899993896</ele>
        <time>2015-08-11T08:23:39.447Z</time>
      </trkpt>
      <trkpt lat="45.9421" lon="4.71578">
        <ele>174.399993896</ele>
        <time>2015-08-11T08:23:40.481Z</time>
      </trkpt>
      <trkpt lat="45.94216" lon="4.71576">
        <ele>174</ele>
        <time>2015-08-11T08:23:41.449Z</time>
      </trkpt>
      <trkpt lat="45.94222" lon="4.71575">
        <ele>174</ele>
        <time>2015-08-11T08:23:42.506Z</time>
      </trkpt>
      <trkpt lat="45.94228" lon="4.71575">
        <ele>173.699996948</ele>
        <time>2015-08-11T08:23:43.444Z</time>
      </trkpt>
      <trkpt lat="45.94234" lon="4.71573">
        <ele>173.600006104</ele>
        <time>2015-08-11T08:23:44.48Z</time>
      </trkpt>
      <trkpt lat="45.9424" lon="4.7157">
        <ele>173.800003052</ele>
        <time>2015-08-11T08:23:45.446Z</time>
      </trkpt>
      <trkpt lat="45.94245" lon="4.71568">
        <ele>173.699996948</ele>
        <time>2015-08-11T08:23:46.482Z</time>
      </trkpt>
      <trkpt lat="45.94251" lon="4.71565">
        <ele>173.399993896</ele>
        <time>2015-08-11T08:23:47.448Z</time>
      </trkpt>
      <trkpt lat="45.94256" lon="4.71563">
        <ele>173.100006104</ele>
        <time>2015-08-11T08:23:48.502Z</time>
      </trkpt>
      <trkpt lat="45.94261" lon="4.71562">
        <ele>172.899993896</ele>
        <time>2015-08-11T08:23:49.449Z</time>
      </trkpt>
      <trkpt lat="45.94267" lon="4.7156">
        <ele>172.800003052</ele>
        <time>2015-08-11T08:23:50.481Z</time>
      </trkpt>
      <trkpt lat="45.94272" lon="4.71557">
        <ele>173.100006104</ele>
        <time>2015-08-11T08:23:51.485Z</time>
      </trkpt>
      <trkpt lat="45.94277" lon="4.71556">
        <ele>173.100006104</ele>
        <time>2015-08-11T08:23:52.496Z</time>
      </trkpt>
      <trkpt lat="45.94283" lon="4.71554">
        <ele>173.199996948</ele>
        <time>2015-08-11T08:23:53.465Z</time>
      </trkpt>
      <trkpt lat="45.94288" lon="4.71552">
        <ele>172.899993896</ele>
        <time>2015-08-11T08:23:54.493Z</time>
      </trkpt>
      <trkpt lat="45.94294" lon="4.7155">
        <ele>173.100006104</ele>
        <time>2015-08-11T08:23:55.449Z</time>
      </trkpt>
      <trkpt lat="45.943" lon="4.71547">
        <ele>172.899993896</ele>
        <time>2015-08-11T08:23:56.477Z</time>
      </trkpt>
      <trkpt lat="45.94306" lon="4.71544">
        <ele>172.800003052</ele>
        <time>2015-08-11T08:23:57.447Z</time>
      </trkpt>
      <trkpt lat="45.94311" lon="4.7154">
        <ele>172.399993896</ele>
        <time>2015-08-11T08:23:58.499Z</time>
      </trkpt>
      <trkpt lat="45.94317" lon="4.71538">
        <ele>172.399993896</ele>
        <time>2015-08-11T08:23:59.446Z</time>
      </trkpt>
      <trkpt lat="45.94323" lon="4.71536">
        <ele>172.399993896</ele>
        <time>2015-08-11T08:24:00.704Z</time>
      </trkpt>
      <trkpt lat="45.94329" lon="4.71533">
        <ele>172.199996948</ele>
        <time>2015-08-11T08:24:01.449Z</time>
      </trkpt>
      <trkpt lat="45.94329" lon="4.71533">
        <ele>172.199996948</ele>
        <time>2015-08-11T08:24:01.489Z</time>
      </trkpt>
      <trkpt lat="45.94338" lon="4.71533">
        <ele>171.800003052</ele>
        <time>2015-08-11T08:24:02.448Z</time>
      </trkpt>
      <trkpt lat="45.94346" lon="4.71531">
        <ele>171.300003052</ele>
        <time>2015-08-11T08:24:03.635Z</time>
      </trkpt>
      <trkpt lat="45.94352" lon="4.71529">
        <ele>170.699996948</ele>
        <time>2015-08-11T08:24:04.475Z</time>
      </trkpt>
      <trkpt lat="45.94358" lon="4.71527">
        <ele>170.100006104</ele>
        <time>2015-08-11T08:24:05.562Z</time>
      </trkpt>
      <trkpt lat="45.94364" lon="4.71524">
        <ele>169.600006104</ele>
        <time>2015-08-11T08:24:06.454Z</time>
      </trkpt>
      <trkpt lat="45.94368" lon="4.7152">
        <ele>170.199996948</ele>
        <time>2015-08-11T08:24:07.525Z</time>
      </trkpt>
      <trkpt lat="45.94373" lon="4.71518">
        <ele>170</ele>
        <time>2015-08-11T08:24:08.454Z</time>
      </trkpt>
      <trkpt lat="45.94378" lon="4.71517">
        <ele>169.899993896</ele>
        <time>2015-08-11T08:24:09.484Z</time>
      </trkpt>
      <trkpt lat="45.94383" lon="4.71515">
        <ele>170</ele>
        <time>2015-08-11T08:24:10.453Z</time>
      </trkpt>
      <trkpt lat="45.94388" lon="4.71513">
        <ele>170</ele>
        <time>2015-08-11T08:24:11.564Z</time>
      </trkpt>
      <trkpt lat="45.94393" lon="4.71512">
        <ele>170.100006104</ele>
        <time>2015-08-11T08:24:12.452Z</time>
      </trkpt>
      <trkpt lat="45.94398" lon="4.7151">
        <ele>170</ele>
        <time>2015-08-11T08:24:13.499Z</time>
      </trkpt>
      <trkpt lat="45.94404" lon="4.71508">
        <ele>169.600006104</ele>
        <time>2015-08-11T08:24:14.445Z</time>
      </trkpt>
      <trkpt lat="45.94408" lon="4.71506">
        <ele>169.5</ele>
        <time>2015-08-11T08:24:15.483Z</time>
      </trkpt>
      <trkpt lat="45.94414" lon="4.71503">
        <ele>169.600006104</ele>
        <time>2015-08-11T08:24:16.445Z</time>
      </trkpt>
      <trkpt lat="45.94419" lon="4.715">
        <ele>168.5</ele>
        <time>2015-08-11T08:24:17.831Z</time>
      </trkpt>
      <trkpt lat="45.94423" lon="4.71499">
        <ele>168.5</ele>
        <time>2015-08-11T08:24:18.44Z</time>
      </trkpt>
      <trkpt lat="45.94428" lon="4.71497">
        <ele>168.800003052</ele>
        <time>2015-08-11T08:24:19.506Z</time>
      </trkpt>
      <trkpt lat="45.94432" lon="4.71494">
        <ele>168.5</ele>
        <time>2015-08-11T08:24:20.494Z</time>
      </trkpt>
      <trkpt lat="45.94441" lon="4.71492">
        <ele>169.600006104</ele>
        <time>2015-08-11T08:24:22.484Z</time>
      </trkpt>
      <trkpt lat="45.94445" lon="4.71489">
        <ele>168.899993896</ele>
        <time>2015-08-11T08:24:23.455Z</time>
      </trkpt>
      <trkpt lat="45.9445" lon="4.71486">
        <ele>168.600006104</ele>
        <time>2015-08-11T08:24:24.496Z</time>
      </trkpt>
      <trkpt lat="45.94454" lon="4.71484">
        <ele>168.199996948</ele>
        <time>2015-08-11T08:24:25.453Z</time>
      </trkpt>
      <trkpt lat="45.94458" lon="4.71482">
        <ele>167.600006104</ele>
        <time>2015-08-11T08:24:26.509Z</time>
      </trkpt>
      <trkpt lat="45.94463" lon="4.7148">
        <ele>167.5</ele>
        <time>2015-08-11T08:24:27.483Z</time>
      </trkpt>
      <trkpt lat="45.94472" lon="4.71478">
        <ele>170.300003052</ele>
        <time>2015-08-11T08:24:29.504Z</time>
      </trkpt>
      <trkpt lat="45.94476" lon="4.71477">
        <ele>170</ele>
        <time>2015-08-11T08:24:30.444Z</time>
      </trkpt>
      <trkpt lat="45.94485" lon="4.71477">
        <ele>170.399993896</ele>
        <time>2015-08-11T08:24:32.494Z</time>
      </trkpt>
      <trkpt lat="45.94489" lon="4.71476">
        <ele>170</ele>
        <time>2015-08-11T08:24:33.45Z</time>
      </trkpt>
      <trkpt lat="45.94495" lon="4.7147">
        <ele>171.300003052</ele>
        <time>2015-08-11T08:24:35.52Z</time>
      </trkpt>
      <trkpt lat="45.94499" lon="4.71468">
        <ele>171.399993896</ele>
        <time>2015-08-11T08:24:36.446Z</time>
      </trkpt>
      <trkpt lat="45.94504" lon="4.71467">
        <ele>171.899993896</ele>
        <time>2015-08-11T08:24:37.49Z</time>
      </trkpt>
      <trkpt lat="45.94509" lon="4.71465">
        <ele>172.399993896</ele>
        <time>2015-08-11T08:24:38.445Z</time>
      </trkpt>
      <trkpt lat="45.94515" lon="4.71463">
        <ele>172.5</ele>
        <time>2015-08-11T08:24:39.561Z</time>
      </trkpt>
      <trkpt lat="45.94522" lon="4.7146">
        <ele>171.699996948</ele>
        <time>2015-08-11T08:24:40.47Z</time>
      </trkpt>
      <trkpt lat="45.9453" lon="4.71454">
        <ele>171.100006104</ele>
        <time>2015-08-11T08:24:42.582Z</time>
      </trkpt>
      <trkpt lat="45.94534" lon="4.71452">
        <ele>171.199996948</ele>
        <time>2015-08-11T08:24:43.465Z</time>
      </trkpt>
      <trkpt lat="45.94539" lon="4.7145">
        <ele>172.100006104</ele>
        <time>2015-08-11T08:24:44.613Z</time>
      </trkpt>
      <trkpt lat="45.94543" lon="4.71448">
        <ele>171.899993896</ele>
        <time>2015-08-11T08:24:45.467Z</time>
      </trkpt>
      <trkpt lat="45.94548" lon="4.71446">
        <ele>172.5</ele>
        <time>2015-08-11T08:24:46.491Z</time>
      </trkpt>
      <trkpt lat="45.94554" lon="4.71445">
        <ele>172.600006104</ele>
        <time>2015-08-11T08:24:47.454Z</time>
      </trkpt>
      <trkpt lat="45.94558" lon="4.71445">
        <ele>173.300003052</ele>
        <time>2015-08-11T08:24:48.492Z</time>
      </trkpt>
      <trkpt lat="45.94563" lon="4.71445">
        <ele>174.199996948</ele>
        <time>2015-08-11T08:24:49.488Z</time>
      </trkpt>
      <trkpt lat="45.94568" lon="4.71445">
        <ele>175.600006104</ele>
        <time>2015-08-11T08:24:50.486Z</time>
      </trkpt>
      <trkpt lat="45.94572" lon="4.71444">
        <ele>176.199996948</ele>
        <time>2015-08-11T08:24:51.434Z</time>
      </trkpt>
      <trkpt lat="45.94581" lon="4.71444">
        <ele>178.5</ele>
        <time>2015-08-11T08:24:53.502Z</time>
      </trkpt>
      <trkpt lat="45.94585" lon="4.71444">
        <ele>179.300003052</ele>
        <time>2015-08-11T08:24:54.445Z</time>
      </trkpt>
      <trkpt lat="45.9459" lon="4.71444">
        <ele>179.5</ele>
        <time>2015-08-11T08:24:55.496Z</time>
      </trkpt>
      <trkpt lat="45.94594" lon="4.71445">
        <ele>179.399993896</ele>
        <time>2015-08-11T08:24:56.47Z</time>
      </trkpt>
      <trkpt lat="45.94599" lon="4.71446">
        <ele>181</ele>
        <time>2015-08-11T08:24:57.481Z</time>
      </trkpt>
      <trkpt lat="45.94603" lon="4.71447">
        <ele>181.899993896</ele>
        <time>2015-08-11T08:24:58.445Z</time>
      </trkpt>
      <trkpt lat="45.94608" lon="4.71447">
        <ele>183.199996948</ele>
        <time>2015-08-11T08:24:59.574Z</time>
      </trkpt>
      <trkpt lat="45.94613" lon="4.71448">
        <ele>184.399993896</ele>
        <time>2015-08-11T08:25:00.442Z</time>
      </trkpt>
      <trkpt lat="45.94617" lon="4.71448">
        <ele>185.100006104</ele>
        <time>2015-08-11T08:25:01.492Z</time>
      </trkpt>
      <trkpt lat="45.94622" lon="4.71449">
        <ele>187</ele>
        <time>2015-08-11T08:25:02.452Z</time>
      </trkpt>
      <trkpt lat="45.94627" lon="4.7145">
        <ele>187.800003052</ele>
        <time>2015-08-11T08:25:03.527Z</time>
      </trkpt>
      <trkpt lat="45.94632" lon="4.7145">
        <ele>188</ele>
        <time>2015-08-11T08:25:04.455Z</time>
      </trkpt>
      <trkpt lat="45.94637" lon="4.71451">
        <ele>188.199996948</ele>
        <time>2015-08-11T08:25:05.488Z</time>
      </trkpt>
      <trkpt lat="45.94642" lon="4.71452">
        <ele>189</ele>
        <time>2015-08-11T08:25:06.451Z</time>
      </trkpt>
      <trkpt lat="45.9465" lon="4.71453">
        <ele>189.899993896</ele>
        <time>2015-08-11T08:25:08.553Z</time>
      </trkpt>
      <trkpt lat="45.94655" lon="4.71454">
        <ele>189.899993896</ele>
        <time>2015-08-11T08:25:09.455Z</time>
      </trkpt>
      <trkpt lat="45.94659" lon="4.71453">
        <ele>189.800003052</ele>
        <time>2015-08-11T08:25:10.49Z</time>
      </trkpt>
      <trkpt lat="45.94665" lon="4.71453">
        <ele>189.5</ele>
        <time>2015-08-11T08:25:11.454Z</time>
      </trkpt>
      <trkpt lat="45.9467" lon="4.71453">
        <ele>189.5</ele>
        <time>2015-08-11T08:25:12.489Z</time>
      </trkpt>
      <trkpt lat="45.94675" lon="4.71453">
        <ele>189.699996948</ele>
        <time>2015-08-11T08:25:13.487Z</time>
      </trkpt>
      <trkpt lat="45.9468" lon="4.71453">
        <ele>189.300003052</ele>
        <time>2015-08-11T08:25:14.488Z</time>
      </trkpt>
      <trkpt lat="45.94685" lon="4.71454">
        <ele>189.5</ele>
        <time>2015-08-11T08:25:15.451Z</time>
      </trkpt>
      <trkpt lat="45.9469" lon="4.71454">
        <ele>189.600006104</ele>
        <time>2015-08-11T08:25:16.484Z</time>
      </trkpt>
      <trkpt lat="45.94695" lon="4.71454">
        <ele>189.899993896</ele>
        <time>2015-08-11T08:25:17.45Z</time>
      </trkpt>
      <trkpt lat="45.947" lon="4.71455">
        <ele>190.399993896</ele>
        <time>2015-08-11T08:25:18.487Z</time>
      </trkpt>
      <trkpt lat="45.94705" lon="4.71455">
        <ele>191.5</ele>
        <time>2015-08-11T08:25:19.449Z</time>
      </trkpt>
      <trkpt lat="45.9471" lon="4.71456">
        <ele>191.899993896</ele>
        <time>2015-08-11T08:25:20.488Z</time>
      </trkpt>
      <trkpt lat="45.94715" lon="4.71457">
        <ele>192.300003052</ele>
        <time>2015-08-11T08:25:21.492Z</time>
      </trkpt>
      <trkpt lat="45.9472" lon="4.71457">
        <ele>192.5</ele>
        <time>2015-08-11T08:25:22.531Z</time>
      </trkpt>
      <trkpt lat="45.94725" lon="4.71459">
        <ele>193.800003052</ele>
        <time>2015-08-11T08:25:23.469Z</time>
      </trkpt>
      <trkpt lat="45.9473" lon="4.7146">
        <ele>194.600006104</ele>
        <time>2015-08-11T08:25:24.484Z</time>
      </trkpt>
      <trkpt lat="45.94735" lon="4.71459">
        <ele>193.600006104</ele>
        <time>2015-08-11T08:25:25.451Z</time>
      </trkpt>
      <trkpt lat="45.94743" lon="4.71461">
        <ele>194.399993896</ele>
        <time>2015-08-11T08:25:27.499Z</time>
      </trkpt>
      <trkpt lat="45.94748" lon="4.71461">
        <ele>194.800003052</ele>
        <time>2015-08-11T08:25:28.427Z</time>
      </trkpt>
      <trkpt lat="45.94753" lon="4.7146">
        <ele>195.800003052</ele>
        <time>2015-08-11T08:25:29.499Z</time>
      </trkpt>
      <trkpt lat="45.94758" lon="4.71461">
        <ele>197.5</ele>
        <time>2015-08-11T08:25:30.446Z</time>
      </trkpt>
      <trkpt lat="45.94764" lon="4.71461">
        <ele>198.199996948</ele>
        <time>2015-08-11T08:25:31.483Z</time>
      </trkpt>
      <trkpt lat="45.94771" lon="4.71461">
        <ele>198.800003052</ele>
        <time>2015-08-11T08:25:32.448Z</time>
      </trkpt>
      <trkpt lat="45.94777" lon="4.7146">
        <ele>199</ele>
        <time>2015-08-11T08:25:33.498Z</time>
      </trkpt>
      <trkpt lat="45.94782" lon="4.7146">
        <ele>199.600006104</ele>
        <time>2015-08-11T08:25:34.447Z</time>
      </trkpt>
      <trkpt lat="45.94789" lon="4.7146">
        <ele>200.100006104</ele>
        <time>2015-08-11T08:25:35.543Z</time>
      </trkpt>
      <trkpt lat="45.94796" lon="4.7146">
        <ele>200.399993896</ele>
        <time>2015-08-11T08:25:36.448Z</time>
      </trkpt>
      <trkpt lat="45.94802" lon="4.71462">
        <ele>201</ele>
        <time>2015-08-11T08:25:37.487Z</time>
      </trkpt>
      <trkpt lat="45.94809" lon="4.71463">
        <ele>201.300003052</ele>
        <time>2015-08-11T08:25:38.449Z</time>
      </trkpt>
      <trkpt lat="45.94814" lon="4.71464">
        <ele>202.100006104</ele>
        <time>2015-08-11T08:25:39.487Z</time>
      </trkpt>
      <trkpt lat="45.9482" lon="4.71466">
        <ele>202.699996948</ele>
        <time>2015-08-11T08:25:40.448Z</time>
      </trkpt>
      <trkpt lat="45.94826" lon="4.71465">
        <ele>202.699996948</ele>
        <time>2015-08-11T08:25:41.483Z</time>
      </trkpt>
      <trkpt lat="45.94831" lon="4.71467">
        <ele>202.600006104</ele>
        <time>2015-08-11T08:25:42.452Z</time>
      </trkpt>
      <trkpt lat="45.94836" lon="4.71467">
        <ele>202.800003052</ele>
        <time>2015-08-11T08:25:43.5Z</time>
      </trkpt>
      <trkpt lat="45.94843" lon="4.71469">
        <ele>202.5</ele>
        <time>2015-08-11T08:25:44.448Z</time>
      </trkpt>
      <trkpt lat="45.94848" lon="4.7147">
        <ele>202.199996948</ele>
        <time>2015-08-11T08:25:45.479Z</time>
      </trkpt>
      <trkpt lat="45.94854" lon="4.71472">
        <ele>202.199996948</ele>
        <time>2015-08-11T08:25:46.451Z</time>
      </trkpt>
      <trkpt lat="45.9486" lon="4.71474">
        <ele>202.300003052</ele>
        <time>2015-08-11T08:25:47.489Z</time>
      </trkpt>
      <trkpt lat="45.94867" lon="4.71474">
        <ele>202.800003052</ele>
        <time>2015-08-11T08:25:48.448Z</time>
      </trkpt>
      <trkpt lat="45.94873" lon="4.71475">
        <ele>202.300003052</ele>
        <time>2015-08-11T08:25:49.49Z</time>
      </trkpt>
      <trkpt lat="45.9488" lon="4.71476">
        <ele>202.300003052</ele>
        <time>2015-08-11T08:25:50.452Z</time>
      </trkpt>
      <trkpt lat="45.94886" lon="4.71477">
        <ele>202.300003052</ele>
        <time>2015-08-11T08:25:51.482Z</time>
      </trkpt>
      <trkpt lat="45.94892" lon="4.71478">
        <ele>202.600006104</ele>
        <time>2015-08-11T08:25:52.451Z</time>
      </trkpt>
      <trkpt lat="45.94899" lon="4.71478">
        <ele>202.800003052</ele>
        <time>2015-08-11T08:25:53.511Z</time>
      </trkpt>
      <trkpt lat="45.94905" lon="4.71478">
        <ele>199.699996948</ele>
        <time>2015-08-11T08:25:54.449Z</time>
      </trkpt>
      <trkpt lat="45.94911" lon="4.71478">
        <ele>199.300003052</ele>
        <time>2015-08-11T08:25:55.479Z</time>
      </trkpt>
      <trkpt lat="45.94918" lon="4.71478">
        <ele>200.800003052</ele>
        <time>2015-08-11T08:25:56.452Z</time>
      </trkpt>
      <trkpt lat="45.94925" lon="4.71479">
        <ele>200.800003052</ele>
        <time>2015-08-11T08:25:57.484Z</time>
      </trkpt>
      <trkpt lat="45.94931" lon="4.71478">
        <ele>199.699996948</ele>
        <time>2015-08-11T08:25:58.449Z</time>
      </trkpt>
      <trkpt lat="45.94937" lon="4.71478">
        <ele>199.199996948</ele>
        <time>2015-08-11T08:25:59.48Z</time>
      </trkpt>
      <trkpt lat="45.94943" lon="4.7148">
        <ele>199</ele>
        <time>2015-08-11T08:26:00.436Z</time>
      </trkpt>
      <trkpt lat="45.94948" lon="4.71483">
        <ele>198.800003052</ele>
        <time>2015-08-11T08:26:01.485Z</time>
      </trkpt>
      <trkpt lat="45.94953" lon="4.71487">
        <ele>197.699996948</ele>
        <time>2015-08-11T08:26:02.509Z</time>
      </trkpt>
      <trkpt lat="45.94959" lon="4.7149">
        <ele>196.800003052</ele>
        <time>2015-08-11T08:26:03.553Z</time>
      </trkpt>
      <trkpt lat="45.94964" lon="4.71492">
        <ele>196.699996948</ele>
        <time>2015-08-11T08:26:04.448Z</time>
      </trkpt>
      <trkpt lat="45.9497" lon="4.71493">
        <ele>196.399993896</ele>
        <time>2015-08-11T08:26:05.481Z</time>
      </trkpt>
      <trkpt lat="45.94976" lon="4.71491">
        <ele>195.100006104</ele>
        <time>2015-08-11T08:26:06.447Z</time>
      </trkpt>
      <trkpt lat="45.9498" lon="4.71488">
        <ele>194.399993896</ele>
        <time>2015-08-11T08:26:07.485Z</time>
      </trkpt>
      <trkpt lat="45.94986" lon="4.71485">
        <ele>193.699996948</ele>
        <time>2015-08-11T08:26:08.449Z</time>
      </trkpt>
      <trkpt lat="45.94992" lon="4.71484">
        <ele>193.600006104</ele>
        <time>2015-08-11T08:26:09.486Z</time>
      </trkpt>
      <trkpt lat="45.94997" lon="4.71483">
        <ele>193.100006104</ele>
        <time>2015-08-11T08:26:10.45Z</time>
      </trkpt>
      <trkpt lat="45.95003" lon="4.71483">
        <ele>192.600006104</ele>
        <time>2015-08-11T08:26:11.48Z</time>
      </trkpt>
      <trkpt lat="45.95009" lon="4.71484">
        <ele>192.5</ele>
        <time>2015-08-11T08:26:12.451Z</time>
      </trkpt>
      <trkpt lat="45.95015" lon="4.71484">
        <ele>191.899993896</ele>
        <time>2015-08-11T08:26:13.508Z</time>
      </trkpt>
      <trkpt lat="45.95022" lon="4.71484">
        <ele>191.5</ele>
        <time>2015-08-11T08:26:14.448Z</time>
      </trkpt>
      <trkpt lat="45.95029" lon="4.71485">
        <ele>190.899993896</ele>
        <time>2015-08-11T08:26:15.481Z</time>
      </trkpt>
      <trkpt lat="45.95036" lon="4.71486">
        <ele>191.100006104</ele>
        <time>2015-08-11T08:26:16.444Z</time>
      </trkpt>
      <trkpt lat="45.95043" lon="4.71486">
        <ele>190.899993896</ele>
        <time>2015-08-11T08:26:17.479Z</time>
      </trkpt>
      <trkpt lat="45.95051" lon="4.71485">
        <ele>190.800003052</ele>
        <time>2015-08-11T08:26:18.448Z</time>
      </trkpt>
      <trkpt lat="45.95058" lon="4.71486">
        <ele>191.300003052</ele>
        <time>2015-08-11T08:26:19.503Z</time>
      </trkpt>
      <trkpt lat="45.95066" lon="4.71486">
        <ele>191.100006104</ele>
        <time>2015-08-11T08:26:20.447Z</time>
      </trkpt>
      <trkpt lat="45.95074" lon="4.71486">
        <ele>190.5</ele>
        <time>2015-08-11T08:26:21.479Z</time>
      </trkpt>
      <trkpt lat="45.95082" lon="4.71486">
        <ele>190.5</ele>
        <time>2015-08-11T08:26:22.451Z</time>
      </trkpt>
      <trkpt lat="45.9509" lon="4.71486">
        <ele>190.300003052</ele>
        <time>2015-08-11T08:26:23.481Z</time>
      </trkpt>
      <trkpt lat="45.95099" lon="4.71486">
        <ele>190.5</ele>
        <time>2015-08-11T08:26:24.441Z</time>
      </trkpt>
      <trkpt lat="45.95107" lon="4.71486">
        <ele>190.5</ele>
        <time>2015-08-11T08:26:25.481Z</time>
      </trkpt>
      <trkpt lat="45.95115" lon="4.71486">
        <ele>190.300003052</ele>
        <time>2015-08-11T08:26:26.448Z</time>
      </trkpt>
      <trkpt lat="45.95123" lon="4.71487">
        <ele>190</ele>
        <time>2015-08-11T08:26:27.479Z</time>
      </trkpt>
      <trkpt lat="45.95132" lon="4.71487">
        <ele>190.100006104</ele>
        <time>2015-08-11T08:26:28.433Z</time>
      </trkpt>
      <trkpt lat="45.95141" lon="4.71487">
        <ele>189.399993896</ele>
        <time>2015-08-11T08:26:29.48Z</time>
      </trkpt>
      <trkpt lat="45.95149" lon="4.71487">
        <ele>189</ele>
        <time>2015-08-11T08:26:30.451Z</time>
      </trkpt>
      <trkpt lat="45.95156" lon="4.71488">
        <ele>187.899993896</ele>
        <time>2015-08-11T08:26:31.48Z</time>
      </trkpt>
      <trkpt lat="45.95164" lon="4.71488">
        <ele>186.800003052</ele>
        <time>2015-08-11T08:26:32.483Z</time>
      </trkpt>
      <trkpt lat="45.95172" lon="4.71488">
        <ele>186.300003052</ele>
        <time>2015-08-11T08:26:33.533Z</time>
      </trkpt>
      <trkpt lat="45.9518" lon="4.71489">
        <ele>185.800003052</ele>
        <time>2015-08-11T08:26:34.446Z</time>
      </trkpt>
      <trkpt lat="45.95188" lon="4.71489">
        <ele>185.100006104</ele>
        <time>2015-08-11T08:26:35.478Z</time>
      </trkpt>
      <trkpt lat="45.95195" lon="4.71491">
        <ele>184.800003052</ele>
        <time>2015-08-11T08:26:36.448Z</time>
      </trkpt>
      <trkpt lat="45.95203" lon="4.71491">
        <ele>184.600006104</ele>
        <time>2015-08-11T08:26:37.482Z</time>
      </trkpt>
      <trkpt lat="45.95211" lon="4.71493">
        <ele>184.100006104</ele>
        <time>2015-08-11T08:26:38.451Z</time>
      </trkpt>
      <trkpt lat="45.95217" lon="4.71494">
        <ele>183.699996948</ele>
        <time>2015-08-11T08:26:39.482Z</time>
      </trkpt>
      <trkpt lat="45.95225" lon="4.71494">
        <ele>183.399993896</ele>
        <time>2015-08-11T08:26:40.442Z</time>
      </trkpt>
      <trkpt lat="45.95234" lon="4.71495">
        <ele>183.300003052</ele>
        <time>2015-08-11T08:26:41.479Z</time>
      </trkpt>
      <trkpt lat="45.95241" lon="4.71497">
        <ele>183.100006104</ele>
        <time>2015-08-11T08:26:42.451Z</time>
      </trkpt>
      <trkpt lat="45.95248" lon="4.715">
        <ele>183.300003052</ele>
        <time>2015-08-11T08:26:43.497Z</time>
      </trkpt>
      <trkpt lat="45.95256" lon="4.715">
        <ele>183.600006104</ele>
        <time>2015-08-11T08:26:44.449Z</time>
      </trkpt>
      <trkpt lat="45.95264" lon="4.71501">
        <ele>183.899993896</ele>
        <time>2015-08-11T08:26:45.48Z</time>
      </trkpt>
      <trkpt lat="45.95271" lon="4.71503">
        <ele>183.800003052</ele>
        <time>2015-08-11T08:26:46.442Z</time>
      </trkpt>
      <trkpt lat="45.95278" lon="4.71503">
        <ele>184.199996948</ele>
        <time>2015-08-11T08:26:47.482Z</time>
      </trkpt>
      <trkpt lat="45.95286" lon="4.71504">
        <ele>185</ele>
        <time>2015-08-11T08:26:48.447Z</time>
      </trkpt>
      <trkpt lat="45.95294" lon="4.71504">
        <ele>184</ele>
        <time>2015-08-11T08:26:49.497Z</time>
      </trkpt>
      <trkpt lat="45.95302" lon="4.71505">
        <ele>184.600006104</ele>
        <time>2015-08-11T08:26:50.469Z</time>
      </trkpt>
      <trkpt lat="45.9531" lon="4.71505">
        <ele>184.600006104</ele>
        <time>2015-08-11T08:26:51.573Z</time>
      </trkpt>
      <trkpt lat="45.95318" lon="4.71505">
        <ele>183.699996948</ele>
        <time>2015-08-11T08:26:52.483Z</time>
      </trkpt>
      <trkpt lat="45.95326" lon="4.71505">
        <ele>183.300003052</ele>
        <time>2015-08-11T08:26:53.496Z</time>
      </trkpt>
      <trkpt lat="45.95334" lon="4.71505">
        <ele>183.100006104</ele>
        <time>2015-08-11T08:26:54.451Z</time>
      </trkpt>
      <trkpt lat="45.95341" lon="4.71506">
        <ele>183.199996948</ele>
        <time>2015-08-11T08:26:55.485Z</time>
      </trkpt>
      <trkpt lat="45.95348" lon="4.71506">
        <ele>183.899993896</ele>
        <time>2015-08-11T08:26:56.452Z</time>
      </trkpt>
      <trkpt lat="45.95355" lon="4.71507">
        <ele>184.199996948</ele>
        <time>2015-08-11T08:26:57.491Z</time>
      </trkpt>
      <trkpt lat="45.95362" lon="4.71508">
        <ele>184.899993896</ele>
        <time>2015-08-11T08:26:58.447Z</time>
      </trkpt>
      <trkpt lat="45.95369" lon="4.71508">
        <ele>184.899993896</ele>
        <time>2015-08-11T08:26:59.486Z</time>
      </trkpt>
      <trkpt lat="45.95376" lon="4.71507">
        <ele>183.899993896</ele>
        <time>2015-08-11T08:27:00.435Z</time>
      </trkpt>
      <trkpt lat="45.95383" lon="4.71508">
        <ele>185</ele>
        <time>2015-08-11T08:27:01.492Z</time>
      </trkpt>
      <trkpt lat="45.9539" lon="4.71509">
        <ele>185.5</ele>
        <time>2015-08-11T08:27:02.446Z</time>
      </trkpt>
      <trkpt lat="45.95397" lon="4.71509">
        <ele>186.399993896</ele>
        <time>2015-08-11T08:27:03.495Z</time>
      </trkpt>
      <trkpt lat="45.95404" lon="4.71509">
        <ele>185.399993896</ele>
        <time>2015-08-11T08:27:04.446Z</time>
      </trkpt>
      <trkpt lat="45.9541" lon="4.71509">
        <ele>185.100006104</ele>
        <time>2015-08-11T08:27:05.479Z</time>
      </trkpt>
      <trkpt lat="45.95417" lon="4.7151">
        <ele>184.800003052</ele>
        <time>2015-08-11T08:27:06.448Z</time>
      </trkpt>
      <trkpt lat="45.95423" lon="4.7151">
        <ele>184.699996948</ele>
        <time>2015-08-11T08:27:07.479Z</time>
      </trkpt>
      <trkpt lat="45.9543" lon="4.7151">
        <ele>184.5</ele>
        <time>2015-08-11T08:27:08.447Z</time>
      </trkpt>
      <trkpt lat="45.95436" lon="4.71511">
        <ele>184.899993896</ele>
        <time>2015-08-11T08:27:09.477Z</time>
      </trkpt>
      <trkpt lat="45.95443" lon="4.71512">
        <ele>184.300003052</ele>
        <time>2015-08-11T08:27:10.503Z</time>
      </trkpt>
      <trkpt lat="45.95449" lon="4.71512">
        <ele>184.699996948</ele>
        <time>2015-08-11T08:27:11.493Z</time>
      </trkpt>
      <trkpt lat="45.95456" lon="4.71512">
        <ele>186.100006104</ele>
        <time>2015-08-11T08:27:12.511Z</time>
      </trkpt>
      <trkpt lat="45.95463" lon="4.71514">
        <ele>185.899993896</ele>
        <time>2015-08-11T08:27:13.593Z</time>
      </trkpt>
      <trkpt lat="45.95469" lon="4.71515">
        <ele>186.300003052</ele>
        <time>2015-08-11T08:27:14.443Z</time>
      </trkpt>
      <trkpt lat="45.95476" lon="4.71516">
        <ele>186.600006104</ele>
        <time>2015-08-11T08:27:15.571Z</time>
      </trkpt>
      <trkpt lat="45.95482" lon="4.71515">
        <ele>186.300003052</ele>
        <time>2015-08-11T08:27:16.454Z</time>
      </trkpt>
      <trkpt lat="45.95488" lon="4.71517">
        <ele>186.699996948</ele>
        <time>2015-08-11T08:27:17.483Z</time>
      </trkpt>
      <trkpt lat="45.95494" lon="4.71517">
        <ele>186.300003052</ele>
        <time>2015-08-11T08:27:18.463Z</time>
      </trkpt>
      <trkpt lat="45.95501" lon="4.71517">
        <ele>186.600006104</ele>
        <time>2015-08-11T08:27:19.494Z</time>
      </trkpt>
      <trkpt lat="45.95507" lon="4.71517">
        <ele>186.399993896</ele>
        <time>2015-08-11T08:27:20.451Z</time>
      </trkpt>
      <trkpt lat="45.95513" lon="4.71517">
        <ele>186.300003052</ele>
        <time>2015-08-11T08:27:21.534Z</time>
      </trkpt>
      <trkpt lat="45.95518" lon="4.71517">
        <ele>186.100006104</ele>
        <time>2015-08-11T08:27:22.444Z</time>
      </trkpt>
      <trkpt lat="45.95524" lon="4.71518">
        <ele>186.699996948</ele>
        <time>2015-08-11T08:27:23.502Z</time>
      </trkpt>
      <trkpt lat="45.9553" lon="4.71518">
        <ele>186.300003052</ele>
        <time>2015-08-11T08:27:24.443Z</time>
      </trkpt>
      <trkpt lat="45.95536" lon="4.71517">
        <ele>185.800003052</ele>
        <time>2015-08-11T08:27:25.489Z</time>
      </trkpt>
      <trkpt lat="45.95542" lon="4.71516">
        <ele>185.800003052</ele>
        <time>2015-08-11T08:27:26.448Z</time>
      </trkpt>
      <trkpt lat="45.95548" lon="4.71515">
        <ele>185.600006104</ele>
        <time>2015-08-11T08:27:27.48Z</time>
      </trkpt>
      <trkpt lat="45.95553" lon="4.71515">
        <ele>185.800003052</ele>
        <time>2015-08-11T08:27:28.439Z</time>
      </trkpt>
      <trkpt lat="45.95559" lon="4.71515">
        <ele>185.699996948</ele>
        <time>2015-08-11T08:27:29.481Z</time>
      </trkpt>
      <trkpt lat="45.95564" lon="4.71516">
        <ele>185.600006104</ele>
        <time>2015-08-11T08:27:30.444Z</time>
      </trkpt>
      <trkpt lat="45.9557" lon="4.71517">
        <ele>185.199996948</ele>
        <time>2015-08-11T08:27:31.499Z</time>
      </trkpt>
      <trkpt lat="45.95575" lon="4.71517">
        <ele>185.199996948</ele>
        <time>2015-08-11T08:27:32.453Z</time>
      </trkpt>
      <trkpt lat="45.9558" lon="4.71518">
        <ele>184.600006104</ele>
        <time>2015-08-11T08:27:33.494Z</time>
      </trkpt>
      <trkpt lat="45.95586" lon="4.71518">
        <ele>184.399993896</ele>
        <time>2015-08-11T08:27:34.451Z</time>
      </trkpt>
      <trkpt lat="45.95591" lon="4.71517">
        <ele>184.300003052</ele>
        <time>2015-08-11T08:27:35.478Z</time>
      </trkpt>
      <trkpt lat="45.95597" lon="4.71516">
        <ele>183.399993896</ele>
        <time>2015-08-11T08:27:36.448Z</time>
      </trkpt>
      <trkpt lat="45.95603" lon="4.71518">
        <ele>183</ele>
        <time>2015-08-11T08:27:37.49Z</time>
      </trkpt>
      <trkpt lat="45.95608" lon="4.71519">
        <ele>183.199996948</ele>
        <time>2015-08-11T08:27:38.426Z</time>
      </trkpt>
      <trkpt lat="45.95614" lon="4.7152">
        <ele>184.100006104</ele>
        <time>2015-08-11T08:27:39.478Z</time>
      </trkpt>
      <trkpt lat="45.95619" lon="4.7152">
        <ele>183.899993896</ele>
        <time>2015-08-11T08:27:40.448Z</time>
      </trkpt>
      <trkpt lat="45.95625" lon="4.71521">
        <ele>184.300003052</ele>
        <time>2015-08-11T08:27:41.516Z</time>
      </trkpt>
      <trkpt lat="45.9563" lon="4.71521">
        <ele>183.899993896</ele>
        <time>2015-08-11T08:27:42.461Z</time>
      </trkpt>
      <trkpt lat="45.95635" lon="4.71522">
        <ele>184</ele>
        <time>2015-08-11T08:27:43.496Z</time>
      </trkpt>
      <trkpt lat="45.9564" lon="4.71523">
        <ele>184.800003052</ele>
        <time>2015-08-11T08:27:44.448Z</time>
      </trkpt>
      <trkpt lat="45.95646" lon="4.71524">
        <ele>185.5</ele>
        <time>2015-08-11T08:27:45.573Z</time>
      </trkpt>
      <trkpt lat="45.95651" lon="4.71524">
        <ele>185.800003052</ele>
        <time>2015-08-11T08:27:46.445Z</time>
      </trkpt>
      <trkpt lat="45.95656" lon="4.71525">
        <ele>186.899993896</ele>
        <time>2015-08-11T08:27:47.479Z</time>
      </trkpt>
      <trkpt lat="45.95661" lon="4.71524">
        <ele>186.699996948</ele>
        <time>2015-08-11T08:27:48.448Z</time>
      </trkpt>
      <trkpt lat="45.95666" lon="4.71525">
        <ele>187.600006104</ele>
        <time>2015-08-11T08:27:49.486Z</time>
      </trkpt>
      <trkpt lat="45.95671" lon="4.71525">
        <ele>187.899993896</ele>
        <time>2015-08-11T08:27:50.446Z</time>
      </trkpt>
      <trkpt lat="45.95676" lon="4.71524">
        <ele>188</ele>
        <time>2015-08-11T08:27:51.485Z</time>
      </trkpt>
      <trkpt lat="45.95681" lon="4.71525">
        <ele>188.399993896</ele>
        <time>2015-08-11T08:27:52.448Z</time>
      </trkpt>
      <trkpt lat="45.95686" lon="4.71525">
        <ele>188.699996948</ele>
        <time>2015-08-11T08:27:53.493Z</time>
      </trkpt>
      <trkpt lat="45.95691" lon="4.71525">
        <ele>188.899993896</ele>
        <time>2015-08-11T08:27:54.446Z</time>
      </trkpt>
      <trkpt lat="45.95696" lon="4.71526">
        <ele>189</ele>
        <time>2015-08-11T08:27:55.482Z</time>
      </trkpt>
      <trkpt lat="45.95701" lon="4.71526">
        <ele>188.800003052</ele>
        <time>2015-08-11T08:27:56.453Z</time>
      </trkpt>
      <trkpt lat="45.95706" lon="4.71526">
        <ele>188.800003052</ele>
        <time>2015-08-11T08:27:57.483Z</time>
      </trkpt>
      <trkpt lat="45.9571" lon="4.71527">
        <ele>189.199996948</ele>
        <time>2015-08-11T08:27:58.446Z</time>
      </trkpt>
      <trkpt lat="45.95715" lon="4.71528">
        <ele>189.699996948</ele>
        <time>2015-08-11T08:27:59.493Z</time>
      </trkpt>
      <trkpt lat="45.95721" lon="4.71529">
        <ele>190.100006104</ele>
        <time>2015-08-11T08:28:00.637Z</time>
      </trkpt>
      <trkpt lat="45.95726" lon="4.71529">
        <ele>190.399993896</ele>
        <time>2015-08-11T08:28:01.485Z</time>
      </trkpt>
      <trkpt lat="45.95731" lon="4.71529">
        <ele>190.699996948</ele>
        <time>2015-08-11T08:28:02.457Z</time>
      </trkpt>
      <trkpt lat="45.95736" lon="4.7153">
        <ele>191.399993896</ele>
        <time>2015-08-11T08:28:03.498Z</time>
      </trkpt>
      <trkpt lat="45.95741" lon="4.71533">
        <ele>192.100006104</ele>
        <time>2015-08-11T08:28:04.495Z</time>
      </trkpt>
      <trkpt lat="45.95746" lon="4.71533">
        <ele>192.300003052</ele>
        <time>2015-08-11T08:28:05.513Z</time>
      </trkpt>
      <trkpt lat="45.95751" lon="4.71532">
        <ele>192.199996948</ele>
        <time>2015-08-11T08:28:06.447Z</time>
      </trkpt>
      <trkpt lat="45.95757" lon="4.71533">
        <ele>192.699996948</ele>
        <time>2015-08-11T08:28:07.526Z</time>
      </trkpt>
      <trkpt lat="45.95761" lon="4.71533">
        <ele>193.100006104</ele>
        <time>2015-08-11T08:28:08.484Z</time>
      </trkpt>
      <trkpt lat="45.95766" lon="4.71534">
        <ele>193</ele>
        <time>2015-08-11T08:28:09.484Z</time>
      </trkpt>
      <trkpt lat="45.95771" lon="4.71534">
        <ele>193.199996948</ele>
        <time>2015-08-11T08:28:10.456Z</time>
      </trkpt>
      <trkpt lat="45.95776" lon="4.71536">
        <ele>193.800003052</ele>
        <time>2015-08-11T08:28:11.48Z</time>
      </trkpt>
      <trkpt lat="45.95781" lon="4.71537">
        <ele>194.300003052</ele>
        <time>2015-08-11T08:28:12.447Z</time>
      </trkpt>
      <trkpt lat="45.95785" lon="4.71537">
        <ele>194.300003052</ele>
        <time>2015-08-11T08:28:13.495Z</time>
      </trkpt>
      <trkpt lat="45.9579" lon="4.71537">
        <ele>194.199996948</ele>
        <time>2015-08-11T08:28:14.448Z</time>
      </trkpt>
      <trkpt lat="45.95795" lon="4.71537">
        <ele>194.5</ele>
        <time>2015-08-11T08:28:15.485Z</time>
      </trkpt>
      <trkpt lat="45.958" lon="4.71537">
        <ele>193.600006104</ele>
        <time>2015-08-11T08:28:16.447Z</time>
      </trkpt>
      <trkpt lat="45.95804" lon="4.71537">
        <ele>193.300003052</ele>
        <time>2015-08-11T08:28:17.478Z</time>
      </trkpt>
      <trkpt lat="45.95809" lon="4.71536">
        <ele>192.5</ele>
        <time>2015-08-11T08:28:18.448Z</time>
      </trkpt>
      <trkpt lat="45.95814" lon="4.71538">
        <ele>192.699996948</ele>
        <time>2015-08-11T08:28:19.485Z</time>
      </trkpt>
      <trkpt lat="45.95819" lon="4.71538">
        <ele>192.699996948</ele>
        <time>2015-08-11T08:28:20.447Z</time>
      </trkpt>
      <trkpt lat="45.95824" lon="4.71538">
        <ele>192.800003052</ele>
        <time>2015-08-11T08:28:21.502Z</time>
      </trkpt>
      <trkpt lat="45.95829" lon="4.71539">
        <ele>193</ele>
        <time>2015-08-11T08:28:22.445Z</time>
      </trkpt>
      <trkpt lat="45.95834" lon="4.7154">
        <ele>193</ele>
        <time>2015-08-11T08:28:23.491Z</time>
      </trkpt>
      <trkpt lat="45.95838" lon="4.7154">
        <ele>192.800003052</ele>
        <time>2015-08-11T08:28:24.445Z</time>
      </trkpt>
      <trkpt lat="45.95843" lon="4.7154">
        <ele>192.5</ele>
        <time>2015-08-11T08:28:25.484Z</time>
      </trkpt>
      <trkpt lat="45.95847" lon="4.71541">
        <ele>192.5</ele>
        <time>2015-08-11T08:28:26.447Z</time>
      </trkpt>
      <trkpt lat="45.95852" lon="4.71541">
        <ele>192.100006104</ele>
        <time>2015-08-11T08:28:27.493Z</time>
      </trkpt>
      <trkpt lat="45.95856" lon="4.71541">
        <ele>191.5</ele>
        <time>2015-08-11T08:28:28.453Z</time>
      </trkpt>
      <trkpt lat="45.95861" lon="4.71541">
        <ele>191.100006104</ele>
        <time>2015-08-11T08:28:29.505Z</time>
      </trkpt>
      <trkpt lat="45.95866" lon="4.71542">
        <ele>191.699996948</ele>
        <time>2015-08-11T08:28:30.447Z</time>
      </trkpt>
      <trkpt lat="45.95871" lon="4.71543">
        <ele>192.699996948</ele>
        <time>2015-08-11T08:28:31.558Z</time>
      </trkpt>
      <trkpt lat="45.95876" lon="4.71544">
        <ele>193.5</ele>
        <time>2015-08-11T08:28:32.447Z</time>
      </trkpt>
      <trkpt lat="45.95881" lon="4.71543">
        <ele>192.5</ele>
        <time>2015-08-11T08:28:33.498Z</time>
      </trkpt>
      <trkpt lat="45.95885" lon="4.71544">
        <ele>191.600006104</ele>
        <time>2015-08-11T08:28:34.448Z</time>
      </trkpt>
      <trkpt lat="45.9589" lon="4.71544">
        <ele>192.199996948</ele>
        <time>2015-08-11T08:28:35.478Z</time>
      </trkpt>
      <trkpt lat="45.95895" lon="4.71543">
        <ele>192.600006104</ele>
        <time>2015-08-11T08:28:36.447Z</time>
      </trkpt>
      <trkpt lat="45.959" lon="4.71543">
        <ele>192.5</ele>
        <time>2015-08-11T08:28:37.482Z</time>
      </trkpt>
      <trkpt lat="45.95905" lon="4.71543">
        <ele>192.100006104</ele>
        <time>2015-08-11T08:28:38.447Z</time>
      </trkpt>
      <trkpt lat="45.9591" lon="4.71543">
        <ele>192</ele>
        <time>2015-08-11T08:28:39.479Z</time>
      </trkpt>
      <trkpt lat="45.95914" lon="4.71543">
        <ele>192.199996948</ele>
        <time>2015-08-11T08:28:40.428Z</time>
      </trkpt>
      <trkpt lat="45.95919" lon="4.71544">
        <ele>192.699996948</ele>
        <time>2015-08-11T08:28:41.478Z</time>
      </trkpt>
      <trkpt lat="45.95924" lon="4.71544">
        <ele>193.100006104</ele>
        <time>2015-08-11T08:28:42.447Z</time>
      </trkpt>
      <trkpt lat="45.95929" lon="4.71544">
        <ele>193.100006104</ele>
        <time>2015-08-11T08:28:43.496Z</time>
      </trkpt>
      <trkpt lat="45.95934" lon="4.71544">
        <ele>193.399993896</ele>
        <time>2015-08-11T08:28:44.447Z</time>
      </trkpt>
      <trkpt lat="45.95939" lon="4.71544">
        <ele>193.699996948</ele>
        <time>2015-08-11T08:28:45.478Z</time>
      </trkpt>
      <trkpt lat="45.95944" lon="4.71544">
        <ele>194</ele>
        <time>2015-08-11T08:28:46.447Z</time>
      </trkpt>
      <trkpt lat="45.95949" lon="4.71545">
        <ele>194.300003052</ele>
        <time>2015-08-11T08:28:47.479Z</time>
      </trkpt>
      <trkpt lat="45.95954" lon="4.71545">
        <ele>194.800003052</ele>
        <time>2015-08-11T08:28:48.451Z</time>
      </trkpt>
      <trkpt lat="45.95958" lon="4.71547">
        <ele>193.800003052</ele>
        <time>2015-08-11T08:28:49.526Z</time>
      </trkpt>
      <trkpt lat="45.95963" lon="4.71549">
        <ele>193.5</ele>
        <time>2015-08-11T08:28:50.447Z</time>
      </trkpt>
      <trkpt lat="45.95967" lon="4.71551">
        <ele>193.600006104</ele>
        <time>2015-08-11T08:28:51.48Z</time>
      </trkpt>
      <trkpt lat="45.95972" lon="4.71554">
        <ele>193.600006104</ele>
        <time>2015-08-11T08:28:52.446Z</time>
      </trkpt>
      <trkpt lat="45.95976" lon="4.71556">
        <ele>193.600006104</ele>
        <time>2015-08-11T08:28:53.504Z</time>
      </trkpt>
      <trkpt lat="45.95981" lon="4.71557">
        <ele>193.399993896</ele>
        <time>2015-08-11T08:28:54.449Z</time>
      </trkpt>
      <trkpt lat="45.95985" lon="4.71556">
        <ele>193.5</ele>
        <time>2015-08-11T08:28:55.505Z</time>
      </trkpt>
      <trkpt lat="45.9599" lon="4.71555">
        <ele>193.399993896</ele>
        <time>2015-08-11T08:28:56.447Z</time>
      </trkpt>
      <trkpt lat="45.95994" lon="4.71553">
        <ele>193.5</ele>
        <time>2015-08-11T08:28:57.48Z</time>
      </trkpt>
      <trkpt lat="45.95999" lon="4.71551">
        <ele>193.100006104</ele>
        <time>2015-08-11T08:28:58.442Z</time>
      </trkpt>
      <trkpt lat="45.96003" lon="4.71549">
        <ele>193</ele>
        <time>2015-08-11T08:28:59.48Z</time>
      </trkpt>
      <trkpt lat="45.96008" lon="4.71548">
        <ele>192.899993896</ele>
        <time>2015-08-11T08:29:00.436Z</time>
      </trkpt>
      <trkpt lat="45.96013" lon="4.71548">
        <ele>193.199996948</ele>
        <time>2015-08-11T08:29:01.482Z</time>
      </trkpt>
      <trkpt lat="45.96018" lon="4.71549">
        <ele>193.300003052</ele>
        <time>2015-08-11T08:29:02.444Z</time>
      </trkpt>
      <trkpt lat="45.96023" lon="4.71549">
        <ele>193.199996948</ele>
        <time>2015-08-11T08:29:03.483Z</time>
      </trkpt>
      <trkpt lat="45.96029" lon="4.71549">
        <ele>193.100006104</ele>
        <time>2015-08-11T08:29:04.452Z</time>
      </trkpt>
      <trkpt lat="45.96034" lon="4.71551">
        <ele>192.800003052</ele>
        <time>2015-08-11T08:29:05.482Z</time>
      </trkpt>
      <trkpt lat="45.9604" lon="4.71551">
        <ele>192.399993896</ele>
        <time>2015-08-11T08:29:06.452Z</time>
      </trkpt>
      <trkpt lat="45.96045" lon="4.71552">
        <ele>191.899993896</ele>
        <time>2015-08-11T08:29:07.485Z</time>
      </trkpt>
      <trkpt lat="45.9605" lon="4.71553">
        <ele>191.399993896</ele>
        <time>2015-08-11T08:29:08.432Z</time>
      </trkpt>
      <trkpt lat="45.96055" lon="4.71554">
        <ele>191.100006104</ele>
        <time>2015-08-11T08:29:09.487Z</time>
      </trkpt>
      <trkpt lat="45.9606" lon="4.71555">
        <ele>190.699996948</ele>
        <time>2015-08-11T08:29:10.454Z</time>
      </trkpt>
      <trkpt lat="45.96065" lon="4.71555">
        <ele>190.800003052</ele>
        <time>2015-08-11T08:29:11.481Z</time>
      </trkpt>
      <trkpt lat="45.96072" lon="4.71555">
        <ele>191.5</ele>
        <time>2015-08-11T08:29:12.484Z</time>
      </trkpt>
      <trkpt lat="45.96078" lon="4.71555">
        <ele>191.399993896</ele>
        <time>2015-08-11T08:29:13.483Z</time>
      </trkpt>
      <trkpt lat="45.96083" lon="4.71556">
        <ele>191.5</ele>
        <time>2015-08-11T08:29:14.446Z</time>
      </trkpt>
      <trkpt lat="45.96089" lon="4.71557">
        <ele>191.699996948</ele>
        <time>2015-08-11T08:29:15.479Z</time>
      </trkpt>
      <trkpt lat="45.96095" lon="4.71557">
        <ele>192.699996948</ele>
        <time>2015-08-11T08:29:16.433Z</time>
      </trkpt>
      <trkpt lat="45.96102" lon="4.71558">
        <ele>192.899993896</ele>
        <time>2015-08-11T08:29:17.481Z</time>
      </trkpt>
      <trkpt lat="45.96108" lon="4.71559">
        <ele>193</ele>
        <time>2015-08-11T08:29:18.445Z</time>
      </trkpt>
      <trkpt lat="45.96114" lon="4.71559">
        <ele>193</ele>
        <time>2015-08-11T08:29:19.481Z</time>
      </trkpt>
      <trkpt lat="45.96121" lon="4.71562">
        <ele>194.199996948</ele>
        <time>2015-08-11T08:29:20.449Z</time>
      </trkpt>
      <trkpt lat="45.96127" lon="4.71562">
        <ele>194.300003052</ele>
        <time>2015-08-11T08:29:21.533Z</time>
      </trkpt>
      <trkpt lat="45.96133" lon="4.71563">
        <ele>194.5</ele>
        <time>2015-08-11T08:29:22.445Z</time>
      </trkpt>
      <trkpt lat="45.96139" lon="4.71563">
        <ele>194.199996948</ele>
        <time>2015-08-11T08:29:23.482Z</time>
      </trkpt>
      <trkpt lat="45.96145" lon="4.71564">
        <ele>194.699996948</ele>
        <time>2015-08-11T08:29:24.447Z</time>
      </trkpt>
      <trkpt lat="45.96151" lon="4.71565">
        <ele>194.399993896</ele>
        <time>2015-08-11T08:29:25.481Z</time>
      </trkpt>
      <trkpt lat="45.96157" lon="4.71566">
        <ele>193.800003052</ele>
        <time>2015-08-11T08:29:26.447Z</time>
      </trkpt>
      <trkpt lat="45.96163" lon="4.71566">
        <ele>194</ele>
        <time>2015-08-11T08:29:27.478Z</time>
      </trkpt>
      <trkpt lat="45.96169" lon="4.71567">
        <ele>193.399993896</ele>
        <time>2015-08-11T08:29:28.447Z</time>
      </trkpt>
      <trkpt lat="45.96175" lon="4.71569">
        <ele>193.300003052</ele>
        <time>2015-08-11T08:29:29.478Z</time>
      </trkpt>
      <trkpt lat="45.96181" lon="4.7157">
        <ele>193.100006104</ele>
        <time>2015-08-11T08:29:30.447Z</time>
      </trkpt>
      <trkpt lat="45.96188" lon="4.71571">
        <ele>192.699996948</ele>
        <time>2015-08-11T08:29:31.563Z</time>
      </trkpt>
      <trkpt lat="45.96195" lon="4.71572">
        <ele>192.5</ele>
        <time>2015-08-11T08:29:32.447Z</time>
      </trkpt>
      <trkpt lat="45.96201" lon="4.71573">
        <ele>192.5</ele>
        <time>2015-08-11T08:29:33.48Z</time>
      </trkpt>
      <trkpt lat="45.96208" lon="4.71575">
        <ele>192.699996948</ele>
        <time>2015-08-11T08:29:34.447Z</time>
      </trkpt>
      <trkpt lat="45.96214" lon="4.71577">
        <ele>192.800003052</ele>
        <time>2015-08-11T08:29:35.478Z</time>
      </trkpt>
      <trkpt lat="45.96221" lon="4.71579">
        <ele>192.699996948</ele>
        <time>2015-08-11T08:29:36.447Z</time>
      </trkpt>
      <trkpt lat="45.96228" lon="4.7158">
        <ele>192.5</ele>
        <time>2015-08-11T08:29:37.49Z</time>
      </trkpt>
      <trkpt lat="45.96234" lon="4.7158">
        <ele>192</ele>
        <time>2015-08-11T08:29:38.445Z</time>
      </trkpt>
      <trkpt lat="45.9624" lon="4.7158">
        <ele>191.800003052</ele>
        <time>2015-08-11T08:29:39.483Z</time>
      </trkpt>
      <trkpt lat="45.96246" lon="4.7158">
        <ele>191.300003052</ele>
        <time>2015-08-11T08:29:40.446Z</time>
      </trkpt>
      <trkpt lat="45.96252" lon="4.71581">
        <ele>191.300003052</ele>
        <time>2015-08-11T08:29:41.498Z</time>
      </trkpt>
      <trkpt lat="45.96258" lon="4.71582">
        <ele>191.399993896</ele>
        <time>2015-08-11T08:29:42.445Z</time>
      </trkpt>
      <trkpt lat="45.96265" lon="4.71584">
        <ele>191.100006104</ele>
        <time>2015-08-11T08:29:43.488Z</time>
      </trkpt>
      <trkpt lat="45.96272" lon="4.71584">
        <ele>190.699996948</ele>
        <time>2015-08-11T08:29:44.445Z</time>
      </trkpt>
      <trkpt lat="45.96279" lon="4.71585">
        <ele>190.800003052</ele>
        <time>2015-08-11T08:29:45.479Z</time>
      </trkpt>
      <trkpt lat="45.96285" lon="4.71586">
        <ele>190.399993896</ele>
        <time>2015-08-11T08:29:46.449Z</time>
      </trkpt>
      <trkpt lat="45.96292" lon="4.71588">
        <ele>190.600006104</ele>
        <time>2015-08-11T08:29:47.5Z</time>
      </trkpt>
      <trkpt lat="45.96298" lon="4.71589">
        <ele>190.699996948</ele>
        <time>2015-08-11T08:29:48.44Z</time>
      </trkpt>
      <trkpt lat="45.96305" lon="4.7159">
        <ele>190.5</ele>
        <time>2015-08-11T08:29:49.481Z</time>
      </trkpt>
      <trkpt lat="45.96311" lon="4.71592">
        <ele>189.600006104</ele>
        <time>2015-08-11T08:29:50.533Z</time>
      </trkpt>
      <trkpt lat="45.96317" lon="4.71594">
        <ele>190.399993896</ele>
        <time>2015-08-11T08:29:51.479Z</time>
      </trkpt>
      <trkpt lat="45.96324" lon="4.71595">
        <ele>191</ele>
        <time>2015-08-11T08:29:52.445Z</time>
      </trkpt>
      <trkpt lat="45.9633" lon="4.71596">
        <ele>191</ele>
        <time>2015-08-11T08:29:53.481Z</time>
      </trkpt>
      <trkpt lat="45.96336" lon="4.71597">
        <ele>191.100006104</ele>
        <time>2015-08-11T08:29:54.447Z</time>
      </trkpt>
      <trkpt lat="45.96342" lon="4.71598">
        <ele>190.899993896</ele>
        <time>2015-08-11T08:29:55.49Z</time>
      </trkpt>
      <trkpt lat="45.96349" lon="4.71599">
        <ele>191.199996948</ele>
        <time>2015-08-11T08:29:56.428Z</time>
      </trkpt>
      <trkpt lat="45.96355" lon="4.71601">
        <ele>191.600006104</ele>
        <time>2015-08-11T08:29:57.481Z</time>
      </trkpt>
      <trkpt lat="45.96362" lon="4.71602">
        <ele>192.399993896</ele>
        <time>2015-08-11T08:29:58.447Z</time>
      </trkpt>
      <trkpt lat="45.96368" lon="4.71603">
        <ele>192.699996948</ele>
        <time>2015-08-11T08:29:59.476Z</time>
      </trkpt>
      <trkpt lat="45.96375" lon="4.71605">
        <ele>193</ele>
        <time>2015-08-11T08:30:00.435Z</time>
      </trkpt>
      <trkpt lat="45.96381" lon="4.71606">
        <ele>193.300003052</ele>
        <time>2015-08-11T08:30:01.485Z</time>
      </trkpt>
      <trkpt lat="45.96388" lon="4.71607">
        <ele>193.199996948</ele>
        <time>2015-08-11T08:30:02.447Z</time>
      </trkpt>
      <trkpt lat="45.96394" lon="4.71608">
        <ele>193.399993896</ele>
        <time>2015-08-11T08:30:03.521Z</time>
      </trkpt>
      <trkpt lat="45.96401" lon="4.71609">
        <ele>193.600006104</ele>
        <time>2015-08-11T08:30:04.446Z</time>
      </trkpt>
      <trkpt lat="45.96407" lon="4.7161">
        <ele>193.300003052</ele>
        <time>2015-08-11T08:30:05.478Z</time>
      </trkpt>
      <trkpt lat="45.96414" lon="4.71612">
        <ele>193.699996948</ele>
        <time>2015-08-11T08:30:06.447Z</time>
      </trkpt>
      <trkpt lat="45.9642" lon="4.71613">
        <ele>194.100006104</ele>
        <time>2015-08-11T08:30:07.479Z</time>
      </trkpt>
      <trkpt lat="45.96427" lon="4.71614">
        <ele>194.5</ele>
        <time>2015-08-11T08:30:08.447Z</time>
      </trkpt>
      <trkpt lat="45.96433" lon="4.71614">
        <ele>194.699996948</ele>
        <time>2015-08-11T08:30:09.482Z</time>
      </trkpt>
      <trkpt lat="45.96439" lon="4.71616">
        <ele>194.899993896</ele>
        <time>2015-08-11T08:30:10.448Z</time>
      </trkpt>
      <trkpt lat="45.96445" lon="4.71617">
        <ele>195</ele>
        <time>2015-08-11T08:30:11.48Z</time>
      </trkpt>
      <trkpt lat="45.96451" lon="4.71616">
        <ele>194.800003052</ele>
        <time>2015-08-11T08:30:12.457Z</time>
      </trkpt>
      <trkpt lat="45.96457" lon="4.71616">
        <ele>194.399993896</ele>
        <time>2015-08-11T08:30:13.492Z</time>
      </trkpt>
      <trkpt lat="45.96463" lon="4.71617">
        <ele>193.5</ele>
        <time>2015-08-11T08:30:14.445Z</time>
      </trkpt>
      <trkpt lat="45.96468" lon="4.71617">
        <ele>192.800003052</ele>
        <time>2015-08-11T08:30:15.481Z</time>
      </trkpt>
      <trkpt lat="45.96473" lon="4.71618">
        <ele>191.699996948</ele>
        <time>2015-08-11T08:30:16.446Z</time>
      </trkpt>
      <trkpt lat="45.96478" lon="4.71618">
        <ele>191.199996948</ele>
        <time>2015-08-11T08:30:17.48Z</time>
      </trkpt>
      <trkpt lat="45.96484" lon="4.71619">
        <ele>191</ele>
        <time>2015-08-11T08:30:18.442Z</time>
      </trkpt>
      <trkpt lat="45.96489" lon="4.7162">
        <ele>190.800003052</ele>
        <time>2015-08-11T08:30:19.5Z</time>
      </trkpt>
      <trkpt lat="45.96495" lon="4.7162">
        <ele>190.600006104</ele>
        <time>2015-08-11T08:30:20.447Z</time>
      </trkpt>
      <trkpt lat="45.965" lon="4.71623">
        <ele>190.800003052</ele>
        <time>2015-08-11T08:30:21.478Z</time>
      </trkpt>
      <trkpt lat="45.96506" lon="4.71624">
        <ele>190.399993896</ele>
        <time>2015-08-11T08:30:22.447Z</time>
      </trkpt>
      <trkpt lat="45.9651" lon="4.71627">
        <ele>190.100006104</ele>
        <time>2015-08-11T08:30:23.485Z</time>
      </trkpt>
      <trkpt lat="45.96515" lon="4.71631">
        <ele>190.399993896</ele>
        <time>2015-08-11T08:30:24.446Z</time>
      </trkpt>
      <trkpt lat="45.9652" lon="4.71636">
        <ele>190.399993896</ele>
        <time>2015-08-11T08:30:25.48Z</time>
      </trkpt>
      <trkpt lat="45.96525" lon="4.7164">
        <ele>190.600006104</ele>
        <time>2015-08-11T08:30:26.446Z</time>
      </trkpt>
      <trkpt lat="45.9653" lon="4.71643">
        <ele>190.600006104</ele>
        <time>2015-08-11T08:30:27.477Z</time>
      </trkpt>
      <trkpt lat="45.96536" lon="4.71643">
        <ele>191.5</ele>
        <time>2015-08-11T08:30:28.435Z</time>
      </trkpt>
      <trkpt lat="45.96541" lon="4.71642">
        <ele>192.100006104</ele>
        <time>2015-08-11T08:30:29.479Z</time>
      </trkpt>
      <trkpt lat="45.96546" lon="4.71639">
        <ele>192.800003052</ele>
        <time>2015-08-11T08:30:30.445Z</time>
      </trkpt>
      <trkpt lat="45.96551" lon="4.71636">
        <ele>193.300003052</ele>
        <time>2015-08-11T08:30:31.484Z</time>
      </trkpt>
      <trkpt lat="45.96556" lon="4.71634">
        <ele>193.699996948</ele>
        <time>2015-08-11T08:30:32.447Z</time>
      </trkpt>
      <trkpt lat="45.96561" lon="4.71633">
        <ele>194.100006104</ele>
        <time>2015-08-11T08:30:33.48Z</time>
      </trkpt>
      <trkpt lat="45.96567" lon="4.71633">
        <ele>194.100006104</ele>
        <time>2015-08-11T08:30:34.445Z</time>
      </trkpt>
      <trkpt lat="45.96572" lon="4.71634">
        <ele>194.399993896</ele>
        <time>2015-08-11T08:30:35.478Z</time>
      </trkpt>
      <trkpt lat="45.96577" lon="4.71637">
        <ele>194.399993896</ele>
        <time>2015-08-11T08:30:36.44Z</time>
      </trkpt>
      <trkpt lat="45.96583" lon="4.71639">
        <ele>194.699996948</ele>
        <time>2015-08-11T08:30:37.479Z</time>
      </trkpt>
      <trkpt lat="45.96588" lon="4.7164">
        <ele>195.100006104</ele>
        <time>2015-08-11T08:30:38.449Z</time>
      </trkpt>
      <trkpt lat="45.96594" lon="4.7164">
        <ele>195.699996948</ele>
        <time>2015-08-11T08:30:39.482Z</time>
      </trkpt>
      <trkpt lat="45.96599" lon="4.7164">
        <ele>195.899993896</ele>
        <time>2015-08-11T08:30:40.446Z</time>
      </trkpt>
      <trkpt lat="45.96605" lon="4.7164">
        <ele>196.100006104</ele>
        <time>2015-08-11T08:30:41.503Z</time>
      </trkpt>
      <trkpt lat="45.9661" lon="4.71642">
        <ele>196</ele>
        <time>2015-08-11T08:30:42.446Z</time>
      </trkpt>
      <trkpt lat="45.96615" lon="4.71642">
        <ele>195.600006104</ele>
        <time>2015-08-11T08:30:43.497Z</time>
      </trkpt>
      <trkpt lat="45.96621" lon="4.71643">
        <ele>195</ele>
        <time>2015-08-11T08:30:44.447Z</time>
      </trkpt>
      <trkpt lat="45.96626" lon="4.71643">
        <ele>194.100006104</ele>
        <time>2015-08-11T08:30:45.478Z</time>
      </trkpt>
      <trkpt lat="45.9663" lon="4.71644">
        <ele>194.399993896</ele>
        <time>2015-08-11T08:30:46.443Z</time>
      </trkpt>
      <trkpt lat="45.96635" lon="4.71645">
        <ele>194.5</ele>
        <time>2015-08-11T08:30:47.476Z</time>
      </trkpt>
      <trkpt lat="45.9664" lon="4.71646">
        <ele>194.800003052</ele>
        <time>2015-08-11T08:30:48.445Z</time>
      </trkpt>
      <trkpt lat="45.96644" lon="4.71647">
        <ele>195.199996948</ele>
        <time>2015-08-11T08:30:49.481Z</time>
      </trkpt>
      <trkpt lat="45.96649" lon="4.71648">
        <ele>195.300003052</ele>
        <time>2015-08-11T08:30:50.462Z</time>
      </trkpt>
      <trkpt lat="45.96653" lon="4.7165">
        <ele>195.300003052</ele>
        <time>2015-08-11T08:30:51.478Z</time>
      </trkpt>
      <trkpt lat="45.96658" lon="4.71651">
        <ele>195.199996948</ele>
        <time>2015-08-11T08:30:52.432Z</time>
      </trkpt>
      <trkpt lat="45.96663" lon="4.71652">
        <ele>195</ele>
        <time>2015-08-11T08:30:53.484Z</time>
      </trkpt>
      <trkpt lat="45.96668" lon="4.71652">
        <ele>194.800003052</ele>
        <time>2015-08-11T08:30:54.441Z</time>
      </trkpt>
      <trkpt lat="45.96673" lon="4.71653">
        <ele>194.699996948</ele>
        <time>2015-08-11T08:30:55.48Z</time>
      </trkpt>
      <trkpt lat="45.96678" lon="4.71653">
        <ele>194.100006104</ele>
        <time>2015-08-11T08:30:56.476Z</time>
      </trkpt>
      <trkpt lat="45.96683" lon="4.71653">
        <ele>194</ele>
        <time>2015-08-11T08:30:57.478Z</time>
      </trkpt>
      <trkpt lat="45.96687" lon="4.71654">
        <ele>193.899993896</ele>
        <time>2015-08-11T08:30:58.447Z</time>
      </trkpt>
      <trkpt lat="45.96693" lon="4.71655">
        <ele>194.100006104</ele>
        <time>2015-08-11T08:30:59.477Z</time>
      </trkpt>
      <trkpt lat="45.96698" lon="4.71655">
        <ele>193.699996948</ele>
        <time>2015-08-11T08:31:00.434Z</time>
      </trkpt>
      <trkpt lat="45.96703" lon="4.71656">
        <ele>193.600006104</ele>
        <time>2015-08-11T08:31:01.479Z</time>
      </trkpt>
      <trkpt lat="45.96708" lon="4.71657">
        <ele>193.899993896</ele>
        <time>2015-08-11T08:31:02.446Z</time>
      </trkpt>
      <trkpt lat="45.96713" lon="4.71657">
        <ele>193.899993896</ele>
        <time>2015-08-11T08:31:03.534Z</time>
      </trkpt>
      <trkpt lat="45.96718" lon="4.71658">
        <ele>193.899993896</ele>
        <time>2015-08-11T08:31:04.45Z</time>
      </trkpt>
      <trkpt lat="45.96723" lon="4.71658">
        <ele>193.899993896</ele>
        <time>2015-08-11T08:31:05.573Z</time>
      </trkpt>
      <trkpt lat="45.96728" lon="4.71659">
        <ele>193.800003052</ele>
        <time>2015-08-11T08:31:06.446Z</time>
      </trkpt>
      <trkpt lat="45.96733" lon="4.71661">
        <ele>193.199996948</ele>
        <time>2015-08-11T08:31:07.48Z</time>
      </trkpt>
      <trkpt lat="45.96738" lon="4.71661">
        <ele>192.699996948</ele>
        <time>2015-08-11T08:31:08.445Z</time>
      </trkpt>
      <trkpt lat="45.96743" lon="4.71661">
        <ele>192.600006104</ele>
        <time>2015-08-11T08:31:09.478Z</time>
      </trkpt>
      <trkpt lat="45.96749" lon="4.71662">
        <ele>192.5</ele>
        <time>2015-08-11T08:31:10.447Z</time>
      </trkpt>
      <trkpt lat="45.96754" lon="4.71664">
        <ele>193.5</ele>
        <time>2015-08-11T08:31:11.479Z</time>
      </trkpt>
      <trkpt lat="45.96759" lon="4.71664">
        <ele>194</ele>
        <time>2015-08-11T08:31:12.432Z</time>
      </trkpt>
      <trkpt lat="45.96763" lon="4.71665">
        <ele>194.100006104</ele>
        <time>2015-08-11T08:31:13.482Z</time>
      </trkpt>
      <trkpt lat="45.96768" lon="4.71666">
        <ele>194.5</ele>
        <time>2015-08-11T08:31:14.446Z</time>
      </trkpt>
      <trkpt lat="45.96773" lon="4.71666">
        <ele>195.199996948</ele>
        <time>2015-08-11T08:31:15.476Z</time>
      </trkpt>
      <trkpt lat="45.96779" lon="4.71667">
        <ele>194.899993896</ele>
        <time>2015-08-11T08:31:16.461Z</time>
      </trkpt>
      <trkpt lat="45.96784" lon="4.71667">
        <ele>195.399993896</ele>
        <time>2015-08-11T08:31:17.477Z</time>
      </trkpt>
      <trkpt lat="45.96789" lon="4.71668">
        <ele>195.800003052</ele>
        <time>2015-08-11T08:31:18.445Z</time>
      </trkpt>
      <trkpt lat="45.96794" lon="4.7167">
        <ele>196.300003052</ele>
        <time>2015-08-11T08:31:19.48Z</time>
      </trkpt>
      <trkpt lat="45.96799" lon="4.71671">
        <ele>196.399993896</ele>
        <time>2015-08-11T08:31:20.432Z</time>
      </trkpt>
      <trkpt lat="45.96805" lon="4.7167">
        <ele>196.800003052</ele>
        <time>2015-08-11T08:31:21.494Z</time>
      </trkpt>
      <trkpt lat="45.96809" lon="4.71673">
        <ele>196.699996948</ele>
        <time>2015-08-11T08:31:22.445Z</time>
      </trkpt>
      <trkpt lat="45.96815" lon="4.71674">
        <ele>196.199996948</ele>
        <time>2015-08-11T08:31:23.484Z</time>
      </trkpt>
      <trkpt lat="45.9682" lon="4.71675">
        <ele>196.800003052</ele>
        <time>2015-08-11T08:31:24.453Z</time>
      </trkpt>
      <trkpt lat="45.96824" lon="4.71676">
        <ele>196.699996948</ele>
        <time>2015-08-11T08:31:25.478Z</time>
      </trkpt>
      <trkpt lat="45.9683" lon="4.71676">
        <ele>196.699996948</ele>
        <time>2015-08-11T08:31:26.445Z</time>
      </trkpt>
      <trkpt lat="45.96835" lon="4.71677">
        <ele>196.800003052</ele>
        <time>2015-08-11T08:31:27.477Z</time>
      </trkpt>
      <trkpt lat="45.9684" lon="4.71678">
        <ele>196.899993896</ele>
        <time>2015-08-11T08:31:28.445Z</time>
      </trkpt>
      <trkpt lat="45.96845" lon="4.71678">
        <ele>196.600006104</ele>
        <time>2015-08-11T08:31:29.486Z</time>
      </trkpt>
      <trkpt lat="45.96851" lon="4.71678">
        <ele>196.399993896</ele>
        <time>2015-08-11T08:31:30.449Z</time>
      </trkpt>
      <trkpt lat="45.96855" lon="4.7168">
        <ele>196.5</ele>
        <time>2015-08-11T08:31:31.498Z</time>
      </trkpt>
      <trkpt lat="45.9686" lon="4.71681">
        <ele>197.5</ele>
        <time>2015-08-11T08:31:32.432Z</time>
      </trkpt>
      <trkpt lat="45.96866" lon="4.71681">
        <ele>197.899993896</ele>
        <time>2015-08-11T08:31:33.488Z</time>
      </trkpt>
      <trkpt lat="45.96871" lon="4.71681">
        <ele>197.899993896</ele>
        <time>2015-08-11T08:31:34.446Z</time>
      </trkpt>
      <trkpt lat="45.96876" lon="4.71681">
        <ele>198.300003052</ele>
        <time>2015-08-11T08:31:35.479Z</time>
      </trkpt>
      <trkpt lat="45.9688" lon="4.71681">
        <ele>200.199996948</ele>
        <time>2015-08-11T08:31:36.445Z</time>
      </trkpt>
      <trkpt lat="45.96888" lon="4.71685">
        <ele>200.300003052</ele>
        <time>2015-08-11T08:31:38.491Z</time>
      </trkpt>
      <trkpt lat="45.96893" lon="4.71686">
        <ele>200.699996948</ele>
        <time>2015-08-11T08:31:39.447Z</time>
      </trkpt>
      <trkpt lat="45.96898" lon="4.71686">
        <ele>200.899993896</ele>
        <time>2015-08-11T08:31:40.477Z</time>
      </trkpt>
      <trkpt lat="45.96904" lon="4.71686">
        <ele>200.5</ele>
        <time>2015-08-11T08:31:41.445Z</time>
      </trkpt>
      <trkpt lat="45.9691" lon="4.71687">
        <ele>200.600006104</ele>
        <time>2015-08-11T08:31:42.492Z</time>
      </trkpt>
      <trkpt lat="45.96916" lon="4.71687">
        <ele>200.600006104</ele>
        <time>2015-08-11T08:31:43.452Z</time>
      </trkpt>
      <trkpt lat="45.96921" lon="4.71687">
        <ele>201.199996948</ele>
        <time>2015-08-11T08:31:44.563Z</time>
      </trkpt>
      <trkpt lat="45.96926" lon="4.71687">
        <ele>201.300003052</ele>
        <time>2015-08-11T08:31:45.447Z</time>
      </trkpt>
      <trkpt lat="45.9693" lon="4.71687">
        <ele>201.5</ele>
        <time>2015-08-11T08:31:46.48Z</time>
      </trkpt>
      <trkpt lat="45.96936" lon="4.71688">
        <ele>201.699996948</ele>
        <time>2015-08-11T08:31:47.445Z</time>
      </trkpt>
      <trkpt lat="45.96942" lon="4.71688">
        <ele>202.199996948</ele>
        <time>2015-08-11T08:31:48.491Z</time>
      </trkpt>
      <trkpt lat="45.96947" lon="4.71689">
        <ele>202.5</ele>
        <time>2015-08-11T08:31:49.452Z</time>
      </trkpt>
      <trkpt lat="45.96952" lon="4.7169">
        <ele>202.199996948</ele>
        <time>2015-08-11T08:31:50.506Z</time>
      </trkpt>
      <trkpt lat="45.96958" lon="4.71692">
        <ele>201.800003052</ele>
        <time>2015-08-11T08:31:51.445Z</time>
      </trkpt>
      <trkpt lat="45.96963" lon="4.71694">
        <ele>201.699996948</ele>
        <time>2015-08-11T08:31:52.478Z</time>
      </trkpt>
      <trkpt lat="45.96968" lon="4.71695">
        <ele>201.600006104</ele>
        <time>2015-08-11T08:31:53.459Z</time>
      </trkpt>
      <trkpt lat="45.96974" lon="4.71695">
        <ele>201.399993896</ele>
        <time>2015-08-11T08:31:54.478Z</time>
      </trkpt>
      <trkpt lat="45.96979" lon="4.71695">
        <ele>201.5</ele>
        <time>2015-08-11T08:31:55.447Z</time>
      </trkpt>
      <trkpt lat="45.96985" lon="4.71695">
        <ele>201.5</ele>
        <time>2015-08-11T08:31:56.485Z</time>
      </trkpt>
      <trkpt lat="45.9699" lon="4.71695">
        <ele>201.5</ele>
        <time>2015-08-11T08:31:57.443Z</time>
      </trkpt>
      <trkpt lat="45.96995" lon="4.71696">
        <ele>201.5</ele>
        <time>2015-08-11T08:31:58.497Z</time>
      </trkpt>
      <trkpt lat="45.96999" lon="4.71697">
        <ele>201.600006104</ele>
        <time>2015-08-11T08:31:59.432Z</time>
      </trkpt>
      <trkpt lat="45.97004" lon="4.71697">
        <ele>201.699996948</ele>
        <time>2015-08-11T08:32:00.479Z</time>
      </trkpt>
      <trkpt lat="45.9701" lon="4.71696">
        <ele>201.199996948</ele>
        <time>2015-08-11T08:32:01.452Z</time>
      </trkpt>
      <trkpt lat="45.97016" lon="4.71695">
        <ele>200.699996948</ele>
        <time>2015-08-11T08:32:02.48Z</time>
      </trkpt>
      <trkpt lat="45.97022" lon="4.71696">
        <ele>200.100006104</ele>
        <time>2015-08-11T08:32:03.494Z</time>
      </trkpt>
      <trkpt lat="45.97027" lon="4.71696">
        <ele>200.100006104</ele>
        <time>2015-08-11T08:32:04.478Z</time>
      </trkpt>
      <trkpt lat="45.97033" lon="4.71696">
        <ele>200.399993896</ele>
        <time>2015-08-11T08:32:05.442Z</time>
      </trkpt>
      <trkpt lat="45.97038" lon="4.71696">
        <ele>200.699996948</ele>
        <time>2015-08-11T08:32:06.477Z</time>
      </trkpt>
      <trkpt lat="45.97043" lon="4.71695">
        <ele>200</ele>
        <time>2015-08-11T08:32:07.449Z</time>
      </trkpt>
      <trkpt lat="45.97048" lon="4.71697">
        <ele>199.300003052</ele>
        <time>2015-08-11T08:32:08.477Z</time>
      </trkpt>
      <trkpt lat="45.97053" lon="4.71696">
        <ele>199.699996948</ele>
        <time>2015-08-11T08:32:09.427Z</time>
      </trkpt>
      <trkpt lat="45.97058" lon="4.71695">
        <ele>199.399993896</ele>
        <time>2015-08-11T08:32:10.505Z</time>
      </trkpt>
      <trkpt lat="45.97063" lon="4.71695">
        <ele>199.399993896</ele>
        <time>2015-08-11T08:32:11.446Z</time>
      </trkpt>
      <trkpt lat="45.97068" lon="4.71696">
        <ele>199.699996948</ele>
        <time>2015-08-11T08:32:12.476Z</time>
      </trkpt>
      <trkpt lat="45.97074" lon="4.71697">
        <ele>199.399993896</ele>
        <time>2015-08-11T08:32:13.456Z</time>
      </trkpt>
      <trkpt lat="45.97079" lon="4.71698">
        <ele>199.699996948</ele>
        <time>2015-08-11T08:32:14.496Z</time>
      </trkpt>
      <trkpt lat="45.97084" lon="4.71698">
        <ele>199.600006104</ele>
        <time>2015-08-11T08:32:15.445Z</time>
      </trkpt>
      <trkpt lat="45.97089" lon="4.71699">
        <ele>199.5</ele>
        <time>2015-08-11T08:32:16.481Z</time>
      </trkpt>
      <trkpt lat="45.97094" lon="4.71698">
        <ele>199.5</ele>
        <time>2015-08-11T08:32:17.446Z</time>
      </trkpt>
      <trkpt lat="45.97099" lon="4.717">
        <ele>199.5</ele>
        <time>2015-08-11T08:32:18.477Z</time>
      </trkpt>
      <trkpt lat="45.97104" lon="4.717">
        <ele>199.399993896</ele>
        <time>2015-08-11T08:32:19.447Z</time>
      </trkpt>
      <trkpt lat="45.9711" lon="4.71701">
        <ele>199.699996948</ele>
        <time>2015-08-11T08:32:20.479Z</time>
      </trkpt>
      <trkpt lat="45.97114" lon="4.71701">
        <ele>200.5</ele>
        <time>2015-08-11T08:32:21.444Z</time>
      </trkpt>
      <trkpt lat="45.9712" lon="4.71701">
        <ele>200.100006104</ele>
        <time>2015-08-11T08:32:22.514Z</time>
      </trkpt>
      <trkpt lat="45.97125" lon="4.71704">
        <ele>201.100006104</ele>
        <time>2015-08-11T08:32:23.457Z</time>
      </trkpt>
      <trkpt lat="45.9713" lon="4.71704">
        <ele>201.800003052</ele>
        <time>2015-08-11T08:32:24.48Z</time>
      </trkpt>
      <trkpt lat="45.97136" lon="4.71704">
        <ele>202</ele>
        <time>2015-08-11T08:32:25.434Z</time>
      </trkpt>
      <trkpt lat="45.97142" lon="4.71704">
        <ele>202.100006104</ele>
        <time>2015-08-11T08:32:26.478Z</time>
      </trkpt>
      <trkpt lat="45.97147" lon="4.71705">
        <ele>202.399993896</ele>
        <time>2015-08-11T08:32:27.433Z</time>
      </trkpt>
      <trkpt lat="45.97152" lon="4.71706">
        <ele>203.399993896</ele>
        <time>2015-08-11T08:32:28.481Z</time>
      </trkpt>
      <trkpt lat="45.97158" lon="4.71707">
        <ele>204.300003052</ele>
        <time>2015-08-11T08:32:29.444Z</time>
      </trkpt>
      <trkpt lat="45.97163" lon="4.71707">
        <ele>204.399993896</ele>
        <time>2015-08-11T08:32:30.497Z</time>
      </trkpt>
      <trkpt lat="45.97168" lon="4.71709">
        <ele>203.800003052</ele>
        <time>2015-08-11T08:32:31.447Z</time>
      </trkpt>
      <trkpt lat="45.97172" lon="4.71709">
        <ele>203.899993896</ele>
        <time>2015-08-11T08:32:32.512Z</time>
      </trkpt>
      <trkpt lat="45.97177" lon="4.7171">
        <ele>204.399993896</ele>
        <time>2015-08-11T08:32:33.456Z</time>
      </trkpt>
      <trkpt lat="45.97183" lon="4.71711">
        <ele>204.300003052</ele>
        <time>2015-08-11T08:32:34.477Z</time>
      </trkpt>
      <trkpt lat="45.97188" lon="4.71711">
        <ele>203.899993896</ele>
        <time>2015-08-11T08:32:35.446Z</time>
      </trkpt>
      <trkpt lat="45.97193" lon="4.71712">
        <ele>204.300003052</ele>
        <time>2015-08-11T08:32:36.476Z</time>
      </trkpt>
      <trkpt lat="45.97198" lon="4.71712">
        <ele>203.5</ele>
        <time>2015-08-11T08:32:37.446Z</time>
      </trkpt>
      <trkpt lat="45.97203" lon="4.71715">
        <ele>205</ele>
        <time>2015-08-11T08:32:38.476Z</time>
      </trkpt>
      <trkpt lat="45.97208" lon="4.71715">
        <ele>205</ele>
        <time>2015-08-11T08:32:39.445Z</time>
      </trkpt>
      <trkpt lat="45.97214" lon="4.71715">
        <ele>205</ele>
        <time>2015-08-11T08:32:40.517Z</time>
      </trkpt>
      <trkpt lat="45.97219" lon="4.71715">
        <ele>205.399993896</ele>
        <time>2015-08-11T08:32:41.527Z</time>
      </trkpt>
      <trkpt lat="45.97224" lon="4.71715">
        <ele>205.5</ele>
        <time>2015-08-11T08:32:42.497Z</time>
      </trkpt>
      <trkpt lat="45.9723" lon="4.71716">
        <ele>205.600006104</ele>
        <time>2015-08-11T08:32:43.5Z</time>
      </trkpt>
      <trkpt lat="45.97235" lon="4.71718">
        <ele>205.800003052</ele>
        <time>2015-08-11T08:32:44.482Z</time>
      </trkpt>
      <trkpt lat="45.9724" lon="4.71718">
        <ele>205.199996948</ele>
        <time>2015-08-11T08:32:45.446Z</time>
      </trkpt>
      <trkpt lat="45.97245" lon="4.71719">
        <ele>205.399993896</ele>
        <time>2015-08-11T08:32:46.477Z</time>
      </trkpt>
      <trkpt lat="45.97251" lon="4.7172">
        <ele>205.899993896</ele>
        <time>2015-08-11T08:32:47.432Z</time>
      </trkpt>
      <trkpt lat="45.97257" lon="4.71721">
        <ele>206.5</ele>
        <time>2015-08-11T08:32:48.48Z</time>
      </trkpt>
      <trkpt lat="45.97262" lon="4.71722">
        <ele>206.800003052</ele>
        <time>2015-08-11T08:32:49.447Z</time>
      </trkpt>
      <trkpt lat="45.97268" lon="4.71722">
        <ele>207</ele>
        <time>2015-08-11T08:32:50.476Z</time>
      </trkpt>
      <trkpt lat="45.97273" lon="4.71724">
        <ele>207.300003052</ele>
        <time>2015-08-11T08:32:51.446Z</time>
      </trkpt>
      <trkpt lat="45.97278" lon="4.71726">
        <ele>207.600006104</ele>
        <time>2015-08-11T08:32:52.477Z</time>
      </trkpt>
      <trkpt lat="45.97282" lon="4.71729">
        <ele>208.100006104</ele>
        <time>2015-08-11T08:32:53.463Z</time>
      </trkpt>
      <trkpt lat="45.97286" lon="4.71733">
        <ele>207.300003052</ele>
        <time>2015-08-11T08:32:54.478Z</time>
      </trkpt>
      <trkpt lat="45.9729" lon="4.71737">
        <ele>206.600006104</ele>
        <time>2015-08-11T08:32:55.448Z</time>
      </trkpt>
      <trkpt lat="45.97294" lon="4.7174">
        <ele>206.600006104</ele>
        <time>2015-08-11T08:32:56.481Z</time>
      </trkpt>
      <trkpt lat="45.97299" lon="4.71743">
        <ele>206.399993896</ele>
        <time>2015-08-11T08:32:57.447Z</time>
      </trkpt>
      <trkpt lat="45.97304" lon="4.71744">
        <ele>206.199996948</ele>
        <time>2015-08-11T08:32:58.476Z</time>
      </trkpt>
      <trkpt lat="45.97309" lon="4.71743">
        <ele>206.399993896</ele>
        <time>2015-08-11T08:32:59.446Z</time>
      </trkpt>
      <trkpt lat="45.97315" lon="4.7174">
        <ele>206.5</ele>
        <time>2015-08-11T08:33:00.48Z</time>
      </trkpt>
      <trkpt lat="45.9732" lon="4.71736">
        <ele>206.300003052</ele>
        <time>2015-08-11T08:33:01.465Z</time>
      </trkpt>
      <trkpt lat="45.97325" lon="4.71732">
        <ele>206.300003052</ele>
        <time>2015-08-11T08:33:02.484Z</time>
      </trkpt>
      <trkpt lat="45.9733" lon="4.71728">
        <ele>206</ele>
        <time>2015-08-11T08:33:03.462Z</time>
      </trkpt>
      <trkpt lat="45.97335" lon="4.71726">
        <ele>206</ele>
        <time>2015-08-11T08:33:04.48Z</time>
      </trkpt>
      <trkpt lat="45.97339" lon="4.71725">
        <ele>205.699996948</ele>
        <time>2015-08-11T08:33:05.432Z</time>
      </trkpt>
      <trkpt lat="45.97344" lon="4.71725">
        <ele>205.399993896</ele>
        <time>2015-08-11T08:33:06.483Z</time>
      </trkpt>
      <trkpt lat="45.97349" lon="4.71725">
        <ele>204.699996948</ele>
        <time>2015-08-11T08:33:07.444Z</time>
      </trkpt>
      <trkpt lat="45.97354" lon="4.71724">
        <ele>203</ele>
        <time>2015-08-11T08:33:08.477Z</time>
      </trkpt>
      <trkpt lat="45.97359" lon="4.7173">
        <ele>207.300003052</ele>
        <time>2015-08-11T08:33:09.437Z</time>
      </trkpt>
      <trkpt lat="45.97364" lon="4.71734">
        <ele>208.300003052</ele>
        <time>2015-08-11T08:33:10.493Z</time>
      </trkpt>
      <trkpt lat="45.97369" lon="4.71735">
        <ele>208.600006104</ele>
        <time>2015-08-11T08:33:11.442Z</time>
      </trkpt>
      <trkpt lat="45.97374" lon="4.71735">
        <ele>208.899993896</ele>
        <time>2015-08-11T08:33:12.48Z</time>
      </trkpt>
      <trkpt lat="45.9738" lon="4.71734">
        <ele>209.5</ele>
        <time>2015-08-11T08:33:13.466Z</time>
      </trkpt>
      <trkpt lat="45.97385" lon="4.71735">
        <ele>210.199996948</ele>
        <time>2015-08-11T08:33:14.534Z</time>
      </trkpt>
      <trkpt lat="45.97389" lon="4.71736">
        <ele>210.699996948</ele>
        <time>2015-08-11T08:33:15.432Z</time>
      </trkpt>
      <trkpt lat="45.97394" lon="4.71735">
        <ele>210.899993896</ele>
        <time>2015-08-11T08:33:16.48Z</time>
      </trkpt>
      <trkpt lat="45.97399" lon="4.71734">
        <ele>211.300003052</ele>
        <time>2015-08-11T08:33:17.438Z</time>
      </trkpt>
      <trkpt lat="45.97404" lon="4.71734">
        <ele>211.300003052</ele>
        <time>2015-08-11T08:33:18.559Z</time>
      </trkpt>
      <trkpt lat="45.9741" lon="4.71733">
        <ele>211.199996948</ele>
        <time>2015-08-11T08:33:19.446Z</time>
      </trkpt>
      <trkpt lat="45.97415" lon="4.71733">
        <ele>211</ele>
        <time>2015-08-11T08:33:20.624Z</time>
      </trkpt>
      <trkpt lat="45.97421" lon="4.7173">
        <ele>209.800003052</ele>
        <time>2015-08-11T08:33:21.446Z</time>
      </trkpt>
      <trkpt lat="45.97427" lon="4.71729">
        <ele>209.300003052</ele>
        <time>2015-08-11T08:33:22.504Z</time>
      </trkpt>
      <trkpt lat="45.97432" lon="4.71728">
        <ele>208.899993896</ele>
        <time>2015-08-11T08:33:23.84Z</time>
      </trkpt>
      <trkpt lat="45.97437" lon="4.71727">
        <ele>208.199996948</ele>
        <time>2015-08-11T08:33:24.483Z</time>
      </trkpt>
      <trkpt lat="45.97443" lon="4.71728">
        <ele>207.800003052</ele>
        <time>2015-08-11T08:33:25.463Z</time>
      </trkpt>
      <trkpt lat="45.97447" lon="4.71729">
        <ele>207.399993896</ele>
        <time>2015-08-11T08:33:26.482Z</time>
      </trkpt>
      <trkpt lat="45.97452" lon="4.71731">
        <ele>207</ele>
        <time>2015-08-11T08:33:27.455Z</time>
      </trkpt>
      <trkpt lat="45.97457" lon="4.7173">
        <ele>206.399993896</ele>
        <time>2015-08-11T08:33:28.501Z</time>
      </trkpt>
      <trkpt lat="45.97461" lon="4.7173">
        <ele>205.5</ele>
        <time>2015-08-11T08:33:29.446Z</time>
      </trkpt>
      <trkpt lat="45.97466" lon="4.7173">
        <ele>205</ele>
        <time>2015-08-11T08:33:30.475Z</time>
      </trkpt>
      <trkpt lat="45.97471" lon="4.71731">
        <ele>204.899993896</ele>
        <time>2015-08-11T08:33:31.449Z</time>
      </trkpt>
      <trkpt lat="45.97476" lon="4.71732">
        <ele>204.800003052</ele>
        <time>2015-08-11T08:33:32.477Z</time>
      </trkpt>
      <trkpt lat="45.97481" lon="4.71731">
        <ele>204.5</ele>
        <time>2015-08-11T08:33:33.471Z</time>
      </trkpt>
      <trkpt lat="45.97487" lon="4.71731">
        <ele>204.399993896</ele>
        <time>2015-08-11T08:33:34.491Z</time>
      </trkpt>
      <trkpt lat="45.97491" lon="4.71731">
        <ele>204.399993896</ele>
        <time>2015-08-11T08:33:35.442Z</time>
      </trkpt>
      <trkpt lat="45.97497" lon="4.71732">
        <ele>204.199996948</ele>
        <time>2015-08-11T08:33:36.481Z</time>
      </trkpt>
      <trkpt lat="45.97502" lon="4.71734">
        <ele>204.300003052</ele>
        <time>2015-08-11T08:33:37.447Z</time>
      </trkpt>
      <trkpt lat="45.97507" lon="4.71735">
        <ele>204.100006104</ele>
        <time>2015-08-11T08:33:38.533Z</time>
      </trkpt>
      <trkpt lat="45.97513" lon="4.71736">
        <ele>204.100006104</ele>
        <time>2015-08-11T08:33:39.447Z</time>
      </trkpt>
      <trkpt lat="45.97518" lon="4.71737">
        <ele>204.199996948</ele>
        <time>2015-08-11T08:33:40.48Z</time>
      </trkpt>
      <trkpt lat="45.97524" lon="4.71738">
        <ele>204</ele>
        <time>2015-08-11T08:33:41.443Z</time>
      </trkpt>
      <trkpt lat="45.97529" lon="4.71739">
        <ele>204.399993896</ele>
        <time>2015-08-11T08:33:42.476Z</time>
      </trkpt>
      <trkpt lat="45.97535" lon="4.7174">
        <ele>204.300003052</ele>
        <time>2015-08-11T08:33:43.47Z</time>
      </trkpt>
      <trkpt lat="45.9754" lon="4.7174">
        <ele>204.699996948</ele>
        <time>2015-08-11T08:33:44.481Z</time>
      </trkpt>
      <trkpt lat="45.97546" lon="4.71741">
        <ele>204.600006104</ele>
        <time>2015-08-11T08:33:45.446Z</time>
      </trkpt>
      <trkpt lat="45.97552" lon="4.71742">
        <ele>204.600006104</ele>
        <time>2015-08-11T08:33:46.477Z</time>
      </trkpt>
      <trkpt lat="45.97558" lon="4.71741">
        <ele>204.100006104</ele>
        <time>2015-08-11T08:33:47.444Z</time>
      </trkpt>
      <trkpt lat="45.97563" lon="4.71741">
        <ele>203.800003052</ele>
        <time>2015-08-11T08:33:48.475Z</time>
      </trkpt>
      <trkpt lat="45.97569" lon="4.71741">
        <ele>204.199996948</ele>
        <time>2015-08-11T08:33:49.437Z</time>
      </trkpt>
      <trkpt lat="45.97574" lon="4.71741">
        <ele>204.5</ele>
        <time>2015-08-11T08:33:50.476Z</time>
      </trkpt>
      <trkpt lat="45.9758" lon="4.71738">
        <ele>204.100006104</ele>
        <time>2015-08-11T08:33:51.445Z</time>
      </trkpt>
      <trkpt lat="45.97587" lon="4.71739">
        <ele>204.600006104</ele>
        <time>2015-08-11T08:33:52.476Z</time>
      </trkpt>
      <trkpt lat="45.97592" lon="4.7174">
        <ele>205.100006104</ele>
        <time>2015-08-11T08:33:53.47Z</time>
      </trkpt>
      <trkpt lat="45.97597" lon="4.71742">
        <ele>205</ele>
        <time>2015-08-11T08:33:54.497Z</time>
      </trkpt>
      <trkpt lat="45.97601" lon="4.71747">
        <ele>204.899993896</ele>
        <time>2015-08-11T08:33:55.447Z</time>
      </trkpt>
      <trkpt lat="45.97605" lon="4.71752">
        <ele>204.600006104</ele>
        <time>2015-08-11T08:33:56.48Z</time>
      </trkpt>
      <trkpt lat="45.9761" lon="4.71757">
        <ele>204.699996948</ele>
        <time>2015-08-11T08:33:57.437Z</time>
      </trkpt>
      <trkpt lat="45.97615" lon="4.71759">
        <ele>204.699996948</ele>
        <time>2015-08-11T08:33:58.477Z</time>
      </trkpt>
      <trkpt lat="45.97621" lon="4.7176">
        <ele>205.199996948</ele>
        <time>2015-08-11T08:33:59.445Z</time>
      </trkpt>
      <trkpt lat="45.97627" lon="4.71758">
        <ele>205.699996948</ele>
        <time>2015-08-11T08:34:00.48Z</time>
      </trkpt>
      <trkpt lat="45.97632" lon="4.71755">
        <ele>205.5</ele>
        <time>2015-08-11T08:34:01.447Z</time>
      </trkpt>
      <trkpt lat="45.97638" lon="4.71751">
        <ele>205.699996948</ele>
        <time>2015-08-11T08:34:02.481Z</time>
      </trkpt>
      <trkpt lat="45.97643" lon="4.71749">
        <ele>205.699996948</ele>
        <time>2015-08-11T08:34:03.474Z</time>
      </trkpt>
      <trkpt lat="45.97649" lon="4.71749">
        <ele>205.699996948</ele>
        <time>2015-08-11T08:34:04.488Z</time>
      </trkpt>
      <trkpt lat="45.97654" lon="4.7175">
        <ele>205.899993896</ele>
        <time>2015-08-11T08:34:05.444Z</time>
      </trkpt>
      <trkpt lat="45.9766" lon="4.71751">
        <ele>206.100006104</ele>
        <time>2015-08-11T08:34:06.482Z</time>
      </trkpt>
      <trkpt lat="45.97668" lon="4.71751">
        <ele>206.899993896</ele>
        <time>2015-08-11T08:34:07.451Z</time>
      </trkpt>
      <trkpt lat="45.97674" lon="4.71751">
        <ele>207.100006104</ele>
        <time>2015-08-11T08:34:08.489Z</time>
      </trkpt>
      <trkpt lat="45.9768" lon="4.71752">
        <ele>207.199996948</ele>
        <time>2015-08-11T08:34:09.443Z</time>
      </trkpt>
      <trkpt lat="45.97686" lon="4.71752">
        <ele>207.300003052</ele>
        <time>2015-08-11T08:34:10.48Z</time>
      </trkpt>
      <trkpt lat="45.97692" lon="4.71753">
        <ele>207.600006104</ele>
        <time>2015-08-11T08:34:11.432Z</time>
      </trkpt>
      <trkpt lat="45.97697" lon="4.71754">
        <ele>208</ele>
        <time>2015-08-11T08:34:12.489Z</time>
      </trkpt>
      <trkpt lat="45.97704" lon="4.71754">
        <ele>208</ele>
        <time>2015-08-11T08:34:13.477Z</time>
      </trkpt>
      <trkpt lat="45.9771" lon="4.71755">
        <ele>207.899993896</ele>
        <time>2015-08-11T08:34:14.477Z</time>
      </trkpt>
      <trkpt lat="45.97716" lon="4.71756">
        <ele>208.300003052</ele>
        <time>2015-08-11T08:34:15.428Z</time>
      </trkpt>
      <trkpt lat="45.97723" lon="4.71757">
        <ele>209</ele>
        <time>2015-08-11T08:34:16.477Z</time>
      </trkpt>
      <trkpt lat="45.97729" lon="4.71759">
        <ele>209.5</ele>
        <time>2015-08-11T08:34:17.444Z</time>
      </trkpt>
      <trkpt lat="45.97735" lon="4.7176">
        <ele>209.300003052</ele>
        <time>2015-08-11T08:34:18.476Z</time>
      </trkpt>
      <trkpt lat="45.97741" lon="4.7176">
        <ele>209.5</ele>
        <time>2015-08-11T08:34:19.447Z</time>
      </trkpt>
      <trkpt lat="45.97747" lon="4.71759">
        <ele>209.199996948</ele>
        <time>2015-08-11T08:34:20.481Z</time>
      </trkpt>
      <trkpt lat="45.97753" lon="4.7176">
        <ele>208.800003052</ele>
        <time>2015-08-11T08:34:21.444Z</time>
      </trkpt>
      <trkpt lat="45.97759" lon="4.7176">
        <ele>209.899993896</ele>
        <time>2015-08-11T08:34:22.538Z</time>
      </trkpt>
      <trkpt lat="45.97765" lon="4.71761">
        <ele>210.100006104</ele>
        <time>2015-08-11T08:34:23.473Z</time>
      </trkpt>
      <trkpt lat="45.97771" lon="4.71762">
        <ele>210.399993896</ele>
        <time>2015-08-11T08:34:24.477Z</time>
      </trkpt>
      <trkpt lat="45.97777" lon="4.71763">
        <ele>210.100006104</ele>
        <time>2015-08-11T08:34:25.445Z</time>
      </trkpt>
      <trkpt lat="45.97783" lon="4.71765">
        <ele>210.600006104</ele>
        <time>2015-08-11T08:34:26.477Z</time>
      </trkpt>
      <trkpt lat="45.9779" lon="4.71766">
        <ele>209.699996948</ele>
        <time>2015-08-11T08:34:27.444Z</time>
      </trkpt>
      <trkpt lat="45.97797" lon="4.71766">
        <ele>209.300003052</ele>
        <time>2015-08-11T08:34:28.479Z</time>
      </trkpt>
      <trkpt lat="45.97804" lon="4.71764">
        <ele>208.899993896</ele>
        <time>2015-08-11T08:34:29.432Z</time>
      </trkpt>
      <trkpt lat="45.97811" lon="4.71762">
        <ele>207.100006104</ele>
        <time>2015-08-11T08:34:30.481Z</time>
      </trkpt>
      <trkpt lat="45.97818" lon="4.7176">
        <ele>206.199996948</ele>
        <time>2015-08-11T08:34:31.432Z</time>
      </trkpt>
      <trkpt lat="45.97824" lon="4.71761">
        <ele>205</ele>
        <time>2015-08-11T08:34:32.499Z</time>
      </trkpt>
      <trkpt lat="45.9783" lon="4.71761">
        <ele>204.199996948</ele>
        <time>2015-08-11T08:34:33.495Z</time>
      </trkpt>
      <trkpt lat="45.97837" lon="4.71759">
        <ele>203.5</ele>
        <time>2015-08-11T08:34:34.478Z</time>
      </trkpt>
      <trkpt lat="45.97843" lon="4.7176">
        <ele>202.600006104</ele>
        <time>2015-08-11T08:34:35.448Z</time>
      </trkpt>
      <trkpt lat="45.97849" lon="4.71759">
        <ele>201.800003052</ele>
        <time>2015-08-11T08:34:36.499Z</time>
      </trkpt>
      <trkpt lat="45.97854" lon="4.71762">
        <ele>202.300003052</ele>
        <time>2015-08-11T08:34:37.446Z</time>
      </trkpt>
      <trkpt lat="45.97858" lon="4.71767">
        <ele>201.300003052</ele>
        <time>2015-08-11T08:34:38.476Z</time>
      </trkpt>
      <trkpt lat="45.97862" lon="4.71771">
        <ele>200.899993896</ele>
        <time>2015-08-11T08:34:39.428Z</time>
      </trkpt>
      <trkpt lat="45.97866" lon="4.71775">
        <ele>200.300003052</ele>
        <time>2015-08-11T08:34:40.521Z</time>
      </trkpt>
      <trkpt lat="45.97871" lon="4.71779">
        <ele>199.399993896</ele>
        <time>2015-08-11T08:34:41.446Z</time>
      </trkpt>
      <trkpt lat="45.97877" lon="4.71781">
        <ele>199</ele>
        <time>2015-08-11T08:34:42.477Z</time>
      </trkpt>
      <trkpt lat="45.97882" lon="4.71783">
        <ele>199.199996948</ele>
        <time>2015-08-11T08:34:43.479Z</time>
      </trkpt>
      <trkpt lat="45.97887" lon="4.71782">
        <ele>199.699996948</ele>
        <time>2015-08-11T08:34:44.476Z</time>
      </trkpt>
      <trkpt lat="45.97892" lon="4.71779">
        <ele>200.5</ele>
        <time>2015-08-11T08:34:45.445Z</time>
      </trkpt>
      <trkpt lat="45.97897" lon="4.71775">
        <ele>200.699996948</ele>
        <time>2015-08-11T08:34:46.477Z</time>
      </trkpt>
      <trkpt lat="45.97901" lon="4.71769">
        <ele>200.699996948</ele>
        <time>2015-08-11T08:34:47.433Z</time>
      </trkpt>
      <trkpt lat="45.97903" lon="4.71763">
        <ele>201.300003052</ele>
        <time>2015-08-11T08:34:48.477Z</time>
      </trkpt>
      <trkpt lat="45.97905" lon="4.71757">
        <ele>201.100006104</ele>
        <time>2015-08-11T08:34:49.445Z</time>
      </trkpt>
      <trkpt lat="45.97906" lon="4.71749">
        <ele>201.800003052</ele>
        <time>2015-08-11T08:34:50.48Z</time>
      </trkpt>
      <trkpt lat="45.97905" lon="4.71741">
        <ele>202.399993896</ele>
        <time>2015-08-11T08:34:51.444Z</time>
      </trkpt>
      <trkpt lat="45.97905" lon="4.71732">
        <ele>202.5</ele>
        <time>2015-08-11T08:34:52.493Z</time>
      </trkpt>
      <trkpt lat="45.97905" lon="4.71723">
        <ele>202.699996948</ele>
        <time>2015-08-11T08:34:53.481Z</time>
      </trkpt>
      <trkpt lat="45.97906" lon="4.71714">
        <ele>203.100006104</ele>
        <time>2015-08-11T08:34:54.486Z</time>
      </trkpt>
      <trkpt lat="45.97909" lon="4.71707">
        <ele>203.5</ele>
        <time>2015-08-11T08:34:55.445Z</time>
      </trkpt>
      <trkpt lat="45.97913" lon="4.717">
        <ele>203.699996948</ele>
        <time>2015-08-11T08:34:56.48Z</time>
      </trkpt>
      <trkpt lat="45.97917" lon="4.71694">
        <ele>203.899993896</ele>
        <time>2015-08-11T08:34:57.432Z</time>
      </trkpt>
      <trkpt lat="45.97922" lon="4.7169">
        <ele>204.199996948</ele>
        <time>2015-08-11T08:34:58.527Z</time>
      </trkpt>
      <trkpt lat="45.97927" lon="4.71686">
        <ele>204.600006104</ele>
        <time>2015-08-11T08:34:59.443Z</time>
      </trkpt>
      <trkpt lat="45.97932" lon="4.71681">
        <ele>205.100006104</ele>
        <time>2015-08-11T08:35:00.48Z</time>
      </trkpt>
      <trkpt lat="45.97937" lon="4.71677">
        <ele>205.399993896</ele>
        <time>2015-08-11T08:35:01.485Z</time>
      </trkpt>
      <trkpt lat="45.97942" lon="4.71673">
        <ele>205.800003052</ele>
        <time>2015-08-11T08:35:02.479Z</time>
      </trkpt>
      <trkpt lat="45.97947" lon="4.71669">
        <ele>206.100006104</ele>
        <time>2015-08-11T08:35:03.483Z</time>
      </trkpt>
      <trkpt lat="45.97952" lon="4.71666">
        <ele>206.399993896</ele>
        <time>2015-08-11T08:35:04.477Z</time>
      </trkpt>
      <trkpt lat="45.97956" lon="4.71661">
        <ele>206.600006104</ele>
        <time>2015-08-11T08:35:05.444Z</time>
      </trkpt>
      <trkpt lat="45.9796" lon="4.71658">
        <ele>206.899993896</ele>
        <time>2015-08-11T08:35:06.48Z</time>
      </trkpt>
      <trkpt lat="45.97965" lon="4.71654">
        <ele>207.199996948</ele>
        <time>2015-08-11T08:35:07.434Z</time>
      </trkpt>
      <trkpt lat="45.97969" lon="4.7165">
        <ele>207.199996948</ele>
        <time>2015-08-11T08:35:08.498Z</time>
      </trkpt>
      <trkpt lat="45.97973" lon="4.71647">
        <ele>207.300003052</ele>
        <time>2015-08-11T08:35:09.444Z</time>
      </trkpt>
      <trkpt lat="45.97977" lon="4.71644">
        <ele>207.300003052</ele>
        <time>2015-08-11T08:35:10.563Z</time>
      </trkpt>
      <trkpt lat="45.97982" lon="4.71641">
        <ele>207.5</ele>
        <time>2015-08-11T08:35:11.446Z</time>
      </trkpt>
      <trkpt lat="45.97986" lon="4.71638">
        <ele>207.600006104</ele>
        <time>2015-08-11T08:35:12.481Z</time>
      </trkpt>
      <trkpt lat="45.97991" lon="4.71634">
        <ele>207.5</ele>
        <time>2015-08-11T08:35:13.486Z</time>
      </trkpt>
      <trkpt lat="45.97996" lon="4.71631">
        <ele>207.600006104</ele>
        <time>2015-08-11T08:35:14.479Z</time>
      </trkpt>
      <trkpt lat="45.98" lon="4.71627">
        <ele>207.800003052</ele>
        <time>2015-08-11T08:35:15.445Z</time>
      </trkpt>
      <trkpt lat="45.98005" lon="4.71625">
        <ele>207.800003052</ele>
        <time>2015-08-11T08:35:16.481Z</time>
      </trkpt>
      <trkpt lat="45.9801" lon="4.71622">
        <ele>207.899993896</ele>
        <time>2015-08-11T08:35:17.444Z</time>
      </trkpt>
      <trkpt lat="45.98014" lon="4.71618">
        <ele>208.199996948</ele>
        <time>2015-08-11T08:35:18.479Z</time>
      </trkpt>
      <trkpt lat="45.98019" lon="4.71615">
        <ele>208.399993896</ele>
        <time>2015-08-11T08:35:19.425Z</time>
      </trkpt>
      <trkpt lat="45.98023" lon="4.71611">
        <ele>208.5</ele>
        <time>2015-08-11T08:35:20.475Z</time>
      </trkpt>
      <trkpt lat="45.98027" lon="4.71608">
        <ele>208.800003052</ele>
        <time>2015-08-11T08:35:21.442Z</time>
      </trkpt>
      <trkpt lat="45.98032" lon="4.71605">
        <ele>209.100006104</ele>
        <time>2015-08-11T08:35:22.48Z</time>
      </trkpt>
      <trkpt lat="45.98035" lon="4.71601">
        <ele>209.5</ele>
        <time>2015-08-11T08:35:23.477Z</time>
      </trkpt>
      <trkpt lat="45.98039" lon="4.71598">
        <ele>209.800003052</ele>
        <time>2015-08-11T08:35:24.496Z</time>
      </trkpt>
      <trkpt lat="45.98044" lon="4.71595">
        <ele>210</ele>
        <time>2015-08-11T08:35:25.444Z</time>
      </trkpt>
      <trkpt lat="45.98049" lon="4.71592">
        <ele>210.199996948</ele>
        <time>2015-08-11T08:35:26.476Z</time>
      </trkpt>
      <trkpt lat="45.98053" lon="4.71589">
        <ele>210.899993896</ele>
        <time>2015-08-11T08:35:27.447Z</time>
      </trkpt>
      <trkpt lat="45.98058" lon="4.71586">
        <ele>211.300003052</ele>
        <time>2015-08-11T08:35:28.476Z</time>
      </trkpt>
      <trkpt lat="45.98062" lon="4.71582">
        <ele>211.600006104</ele>
        <time>2015-08-11T08:35:29.444Z</time>
      </trkpt>
      <trkpt lat="45.98066" lon="4.71579">
        <ele>212.5</ele>
        <time>2015-08-11T08:35:30.477Z</time>
      </trkpt>
      <trkpt lat="45.98071" lon="4.71575">
        <ele>212.899993896</ele>
        <time>2015-08-11T08:35:31.447Z</time>
      </trkpt>
      <trkpt lat="45.98076" lon="4.71572">
        <ele>213.300003052</ele>
        <time>2015-08-11T08:35:32.479Z</time>
      </trkpt>
      <trkpt lat="45.98081" lon="4.71568">
        <ele>213.600006104</ele>
        <time>2015-08-11T08:35:33.48Z</time>
      </trkpt>
      <trkpt lat="45.98086" lon="4.71564">
        <ele>213.600006104</ele>
        <time>2015-08-11T08:35:34.477Z</time>
      </trkpt>
      <trkpt lat="45.9809" lon="4.71558">
        <ele>213.899993896</ele>
        <time>2015-08-11T08:35:35.443Z</time>
      </trkpt>
      <trkpt lat="45.98092" lon="4.71552">
        <ele>214.300003052</ele>
        <time>2015-08-11T08:35:36.486Z</time>
      </trkpt>
      <trkpt lat="45.98096" lon="4.71548">
        <ele>214.800003052</ele>
        <time>2015-08-11T08:35:37.445Z</time>
      </trkpt>
      <trkpt lat="45.98103" lon="4.7154">
        <ele>216.100006104</ele>
        <time>2015-08-11T08:35:39.489Z</time>
      </trkpt>
      <trkpt lat="45.98108" lon="4.71537">
        <ele>216.399993896</ele>
        <time>2015-08-11T08:35:40.445Z</time>
      </trkpt>
      <trkpt lat="45.98113" lon="4.71534">
        <ele>216.899993896</ele>
        <time>2015-08-11T08:35:41.479Z</time>
      </trkpt>
      <trkpt lat="45.98119" lon="4.71532">
        <ele>217.399993896</ele>
        <time>2015-08-11T08:35:42.444Z</time>
      </trkpt>
      <trkpt lat="45.98126" lon="4.71529">
        <ele>218</ele>
        <time>2015-08-11T08:35:43.521Z</time>
      </trkpt>
      <trkpt lat="45.98132" lon="4.71526">
        <ele>218.399993896</ele>
        <time>2015-08-11T08:35:44.442Z</time>
      </trkpt>
      <trkpt lat="45.98138" lon="4.71522">
        <ele>218.800003052</ele>
        <time>2015-08-11T08:35:45.477Z</time>
      </trkpt>
      <trkpt lat="45.98144" lon="4.71519">
        <ele>219.199996948</ele>
        <time>2015-08-11T08:35:46.443Z</time>
      </trkpt>
      <trkpt lat="45.9815" lon="4.71515">
        <ele>219.300003052</ele>
        <time>2015-08-11T08:35:47.514Z</time>
      </trkpt>
      <trkpt lat="45.98157" lon="4.71512">
        <ele>218.199996948</ele>
        <time>2015-08-11T08:35:48.443Z</time>
      </trkpt>
      <trkpt lat="45.98164" lon="4.71509">
        <ele>216.800003052</ele>
        <time>2015-08-11T08:35:49.489Z</time>
      </trkpt>
      <trkpt lat="45.98171" lon="4.71508">
        <ele>216.199996948</ele>
        <time>2015-08-11T08:35:50.452Z</time>
      </trkpt>
      <trkpt lat="45.98178" lon="4.71508">
        <ele>215</ele>
        <time>2015-08-11T08:35:51.478Z</time>
      </trkpt>
      <trkpt lat="45.98185" lon="4.71508">
        <ele>214.5</ele>
        <time>2015-08-11T08:35:52.445Z</time>
      </trkpt>
      <trkpt lat="45.98192" lon="4.71508">
        <ele>214</ele>
        <time>2015-08-11T08:35:53.517Z</time>
      </trkpt>
      <trkpt lat="45.98198" lon="4.71509">
        <ele>213.600006104</ele>
        <time>2015-08-11T08:35:54.438Z</time>
      </trkpt>
      <trkpt lat="45.98204" lon="4.7151">
        <ele>213.199996948</ele>
        <time>2015-08-11T08:35:55.479Z</time>
      </trkpt>
      <trkpt lat="45.9821" lon="4.71512">
        <ele>212.600006104</ele>
        <time>2015-08-11T08:35:56.432Z</time>
      </trkpt>
      <trkpt lat="45.98217" lon="4.71513">
        <ele>212.100006104</ele>
        <time>2015-08-11T08:35:57.533Z</time>
      </trkpt>
      <trkpt lat="45.98224" lon="4.71514">
        <ele>211.899993896</ele>
        <time>2015-08-11T08:35:58.454Z</time>
      </trkpt>
      <trkpt lat="45.98228" lon="4.71519">
        <ele>211.300003052</ele>
        <time>2015-08-11T08:35:59.514Z</time>
      </trkpt>
      <trkpt lat="45.98233" lon="4.71522">
        <ele>211</ele>
        <time>2015-08-11T08:36:00.445Z</time>
      </trkpt>
      <trkpt lat="45.98238" lon="4.71522">
        <ele>210.600006104</ele>
        <time>2015-08-11T08:36:01.501Z</time>
      </trkpt>
      <trkpt lat="45.98243" lon="4.71523">
        <ele>210.5</ele>
        <time>2015-08-11T08:36:02.456Z</time>
      </trkpt>
      <trkpt lat="45.98247" lon="4.71524">
        <ele>210.399993896</ele>
        <time>2015-08-11T08:36:03.521Z</time>
      </trkpt>
      <trkpt lat="45.98252" lon="4.71526">
        <ele>210.300003052</ele>
        <time>2015-08-11T08:36:04.444Z</time>
      </trkpt>
      <trkpt lat="45.98252" lon="4.71526">
        <ele>210.300003052</ele>
        <time>2015-08-11T08:36:04.505Z</time>
      </trkpt>
      <trkpt lat="45.98259" lon="4.71534">
        <ele>210</ele>
        <time>2015-08-11T08:36:05.44Z</time>
      </trkpt>
      <trkpt lat="45.98264" lon="4.71538">
        <ele>210.100006104</ele>
        <time>2015-08-11T08:36:06.478Z</time>
      </trkpt>
      <trkpt lat="45.9827" lon="4.71542">
        <ele>209.899993896</ele>
        <time>2015-08-11T08:36:07.447Z</time>
      </trkpt>
      <trkpt lat="45.98275" lon="4.71546">
        <ele>209.899993896</ele>
        <time>2015-08-11T08:36:08.48Z</time>
      </trkpt>
      <trkpt lat="45.98281" lon="4.7155">
        <ele>209.699996948</ele>
        <time>2015-08-11T08:36:09.446Z</time>
      </trkpt>
      <trkpt lat="45.98286" lon="4.71558">
        <ele>209.699996948</ele>
        <time>2015-08-11T08:36:10.87Z</time>
      </trkpt>
      <trkpt lat="45.98291" lon="4.71563">
        <ele>210</ele>
        <time>2015-08-11T08:36:11.439Z</time>
      </trkpt>
      <trkpt lat="45.98296" lon="4.71568">
        <ele>210.100006104</ele>
        <time>2015-08-11T08:36:12.482Z</time>
      </trkpt>
      <trkpt lat="45.98303" lon="4.71571">
        <ele>210.300003052</ele>
        <time>2015-08-11T08:36:13.519Z</time>
      </trkpt>
      <trkpt lat="45.98309" lon="4.71575">
        <ele>210.5</ele>
        <time>2015-08-11T08:36:14.513Z</time>
      </trkpt>
      <trkpt lat="45.98314" lon="4.71578">
        <ele>210.699996948</ele>
        <time>2015-08-11T08:36:15.469Z</time>
      </trkpt>
      <trkpt lat="45.98322" lon="4.71581">
        <ele>210.699996948</ele>
        <time>2015-08-11T08:36:16.492Z</time>
      </trkpt>
      <trkpt lat="45.98324" lon="4.71585">
        <ele>212</ele>
        <time>2015-08-11T08:36:17.445Z</time>
      </trkpt>
      <trkpt lat="45.98328" lon="4.71587">
        <ele>212.199996948</ele>
        <time>2015-08-11T08:36:18.493Z</time>
      </trkpt>
      <trkpt lat="45.98333" lon="4.71591">
        <ele>212.199996948</ele>
        <time>2015-08-11T08:36:19.454Z</time>
      </trkpt>
      <trkpt lat="45.98337" lon="4.71595">
        <ele>212.100006104</ele>
        <time>2015-08-11T08:36:20.48Z</time>
      </trkpt>
      <trkpt lat="45.98339" lon="4.716">
        <ele>212</ele>
        <time>2015-08-11T08:36:21.453Z</time>
      </trkpt>
      <trkpt lat="45.98346" lon="4.71604">
        <ele>212</ele>
        <time>2015-08-11T08:36:22.543Z</time>
      </trkpt>
      <trkpt lat="45.98351" lon="4.71608">
        <ele>211.899993896</ele>
        <time>2015-08-11T08:36:23.459Z</time>
      </trkpt>
      <trkpt lat="45.98358" lon="4.71609">
        <ele>211.699996948</ele>
        <time>2015-08-11T08:36:24.479Z</time>
      </trkpt>
      <trkpt lat="45.98364" lon="4.7161">
        <ele>211.5</ele>
        <time>2015-08-11T08:36:25.432Z</time>
      </trkpt>
      <trkpt lat="45.98371" lon="4.71611">
        <ele>210.600006104</ele>
        <time>2015-08-11T08:36:26.478Z</time>
      </trkpt>
      <trkpt lat="45.98377" lon="4.71608">
        <ele>209.600006104</ele>
        <time>2015-08-11T08:36:27.445Z</time>
      </trkpt>
      <trkpt lat="45.98384" lon="4.71604">
        <ele>208.699996948</ele>
        <time>2015-08-11T08:36:28.484Z</time>
      </trkpt>
      <trkpt lat="45.98389" lon="4.71601">
        <ele>208.100006104</ele>
        <time>2015-08-11T08:36:29.44Z</time>
      </trkpt>
      <trkpt lat="45.98395" lon="4.71597">
        <ele>207.800003052</ele>
        <time>2015-08-11T08:36:30.498Z</time>
      </trkpt>
      <trkpt lat="45.984" lon="4.71592">
        <ele>207.5</ele>
        <time>2015-08-11T08:36:31.445Z</time>
      </trkpt>
      <trkpt lat="45.98405" lon="4.71585">
        <ele>207.199996948</ele>
        <time>2015-08-11T08:36:32.479Z</time>
      </trkpt>
      <trkpt lat="45.9841" lon="4.71582">
        <ele>206.899993896</ele>
        <time>2015-08-11T08:36:33.431Z</time>
      </trkpt>
      <trkpt lat="45.98415" lon="4.71576">
        <ele>205.699996948</ele>
        <time>2015-08-11T08:36:34.478Z</time>
      </trkpt>
      <trkpt lat="45.98421" lon="4.71571">
        <ele>205.100006104</ele>
        <time>2015-08-11T08:36:35.443Z</time>
      </trkpt>
      <trkpt lat="45.98426" lon="4.71565">
        <ele>204.699996948</ele>
        <time>2015-08-11T08:36:36.546Z</time>
      </trkpt>
      <trkpt lat="45.98431" lon="4.71559">
        <ele>204.300003052</ele>
        <time>2015-08-11T08:36:37.478Z</time>
      </trkpt>
      <trkpt lat="45.98436" lon="4.71554">
        <ele>204</ele>
        <time>2015-08-11T08:36:38.495Z</time>
      </trkpt>
      <trkpt lat="45.98441" lon="4.71549">
        <ele>203.800003052</ele>
        <time>2015-08-11T08:36:39.444Z</time>
      </trkpt>
      <trkpt lat="45.98445" lon="4.71546">
        <ele>203.600006104</ele>
        <time>2015-08-11T08:36:40.523Z</time>
      </trkpt>
      <trkpt lat="45.98451" lon="4.71545">
        <ele>203.600006104</ele>
        <time>2015-08-11T08:36:41.444Z</time>
      </trkpt>
      <trkpt lat="45.98455" lon="4.71543">
        <ele>203.5</ele>
        <time>2015-08-11T08:36:42.483Z</time>
      </trkpt>
      <trkpt lat="45.98461" lon="4.71541">
        <ele>203.300003052</ele>
        <time>2015-08-11T08:36:43.467Z</time>
      </trkpt>
      <trkpt lat="45.98467" lon="4.7154">
        <ele>203.199996948</ele>
        <time>2015-08-11T08:36:44.479Z</time>
      </trkpt>
      <trkpt lat="45.98474" lon="4.71538">
        <ele>203.199996948</ele>
        <time>2015-08-11T08:36:45.446Z</time>
      </trkpt>
      <trkpt lat="45.9848" lon="4.71538">
        <ele>203.100006104</ele>
        <time>2015-08-11T08:36:46.477Z</time>
      </trkpt>
      <trkpt lat="45.98486" lon="4.71536">
        <ele>203</ele>
        <time>2015-08-11T08:36:47.444Z</time>
      </trkpt>
      <trkpt lat="45.98492" lon="4.71536">
        <ele>202.800003052</ele>
        <time>2015-08-11T08:36:48.48Z</time>
      </trkpt>
      <trkpt lat="45.98498" lon="4.71532">
        <ele>202.699996948</ele>
        <time>2015-08-11T08:36:49.494Z</time>
      </trkpt>
      <trkpt lat="45.98504" lon="4.7153">
        <ele>202</ele>
        <time>2015-08-11T08:36:50.51Z</time>
      </trkpt>
      <trkpt lat="45.9851" lon="4.71529">
        <ele>201.300003052</ele>
        <time>2015-08-11T08:36:51.445Z</time>
      </trkpt>
      <trkpt lat="45.98517" lon="4.71527">
        <ele>201.100006104</ele>
        <time>2015-08-11T08:36:52.496Z</time>
      </trkpt>
      <trkpt lat="45.98524" lon="4.71525">
        <ele>201.100006104</ele>
        <time>2015-08-11T08:36:53.446Z</time>
      </trkpt>
      <trkpt lat="45.98531" lon="4.71523">
        <ele>202.100006104</ele>
        <time>2015-08-11T08:36:54.482Z</time>
      </trkpt>
      <trkpt lat="45.98537" lon="4.71522">
        <ele>202.300003052</ele>
        <time>2015-08-11T08:36:55.44Z</time>
      </trkpt>
      <trkpt lat="45.98544" lon="4.7152">
        <ele>202.600006104</ele>
        <time>2015-08-11T08:36:56.831Z</time>
      </trkpt>
      <trkpt lat="45.9855" lon="4.71517">
        <ele>203</ele>
        <time>2015-08-11T08:36:57.446Z</time>
      </trkpt>
      <trkpt lat="45.98556" lon="4.71517">
        <ele>203.399993896</ele>
        <time>2015-08-11T08:36:58.482Z</time>
      </trkpt>
      <trkpt lat="45.98561" lon="4.71516">
        <ele>203.800003052</ele>
        <time>2015-08-11T08:36:59.462Z</time>
      </trkpt>
      <trkpt lat="45.98568" lon="4.71516">
        <ele>204.5</ele>
        <time>2015-08-11T08:37:00.805Z</time>
      </trkpt>
      <trkpt lat="45.98573" lon="4.71515">
        <ele>204.899993896</ele>
        <time>2015-08-11T08:37:01.476Z</time>
      </trkpt>
      <trkpt lat="45.98579" lon="4.71514">
        <ele>205.100006104</ele>
        <time>2015-08-11T08:37:02.55Z</time>
      </trkpt>
      <trkpt lat="45.98586" lon="4.71512">
        <ele>205.699996948</ele>
        <time>2015-08-11T08:37:03.568Z</time>
      </trkpt>
      <trkpt lat="45.98592" lon="4.71513">
        <ele>206.699996948</ele>
        <time>2015-08-11T08:37:05.544Z</time>
      </trkpt>
      <trkpt lat="45.98596" lon="4.71514">
        <ele>207.100006104</ele>
        <time>2015-08-11T08:37:06.466Z</time>
      </trkpt>
      <trkpt lat="45.98602" lon="4.71517">
        <ele>208.199996948</ele>
        <time>2015-08-11T08:37:08.506Z</time>
      </trkpt>
      <trkpt lat="45.98606" lon="4.71519">
        <ele>208.800003052</ele>
        <time>2015-08-11T08:37:09.506Z</time>
      </trkpt>
      <trkpt lat="45.98606" lon="4.71519">
        <ele>208.800003052</ele>
        <time>2015-08-11T08:37:09.728Z</time>
      </trkpt>
      <trkpt lat="45.98616" lon="4.71522">
        <ele>209.5</ele>
        <time>2015-08-11T08:37:10.44Z</time>
      </trkpt>
      <trkpt lat="45.98622" lon="4.71523">
        <ele>210.100006104</ele>
        <time>2015-08-11T08:37:11.498Z</time>
      </trkpt>
      <trkpt lat="45.98627" lon="4.71523">
        <ele>210.699996948</ele>
        <time>2015-08-11T08:37:12.452Z</time>
      </trkpt>
      <trkpt lat="45.98636" lon="4.71521">
        <ele>212.199996948</ele>
        <time>2015-08-11T08:37:14.485Z</time>
      </trkpt>
      <trkpt lat="45.98638" lon="4.7152">
        <ele>212.800003052</ele>
        <time>2015-08-11T08:37:15.451Z</time>
      </trkpt>
      <trkpt lat="45.98646" lon="4.71515">
        <ele>213.800003052</ele>
        <time>2015-08-11T08:37:18.48Z</time>
      </trkpt>
      <trkpt lat="45.98647" lon="4.71513">
        <ele>214.100006104</ele>
        <time>2015-08-11T08:37:19.454Z</time>
      </trkpt>
      <trkpt lat="45.98647" lon="4.71513">
        <ele>214.100006104</ele>
        <time>2015-08-11T08:37:19.52Z</time>
      </trkpt>
      <trkpt lat="45.98648" lon="4.71513">
        <ele>214.5</ele>
        <time>2015-08-11T08:37:20.451Z</time>
      </trkpt>
      <trkpt lat="45.98648" lon="4.71513">
        <ele>214.5</ele>
        <time>2015-08-11T08:37:20.486Z</time>
      </trkpt>
      <trkpt lat="45.98647" lon="4.71511">
        <ele>214.899993896</ele>
        <time>2015-08-11T08:37:21.445Z</time>
      </trkpt>
      <trkpt lat="45.98648" lon="4.715">
        <ele>216.199996948</ele>
        <time>2015-08-11T08:37:23.512Z</time>
      </trkpt>
      <trkpt lat="45.98649" lon="4.71498">
        <ele>216.899993896</ele>
        <time>2015-08-11T08:37:24.451Z</time>
      </trkpt>
      <trkpt lat="45.98655" lon="4.71492">
        <ele>220.5</ele>
        <time>2015-08-11T08:37:31.517Z</time>
      </trkpt>
      <trkpt lat="45.98658" lon="4.71489">
        <ele>220.199996948</ele>
        <time>2015-08-11T08:37:32.485Z</time>
      </trkpt>
      <trkpt lat="45.98658" lon="4.71489">
        <ele>220.199996948</ele>
        <time>2015-08-11T08:37:32.535Z</time>
      </trkpt>
      <trkpt lat="45.98662" lon="4.7149">
        <ele>220.399993896</ele>
        <time>2015-08-11T08:37:34.504Z</time>
      </trkpt>
      <trkpt lat="45.98663" lon="4.71491">
        <ele>220.699996948</ele>
        <time>2015-08-11T08:37:35.464Z</time>
      </trkpt>
      <trkpt lat="45.9867" lon="4.71498">
        <ele>221.199996948</ele>
        <time>2015-08-11T08:37:37.534Z</time>
      </trkpt>
      <trkpt lat="45.98678" lon="4.71494">
        <ele>222.199996948</ele>
        <time>2015-08-11T08:37:38.451Z</time>
      </trkpt>
      <trkpt lat="45.98678" lon="4.71494">
        <ele>222.199996948</ele>
        <time>2015-08-11T08:37:38.501Z</time>
      </trkpt>
      <trkpt lat="45.98688" lon="4.71498">
        <ele>215.800003052</ele>
        <time>2015-08-11T08:37:39.451Z</time>
      </trkpt>
      <trkpt lat="45.98696" lon="4.715">
        <ele>213.199996948</ele>
        <time>2015-08-11T08:37:40.537Z</time>
      </trkpt>
      <trkpt lat="45.98705" lon="4.71504">
        <ele>212.5</ele>
        <time>2015-08-11T08:37:41.448Z</time>
      </trkpt>
      <trkpt lat="45.98712" lon="4.71505">
        <ele>212.399993896</ele>
        <time>2015-08-11T08:37:42.517Z</time>
      </trkpt>
      <trkpt lat="45.9872" lon="4.71506">
        <ele>212.100006104</ele>
        <time>2015-08-11T08:37:43.455Z</time>
      </trkpt>
      <trkpt lat="45.98727" lon="4.71506">
        <ele>211.800003052</ele>
        <time>2015-08-11T08:37:44.477Z</time>
      </trkpt>
      <trkpt lat="45.98734" lon="4.71506">
        <ele>211.600006104</ele>
        <time>2015-08-11T08:37:45.446Z</time>
      </trkpt>
      <trkpt lat="45.98741" lon="4.71508">
        <ele>211.5</ele>
        <time>2015-08-11T08:37:46.478Z</time>
      </trkpt>
      <trkpt lat="45.98747" lon="4.71511">
        <ele>211.300003052</ele>
        <time>2015-08-11T08:37:47.447Z</time>
      </trkpt>
      <trkpt lat="45.98755" lon="4.7151">
        <ele>211.300003052</ele>
        <time>2015-08-11T08:37:48.482Z</time>
      </trkpt>
      <trkpt lat="45.98763" lon="4.71508">
        <ele>211.199996948</ele>
        <time>2015-08-11T08:37:49.447Z</time>
      </trkpt>
      <trkpt lat="45.9877" lon="4.71509">
        <ele>211.199996948</ele>
        <time>2015-08-11T08:37:50.508Z</time>
      </trkpt>
      <trkpt lat="45.98775" lon="4.7151">
        <ele>211.100006104</ele>
        <time>2015-08-11T08:37:51.448Z</time>
      </trkpt>
      <trkpt lat="45.98782" lon="4.71511">
        <ele>210.800003052</ele>
        <time>2015-08-11T08:37:52.48Z</time>
      </trkpt>
      <trkpt lat="45.98788" lon="4.71511">
        <ele>210.399993896</ele>
        <time>2015-08-11T08:37:53.445Z</time>
      </trkpt>
      <trkpt lat="45.98795" lon="4.71512">
        <ele>209.800003052</ele>
        <time>2015-08-11T08:37:54.48Z</time>
      </trkpt>
      <trkpt lat="45.98801" lon="4.71512">
        <ele>210.300003052</ele>
        <time>2015-08-11T08:37:55.448Z</time>
      </trkpt>
      <trkpt lat="45.98807" lon="4.71513">
        <ele>210</ele>
        <time>2015-08-11T08:37:56.479Z</time>
      </trkpt>
      <trkpt lat="45.98813" lon="4.71513">
        <ele>210</ele>
        <time>2015-08-11T08:37:57.45Z</time>
      </trkpt>
      <trkpt lat="45.9882" lon="4.71514">
        <ele>209.5</ele>
        <time>2015-08-11T08:37:58.855Z</time>
      </trkpt>
      <trkpt lat="45.98826" lon="4.71513">
        <ele>208.800003052</ele>
        <time>2015-08-11T08:37:59.494Z</time>
      </trkpt>
      <trkpt lat="45.98831" lon="4.71513">
        <ele>208.399993896</ele>
        <time>2015-08-11T08:38:00.483Z</time>
      </trkpt>
      <trkpt lat="45.98836" lon="4.71513">
        <ele>208</ele>
        <time>2015-08-11T08:38:01.449Z</time>
      </trkpt>
      <trkpt lat="45.98841" lon="4.71514">
        <ele>208.100006104</ele>
        <time>2015-08-11T08:38:02.56Z</time>
      </trkpt>
      <trkpt lat="45.98848" lon="4.71513">
        <ele>207</ele>
        <time>2015-08-11T08:38:03.462Z</time>
      </trkpt>
      <trkpt lat="45.98853" lon="4.71514">
        <ele>206.899993896</ele>
        <time>2015-08-11T08:38:04.636Z</time>
      </trkpt>
      <trkpt lat="45.98858" lon="4.71513">
        <ele>206.399993896</ele>
        <time>2015-08-11T08:38:05.454Z</time>
      </trkpt>
      <trkpt lat="45.98862" lon="4.71512">
        <ele>206.5</ele>
        <time>2015-08-11T08:38:06.492Z</time>
      </trkpt>
      <trkpt lat="45.98867" lon="4.7151">
        <ele>206.699996948</ele>
        <time>2015-08-11T08:38:07.452Z</time>
      </trkpt>
      <trkpt lat="45.98871" lon="4.71508">
        <ele>206.699996948</ele>
        <time>2015-08-11T08:38:08.484Z</time>
      </trkpt>
      <trkpt lat="45.98877" lon="4.71506">
        <ele>206.600006104</ele>
        <time>2015-08-11T08:38:09.452Z</time>
      </trkpt>
      <trkpt lat="45.98882" lon="4.71504">
        <ele>206.399993896</ele>
        <time>2015-08-11T08:38:10.485Z</time>
      </trkpt>
      <trkpt lat="45.98887" lon="4.71506">
        <ele>206.300003052</ele>
        <time>2015-08-11T08:38:11.464Z</time>
      </trkpt>
      <trkpt lat="45.98894" lon="4.71508">
        <ele>206.5</ele>
        <time>2015-08-11T08:38:12.494Z</time>
      </trkpt>
      <trkpt lat="45.98899" lon="4.71509">
        <ele>205.800003052</ele>
        <time>2015-08-11T08:38:13.454Z</time>
      </trkpt>
      <trkpt lat="45.98903" lon="4.71514">
        <ele>205.5</ele>
        <time>2015-08-11T08:38:14.56Z</time>
      </trkpt>
      <trkpt lat="45.98908" lon="4.71514">
        <ele>205.199996948</ele>
        <time>2015-08-11T08:38:15.583Z</time>
      </trkpt>
      <trkpt lat="45.98915" lon="4.71519">
        <ele>205.100006104</ele>
        <time>2015-08-11T08:38:17.492Z</time>
      </trkpt>
      <trkpt lat="45.98919" lon="4.71521">
        <ele>205</ele>
        <time>2015-08-11T08:38:18.514Z</time>
      </trkpt>
      <trkpt lat="45.98927" lon="4.71522">
        <ele>204.199996948</ele>
        <time>2015-08-11T08:38:20.537Z</time>
      </trkpt>
      <trkpt lat="45.98932" lon="4.71521">
        <ele>202.300003052</ele>
        <time>2015-08-11T08:38:21.456Z</time>
      </trkpt>
      <trkpt lat="45.98938" lon="4.71523">
        <ele>200.300003052</ele>
        <time>2015-08-11T08:38:27.48Z</time>
      </trkpt>
      <trkpt lat="45.98938" lon="4.71522">
        <ele>199.899993896</ele>
        <time>2015-08-11T08:38:28.441Z</time>
      </trkpt>
      <trkpt lat="45.9894" lon="4.71522">
        <ele>199.800003052</ele>
        <time>2015-08-11T08:38:39.481Z</time>
      </trkpt>
      <trkpt lat="45.98942" lon="4.71524">
        <ele>200.199996948</ele>
        <time>2015-08-11T08:38:40.441Z</time>
      </trkpt>
      <trkpt lat="45.9895" lon="4.71527">
        <ele>200.100006104</ele>
        <time>2015-08-11T08:38:49.482Z</time>
      </trkpt>
      <trkpt lat="45.98951" lon="4.71529">
        <ele>200.300003052</ele>
        <time>2015-08-11T08:38:50.443Z</time>
      </trkpt>
      <trkpt lat="45.98956" lon="4.71523">
        <ele>201.600006104</ele>
        <time>2015-08-11T08:39:02.477Z</time>
      </trkpt>
      <trkpt lat="45.98959" lon="4.71517">
        <ele>201.600006104</ele>
        <time>2015-08-11T08:39:03.446Z</time>
      </trkpt>
      <trkpt lat="45.9896" lon="4.7151">
        <ele>201.5</ele>
        <time>2015-08-11T08:39:04.482Z</time>
      </trkpt>
      <trkpt lat="45.9896" lon="4.71503">
        <ele>201.300003052</ele>
        <time>2015-08-11T08:39:05.437Z</time>
      </trkpt>
      <trkpt lat="45.9896" lon="4.71496">
        <ele>201.199996948</ele>
        <time>2015-08-11T08:39:06.487Z</time>
      </trkpt>
      <trkpt lat="45.98959" lon="4.71489">
        <ele>201.199996948</ele>
        <time>2015-08-11T08:39:07.453Z</time>
      </trkpt>
      <trkpt lat="45.98958" lon="4.71483">
        <ele>201.300003052</ele>
        <time>2015-08-11T08:39:08.494Z</time>
      </trkpt>
      <trkpt lat="45.98956" lon="4.71475">
        <ele>201</ele>
        <time>2015-08-11T08:39:09.433Z</time>
      </trkpt>
      <trkpt lat="45.98954" lon="4.71467">
        <ele>200.699996948</ele>
        <time>2015-08-11T08:39:10.481Z</time>
      </trkpt>
      <trkpt lat="45.98953" lon="4.7146">
        <ele>200.699996948</ele>
        <time>2015-08-11T08:39:11.446Z</time>
      </trkpt>
      <trkpt lat="45.98952" lon="4.71451">
        <ele>200.699996948</ele>
        <time>2015-08-11T08:39:12.48Z</time>
      </trkpt>
      <trkpt lat="45.9895" lon="4.71445">
        <ele>200.899993896</ele>
        <time>2015-08-11T08:39:13.434Z</time>
      </trkpt>
      <trkpt lat="45.98949" lon="4.71438">
        <ele>201</ele>
        <time>2015-08-11T08:39:14.505Z</time>
      </trkpt>
      <trkpt lat="45.98948" lon="4.7143">
        <ele>200.699996948</ele>
        <time>2015-08-11T08:39:15.446Z</time>
      </trkpt>
      <trkpt lat="45.98946" lon="4.71421">
        <ele>200.600006104</ele>
        <time>2015-08-11T08:39:16.479Z</time>
      </trkpt>
      <trkpt lat="45.98945" lon="4.71414">
        <ele>200.600006104</ele>
        <time>2015-08-11T08:39:17.45Z</time>
      </trkpt>
      <trkpt lat="45.98944" lon="4.71406">
        <ele>200.699996948</ele>
        <time>2015-08-11T08:39:18.478Z</time>
      </trkpt>
      <trkpt lat="45.98945" lon="4.714">
        <ele>200.600006104</ele>
        <time>2015-08-11T08:39:19.447Z</time>
      </trkpt>
      <trkpt lat="45.98945" lon="4.71387">
        <ele>200.699996948</ele>
        <time>2015-08-11T08:39:21.527Z</time>
      </trkpt>
      <trkpt lat="45.98945" lon="4.7138">
        <ele>200.699996948</ele>
        <time>2015-08-11T08:39:22.446Z</time>
      </trkpt>
      <trkpt lat="45.98943" lon="4.71373">
        <ele>200.800003052</ele>
        <time>2015-08-11T08:39:23.512Z</time>
      </trkpt>
      <trkpt lat="45.98943" lon="4.71365">
        <ele>200.800003052</ele>
        <time>2015-08-11T08:39:24.432Z</time>
      </trkpt>
      <trkpt lat="45.98941" lon="4.71358">
        <ele>200.399993896</ele>
        <time>2015-08-11T08:39:25.479Z</time>
      </trkpt>
      <trkpt lat="45.98939" lon="4.71351">
        <ele>199.699996948</ele>
        <time>2015-08-11T08:39:26.447Z</time>
      </trkpt>
      <trkpt lat="45.98937" lon="4.7134">
        <ele>198.699996948</ele>
        <time>2015-08-11T08:39:27.486Z</time>
      </trkpt>
      <trkpt lat="45.98936" lon="4.71331">
        <ele>198.399993896</ele>
        <time>2015-08-11T08:39:28.452Z</time>
      </trkpt>
      <trkpt lat="45.98936" lon="4.71322">
        <ele>197.899993896</ele>
        <time>2015-08-11T08:39:29.513Z</time>
      </trkpt>
      <trkpt lat="45.98936" lon="4.71314">
        <ele>197.300003052</ele>
        <time>2015-08-11T08:39:30.447Z</time>
      </trkpt>
      <trkpt lat="45.98937" lon="4.71304">
        <ele>196.399993896</ele>
        <time>2015-08-11T08:39:31.487Z</time>
      </trkpt>
      <trkpt lat="45.98936" lon="4.71296">
        <ele>196</ele>
        <time>2015-08-11T08:39:32.485Z</time>
      </trkpt>
      <trkpt lat="45.98936" lon="4.71288">
        <ele>195.600006104</ele>
        <time>2015-08-11T08:39:33.481Z</time>
      </trkpt>
      <trkpt lat="45.98935" lon="4.7128">
        <ele>195.399993896</ele>
        <time>2015-08-11T08:39:34.444Z</time>
      </trkpt>
      <trkpt lat="45.98935" lon="4.71271">
        <ele>195.100006104</ele>
        <time>2015-08-11T08:39:35.478Z</time>
      </trkpt>
      <trkpt lat="45.98935" lon="4.71261">
        <ele>195</ele>
        <time>2015-08-11T08:39:36.433Z</time>
      </trkpt>
      <trkpt lat="45.98934" lon="4.71253">
        <ele>194.899993896</ele>
        <time>2015-08-11T08:39:37.484Z</time>
      </trkpt>
      <trkpt lat="45.98932" lon="4.71245">
        <ele>194.5</ele>
        <time>2015-08-11T08:39:38.445Z</time>
      </trkpt>
      <trkpt lat="45.98931" lon="4.71236">
        <ele>194.300003052</ele>
        <time>2015-08-11T08:39:39.481Z</time>
      </trkpt>
      <trkpt lat="45.9893" lon="4.7123">
        <ele>194</ele>
        <time>2015-08-11T08:39:40.461Z</time>
      </trkpt>
      <trkpt lat="45.98926" lon="4.71219">
        <ele>193.800003052</ele>
        <time>2015-08-11T08:39:42.496Z</time>
      </trkpt>
      <trkpt lat="45.98925" lon="4.71214">
        <ele>193.899993896</ele>
        <time>2015-08-11T08:39:43.445Z</time>
      </trkpt>
      <trkpt lat="45.98923" lon="4.71205">
        <ele>194</ele>
        <time>2015-08-11T08:39:44.489Z</time>
      </trkpt>
      <trkpt lat="45.98929" lon="4.71195">
        <ele>193.800003052</ele>
        <time>2015-08-11T08:39:45.433Z</time>
      </trkpt>
      <trkpt lat="45.98927" lon="4.71182">
        <ele>193.800003052</ele>
        <time>2015-08-11T08:39:47.522Z</time>
      </trkpt>
      <trkpt lat="45.98928" lon="4.71172">
        <ele>193.399993896</ele>
        <time>2015-08-11T08:39:48.445Z</time>
      </trkpt>
      <trkpt lat="45.98928" lon="4.71162">
        <ele>193</ele>
        <time>2015-08-11T08:39:49.524Z</time>
      </trkpt>
      <trkpt lat="45.98929" lon="4.71153">
        <ele>192.699996948</ele>
        <time>2015-08-11T08:39:50.447Z</time>
      </trkpt>
      <trkpt lat="45.98928" lon="4.71145">
        <ele>192.5</ele>
        <time>2015-08-11T08:39:51.478Z</time>
      </trkpt>
      <trkpt lat="45.9893" lon="4.71136">
        <ele>192.300003052</ele>
        <time>2015-08-11T08:39:52.446Z</time>
      </trkpt>
      <trkpt lat="45.9893" lon="4.71127">
        <ele>192.100006104</ele>
        <time>2015-08-11T08:39:53.478Z</time>
      </trkpt>
      <trkpt lat="45.98929" lon="4.71119">
        <ele>191.800003052</ele>
        <time>2015-08-11T08:39:54.449Z</time>
      </trkpt>
      <trkpt lat="45.98929" lon="4.71111">
        <ele>191.800003052</ele>
        <time>2015-08-11T08:39:55.487Z</time>
      </trkpt>
      <trkpt lat="45.98929" lon="4.71102">
        <ele>192</ele>
        <time>2015-08-11T08:39:56.433Z</time>
      </trkpt>
      <trkpt lat="45.98928" lon="4.71094">
        <ele>193.100006104</ele>
        <time>2015-08-11T08:39:57.483Z</time>
      </trkpt>
      <trkpt lat="45.98928" lon="4.71085">
        <ele>193.199996948</ele>
        <time>2015-08-11T08:39:58.447Z</time>
      </trkpt>
      <trkpt lat="45.98926" lon="4.71076">
        <ele>193.199996948</ele>
        <time>2015-08-11T08:39:59.477Z</time>
      </trkpt>
      <trkpt lat="45.98926" lon="4.71068">
        <ele>193.600006104</ele>
        <time>2015-08-11T08:40:00.433Z</time>
      </trkpt>
      <trkpt lat="45.98924" lon="4.7106">
        <ele>194</ele>
        <time>2015-08-11T08:40:01.516Z</time>
      </trkpt>
      <trkpt lat="45.98922" lon="4.71051">
        <ele>194.100006104</ele>
        <time>2015-08-11T08:40:02.445Z</time>
      </trkpt>
      <trkpt lat="45.9892" lon="4.71044">
        <ele>194.300003052</ele>
        <time>2015-08-11T08:40:03.483Z</time>
      </trkpt>
      <trkpt lat="45.98918" lon="4.71036">
        <ele>194.300003052</ele>
        <time>2015-08-11T08:40:04.443Z</time>
      </trkpt>
      <trkpt lat="45.98916" lon="4.71027">
        <ele>194.199996948</ele>
        <time>2015-08-11T08:40:05.523Z</time>
      </trkpt>
      <trkpt lat="45.98915" lon="4.71017">
        <ele>194.199996948</ele>
        <time>2015-08-11T08:40:06.446Z</time>
      </trkpt>
      <trkpt lat="45.98915" lon="4.71007">
        <ele>194.300003052</ele>
        <time>2015-08-11T08:40:07.478Z</time>
      </trkpt>
      <trkpt lat="45.98914" lon="4.70998">
        <ele>194.399993896</ele>
        <time>2015-08-11T08:40:08.444Z</time>
      </trkpt>
      <trkpt lat="45.98914" lon="4.70988">
        <ele>194.399993896</ele>
        <time>2015-08-11T08:40:10.72Z</time>
      </trkpt>
      <trkpt lat="45.98914" lon="4.70981">
        <ele>194.5</ele>
        <time>2015-08-11T08:40:11.446Z</time>
      </trkpt>
      <trkpt lat="45.98914" lon="4.70975">
        <ele>194.399993896</ele>
        <time>2015-08-11T08:40:12.732Z</time>
      </trkpt>
      <trkpt lat="45.98913" lon="4.70967">
        <ele>194.300003052</ele>
        <time>2015-08-11T08:40:13.455Z</time>
      </trkpt>
      <trkpt lat="45.98912" lon="4.70962">
        <ele>194.100006104</ele>
        <time>2015-08-11T08:40:14.575Z</time>
      </trkpt>
      <trkpt lat="45.98911" lon="4.70955">
        <ele>193.899993896</ele>
        <time>2015-08-11T08:40:15.489Z</time>
      </trkpt>
      <trkpt lat="45.98909" lon="4.70948">
        <ele>193.800003052</ele>
        <time>2015-08-11T08:40:16.483Z</time>
      </trkpt>
      <trkpt lat="45.98908" lon="4.70941">
        <ele>193.800003052</ele>
        <time>2015-08-11T08:40:17.454Z</time>
      </trkpt>
      <trkpt lat="45.98908" lon="4.70929">
        <ele>193.399993896</ele>
        <time>2015-08-11T08:40:19.49Z</time>
      </trkpt>
      <trkpt lat="45.98909" lon="4.70924">
        <ele>193.399993896</ele>
        <time>2015-08-11T08:40:20.455Z</time>
      </trkpt>
      <trkpt lat="45.98909" lon="4.70913">
        <ele>193.5</ele>
        <time>2015-08-11T08:40:22.498Z</time>
      </trkpt>
      <trkpt lat="45.98908" lon="4.70908">
        <ele>193.600006104</ele>
        <time>2015-08-11T08:40:23.441Z</time>
      </trkpt>
      <trkpt lat="45.98908" lon="4.70899">
        <ele>193.600006104</ele>
        <time>2015-08-11T08:40:25.523Z</time>
      </trkpt>
      <trkpt lat="45.98907" lon="4.70895">
        <ele>193.600006104</ele>
        <time>2015-08-11T08:40:26.445Z</time>
      </trkpt>
      <trkpt lat="45.98906" lon="4.70893">
        <ele>193.699996948</ele>
        <time>2015-08-11T08:40:28.48Z</time>
      </trkpt>
      <trkpt lat="45.98906" lon="4.70892">
        <ele>193.699996948</ele>
        <time>2015-08-11T08:40:29.444Z</time>
      </trkpt>
      <trkpt lat="45.98914" lon="4.70888">
        <ele>193.100006104</ele>
        <time>2015-08-11T08:40:36.527Z</time>
      </trkpt>
      <trkpt lat="45.98915" lon="4.70887">
        <ele>192.800003052</ele>
        <time>2015-08-11T08:40:37.449Z</time>
      </trkpt>
      <trkpt lat="45.98913" lon="4.70878">
        <ele>192.800003052</ele>
        <time>2015-08-11T08:40:45.478Z</time>
      </trkpt>
      <trkpt lat="45.98912" lon="4.70873">
        <ele>192.699996948</ele>
        <time>2015-08-11T08:40:46.447Z</time>
      </trkpt>
      <trkpt lat="45.98912" lon="4.70863">
        <ele>192.800003052</ele>
        <time>2015-08-11T08:40:48.477Z</time>
      </trkpt>
      <trkpt lat="45.98912" lon="4.70857">
        <ele>192.899993896</ele>
        <time>2015-08-11T08:40:49.445Z</time>
      </trkpt>
      <trkpt lat="45.98916" lon="4.70846">
        <ele>193.199996948</ele>
        <time>2015-08-11T08:40:51.545Z</time>
      </trkpt>
      <trkpt lat="45.98919" lon="4.70841">
        <ele>193.300003052</ele>
        <time>2015-08-11T08:40:52.506Z</time>
      </trkpt>
      <trkpt lat="45.98922" lon="4.70836">
        <ele>193.600006104</ele>
        <time>2015-08-11T08:40:53.495Z</time>
      </trkpt>
      <trkpt lat="45.98925" lon="4.7083">
        <ele>193.699996948</ele>
        <time>2015-08-11T08:40:54.445Z</time>
      </trkpt>
      <trkpt lat="45.98929" lon="4.70824">
        <ele>193.800003052</ele>
        <time>2015-08-11T08:40:55.488Z</time>
      </trkpt>
      <trkpt lat="45.98933" lon="4.70817">
        <ele>194.699996948</ele>
        <time>2015-08-11T08:40:56.446Z</time>
      </trkpt>
      <trkpt lat="45.98936" lon="4.70813">
        <ele>194.800003052</ele>
        <time>2015-08-11T08:40:57.477Z</time>
      </trkpt>
      <trkpt lat="45.9894" lon="4.70809">
        <ele>194.899993896</ele>
        <time>2015-08-11T08:40:58.444Z</time>
      </trkpt>
      <trkpt lat="45.98944" lon="4.70802">
        <ele>195.100006104</ele>
        <time>2015-08-11T08:40:59.48Z</time>
      </trkpt>
      <trkpt lat="45.98948" lon="4.70796">
        <ele>195.399993896</ele>
        <time>2015-08-11T08:41:00.463Z</time>
      </trkpt>
      <trkpt lat="45.98952" lon="4.70789">
        <ele>195.600006104</ele>
        <time>2015-08-11T08:41:01.481Z</time>
      </trkpt>
      <trkpt lat="45.98956" lon="4.70782">
        <ele>195.899993896</ele>
        <time>2015-08-11T08:41:02.445Z</time>
      </trkpt>
      <trkpt lat="45.98959" lon="4.70776">
        <ele>196.100006104</ele>
        <time>2015-08-11T08:41:03.478Z</time>
      </trkpt>
      <trkpt lat="45.98963" lon="4.70771">
        <ele>196.5</ele>
        <time>2015-08-11T08:41:04.433Z</time>
      </trkpt>
      <trkpt lat="45.98967" lon="4.70765">
        <ele>196.800003052</ele>
        <time>2015-08-11T08:41:05.477Z</time>
      </trkpt>
      <trkpt lat="45.9897" lon="4.70759">
        <ele>197</ele>
        <time>2015-08-11T08:41:06.444Z</time>
      </trkpt>
      <trkpt lat="45.98973" lon="4.70753">
        <ele>197.5</ele>
        <time>2015-08-11T08:41:07.485Z</time>
      </trkpt>
      <trkpt lat="45.98976" lon="4.70748">
        <ele>198.100006104</ele>
        <time>2015-08-11T08:41:08.444Z</time>
      </trkpt>
      <trkpt lat="45.98983" lon="4.70741">
        <ele>199</ele>
        <time>2015-08-11T08:41:10.493Z</time>
      </trkpt>
      <trkpt lat="45.98987" lon="4.70738">
        <ele>199.399993896</ele>
        <time>2015-08-11T08:41:11.443Z</time>
      </trkpt>
      <trkpt lat="45.98991" lon="4.70733">
        <ele>199.800003052</ele>
        <time>2015-08-11T08:41:12.483Z</time>
      </trkpt>
      <trkpt lat="45.98996" lon="4.70733">
        <ele>200.100006104</ele>
        <time>2015-08-11T08:41:13.442Z</time>
      </trkpt>
      <trkpt lat="45.99004" lon="4.70728">
        <ele>201</ele>
        <time>2015-08-11T08:41:15.565Z</time>
      </trkpt>
      <trkpt lat="45.99006" lon="4.70724">
        <ele>201.300003052</ele>
        <time>2015-08-11T08:41:16.444Z</time>
      </trkpt>
      <trkpt lat="45.9901" lon="4.70721">
        <ele>201.300003052</ele>
        <time>2015-08-11T08:41:17.557Z</time>
      </trkpt>
      <trkpt lat="45.99013" lon="4.70715">
        <ele>201.100006104</ele>
        <time>2015-08-11T08:41:18.579Z</time>
      </trkpt>
      <trkpt lat="45.99014" lon="4.70707">
        <ele>200.899993896</ele>
        <time>2015-08-11T08:41:19.495Z</time>
      </trkpt>
      <trkpt lat="45.99013" lon="4.707">
        <ele>201.100006104</ele>
        <time>2015-08-11T08:41:20.454Z</time>
      </trkpt>
      <trkpt lat="45.99014" lon="4.70688">
        <ele>201.899993896</ele>
        <time>2015-08-11T08:41:23.492Z</time>
      </trkpt>
      <trkpt lat="45.99016" lon="4.70684">
        <ele>202.399993896</ele>
        <time>2015-08-11T08:41:24.443Z</time>
      </trkpt>
      <trkpt lat="45.9902" lon="4.70673">
        <ele>203.300003052</ele>
        <time>2015-08-11T08:41:26.48Z</time>
      </trkpt>
      <trkpt lat="45.99022" lon="4.70669">
        <ele>203.600006104</ele>
        <time>2015-08-11T08:41:27.442Z</time>
      </trkpt>
      <trkpt lat="45.99026" lon="4.70657">
        <ele>204.5</ele>
        <time>2015-08-11T08:41:29.597Z</time>
      </trkpt>
      <trkpt lat="45.99028" lon="4.70653">
        <ele>205.100006104</ele>
        <time>2015-08-11T08:41:30.444Z</time>
      </trkpt>
      <trkpt lat="45.99033" lon="4.70642">
        <ele>205.699996948</ele>
        <time>2015-08-11T08:41:32.608Z</time>
      </trkpt>
      <trkpt lat="45.99036" lon="4.70636">
        <ele>206</ele>
        <time>2015-08-11T08:41:33.442Z</time>
      </trkpt>
      <trkpt lat="45.9904" lon="4.70628">
        <ele>206.100006104</ele>
        <time>2015-08-11T08:41:34.48Z</time>
      </trkpt>
      <trkpt lat="45.99043" lon="4.70618">
        <ele>206.300003052</ele>
        <time>2015-08-11T08:41:35.448Z</time>
      </trkpt>
      <trkpt lat="45.99047" lon="4.70607">
        <ele>206.300003052</ele>
        <time>2015-08-11T08:41:36.48Z</time>
      </trkpt>
      <trkpt lat="45.99052" lon="4.70597">
        <ele>206.399993896</ele>
        <time>2015-08-11T08:41:37.519Z</time>
      </trkpt>
      <trkpt lat="45.99052" lon="4.70597">
        <ele>206.399993896</ele>
        <time>2015-08-11T08:41:37.933Z</time>
      </trkpt>
      <trkpt lat="45.99058" lon="4.70588">
        <ele>206.399993896</ele>
        <time>2015-08-11T08:41:38.445Z</time>
      </trkpt>
      <trkpt lat="45.99058" lon="4.70588">
        <ele>206.399993896</ele>
        <time>2015-08-11T08:41:38.505Z</time>
      </trkpt>
      <trkpt lat="45.99065" lon="4.7058">
        <ele>206.300003052</ele>
        <time>2015-08-11T08:41:39.443Z</time>
      </trkpt>
      <trkpt lat="45.99068" lon="4.70572">
        <ele>205</ele>
        <time>2015-08-11T08:41:44.642Z</time>
      </trkpt>
      <trkpt lat="45.9907" lon="4.70567">
        <ele>205.100006104</ele>
        <time>2015-08-11T08:41:45.454Z</time>
      </trkpt>
      <trkpt lat="45.99077" lon="4.70561">
        <ele>205.699996948</ele>
        <time>2015-08-11T08:41:51.477Z</time>
      </trkpt>
      <trkpt lat="45.99078" lon="4.7056">
        <ele>205.699996948</ele>
        <time>2015-08-11T08:41:52.444Z</time>
      </trkpt>
      <trkpt lat="45.99084" lon="4.70552">
        <ele>206.100006104</ele>
        <time>2015-08-11T08:41:56.507Z</time>
      </trkpt>
      <trkpt lat="45.99085" lon="4.70549">
        <ele>206.100006104</ele>
        <time>2015-08-11T08:41:57.445Z</time>
      </trkpt>
      <trkpt lat="45.99089" lon="4.70541">
        <ele>206</ele>
        <time>2015-08-11T08:42:00.483Z</time>
      </trkpt>
      <trkpt lat="45.99091" lon="4.70538">
        <ele>206.100006104</ele>
        <time>2015-08-11T08:42:01.494Z</time>
      </trkpt>
      <trkpt lat="45.99094" lon="4.7053">
        <ele>206.300003052</ele>
        <time>2015-08-11T08:42:03.484Z</time>
      </trkpt>
      <trkpt lat="45.99097" lon="4.70525">
        <ele>206.5</ele>
        <time>2015-08-11T08:42:04.443Z</time>
      </trkpt>
      <trkpt lat="45.99102" lon="4.70517">
        <ele>207.100006104</ele>
        <time>2015-08-11T08:42:07.504Z</time>
      </trkpt>
      <trkpt lat="45.99103" lon="4.70513">
        <ele>207.300003052</ele>
        <time>2015-08-11T08:42:08.444Z</time>
      </trkpt>
      <trkpt lat="45.99107" lon="4.70502">
        <ele>208.100006104</ele>
        <time>2015-08-11T08:42:11.48Z</time>
      </trkpt>
      <trkpt lat="45.99109" lon="4.70497">
        <ele>208.300003052</ele>
        <time>2015-08-11T08:42:12.463Z</time>
      </trkpt>
      <trkpt lat="45.99112" lon="4.70486">
        <ele>208.800003052</ele>
        <time>2015-08-11T08:42:15.482Z</time>
      </trkpt>
      <trkpt lat="45.99113" lon="4.70483">
        <ele>208.899993896</ele>
        <time>2015-08-11T08:42:16.443Z</time>
      </trkpt>
      <trkpt lat="45.99115" lon="4.70472">
        <ele>209.5</ele>
        <time>2015-08-11T08:42:19.482Z</time>
      </trkpt>
      <trkpt lat="45.99116" lon="4.70468">
        <ele>209.5</ele>
        <time>2015-08-11T08:42:20.446Z</time>
      </trkpt>
      <trkpt lat="45.99118" lon="4.70456">
        <ele>209.800003052</ele>
        <time>2015-08-11T08:42:23.489Z</time>
      </trkpt>
      <trkpt lat="45.99118" lon="4.70452">
        <ele>209.699996948</ele>
        <time>2015-08-11T08:42:24.442Z</time>
      </trkpt>
      <trkpt lat="45.99118" lon="4.70445">
        <ele>209.699996948</ele>
        <time>2015-08-11T08:42:26.48Z</time>
      </trkpt>
      <trkpt lat="45.99119" lon="4.70439">
        <ele>209.199996948</ele>
        <time>2015-08-11T08:42:27.445Z</time>
      </trkpt>
      <trkpt lat="45.99119" lon="4.70429">
        <ele>208.899993896</ele>
        <time>2015-08-11T08:42:29.502Z</time>
      </trkpt>
      <trkpt lat="45.99118" lon="4.70424">
        <ele>208.800003052</ele>
        <time>2015-08-11T08:42:30.453Z</time>
      </trkpt>
      <trkpt lat="45.99118" lon="4.70412">
        <ele>208.600006104</ele>
        <time>2015-08-11T08:42:33.479Z</time>
      </trkpt>
      <trkpt lat="45.99119" lon="4.70407">
        <ele>208.399993896</ele>
        <time>2015-08-11T08:42:34.444Z</time>
      </trkpt>
      <trkpt lat="45.9912" lon="4.70399">
        <ele>207.800003052</ele>
        <time>2015-08-11T08:42:36.48Z</time>
      </trkpt>
      <trkpt lat="45.9912" lon="4.70394">
        <ele>207.699996948</ele>
        <time>2015-08-11T08:42:37.455Z</time>
      </trkpt>
      <trkpt lat="45.99122" lon="4.70382">
        <ele>207.600006104</ele>
        <time>2015-08-11T08:42:40.583Z</time>
      </trkpt>
      <trkpt lat="45.99122" lon="4.70377">
        <ele>207.600006104</ele>
        <time>2015-08-11T08:42:41.448Z</time>
      </trkpt>
      <trkpt lat="45.99124" lon="4.70369">
        <ele>207.399993896</ele>
        <time>2015-08-11T08:42:43.497Z</time>
      </trkpt>
      <trkpt lat="45.99124" lon="4.70365">
        <ele>207.399993896</ele>
        <time>2015-08-11T08:42:44.442Z</time>
      </trkpt>
      <trkpt lat="45.99125" lon="4.70353">
        <ele>207.199996948</ele>
        <time>2015-08-11T08:42:47.477Z</time>
      </trkpt>
      <trkpt lat="45.99125" lon="4.70348">
        <ele>207.199996948</ele>
        <time>2015-08-11T08:42:48.468Z</time>
      </trkpt>
      <trkpt lat="45.99126" lon="4.70337">
        <ele>207.300003052</ele>
        <time>2015-08-11T08:42:51.478Z</time>
      </trkpt>
      <trkpt lat="45.99126" lon="4.70334">
        <ele>207.5</ele>
        <time>2015-08-11T08:42:52.445Z</time>
      </trkpt>
      <trkpt lat="45.99127" lon="4.70323">
        <ele>207.600006104</ele>
        <time>2015-08-11T08:42:54.48Z</time>
      </trkpt>
      <trkpt lat="45.99127" lon="4.70318">
        <ele>207.800003052</ele>
        <time>2015-08-11T08:42:55.452Z</time>
      </trkpt>
      <trkpt lat="45.99127" lon="4.70307">
        <ele>208.899993896</ele>
        <time>2015-08-11T08:42:58.476Z</time>
      </trkpt>
      <trkpt lat="45.99127" lon="4.70302">
        <ele>209</ele>
        <time>2015-08-11T08:42:59.444Z</time>
      </trkpt>
      <trkpt lat="45.99128" lon="4.70291">
        <ele>210.100006104</ele>
        <time>2015-08-11T08:43:02.48Z</time>
      </trkpt>
      <trkpt lat="45.99128" lon="4.70288">
        <ele>210.399993896</ele>
        <time>2015-08-11T08:43:03.446Z</time>
      </trkpt>
      <trkpt lat="45.99128" lon="4.70276">
        <ele>211.5</ele>
        <time>2015-08-11T08:43:06.48Z</time>
      </trkpt>
      <trkpt lat="45.99128" lon="4.70272">
        <ele>211.600006104</ele>
        <time>2015-08-11T08:43:07.448Z</time>
      </trkpt>
      <trkpt lat="45.99128" lon="4.70261">
        <ele>212.199996948</ele>
        <time>2015-08-11T08:43:10.482Z</time>
      </trkpt>
      <trkpt lat="45.99129" lon="4.70256">
        <ele>212.5</ele>
        <time>2015-08-11T08:43:11.444Z</time>
      </trkpt>
      <trkpt lat="45.99129" lon="4.70245">
        <ele>213.100006104</ele>
        <time>2015-08-11T08:43:14.48Z</time>
      </trkpt>
      <trkpt lat="45.99129" lon="4.70241">
        <ele>213.199996948</ele>
        <time>2015-08-11T08:43:15.445Z</time>
      </trkpt>
      <trkpt lat="45.9913" lon="4.7023">
        <ele>213.5</ele>
        <time>2015-08-11T08:43:18.48Z</time>
      </trkpt>
      <trkpt lat="45.9913" lon="4.70227">
        <ele>213.800003052</ele>
        <time>2015-08-11T08:43:19.446Z</time>
      </trkpt>
      <trkpt lat="45.99131" lon="4.70216">
        <ele>214.300003052</ele>
        <time>2015-08-11T08:43:22.48Z</time>
      </trkpt>
      <trkpt lat="45.99131" lon="4.70213">
        <ele>214.5</ele>
        <time>2015-08-11T08:43:23.444Z</time>
      </trkpt>
      <trkpt lat="45.99132" lon="4.70209">
        <ele>214.800003052</ele>
        <time>2015-08-11T08:43:24.483Z</time>
      </trkpt>
      <trkpt lat="45.99132" lon="4.70207">
        <ele>215</ele>
        <time>2015-08-11T08:43:25.447Z</time>
      </trkpt>
      <trkpt lat="45.99132" lon="4.70207">
        <ele>215</ele>
        <time>2015-08-11T08:43:25.545Z</time>
      </trkpt>
      <trkpt lat="45.99131" lon="4.70205">
        <ele>215.199996948</ele>
        <time>2015-08-11T08:43:26.432Z</time>
      </trkpt>
      <trkpt lat="45.99132" lon="4.70192">
        <ele>216.600006104</ele>
        <time>2015-08-11T08:43:30.48Z</time>
      </trkpt>
      <trkpt lat="45.99132" lon="4.70189">
        <ele>217.399993896</ele>
        <time>2015-08-11T08:43:31.446Z</time>
      </trkpt>
      <trkpt lat="45.99132" lon="4.70176">
        <ele>218.800003052</ele>
        <time>2015-08-11T08:43:34.49Z</time>
      </trkpt>
      <trkpt lat="45.99133" lon="4.70172">
        <ele>219</ele>
        <time>2015-08-11T08:43:35.461Z</time>
      </trkpt>
      <trkpt lat="45.99134" lon="4.70159">
        <ele>219.800003052</ele>
        <time>2015-08-11T08:43:38.483Z</time>
      </trkpt>
      <trkpt lat="45.99134" lon="4.70156">
        <ele>220.100006104</ele>
        <time>2015-08-11T08:43:39.443Z</time>
      </trkpt>
      <trkpt lat="45.99137" lon="4.70145">
        <ele>221.300003052</ele>
        <time>2015-08-11T08:43:43.48Z</time>
      </trkpt>
      <trkpt lat="45.99138" lon="4.70141">
        <ele>221.399993896</ele>
        <time>2015-08-11T08:43:44.456Z</time>
      </trkpt>
      <trkpt lat="45.99138" lon="4.7013">
        <ele>221.699996948</ele>
        <time>2015-08-11T08:43:47.478Z</time>
      </trkpt>
      <trkpt lat="45.99138" lon="4.70125">
        <ele>221.899993896</ele>
        <time>2015-08-11T08:43:48.444Z</time>
      </trkpt>
      <trkpt lat="45.99136" lon="4.70114">
        <ele>223.399993896</ele>
        <time>2015-08-11T08:43:51.494Z</time>
      </trkpt>
      <trkpt lat="45.99136" lon="4.7011">
        <ele>223.5</ele>
        <time>2015-08-11T08:43:52.449Z</time>
      </trkpt>
      <trkpt lat="45.99137" lon="4.701">
        <ele>223.600006104</ele>
        <time>2015-08-11T08:43:54.48Z</time>
      </trkpt>
      <trkpt lat="45.99137" lon="4.70095">
        <ele>223.800003052</ele>
        <time>2015-08-11T08:43:55.448Z</time>
      </trkpt>
      <trkpt lat="45.9914" lon="4.70086">
        <ele>224.5</ele>
        <time>2015-08-11T08:43:57.48Z</time>
      </trkpt>
      <trkpt lat="45.9914" lon="4.70082">
        <ele>224.800003052</ele>
        <time>2015-08-11T08:43:58.445Z</time>
      </trkpt>
      <trkpt lat="45.99141" lon="4.70069">
        <ele>225.5</ele>
        <time>2015-08-11T08:44:01.543Z</time>
      </trkpt>
      <trkpt lat="45.99141" lon="4.70065">
        <ele>225.800003052</ele>
        <time>2015-08-11T08:44:02.445Z</time>
      </trkpt>
      <trkpt lat="45.99142" lon="4.70052">
        <ele>226.600006104</ele>
        <time>2015-08-11T08:44:05.479Z</time>
      </trkpt>
      <trkpt lat="45.99142" lon="4.70048">
        <ele>226.699996948</ele>
        <time>2015-08-11T08:44:06.445Z</time>
      </trkpt>
      <trkpt lat="45.99142" lon="4.70036">
        <ele>227.399993896</ele>
        <time>2015-08-11T08:44:09.482Z</time>
      </trkpt>
      <trkpt lat="45.99141" lon="4.70031">
        <ele>228</ele>
        <time>2015-08-11T08:44:10.444Z</time>
      </trkpt>
      <trkpt lat="45.99143" lon="4.7002">
        <ele>229.300003052</ele>
        <time>2015-08-11T08:44:13.487Z</time>
      </trkpt>
      <trkpt lat="45.99144" lon="4.70016">
        <ele>229.699996948</ele>
        <time>2015-08-11T08:44:14.441Z</time>
      </trkpt>
      <trkpt lat="45.99148" lon="4.70008">
        <ele>230.300003052</ele>
        <time>2015-08-11T08:44:16.476Z</time>
      </trkpt>
      <trkpt lat="45.9915" lon="4.70005">
        <ele>230.699996948</ele>
        <time>2015-08-11T08:44:17.43Z</time>
      </trkpt>
      <trkpt lat="45.99154" lon="4.69996">
        <ele>231.100006104</ele>
        <time>2015-08-11T08:44:19.523Z</time>
      </trkpt>
      <trkpt lat="45.99154" lon="4.6999">
        <ele>231.199996948</ele>
        <time>2015-08-11T08:44:20.444Z</time>
      </trkpt>
      <trkpt lat="45.99154" lon="4.69978">
        <ele>231.199996948</ele>
        <time>2015-08-11T08:44:22.497Z</time>
      </trkpt>
      <trkpt lat="45.99153" lon="4.69973">
        <ele>231.100006104</ele>
        <time>2015-08-11T08:44:23.443Z</time>
      </trkpt>
      <trkpt lat="45.99151" lon="4.69963">
        <ele>231.300003052</ele>
        <time>2015-08-11T08:44:25.516Z</time>
      </trkpt>
      <trkpt lat="45.99152" lon="4.69958">
        <ele>230.800003052</ele>
        <time>2015-08-11T08:44:26.444Z</time>
      </trkpt>
      <trkpt lat="45.99152" lon="4.69946">
        <ele>231.300003052</ele>
        <time>2015-08-11T08:44:28.475Z</time>
      </trkpt>
      <trkpt lat="45.99152" lon="4.6994">
        <ele>231.300003052</ele>
        <time>2015-08-11T08:44:29.443Z</time>
      </trkpt>
      <trkpt lat="45.99152" lon="4.69935">
        <ele>231.399993896</ele>
        <time>2015-08-11T08:44:30.528Z</time>
      </trkpt>
      <trkpt lat="45.99152" lon="4.69927">
        <ele>231.899993896</ele>
        <time>2015-08-11T08:44:31.447Z</time>
      </trkpt>
      <trkpt lat="45.99151" lon="4.69916">
        <ele>232.300003052</ele>
        <time>2015-08-11T08:44:33.483Z</time>
      </trkpt>
      <trkpt lat="45.99151" lon="4.6991">
        <ele>232.600006104</ele>
        <time>2015-08-11T08:44:34.441Z</time>
      </trkpt>
      <trkpt lat="45.99152" lon="4.69899">
        <ele>233.199996948</ele>
        <time>2015-08-11T08:44:36.492Z</time>
      </trkpt>
      <trkpt lat="45.99153" lon="4.69895">
        <ele>233.5</ele>
        <time>2015-08-11T08:44:37.447Z</time>
      </trkpt>
      <trkpt lat="45.99153" lon="4.69885">
        <ele>233.399993896</ele>
        <time>2015-08-11T08:44:39.476Z</time>
      </trkpt>
      <trkpt lat="45.99154" lon="4.69881">
        <ele>233.5</ele>
        <time>2015-08-11T08:44:40.443Z</time>
      </trkpt>
      <trkpt lat="45.99154" lon="4.69881">
        <ele>233.5</ele>
        <time>2015-08-11T08:44:40.493Z</time>
      </trkpt>
      <trkpt lat="45.99158" lon="4.69848">
        <ele>234.5</ele>
        <time>2015-08-11T08:44:47.443Z</time>
      </trkpt>
      <trkpt lat="45.99158" lon="4.69838">
        <ele>235.5</ele>
        <time>2015-08-11T08:44:49.481Z</time>
      </trkpt>
      <trkpt lat="45.99158" lon="4.69834">
        <ele>235.399993896</ele>
        <time>2015-08-11T08:44:50.444Z</time>
      </trkpt>
      <trkpt lat="45.99158" lon="4.69823">
        <ele>235.600006104</ele>
        <time>2015-08-11T08:44:53.478Z</time>
      </trkpt>
      <trkpt lat="45.9916" lon="4.69819">
        <ele>235.699996948</ele>
        <time>2015-08-11T08:44:54.444Z</time>
      </trkpt>
      <trkpt lat="45.99161" lon="4.69809">
        <ele>235.800003052</ele>
        <time>2015-08-11T08:44:56.481Z</time>
      </trkpt>
      <trkpt lat="45.9916" lon="4.69804">
        <ele>235.699996948</ele>
        <time>2015-08-11T08:44:57.447Z</time>
      </trkpt>
      <trkpt lat="45.99161" lon="4.69794">
        <ele>235.800003052</ele>
        <time>2015-08-11T08:44:59.478Z</time>
      </trkpt>
      <trkpt lat="45.99161" lon="4.69789">
        <ele>235.899993896</ele>
        <time>2015-08-11T08:45:00.435Z</time>
      </trkpt>
      <trkpt lat="45.99162" lon="4.69778">
        <ele>235.899993896</ele>
        <time>2015-08-11T08:45:02.496Z</time>
      </trkpt>
      <trkpt lat="45.99162" lon="4.69775">
        <ele>235.800003052</ele>
        <time>2015-08-11T08:45:03.457Z</time>
      </trkpt>
      <trkpt lat="45.99162" lon="4.69765">
        <ele>235.800003052</ele>
        <time>2015-08-11T08:45:05.488Z</time>
      </trkpt>
      <trkpt lat="45.99163" lon="4.6976">
        <ele>235.899993896</ele>
        <time>2015-08-11T08:45:06.453Z</time>
      </trkpt>
      <trkpt lat="45.99163" lon="4.69749">
        <ele>236.100006104</ele>
        <time>2015-08-11T08:45:08.484Z</time>
      </trkpt>
      <trkpt lat="45.99164" lon="4.69744">
        <ele>236.199996948</ele>
        <time>2015-08-11T08:45:09.434Z</time>
      </trkpt>
      <trkpt lat="45.99165" lon="4.69735">
        <ele>236.399993896</ele>
        <time>2015-08-11T08:45:11.491Z</time>
      </trkpt>
      <trkpt lat="45.99166" lon="4.69729">
        <ele>236.199996948</ele>
        <time>2015-08-11T08:45:12.455Z</time>
      </trkpt>
      <trkpt lat="45.99167" lon="4.69719">
        <ele>236</ele>
        <time>2015-08-11T08:45:14.498Z</time>
      </trkpt>
      <trkpt lat="45.99167" lon="4.69714">
        <ele>235.899993896</ele>
        <time>2015-08-11T08:45:15.447Z</time>
      </trkpt>
      <trkpt lat="45.99168" lon="4.69708">
        <ele>235.699996948</ele>
        <time>2015-08-11T08:45:16.48Z</time>
      </trkpt>
      <trkpt lat="45.99169" lon="4.697">
        <ele>235.100006104</ele>
        <time>2015-08-11T08:45:17.448Z</time>
      </trkpt>
      <trkpt lat="45.99172" lon="4.69689">
        <ele>234.899993896</ele>
        <time>2015-08-11T08:45:19.486Z</time>
      </trkpt>
      <trkpt lat="45.99172" lon="4.69683">
        <ele>234.300003052</ele>
        <time>2015-08-11T08:45:20.489Z</time>
      </trkpt>
      <trkpt lat="45.99173" lon="4.69672">
        <ele>234</ele>
        <time>2015-08-11T08:45:22.485Z</time>
      </trkpt>
      <trkpt lat="45.99173" lon="4.69667">
        <ele>233.899993896</ele>
        <time>2015-08-11T08:45:23.445Z</time>
      </trkpt>
      <trkpt lat="45.99173" lon="4.69657">
        <ele>233.600006104</ele>
        <time>2015-08-11T08:45:25.485Z</time>
      </trkpt>
      <trkpt lat="45.99173" lon="4.69653">
        <ele>233.300003052</ele>
        <time>2015-08-11T08:45:26.45Z</time>
      </trkpt>
      <trkpt lat="45.99173" lon="4.69644">
        <ele>233.199996948</ele>
        <time>2015-08-11T08:45:28.485Z</time>
      </trkpt>
      <trkpt lat="45.99174" lon="4.69638">
        <ele>233.199996948</ele>
        <time>2015-08-11T08:45:29.448Z</time>
      </trkpt>
      <trkpt lat="45.99174" lon="4.69627">
        <ele>233.100006104</ele>
        <time>2015-08-11T08:45:31.483Z</time>
      </trkpt>
      <trkpt lat="45.99175" lon="4.69622">
        <ele>233.199996948</ele>
        <time>2015-08-11T08:45:32.45Z</time>
      </trkpt>
      <trkpt lat="45.99176" lon="4.69611">
        <ele>233.300003052</ele>
        <time>2015-08-11T08:45:34.483Z</time>
      </trkpt>
      <trkpt lat="45.99176" lon="4.69606">
        <ele>233.800003052</ele>
        <time>2015-08-11T08:45:35.45Z</time>
      </trkpt>
      <trkpt lat="45.99176" lon="4.69596">
        <ele>233.899993896</ele>
        <time>2015-08-11T08:45:37.483Z</time>
      </trkpt>
      <trkpt lat="45.99177" lon="4.6959">
        <ele>234</ele>
        <time>2015-08-11T08:45:38.459Z</time>
      </trkpt>
      <trkpt lat="45.99177" lon="4.69579">
        <ele>234.199996948</ele>
        <time>2015-08-11T08:45:40.478Z</time>
      </trkpt>
      <trkpt lat="45.99178" lon="4.69574">
        <ele>234.600006104</ele>
        <time>2015-08-11T08:45:41.446Z</time>
      </trkpt>
      <trkpt lat="45.99179" lon="4.69563">
        <ele>235.5</ele>
        <time>2015-08-11T08:45:43.486Z</time>
      </trkpt>
      <trkpt lat="45.99179" lon="4.69557">
        <ele>235.800003052</ele>
        <time>2015-08-11T08:45:44.447Z</time>
      </trkpt>
      <trkpt lat="45.99179" lon="4.69546">
        <ele>235.699996948</ele>
        <time>2015-08-11T08:45:46.501Z</time>
      </trkpt>
      <trkpt lat="45.99179" lon="4.69542">
        <ele>235.899993896</ele>
        <time>2015-08-11T08:45:47.444Z</time>
      </trkpt>
      <trkpt lat="45.99182" lon="4.69532">
        <ele>236.699996948</ele>
        <time>2015-08-11T08:45:49.504Z</time>
      </trkpt>
      <trkpt lat="45.99183" lon="4.69526">
        <ele>237</ele>
        <time>2015-08-11T08:45:50.444Z</time>
      </trkpt>
      <trkpt lat="45.99185" lon="4.69516">
        <ele>237.699996948</ele>
        <time>2015-08-11T08:45:52.476Z</time>
      </trkpt>
      <trkpt lat="45.99186" lon="4.6951">
        <ele>238.100006104</ele>
        <time>2015-08-11T08:45:53.446Z</time>
      </trkpt>
      <trkpt lat="45.99187" lon="4.69499">
        <ele>239</ele>
        <time>2015-08-11T08:45:55.486Z</time>
      </trkpt>
      <trkpt lat="45.99187" lon="4.69494">
        <ele>239.399993896</ele>
        <time>2015-08-11T08:45:56.445Z</time>
      </trkpt>
      <trkpt lat="45.99189" lon="4.69482">
        <ele>239.800003052</ele>
        <time>2015-08-11T08:45:58.541Z</time>
      </trkpt>
      <trkpt lat="45.9919" lon="4.69477">
        <ele>240</ele>
        <time>2015-08-11T08:45:59.445Z</time>
      </trkpt>
      <trkpt lat="45.99191" lon="4.69465">
        <ele>240.399993896</ele>
        <time>2015-08-11T08:46:01.484Z</time>
      </trkpt>
      <trkpt lat="45.99193" lon="4.69459">
        <ele>240.699996948</ele>
        <time>2015-08-11T08:46:02.451Z</time>
      </trkpt>
      <trkpt lat="45.99195" lon="4.69447">
        <ele>241.199996948</ele>
        <time>2015-08-11T08:46:04.493Z</time>
      </trkpt>
      <trkpt lat="45.99196" lon="4.69441">
        <ele>241.600006104</ele>
        <time>2015-08-11T08:46:05.446Z</time>
      </trkpt>
      <trkpt lat="45.99197" lon="4.69434">
        <ele>242</ele>
        <time>2015-08-11T08:46:06.496Z</time>
      </trkpt>
      <trkpt lat="45.99198" lon="4.69427">
        <ele>242.399993896</ele>
        <time>2015-08-11T08:46:07.447Z</time>
      </trkpt>
      <trkpt lat="45.992" lon="4.69415">
        <ele>242.699996948</ele>
        <time>2015-08-11T08:46:09.497Z</time>
      </trkpt>
      <trkpt lat="45.99202" lon="4.69409">
        <ele>243</ele>
        <time>2015-08-11T08:46:10.448Z</time>
      </trkpt>
      <trkpt lat="45.99203" lon="4.69402">
        <ele>243</ele>
        <time>2015-08-11T08:46:11.487Z</time>
      </trkpt>
      <trkpt lat="45.99204" lon="4.69396">
        <ele>242.899993896</ele>
        <time>2015-08-11T08:46:12.442Z</time>
      </trkpt>
      <trkpt lat="45.99206" lon="4.69389">
        <ele>243.300003052</ele>
        <time>2015-08-11T08:46:13.488Z</time>
      </trkpt>
      <trkpt lat="45.99207" lon="4.69382">
        <ele>242.899993896</ele>
        <time>2015-08-11T08:46:14.446Z</time>
      </trkpt>
      <trkpt lat="45.99208" lon="4.69375">
        <ele>242.100006104</ele>
        <time>2015-08-11T08:46:15.52Z</time>
      </trkpt>
      <trkpt lat="45.99208" lon="4.69369">
        <ele>241.800003052</ele>
        <time>2015-08-11T08:46:16.445Z</time>
      </trkpt>
      <trkpt lat="45.99209" lon="4.69362">
        <ele>242.199996948</ele>
        <time>2015-08-11T08:46:17.479Z</time>
      </trkpt>
      <trkpt lat="45.9921" lon="4.69355">
        <ele>242.300003052</ele>
        <time>2015-08-11T08:46:18.446Z</time>
      </trkpt>
      <trkpt lat="45.99213" lon="4.69349">
        <ele>242.600006104</ele>
        <time>2015-08-11T08:46:19.482Z</time>
      </trkpt>
      <trkpt lat="45.99214" lon="4.69343">
        <ele>243</ele>
        <time>2015-08-11T08:46:20.446Z</time>
      </trkpt>
      <trkpt lat="45.99214" lon="4.69336">
        <ele>243</ele>
        <time>2015-08-11T08:46:21.478Z</time>
      </trkpt>
      <trkpt lat="45.99215" lon="4.69329">
        <ele>243.199996948</ele>
        <time>2015-08-11T08:46:22.431Z</time>
      </trkpt>
      <trkpt lat="45.99216" lon="4.69323">
        <ele>243.300003052</ele>
        <time>2015-08-11T08:46:23.484Z</time>
      </trkpt>
      <trkpt lat="45.99216" lon="4.69316">
        <ele>243.300003052</ele>
        <time>2015-08-11T08:46:24.446Z</time>
      </trkpt>
      <trkpt lat="45.99218" lon="4.69304">
        <ele>242.899993896</ele>
        <time>2015-08-11T08:46:26.48Z</time>
      </trkpt>
      <trkpt lat="45.99219" lon="4.69298">
        <ele>242.600006104</ele>
        <time>2015-08-11T08:46:27.47Z</time>
      </trkpt>
      <trkpt lat="45.9922" lon="4.69291">
        <ele>242.5</ele>
        <time>2015-08-11T08:46:28.49Z</time>
      </trkpt>
      <trkpt lat="45.99221" lon="4.69285">
        <ele>242.5</ele>
        <time>2015-08-11T08:46:29.444Z</time>
      </trkpt>
      <trkpt lat="45.99222" lon="4.69278">
        <ele>242.399993896</ele>
        <time>2015-08-11T08:46:30.514Z</time>
      </trkpt>
      <trkpt lat="45.99222" lon="4.69272">
        <ele>242.300003052</ele>
        <time>2015-08-11T08:46:31.448Z</time>
      </trkpt>
      <trkpt lat="45.99223" lon="4.69259">
        <ele>243.100006104</ele>
        <time>2015-08-11T08:46:33.489Z</time>
      </trkpt>
      <trkpt lat="45.99225" lon="4.69253">
        <ele>243.199996948</ele>
        <time>2015-08-11T08:46:34.445Z</time>
      </trkpt>
      <trkpt lat="45.99226" lon="4.69241">
        <ele>243.399993896</ele>
        <time>2015-08-11T08:46:36.491Z</time>
      </trkpt>
      <trkpt lat="45.99227" lon="4.69235">
        <ele>243.5</ele>
        <time>2015-08-11T08:46:37.448Z</time>
      </trkpt>
      <trkpt lat="45.99228" lon="4.69222">
        <ele>244</ele>
        <time>2015-08-11T08:46:39.48Z</time>
      </trkpt>
      <trkpt lat="45.99229" lon="4.69216">
        <ele>244.300003052</ele>
        <time>2015-08-11T08:46:40.445Z</time>
      </trkpt>
      <trkpt lat="45.9923" lon="4.69209">
        <ele>244.300003052</ele>
        <time>2015-08-11T08:46:41.477Z</time>
      </trkpt>
      <trkpt lat="45.99231" lon="4.69203">
        <ele>244.199996948</ele>
        <time>2015-08-11T08:46:42.447Z</time>
      </trkpt>
      <trkpt lat="45.99232" lon="4.69197">
        <ele>244.300003052</ele>
        <time>2015-08-11T08:46:43.479Z</time>
      </trkpt>
      <trkpt lat="45.99233" lon="4.6919">
        <ele>244.600006104</ele>
        <time>2015-08-11T08:46:44.446Z</time>
      </trkpt>
      <trkpt lat="45.99234" lon="4.69183">
        <ele>244.399993896</ele>
        <time>2015-08-11T08:46:45.482Z</time>
      </trkpt>
      <trkpt lat="45.99235" lon="4.69177">
        <ele>244.699996948</ele>
        <time>2015-08-11T08:46:46.447Z</time>
      </trkpt>
      <trkpt lat="45.99236" lon="4.6917">
        <ele>244.699996948</ele>
        <time>2015-08-11T08:46:47.491Z</time>
      </trkpt>
      <trkpt lat="45.99237" lon="4.69163">
        <ele>244.199996948</ele>
        <time>2015-08-11T08:46:48.439Z</time>
      </trkpt>
      <trkpt lat="45.99239" lon="4.69157">
        <ele>243.899993896</ele>
        <time>2015-08-11T08:46:49.483Z</time>
      </trkpt>
      <trkpt lat="45.9924" lon="4.69151">
        <ele>243.800003052</ele>
        <time>2015-08-11T08:46:50.446Z</time>
      </trkpt>
      <trkpt lat="45.99242" lon="4.69139">
        <ele>243.899993896</ele>
        <time>2015-08-11T08:46:52.482Z</time>
      </trkpt>
      <trkpt lat="45.99243" lon="4.69133">
        <ele>243.699996948</ele>
        <time>2015-08-11T08:46:53.465Z</time>
      </trkpt>
      <trkpt lat="45.99244" lon="4.69127">
        <ele>243.800003052</ele>
        <time>2015-08-11T08:46:54.487Z</time>
      </trkpt>
      <trkpt lat="45.99245" lon="4.69121">
        <ele>244</ele>
        <time>2015-08-11T08:46:55.445Z</time>
      </trkpt>
      <trkpt lat="45.99246" lon="4.69108">
        <ele>244.100006104</ele>
        <time>2015-08-11T08:46:57.584Z</time>
      </trkpt>
      <trkpt lat="45.99248" lon="4.69102">
        <ele>244.300003052</ele>
        <time>2015-08-11T08:46:58.446Z</time>
      </trkpt>
      <trkpt lat="45.99249" lon="4.6909">
        <ele>244.899993896</ele>
        <time>2015-08-11T08:47:00.489Z</time>
      </trkpt>
      <trkpt lat="45.9925" lon="4.69083">
        <ele>244.899993896</ele>
        <time>2015-08-11T08:47:01.448Z</time>
      </trkpt>
      <trkpt lat="45.99251" lon="4.69076">
        <ele>245.100006104</ele>
        <time>2015-08-11T08:47:02.521Z</time>
      </trkpt>
      <trkpt lat="45.99252" lon="4.6907">
        <ele>245.300003052</ele>
        <time>2015-08-11T08:47:03.445Z</time>
      </trkpt>
      <trkpt lat="45.99255" lon="4.69058">
        <ele>245.199996948</ele>
        <time>2015-08-11T08:47:05.489Z</time>
      </trkpt>
      <trkpt lat="45.99256" lon="4.69051">
        <ele>245.5</ele>
        <time>2015-08-11T08:47:06.432Z</time>
      </trkpt>
      <trkpt lat="45.99256" lon="4.69044">
        <ele>245.399993896</ele>
        <time>2015-08-11T08:47:07.482Z</time>
      </trkpt>
      <trkpt lat="45.99257" lon="4.69038">
        <ele>245.399993896</ele>
        <time>2015-08-11T08:47:08.449Z</time>
      </trkpt>
      <trkpt lat="45.99258" lon="4.69031">
        <ele>245.5</ele>
        <time>2015-08-11T08:47:09.504Z</time>
      </trkpt>
      <trkpt lat="45.99259" lon="4.69025">
        <ele>245.699996948</ele>
        <time>2015-08-11T08:47:10.452Z</time>
      </trkpt>
      <trkpt lat="45.99259" lon="4.69018">
        <ele>245.5</ele>
        <time>2015-08-11T08:47:11.476Z</time>
      </trkpt>
      <trkpt lat="45.9926" lon="4.69011">
        <ele>245.399993896</ele>
        <time>2015-08-11T08:47:12.431Z</time>
      </trkpt>
      <trkpt lat="45.9926" lon="4.69004">
        <ele>245.399993896</ele>
        <time>2015-08-11T08:47:13.479Z</time>
      </trkpt>
      <trkpt lat="45.99261" lon="4.68997">
        <ele>245.399993896</ele>
        <time>2015-08-11T08:47:14.442Z</time>
      </trkpt>
      <trkpt lat="45.99262" lon="4.6899">
        <ele>245.399993896</ele>
        <time>2015-08-11T08:47:15.479Z</time>
      </trkpt>
      <trkpt lat="45.99263" lon="4.68983">
        <ele>245.100006104</ele>
        <time>2015-08-11T08:47:16.445Z</time>
      </trkpt>
      <trkpt lat="45.99264" lon="4.68975">
        <ele>245.199996948</ele>
        <time>2015-08-11T08:47:17.477Z</time>
      </trkpt>
      <trkpt lat="45.99265" lon="4.68968">
        <ele>245.300003052</ele>
        <time>2015-08-11T08:47:18.444Z</time>
      </trkpt>
      <trkpt lat="45.99266" lon="4.68961">
        <ele>245</ele>
        <time>2015-08-11T08:47:19.508Z</time>
      </trkpt>
      <trkpt lat="45.99268" lon="4.68955">
        <ele>245.100006104</ele>
        <time>2015-08-11T08:47:20.449Z</time>
      </trkpt>
      <trkpt lat="45.99269" lon="4.68948">
        <ele>245.100006104</ele>
        <time>2015-08-11T08:47:21.478Z</time>
      </trkpt>
      <trkpt lat="45.9927" lon="4.6894">
        <ele>244.899993896</ele>
        <time>2015-08-11T08:47:22.432Z</time>
      </trkpt>
      <trkpt lat="45.99271" lon="4.68934">
        <ele>244.800003052</ele>
        <time>2015-08-11T08:47:23.478Z</time>
      </trkpt>
      <trkpt lat="45.99272" lon="4.68927">
        <ele>244.899993896</ele>
        <time>2015-08-11T08:47:24.443Z</time>
      </trkpt>
      <trkpt lat="45.99273" lon="4.6892">
        <ele>244.600006104</ele>
        <time>2015-08-11T08:47:25.48Z</time>
      </trkpt>
      <trkpt lat="45.99274" lon="4.68913">
        <ele>244.699996948</ele>
        <time>2015-08-11T08:47:26.478Z</time>
      </trkpt>
      <trkpt lat="45.99275" lon="4.68905">
        <ele>244</ele>
        <time>2015-08-11T08:47:27.478Z</time>
      </trkpt>
      <trkpt lat="45.99277" lon="4.68898">
        <ele>244.199996948</ele>
        <time>2015-08-11T08:47:28.449Z</time>
      </trkpt>
      <trkpt lat="45.99278" lon="4.68891">
        <ele>243.800003052</ele>
        <time>2015-08-11T08:47:29.479Z</time>
      </trkpt>
      <trkpt lat="45.99279" lon="4.68884">
        <ele>243.399993896</ele>
        <time>2015-08-11T08:47:30.446Z</time>
      </trkpt>
      <trkpt lat="45.99281" lon="4.68877">
        <ele>242.699996948</ele>
        <time>2015-08-11T08:47:31.478Z</time>
      </trkpt>
      <trkpt lat="45.99282" lon="4.6887">
        <ele>242.5</ele>
        <time>2015-08-11T08:47:32.431Z</time>
      </trkpt>
      <trkpt lat="45.99283" lon="4.68863">
        <ele>242.399993896</ele>
        <time>2015-08-11T08:47:33.482Z</time>
      </trkpt>
      <trkpt lat="45.99283" lon="4.68856">
        <ele>241.899993896</ele>
        <time>2015-08-11T08:47:34.443Z</time>
      </trkpt>
      <trkpt lat="45.99284" lon="4.68849">
        <ele>241</ele>
        <time>2015-08-11T08:47:35.495Z</time>
      </trkpt>
      <trkpt lat="45.99285" lon="4.68841">
        <ele>240.699996948</ele>
        <time>2015-08-11T08:47:36.444Z</time>
      </trkpt>
      <trkpt lat="45.99285" lon="4.68834">
        <ele>240.699996948</ele>
        <time>2015-08-11T08:47:37.481Z</time>
      </trkpt>
      <trkpt lat="45.99286" lon="4.68827">
        <ele>241</ele>
        <time>2015-08-11T08:47:38.442Z</time>
      </trkpt>
      <trkpt lat="45.99287" lon="4.6882">
        <ele>241.199996948</ele>
        <time>2015-08-11T08:47:39.48Z</time>
      </trkpt>
      <trkpt lat="45.99288" lon="4.68812">
        <ele>241.5</ele>
        <time>2015-08-11T08:47:40.445Z</time>
      </trkpt>
      <trkpt lat="45.99289" lon="4.68805">
        <ele>241.899993896</ele>
        <time>2015-08-11T08:47:41.476Z</time>
      </trkpt>
      <trkpt lat="45.9929" lon="4.68798">
        <ele>242.5</ele>
        <time>2015-08-11T08:47:42.445Z</time>
      </trkpt>
      <trkpt lat="45.99291" lon="4.68791">
        <ele>242.899993896</ele>
        <time>2015-08-11T08:47:43.479Z</time>
      </trkpt>
      <trkpt lat="45.99292" lon="4.68784">
        <ele>243.100006104</ele>
        <time>2015-08-11T08:47:44.446Z</time>
      </trkpt>
      <trkpt lat="45.99293" lon="4.68776">
        <ele>243</ele>
        <time>2015-08-11T08:47:45.478Z</time>
      </trkpt>
      <trkpt lat="45.99294" lon="4.68769">
        <ele>242.899993896</ele>
        <time>2015-08-11T08:47:46.432Z</time>
      </trkpt>
      <trkpt lat="45.99296" lon="4.68761">
        <ele>242.600006104</ele>
        <time>2015-08-11T08:47:47.489Z</time>
      </trkpt>
      <trkpt lat="45.99297" lon="4.68754">
        <ele>242.899993896</ele>
        <time>2015-08-11T08:47:48.449Z</time>
      </trkpt>
      <trkpt lat="45.99299" lon="4.68746">
        <ele>243.100006104</ele>
        <time>2015-08-11T08:47:49.482Z</time>
      </trkpt>
      <trkpt lat="45.993" lon="4.68739">
        <ele>243.199996948</ele>
        <time>2015-08-11T08:47:50.431Z</time>
      </trkpt>
      <trkpt lat="45.99302" lon="4.68732">
        <ele>243.5</ele>
        <time>2015-08-11T08:47:51.495Z</time>
      </trkpt>
      <trkpt lat="45.99303" lon="4.68725">
        <ele>243.600006104</ele>
        <time>2015-08-11T08:47:52.445Z</time>
      </trkpt>
      <trkpt lat="45.99304" lon="4.68717">
        <ele>243.699996948</ele>
        <time>2015-08-11T08:47:53.476Z</time>
      </trkpt>
      <trkpt lat="45.99305" lon="4.6871">
        <ele>243.5</ele>
        <time>2015-08-11T08:47:54.442Z</time>
      </trkpt>
      <trkpt lat="45.99305" lon="4.68703">
        <ele>244.5</ele>
        <time>2015-08-11T08:47:55.478Z</time>
      </trkpt>
      <trkpt lat="45.99306" lon="4.68695">
        <ele>244.199996948</ele>
        <time>2015-08-11T08:47:56.445Z</time>
      </trkpt>
      <trkpt lat="45.99307" lon="4.68688">
        <ele>244.399993896</ele>
        <time>2015-08-11T08:47:57.477Z</time>
      </trkpt>
      <trkpt lat="45.99308" lon="4.6868">
        <ele>244.800003052</ele>
        <time>2015-08-11T08:47:58.445Z</time>
      </trkpt>
      <trkpt lat="45.99309" lon="4.68672">
        <ele>245</ele>
        <time>2015-08-11T08:47:59.48Z</time>
      </trkpt>
      <trkpt lat="45.99309" lon="4.68665">
        <ele>245.100006104</ele>
        <time>2015-08-11T08:48:00.443Z</time>
      </trkpt>
      <trkpt lat="45.99311" lon="4.68657">
        <ele>245.100006104</ele>
        <time>2015-08-11T08:48:01.532Z</time>
      </trkpt>
      <trkpt lat="45.99312" lon="4.6865">
        <ele>244.600006104</ele>
        <time>2015-08-11T08:48:02.443Z</time>
      </trkpt>
      <trkpt lat="45.99313" lon="4.68643">
        <ele>243.899993896</ele>
        <time>2015-08-11T08:48:03.477Z</time>
      </trkpt>
      <trkpt lat="45.99314" lon="4.68636">
        <ele>244</ele>
        <time>2015-08-11T08:48:04.443Z</time>
      </trkpt>
      <trkpt lat="45.99315" lon="4.68629">
        <ele>243.600006104</ele>
        <time>2015-08-11T08:48:05.479Z</time>
      </trkpt>
      <trkpt lat="45.99316" lon="4.68622">
        <ele>243.699996948</ele>
        <time>2015-08-11T08:48:06.443Z</time>
      </trkpt>
      <trkpt lat="45.99317" lon="4.68614">
        <ele>243.699996948</ele>
        <time>2015-08-11T08:48:07.482Z</time>
      </trkpt>
      <trkpt lat="45.99318" lon="4.68607">
        <ele>243.5</ele>
        <time>2015-08-11T08:48:08.443Z</time>
      </trkpt>
      <trkpt lat="45.99319" lon="4.686">
        <ele>242.899993896</ele>
        <time>2015-08-11T08:48:09.478Z</time>
      </trkpt>
      <trkpt lat="45.9932" lon="4.68593">
        <ele>242.899993896</ele>
        <time>2015-08-11T08:48:10.445Z</time>
      </trkpt>
      <trkpt lat="45.99321" lon="4.68585">
        <ele>242.800003052</ele>
        <time>2015-08-11T08:48:11.475Z</time>
      </trkpt>
      <trkpt lat="45.99322" lon="4.68577">
        <ele>242.899993896</ele>
        <time>2015-08-11T08:48:12.43Z</time>
      </trkpt>
      <trkpt lat="45.99323" lon="4.6857">
        <ele>242.399993896</ele>
        <time>2015-08-11T08:48:13.481Z</time>
      </trkpt>
      <trkpt lat="45.99324" lon="4.68563">
        <ele>242.300003052</ele>
        <time>2015-08-11T08:48:14.455Z</time>
      </trkpt>
      <trkpt lat="45.99326" lon="4.68556">
        <ele>242.5</ele>
        <time>2015-08-11T08:48:15.479Z</time>
      </trkpt>
      <trkpt lat="45.99327" lon="4.68549">
        <ele>242.800003052</ele>
        <time>2015-08-11T08:48:16.446Z</time>
      </trkpt>
      <trkpt lat="45.99328" lon="4.68542">
        <ele>243.300003052</ele>
        <time>2015-08-11T08:48:17.532Z</time>
      </trkpt>
      <trkpt lat="45.99329" lon="4.68534">
        <ele>243.300003052</ele>
        <time>2015-08-11T08:48:18.431Z</time>
      </trkpt>
      <trkpt lat="45.9933" lon="4.68527">
        <ele>243.300003052</ele>
        <time>2015-08-11T08:48:19.482Z</time>
      </trkpt>
      <trkpt lat="45.9933" lon="4.68521">
        <ele>243.399993896</ele>
        <time>2015-08-11T08:48:20.443Z</time>
      </trkpt>
      <trkpt lat="45.99332" lon="4.68515">
        <ele>243.600006104</ele>
        <time>2015-08-11T08:48:21.502Z</time>
      </trkpt>
      <trkpt lat="45.99333" lon="4.68508">
        <ele>243.800003052</ele>
        <time>2015-08-11T08:48:22.446Z</time>
      </trkpt>
      <trkpt lat="45.99335" lon="4.68501">
        <ele>244.100006104</ele>
        <time>2015-08-11T08:48:23.48Z</time>
      </trkpt>
      <trkpt lat="45.99337" lon="4.68494">
        <ele>244.300003052</ele>
        <time>2015-08-11T08:48:24.441Z</time>
      </trkpt>
      <trkpt lat="45.99339" lon="4.68487">
        <ele>244.100006104</ele>
        <time>2015-08-11T08:48:25.479Z</time>
      </trkpt>
      <trkpt lat="45.99341" lon="4.6848">
        <ele>244.300003052</ele>
        <time>2015-08-11T08:48:26.443Z</time>
      </trkpt>
      <trkpt lat="45.99342" lon="4.68473">
        <ele>244.199996948</ele>
        <time>2015-08-11T08:48:27.486Z</time>
      </trkpt>
      <trkpt lat="45.99343" lon="4.68466">
        <ele>244.300003052</ele>
        <time>2015-08-11T08:48:28.431Z</time>
      </trkpt>
      <trkpt lat="45.99344" lon="4.68459">
        <ele>244.300003052</ele>
        <time>2015-08-11T08:48:29.476Z</time>
      </trkpt>
      <trkpt lat="45.99345" lon="4.68452">
        <ele>244.399993896</ele>
        <time>2015-08-11T08:48:30.444Z</time>
      </trkpt>
      <trkpt lat="45.99345" lon="4.68446">
        <ele>244.300003052</ele>
        <time>2015-08-11T08:48:31.484Z</time>
      </trkpt>
      <trkpt lat="45.99346" lon="4.68439">
        <ele>244.399993896</ele>
        <time>2015-08-11T08:48:32.473Z</time>
      </trkpt>
      <trkpt lat="45.99348" lon="4.68432">
        <ele>244.5</ele>
        <time>2015-08-11T08:48:33.492Z</time>
      </trkpt>
      <trkpt lat="45.9935" lon="4.68424">
        <ele>244.699996948</ele>
        <time>2015-08-11T08:48:34.441Z</time>
      </trkpt>
      <trkpt lat="45.99351" lon="4.68416">
        <ele>244.600006104</ele>
        <time>2015-08-11T08:48:35.526Z</time>
      </trkpt>
      <trkpt lat="45.99352" lon="4.68408">
        <ele>244.5</ele>
        <time>2015-08-11T08:48:36.443Z</time>
      </trkpt>
      <trkpt lat="45.99353" lon="4.68401">
        <ele>244.300003052</ele>
        <time>2015-08-11T08:48:37.493Z</time>
      </trkpt>
      <trkpt lat="45.99354" lon="4.68393">
        <ele>244.300003052</ele>
        <time>2015-08-11T08:48:38.445Z</time>
      </trkpt>
      <trkpt lat="45.99355" lon="4.68385">
        <ele>244.199996948</ele>
        <time>2015-08-11T08:48:39.477Z</time>
      </trkpt>
      <trkpt lat="45.99356" lon="4.68378">
        <ele>244.100006104</ele>
        <time>2015-08-11T08:48:40.448Z</time>
      </trkpt>
      <trkpt lat="45.99357" lon="4.68371">
        <ele>243.800003052</ele>
        <time>2015-08-11T08:48:41.572Z</time>
      </trkpt>
      <trkpt lat="45.99357" lon="4.68363">
        <ele>244.100006104</ele>
        <time>2015-08-11T08:48:42.443Z</time>
      </trkpt>
      <trkpt lat="45.99358" lon="4.68356">
        <ele>244</ele>
        <time>2015-08-11T08:48:43.479Z</time>
      </trkpt>
      <trkpt lat="45.99359" lon="4.68348">
        <ele>244.399993896</ele>
        <time>2015-08-11T08:48:44.442Z</time>
      </trkpt>
      <trkpt lat="45.9936" lon="4.68341">
        <ele>244.600006104</ele>
        <time>2015-08-11T08:48:45.478Z</time>
      </trkpt>
      <trkpt lat="45.9936" lon="4.68333">
        <ele>244.5</ele>
        <time>2015-08-11T08:48:46.443Z</time>
      </trkpt>
      <trkpt lat="45.99362" lon="4.68326">
        <ele>244.100006104</ele>
        <time>2015-08-11T08:48:47.476Z</time>
      </trkpt>
      <trkpt lat="45.99363" lon="4.68319">
        <ele>244.100006104</ele>
        <time>2015-08-11T08:48:48.437Z</time>
      </trkpt>
      <trkpt lat="45.99364" lon="4.68312">
        <ele>244.100006104</ele>
        <time>2015-08-11T08:48:49.513Z</time>
      </trkpt>
      <trkpt lat="45.99365" lon="4.68304">
        <ele>243.899993896</ele>
        <time>2015-08-11T08:48:50.443Z</time>
      </trkpt>
      <trkpt lat="45.99366" lon="4.68297">
        <ele>244.399993896</ele>
        <time>2015-08-11T08:48:51.476Z</time>
      </trkpt>
      <trkpt lat="45.99367" lon="4.6829">
        <ele>244.5</ele>
        <time>2015-08-11T08:48:52.443Z</time>
      </trkpt>
      <trkpt lat="45.99368" lon="4.68284">
        <ele>244.800003052</ele>
        <time>2015-08-11T08:48:53.516Z</time>
      </trkpt>
      <trkpt lat="45.99369" lon="4.68277">
        <ele>244.899993896</ele>
        <time>2015-08-11T08:48:54.448Z</time>
      </trkpt>
      <trkpt lat="45.9937" lon="4.6827">
        <ele>245</ele>
        <time>2015-08-11T08:48:55.479Z</time>
      </trkpt>
      <trkpt lat="45.99371" lon="4.68263">
        <ele>245.800003052</ele>
        <time>2015-08-11T08:48:56.443Z</time>
      </trkpt>
      <trkpt lat="45.99372" lon="4.68256">
        <ele>245.899993896</ele>
        <time>2015-08-11T08:48:57.485Z</time>
      </trkpt>
      <trkpt lat="45.99373" lon="4.6825">
        <ele>246.199996948</ele>
        <time>2015-08-11T08:48:58.444Z</time>
      </trkpt>
      <trkpt lat="45.99374" lon="4.68242">
        <ele>246.600006104</ele>
        <time>2015-08-11T08:48:59.489Z</time>
      </trkpt>
      <trkpt lat="45.99375" lon="4.68235">
        <ele>246.899993896</ele>
        <time>2015-08-11T08:49:00.44Z</time>
      </trkpt>
      <trkpt lat="45.99375" lon="4.68228">
        <ele>247.100006104</ele>
        <time>2015-08-11T08:49:01.478Z</time>
      </trkpt>
      <trkpt lat="45.99377" lon="4.68222">
        <ele>247.300003052</ele>
        <time>2015-08-11T08:49:02.443Z</time>
      </trkpt>
      <trkpt lat="45.99378" lon="4.68215">
        <ele>247.100006104</ele>
        <time>2015-08-11T08:49:03.478Z</time>
      </trkpt>
      <trkpt lat="45.99379" lon="4.68207">
        <ele>247.399993896</ele>
        <time>2015-08-11T08:49:04.447Z</time>
      </trkpt>
      <trkpt lat="45.9938" lon="4.68199">
        <ele>247.399993896</ele>
        <time>2015-08-11T08:49:05.48Z</time>
      </trkpt>
      <trkpt lat="45.99381" lon="4.68192">
        <ele>247.600006104</ele>
        <time>2015-08-11T08:49:06.451Z</time>
      </trkpt>
      <trkpt lat="45.99383" lon="4.68184">
        <ele>248</ele>
        <time>2015-08-11T08:49:07.488Z</time>
      </trkpt>
      <trkpt lat="45.99384" lon="4.68176">
        <ele>248.399993896</ele>
        <time>2015-08-11T08:49:08.443Z</time>
      </trkpt>
      <trkpt lat="45.99385" lon="4.68169">
        <ele>248.399993896</ele>
        <time>2015-08-11T08:49:09.491Z</time>
      </trkpt>
      <trkpt lat="45.99386" lon="4.68161">
        <ele>248.399993896</ele>
        <time>2015-08-11T08:49:10.459Z</time>
      </trkpt>
      <trkpt lat="45.99387" lon="4.68154">
        <ele>248.699996948</ele>
        <time>2015-08-11T08:49:11.476Z</time>
      </trkpt>
      <trkpt lat="45.99388" lon="4.68147">
        <ele>248.899993896</ele>
        <time>2015-08-11T08:49:12.445Z</time>
      </trkpt>
      <trkpt lat="45.9939" lon="4.68135">
        <ele>249</ele>
        <time>2015-08-11T08:49:14.481Z</time>
      </trkpt>
      <trkpt lat="45.99391" lon="4.68128">
        <ele>248.699996948</ele>
        <time>2015-08-11T08:49:15.446Z</time>
      </trkpt>
      <trkpt lat="45.99392" lon="4.68122">
        <ele>248.399993896</ele>
        <time>2015-08-11T08:49:16.476Z</time>
      </trkpt>
      <trkpt lat="45.99393" lon="4.68116">
        <ele>248.600006104</ele>
        <time>2015-08-11T08:49:17.445Z</time>
      </trkpt>
      <trkpt lat="45.99394" lon="4.68109">
        <ele>248.899993896</ele>
        <time>2015-08-11T08:49:18.653Z</time>
      </trkpt>
      <trkpt lat="45.99395" lon="4.68103">
        <ele>249.100006104</ele>
        <time>2015-08-11T08:49:19.446Z</time>
      </trkpt>
      <trkpt lat="45.99396" lon="4.68091">
        <ele>249.699996948</ele>
        <time>2015-08-11T08:49:21.48Z</time>
      </trkpt>
      <trkpt lat="45.99396" lon="4.68084">
        <ele>250</ele>
        <time>2015-08-11T08:49:22.442Z</time>
      </trkpt>
      <trkpt lat="45.99398" lon="4.68078">
        <ele>250.399993896</ele>
        <time>2015-08-11T08:49:23.486Z</time>
      </trkpt>
      <trkpt lat="45.99398" lon="4.68071">
        <ele>250.600006104</ele>
        <time>2015-08-11T08:49:24.431Z</time>
      </trkpt>
      <trkpt lat="45.99399" lon="4.68064">
        <ele>250.800003052</ele>
        <time>2015-08-11T08:49:25.482Z</time>
      </trkpt>
      <trkpt lat="45.994" lon="4.68057">
        <ele>251.199996948</ele>
        <time>2015-08-11T08:49:26.443Z</time>
      </trkpt>
      <trkpt lat="45.99403" lon="4.68045">
        <ele>252.300003052</ele>
        <time>2015-08-11T08:49:28.592Z</time>
      </trkpt>
      <trkpt lat="45.99404" lon="4.68039">
        <ele>252.699996948</ele>
        <time>2015-08-11T08:49:29.449Z</time>
      </trkpt>
      <trkpt lat="45.99407" lon="4.68027">
        <ele>253.399993896</ele>
        <time>2015-08-11T08:49:31.498Z</time>
      </trkpt>
      <trkpt lat="45.99408" lon="4.6802">
        <ele>253.600006104</ele>
        <time>2015-08-11T08:49:32.445Z</time>
      </trkpt>
      <trkpt lat="45.9941" lon="4.68007">
        <ele>253.899993896</ele>
        <time>2015-08-11T08:49:34.479Z</time>
      </trkpt>
      <trkpt lat="45.99411" lon="4.68001">
        <ele>253.800003052</ele>
        <time>2015-08-11T08:49:35.443Z</time>
      </trkpt>
      <trkpt lat="45.99413" lon="4.67988">
        <ele>253.300003052</ele>
        <time>2015-08-11T08:49:37.826Z</time>
      </trkpt>
      <trkpt lat="45.99413" lon="4.67982">
        <ele>253.199996948</ele>
        <time>2015-08-11T08:49:38.446Z</time>
      </trkpt>
      <trkpt lat="45.99414" lon="4.67975">
        <ele>252.699996948</ele>
        <time>2015-08-11T08:49:39.565Z</time>
      </trkpt>
      <trkpt lat="45.99414" lon="4.67967">
        <ele>252.300003052</ele>
        <time>2015-08-11T08:49:40.463Z</time>
      </trkpt>
      <trkpt lat="45.99414" lon="4.67958">
        <ele>252.100006104</ele>
        <time>2015-08-11T08:49:41.554Z</time>
      </trkpt>
      <trkpt lat="45.99415" lon="4.67951">
        <ele>252</ele>
        <time>2015-08-11T08:49:42.445Z</time>
      </trkpt>
      <trkpt lat="45.99417" lon="4.67939">
        <ele>251.899993896</ele>
        <time>2015-08-11T08:49:44.508Z</time>
      </trkpt>
      <trkpt lat="45.99419" lon="4.67933">
        <ele>251.600006104</ele>
        <time>2015-08-11T08:49:45.445Z</time>
      </trkpt>
      <trkpt lat="45.99421" lon="4.67921">
        <ele>251.199996948</ele>
        <time>2015-08-11T08:49:47.491Z</time>
      </trkpt>
      <trkpt lat="45.99423" lon="4.67915">
        <ele>251.100006104</ele>
        <time>2015-08-11T08:49:48.438Z</time>
      </trkpt>
      <trkpt lat="45.99427" lon="4.67905">
        <ele>250.899993896</ele>
        <time>2015-08-11T08:49:50.487Z</time>
      </trkpt>
      <trkpt lat="45.99429" lon="4.679">
        <ele>250.600006104</ele>
        <time>2015-08-11T08:49:51.449Z</time>
      </trkpt>
      <trkpt lat="45.99432" lon="4.67888">
        <ele>249.5</ele>
        <time>2015-08-11T08:49:53.475Z</time>
      </trkpt>
      <trkpt lat="45.99434" lon="4.67882">
        <ele>249.100006104</ele>
        <time>2015-08-11T08:49:54.446Z</time>
      </trkpt>
      <trkpt lat="45.99438" lon="4.67876">
        <ele>248.600006104</ele>
        <time>2015-08-11T08:49:56.478Z</time>
      </trkpt>
      <trkpt lat="45.99438" lon="4.67871">
        <ele>248.399993896</ele>
        <time>2015-08-11T08:49:57.464Z</time>
      </trkpt>
      <trkpt lat="45.9944" lon="4.67861">
        <ele>248.399993896</ele>
        <time>2015-08-11T08:49:59.48Z</time>
      </trkpt>
      <trkpt lat="45.99441" lon="4.67854">
        <ele>248.199996948</ele>
        <time>2015-08-11T08:50:00.442Z</time>
      </trkpt>
      <trkpt lat="45.9944" lon="4.67845">
        <ele>246.800003052</ele>
        <time>2015-08-11T08:50:01.48Z</time>
      </trkpt>
      <trkpt lat="45.99441" lon="4.6784">
        <ele>247.699996948</ele>
        <time>2015-08-11T08:50:02.454Z</time>
      </trkpt>
      <trkpt lat="45.99445" lon="4.6783">
        <ele>251.100006104</ele>
        <time>2015-08-11T08:50:04.623Z</time>
      </trkpt>
      <trkpt lat="45.99446" lon="4.67823">
        <ele>250.800003052</ele>
        <time>2015-08-11T08:50:05.441Z</time>
      </trkpt>
      <trkpt lat="45.99446" lon="4.67816">
        <ele>251.699996948</ele>
        <time>2015-08-11T08:50:06.477Z</time>
      </trkpt>
      <trkpt lat="45.99447" lon="4.6781">
        <ele>252.800003052</ele>
        <time>2015-08-11T08:50:07.446Z</time>
      </trkpt>
      <trkpt lat="45.99447" lon="4.6781">
        <ele>252.800003052</ele>
        <time>2015-08-11T08:50:07.524Z</time>
      </trkpt>
      <trkpt lat="45.99447" lon="4.67808">
        <ele>254.100006104</ele>
        <time>2015-08-11T08:50:08.445Z</time>
      </trkpt>
      <trkpt lat="45.99447" lon="4.67808">
        <ele>254.100006104</ele>
        <time>2015-08-11T08:50:08.503Z</time>
      </trkpt>
      <trkpt lat="45.99447" lon="4.67806">
        <ele>255.5</ele>
        <time>2015-08-11T08:50:09.445Z</time>
      </trkpt>
      <trkpt lat="45.99449" lon="4.67794">
        <ele>258</ele>
        <time>2015-08-11T08:50:12.481Z</time>
      </trkpt>
      <trkpt lat="45.99448" lon="4.67789">
        <ele>258.899993896</ele>
        <time>2015-08-11T08:50:13.433Z</time>
      </trkpt>
      <trkpt lat="45.99448" lon="4.67779">
        <ele>261</ele>
        <time>2015-08-11T08:50:15.476Z</time>
      </trkpt>
      <trkpt lat="45.99448" lon="4.67771">
        <ele>261.600006104</ele>
        <time>2015-08-11T08:50:16.444Z</time>
      </trkpt>
      <trkpt lat="45.9945" lon="4.6776">
        <ele>263.200012207</ele>
        <time>2015-08-11T08:50:18.496Z</time>
      </trkpt>
      <trkpt lat="45.9945" lon="4.67752">
        <ele>263.700012207</ele>
        <time>2015-08-11T08:50:19.446Z</time>
      </trkpt>
      <trkpt lat="45.99452" lon="4.67743">
        <ele>264</ele>
        <time>2015-08-11T08:50:20.48Z</time>
      </trkpt>
      <trkpt lat="45.99453" lon="4.67736">
        <ele>264.700012207</ele>
        <time>2015-08-11T08:50:21.445Z</time>
      </trkpt>
      <trkpt lat="45.99456" lon="4.67729">
        <ele>264.5</ele>
        <time>2015-08-11T08:50:22.502Z</time>
      </trkpt>
      <trkpt lat="45.99456" lon="4.67723">
        <ele>264.799987793</ele>
        <time>2015-08-11T08:50:23.448Z</time>
      </trkpt>
      <trkpt lat="45.99458" lon="4.67711">
        <ele>265.799987793</ele>
        <time>2015-08-11T08:50:25.48Z</time>
      </trkpt>
      <trkpt lat="45.99459" lon="4.67706">
        <ele>266.299987793</ele>
        <time>2015-08-11T08:50:26.444Z</time>
      </trkpt>
      <trkpt lat="45.99463" lon="4.67701">
        <ele>267.399993896</ele>
        <time>2015-08-11T08:50:27.48Z</time>
      </trkpt>
      <trkpt lat="45.99464" lon="4.67694">
        <ele>267.899993896</ele>
        <time>2015-08-11T08:50:28.428Z</time>
      </trkpt>
      <trkpt lat="45.99463" lon="4.67681">
        <ele>269.100006104</ele>
        <time>2015-08-11T08:50:30.48Z</time>
      </trkpt>
      <trkpt lat="45.99465" lon="4.67676">
        <ele>270</ele>
        <time>2015-08-11T08:50:31.445Z</time>
      </trkpt>
      <trkpt lat="45.99465" lon="4.67669">
        <ele>270.5</ele>
        <time>2015-08-11T08:50:32.479Z</time>
      </trkpt>
      <trkpt lat="45.99467" lon="4.67659">
        <ele>271.700012207</ele>
        <time>2015-08-11T08:50:33.445Z</time>
      </trkpt>
      <trkpt lat="45.99467" lon="4.67649">
        <ele>269.799987793</ele>
        <time>2015-08-11T08:50:34.481Z</time>
      </trkpt>
      <trkpt lat="45.99466" lon="4.67643">
        <ele>267</ele>
        <time>2015-08-11T08:50:35.443Z</time>
      </trkpt>
      <trkpt lat="45.99467" lon="4.67631">
        <ele>262.5</ele>
        <time>2015-08-11T08:50:37.492Z</time>
      </trkpt>
      <trkpt lat="45.99467" lon="4.67625">
        <ele>260.399993896</ele>
        <time>2015-08-11T08:50:38.443Z</time>
      </trkpt>
      <trkpt lat="45.99469" lon="4.67614">
        <ele>257.100006104</ele>
        <time>2015-08-11T08:50:40.482Z</time>
      </trkpt>
      <trkpt lat="45.9947" lon="4.67608">
        <ele>256.299987793</ele>
        <time>2015-08-11T08:50:41.443Z</time>
      </trkpt>
      <trkpt lat="45.99472" lon="4.67596">
        <ele>252.899993896</ele>
        <time>2015-08-11T08:50:43.476Z</time>
      </trkpt>
      <trkpt lat="45.99472" lon="4.67591">
        <ele>251.300003052</ele>
        <time>2015-08-11T08:50:44.448Z</time>
      </trkpt>
      <trkpt lat="45.99474" lon="4.67578">
        <ele>248.399993896</ele>
        <time>2015-08-11T08:50:46.524Z</time>
      </trkpt>
      <trkpt lat="45.99477" lon="4.67573">
        <ele>253.100006104</ele>
        <time>2015-08-11T08:50:47.448Z</time>
      </trkpt>
      <trkpt lat="45.99477" lon="4.67561">
        <ele>251.199996948</ele>
        <time>2015-08-11T08:50:49.509Z</time>
      </trkpt>
      <trkpt lat="45.99477" lon="4.67555">
        <ele>251</ele>
        <time>2015-08-11T08:50:50.604Z</time>
      </trkpt>
      <trkpt lat="45.99478" lon="4.67548">
        <ele>250.5</ele>
        <time>2015-08-11T08:50:51.504Z</time>
      </trkpt>
      <trkpt lat="45.99478" lon="4.67541">
        <ele>249.800003052</ele>
        <time>2015-08-11T08:50:52.458Z</time>
      </trkpt>
      <trkpt lat="45.9948" lon="4.6753">
        <ele>248.100006104</ele>
        <time>2015-08-11T08:50:54.535Z</time>
      </trkpt>
      <trkpt lat="45.99481" lon="4.67524">
        <ele>247.399993896</ele>
        <time>2015-08-11T08:50:55.455Z</time>
      </trkpt>
      <trkpt lat="45.99483" lon="4.67512">
        <ele>246.600006104</ele>
        <time>2015-08-11T08:50:57.484Z</time>
      </trkpt>
      <trkpt lat="45.99484" lon="4.67506">
        <ele>246.5</ele>
        <time>2015-08-11T08:50:58.445Z</time>
      </trkpt>
      <trkpt lat="45.99486" lon="4.67494">
        <ele>246.899993896</ele>
        <time>2015-08-11T08:51:00.484Z</time>
      </trkpt>
      <trkpt lat="45.99487" lon="4.67489">
        <ele>246.899993896</ele>
        <time>2015-08-11T08:51:01.481Z</time>
      </trkpt>
      <trkpt lat="45.99488" lon="4.67478">
        <ele>247.300003052</ele>
        <time>2015-08-11T08:51:03.479Z</time>
      </trkpt>
      <trkpt lat="45.99489" lon="4.67473">
        <ele>247.199996948</ele>
        <time>2015-08-11T08:51:04.447Z</time>
      </trkpt>
      <trkpt lat="45.9949" lon="4.67461">
        <ele>247.399993896</ele>
        <time>2015-08-11T08:51:06.479Z</time>
      </trkpt>
      <trkpt lat="45.99491" lon="4.67456">
        <ele>247.399993896</ele>
        <time>2015-08-11T08:51:07.445Z</time>
      </trkpt>
      <trkpt lat="45.99492" lon="4.67445">
        <ele>247.899993896</ele>
        <time>2015-08-11T08:51:09.486Z</time>
      </trkpt>
      <trkpt lat="45.99493" lon="4.67439">
        <ele>248.199996948</ele>
        <time>2015-08-11T08:51:10.444Z</time>
      </trkpt>
      <trkpt lat="45.99496" lon="4.67428">
        <ele>248.5</ele>
        <time>2015-08-11T08:51:12.479Z</time>
      </trkpt>
      <trkpt lat="45.99497" lon="4.67422">
        <ele>249.199996948</ele>
        <time>2015-08-11T08:51:13.469Z</time>
      </trkpt>
      <trkpt lat="45.99499" lon="4.67412">
        <ele>251</ele>
        <time>2015-08-11T08:51:15.479Z</time>
      </trkpt>
      <trkpt lat="45.995" lon="4.67407">
        <ele>252.699996948</ele>
        <time>2015-08-11T08:51:16.445Z</time>
      </trkpt>
      <trkpt lat="45.99503" lon="4.67396">
        <ele>255</ele>
        <time>2015-08-11T08:51:18.476Z</time>
      </trkpt>
      <trkpt lat="45.99504" lon="4.6739">
        <ele>255.199996948</ele>
        <time>2015-08-11T08:51:19.446Z</time>
      </trkpt>
      <trkpt lat="45.99505" lon="4.67379">
        <ele>256.399993896</ele>
        <time>2015-08-11T08:51:21.487Z</time>
      </trkpt>
      <trkpt lat="45.99505" lon="4.67373">
        <ele>257.399993896</ele>
        <time>2015-08-11T08:51:22.444Z</time>
      </trkpt>
      <trkpt lat="45.99507" lon="4.67362">
        <ele>259.200012207</ele>
        <time>2015-08-11T08:51:24.488Z</time>
      </trkpt>
      <trkpt lat="45.99508" lon="4.67356">
        <ele>259.799987793</ele>
        <time>2015-08-11T08:51:25.446Z</time>
      </trkpt>
      <trkpt lat="45.99509" lon="4.67343">
        <ele>260.5</ele>
        <time>2015-08-11T08:51:27.48Z</time>
      </trkpt>
      <trkpt lat="45.9951" lon="4.67338">
        <ele>260.799987793</ele>
        <time>2015-08-11T08:51:28.443Z</time>
      </trkpt>
      <trkpt lat="45.99511" lon="4.67327">
        <ele>260.899993896</ele>
        <time>2015-08-11T08:51:30.474Z</time>
      </trkpt>
      <trkpt lat="45.99512" lon="4.67322">
        <ele>261.100006104</ele>
        <time>2015-08-11T08:51:31.445Z</time>
      </trkpt>
      <trkpt lat="45.99514" lon="4.67311">
        <ele>261.799987793</ele>
        <time>2015-08-11T08:51:33.48Z</time>
      </trkpt>
      <trkpt lat="45.99515" lon="4.67306">
        <ele>261.399993896</ele>
        <time>2015-08-11T08:51:34.446Z</time>
      </trkpt>
      <trkpt lat="45.99518" lon="4.67301">
        <ele>261.299987793</ele>
        <time>2015-08-11T08:51:35.479Z</time>
      </trkpt>
      <trkpt lat="45.9952" lon="4.67295">
        <ele>261.200012207</ele>
        <time>2015-08-11T08:51:36.43Z</time>
      </trkpt>
      <trkpt lat="45.99521" lon="4.67288">
        <ele>261.5</ele>
        <time>2015-08-11T08:51:37.48Z</time>
      </trkpt>
      <trkpt lat="45.99522" lon="4.67281">
        <ele>261.600006104</ele>
        <time>2015-08-11T08:51:38.43Z</time>
      </trkpt>
      <trkpt lat="45.99523" lon="4.67269">
        <ele>262.299987793</ele>
        <time>2015-08-11T08:51:40.539Z</time>
      </trkpt>
      <trkpt lat="45.99524" lon="4.67263">
        <ele>262.899993896</ele>
        <time>2015-08-11T08:51:41.46Z</time>
      </trkpt>
      <trkpt lat="45.99526" lon="4.67251">
        <ele>264</ele>
        <time>2015-08-11T08:51:43.478Z</time>
      </trkpt>
      <trkpt lat="45.99526" lon="4.67246">
        <ele>264.299987793</ele>
        <time>2015-08-11T08:51:44.444Z</time>
      </trkpt>
      <trkpt lat="45.99528" lon="4.67234">
        <ele>264.799987793</ele>
        <time>2015-08-11T08:51:46.478Z</time>
      </trkpt>
      <trkpt lat="45.99528" lon="4.67228">
        <ele>264.799987793</ele>
        <time>2015-08-11T08:51:47.442Z</time>
      </trkpt>
      <trkpt lat="45.9953" lon="4.67216">
        <ele>264.600006104</ele>
        <time>2015-08-11T08:51:49.563Z</time>
      </trkpt>
      <trkpt lat="45.99531" lon="4.6721">
        <ele>264.899993896</ele>
        <time>2015-08-11T08:51:50.443Z</time>
      </trkpt>
      <trkpt lat="45.99533" lon="4.672">
        <ele>265</ele>
        <time>2015-08-11T08:51:52.475Z</time>
      </trkpt>
      <trkpt lat="45.99534" lon="4.67194">
        <ele>264.600006104</ele>
        <time>2015-08-11T08:51:53.445Z</time>
      </trkpt>
      <trkpt lat="45.99535" lon="4.67182">
        <ele>264.299987793</ele>
        <time>2015-08-11T08:51:55.478Z</time>
      </trkpt>
      <trkpt lat="45.99536" lon="4.67176">
        <ele>264.399993896</ele>
        <time>2015-08-11T08:51:56.445Z</time>
      </trkpt>
      <trkpt lat="45.99538" lon="4.67165">
        <ele>264.200012207</ele>
        <time>2015-08-11T08:51:58.476Z</time>
      </trkpt>
      <trkpt lat="45.99539" lon="4.67159">
        <ele>263.399993896</ele>
        <time>2015-08-11T08:51:59.445Z</time>
      </trkpt>
      <trkpt lat="45.99541" lon="4.67148">
        <ele>263.100006104</ele>
        <time>2015-08-11T08:52:01.478Z</time>
      </trkpt>
      <trkpt lat="45.99542" lon="4.67142">
        <ele>263.5</ele>
        <time>2015-08-11T08:52:02.428Z</time>
      </trkpt>
      <trkpt lat="45.99542" lon="4.6713">
        <ele>264.600006104</ele>
        <time>2015-08-11T08:52:04.479Z</time>
      </trkpt>
      <trkpt lat="45.99544" lon="4.67125">
        <ele>264.799987793</ele>
        <time>2015-08-11T08:52:05.426Z</time>
      </trkpt>
      <trkpt lat="45.99544" lon="4.67113">
        <ele>265.399993896</ele>
        <time>2015-08-11T08:52:07.493Z</time>
      </trkpt>
      <trkpt lat="45.99544" lon="4.67107">
        <ele>265.700012207</ele>
        <time>2015-08-11T08:52:08.445Z</time>
      </trkpt>
      <trkpt lat="45.99545" lon="4.67095">
        <ele>266.200012207</ele>
        <time>2015-08-11T08:52:10.489Z</time>
      </trkpt>
      <trkpt lat="45.99546" lon="4.6709">
        <ele>266.200012207</ele>
        <time>2015-08-11T08:52:11.449Z</time>
      </trkpt>
      <trkpt lat="45.99547" lon="4.67078">
        <ele>266.600006104</ele>
        <time>2015-08-11T08:52:13.478Z</time>
      </trkpt>
      <trkpt lat="45.99548" lon="4.67073">
        <ele>267</ele>
        <time>2015-08-11T08:52:14.444Z</time>
      </trkpt>
      <trkpt lat="45.9955" lon="4.67062">
        <ele>267.600006104</ele>
        <time>2015-08-11T08:52:16.476Z</time>
      </trkpt>
      <trkpt lat="45.9955" lon="4.67056">
        <ele>267.899993896</ele>
        <time>2015-08-11T08:52:17.445Z</time>
      </trkpt>
      <trkpt lat="45.99551" lon="4.67044">
        <ele>268.700012207</ele>
        <time>2015-08-11T08:52:19.482Z</time>
      </trkpt>
      <trkpt lat="45.99553" lon="4.67038">
        <ele>269</ele>
        <time>2015-08-11T08:52:20.435Z</time>
      </trkpt>
      <trkpt lat="45.99554" lon="4.67027">
        <ele>269.600006104</ele>
        <time>2015-08-11T08:52:22.476Z</time>
      </trkpt>
      <trkpt lat="45.99555" lon="4.67022">
        <ele>269.700012207</ele>
        <time>2015-08-11T08:52:23.444Z</time>
      </trkpt>
      <trkpt lat="45.99557" lon="4.6701">
        <ele>270.200012207</ele>
        <time>2015-08-11T08:52:25.481Z</time>
      </trkpt>
      <trkpt lat="45.99557" lon="4.67005">
        <ele>270.399993896</ele>
        <time>2015-08-11T08:52:26.444Z</time>
      </trkpt>
      <trkpt lat="45.99559" lon="4.66993">
        <ele>270.700012207</ele>
        <time>2015-08-11T08:52:28.534Z</time>
      </trkpt>
      <trkpt lat="45.99559" lon="4.66987">
        <ele>271</ele>
        <time>2015-08-11T08:52:29.444Z</time>
      </trkpt>
      <trkpt lat="45.9956" lon="4.66976">
        <ele>271.700012207</ele>
        <time>2015-08-11T08:52:31.478Z</time>
      </trkpt>
      <trkpt lat="45.99561" lon="4.6697">
        <ele>272.100006104</ele>
        <time>2015-08-11T08:52:32.445Z</time>
      </trkpt>
      <trkpt lat="45.99563" lon="4.66958">
        <ele>273</ele>
        <time>2015-08-11T08:52:34.483Z</time>
      </trkpt>
      <trkpt lat="45.99564" lon="4.66952">
        <ele>273</ele>
        <time>2015-08-11T08:52:35.443Z</time>
      </trkpt>
      <trkpt lat="45.99567" lon="4.6694">
        <ele>273.700012207</ele>
        <time>2015-08-11T08:52:37.481Z</time>
      </trkpt>
      <trkpt lat="45.99568" lon="4.66934">
        <ele>273.899993896</ele>
        <time>2015-08-11T08:52:38.437Z</time>
      </trkpt>
      <trkpt lat="45.99569" lon="4.66928">
        <ele>274.100006104</ele>
        <time>2015-08-11T08:52:39.486Z</time>
      </trkpt>
      <trkpt lat="45.9957" lon="4.66921">
        <ele>274.299987793</ele>
        <time>2015-08-11T08:52:40.446Z</time>
      </trkpt>
      <trkpt lat="45.99572" lon="4.6691">
        <ele>274.700012207</ele>
        <time>2015-08-11T08:52:42.475Z</time>
      </trkpt>
      <trkpt lat="45.99572" lon="4.66905">
        <ele>274.799987793</ele>
        <time>2015-08-11T08:52:43.445Z</time>
      </trkpt>
      <trkpt lat="45.99573" lon="4.66896">
        <ele>275.5</ele>
        <time>2015-08-11T08:52:45.48Z</time>
      </trkpt>
      <trkpt lat="45.99574" lon="4.66891">
        <ele>275</ele>
        <time>2015-08-11T08:52:46.444Z</time>
      </trkpt>
      <trkpt lat="45.99575" lon="4.6688">
        <ele>274.899993896</ele>
        <time>2015-08-11T08:52:48.492Z</time>
      </trkpt>
      <trkpt lat="45.99576" lon="4.66874">
        <ele>275</ele>
        <time>2015-08-11T08:52:49.459Z</time>
      </trkpt>
      <trkpt lat="45.99575" lon="4.66863">
        <ele>273.899993896</ele>
        <time>2015-08-11T08:52:51.479Z</time>
      </trkpt>
      <trkpt lat="45.99575" lon="4.66857">
        <ele>273.799987793</ele>
        <time>2015-08-11T08:52:52.443Z</time>
      </trkpt>
      <trkpt lat="45.99576" lon="4.66846">
        <ele>273.899993896</ele>
        <time>2015-08-11T08:52:54.482Z</time>
      </trkpt>
      <trkpt lat="45.99577" lon="4.6684">
        <ele>273.899993896</ele>
        <time>2015-08-11T08:52:55.446Z</time>
      </trkpt>
      <trkpt lat="45.99578" lon="4.66829">
        <ele>273.5</ele>
        <time>2015-08-11T08:52:57.514Z</time>
      </trkpt>
      <trkpt lat="45.99579" lon="4.66822">
        <ele>273.399993896</ele>
        <time>2015-08-11T08:52:58.494Z</time>
      </trkpt>
      <trkpt lat="45.9958" lon="4.66816">
        <ele>273.100006104</ele>
        <time>2015-08-11T08:52:59.501Z</time>
      </trkpt>
      <trkpt lat="45.99581" lon="4.66809">
        <ele>272.700012207</ele>
        <time>2015-08-11T08:53:00.432Z</time>
      </trkpt>
      <trkpt lat="45.99583" lon="4.66797">
        <ele>272.600006104</ele>
        <time>2015-08-11T08:53:02.479Z</time>
      </trkpt>
      <trkpt lat="45.99583" lon="4.66792">
        <ele>272.799987793</ele>
        <time>2015-08-11T08:53:03.444Z</time>
      </trkpt>
      <trkpt lat="45.99582" lon="4.66779">
        <ele>272.899993896</ele>
        <time>2015-08-11T08:53:05.488Z</time>
      </trkpt>
      <trkpt lat="45.99581" lon="4.66774">
        <ele>273.100006104</ele>
        <time>2015-08-11T08:53:06.443Z</time>
      </trkpt>
      <trkpt lat="45.99582" lon="4.66762">
        <ele>273.299987793</ele>
        <time>2015-08-11T08:53:08.52Z</time>
      </trkpt>
      <trkpt lat="45.99583" lon="4.66756">
        <ele>273.399993896</ele>
        <time>2015-08-11T08:53:09.443Z</time>
      </trkpt>
      <trkpt lat="45.99585" lon="4.66743">
        <ele>273.5</ele>
        <time>2015-08-11T08:53:11.481Z</time>
      </trkpt>
      <trkpt lat="45.99589" lon="4.66736">
        <ele>273.299987793</ele>
        <time>2015-08-11T08:53:12.442Z</time>
      </trkpt>
      <trkpt lat="45.9959" lon="4.66729">
        <ele>273.299987793</ele>
        <time>2015-08-11T08:53:13.489Z</time>
      </trkpt>
      <trkpt lat="45.99591" lon="4.66723">
        <ele>273</ele>
        <time>2015-08-11T08:53:14.441Z</time>
      </trkpt>
      <trkpt lat="45.99593" lon="4.66717">
        <ele>272.799987793</ele>
        <time>2015-08-11T08:53:15.484Z</time>
      </trkpt>
      <trkpt lat="45.99594" lon="4.6671">
        <ele>272.5</ele>
        <time>2015-08-11T08:53:16.443Z</time>
      </trkpt>
      <trkpt lat="45.99596" lon="4.66697">
        <ele>272.299987793</ele>
        <time>2015-08-11T08:53:18.478Z</time>
      </trkpt>
      <trkpt lat="45.99596" lon="4.66691">
        <ele>272.5</ele>
        <time>2015-08-11T08:53:19.446Z</time>
      </trkpt>
      <trkpt lat="45.99596" lon="4.66684">
        <ele>273</ele>
        <time>2015-08-11T08:53:20.475Z</time>
      </trkpt>
      <trkpt lat="45.99598" lon="4.66678">
        <ele>273.100006104</ele>
        <time>2015-08-11T08:53:21.431Z</time>
      </trkpt>
      <trkpt lat="45.99599" lon="4.66672">
        <ele>273.200012207</ele>
        <time>2015-08-11T08:53:22.496Z</time>
      </trkpt>
      <trkpt lat="45.99599" lon="4.66665">
        <ele>273.299987793</ele>
        <time>2015-08-11T08:53:23.444Z</time>
      </trkpt>
      <trkpt lat="45.99601" lon="4.66658">
        <ele>273.5</ele>
        <time>2015-08-11T08:53:24.494Z</time>
      </trkpt>
      <trkpt lat="45.99601" lon="4.66652">
        <ele>273.5</ele>
        <time>2015-08-11T08:53:25.483Z</time>
      </trkpt>
      <trkpt lat="45.99602" lon="4.66646">
        <ele>273.799987793</ele>
        <time>2015-08-11T08:53:26.522Z</time>
      </trkpt>
      <trkpt lat="45.99602" lon="4.66639">
        <ele>273.700012207</ele>
        <time>2015-08-11T08:53:27.444Z</time>
      </trkpt>
      <trkpt lat="45.99604" lon="4.66627">
        <ele>274</ele>
        <time>2015-08-11T08:53:29.475Z</time>
      </trkpt>
      <trkpt lat="45.99604" lon="4.66622">
        <ele>274</ele>
        <time>2015-08-11T08:53:30.47Z</time>
      </trkpt>
      <trkpt lat="45.99605" lon="4.66611">
        <ele>274.299987793</ele>
        <time>2015-08-11T08:53:32.474Z</time>
      </trkpt>
      <trkpt lat="45.99606" lon="4.66605">
        <ele>273.899993896</ele>
        <time>2015-08-11T08:53:33.443Z</time>
      </trkpt>
      <trkpt lat="45.99607" lon="4.66598">
        <ele>273.899993896</ele>
        <time>2015-08-11T08:53:34.491Z</time>
      </trkpt>
      <trkpt lat="45.99608" lon="4.66592">
        <ele>274</ele>
        <time>2015-08-11T08:53:35.443Z</time>
      </trkpt>
      <trkpt lat="45.99611" lon="4.6658">
        <ele>274.100006104</ele>
        <time>2015-08-11T08:53:37.485Z</time>
      </trkpt>
      <trkpt lat="45.99612" lon="4.66573">
        <ele>274</ele>
        <time>2015-08-11T08:53:38.443Z</time>
      </trkpt>
      <trkpt lat="45.99613" lon="4.66567">
        <ele>274.299987793</ele>
        <time>2015-08-11T08:53:39.478Z</time>
      </trkpt>
      <trkpt lat="45.99614" lon="4.66559">
        <ele>274.5</ele>
        <time>2015-08-11T08:53:40.443Z</time>
      </trkpt>
      <trkpt lat="45.99616" lon="4.6655">
        <ele>274.200012207</ele>
        <time>2015-08-11T08:53:41.496Z</time>
      </trkpt>
      <trkpt lat="45.99617" lon="4.66544">
        <ele>274</ele>
        <time>2015-08-11T08:53:42.442Z</time>
      </trkpt>
      <trkpt lat="45.99618" lon="4.66538">
        <ele>273.700012207</ele>
        <time>2015-08-11T08:53:43.493Z</time>
      </trkpt>
      <trkpt lat="45.9962" lon="4.66532">
        <ele>273.399993896</ele>
        <time>2015-08-11T08:53:44.437Z</time>
      </trkpt>
      <trkpt lat="45.99622" lon="4.6652">
        <ele>272.899993896</ele>
        <time>2015-08-11T08:53:46.478Z</time>
      </trkpt>
      <trkpt lat="45.99622" lon="4.66513">
        <ele>273.100006104</ele>
        <time>2015-08-11T08:53:47.442Z</time>
      </trkpt>
      <trkpt lat="45.99622" lon="4.66501">
        <ele>273.399993896</ele>
        <time>2015-08-11T08:53:49.48Z</time>
      </trkpt>
      <trkpt lat="45.99623" lon="4.66495">
        <ele>273.5</ele>
        <time>2015-08-11T08:53:50.443Z</time>
      </trkpt>
      <trkpt lat="45.99623" lon="4.66488">
        <ele>273.600006104</ele>
        <time>2015-08-11T08:53:51.475Z</time>
      </trkpt>
      <trkpt lat="45.99625" lon="4.66482">
        <ele>274</ele>
        <time>2015-08-11T08:53:52.447Z</time>
      </trkpt>
      <trkpt lat="45.99627" lon="4.6647">
        <ele>274.600006104</ele>
        <time>2015-08-11T08:53:54.486Z</time>
      </trkpt>
      <trkpt lat="45.99628" lon="4.66464">
        <ele>274.700012207</ele>
        <time>2015-08-11T08:53:55.446Z</time>
      </trkpt>
      <trkpt lat="45.99629" lon="4.66458">
        <ele>274.799987793</ele>
        <time>2015-08-11T08:53:56.474Z</time>
      </trkpt>
      <trkpt lat="45.99629" lon="4.66451">
        <ele>274.700012207</ele>
        <time>2015-08-11T08:53:57.443Z</time>
      </trkpt>
      <trkpt lat="45.9963" lon="4.66445">
        <ele>274.700012207</ele>
        <time>2015-08-11T08:53:58.49Z</time>
      </trkpt>
      <trkpt lat="45.99631" lon="4.66438">
        <ele>274.899993896</ele>
        <time>2015-08-11T08:53:59.443Z</time>
      </trkpt>
      <trkpt lat="45.99631" lon="4.66432">
        <ele>275.399993896</ele>
        <time>2015-08-11T08:54:00.484Z</time>
      </trkpt>
      <trkpt lat="45.99632" lon="4.66425">
        <ele>275.600006104</ele>
        <time>2015-08-11T08:54:01.432Z</time>
      </trkpt>
      <trkpt lat="45.99633" lon="4.66419">
        <ele>275.899993896</ele>
        <time>2015-08-11T08:54:02.48Z</time>
      </trkpt>
      <trkpt lat="45.99634" lon="4.66412">
        <ele>275.899993896</ele>
        <time>2015-08-11T08:54:03.444Z</time>
      </trkpt>
      <trkpt lat="45.99635" lon="4.66405">
        <ele>276</ele>
        <time>2015-08-11T08:54:04.534Z</time>
      </trkpt>
      <trkpt lat="45.99636" lon="4.66398">
        <ele>276.299987793</ele>
        <time>2015-08-11T08:54:05.443Z</time>
      </trkpt>
      <trkpt lat="45.99636" lon="4.66386">
        <ele>276.5</ele>
        <time>2015-08-11T08:54:07.484Z</time>
      </trkpt>
      <trkpt lat="45.99637" lon="4.6638">
        <ele>276.399993896</ele>
        <time>2015-08-11T08:54:08.443Z</time>
      </trkpt>
      <trkpt lat="45.99638" lon="4.66367">
        <ele>276.399993896</ele>
        <time>2015-08-11T08:54:10.481Z</time>
      </trkpt>
      <trkpt lat="45.99638" lon="4.66361">
        <ele>276.600006104</ele>
        <time>2015-08-11T08:54:11.442Z</time>
      </trkpt>
      <trkpt lat="45.99639" lon="4.66353">
        <ele>276.700012207</ele>
        <time>2015-08-11T08:54:12.475Z</time>
      </trkpt>
      <trkpt lat="45.99639" lon="4.66347">
        <ele>276.799987793</ele>
        <time>2015-08-11T08:54:13.444Z</time>
      </trkpt>
      <trkpt lat="45.9964" lon="4.6634">
        <ele>277</ele>
        <time>2015-08-11T08:54:14.49Z</time>
      </trkpt>
      <trkpt lat="45.9964" lon="4.66333">
        <ele>277.100006104</ele>
        <time>2015-08-11T08:54:15.443Z</time>
      </trkpt>
      <trkpt lat="45.99641" lon="4.66326">
        <ele>277</ele>
        <time>2015-08-11T08:54:16.475Z</time>
      </trkpt>
      <trkpt lat="45.99642" lon="4.66319">
        <ele>277.200012207</ele>
        <time>2015-08-11T08:54:17.443Z</time>
      </trkpt>
      <trkpt lat="45.99643" lon="4.66312">
        <ele>277.100006104</ele>
        <time>2015-08-11T08:54:18.489Z</time>
      </trkpt>
      <trkpt lat="45.99644" lon="4.66305">
        <ele>277.100006104</ele>
        <time>2015-08-11T08:54:19.446Z</time>
      </trkpt>
      <trkpt lat="45.99645" lon="4.66298">
        <ele>277.100006104</ele>
        <time>2015-08-11T08:54:20.478Z</time>
      </trkpt>
      <trkpt lat="45.99645" lon="4.66291">
        <ele>277</ele>
        <time>2015-08-11T08:54:21.443Z</time>
      </trkpt>
      <trkpt lat="45.99646" lon="4.66284">
        <ele>277.100006104</ele>
        <time>2015-08-11T08:54:22.489Z</time>
      </trkpt>
      <trkpt lat="45.99647" lon="4.66277">
        <ele>277</ele>
        <time>2015-08-11T08:54:23.442Z</time>
      </trkpt>
      <trkpt lat="45.99648" lon="4.6627">
        <ele>276.799987793</ele>
        <time>2015-08-11T08:54:24.503Z</time>
      </trkpt>
      <trkpt lat="45.99649" lon="4.66264">
        <ele>276.700012207</ele>
        <time>2015-08-11T08:54:25.444Z</time>
      </trkpt>
      <trkpt lat="45.9965" lon="4.66257">
        <ele>276.600006104</ele>
        <time>2015-08-11T08:54:26.493Z</time>
      </trkpt>
      <trkpt lat="45.99649" lon="4.6625">
        <ele>276.600006104</ele>
        <time>2015-08-11T08:54:27.459Z</time>
      </trkpt>
      <trkpt lat="45.9965" lon="4.66244">
        <ele>276.600006104</ele>
        <time>2015-08-11T08:54:28.48Z</time>
      </trkpt>
      <trkpt lat="45.99651" lon="4.66237">
        <ele>276.5</ele>
        <time>2015-08-11T08:54:29.444Z</time>
      </trkpt>
      <trkpt lat="45.99651" lon="4.6623">
        <ele>276.399993896</ele>
        <time>2015-08-11T08:54:30.474Z</time>
      </trkpt>
      <trkpt lat="45.99652" lon="4.66223">
        <ele>276.399993896</ele>
        <time>2015-08-11T08:54:31.445Z</time>
      </trkpt>
      <trkpt lat="45.99653" lon="4.66217">
        <ele>276.399993896</ele>
        <time>2015-08-11T08:54:32.491Z</time>
      </trkpt>
      <trkpt lat="45.99653" lon="4.6621">
        <ele>276.5</ele>
        <time>2015-08-11T08:54:33.443Z</time>
      </trkpt>
      <trkpt lat="45.99654" lon="4.66203">
        <ele>276.799987793</ele>
        <time>2015-08-11T08:54:34.486Z</time>
      </trkpt>
      <trkpt lat="45.99655" lon="4.66196">
        <ele>276.899993896</ele>
        <time>2015-08-11T08:54:35.443Z</time>
      </trkpt>
      <trkpt lat="45.99655" lon="4.66189">
        <ele>277.100006104</ele>
        <time>2015-08-11T08:54:36.474Z</time>
      </trkpt>
      <trkpt lat="45.99657" lon="4.66182">
        <ele>277.200012207</ele>
        <time>2015-08-11T08:54:37.446Z</time>
      </trkpt>
      <trkpt lat="45.99658" lon="4.66176">
        <ele>277.5</ele>
        <time>2015-08-11T08:54:38.475Z</time>
      </trkpt>
      <trkpt lat="45.99658" lon="4.66169">
        <ele>277.5</ele>
        <time>2015-08-11T08:54:39.443Z</time>
      </trkpt>
      <trkpt lat="45.99659" lon="4.66162">
        <ele>277.600006104</ele>
        <time>2015-08-11T08:54:40.486Z</time>
      </trkpt>
      <trkpt lat="45.9966" lon="4.66155">
        <ele>277.700012207</ele>
        <time>2015-08-11T08:54:41.443Z</time>
      </trkpt>
      <trkpt lat="45.99661" lon="4.66149">
        <ele>277.799987793</ele>
        <time>2015-08-11T08:54:42.475Z</time>
      </trkpt>
      <trkpt lat="45.99661" lon="4.66142">
        <ele>277.899993896</ele>
        <time>2015-08-11T08:54:43.483Z</time>
      </trkpt>
      <trkpt lat="45.99662" lon="4.66135">
        <ele>278</ele>
        <time>2015-08-11T08:54:44.48Z</time>
      </trkpt>
      <trkpt lat="45.99663" lon="4.66128">
        <ele>278.5</ele>
        <time>2015-08-11T08:54:45.443Z</time>
      </trkpt>
      <trkpt lat="45.99664" lon="4.66121">
        <ele>278.5</ele>
        <time>2015-08-11T08:54:46.474Z</time>
      </trkpt>
      <trkpt lat="45.99665" lon="4.66114">
        <ele>278.200012207</ele>
        <time>2015-08-11T08:54:47.443Z</time>
      </trkpt>
      <trkpt lat="45.99665" lon="4.66107">
        <ele>278</ele>
        <time>2015-08-11T08:54:48.491Z</time>
      </trkpt>
      <trkpt lat="45.99667" lon="4.66101">
        <ele>278.600006104</ele>
        <time>2015-08-11T08:54:49.433Z</time>
      </trkpt>
      <trkpt lat="45.99668" lon="4.66094">
        <ele>278.799987793</ele>
        <time>2015-08-11T08:54:50.474Z</time>
      </trkpt>
      <trkpt lat="45.99668" lon="4.66087">
        <ele>278.899993896</ele>
        <time>2015-08-11T08:54:51.443Z</time>
      </trkpt>
      <trkpt lat="45.99669" lon="4.66081">
        <ele>278.799987793</ele>
        <time>2015-08-11T08:54:52.483Z</time>
      </trkpt>
      <trkpt lat="45.99671" lon="4.66073">
        <ele>278.700012207</ele>
        <time>2015-08-11T08:54:53.438Z</time>
      </trkpt>
      <trkpt lat="45.99671" lon="4.66066">
        <ele>278.700012207</ele>
        <time>2015-08-11T08:54:54.497Z</time>
      </trkpt>
      <trkpt lat="45.99672" lon="4.66059">
        <ele>278.399993896</ele>
        <time>2015-08-11T08:54:55.447Z</time>
      </trkpt>
      <trkpt lat="45.99673" lon="4.66052">
        <ele>278.600006104</ele>
        <time>2015-08-11T08:54:56.478Z</time>
      </trkpt>
      <trkpt lat="45.99674" lon="4.66045">
        <ele>278.600006104</ele>
        <time>2015-08-11T08:54:57.43Z</time>
      </trkpt>
      <trkpt lat="45.99675" lon="4.66038">
        <ele>278.700012207</ele>
        <time>2015-08-11T08:54:58.524Z</time>
      </trkpt>
      <trkpt lat="45.99677" lon="4.66031">
        <ele>278.700012207</ele>
        <time>2015-08-11T08:54:59.442Z</time>
      </trkpt>
      <trkpt lat="45.99677" lon="4.66024">
        <ele>278.700012207</ele>
        <time>2015-08-11T08:55:00.483Z</time>
      </trkpt>
      <trkpt lat="45.99678" lon="4.66016">
        <ele>278.899993896</ele>
        <time>2015-08-11T08:55:01.442Z</time>
      </trkpt>
      <trkpt lat="45.9968" lon="4.66009">
        <ele>279.100006104</ele>
        <time>2015-08-11T08:55:02.514Z</time>
      </trkpt>
      <trkpt lat="45.99681" lon="4.66001">
        <ele>279.100006104</ele>
        <time>2015-08-11T08:55:03.443Z</time>
      </trkpt>
      <trkpt lat="45.99682" lon="4.65994">
        <ele>278.899993896</ele>
        <time>2015-08-11T08:55:04.48Z</time>
      </trkpt>
      <trkpt lat="45.99683" lon="4.65987">
        <ele>279</ele>
        <time>2015-08-11T08:55:05.442Z</time>
      </trkpt>
      <trkpt lat="45.99685" lon="4.65974">
        <ele>279</ele>
        <time>2015-08-11T08:55:07.498Z</time>
      </trkpt>
      <trkpt lat="45.99687" lon="4.65967">
        <ele>279.600006104</ele>
        <time>2015-08-11T08:55:08.446Z</time>
      </trkpt>
      <trkpt lat="45.99688" lon="4.6596">
        <ele>279.299987793</ele>
        <time>2015-08-11T08:55:09.484Z</time>
      </trkpt>
      <trkpt lat="45.99689" lon="4.65952">
        <ele>279.100006104</ele>
        <time>2015-08-11T08:55:10.446Z</time>
      </trkpt>
      <trkpt lat="45.9969" lon="4.65945">
        <ele>279</ele>
        <time>2015-08-11T08:55:11.475Z</time>
      </trkpt>
      <trkpt lat="45.99691" lon="4.65936">
        <ele>278.899993896</ele>
        <time>2015-08-11T08:55:12.474Z</time>
      </trkpt>
      <trkpt lat="45.99692" lon="4.65928">
        <ele>278.700012207</ele>
        <time>2015-08-11T08:55:13.512Z</time>
      </trkpt>
      <trkpt lat="45.99692" lon="4.65921">
        <ele>279</ele>
        <time>2015-08-11T08:55:14.449Z</time>
      </trkpt>
      <trkpt lat="45.99693" lon="4.65913">
        <ele>279.399993896</ele>
        <time>2015-08-11T08:55:15.475Z</time>
      </trkpt>
      <trkpt lat="45.99693" lon="4.65905">
        <ele>279.799987793</ele>
        <time>2015-08-11T08:55:16.443Z</time>
      </trkpt>
      <trkpt lat="45.99694" lon="4.65896">
        <ele>280.100006104</ele>
        <time>2015-08-11T08:55:17.474Z</time>
      </trkpt>
      <trkpt lat="45.99695" lon="4.65887">
        <ele>280.100006104</ele>
        <time>2015-08-11T08:55:18.447Z</time>
      </trkpt>
      <trkpt lat="45.99696" lon="4.65878">
        <ele>279.799987793</ele>
        <time>2015-08-11T08:55:19.496Z</time>
      </trkpt>
      <trkpt lat="45.99697" lon="4.65869">
        <ele>279.700012207</ele>
        <time>2015-08-11T08:55:20.446Z</time>
      </trkpt>
      <trkpt lat="45.99697" lon="4.65861">
        <ele>280.100006104</ele>
        <time>2015-08-11T08:55:21.483Z</time>
      </trkpt>
      <trkpt lat="45.99698" lon="4.65853">
        <ele>280.100006104</ele>
        <time>2015-08-11T08:55:22.448Z</time>
      </trkpt>
      <trkpt lat="45.997" lon="4.65844">
        <ele>280.299987793</ele>
        <time>2015-08-11T08:55:23.478Z</time>
      </trkpt>
      <trkpt lat="45.99702" lon="4.65836">
        <ele>280.299987793</ele>
        <time>2015-08-11T08:55:24.449Z</time>
      </trkpt>
      <trkpt lat="45.99703" lon="4.65827">
        <ele>280.200012207</ele>
        <time>2015-08-11T08:55:25.481Z</time>
      </trkpt>
      <trkpt lat="45.99704" lon="4.65819">
        <ele>280.200012207</ele>
        <time>2015-08-11T08:55:26.447Z</time>
      </trkpt>
      <trkpt lat="45.99704" lon="4.65811">
        <ele>280.100006104</ele>
        <time>2015-08-11T08:55:27.478Z</time>
      </trkpt>
      <trkpt lat="45.99705" lon="4.65804">
        <ele>279.899993896</ele>
        <time>2015-08-11T08:55:28.438Z</time>
      </trkpt>
      <trkpt lat="45.99706" lon="4.65796">
        <ele>279.799987793</ele>
        <time>2015-08-11T08:55:29.475Z</time>
      </trkpt>
      <trkpt lat="45.99707" lon="4.65788">
        <ele>279.600006104</ele>
        <time>2015-08-11T08:55:30.448Z</time>
      </trkpt>
      <trkpt lat="45.99708" lon="4.6578">
        <ele>279.799987793</ele>
        <time>2015-08-11T08:55:31.515Z</time>
      </trkpt>
      <trkpt lat="45.99708" lon="4.65773">
        <ele>280.100006104</ele>
        <time>2015-08-11T08:55:32.442Z</time>
      </trkpt>
      <trkpt lat="45.99709" lon="4.65764">
        <ele>280</ele>
        <time>2015-08-11T08:55:33.478Z</time>
      </trkpt>
      <trkpt lat="45.9971" lon="4.65756">
        <ele>280.100006104</ele>
        <time>2015-08-11T08:55:34.449Z</time>
      </trkpt>
      <trkpt lat="45.99711" lon="4.65748">
        <ele>280.200012207</ele>
        <time>2015-08-11T08:55:35.474Z</time>
      </trkpt>
      <trkpt lat="45.99712" lon="4.6574">
        <ele>280.100006104</ele>
        <time>2015-08-11T08:55:36.442Z</time>
      </trkpt>
      <trkpt lat="45.99711" lon="4.65732">
        <ele>279.799987793</ele>
        <time>2015-08-11T08:55:37.477Z</time>
      </trkpt>
      <trkpt lat="45.99712" lon="4.65725">
        <ele>279.899993896</ele>
        <time>2015-08-11T08:55:38.441Z</time>
      </trkpt>
      <trkpt lat="45.99713" lon="4.65718">
        <ele>279.700012207</ele>
        <time>2015-08-11T08:55:39.479Z</time>
      </trkpt>
      <trkpt lat="45.99714" lon="4.65709">
        <ele>279.600006104</ele>
        <time>2015-08-11T08:55:40.454Z</time>
      </trkpt>
      <trkpt lat="45.99716" lon="4.65701">
        <ele>279.299987793</ele>
        <time>2015-08-11T08:55:41.477Z</time>
      </trkpt>
      <trkpt lat="45.99716" lon="4.65693">
        <ele>279.200012207</ele>
        <time>2015-08-11T08:55:42.443Z</time>
      </trkpt>
      <trkpt lat="45.99718" lon="4.65686">
        <ele>279.399993896</ele>
        <time>2015-08-11T08:55:43.48Z</time>
      </trkpt>
      <trkpt lat="45.99719" lon="4.65678">
        <ele>279.700012207</ele>
        <time>2015-08-11T08:55:44.452Z</time>
      </trkpt>
      <trkpt lat="45.99719" lon="4.65671">
        <ele>280</ele>
        <time>2015-08-11T08:55:45.478Z</time>
      </trkpt>
      <trkpt lat="45.9972" lon="4.65664">
        <ele>280.200012207</ele>
        <time>2015-08-11T08:55:46.443Z</time>
      </trkpt>
      <trkpt lat="45.9972" lon="4.65656">
        <ele>280.399993896</ele>
        <time>2015-08-11T08:55:47.526Z</time>
      </trkpt>
      <trkpt lat="45.99721" lon="4.65649">
        <ele>280.5</ele>
        <time>2015-08-11T08:55:48.443Z</time>
      </trkpt>
      <trkpt lat="45.99722" lon="4.65642">
        <ele>280.600006104</ele>
        <time>2015-08-11T08:55:49.521Z</time>
      </trkpt>
      <trkpt lat="45.99723" lon="4.65635">
        <ele>280.899993896</ele>
        <time>2015-08-11T08:55:50.443Z</time>
      </trkpt>
      <trkpt lat="45.99724" lon="4.65628">
        <ele>281.200012207</ele>
        <time>2015-08-11T08:55:51.479Z</time>
      </trkpt>
      <trkpt lat="45.99724" lon="4.65621">
        <ele>281.200012207</ele>
        <time>2015-08-11T08:55:52.444Z</time>
      </trkpt>
      <trkpt lat="45.99726" lon="4.65614">
        <ele>281.600006104</ele>
        <time>2015-08-11T08:55:53.483Z</time>
      </trkpt>
      <trkpt lat="45.99727" lon="4.65607">
        <ele>281.899993896</ele>
        <time>2015-08-11T08:55:54.456Z</time>
      </trkpt>
      <trkpt lat="45.99728" lon="4.656">
        <ele>282.200012207</ele>
        <time>2015-08-11T08:55:55.477Z</time>
      </trkpt>
      <trkpt lat="45.99728" lon="4.65593">
        <ele>282.299987793</ele>
        <time>2015-08-11T08:55:56.445Z</time>
      </trkpt>
      <trkpt lat="45.99729" lon="4.65586">
        <ele>282.299987793</ele>
        <time>2015-08-11T08:55:57.475Z</time>
      </trkpt>
      <trkpt lat="45.99729" lon="4.65579">
        <ele>282.399993896</ele>
        <time>2015-08-11T08:55:58.473Z</time>
      </trkpt>
      <trkpt lat="45.9973" lon="4.65572">
        <ele>282.600006104</ele>
        <time>2015-08-11T08:55:59.474Z</time>
      </trkpt>
      <trkpt lat="45.99731" lon="4.65564">
        <ele>282.5</ele>
        <time>2015-08-11T08:56:00.431Z</time>
      </trkpt>
      <trkpt lat="45.99732" lon="4.65557">
        <ele>282.600006104</ele>
        <time>2015-08-11T08:56:01.493Z</time>
      </trkpt>
      <trkpt lat="45.99733" lon="4.6555">
        <ele>282.600006104</ele>
        <time>2015-08-11T08:56:02.443Z</time>
      </trkpt>
      <trkpt lat="45.99734" lon="4.65543">
        <ele>282.5</ele>
        <time>2015-08-11T08:56:03.474Z</time>
      </trkpt>
      <trkpt lat="45.99735" lon="4.65536">
        <ele>282.600006104</ele>
        <time>2015-08-11T08:56:04.454Z</time>
      </trkpt>
      <trkpt lat="45.99736" lon="4.65529">
        <ele>282.600006104</ele>
        <time>2015-08-11T08:56:05.477Z</time>
      </trkpt>
      <trkpt lat="45.99736" lon="4.65523">
        <ele>282.600006104</ele>
        <time>2015-08-11T08:56:06.443Z</time>
      </trkpt>
      <trkpt lat="45.99737" lon="4.65515">
        <ele>282.799987793</ele>
        <time>2015-08-11T08:56:07.564Z</time>
      </trkpt>
      <trkpt lat="45.99737" lon="4.65508">
        <ele>282.700012207</ele>
        <time>2015-08-11T08:56:08.444Z</time>
      </trkpt>
      <trkpt lat="45.99738" lon="4.65502">
        <ele>282.799987793</ele>
        <time>2015-08-11T08:56:09.49Z</time>
      </trkpt>
      <trkpt lat="45.99739" lon="4.65495">
        <ele>282.799987793</ele>
        <time>2015-08-11T08:56:10.442Z</time>
      </trkpt>
      <trkpt lat="45.99739" lon="4.65487">
        <ele>282.700012207</ele>
        <time>2015-08-11T08:56:11.478Z</time>
      </trkpt>
      <trkpt lat="45.9974" lon="4.6548">
        <ele>282.700012207</ele>
        <time>2015-08-11T08:56:12.429Z</time>
      </trkpt>
      <trkpt lat="45.9974" lon="4.65473">
        <ele>282.399993896</ele>
        <time>2015-08-11T08:56:13.48Z</time>
      </trkpt>
      <trkpt lat="45.9974" lon="4.65467">
        <ele>282.299987793</ele>
        <time>2015-08-11T08:56:14.453Z</time>
      </trkpt>
      <trkpt lat="45.99741" lon="4.6546">
        <ele>282.399993896</ele>
        <time>2015-08-11T08:56:15.475Z</time>
      </trkpt>
      <trkpt lat="45.99742" lon="4.65454">
        <ele>282.5</ele>
        <time>2015-08-11T08:56:16.443Z</time>
      </trkpt>
      <trkpt lat="45.99743" lon="4.65447">
        <ele>282.399993896</ele>
        <time>2015-08-11T08:56:17.495Z</time>
      </trkpt>
      <trkpt lat="45.99743" lon="4.65441">
        <ele>282.299987793</ele>
        <time>2015-08-11T08:56:18.438Z</time>
      </trkpt>
      <trkpt lat="45.99744" lon="4.65434">
        <ele>282.399993896</ele>
        <time>2015-08-11T08:56:19.498Z</time>
      </trkpt>
      <trkpt lat="45.99745" lon="4.65427">
        <ele>282.399993896</ele>
        <time>2015-08-11T08:56:20.443Z</time>
      </trkpt>
      <trkpt lat="45.99746" lon="4.65419">
        <ele>282.5</ele>
        <time>2015-08-11T08:56:21.478Z</time>
      </trkpt>
      <trkpt lat="45.99747" lon="4.65412">
        <ele>282.600006104</ele>
        <time>2015-08-11T08:56:22.439Z</time>
      </trkpt>
      <trkpt lat="45.99748" lon="4.65406">
        <ele>282.899993896</ele>
        <time>2015-08-11T08:56:23.474Z</time>
      </trkpt>
      <trkpt lat="45.99749" lon="4.654">
        <ele>283.299987793</ele>
        <time>2015-08-11T08:56:24.453Z</time>
      </trkpt>
      <trkpt lat="45.9975" lon="4.65393">
        <ele>283.700012207</ele>
        <time>2015-08-11T08:56:25.475Z</time>
      </trkpt>
      <trkpt lat="45.99751" lon="4.65386">
        <ele>283.700012207</ele>
        <time>2015-08-11T08:56:26.443Z</time>
      </trkpt>
      <trkpt lat="45.99752" lon="4.65374">
        <ele>283.5</ele>
        <time>2015-08-11T08:56:28.473Z</time>
      </trkpt>
      <trkpt lat="45.99753" lon="4.65367">
        <ele>283.899993896</ele>
        <time>2015-08-11T08:56:29.442Z</time>
      </trkpt>
      <trkpt lat="45.99754" lon="4.65361">
        <ele>284.399993896</ele>
        <time>2015-08-11T08:56:30.487Z</time>
      </trkpt>
      <trkpt lat="45.99755" lon="4.65354">
        <ele>284.299987793</ele>
        <time>2015-08-11T08:56:31.445Z</time>
      </trkpt>
      <trkpt lat="45.99756" lon="4.65348">
        <ele>284.399993896</ele>
        <time>2015-08-11T08:56:32.477Z</time>
      </trkpt>
      <trkpt lat="45.99757" lon="4.65341">
        <ele>284</ele>
        <time>2015-08-11T08:56:33.462Z</time>
      </trkpt>
      <trkpt lat="45.99758" lon="4.65329">
        <ele>284.5</ele>
        <time>2015-08-11T08:56:35.473Z</time>
      </trkpt>
      <trkpt lat="45.99758" lon="4.65323">
        <ele>284.799987793</ele>
        <time>2015-08-11T08:56:36.443Z</time>
      </trkpt>
      <trkpt lat="45.9976" lon="4.65316">
        <ele>285.200012207</ele>
        <time>2015-08-11T08:56:37.49Z</time>
      </trkpt>
      <trkpt lat="45.9976" lon="4.65309">
        <ele>285.100006104</ele>
        <time>2015-08-11T08:56:38.442Z</time>
      </trkpt>
      <trkpt lat="45.99761" lon="4.65302">
        <ele>284.5</ele>
        <time>2015-08-11T08:56:39.483Z</time>
      </trkpt>
      <trkpt lat="45.99762" lon="4.65294">
        <ele>284.5</ele>
        <time>2015-08-11T08:56:40.442Z</time>
      </trkpt>
      <trkpt lat="45.99763" lon="4.65287">
        <ele>284.5</ele>
        <time>2015-08-11T08:56:41.477Z</time>
      </trkpt>
      <trkpt lat="45.99764" lon="4.6528">
        <ele>284.100006104</ele>
        <time>2015-08-11T08:56:42.447Z</time>
      </trkpt>
      <trkpt lat="45.99765" lon="4.65273">
        <ele>284</ele>
        <time>2015-08-11T08:56:43.483Z</time>
      </trkpt>
      <trkpt lat="45.99765" lon="4.65266">
        <ele>284</ele>
        <time>2015-08-11T08:56:44.464Z</time>
      </trkpt>
      <trkpt lat="45.99766" lon="4.65259">
        <ele>284</ele>
        <time>2015-08-11T08:56:45.493Z</time>
      </trkpt>
      <trkpt lat="45.99768" lon="4.65252">
        <ele>283.799987793</ele>
        <time>2015-08-11T08:56:46.443Z</time>
      </trkpt>
      <trkpt lat="45.9977" lon="4.65246">
        <ele>283.700012207</ele>
        <time>2015-08-11T08:56:47.475Z</time>
      </trkpt>
      <trkpt lat="45.9977" lon="4.65239">
        <ele>283.899993896</ele>
        <time>2015-08-11T08:56:48.438Z</time>
      </trkpt>
      <trkpt lat="45.99771" lon="4.65232">
        <ele>283.899993896</ele>
        <time>2015-08-11T08:56:49.48Z</time>
      </trkpt>
      <trkpt lat="45.99772" lon="4.65226">
        <ele>284.200012207</ele>
        <time>2015-08-11T08:56:50.442Z</time>
      </trkpt>
      <trkpt lat="45.99774" lon="4.65214">
        <ele>284.600006104</ele>
        <time>2015-08-11T08:56:52.486Z</time>
      </trkpt>
      <trkpt lat="45.99773" lon="4.65209">
        <ele>284.700012207</ele>
        <time>2015-08-11T08:56:53.442Z</time>
      </trkpt>
      <trkpt lat="45.99773" lon="4.65196">
        <ele>285.200012207</ele>
        <time>2015-08-11T08:56:55.476Z</time>
      </trkpt>
      <trkpt lat="45.99774" lon="4.65189">
        <ele>285.399993896</ele>
        <time>2015-08-11T08:56:56.441Z</time>
      </trkpt>
      <trkpt lat="45.99776" lon="4.65182">
        <ele>285.600006104</ele>
        <time>2015-08-11T08:56:57.477Z</time>
      </trkpt>
      <trkpt lat="45.99777" lon="4.65175">
        <ele>285.799987793</ele>
        <time>2015-08-11T08:56:58.443Z</time>
      </trkpt>
      <trkpt lat="45.99779" lon="4.65168">
        <ele>285.799987793</ele>
        <time>2015-08-11T08:56:59.489Z</time>
      </trkpt>
      <trkpt lat="45.9978" lon="4.65161">
        <ele>285.700012207</ele>
        <time>2015-08-11T08:57:00.462Z</time>
      </trkpt>
      <trkpt lat="45.99782" lon="4.65154">
        <ele>285.600006104</ele>
        <time>2015-08-11T08:57:01.491Z</time>
      </trkpt>
      <trkpt lat="45.99783" lon="4.65147">
        <ele>285.600006104</ele>
        <time>2015-08-11T08:57:02.441Z</time>
      </trkpt>
      <trkpt lat="45.99783" lon="4.6514">
        <ele>285.600006104</ele>
        <time>2015-08-11T08:57:03.474Z</time>
      </trkpt>
      <trkpt lat="45.99785" lon="4.65134">
        <ele>285.600006104</ele>
        <time>2015-08-11T08:57:04.484Z</time>
      </trkpt>
      <trkpt lat="45.99785" lon="4.65127">
        <ele>285.299987793</ele>
        <time>2015-08-11T08:57:05.475Z</time>
      </trkpt>
      <trkpt lat="45.99786" lon="4.6512">
        <ele>285.200012207</ele>
        <time>2015-08-11T08:57:06.438Z</time>
      </trkpt>
      <trkpt lat="45.99787" lon="4.65114">
        <ele>285.5</ele>
        <time>2015-08-11T08:57:07.48Z</time>
      </trkpt>
      <trkpt lat="45.99788" lon="4.65107">
        <ele>285.700012207</ele>
        <time>2015-08-11T08:57:08.443Z</time>
      </trkpt>
      <trkpt lat="45.99789" lon="4.651">
        <ele>285.600006104</ele>
        <time>2015-08-11T08:57:09.478Z</time>
      </trkpt>
      <trkpt lat="45.99791" lon="4.65094">
        <ele>285.5</ele>
        <time>2015-08-11T08:57:10.442Z</time>
      </trkpt>
      <trkpt lat="45.99791" lon="4.65087">
        <ele>285.700012207</ele>
        <time>2015-08-11T08:57:11.473Z</time>
      </trkpt>
      <trkpt lat="45.99792" lon="4.65081">
        <ele>285.600006104</ele>
        <time>2015-08-11T08:57:12.443Z</time>
      </trkpt>
      <trkpt lat="45.99792" lon="4.65074">
        <ele>285.600006104</ele>
        <time>2015-08-11T08:57:13.488Z</time>
      </trkpt>
      <trkpt lat="45.99793" lon="4.65068">
        <ele>285.700012207</ele>
        <time>2015-08-11T08:57:14.466Z</time>
      </trkpt>
      <trkpt lat="45.99794" lon="4.65061">
        <ele>285.899993896</ele>
        <time>2015-08-11T08:57:15.478Z</time>
      </trkpt>
      <trkpt lat="45.99794" lon="4.65055">
        <ele>286</ele>
        <time>2015-08-11T08:57:16.443Z</time>
      </trkpt>
      <trkpt lat="45.99796" lon="4.65042">
        <ele>285.899993896</ele>
        <time>2015-08-11T08:57:18.475Z</time>
      </trkpt>
      <trkpt lat="45.99797" lon="4.65037">
        <ele>286.100006104</ele>
        <time>2015-08-11T08:57:19.444Z</time>
      </trkpt>
      <trkpt lat="45.99798" lon="4.65025">
        <ele>286.200012207</ele>
        <time>2015-08-11T08:57:21.475Z</time>
      </trkpt>
      <trkpt lat="45.99799" lon="4.65019">
        <ele>286.600006104</ele>
        <time>2015-08-11T08:57:22.442Z</time>
      </trkpt>
      <trkpt lat="45.998" lon="4.65013">
        <ele>287.600006104</ele>
        <time>2015-08-11T08:57:23.48Z</time>
      </trkpt>
      <trkpt lat="45.99802" lon="4.65006">
        <ele>287.799987793</ele>
        <time>2015-08-11T08:57:24.469Z</time>
      </trkpt>
      <trkpt lat="45.99804" lon="4.64993">
        <ele>288.600006104</ele>
        <time>2015-08-11T08:57:26.477Z</time>
      </trkpt>
      <trkpt lat="45.99805" lon="4.64987">
        <ele>289</ele>
        <time>2015-08-11T08:57:27.442Z</time>
      </trkpt>
      <trkpt lat="45.99807" lon="4.64975">
        <ele>289.899993896</ele>
        <time>2015-08-11T08:57:29.475Z</time>
      </trkpt>
      <trkpt lat="45.99808" lon="4.64969">
        <ele>290.200012207</ele>
        <time>2015-08-11T08:57:30.441Z</time>
      </trkpt>
      <trkpt lat="45.9981" lon="4.64956">
        <ele>290.299987793</ele>
        <time>2015-08-11T08:57:32.533Z</time>
      </trkpt>
      <trkpt lat="45.99812" lon="4.6495">
        <ele>290.700012207</ele>
        <time>2015-08-11T08:57:33.443Z</time>
      </trkpt>
      <trkpt lat="45.99814" lon="4.64937">
        <ele>291.200012207</ele>
        <time>2015-08-11T08:57:35.491Z</time>
      </trkpt>
      <trkpt lat="45.99815" lon="4.64931">
        <ele>291.200012207</ele>
        <time>2015-08-11T08:57:36.447Z</time>
      </trkpt>
      <trkpt lat="45.99817" lon="4.64919">
        <ele>291.700012207</ele>
        <time>2015-08-11T08:57:38.476Z</time>
      </trkpt>
      <trkpt lat="45.99818" lon="4.64913">
        <ele>292.100006104</ele>
        <time>2015-08-11T08:57:39.443Z</time>
      </trkpt>
      <trkpt lat="45.9982" lon="4.64903">
        <ele>292.299987793</ele>
        <time>2015-08-11T08:57:41.474Z</time>
      </trkpt>
      <trkpt lat="45.99821" lon="4.64899">
        <ele>292.399993896</ele>
        <time>2015-08-11T08:57:42.441Z</time>
      </trkpt>
      <trkpt lat="45.99821" lon="4.64889">
        <ele>293</ele>
        <time>2015-08-11T08:57:44.502Z</time>
      </trkpt>
      <trkpt lat="45.99822" lon="4.64885">
        <ele>293.200012207</ele>
        <time>2015-08-11T08:57:45.443Z</time>
      </trkpt>
      <trkpt lat="45.99823" lon="4.64875">
        <ele>293.700012207</ele>
        <time>2015-08-11T08:57:47.477Z</time>
      </trkpt>
      <trkpt lat="45.99824" lon="4.64869">
        <ele>294.100006104</ele>
        <time>2015-08-11T08:57:48.429Z</time>
      </trkpt>
      <trkpt lat="45.99825" lon="4.64856">
        <ele>294.299987793</ele>
        <time>2015-08-11T08:57:50.473Z</time>
      </trkpt>
      <trkpt lat="45.99826" lon="4.64851">
        <ele>294.5</ele>
        <time>2015-08-11T08:57:51.442Z</time>
      </trkpt>
      <trkpt lat="45.99828" lon="4.6484">
        <ele>295</ele>
        <time>2015-08-11T08:57:53.494Z</time>
      </trkpt>
      <trkpt lat="45.99829" lon="4.64835">
        <ele>295.200012207</ele>
        <time>2015-08-11T08:57:54.472Z</time>
      </trkpt>
      <trkpt lat="45.99831" lon="4.64824">
        <ele>295.700012207</ele>
        <time>2015-08-11T08:57:56.477Z</time>
      </trkpt>
      <trkpt lat="45.99832" lon="4.64817">
        <ele>295.399993896</ele>
        <time>2015-08-11T08:57:57.44Z</time>
      </trkpt>
      <trkpt lat="45.99833" lon="4.6481">
        <ele>295</ele>
        <time>2015-08-11T08:57:58.477Z</time>
      </trkpt>
      <trkpt lat="45.99835" lon="4.64803">
        <ele>294.899993896</ele>
        <time>2015-08-11T08:57:59.442Z</time>
      </trkpt>
      <trkpt lat="45.99837" lon="4.64791">
        <ele>295.200012207</ele>
        <time>2015-08-11T08:58:01.507Z</time>
      </trkpt>
      <trkpt lat="45.99838" lon="4.64786">
        <ele>295.100006104</ele>
        <time>2015-08-11T08:58:02.43Z</time>
      </trkpt>
      <trkpt lat="45.9984" lon="4.64775">
        <ele>294.899993896</ele>
        <time>2015-08-11T08:58:04.53Z</time>
      </trkpt>
      <trkpt lat="45.99841" lon="4.6477">
        <ele>294.299987793</ele>
        <time>2015-08-11T08:58:05.441Z</time>
      </trkpt>
      <trkpt lat="45.99842" lon="4.64759">
        <ele>293.399993896</ele>
        <time>2015-08-11T08:58:07.492Z</time>
      </trkpt>
      <trkpt lat="45.99843" lon="4.64753">
        <ele>292.799987793</ele>
        <time>2015-08-11T08:58:08.441Z</time>
      </trkpt>
      <trkpt lat="45.99844" lon="4.6474">
        <ele>292.100006104</ele>
        <time>2015-08-11T08:58:10.48Z</time>
      </trkpt>
      <trkpt lat="45.99845" lon="4.64733">
        <ele>292.100006104</ele>
        <time>2015-08-11T08:58:11.443Z</time>
      </trkpt>
      <trkpt lat="45.99845" lon="4.64727">
        <ele>292.100006104</ele>
        <time>2015-08-11T08:58:12.481Z</time>
      </trkpt>
      <trkpt lat="45.99846" lon="4.6472">
        <ele>292</ele>
        <time>2015-08-11T08:58:13.444Z</time>
      </trkpt>
      <trkpt lat="45.99846" lon="4.64714">
        <ele>292.200012207</ele>
        <time>2015-08-11T08:58:14.498Z</time>
      </trkpt>
      <trkpt lat="45.99847" lon="4.64707">
        <ele>292.200012207</ele>
        <time>2015-08-11T08:58:15.443Z</time>
      </trkpt>
      <trkpt lat="45.99847" lon="4.647">
        <ele>292.299987793</ele>
        <time>2015-08-11T08:58:16.473Z</time>
      </trkpt>
      <trkpt lat="45.99848" lon="4.64694">
        <ele>292</ele>
        <time>2015-08-11T08:58:17.442Z</time>
      </trkpt>
      <trkpt lat="45.99849" lon="4.64687">
        <ele>292</ele>
        <time>2015-08-11T08:58:18.481Z</time>
      </trkpt>
      <trkpt lat="45.9985" lon="4.6468">
        <ele>292.799987793</ele>
        <time>2015-08-11T08:58:19.445Z</time>
      </trkpt>
      <trkpt lat="45.99851" lon="4.64673">
        <ele>292.5</ele>
        <time>2015-08-11T08:58:20.488Z</time>
      </trkpt>
      <trkpt lat="45.99852" lon="4.64666">
        <ele>292.600006104</ele>
        <time>2015-08-11T08:58:21.442Z</time>
      </trkpt>
      <trkpt lat="45.99853" lon="4.64658">
        <ele>292.799987793</ele>
        <time>2015-08-11T08:58:22.472Z</time>
      </trkpt>
      <trkpt lat="45.99854" lon="4.64651">
        <ele>292.600006104</ele>
        <time>2015-08-11T08:58:23.443Z</time>
      </trkpt>
      <trkpt lat="45.99855" lon="4.64644">
        <ele>292.5</ele>
        <time>2015-08-11T08:58:24.51Z</time>
      </trkpt>
      <trkpt lat="45.99856" lon="4.64638">
        <ele>292.399993896</ele>
        <time>2015-08-11T08:58:25.443Z</time>
      </trkpt>
      <trkpt lat="45.99859" lon="4.64627">
        <ele>293.299987793</ele>
        <time>2015-08-11T08:58:27.477Z</time>
      </trkpt>
      <trkpt lat="45.9986" lon="4.64621">
        <ele>293.600006104</ele>
        <time>2015-08-11T08:58:28.498Z</time>
      </trkpt>
      <trkpt lat="45.99861" lon="4.64614">
        <ele>294</ele>
        <time>2015-08-11T08:58:29.521Z</time>
      </trkpt>
      <trkpt lat="45.99862" lon="4.64608">
        <ele>294.399993896</ele>
        <time>2015-08-11T08:58:30.443Z</time>
      </trkpt>
      <trkpt lat="45.99863" lon="4.64596">
        <ele>294.799987793</ele>
        <time>2015-08-11T08:58:32.473Z</time>
      </trkpt>
      <trkpt lat="45.99864" lon="4.6459">
        <ele>294.899993896</ele>
        <time>2015-08-11T08:58:33.442Z</time>
      </trkpt>
      <trkpt lat="45.99865" lon="4.64578">
        <ele>295.299987793</ele>
        <time>2015-08-11T08:58:35.515Z</time>
      </trkpt>
      <trkpt lat="45.99866" lon="4.64572">
        <ele>295.5</ele>
        <time>2015-08-11T08:58:36.441Z</time>
      </trkpt>
      <trkpt lat="45.99868" lon="4.6456">
        <ele>295.399993896</ele>
        <time>2015-08-11T08:58:38.473Z</time>
      </trkpt>
      <trkpt lat="45.99868" lon="4.64554">
        <ele>295.200012207</ele>
        <time>2015-08-11T08:58:39.441Z</time>
      </trkpt>
      <trkpt lat="45.9987" lon="4.64542">
        <ele>295</ele>
        <time>2015-08-11T08:58:42.481Z</time>
      </trkpt>
      <trkpt lat="45.99871" lon="4.64535">
        <ele>295.100006104</ele>
        <time>2015-08-11T08:58:43.443Z</time>
      </trkpt>
      <trkpt lat="45.99871" lon="4.64522">
        <ele>294.899993896</ele>
        <time>2015-08-11T08:58:45.475Z</time>
      </trkpt>
      <trkpt lat="45.99873" lon="4.64515">
        <ele>296</ele>
        <time>2015-08-11T08:58:46.442Z</time>
      </trkpt>
      <trkpt lat="45.99874" lon="4.64509">
        <ele>296.5</ele>
        <time>2015-08-11T08:58:47.503Z</time>
      </trkpt>
      <trkpt lat="45.99875" lon="4.64502">
        <ele>296.600006104</ele>
        <time>2015-08-11T08:58:48.44Z</time>
      </trkpt>
      <trkpt lat="45.99877" lon="4.6449">
        <ele>297.299987793</ele>
        <time>2015-08-11T08:58:50.477Z</time>
      </trkpt>
      <trkpt lat="45.99878" lon="4.64484">
        <ele>297.700012207</ele>
        <time>2015-08-11T08:58:51.442Z</time>
      </trkpt>
      <trkpt lat="45.99879" lon="4.64478">
        <ele>298</ele>
        <time>2015-08-11T08:58:52.48Z</time>
      </trkpt>
      <trkpt lat="45.99879" lon="4.64471">
        <ele>298.100006104</ele>
        <time>2015-08-11T08:58:53.433Z</time>
      </trkpt>
      <trkpt lat="45.99878" lon="4.64463">
        <ele>297.700012207</ele>
        <time>2015-08-11T08:58:54.529Z</time>
      </trkpt>
      <trkpt lat="45.99879" lon="4.64455">
        <ele>297.799987793</ele>
        <time>2015-08-11T08:58:55.443Z</time>
      </trkpt>
      <trkpt lat="45.9988" lon="4.64444">
        <ele>297.799987793</ele>
        <time>2015-08-11T08:58:57.658Z</time>
      </trkpt>
      <trkpt lat="45.99882" lon="4.64439">
        <ele>297.799987793</ele>
        <time>2015-08-11T08:58:58.453Z</time>
      </trkpt>
      <trkpt lat="45.99883" lon="4.64431">
        <ele>297.299987793</ele>
        <time>2015-08-11T08:59:00.524Z</time>
      </trkpt>
      <trkpt lat="45.99884" lon="4.64426">
        <ele>297.299987793</ele>
        <time>2015-08-11T08:59:01.459Z</time>
      </trkpt>
      <trkpt lat="45.99886" lon="4.64415">
        <ele>297.600006104</ele>
        <time>2015-08-11T08:59:03.494Z</time>
      </trkpt>
      <trkpt lat="45.99887" lon="4.6441">
        <ele>297.799987793</ele>
        <time>2015-08-11T08:59:04.472Z</time>
      </trkpt>
      <trkpt lat="45.99889" lon="4.64399">
        <ele>298.5</ele>
        <time>2015-08-11T08:59:06.584Z</time>
      </trkpt>
      <trkpt lat="45.9989" lon="4.64394">
        <ele>298.700012207</ele>
        <time>2015-08-11T08:59:07.468Z</time>
      </trkpt>
      <trkpt lat="45.99892" lon="4.64383">
        <ele>298.899993896</ele>
        <time>2015-08-11T08:59:10.162Z</time>
      </trkpt>
      <trkpt lat="45.99893" lon="4.64378">
        <ele>298.899993896</ele>
        <time>2015-08-11T08:59:10.969Z</time>
      </trkpt>
      <trkpt lat="45.99898" lon="4.64368">
        <ele>299.100006104</ele>
        <time>2015-08-11T08:59:12.576Z</time>
      </trkpt>
      <trkpt lat="45.999" lon="4.64366">
        <ele>299.200012207</ele>
        <time>2015-08-11T08:59:13.496Z</time>
      </trkpt>
      <trkpt lat="45.99902" lon="4.64355">
        <ele>299.100006104</ele>
        <time>2015-08-11T08:59:15.528Z</time>
      </trkpt>
      <trkpt lat="45.99903" lon="4.64351">
        <ele>298.700012207</ele>
        <time>2015-08-11T08:59:16.476Z</time>
      </trkpt>
      <trkpt lat="45.99905" lon="4.6434">
        <ele>298.200012207</ele>
        <time>2015-08-11T08:59:18.545Z</time>
      </trkpt>
      <trkpt lat="45.99906" lon="4.64334">
        <ele>298</ele>
        <time>2015-08-11T08:59:19.502Z</time>
      </trkpt>
      <trkpt lat="45.99906" lon="4.64324">
        <ele>297.899993896</ele>
        <time>2015-08-11T08:59:22.536Z</time>
      </trkpt>
      <trkpt lat="45.99907" lon="4.64318">
        <ele>297.5</ele>
        <time>2015-08-11T08:59:23.45Z</time>
      </trkpt>
      <trkpt lat="45.99907" lon="4.64306">
        <ele>297.100006104</ele>
        <time>2015-08-11T08:59:25.523Z</time>
      </trkpt>
      <trkpt lat="45.99907" lon="4.64299">
        <ele>297.100006104</ele>
        <time>2015-08-11T08:59:26.456Z</time>
      </trkpt>
      <trkpt lat="45.99909" lon="4.64288">
        <ele>297.100006104</ele>
        <time>2015-08-11T08:59:28.486Z</time>
      </trkpt>
      <trkpt lat="45.99907" lon="4.64282">
        <ele>297.299987793</ele>
        <time>2015-08-11T08:59:29.446Z</time>
      </trkpt>
      <trkpt lat="45.99908" lon="4.64276">
        <ele>297.299987793</ele>
        <time>2015-08-11T08:59:30.551Z</time>
      </trkpt>
      <trkpt lat="45.99909" lon="4.64269">
        <ele>297.200012207</ele>
        <time>2015-08-11T08:59:31.456Z</time>
      </trkpt>
      <trkpt lat="45.99912" lon="4.64257">
        <ele>297.100006104</ele>
        <time>2015-08-11T08:59:33.635Z</time>
      </trkpt>
      <trkpt lat="45.99912" lon="4.64252">
        <ele>297.100006104</ele>
        <time>2015-08-11T08:59:34.459Z</time>
      </trkpt>
      <trkpt lat="45.99913" lon="4.6424">
        <ele>297.100006104</ele>
        <time>2015-08-11T08:59:36.528Z</time>
      </trkpt>
      <trkpt lat="45.99914" lon="4.64234">
        <ele>297</ele>
        <time>2015-08-11T08:59:37.495Z</time>
      </trkpt>
      <trkpt lat="45.99915" lon="4.64222">
        <ele>297.399993896</ele>
        <time>2015-08-11T08:59:39.483Z</time>
      </trkpt>
      <trkpt lat="45.99916" lon="4.64216">
        <ele>297.399993896</ele>
        <time>2015-08-11T08:59:40.452Z</time>
      </trkpt>
      <trkpt lat="45.99917" lon="4.64206">
        <ele>297</ele>
        <time>2015-08-11T08:59:42.482Z</time>
      </trkpt>
      <trkpt lat="45.99918" lon="4.64201">
        <ele>296.700012207</ele>
        <time>2015-08-11T08:59:43.452Z</time>
      </trkpt>
      <trkpt lat="45.99919" lon="4.6419">
        <ele>296.100006104</ele>
        <time>2015-08-11T08:59:45.495Z</time>
      </trkpt>
      <trkpt lat="45.9992" lon="4.64185">
        <ele>296</ele>
        <time>2015-08-11T08:59:46.448Z</time>
      </trkpt>
      <trkpt lat="45.99923" lon="4.64173">
        <ele>295.700012207</ele>
        <time>2015-08-11T08:59:48.486Z</time>
      </trkpt>
      <trkpt lat="45.99924" lon="4.64166">
        <ele>296.799987793</ele>
        <time>2015-08-11T08:59:49.456Z</time>
      </trkpt>
      <trkpt lat="45.99926" lon="4.64154">
        <ele>297.5</ele>
        <time>2015-08-11T08:59:51.52Z</time>
      </trkpt>
      <trkpt lat="45.99926" lon="4.64148">
        <ele>298</ele>
        <time>2015-08-11T08:59:52.445Z</time>
      </trkpt>
      <trkpt lat="45.99927" lon="4.64136">
        <ele>298.200012207</ele>
        <time>2015-08-11T08:59:54.509Z</time>
      </trkpt>
      <trkpt lat="45.99927" lon="4.6413">
        <ele>298.299987793</ele>
        <time>2015-08-11T08:59:55.456Z</time>
      </trkpt>
      <trkpt lat="45.99928" lon="4.64124">
        <ele>298.399993896</ele>
        <time>2015-08-11T08:59:56.502Z</time>
      </trkpt>
      <trkpt lat="45.9993" lon="4.64117">
        <ele>298.899993896</ele>
        <time>2015-08-11T08:59:57.445Z</time>
      </trkpt>
      <trkpt lat="45.99932" lon="4.64105">
        <ele>299.600006104</ele>
        <time>2015-08-11T08:59:59.525Z</time>
      </trkpt>
      <trkpt lat="45.99933" lon="4.641">
        <ele>299.600006104</ele>
        <time>2015-08-11T09:00:00.584Z</time>
      </trkpt>
      <trkpt lat="45.99936" lon="4.64088">
        <ele>300.100006104</ele>
        <time>2015-08-11T09:00:02.485Z</time>
      </trkpt>
      <trkpt lat="45.99936" lon="4.64082">
        <ele>299.700012207</ele>
        <time>2015-08-11T09:00:03.451Z</time>
      </trkpt>
      <trkpt lat="45.99938" lon="4.6407">
        <ele>300.299987793</ele>
        <time>2015-08-11T09:00:05.483Z</time>
      </trkpt>
      <trkpt lat="45.99939" lon="4.64066">
        <ele>300.5</ele>
        <time>2015-08-11T09:00:06.445Z</time>
      </trkpt>
      <trkpt lat="45.9994" lon="4.64055">
        <ele>301</ele>
        <time>2015-08-11T09:00:08.479Z</time>
      </trkpt>
      <trkpt lat="45.99942" lon="4.64049">
        <ele>301.100006104</ele>
        <time>2015-08-11T09:00:09.453Z</time>
      </trkpt>
      <trkpt lat="45.99944" lon="4.64037">
        <ele>301.399993896</ele>
        <time>2015-08-11T09:00:11.535Z</time>
      </trkpt>
      <trkpt lat="45.99945" lon="4.64031">
        <ele>301.700012207</ele>
        <time>2015-08-11T09:00:12.451Z</time>
      </trkpt>
      <trkpt lat="45.99946" lon="4.64019">
        <ele>302.200012207</ele>
        <time>2015-08-11T09:00:14.499Z</time>
      </trkpt>
      <trkpt lat="45.99946" lon="4.64013">
        <ele>302.399993896</ele>
        <time>2015-08-11T09:00:15.454Z</time>
      </trkpt>
      <trkpt lat="45.99946" lon="4.64001">
        <ele>303</ele>
        <time>2015-08-11T09:00:17.476Z</time>
      </trkpt>
      <trkpt lat="45.99946" lon="4.63995">
        <ele>303.200012207</ele>
        <time>2015-08-11T09:00:18.443Z</time>
      </trkpt>
      <trkpt lat="45.99944" lon="4.63983">
        <ele>303.899993896</ele>
        <time>2015-08-11T09:00:20.479Z</time>
      </trkpt>
      <trkpt lat="45.99945" lon="4.63977">
        <ele>304.299987793</ele>
        <time>2015-08-11T09:00:21.443Z</time>
      </trkpt>
      <trkpt lat="45.99943" lon="4.63964">
        <ele>304.600006104</ele>
        <time>2015-08-11T09:00:23.476Z</time>
      </trkpt>
      <trkpt lat="45.99941" lon="4.63959">
        <ele>304.799987793</ele>
        <time>2015-08-11T09:00:24.44Z</time>
      </trkpt>
      <trkpt lat="45.99937" lon="4.63947">
        <ele>305.100006104</ele>
        <time>2015-08-11T09:00:26.481Z</time>
      </trkpt>
      <trkpt lat="45.99935" lon="4.63941">
        <ele>305.399993896</ele>
        <time>2015-08-11T09:00:27.442Z</time>
      </trkpt>
      <trkpt lat="45.99933" lon="4.63935">
        <ele>305.700012207</ele>
        <time>2015-08-11T09:00:28.479Z</time>
      </trkpt>
      <trkpt lat="45.9993" lon="4.63929">
        <ele>306.100006104</ele>
        <time>2015-08-11T09:00:29.429Z</time>
      </trkpt>
      <trkpt lat="45.99925" lon="4.63919">
        <ele>306.899993896</ele>
        <time>2015-08-11T09:00:31.627Z</time>
      </trkpt>
      <trkpt lat="45.99923" lon="4.63915">
        <ele>307.5</ele>
        <time>2015-08-11T09:00:32.463Z</time>
      </trkpt>
      <trkpt lat="45.99919" lon="4.63905">
        <ele>308.399993896</ele>
        <time>2015-08-11T09:00:34.499Z</time>
      </trkpt>
      <trkpt lat="45.99917" lon="4.639">
        <ele>308.700012207</ele>
        <time>2015-08-11T09:00:35.442Z</time>
      </trkpt>
      <trkpt lat="45.99913" lon="4.63889">
        <ele>310.200012207</ele>
        <time>2015-08-11T09:00:37.477Z</time>
      </trkpt>
      <trkpt lat="45.99911" lon="4.63885">
        <ele>310.100006104</ele>
        <time>2015-08-11T09:00:38.442Z</time>
      </trkpt>
      <trkpt lat="45.99906" lon="4.63875">
        <ele>310.600006104</ele>
        <time>2015-08-11T09:00:40.48Z</time>
      </trkpt>
      <trkpt lat="45.99903" lon="4.6387">
        <ele>310.899993896</ele>
        <time>2015-08-11T09:00:41.448Z</time>
      </trkpt>
      <trkpt lat="45.99898" lon="4.63859">
        <ele>311.600006104</ele>
        <time>2015-08-11T09:00:43.482Z</time>
      </trkpt>
      <trkpt lat="45.99896" lon="4.63854">
        <ele>311.799987793</ele>
        <time>2015-08-11T09:00:44.443Z</time>
      </trkpt>
      <trkpt lat="45.99891" lon="4.63843">
        <ele>312.299987793</ele>
        <time>2015-08-11T09:00:46.479Z</time>
      </trkpt>
      <trkpt lat="45.9989" lon="4.63837">
        <ele>312.5</ele>
        <time>2015-08-11T09:00:47.443Z</time>
      </trkpt>
      <trkpt lat="45.99886" lon="4.63825">
        <ele>312.899993896</ele>
        <time>2015-08-11T09:00:49.48Z</time>
      </trkpt>
      <trkpt lat="45.99886" lon="4.6382">
        <ele>313.399993896</ele>
        <time>2015-08-11T09:00:50.443Z</time>
      </trkpt>
      <trkpt lat="45.99884" lon="4.63809">
        <ele>314</ele>
        <time>2015-08-11T09:00:52.48Z</time>
      </trkpt>
      <trkpt lat="45.99883" lon="4.63804">
        <ele>314.100006104</ele>
        <time>2015-08-11T09:00:53.429Z</time>
      </trkpt>
      <trkpt lat="45.9988" lon="4.63792">
        <ele>314.799987793</ele>
        <time>2015-08-11T09:00:55.481Z</time>
      </trkpt>
      <trkpt lat="45.99879" lon="4.63786">
        <ele>315.200012207</ele>
        <time>2015-08-11T09:00:56.446Z</time>
      </trkpt>
      <trkpt lat="45.99877" lon="4.63774">
        <ele>316.100006104</ele>
        <time>2015-08-11T09:00:58.516Z</time>
      </trkpt>
      <trkpt lat="45.99875" lon="4.63768">
        <ele>316.5</ele>
        <time>2015-08-11T09:00:59.441Z</time>
      </trkpt>
      <trkpt lat="45.99874" lon="4.63761">
        <ele>316.799987793</ele>
        <time>2015-08-11T09:01:00.483Z</time>
      </trkpt>
      <trkpt lat="45.99873" lon="4.63754">
        <ele>317.200012207</ele>
        <time>2015-08-11T09:01:01.432Z</time>
      </trkpt>
      <trkpt lat="45.99872" lon="4.63747">
        <ele>317.5</ele>
        <time>2015-08-11T09:01:02.489Z</time>
      </trkpt>
      <trkpt lat="45.99872" lon="4.6374">
        <ele>317.399993896</ele>
        <time>2015-08-11T09:01:03.443Z</time>
      </trkpt>
      <trkpt lat="45.99871" lon="4.63733">
        <ele>317.700012207</ele>
        <time>2015-08-11T09:01:04.509Z</time>
      </trkpt>
      <trkpt lat="45.9987" lon="4.63726">
        <ele>318</ele>
        <time>2015-08-11T09:01:05.447Z</time>
      </trkpt>
      <trkpt lat="45.9987" lon="4.63719">
        <ele>318.200012207</ele>
        <time>2015-08-11T09:01:06.479Z</time>
      </trkpt>
      <trkpt lat="45.99869" lon="4.63713">
        <ele>318.399993896</ele>
        <time>2015-08-11T09:01:07.446Z</time>
      </trkpt>
      <trkpt lat="45.99867" lon="4.63701">
        <ele>318.5</ele>
        <time>2015-08-11T09:01:09.48Z</time>
      </trkpt>
      <trkpt lat="45.99868" lon="4.63694">
        <ele>318.600006104</ele>
        <time>2015-08-11T09:01:10.443Z</time>
      </trkpt>
      <trkpt lat="45.99867" lon="4.63682">
        <ele>318.200012207</ele>
        <time>2015-08-11T09:01:12.593Z</time>
      </trkpt>
      <trkpt lat="45.99867" lon="4.63676">
        <ele>318</ele>
        <time>2015-08-11T09:01:13.446Z</time>
      </trkpt>
      <trkpt lat="45.99866" lon="4.63663">
        <ele>317.600006104</ele>
        <time>2015-08-11T09:01:15.477Z</time>
      </trkpt>
      <trkpt lat="45.99867" lon="4.63657">
        <ele>317.899993896</ele>
        <time>2015-08-11T09:01:16.443Z</time>
      </trkpt>
      <trkpt lat="45.99868" lon="4.63645">
        <ele>318.100006104</ele>
        <time>2015-08-11T09:01:18.481Z</time>
      </trkpt>
      <trkpt lat="45.99868" lon="4.63638">
        <ele>318.299987793</ele>
        <time>2015-08-11T09:01:19.445Z</time>
      </trkpt>
      <trkpt lat="45.99868" lon="4.63632">
        <ele>318</ele>
        <time>2015-08-11T09:01:20.48Z</time>
      </trkpt>
      <trkpt lat="45.99869" lon="4.63625">
        <ele>317.899993896</ele>
        <time>2015-08-11T09:01:21.451Z</time>
      </trkpt>
      <trkpt lat="45.99869" lon="4.63613">
        <ele>317.700012207</ele>
        <time>2015-08-11T09:01:23.478Z</time>
      </trkpt>
      <trkpt lat="45.99869" lon="4.63607">
        <ele>317.899993896</ele>
        <time>2015-08-11T09:01:24.463Z</time>
      </trkpt>
      <trkpt lat="45.9987" lon="4.63595">
        <ele>317.299987793</ele>
        <time>2015-08-11T09:01:26.474Z</time>
      </trkpt>
      <trkpt lat="45.9987" lon="4.63589">
        <ele>317.200012207</ele>
        <time>2015-08-11T09:01:27.443Z</time>
      </trkpt>
      <trkpt lat="45.99872" lon="4.63577">
        <ele>317.200012207</ele>
        <time>2015-08-11T09:01:29.475Z</time>
      </trkpt>
      <trkpt lat="45.99874" lon="4.63571">
        <ele>317.299987793</ele>
        <time>2015-08-11T09:01:30.445Z</time>
      </trkpt>
      <trkpt lat="45.99876" lon="4.63559">
        <ele>317.899993896</ele>
        <time>2015-08-11T09:01:32.475Z</time>
      </trkpt>
      <trkpt lat="45.99877" lon="4.63553">
        <ele>318.200012207</ele>
        <time>2015-08-11T09:01:33.443Z</time>
      </trkpt>
      <trkpt lat="45.99879" lon="4.63542">
        <ele>318.600006104</ele>
        <time>2015-08-11T09:01:35.477Z</time>
      </trkpt>
      <trkpt lat="45.9988" lon="4.63536">
        <ele>317.700012207</ele>
        <time>2015-08-11T09:01:36.444Z</time>
      </trkpt>
      <trkpt lat="45.99883" lon="4.63526">
        <ele>316.899993896</ele>
        <time>2015-08-11T09:01:38.524Z</time>
      </trkpt>
      <trkpt lat="45.99883" lon="4.6352">
        <ele>317.100006104</ele>
        <time>2015-08-11T09:01:39.443Z</time>
      </trkpt>
      <trkpt lat="45.99886" lon="4.63509">
        <ele>317.100006104</ele>
        <time>2015-08-11T09:01:41.475Z</time>
      </trkpt>
      <trkpt lat="45.99887" lon="4.63503">
        <ele>316.700012207</ele>
        <time>2015-08-11T09:01:42.443Z</time>
      </trkpt>
      <trkpt lat="45.99891" lon="4.63491">
        <ele>316.899993896</ele>
        <time>2015-08-11T09:01:44.474Z</time>
      </trkpt>
      <trkpt lat="45.99892" lon="4.63486">
        <ele>317</ele>
        <time>2015-08-11T09:01:45.442Z</time>
      </trkpt>
      <trkpt lat="45.99896" lon="4.63476">
        <ele>317.600006104</ele>
        <time>2015-08-11T09:01:47.487Z</time>
      </trkpt>
      <trkpt lat="45.99898" lon="4.63471">
        <ele>317.799987793</ele>
        <time>2015-08-11T09:01:48.444Z</time>
      </trkpt>
      <trkpt lat="45.99902" lon="4.63462">
        <ele>317.600006104</ele>
        <time>2015-08-11T09:01:50.478Z</time>
      </trkpt>
      <trkpt lat="45.99904" lon="4.63458">
        <ele>317.600006104</ele>
        <time>2015-08-11T09:01:51.442Z</time>
      </trkpt>
      <trkpt lat="45.99909" lon="4.6345">
        <ele>317.899993896</ele>
        <time>2015-08-11T09:01:53.479Z</time>
      </trkpt>
      <trkpt lat="45.9991" lon="4.63446">
        <ele>318.200012207</ele>
        <time>2015-08-11T09:01:54.438Z</time>
      </trkpt>
      <trkpt lat="45.99914" lon="4.63434">
        <ele>317.899993896</ele>
        <time>2015-08-11T09:01:56.498Z</time>
      </trkpt>
      <trkpt lat="45.99916" lon="4.63429">
        <ele>317.899993896</ele>
        <time>2015-08-11T09:01:57.446Z</time>
      </trkpt>
      <trkpt lat="45.9992" lon="4.63418">
        <ele>318</ele>
        <time>2015-08-11T09:01:59.483Z</time>
      </trkpt>
      <trkpt lat="45.99922" lon="4.63413">
        <ele>318</ele>
        <time>2015-08-11T09:02:00.443Z</time>
      </trkpt>
      <trkpt lat="45.99923" lon="4.63406">
        <ele>318.200012207</ele>
        <time>2015-08-11T09:02:01.479Z</time>
      </trkpt>
      <trkpt lat="45.99925" lon="4.634">
        <ele>318.200012207</ele>
        <time>2015-08-11T09:02:02.429Z</time>
      </trkpt>
      <trkpt lat="45.99928" lon="4.63389">
        <ele>318.399993896</ele>
        <time>2015-08-11T09:02:04.594Z</time>
      </trkpt>
      <trkpt lat="45.99929" lon="4.63383">
        <ele>318.700012207</ele>
        <time>2015-08-11T09:02:05.443Z</time>
      </trkpt>
      <trkpt lat="45.99931" lon="4.63371">
        <ele>319.299987793</ele>
        <time>2015-08-11T09:02:07.477Z</time>
      </trkpt>
      <trkpt lat="45.99931" lon="4.63365">
        <ele>319.5</ele>
        <time>2015-08-11T09:02:08.442Z</time>
      </trkpt>
      <trkpt lat="45.99932" lon="4.63353">
        <ele>319.600006104</ele>
        <time>2015-08-11T09:02:10.476Z</time>
      </trkpt>
      <trkpt lat="45.99932" lon="4.63346">
        <ele>319.899993896</ele>
        <time>2015-08-11T09:02:11.441Z</time>
      </trkpt>
      <trkpt lat="45.99933" lon="4.63334">
        <ele>320.200012207</ele>
        <time>2015-08-11T09:02:13.48Z</time>
      </trkpt>
      <trkpt lat="45.99933" lon="4.63327">
        <ele>320.399993896</ele>
        <time>2015-08-11T09:02:14.443Z</time>
      </trkpt>
      <trkpt lat="45.99933" lon="4.63315">
        <ele>320.399993896</ele>
        <time>2015-08-11T09:02:16.476Z</time>
      </trkpt>
      <trkpt lat="45.99933" lon="4.63309">
        <ele>320.600006104</ele>
        <time>2015-08-11T09:02:17.477Z</time>
      </trkpt>
      <trkpt lat="45.99932" lon="4.63298">
        <ele>320.700012207</ele>
        <time>2015-08-11T09:02:19.478Z</time>
      </trkpt>
      <trkpt lat="45.99932" lon="4.63291">
        <ele>320.700012207</ele>
        <time>2015-08-11T09:02:20.534Z</time>
      </trkpt>
      <trkpt lat="45.9993" lon="4.6328">
        <ele>321.200012207</ele>
        <time>2015-08-11T09:02:22.501Z</time>
      </trkpt>
      <trkpt lat="45.9993" lon="4.63274">
        <ele>321.5</ele>
        <time>2015-08-11T09:02:23.441Z</time>
      </trkpt>
      <trkpt lat="45.99927" lon="4.63262">
        <ele>321.899993896</ele>
        <time>2015-08-11T09:02:25.477Z</time>
      </trkpt>
      <trkpt lat="45.99925" lon="4.63257">
        <ele>321.799987793</ele>
        <time>2015-08-11T09:02:26.428Z</time>
      </trkpt>
      <trkpt lat="45.99923" lon="4.63246">
        <ele>322</ele>
        <time>2015-08-11T09:02:28.477Z</time>
      </trkpt>
      <trkpt lat="45.99922" lon="4.63241">
        <ele>322.200012207</ele>
        <time>2015-08-11T09:02:29.443Z</time>
      </trkpt>
      <trkpt lat="45.9992" lon="4.6323">
        <ele>322.399993896</ele>
        <time>2015-08-11T09:02:31.478Z</time>
      </trkpt>
      <trkpt lat="45.99919" lon="4.63225">
        <ele>322.399993896</ele>
        <time>2015-08-11T09:02:32.442Z</time>
      </trkpt>
      <trkpt lat="45.99915" lon="4.63214">
        <ele>322.5</ele>
        <time>2015-08-11T09:02:34.478Z</time>
      </trkpt>
      <trkpt lat="45.99913" lon="4.63209">
        <ele>322.700012207</ele>
        <time>2015-08-11T09:02:35.443Z</time>
      </trkpt>
      <trkpt lat="45.9991" lon="4.63199">
        <ele>322.799987793</ele>
        <time>2015-08-11T09:02:37.477Z</time>
      </trkpt>
      <trkpt lat="45.99909" lon="4.63192">
        <ele>322.700012207</ele>
        <time>2015-08-11T09:02:38.429Z</time>
      </trkpt>
      <trkpt lat="45.99904" lon="4.63182">
        <ele>323.200012207</ele>
        <time>2015-08-11T09:02:40.474Z</time>
      </trkpt>
      <trkpt lat="45.99902" lon="4.63178">
        <ele>323.399993896</ele>
        <time>2015-08-11T09:02:41.439Z</time>
      </trkpt>
      <trkpt lat="45.99897" lon="4.63169">
        <ele>323.5</ele>
        <time>2015-08-11T09:02:43.493Z</time>
      </trkpt>
      <trkpt lat="45.99894" lon="4.63165">
        <ele>323.5</ele>
        <time>2015-08-11T09:02:44.442Z</time>
      </trkpt>
      <trkpt lat="45.99889" lon="4.63157">
        <ele>324.200012207</ele>
        <time>2015-08-11T09:02:46.475Z</time>
      </trkpt>
      <trkpt lat="45.99886" lon="4.63153">
        <ele>324.600006104</ele>
        <time>2015-08-11T09:02:47.442Z</time>
      </trkpt>
      <trkpt lat="45.99882" lon="4.63145">
        <ele>325.100006104</ele>
        <time>2015-08-11T09:02:49.481Z</time>
      </trkpt>
      <trkpt lat="45.99879" lon="4.6314">
        <ele>325.200012207</ele>
        <time>2015-08-11T09:02:50.433Z</time>
      </trkpt>
      <trkpt lat="45.99874" lon="4.63131">
        <ele>325.5</ele>
        <time>2015-08-11T09:02:52.484Z</time>
      </trkpt>
      <trkpt lat="45.99872" lon="4.63126">
        <ele>325.600006104</ele>
        <time>2015-08-11T09:02:53.443Z</time>
      </trkpt>
      <trkpt lat="45.99868" lon="4.63116">
        <ele>326.200012207</ele>
        <time>2015-08-11T09:02:55.533Z</time>
      </trkpt>
      <trkpt lat="45.99866" lon="4.63111">
        <ele>326.100006104</ele>
        <time>2015-08-11T09:02:56.441Z</time>
      </trkpt>
      <trkpt lat="45.99862" lon="4.63101">
        <ele>326.200012207</ele>
        <time>2015-08-11T09:02:58.474Z</time>
      </trkpt>
      <trkpt lat="45.99861" lon="4.63096">
        <ele>326.600006104</ele>
        <time>2015-08-11T09:02:59.443Z</time>
      </trkpt>
      <trkpt lat="45.99859" lon="4.63085">
        <ele>327.100006104</ele>
        <time>2015-08-11T09:03:01.477Z</time>
      </trkpt>
      <trkpt lat="45.99859" lon="4.63079">
        <ele>327.399993896</ele>
        <time>2015-08-11T09:03:02.442Z</time>
      </trkpt>
      <trkpt lat="45.99856" lon="4.63068">
        <ele>327.600006104</ele>
        <time>2015-08-11T09:03:04.614Z</time>
      </trkpt>
      <trkpt lat="45.99856" lon="4.63062">
        <ele>327.799987793</ele>
        <time>2015-08-11T09:03:05.442Z</time>
      </trkpt>
      <trkpt lat="45.99855" lon="4.63051">
        <ele>329.100006104</ele>
        <time>2015-08-11T09:03:07.481Z</time>
      </trkpt>
      <trkpt lat="45.99857" lon="4.63046">
        <ele>330</ele>
        <time>2015-08-11T09:03:08.442Z</time>
      </trkpt>
      <trkpt lat="45.99858" lon="4.63035">
        <ele>330.799987793</ele>
        <time>2015-08-11T09:03:10.481Z</time>
      </trkpt>
      <trkpt lat="45.99859" lon="4.6303">
        <ele>331.100006104</ele>
        <time>2015-08-11T09:03:11.441Z</time>
      </trkpt>
      <trkpt lat="45.99861" lon="4.63021">
        <ele>331.700012207</ele>
        <time>2015-08-11T09:03:13.563Z</time>
      </trkpt>
      <trkpt lat="45.99861" lon="4.63017">
        <ele>332.299987793</ele>
        <time>2015-08-11T09:03:14.446Z</time>
      </trkpt>
      <trkpt lat="45.99863" lon="4.63007">
        <ele>333</ele>
        <time>2015-08-11T09:03:16.473Z</time>
      </trkpt>
      <trkpt lat="45.99864" lon="4.63002">
        <ele>333.100006104</ele>
        <time>2015-08-11T09:03:17.442Z</time>
      </trkpt>
      <trkpt lat="45.99866" lon="4.62992">
        <ele>333.799987793</ele>
        <time>2015-08-11T09:03:19.477Z</time>
      </trkpt>
      <trkpt lat="45.99868" lon="4.62987">
        <ele>333.899993896</ele>
        <time>2015-08-11T09:03:20.428Z</time>
      </trkpt>
      <trkpt lat="45.9987" lon="4.62977">
        <ele>333.299987793</ele>
        <time>2015-08-11T09:03:22.479Z</time>
      </trkpt>
      <trkpt lat="45.99871" lon="4.62972">
        <ele>333.5</ele>
        <time>2015-08-11T09:03:23.443Z</time>
      </trkpt>
      <trkpt lat="45.99873" lon="4.6296">
        <ele>333.600006104</ele>
        <time>2015-08-11T09:03:25.501Z</time>
      </trkpt>
      <trkpt lat="45.99874" lon="4.62955">
        <ele>333.799987793</ele>
        <time>2015-08-11T09:03:26.443Z</time>
      </trkpt>
      <trkpt lat="45.99876" lon="4.62945">
        <ele>334.100006104</ele>
        <time>2015-08-11T09:03:28.475Z</time>
      </trkpt>
      <trkpt lat="45.99877" lon="4.62939">
        <ele>334.200012207</ele>
        <time>2015-08-11T09:03:29.442Z</time>
      </trkpt>
      <trkpt lat="45.99879" lon="4.62928">
        <ele>334.5</ele>
        <time>2015-08-11T09:03:31.476Z</time>
      </trkpt>
      <trkpt lat="45.99879" lon="4.62923">
        <ele>334.299987793</ele>
        <time>2015-08-11T09:03:32.442Z</time>
      </trkpt>
      <trkpt lat="45.9988" lon="4.62913">
        <ele>333.200012207</ele>
        <time>2015-08-11T09:03:34.473Z</time>
      </trkpt>
      <trkpt lat="45.99881" lon="4.62908">
        <ele>333.200012207</ele>
        <time>2015-08-11T09:03:35.442Z</time>
      </trkpt>
      <trkpt lat="45.99882" lon="4.62897">
        <ele>332.600006104</ele>
        <time>2015-08-11T09:03:37.475Z</time>
      </trkpt>
      <trkpt lat="45.99883" lon="4.62891">
        <ele>332.700012207</ele>
        <time>2015-08-11T09:03:38.443Z</time>
      </trkpt>
      <trkpt lat="45.99883" lon="4.6288">
        <ele>333.100006104</ele>
        <time>2015-08-11T09:03:40.484Z</time>
      </trkpt>
      <trkpt lat="45.99883" lon="4.62874">
        <ele>332.799987793</ele>
        <time>2015-08-11T09:03:41.429Z</time>
      </trkpt>
      <trkpt lat="45.99883" lon="4.62862">
        <ele>332.700012207</ele>
        <time>2015-08-11T09:03:43.476Z</time>
      </trkpt>
      <trkpt lat="45.99883" lon="4.62856">
        <ele>332.600006104</ele>
        <time>2015-08-11T09:03:44.439Z</time>
      </trkpt>
      <trkpt lat="45.99883" lon="4.62843">
        <ele>332.5</ele>
        <time>2015-08-11T09:03:46.494Z</time>
      </trkpt>
      <trkpt lat="45.99883" lon="4.62838">
        <ele>332.799987793</ele>
        <time>2015-08-11T09:03:47.441Z</time>
      </trkpt>
      <trkpt lat="45.99884" lon="4.62828">
        <ele>333.5</ele>
        <time>2015-08-11T09:03:49.48Z</time>
      </trkpt>
      <trkpt lat="45.99883" lon="4.62822">
        <ele>333.799987793</ele>
        <time>2015-08-11T09:03:50.441Z</time>
      </trkpt>
      <trkpt lat="45.99883" lon="4.62812">
        <ele>334.399993896</ele>
        <time>2015-08-11T09:03:52.476Z</time>
      </trkpt>
      <trkpt lat="45.99882" lon="4.62806">
        <ele>334.5</ele>
        <time>2015-08-11T09:03:53.442Z</time>
      </trkpt>
      <trkpt lat="45.99883" lon="4.62796">
        <ele>334.700012207</ele>
        <time>2015-08-11T09:03:55.533Z</time>
      </trkpt>
      <trkpt lat="45.99882" lon="4.62791">
        <ele>335.100006104</ele>
        <time>2015-08-11T09:03:56.441Z</time>
      </trkpt>
      <trkpt lat="45.99882" lon="4.62779">
        <ele>335.100006104</ele>
        <time>2015-08-11T09:03:58.476Z</time>
      </trkpt>
      <trkpt lat="45.99881" lon="4.62773">
        <ele>335.100006104</ele>
        <time>2015-08-11T09:03:59.442Z</time>
      </trkpt>
      <trkpt lat="45.9988" lon="4.6276">
        <ele>334.600006104</ele>
        <time>2015-08-11T09:04:01.476Z</time>
      </trkpt>
      <trkpt lat="45.9988" lon="4.62754">
        <ele>334</ele>
        <time>2015-08-11T09:04:02.428Z</time>
      </trkpt>
      <trkpt lat="45.9988" lon="4.62743">
        <ele>333.899993896</ele>
        <time>2015-08-11T09:04:04.476Z</time>
      </trkpt>
      <trkpt lat="45.9988" lon="4.62737">
        <ele>333.700012207</ele>
        <time>2015-08-11T09:04:05.441Z</time>
      </trkpt>
      <trkpt lat="45.99879" lon="4.62725">
        <ele>333.799987793</ele>
        <time>2015-08-11T09:04:07.493Z</time>
      </trkpt>
      <trkpt lat="45.99878" lon="4.62719">
        <ele>333.700012207</ele>
        <time>2015-08-11T09:04:08.443Z</time>
      </trkpt>
      <trkpt lat="45.9988" lon="4.62708">
        <ele>333.5</ele>
        <time>2015-08-11T09:04:10.479Z</time>
      </trkpt>
      <trkpt lat="45.99881" lon="4.62703">
        <ele>333.100006104</ele>
        <time>2015-08-11T09:04:11.441Z</time>
      </trkpt>
      <trkpt lat="45.99883" lon="4.62693">
        <ele>333.200012207</ele>
        <time>2015-08-11T09:04:13.52Z</time>
      </trkpt>
      <trkpt lat="45.99885" lon="4.62688">
        <ele>333.399993896</ele>
        <time>2015-08-11T09:04:14.439Z</time>
      </trkpt>
      <trkpt lat="45.99889" lon="4.62679">
        <ele>334.200012207</ele>
        <time>2015-08-11T09:04:16.479Z</time>
      </trkpt>
      <trkpt lat="45.99891" lon="4.62674">
        <ele>334.399993896</ele>
        <time>2015-08-11T09:04:17.441Z</time>
      </trkpt>
      <trkpt lat="45.99895" lon="4.62665">
        <ele>333.700012207</ele>
        <time>2015-08-11T09:04:19.475Z</time>
      </trkpt>
      <trkpt lat="45.99897" lon="4.62661">
        <ele>333.5</ele>
        <time>2015-08-11T09:04:20.434Z</time>
      </trkpt>
      <trkpt lat="45.99902" lon="4.62652">
        <ele>333.5</ele>
        <time>2015-08-11T09:04:22.476Z</time>
      </trkpt>
      <trkpt lat="45.99904" lon="4.62647">
        <ele>333.299987793</ele>
        <time>2015-08-11T09:04:23.441Z</time>
      </trkpt>
      <trkpt lat="45.99907" lon="4.62637">
        <ele>333.200012207</ele>
        <time>2015-08-11T09:04:25.479Z</time>
      </trkpt>
      <trkpt lat="45.99909" lon="4.62631">
        <ele>333.600006104</ele>
        <time>2015-08-11T09:04:26.44Z</time>
      </trkpt>
      <trkpt lat="45.99913" lon="4.62621">
        <ele>334.399993896</ele>
        <time>2015-08-11T09:04:28.494Z</time>
      </trkpt>
      <trkpt lat="45.99915" lon="4.62616">
        <ele>334.299987793</ele>
        <time>2015-08-11T09:04:29.44Z</time>
      </trkpt>
      <trkpt lat="45.9992" lon="4.62605">
        <ele>334.799987793</ele>
        <time>2015-08-11T09:04:31.478Z</time>
      </trkpt>
      <trkpt lat="45.99922" lon="4.626">
        <ele>334.799987793</ele>
        <time>2015-08-11T09:04:32.442Z</time>
      </trkpt>
      <trkpt lat="45.99925" lon="4.62589">
        <ele>334.5</ele>
        <time>2015-08-11T09:04:34.473Z</time>
      </trkpt>
      <trkpt lat="45.99927" lon="4.62583">
        <ele>334.399993896</ele>
        <time>2015-08-11T09:04:35.441Z</time>
      </trkpt>
      <trkpt lat="45.99929" lon="4.62572">
        <ele>334.100006104</ele>
        <time>2015-08-11T09:04:37.501Z</time>
      </trkpt>
      <trkpt lat="45.9993" lon="4.62566">
        <ele>334.100006104</ele>
        <time>2015-08-11T09:04:38.437Z</time>
      </trkpt>
      <trkpt lat="45.99933" lon="4.62555">
        <ele>334.399993896</ele>
        <time>2015-08-11T09:04:40.491Z</time>
      </trkpt>
      <trkpt lat="45.99933" lon="4.62549">
        <ele>334.399993896</ele>
        <time>2015-08-11T09:04:41.437Z</time>
      </trkpt>
      <trkpt lat="45.99933" lon="4.62542">
        <ele>334.299987793</ele>
        <time>2015-08-11T09:04:42.487Z</time>
      </trkpt>
      <trkpt lat="45.99932" lon="4.62536">
        <ele>334.100006104</ele>
        <time>2015-08-11T09:04:43.444Z</time>
      </trkpt>
      <trkpt lat="45.99932" lon="4.62529">
        <ele>334</ele>
        <time>2015-08-11T09:04:44.478Z</time>
      </trkpt>
      <trkpt lat="45.99932" lon="4.62522">
        <ele>334</ele>
        <time>2015-08-11T09:04:45.442Z</time>
      </trkpt>
      <trkpt lat="45.99932" lon="4.62515">
        <ele>334</ele>
        <time>2015-08-11T09:04:46.475Z</time>
      </trkpt>
      <trkpt lat="45.99932" lon="4.62508">
        <ele>333.799987793</ele>
        <time>2015-08-11T09:04:47.486Z</time>
      </trkpt>
      <trkpt lat="45.99932" lon="4.62501">
        <ele>333.799987793</ele>
        <time>2015-08-11T09:04:48.528Z</time>
      </trkpt>
      <trkpt lat="45.99933" lon="4.62493">
        <ele>333.700012207</ele>
        <time>2015-08-11T09:04:49.43Z</time>
      </trkpt>
      <trkpt lat="45.99933" lon="4.62486">
        <ele>333.799987793</ele>
        <time>2015-08-11T09:04:50.472Z</time>
      </trkpt>
      <trkpt lat="45.99933" lon="4.62478">
        <ele>333.799987793</ele>
        <time>2015-08-11T09:04:51.443Z</time>
      </trkpt>
      <trkpt lat="45.99933" lon="4.62471">
        <ele>333.899993896</ele>
        <time>2015-08-11T09:04:52.472Z</time>
      </trkpt>
      <trkpt lat="45.99933" lon="4.62463">
        <ele>333.799987793</ele>
        <time>2015-08-11T09:04:53.431Z</time>
      </trkpt>
      <trkpt lat="45.99933" lon="4.62456">
        <ele>333.799987793</ele>
        <time>2015-08-11T09:04:54.495Z</time>
      </trkpt>
      <trkpt lat="45.99933" lon="4.62449">
        <ele>333.600006104</ele>
        <time>2015-08-11T09:04:55.443Z</time>
      </trkpt>
      <trkpt lat="45.99934" lon="4.62441">
        <ele>333.5</ele>
        <time>2015-08-11T09:04:56.508Z</time>
      </trkpt>
      <trkpt lat="45.99933" lon="4.62433">
        <ele>333.399993896</ele>
        <time>2015-08-11T09:04:57.441Z</time>
      </trkpt>
      <trkpt lat="45.99934" lon="4.62425">
        <ele>333.600006104</ele>
        <time>2015-08-11T09:04:58.473Z</time>
      </trkpt>
      <trkpt lat="45.99934" lon="4.62416">
        <ele>333.5</ele>
        <time>2015-08-11T09:04:59.442Z</time>
      </trkpt>
      <trkpt lat="45.99934" lon="4.62408">
        <ele>333.299987793</ele>
        <time>2015-08-11T09:05:00.484Z</time>
      </trkpt>
      <trkpt lat="45.99934" lon="4.624">
        <ele>333.299987793</ele>
        <time>2015-08-11T09:05:01.444Z</time>
      </trkpt>
      <trkpt lat="45.99934" lon="4.62392">
        <ele>333</ele>
        <time>2015-08-11T09:05:02.475Z</time>
      </trkpt>
      <trkpt lat="45.99934" lon="4.62384">
        <ele>332.899993896</ele>
        <time>2015-08-11T09:05:03.442Z</time>
      </trkpt>
      <trkpt lat="45.99934" lon="4.62377">
        <ele>332.5</ele>
        <time>2015-08-11T09:05:04.483Z</time>
      </trkpt>
      <trkpt lat="45.99934" lon="4.62369">
        <ele>332.5</ele>
        <time>2015-08-11T09:05:05.442Z</time>
      </trkpt>
      <trkpt lat="45.99934" lon="4.62361">
        <ele>332.399993896</ele>
        <time>2015-08-11T09:05:06.473Z</time>
      </trkpt>
      <trkpt lat="45.99933" lon="4.62353">
        <ele>332</ele>
        <time>2015-08-11T09:05:07.443Z</time>
      </trkpt>
      <trkpt lat="45.99933" lon="4.62346">
        <ele>332</ele>
        <time>2015-08-11T09:05:08.488Z</time>
      </trkpt>
      <trkpt lat="45.99933" lon="4.62338">
        <ele>331.899993896</ele>
        <time>2015-08-11T09:05:09.447Z</time>
      </trkpt>
      <trkpt lat="45.99934" lon="4.62331">
        <ele>331.799987793</ele>
        <time>2015-08-11T09:05:10.498Z</time>
      </trkpt>
      <trkpt lat="45.99935" lon="4.62324">
        <ele>331.899993896</ele>
        <time>2015-08-11T09:05:11.441Z</time>
      </trkpt>
      <trkpt lat="45.99936" lon="4.62315">
        <ele>331.799987793</ele>
        <time>2015-08-11T09:05:12.564Z</time>
      </trkpt>
      <trkpt lat="45.99937" lon="4.62308">
        <ele>331.700012207</ele>
        <time>2015-08-11T09:05:13.443Z</time>
      </trkpt>
      <trkpt lat="45.99938" lon="4.62299">
        <ele>331.600006104</ele>
        <time>2015-08-11T09:05:14.473Z</time>
      </trkpt>
      <trkpt lat="45.99941" lon="4.6229">
        <ele>331.5</ele>
        <time>2015-08-11T09:05:15.442Z</time>
      </trkpt>
      <trkpt lat="45.99944" lon="4.62282">
        <ele>331.200012207</ele>
        <time>2015-08-11T09:05:16.476Z</time>
      </trkpt>
      <trkpt lat="45.99947" lon="4.62275">
        <ele>331</ele>
        <time>2015-08-11T09:05:17.44Z</time>
      </trkpt>
      <trkpt lat="45.9995" lon="4.62268">
        <ele>330.600006104</ele>
        <time>2015-08-11T09:05:18.477Z</time>
      </trkpt>
      <trkpt lat="45.99954" lon="4.62261">
        <ele>330.600006104</ele>
        <time>2015-08-11T09:05:19.444Z</time>
      </trkpt>
      <trkpt lat="45.99957" lon="4.62255">
        <ele>330.600006104</ele>
        <time>2015-08-11T09:05:20.473Z</time>
      </trkpt>
      <trkpt lat="45.9996" lon="4.62249">
        <ele>330.600006104</ele>
        <time>2015-08-11T09:05:21.438Z</time>
      </trkpt>
      <trkpt lat="45.99964" lon="4.62243">
        <ele>330.600006104</ele>
        <time>2015-08-11T09:05:22.472Z</time>
      </trkpt>
      <trkpt lat="45.99968" lon="4.62239">
        <ele>330.799987793</ele>
        <time>2015-08-11T09:05:23.44Z</time>
      </trkpt>
      <trkpt lat="45.99971" lon="4.62233">
        <ele>331.399993896</ele>
        <time>2015-08-11T09:05:24.476Z</time>
      </trkpt>
      <trkpt lat="45.99976" lon="4.6223">
        <ele>332</ele>
        <time>2015-08-11T09:05:25.446Z</time>
      </trkpt>
      <trkpt lat="45.9998" lon="4.62225">
        <ele>332</ele>
        <time>2015-08-11T09:05:26.492Z</time>
      </trkpt>
      <trkpt lat="45.99984" lon="4.6222">
        <ele>332.200012207</ele>
        <time>2015-08-11T09:05:27.441Z</time>
      </trkpt>
      <trkpt lat="45.99988" lon="4.62215">
        <ele>332.399993896</ele>
        <time>2015-08-11T09:05:28.491Z</time>
      </trkpt>
      <trkpt lat="45.99992" lon="4.62211">
        <ele>332.5</ele>
        <time>2015-08-11T09:05:29.441Z</time>
      </trkpt>
      <trkpt lat="45.99996" lon="4.62206">
        <ele>332.5</ele>
        <time>2015-08-11T09:05:30.472Z</time>
      </trkpt>
      <trkpt lat="46" lon="4.62202">
        <ele>332.600006104</ele>
        <time>2015-08-11T09:05:31.445Z</time>
      </trkpt>
      <trkpt lat="46.00004" lon="4.62197">
        <ele>332.799987793</ele>
        <time>2015-08-11T09:05:32.476Z</time>
      </trkpt>
      <trkpt lat="46.00008" lon="4.62192">
        <ele>333</ele>
        <time>2015-08-11T09:05:33.442Z</time>
      </trkpt>
      <trkpt lat="46.00011" lon="4.62187">
        <ele>333.200012207</ele>
        <time>2015-08-11T09:05:34.48Z</time>
      </trkpt>
      <trkpt lat="46.00015" lon="4.62181">
        <ele>333.299987793</ele>
        <time>2015-08-11T09:05:35.44Z</time>
      </trkpt>
      <trkpt lat="46.00018" lon="4.62176">
        <ele>333.399993896</ele>
        <time>2015-08-11T09:05:36.473Z</time>
      </trkpt>
      <trkpt lat="46.00021" lon="4.6217">
        <ele>333.600006104</ele>
        <time>2015-08-11T09:05:37.444Z</time>
      </trkpt>
      <trkpt lat="46.00024" lon="4.62163">
        <ele>333.700012207</ele>
        <time>2015-08-11T09:05:38.506Z</time>
      </trkpt>
      <trkpt lat="46.00027" lon="4.62157">
        <ele>334.299987793</ele>
        <time>2015-08-11T09:05:39.443Z</time>
      </trkpt>
      <trkpt lat="46.00031" lon="4.62152">
        <ele>334.5</ele>
        <time>2015-08-11T09:05:40.481Z</time>
      </trkpt>
      <trkpt lat="46.00033" lon="4.62146">
        <ele>334.600006104</ele>
        <time>2015-08-11T09:05:41.447Z</time>
      </trkpt>
      <trkpt lat="46.00036" lon="4.6214">
        <ele>334.700012207</ele>
        <time>2015-08-11T09:05:42.48Z</time>
      </trkpt>
      <trkpt lat="46.00038" lon="4.62134">
        <ele>334.899993896</ele>
        <time>2015-08-11T09:05:43.443Z</time>
      </trkpt>
      <trkpt lat="46.0004" lon="4.62127">
        <ele>335</ele>
        <time>2015-08-11T09:05:44.488Z</time>
      </trkpt>
      <trkpt lat="46.00043" lon="4.62121">
        <ele>335.200012207</ele>
        <time>2015-08-11T09:05:45.441Z</time>
      </trkpt>
      <trkpt lat="46.00045" lon="4.62114">
        <ele>335.299987793</ele>
        <time>2015-08-11T09:05:46.473Z</time>
      </trkpt>
      <trkpt lat="46.00047" lon="4.62108">
        <ele>335.700012207</ele>
        <time>2015-08-11T09:05:47.457Z</time>
      </trkpt>
      <trkpt lat="46.00049" lon="4.62101">
        <ele>336</ele>
        <time>2015-08-11T09:05:48.485Z</time>
      </trkpt>
      <trkpt lat="46.00051" lon="4.62095">
        <ele>336</ele>
        <time>2015-08-11T09:05:49.444Z</time>
      </trkpt>
      <trkpt lat="46.00053" lon="4.62088">
        <ele>335.799987793</ele>
        <time>2015-08-11T09:05:50.473Z</time>
      </trkpt>
      <trkpt lat="46.00054" lon="4.62082">
        <ele>335.700012207</ele>
        <time>2015-08-11T09:05:51.443Z</time>
      </trkpt>
      <trkpt lat="46.00056" lon="4.62075">
        <ele>335.899993896</ele>
        <time>2015-08-11T09:05:52.489Z</time>
      </trkpt>
      <trkpt lat="46.00057" lon="4.62068">
        <ele>336.200012207</ele>
        <time>2015-08-11T09:05:53.441Z</time>
      </trkpt>
      <trkpt lat="46.00058" lon="4.62062">
        <ele>336.399993896</ele>
        <time>2015-08-11T09:05:54.475Z</time>
      </trkpt>
      <trkpt lat="46.00059" lon="4.62054">
        <ele>336.299987793</ele>
        <time>2015-08-11T09:05:55.442Z</time>
      </trkpt>
      <trkpt lat="46.0006" lon="4.62048">
        <ele>336.600006104</ele>
        <time>2015-08-11T09:05:56.476Z</time>
      </trkpt>
      <trkpt lat="46.00061" lon="4.6204">
        <ele>336.899993896</ele>
        <time>2015-08-11T09:05:57.443Z</time>
      </trkpt>
      <trkpt lat="46.00062" lon="4.62033">
        <ele>337</ele>
        <time>2015-08-11T09:05:58.476Z</time>
      </trkpt>
      <trkpt lat="46.00063" lon="4.62026">
        <ele>337.100006104</ele>
        <time>2015-08-11T09:05:59.44Z</time>
      </trkpt>
      <trkpt lat="46.00064" lon="4.62018">
        <ele>337.200012207</ele>
        <time>2015-08-11T09:06:00.48Z</time>
      </trkpt>
      <trkpt lat="46.00065" lon="4.62011">
        <ele>337.399993896</ele>
        <time>2015-08-11T09:06:01.43Z</time>
      </trkpt>
      <trkpt lat="46.00065" lon="4.62004">
        <ele>337.5</ele>
        <time>2015-08-11T09:06:02.472Z</time>
      </trkpt>
      <trkpt lat="46.00066" lon="4.61998">
        <ele>337.5</ele>
        <time>2015-08-11T09:06:03.442Z</time>
      </trkpt>
      <trkpt lat="46.00066" lon="4.61991">
        <ele>337.700012207</ele>
        <time>2015-08-11T09:06:04.472Z</time>
      </trkpt>
      <trkpt lat="46.00066" lon="4.61984">
        <ele>337.600006104</ele>
        <time>2015-08-11T09:06:05.44Z</time>
      </trkpt>
      <trkpt lat="46.00067" lon="4.61978">
        <ele>337.700012207</ele>
        <time>2015-08-11T09:06:06.473Z</time>
      </trkpt>
      <trkpt lat="46.00067" lon="4.61971">
        <ele>337.700012207</ele>
        <time>2015-08-11T09:06:07.436Z</time>
      </trkpt>
      <trkpt lat="46.00068" lon="4.61963">
        <ele>337.899993896</ele>
        <time>2015-08-11T09:06:08.493Z</time>
      </trkpt>
      <trkpt lat="46.00068" lon="4.61955">
        <ele>337.799987793</ele>
        <time>2015-08-11T09:06:09.43Z</time>
      </trkpt>
      <trkpt lat="46.00069" lon="4.61947">
        <ele>338.299987793</ele>
        <time>2015-08-11T09:06:10.476Z</time>
      </trkpt>
      <trkpt lat="46.00071" lon="4.6194">
        <ele>338.5</ele>
        <time>2015-08-11T09:06:11.442Z</time>
      </trkpt>
      <trkpt lat="46.00072" lon="4.61933">
        <ele>338.700012207</ele>
        <time>2015-08-11T09:06:12.543Z</time>
      </trkpt>
      <trkpt lat="46.00072" lon="4.61926">
        <ele>339.100006104</ele>
        <time>2015-08-11T09:06:13.443Z</time>
      </trkpt>
      <trkpt lat="46.00073" lon="4.61918">
        <ele>339.200012207</ele>
        <time>2015-08-11T09:06:14.472Z</time>
      </trkpt>
      <trkpt lat="46.00073" lon="4.61911">
        <ele>339.100006104</ele>
        <time>2015-08-11T09:06:15.442Z</time>
      </trkpt>
      <trkpt lat="46.00074" lon="4.61903">
        <ele>339.200012207</ele>
        <time>2015-08-11T09:06:16.473Z</time>
      </trkpt>
      <trkpt lat="46.00075" lon="4.61895">
        <ele>339.200012207</ele>
        <time>2015-08-11T09:06:17.441Z</time>
      </trkpt>
      <trkpt lat="46.00076" lon="4.61888">
        <ele>339.399993896</ele>
        <time>2015-08-11T09:06:18.472Z</time>
      </trkpt>
      <trkpt lat="46.00076" lon="4.61881">
        <ele>339.700012207</ele>
        <time>2015-08-11T09:06:19.443Z</time>
      </trkpt>
      <trkpt lat="46.00077" lon="4.61874">
        <ele>339.899993896</ele>
        <time>2015-08-11T09:06:20.475Z</time>
      </trkpt>
      <trkpt lat="46.00078" lon="4.61866">
        <ele>340.299987793</ele>
        <time>2015-08-11T09:06:21.441Z</time>
      </trkpt>
      <trkpt lat="46.00078" lon="4.61859">
        <ele>340.399993896</ele>
        <time>2015-08-11T09:06:22.472Z</time>
      </trkpt>
      <trkpt lat="46.00079" lon="4.61852">
        <ele>340.600006104</ele>
        <time>2015-08-11T09:06:23.441Z</time>
      </trkpt>
      <trkpt lat="46.0008" lon="4.61845">
        <ele>340.799987793</ele>
        <time>2015-08-11T09:06:24.491Z</time>
      </trkpt>
      <trkpt lat="46.0008" lon="4.61838">
        <ele>341.299987793</ele>
        <time>2015-08-11T09:06:25.436Z</time>
      </trkpt>
      <trkpt lat="46.00081" lon="4.61832">
        <ele>341.600006104</ele>
        <time>2015-08-11T09:06:26.473Z</time>
      </trkpt>
      <trkpt lat="46.00082" lon="4.61825">
        <ele>341.600006104</ele>
        <time>2015-08-11T09:06:27.443Z</time>
      </trkpt>
      <trkpt lat="46.00082" lon="4.61818">
        <ele>341.399993896</ele>
        <time>2015-08-11T09:06:28.484Z</time>
      </trkpt>
      <trkpt lat="46.00083" lon="4.61811">
        <ele>341.399993896</ele>
        <time>2015-08-11T09:06:29.441Z</time>
      </trkpt>
      <trkpt lat="46.00083" lon="4.61803">
        <ele>341.5</ele>
        <time>2015-08-11T09:06:30.472Z</time>
      </trkpt>
      <trkpt lat="46.00084" lon="4.61796">
        <ele>341.700012207</ele>
        <time>2015-08-11T09:06:31.443Z</time>
      </trkpt>
      <trkpt lat="46.00084" lon="4.61788">
        <ele>341.600006104</ele>
        <time>2015-08-11T09:06:32.473Z</time>
      </trkpt>
      <trkpt lat="46.00085" lon="4.6178">
        <ele>342</ele>
        <time>2015-08-11T09:06:33.442Z</time>
      </trkpt>
      <trkpt lat="46.00085" lon="4.61772">
        <ele>342.200012207</ele>
        <time>2015-08-11T09:06:34.476Z</time>
      </trkpt>
      <trkpt lat="46.00086" lon="4.61764">
        <ele>341.799987793</ele>
        <time>2015-08-11T09:06:35.442Z</time>
      </trkpt>
      <trkpt lat="46.00087" lon="4.61757">
        <ele>341.700012207</ele>
        <time>2015-08-11T09:06:36.472Z</time>
      </trkpt>
      <trkpt lat="46.00087" lon="4.6175">
        <ele>341.100006104</ele>
        <time>2015-08-11T09:06:37.444Z</time>
      </trkpt>
      <trkpt lat="46.00088" lon="4.61743">
        <ele>340.799987793</ele>
        <time>2015-08-11T09:06:38.553Z</time>
      </trkpt>
      <trkpt lat="46.00089" lon="4.61736">
        <ele>340.600006104</ele>
        <time>2015-08-11T09:06:39.443Z</time>
      </trkpt>
      <trkpt lat="46.00088" lon="4.61728">
        <ele>339.899993896</ele>
        <time>2015-08-11T09:06:40.489Z</time>
      </trkpt>
      <trkpt lat="46.00089" lon="4.61721">
        <ele>339.600006104</ele>
        <time>2015-08-11T09:06:41.44Z</time>
      </trkpt>
      <trkpt lat="46.0009" lon="4.61715">
        <ele>339.399993896</ele>
        <time>2015-08-11T09:06:42.472Z</time>
      </trkpt>
      <trkpt lat="46.0009" lon="4.61707">
        <ele>339.299987793</ele>
        <time>2015-08-11T09:06:43.44Z</time>
      </trkpt>
      <trkpt lat="46.0009" lon="4.617">
        <ele>339</ele>
        <time>2015-08-11T09:06:44.479Z</time>
      </trkpt>
      <trkpt lat="46.00091" lon="4.61692">
        <ele>338.700012207</ele>
        <time>2015-08-11T09:06:45.442Z</time>
      </trkpt>
      <trkpt lat="46.00092" lon="4.61684">
        <ele>338.299987793</ele>
        <time>2015-08-11T09:06:46.476Z</time>
      </trkpt>
      <trkpt lat="46.00092" lon="4.61677">
        <ele>338.299987793</ele>
        <time>2015-08-11T09:06:47.442Z</time>
      </trkpt>
      <trkpt lat="46.00093" lon="4.61669">
        <ele>338</ele>
        <time>2015-08-11T09:06:48.499Z</time>
      </trkpt>
      <trkpt lat="46.00094" lon="4.61662">
        <ele>337.200012207</ele>
        <time>2015-08-11T09:06:49.444Z</time>
      </trkpt>
      <trkpt lat="46.00096" lon="4.61655">
        <ele>336.899993896</ele>
        <time>2015-08-11T09:06:50.473Z</time>
      </trkpt>
      <trkpt lat="46.00097" lon="4.61647">
        <ele>336.600006104</ele>
        <time>2015-08-11T09:06:51.441Z</time>
      </trkpt>
      <trkpt lat="46.00098" lon="4.61641">
        <ele>336.600006104</ele>
        <time>2015-08-11T09:06:52.472Z</time>
      </trkpt>
      <trkpt lat="46.001" lon="4.61634">
        <ele>336.700012207</ele>
        <time>2015-08-11T09:06:53.44Z</time>
      </trkpt>
      <trkpt lat="46.00102" lon="4.61627">
        <ele>336.200012207</ele>
        <time>2015-08-11T09:06:54.473Z</time>
      </trkpt>
      <trkpt lat="46.00103" lon="4.6162">
        <ele>336.299987793</ele>
        <time>2015-08-11T09:06:55.443Z</time>
      </trkpt>
      <trkpt lat="46.00106" lon="4.61613">
        <ele>336</ele>
        <time>2015-08-11T09:06:56.491Z</time>
      </trkpt>
      <trkpt lat="46.00108" lon="4.61606">
        <ele>336</ele>
        <time>2015-08-11T09:06:57.441Z</time>
      </trkpt>
      <trkpt lat="46.0011" lon="4.61599">
        <ele>336.100006104</ele>
        <time>2015-08-11T09:06:58.502Z</time>
      </trkpt>
      <trkpt lat="46.00113" lon="4.61592">
        <ele>336.100006104</ele>
        <time>2015-08-11T09:06:59.441Z</time>
      </trkpt>
      <trkpt lat="46.00115" lon="4.61585">
        <ele>336.299987793</ele>
        <time>2015-08-11T09:07:00.48Z</time>
      </trkpt>
      <trkpt lat="46.00118" lon="4.61578">
        <ele>336.399993896</ele>
        <time>2015-08-11T09:07:01.431Z</time>
      </trkpt>
      <trkpt lat="46.00121" lon="4.61571">
        <ele>336.299987793</ele>
        <time>2015-08-11T09:07:02.477Z</time>
      </trkpt>
      <trkpt lat="46.00124" lon="4.61564">
        <ele>336.299987793</ele>
        <time>2015-08-11T09:07:03.443Z</time>
      </trkpt>
      <trkpt lat="46.00127" lon="4.61558">
        <ele>336.299987793</ele>
        <time>2015-08-11T09:07:04.473Z</time>
      </trkpt>
      <trkpt lat="46.00129" lon="4.61552">
        <ele>336.299987793</ele>
        <time>2015-08-11T09:07:05.441Z</time>
      </trkpt>
      <trkpt lat="46.00132" lon="4.61545">
        <ele>336.399993896</ele>
        <time>2015-08-11T09:07:06.473Z</time>
      </trkpt>
      <trkpt lat="46.00134" lon="4.61539">
        <ele>336.600006104</ele>
        <time>2015-08-11T09:07:07.443Z</time>
      </trkpt>
      <trkpt lat="46.00137" lon="4.61534">
        <ele>336.600006104</ele>
        <time>2015-08-11T09:07:08.495Z</time>
      </trkpt>
      <trkpt lat="46.00139" lon="4.61527">
        <ele>336.5</ele>
        <time>2015-08-11T09:07:09.443Z</time>
      </trkpt>
      <trkpt lat="46.00142" lon="4.6152">
        <ele>336.700012207</ele>
        <time>2015-08-11T09:07:10.481Z</time>
      </trkpt>
      <trkpt lat="46.00146" lon="4.61512">
        <ele>336.5</ele>
        <time>2015-08-11T09:07:11.441Z</time>
      </trkpt>
      <trkpt lat="46.00149" lon="4.61505">
        <ele>336.100006104</ele>
        <time>2015-08-11T09:07:12.472Z</time>
      </trkpt>
      <trkpt lat="46.00151" lon="4.61497">
        <ele>336.399993896</ele>
        <time>2015-08-11T09:07:13.439Z</time>
      </trkpt>
      <trkpt lat="46.00153" lon="4.6149">
        <ele>336.5</ele>
        <time>2015-08-11T09:07:14.487Z</time>
      </trkpt>
      <trkpt lat="46.00156" lon="4.61483">
        <ele>336.299987793</ele>
        <time>2015-08-11T09:07:15.443Z</time>
      </trkpt>
      <trkpt lat="46.00158" lon="4.61477">
        <ele>336.100006104</ele>
        <time>2015-08-11T09:07:16.473Z</time>
      </trkpt>
      <trkpt lat="46.00161" lon="4.6147">
        <ele>336</ele>
        <time>2015-08-11T09:07:17.442Z</time>
      </trkpt>
      <trkpt lat="46.00162" lon="4.61462">
        <ele>335.799987793</ele>
        <time>2015-08-11T09:07:18.474Z</time>
      </trkpt>
      <trkpt lat="46.00164" lon="4.61455">
        <ele>335.5</ele>
        <time>2015-08-11T09:07:19.445Z</time>
      </trkpt>
      <trkpt lat="46.00166" lon="4.61447">
        <ele>335.399993896</ele>
        <time>2015-08-11T09:07:20.523Z</time>
      </trkpt>
      <trkpt lat="46.00168" lon="4.6144">
        <ele>334.799987793</ele>
        <time>2015-08-11T09:07:21.443Z</time>
      </trkpt>
      <trkpt lat="46.0017" lon="4.61432">
        <ele>334.200012207</ele>
        <time>2015-08-11T09:07:22.476Z</time>
      </trkpt>
      <trkpt lat="46.00172" lon="4.61425">
        <ele>334</ele>
        <time>2015-08-11T09:07:23.442Z</time>
      </trkpt>
      <trkpt lat="46.00174" lon="4.61418">
        <ele>333</ele>
        <time>2015-08-11T09:07:24.473Z</time>
      </trkpt>
      <trkpt lat="46.00176" lon="4.61412">
        <ele>332.600006104</ele>
        <time>2015-08-11T09:07:25.443Z</time>
      </trkpt>
      <trkpt lat="46.00178" lon="4.61404">
        <ele>332.600006104</ele>
        <time>2015-08-11T09:07:26.477Z</time>
      </trkpt>
      <trkpt lat="46.0018" lon="4.61398">
        <ele>332.299987793</ele>
        <time>2015-08-11T09:07:27.462Z</time>
      </trkpt>
      <trkpt lat="46.00182" lon="4.6139">
        <ele>332.399993896</ele>
        <time>2015-08-11T09:07:28.473Z</time>
      </trkpt>
      <trkpt lat="46.00185" lon="4.61383">
        <ele>332.799987793</ele>
        <time>2015-08-11T09:07:29.442Z</time>
      </trkpt>
      <trkpt lat="46.00187" lon="4.61376">
        <ele>332.799987793</ele>
        <time>2015-08-11T09:07:30.474Z</time>
      </trkpt>
      <trkpt lat="46.0019" lon="4.61368">
        <ele>333</ele>
        <time>2015-08-11T09:07:31.442Z</time>
      </trkpt>
      <trkpt lat="46.00192" lon="4.6136">
        <ele>332.700012207</ele>
        <time>2015-08-11T09:07:32.498Z</time>
      </trkpt>
      <trkpt lat="46.00195" lon="4.61352">
        <ele>332.600006104</ele>
        <time>2015-08-11T09:07:33.445Z</time>
      </trkpt>
      <trkpt lat="46.00199" lon="4.61344">
        <ele>333.100006104</ele>
        <time>2015-08-11T09:07:34.475Z</time>
      </trkpt>
      <trkpt lat="46.00201" lon="4.61336">
        <ele>333</ele>
        <time>2015-08-11T09:07:35.442Z</time>
      </trkpt>
      <trkpt lat="46.00204" lon="4.61328">
        <ele>333.299987793</ele>
        <time>2015-08-11T09:07:36.474Z</time>
      </trkpt>
      <trkpt lat="46.00206" lon="4.61319">
        <ele>333.600006104</ele>
        <time>2015-08-11T09:07:37.444Z</time>
      </trkpt>
      <trkpt lat="46.00208" lon="4.61312">
        <ele>333.700012207</ele>
        <time>2015-08-11T09:07:38.475Z</time>
      </trkpt>
      <trkpt lat="46.00211" lon="4.61303">
        <ele>333.700012207</ele>
        <time>2015-08-11T09:07:39.443Z</time>
      </trkpt>
      <trkpt lat="46.00213" lon="4.61296">
        <ele>333.700012207</ele>
        <time>2015-08-11T09:07:40.477Z</time>
      </trkpt>
      <trkpt lat="46.00216" lon="4.61288">
        <ele>333.700012207</ele>
        <time>2015-08-11T09:07:41.429Z</time>
      </trkpt>
      <trkpt lat="46.00218" lon="4.61281">
        <ele>333.799987793</ele>
        <time>2015-08-11T09:07:42.477Z</time>
      </trkpt>
      <trkpt lat="46.0022" lon="4.61274">
        <ele>333.799987793</ele>
        <time>2015-08-11T09:07:43.443Z</time>
      </trkpt>
      <trkpt lat="46.00222" lon="4.61266">
        <ele>334</ele>
        <time>2015-08-11T09:07:44.475Z</time>
      </trkpt>
      <trkpt lat="46.00224" lon="4.61258">
        <ele>333.799987793</ele>
        <time>2015-08-11T09:07:45.443Z</time>
      </trkpt>
      <trkpt lat="46.00226" lon="4.61251">
        <ele>333.399993896</ele>
        <time>2015-08-11T09:07:46.473Z</time>
      </trkpt>
      <trkpt lat="46.00229" lon="4.61243">
        <ele>333.399993896</ele>
        <time>2015-08-11T09:07:47.446Z</time>
      </trkpt>
      <trkpt lat="46.00231" lon="4.61236">
        <ele>333.299987793</ele>
        <time>2015-08-11T09:07:48.49Z</time>
      </trkpt>
      <trkpt lat="46.00234" lon="4.61229">
        <ele>333.399993896</ele>
        <time>2015-08-11T09:07:49.444Z</time>
      </trkpt>
      <trkpt lat="46.00237" lon="4.61222">
        <ele>333.100006104</ele>
        <time>2015-08-11T09:07:50.475Z</time>
      </trkpt>
      <trkpt lat="46.00239" lon="4.61214">
        <ele>332.799987793</ele>
        <time>2015-08-11T09:07:51.447Z</time>
      </trkpt>
      <trkpt lat="46.00242" lon="4.61206">
        <ele>332.600006104</ele>
        <time>2015-08-11T09:07:52.48Z</time>
      </trkpt>
      <trkpt lat="46.00245" lon="4.61197">
        <ele>332.5</ele>
        <time>2015-08-11T09:07:53.44Z</time>
      </trkpt>
      <trkpt lat="46.00248" lon="4.61188">
        <ele>332.200012207</ele>
        <time>2015-08-11T09:07:54.475Z</time>
      </trkpt>
      <trkpt lat="46.00251" lon="4.61179">
        <ele>332</ele>
        <time>2015-08-11T09:07:55.488Z</time>
      </trkpt>
      <trkpt lat="46.00253" lon="4.6117">
        <ele>332</ele>
        <time>2015-08-11T09:07:56.477Z</time>
      </trkpt>
      <trkpt lat="46.00255" lon="4.61162">
        <ele>331.299987793</ele>
        <time>2015-08-11T09:07:57.442Z</time>
      </trkpt>
      <trkpt lat="46.00258" lon="4.61154">
        <ele>331.200012207</ele>
        <time>2015-08-11T09:07:58.477Z</time>
      </trkpt>
      <trkpt lat="46.0026" lon="4.61147">
        <ele>331</ele>
        <time>2015-08-11T09:07:59.442Z</time>
      </trkpt>
      <trkpt lat="46.00262" lon="4.6114">
        <ele>330.799987793</ele>
        <time>2015-08-11T09:08:00.476Z</time>
      </trkpt>
      <trkpt lat="46.00265" lon="4.61132">
        <ele>330.700012207</ele>
        <time>2015-08-11T09:08:01.43Z</time>
      </trkpt>
      <trkpt lat="46.00267" lon="4.61125">
        <ele>330.399993896</ele>
        <time>2015-08-11T09:08:02.475Z</time>
      </trkpt>
      <trkpt lat="46.0027" lon="4.61117">
        <ele>330.299987793</ele>
        <time>2015-08-11T09:08:03.442Z</time>
      </trkpt>
      <trkpt lat="46.00272" lon="4.61108">
        <ele>329.899993896</ele>
        <time>2015-08-11T09:08:04.554Z</time>
      </trkpt>
      <trkpt lat="46.00275" lon="4.611">
        <ele>329.700012207</ele>
        <time>2015-08-11T09:08:05.441Z</time>
      </trkpt>
      <trkpt lat="46.00277" lon="4.61091">
        <ele>329.600006104</ele>
        <time>2015-08-11T09:08:06.487Z</time>
      </trkpt>
      <trkpt lat="46.0028" lon="4.61083">
        <ele>329.799987793</ele>
        <time>2015-08-11T09:08:07.445Z</time>
      </trkpt>
      <trkpt lat="46.00283" lon="4.61074">
        <ele>329.899993896</ele>
        <time>2015-08-11T09:08:08.477Z</time>
      </trkpt>
      <trkpt lat="46.00286" lon="4.61066">
        <ele>329.799987793</ele>
        <time>2015-08-11T09:08:09.447Z</time>
      </trkpt>
      <trkpt lat="46.00289" lon="4.61058">
        <ele>330.100006104</ele>
        <time>2015-08-11T09:08:10.476Z</time>
      </trkpt>
      <trkpt lat="46.00292" lon="4.6105">
        <ele>329.899993896</ele>
        <time>2015-08-11T09:08:11.442Z</time>
      </trkpt>
      <trkpt lat="46.00294" lon="4.61042">
        <ele>329.200012207</ele>
        <time>2015-08-11T09:08:12.548Z</time>
      </trkpt>
      <trkpt lat="46.00296" lon="4.61034">
        <ele>328.899993896</ele>
        <time>2015-08-11T09:08:13.443Z</time>
      </trkpt>
      <trkpt lat="46.00298" lon="4.61022">
        <ele>328.100006104</ele>
        <time>2015-08-11T09:08:15.478Z</time>
      </trkpt>
      <trkpt lat="46.00299" lon="4.61015">
        <ele>327.700012207</ele>
        <time>2015-08-11T09:08:16.44Z</time>
      </trkpt>
      <trkpt lat="46.00301" lon="4.61009">
        <ele>327.299987793</ele>
        <time>2015-08-11T09:08:17.487Z</time>
      </trkpt>
      <trkpt lat="46.00304" lon="4.61003">
        <ele>327.200012207</ele>
        <time>2015-08-11T09:08:18.444Z</time>
      </trkpt>
      <trkpt lat="46.00306" lon="4.60997">
        <ele>326.899993896</ele>
        <time>2015-08-11T09:08:19.508Z</time>
      </trkpt>
      <trkpt lat="46.00309" lon="4.6099">
        <ele>326.600006104</ele>
        <time>2015-08-11T09:08:20.441Z</time>
      </trkpt>
      <trkpt lat="46.00312" lon="4.60982">
        <ele>326.5</ele>
        <time>2015-08-11T09:08:21.475Z</time>
      </trkpt>
      <trkpt lat="46.00314" lon="4.60975">
        <ele>326.200012207</ele>
        <time>2015-08-11T09:08:22.44Z</time>
      </trkpt>
      <trkpt lat="46.00317" lon="4.60967">
        <ele>326.100006104</ele>
        <time>2015-08-11T09:08:23.524Z</time>
      </trkpt>
      <trkpt lat="46.00319" lon="4.6096">
        <ele>326</ele>
        <time>2015-08-11T09:08:24.446Z</time>
      </trkpt>
      <trkpt lat="46.00321" lon="4.60951">
        <ele>326</ele>
        <time>2015-08-11T09:08:25.478Z</time>
      </trkpt>
      <trkpt lat="46.00324" lon="4.60942">
        <ele>325.799987793</ele>
        <time>2015-08-11T09:08:26.465Z</time>
      </trkpt>
      <trkpt lat="46.00326" lon="4.60932">
        <ele>325.5</ele>
        <time>2015-08-11T09:08:27.477Z</time>
      </trkpt>
      <trkpt lat="46.00329" lon="4.60923">
        <ele>325.399993896</ele>
        <time>2015-08-11T09:08:28.441Z</time>
      </trkpt>
      <trkpt lat="46.00332" lon="4.60915">
        <ele>325.600006104</ele>
        <time>2015-08-11T09:08:29.477Z</time>
      </trkpt>
      <trkpt lat="46.00335" lon="4.60907">
        <ele>326</ele>
        <time>2015-08-11T09:08:30.434Z</time>
      </trkpt>
      <trkpt lat="46.00337" lon="4.60899">
        <ele>325.899993896</ele>
        <time>2015-08-11T09:08:31.481Z</time>
      </trkpt>
      <trkpt lat="46.0034" lon="4.60891">
        <ele>326</ele>
        <time>2015-08-11T09:08:32.442Z</time>
      </trkpt>
      <trkpt lat="46.00343" lon="4.60885">
        <ele>326</ele>
        <time>2015-08-11T09:08:33.482Z</time>
      </trkpt>
      <trkpt lat="46.00346" lon="4.60878">
        <ele>326.200012207</ele>
        <time>2015-08-11T09:08:34.44Z</time>
      </trkpt>
      <trkpt lat="46.00348" lon="4.6087">
        <ele>326.200012207</ele>
        <time>2015-08-11T09:08:35.493Z</time>
      </trkpt>
      <trkpt lat="46.0035" lon="4.60861">
        <ele>326.100006104</ele>
        <time>2015-08-11T09:08:36.441Z</time>
      </trkpt>
      <trkpt lat="46.00353" lon="4.60852">
        <ele>326</ele>
        <time>2015-08-11T09:08:37.475Z</time>
      </trkpt>
      <trkpt lat="46.00355" lon="4.60842">
        <ele>325.799987793</ele>
        <time>2015-08-11T09:08:38.428Z</time>
      </trkpt>
      <trkpt lat="46.00358" lon="4.60834">
        <ele>325.600006104</ele>
        <time>2015-08-11T09:08:39.481Z</time>
      </trkpt>
      <trkpt lat="46.0036" lon="4.60826">
        <ele>325.600006104</ele>
        <time>2015-08-11T09:08:40.44Z</time>
      </trkpt>
      <trkpt lat="46.00361" lon="4.60817">
        <ele>325.5</ele>
        <time>2015-08-11T09:08:41.477Z</time>
      </trkpt>
      <trkpt lat="46.00362" lon="4.60808">
        <ele>325.299987793</ele>
        <time>2015-08-11T09:08:42.473Z</time>
      </trkpt>
      <trkpt lat="46.00365" lon="4.608">
        <ele>325.100006104</ele>
        <time>2015-08-11T09:08:43.475Z</time>
      </trkpt>
      <trkpt lat="46.00367" lon="4.6079">
        <ele>325.299987793</ele>
        <time>2015-08-11T09:08:44.441Z</time>
      </trkpt>
      <trkpt lat="46.0037" lon="4.60783">
        <ele>325.299987793</ele>
        <time>2015-08-11T09:08:45.478Z</time>
      </trkpt>
      <trkpt lat="46.00373" lon="4.60775">
        <ele>325.5</ele>
        <time>2015-08-11T09:08:46.428Z</time>
      </trkpt>
      <trkpt lat="46.00376" lon="4.60767">
        <ele>325.5</ele>
        <time>2015-08-11T09:08:47.472Z</time>
      </trkpt>
      <trkpt lat="46.0038" lon="4.6076">
        <ele>326.200012207</ele>
        <time>2015-08-11T09:08:48.434Z</time>
      </trkpt>
      <trkpt lat="46.00383" lon="4.60753">
        <ele>326.600006104</ele>
        <time>2015-08-11T09:08:49.509Z</time>
      </trkpt>
      <trkpt lat="46.00386" lon="4.60746">
        <ele>326.899993896</ele>
        <time>2015-08-11T09:08:50.441Z</time>
      </trkpt>
      <trkpt lat="46.00389" lon="4.60739">
        <ele>327</ele>
        <time>2015-08-11T09:08:51.553Z</time>
      </trkpt>
      <trkpt lat="46.00392" lon="4.6073">
        <ele>326.799987793</ele>
        <time>2015-08-11T09:08:52.441Z</time>
      </trkpt>
      <trkpt lat="46.00394" lon="4.60722">
        <ele>326.799987793</ele>
        <time>2015-08-11T09:08:53.473Z</time>
      </trkpt>
      <trkpt lat="46.00397" lon="4.60714">
        <ele>327</ele>
        <time>2015-08-11T09:08:54.445Z</time>
      </trkpt>
      <trkpt lat="46.004" lon="4.60707">
        <ele>327.200012207</ele>
        <time>2015-08-11T09:08:55.479Z</time>
      </trkpt>
      <trkpt lat="46.00404" lon="4.607">
        <ele>327.5</ele>
        <time>2015-08-11T09:08:56.442Z</time>
      </trkpt>
      <trkpt lat="46.00407" lon="4.60694">
        <ele>327.600006104</ele>
        <time>2015-08-11T09:08:57.474Z</time>
      </trkpt>
      <trkpt lat="46.00412" lon="4.60688">
        <ele>327.799987793</ele>
        <time>2015-08-11T09:08:58.441Z</time>
      </trkpt>
      <trkpt lat="46.00416" lon="4.60683">
        <ele>328.299987793</ele>
        <time>2015-08-11T09:08:59.473Z</time>
      </trkpt>
      <trkpt lat="46.00421" lon="4.60678">
        <ele>328.700012207</ele>
        <time>2015-08-11T09:09:00.429Z</time>
      </trkpt>
      <trkpt lat="46.00425" lon="4.60672">
        <ele>329</ele>
        <time>2015-08-11T09:09:01.478Z</time>
      </trkpt>
      <trkpt lat="46.00429" lon="4.60666">
        <ele>329</ele>
        <time>2015-08-11T09:09:02.428Z</time>
      </trkpt>
      <trkpt lat="46.00433" lon="4.60659">
        <ele>328.899993896</ele>
        <time>2015-08-11T09:09:03.477Z</time>
      </trkpt>
      <trkpt lat="46.00437" lon="4.60652">
        <ele>328.799987793</ele>
        <time>2015-08-11T09:09:04.441Z</time>
      </trkpt>
      <trkpt lat="46.00442" lon="4.60645">
        <ele>328.799987793</ele>
        <time>2015-08-11T09:09:05.476Z</time>
      </trkpt>
      <trkpt lat="46.00445" lon="4.60639">
        <ele>328.899993896</ele>
        <time>2015-08-11T09:09:06.439Z</time>
      </trkpt>
      <trkpt lat="46.00448" lon="4.60632">
        <ele>328.700012207</ele>
        <time>2015-08-11T09:09:07.495Z</time>
      </trkpt>
      <trkpt lat="46.00451" lon="4.60626">
        <ele>328.5</ele>
        <time>2015-08-11T09:09:08.44Z</time>
      </trkpt>
      <trkpt lat="46.00454" lon="4.60619">
        <ele>328.600006104</ele>
        <time>2015-08-11T09:09:09.478Z</time>
      </trkpt>
      <trkpt lat="46.00455" lon="4.60611">
        <ele>328.5</ele>
        <time>2015-08-11T09:09:10.483Z</time>
      </trkpt>
      <trkpt lat="46.00458" lon="4.60605">
        <ele>328.600006104</ele>
        <time>2015-08-11T09:09:11.481Z</time>
      </trkpt>
      <trkpt lat="46.0046" lon="4.60598">
        <ele>328.799987793</ele>
        <time>2015-08-11T09:09:12.44Z</time>
      </trkpt>
      <trkpt lat="46.00462" lon="4.6059">
        <ele>328.799987793</ele>
        <time>2015-08-11T09:09:13.478Z</time>
      </trkpt>
      <trkpt lat="46.00464" lon="4.60584">
        <ele>328.799987793</ele>
        <time>2015-08-11T09:09:14.439Z</time>
      </trkpt>
      <trkpt lat="46.00466" lon="4.60577">
        <ele>329</ele>
        <time>2015-08-11T09:09:15.473Z</time>
      </trkpt>
      <trkpt lat="46.00467" lon="4.60567">
        <ele>329.200012207</ele>
        <time>2015-08-11T09:09:16.428Z</time>
      </trkpt>
      <trkpt lat="46.00469" lon="4.60559">
        <ele>329.399993896</ele>
        <time>2015-08-11T09:09:17.472Z</time>
      </trkpt>
      <trkpt lat="46.00471" lon="4.60551">
        <ele>329.399993896</ele>
        <time>2015-08-11T09:09:18.44Z</time>
      </trkpt>
      <trkpt lat="46.00474" lon="4.60545">
        <ele>329.5</ele>
        <time>2015-08-11T09:09:19.473Z</time>
      </trkpt>
      <trkpt lat="46.00477" lon="4.60538">
        <ele>329.600006104</ele>
        <time>2015-08-11T09:09:20.462Z</time>
      </trkpt>
      <trkpt lat="46.00479" lon="4.60532">
        <ele>329.399993896</ele>
        <time>2015-08-11T09:09:21.472Z</time>
      </trkpt>
      <trkpt lat="46.00481" lon="4.60525">
        <ele>329.399993896</ele>
        <time>2015-08-11T09:09:22.442Z</time>
      </trkpt>
      <trkpt lat="46.00484" lon="4.60519">
        <ele>329.200012207</ele>
        <time>2015-08-11T09:09:23.489Z</time>
      </trkpt>
      <trkpt lat="46.00487" lon="4.60513">
        <ele>329.200012207</ele>
        <time>2015-08-11T09:09:24.44Z</time>
      </trkpt>
      <trkpt lat="46.00489" lon="4.60508">
        <ele>329</ele>
        <time>2015-08-11T09:09:25.487Z</time>
      </trkpt>
      <trkpt lat="46.00492" lon="4.60501">
        <ele>329</ele>
        <time>2015-08-11T09:09:26.44Z</time>
      </trkpt>
      <trkpt lat="46.00494" lon="4.60495">
        <ele>328.899993896</ele>
        <time>2015-08-11T09:09:27.513Z</time>
      </trkpt>
      <trkpt lat="46.00496" lon="4.60488">
        <ele>328.899993896</ele>
        <time>2015-08-11T09:09:28.44Z</time>
      </trkpt>
      <trkpt lat="46.00499" lon="4.60482">
        <ele>328.899993896</ele>
        <time>2015-08-11T09:09:29.55Z</time>
      </trkpt>
      <trkpt lat="46.00501" lon="4.60476">
        <ele>329</ele>
        <time>2015-08-11T09:09:30.448Z</time>
      </trkpt>
      <trkpt lat="46.00504" lon="4.60469">
        <ele>329</ele>
        <time>2015-08-11T09:09:31.475Z</time>
      </trkpt>
      <trkpt lat="46.00506" lon="4.60464">
        <ele>329.200012207</ele>
        <time>2015-08-11T09:09:32.442Z</time>
      </trkpt>
      <trkpt lat="46.00509" lon="4.60458">
        <ele>329.200012207</ele>
        <time>2015-08-11T09:09:33.476Z</time>
      </trkpt>
      <trkpt lat="46.00511" lon="4.60451">
        <ele>328.899993896</ele>
        <time>2015-08-11T09:09:34.439Z</time>
      </trkpt>
      <trkpt lat="46.00512" lon="4.60444">
        <ele>329</ele>
        <time>2015-08-11T09:09:35.493Z</time>
      </trkpt>
      <trkpt lat="46.00515" lon="4.60438">
        <ele>329</ele>
        <time>2015-08-11T09:09:36.444Z</time>
      </trkpt>
      <trkpt lat="46.00519" lon="4.60427">
        <ele>328.799987793</ele>
        <time>2015-08-11T09:09:38.472Z</time>
      </trkpt>
      <trkpt lat="46.00521" lon="4.60421">
        <ele>328.799987793</ele>
        <time>2015-08-11T09:09:39.473Z</time>
      </trkpt>
      <trkpt lat="46.00524" lon="4.60415">
        <ele>328.700012207</ele>
        <time>2015-08-11T09:09:40.472Z</time>
      </trkpt>
      <trkpt lat="46.00526" lon="4.60408">
        <ele>328.700012207</ele>
        <time>2015-08-11T09:09:41.44Z</time>
      </trkpt>
      <trkpt lat="46.00529" lon="4.60402">
        <ele>328.600006104</ele>
        <time>2015-08-11T09:09:42.472Z</time>
      </trkpt>
      <trkpt lat="46.00531" lon="4.60396">
        <ele>328.5</ele>
        <time>2015-08-11T09:09:43.443Z</time>
      </trkpt>
      <trkpt lat="46.00535" lon="4.60385">
        <ele>328.5</ele>
        <time>2015-08-11T09:09:45.485Z</time>
      </trkpt>
      <trkpt lat="46.00537" lon="4.60379">
        <ele>328.799987793</ele>
        <time>2015-08-11T09:09:46.44Z</time>
      </trkpt>
      <trkpt lat="46.00541" lon="4.60367">
        <ele>329</ele>
        <time>2015-08-11T09:09:48.485Z</time>
      </trkpt>
      <trkpt lat="46.00542" lon="4.60365">
        <ele>329.299987793</ele>
        <time>2015-08-11T09:09:49.444Z</time>
      </trkpt>
      <trkpt lat="46.00547" lon="4.60357">
        <ele>329.200012207</ele>
        <time>2015-08-11T09:09:52.479Z</time>
      </trkpt>
      <trkpt lat="46.00549" lon="4.60353">
        <ele>329.200012207</ele>
        <time>2015-08-11T09:09:53.44Z</time>
      </trkpt>
      <trkpt lat="46.00552" lon="4.60345">
        <ele>329.100006104</ele>
        <time>2015-08-11T09:09:54.486Z</time>
      </trkpt>
      <trkpt lat="46.00553" lon="4.60339">
        <ele>329.200012207</ele>
        <time>2015-08-11T09:09:55.442Z</time>
      </trkpt>
      <trkpt lat="46.00557" lon="4.60329">
        <ele>329.5</ele>
        <time>2015-08-11T09:09:57.476Z</time>
      </trkpt>
      <trkpt lat="46.00559" lon="4.60324">
        <ele>329.100006104</ele>
        <time>2015-08-11T09:09:58.445Z</time>
      </trkpt>
      <trkpt lat="46.00562" lon="4.60313">
        <ele>329.200012207</ele>
        <time>2015-08-11T09:10:00.493Z</time>
      </trkpt>
      <trkpt lat="46.00564" lon="4.60309">
        <ele>329.100006104</ele>
        <time>2015-08-11T09:10:01.443Z</time>
      </trkpt>
      <trkpt lat="46.00567" lon="4.603">
        <ele>329</ele>
        <time>2015-08-11T09:10:03.476Z</time>
      </trkpt>
      <trkpt lat="46.00569" lon="4.60297">
        <ele>328.799987793</ele>
        <time>2015-08-11T09:10:04.437Z</time>
      </trkpt>
      <trkpt lat="46.00576" lon="4.60289">
        <ele>329.200012207</ele>
        <time>2015-08-11T09:10:06.506Z</time>
      </trkpt>
      <trkpt lat="46.00577" lon="4.60284">
        <ele>329.600006104</ele>
        <time>2015-08-11T09:10:07.443Z</time>
      </trkpt>
      <trkpt lat="46.00578" lon="4.60275">
        <ele>329.700012207</ele>
        <time>2015-08-11T09:10:09.537Z</time>
      </trkpt>
      <trkpt lat="46.00578" lon="4.60269">
        <ele>327.899993896</ele>
        <time>2015-08-11T09:10:10.452Z</time>
      </trkpt>
      <trkpt lat="46.0058" lon="4.60259">
        <ele>327.899993896</ele>
        <time>2015-08-11T09:10:12.665Z</time>
      </trkpt>
      <trkpt lat="46.00582" lon="4.60257">
        <ele>328</ele>
        <time>2015-08-11T09:10:13.442Z</time>
      </trkpt>
      <trkpt lat="46.00582" lon="4.60257">
        <ele>328</ele>
        <time>2015-08-11T09:10:13.491Z</time>
      </trkpt>
      <trkpt lat="46.00591" lon="4.60254">
        <ele>327.899993896</ele>
        <time>2015-08-11T09:10:14.467Z</time>
      </trkpt>
      <trkpt lat="46.00595" lon="4.60253">
        <ele>327.799987793</ele>
        <time>2015-08-11T09:10:15.49Z</time>
      </trkpt>
      <trkpt lat="46.00606" lon="4.60254">
        <ele>327.799987793</ele>
        <time>2015-08-11T09:10:16.443Z</time>
      </trkpt>
      <trkpt lat="46.00611" lon="4.60244">
        <ele>327.100006104</ele>
        <time>2015-08-11T09:10:18.481Z</time>
      </trkpt>
      <trkpt lat="46.00614" lon="4.60239">
        <ele>326.5</ele>
        <time>2015-08-11T09:10:19.475Z</time>
      </trkpt>
      <trkpt lat="46.00614" lon="4.60227">
        <ele>325.700012207</ele>
        <time>2015-08-11T09:10:21.495Z</time>
      </trkpt>
      <trkpt lat="46.00614" lon="4.6022">
        <ele>325.5</ele>
        <time>2015-08-11T09:10:22.441Z</time>
      </trkpt>
      <trkpt lat="46.00618" lon="4.60209">
        <ele>325.899993896</ele>
        <time>2015-08-11T09:10:25.479Z</time>
      </trkpt>
      <trkpt lat="46.00621" lon="4.60207">
        <ele>325.399993896</ele>
        <time>2015-08-11T09:10:26.44Z</time>
      </trkpt>
      <trkpt lat="46.00621" lon="4.60198">
        <ele>325.200012207</ele>
        <time>2015-08-11T09:10:27.486Z</time>
      </trkpt>
      <trkpt lat="46.0062" lon="4.60191">
        <ele>325</ele>
        <time>2015-08-11T09:10:28.444Z</time>
      </trkpt>
      <trkpt lat="46.00621" lon="4.60184">
        <ele>324.899993896</ele>
        <time>2015-08-11T09:10:29.487Z</time>
      </trkpt>
      <trkpt lat="46.00622" lon="4.60178">
        <ele>325</ele>
        <time>2015-08-11T09:10:30.417Z</time>
      </trkpt>
      <trkpt lat="46.00626" lon="4.60167">
        <ele>324.700012207</ele>
        <time>2015-08-11T09:10:32.485Z</time>
      </trkpt>
      <trkpt lat="46.00627" lon="4.60161">
        <ele>324.899993896</ele>
        <time>2015-08-11T09:10:33.442Z</time>
      </trkpt>
      <trkpt lat="46.00628" lon="4.6015">
        <ele>325.299987793</ele>
        <time>2015-08-11T09:10:35.472Z</time>
      </trkpt>
      <trkpt lat="46.00631" lon="4.60145">
        <ele>325.5</ele>
        <time>2015-08-11T09:10:36.431Z</time>
      </trkpt>
      <trkpt lat="46.00636" lon="4.60134">
        <ele>326.200012207</ele>
        <time>2015-08-11T09:10:38.484Z</time>
      </trkpt>
      <trkpt lat="46.00638" lon="4.60131">
        <ele>326.5</ele>
        <time>2015-08-11T09:10:39.441Z</time>
      </trkpt>
      <trkpt lat="46.00637" lon="4.6012">
        <ele>327.100006104</ele>
        <time>2015-08-11T09:10:41.48Z</time>
      </trkpt>
      <trkpt lat="46.00638" lon="4.60115">
        <ele>327.299987793</ele>
        <time>2015-08-11T09:10:42.44Z</time>
      </trkpt>
      <trkpt lat="46.00635" lon="4.60105">
        <ele>327.100006104</ele>
        <time>2015-08-11T09:10:44.483Z</time>
      </trkpt>
      <trkpt lat="46.0063" lon="4.601">
        <ele>327.100006104</ele>
        <time>2015-08-11T09:10:45.442Z</time>
      </trkpt>
      <trkpt lat="46.00622" lon="4.60093">
        <ele>326.600006104</ele>
        <time>2015-08-11T09:10:47.478Z</time>
      </trkpt>
      <trkpt lat="46.00623" lon="4.60084">
        <ele>326.5</ele>
        <time>2015-08-11T09:10:48.442Z</time>
      </trkpt>
      <trkpt lat="46.0062" lon="4.60076">
        <ele>326.600006104</ele>
        <time>2015-08-11T09:10:49.472Z</time>
      </trkpt>
      <trkpt lat="46.0062" lon="4.6007">
        <ele>326.5</ele>
        <time>2015-08-11T09:10:50.44Z</time>
      </trkpt>
      <trkpt lat="46.00617" lon="4.60059">
        <ele>326.5</ele>
        <time>2015-08-11T09:10:52.472Z</time>
      </trkpt>
      <trkpt lat="46.00616" lon="4.60054">
        <ele>326.600006104</ele>
        <time>2015-08-11T09:10:53.46Z</time>
      </trkpt>
      <trkpt lat="46.00618" lon="4.60045">
        <ele>327.100006104</ele>
        <time>2015-08-11T09:10:55.519Z</time>
      </trkpt>
      <trkpt lat="46.0062" lon="4.6004">
        <ele>327.200012207</ele>
        <time>2015-08-11T09:10:56.475Z</time>
      </trkpt>
      <trkpt lat="46.00621" lon="4.60031">
        <ele>327.799987793</ele>
        <time>2015-08-11T09:10:58.471Z</time>
      </trkpt>
      <trkpt lat="46.00621" lon="4.60027">
        <ele>328.299987793</ele>
        <time>2015-08-11T09:10:59.438Z</time>
      </trkpt>
      <trkpt lat="46.0062" lon="4.60018">
        <ele>328.799987793</ele>
        <time>2015-08-11T09:11:01.473Z</time>
      </trkpt>
      <trkpt lat="46.00619" lon="4.60013">
        <ele>328.899993896</ele>
        <time>2015-08-11T09:11:02.439Z</time>
      </trkpt>
      <trkpt lat="46.00618" lon="4.60003">
        <ele>329.100006104</ele>
        <time>2015-08-11T09:11:04.535Z</time>
      </trkpt>
      <trkpt lat="46.00618" lon="4.59998">
        <ele>329.299987793</ele>
        <time>2015-08-11T09:11:05.453Z</time>
      </trkpt>
      <trkpt lat="46.00619" lon="4.59988">
        <ele>329.399993896</ele>
        <time>2015-08-11T09:11:07.478Z</time>
      </trkpt>
      <trkpt lat="46.00619" lon="4.59984">
        <ele>329.5</ele>
        <time>2015-08-11T09:11:08.515Z</time>
      </trkpt>
      <trkpt lat="46.00622" lon="4.59974">
        <ele>329.600006104</ele>
        <time>2015-08-11T09:11:10.507Z</time>
      </trkpt>
      <trkpt lat="46.00623" lon="4.59969">
        <ele>329.700012207</ele>
        <time>2015-08-11T09:11:11.518Z</time>
      </trkpt>
      <trkpt lat="46.00625" lon="4.59959">
        <ele>330.200012207</ele>
        <time>2015-08-11T09:11:13.498Z</time>
      </trkpt>
      <trkpt lat="46.00626" lon="4.59954">
        <ele>330.299987793</ele>
        <time>2015-08-11T09:11:14.453Z</time>
      </trkpt>
      <trkpt lat="46.00623" lon="4.59943">
        <ele>331</ele>
        <time>2015-08-11T09:11:16.488Z</time>
      </trkpt>
      <trkpt lat="46.00623" lon="4.59937">
        <ele>331.200012207</ele>
        <time>2015-08-11T09:11:17.633Z</time>
      </trkpt>
      <trkpt lat="46.00623" lon="4.59927">
        <ele>331.700012207</ele>
        <time>2015-08-11T09:11:19.505Z</time>
      </trkpt>
      <trkpt lat="46.00624" lon="4.59923">
        <ele>331.899993896</ele>
        <time>2015-08-11T09:11:20.455Z</time>
      </trkpt>
      <trkpt lat="46.00623" lon="4.59913">
        <ele>332.299987793</ele>
        <time>2015-08-11T09:11:22.481Z</time>
      </trkpt>
      <trkpt lat="46.00623" lon="4.59908">
        <ele>332.5</ele>
        <time>2015-08-11T09:11:23.432Z</time>
      </trkpt>
      <trkpt lat="46.00622" lon="4.59898">
        <ele>332.600006104</ele>
        <time>2015-08-11T09:11:25.478Z</time>
      </trkpt>
      <trkpt lat="46.00622" lon="4.59893">
        <ele>332.700012207</ele>
        <time>2015-08-11T09:11:26.446Z</time>
      </trkpt>
      <trkpt lat="46.00621" lon="4.59883">
        <ele>333.5</ele>
        <time>2015-08-11T09:11:28.482Z</time>
      </trkpt>
      <trkpt lat="46.0062" lon="4.59878">
        <ele>333.700012207</ele>
        <time>2015-08-11T09:11:29.443Z</time>
      </trkpt>
      <trkpt lat="46.00622" lon="4.59866">
        <ele>334</ele>
        <time>2015-08-11T09:11:31.48Z</time>
      </trkpt>
      <trkpt lat="46.00622" lon="4.59861">
        <ele>334.200012207</ele>
        <time>2015-08-11T09:11:32.443Z</time>
      </trkpt>
      <trkpt lat="46.00621" lon="4.59849">
        <ele>334.799987793</ele>
        <time>2015-08-11T09:11:35.483Z</time>
      </trkpt>
      <trkpt lat="46.00622" lon="4.59844">
        <ele>335.100006104</ele>
        <time>2015-08-11T09:11:36.444Z</time>
      </trkpt>
      <trkpt lat="46.00623" lon="4.59835">
        <ele>335.600006104</ele>
        <time>2015-08-11T09:11:38.517Z</time>
      </trkpt>
      <trkpt lat="46.00623" lon="4.59831">
        <ele>335.799987793</ele>
        <time>2015-08-11T09:11:39.443Z</time>
      </trkpt>
      <trkpt lat="46.00622" lon="4.59819">
        <ele>336.600006104</ele>
        <time>2015-08-11T09:11:42.487Z</time>
      </trkpt>
      <trkpt lat="46.00622" lon="4.59814">
        <ele>336.799987793</ele>
        <time>2015-08-11T09:11:43.447Z</time>
      </trkpt>
      <trkpt lat="46.00623" lon="4.59804">
        <ele>337.399993896</ele>
        <time>2015-08-11T09:11:46.485Z</time>
      </trkpt>
      <trkpt lat="46.00623" lon="4.59801">
        <ele>337.700012207</ele>
        <time>2015-08-11T09:11:47.448Z</time>
      </trkpt>
      <trkpt lat="46.00624" lon="4.59788">
        <ele>338.899993896</ele>
        <time>2015-08-11T09:11:51.476Z</time>
      </trkpt>
      <trkpt lat="46.00625" lon="4.59785">
        <ele>339.200012207</ele>
        <time>2015-08-11T09:11:52.44Z</time>
      </trkpt>
      <trkpt lat="46.00626" lon="4.59774">
        <ele>340.200012207</ele>
        <time>2015-08-11T09:11:55.487Z</time>
      </trkpt>
      <trkpt lat="46.00626" lon="4.5977">
        <ele>340.5</ele>
        <time>2015-08-11T09:11:56.439Z</time>
      </trkpt>
      <trkpt lat="46.00627" lon="4.59758">
        <ele>341.299987793</ele>
        <time>2015-08-11T09:11:59.537Z</time>
      </trkpt>
      <trkpt lat="46.00628" lon="4.59754">
        <ele>341.5</ele>
        <time>2015-08-11T09:12:00.446Z</time>
      </trkpt>
      <trkpt lat="46.00627" lon="4.59742">
        <ele>342.799987793</ele>
        <time>2015-08-11T09:12:03.478Z</time>
      </trkpt>
      <trkpt lat="46.00627" lon="4.59737">
        <ele>343.200012207</ele>
        <time>2015-08-11T09:12:04.486Z</time>
      </trkpt>
      <trkpt lat="46.00628" lon="4.59725">
        <ele>344.100006104</ele>
        <time>2015-08-11T09:12:07.482Z</time>
      </trkpt>
      <trkpt lat="46.00629" lon="4.59721">
        <ele>344.399993896</ele>
        <time>2015-08-11T09:12:08.442Z</time>
      </trkpt>
      <trkpt lat="46.00631" lon="4.59711">
        <ele>345.299987793</ele>
        <time>2015-08-11T09:12:11.491Z</time>
      </trkpt>
      <trkpt lat="46.00632" lon="4.59707">
        <ele>345.5</ele>
        <time>2015-08-11T09:12:12.442Z</time>
      </trkpt>
      <trkpt lat="46.00634" lon="4.59697">
        <ele>346.200012207</ele>
        <time>2015-08-11T09:12:15.479Z</time>
      </trkpt>
      <trkpt lat="46.00634" lon="4.59693">
        <ele>346.399993896</ele>
        <time>2015-08-11T09:12:16.467Z</time>
      </trkpt>
      <trkpt lat="46.00633" lon="4.59682">
        <ele>347.100006104</ele>
        <time>2015-08-11T09:12:19.523Z</time>
      </trkpt>
      <trkpt lat="46.00633" lon="4.59678">
        <ele>347.600006104</ele>
        <time>2015-08-11T09:12:20.443Z</time>
      </trkpt>
      <trkpt lat="46.00634" lon="4.59667">
        <ele>348.399993896</ele>
        <time>2015-08-11T09:12:23.486Z</time>
      </trkpt>
      <trkpt lat="46.00634" lon="4.59663">
        <ele>348.700012207</ele>
        <time>2015-08-11T09:12:24.443Z</time>
      </trkpt>
      <trkpt lat="46.00633" lon="4.59653">
        <ele>349.299987793</ele>
        <time>2015-08-11T09:12:27.497Z</time>
      </trkpt>
      <trkpt lat="46.00634" lon="4.59649">
        <ele>349.5</ele>
        <time>2015-08-11T09:12:28.44Z</time>
      </trkpt>
      <trkpt lat="46.00634" lon="4.59639">
        <ele>350.200012207</ele>
        <time>2015-08-11T09:12:31.477Z</time>
      </trkpt>
      <trkpt lat="46.00634" lon="4.59635">
        <ele>350.299987793</ele>
        <time>2015-08-11T09:12:32.442Z</time>
      </trkpt>
      <trkpt lat="46.00633" lon="4.59624">
        <ele>351.5</ele>
        <time>2015-08-11T09:12:35.477Z</time>
      </trkpt>
      <trkpt lat="46.00633" lon="4.5962">
        <ele>351.600006104</ele>
        <time>2015-08-11T09:12:36.442Z</time>
      </trkpt>
      <trkpt lat="46.00633" lon="4.5962">
        <ele>351.600006104</ele>
        <time>2015-08-11T09:12:36.487Z</time>
      </trkpt>
      <trkpt lat="46.00633" lon="4.59618">
        <ele>351.899993896</ele>
        <time>2015-08-11T09:12:37.444Z</time>
      </trkpt>
      <trkpt lat="46.00633" lon="4.59618">
        <ele>351.899993896</ele>
        <time>2015-08-11T09:12:37.72Z</time>
      </trkpt>
      <trkpt lat="46.00633" lon="4.59615">
        <ele>352.200012207</ele>
        <time>2015-08-11T09:12:38.441Z</time>
      </trkpt>
      <trkpt lat="46.00632" lon="4.59604">
        <ele>353.5</ele>
        <time>2015-08-11T09:12:41.477Z</time>
      </trkpt>
      <trkpt lat="46.00631" lon="4.596">
        <ele>353.899993896</ele>
        <time>2015-08-11T09:12:42.441Z</time>
      </trkpt>
      <trkpt lat="46.00631" lon="4.5959">
        <ele>355.200012207</ele>
        <time>2015-08-11T09:12:45.479Z</time>
      </trkpt>
      <trkpt lat="46.00631" lon="4.59587">
        <ele>355.600006104</ele>
        <time>2015-08-11T09:12:46.44Z</time>
      </trkpt>
      <trkpt lat="46.0063" lon="4.59576">
        <ele>356.5</ele>
        <time>2015-08-11T09:12:49.485Z</time>
      </trkpt>
      <trkpt lat="46.0063" lon="4.59573">
        <ele>356.799987793</ele>
        <time>2015-08-11T09:12:50.442Z</time>
      </trkpt>
      <trkpt lat="46.00629" lon="4.59561">
        <ele>358</ele>
        <time>2015-08-11T09:12:54.473Z</time>
      </trkpt>
      <trkpt lat="46.00628" lon="4.59557">
        <ele>358.399993896</ele>
        <time>2015-08-11T09:12:55.437Z</time>
      </trkpt>
      <trkpt lat="46.00627" lon="4.59546">
        <ele>359.200012207</ele>
        <time>2015-08-11T09:12:58.475Z</time>
      </trkpt>
      <trkpt lat="46.00626" lon="4.59542">
        <ele>359.5</ele>
        <time>2015-08-11T09:12:59.44Z</time>
      </trkpt>
      <trkpt lat="46.00627" lon="4.5953">
        <ele>360.399993896</ele>
        <time>2015-08-11T09:13:02.477Z</time>
      </trkpt>
      <trkpt lat="46.00626" lon="4.59526">
        <ele>360.700012207</ele>
        <time>2015-08-11T09:13:03.442Z</time>
      </trkpt>
      <trkpt lat="46.00626" lon="4.59518">
        <ele>361.299987793</ele>
        <time>2015-08-11T09:13:05.473Z</time>
      </trkpt>
      <trkpt lat="46.00626" lon="4.59512">
        <ele>361.700012207</ele>
        <time>2015-08-11T09:13:06.443Z</time>
      </trkpt>
      <trkpt lat="46.00625" lon="4.59503">
        <ele>362.299987793</ele>
        <time>2015-08-11T09:13:08.489Z</time>
      </trkpt>
      <trkpt lat="46.00625" lon="4.59499">
        <ele>362.600006104</ele>
        <time>2015-08-11T09:13:09.444Z</time>
      </trkpt>
      <trkpt lat="46.00625" lon="4.5949">
        <ele>363.299987793</ele>
        <time>2015-08-11T09:13:11.472Z</time>
      </trkpt>
      <trkpt lat="46.00625" lon="4.59485">
        <ele>363.5</ele>
        <time>2015-08-11T09:13:12.438Z</time>
      </trkpt>
      <trkpt lat="46.00625" lon="4.59472">
        <ele>364.399993896</ele>
        <time>2015-08-11T09:13:15.481Z</time>
      </trkpt>
      <trkpt lat="46.00626" lon="4.59468">
        <ele>364.399993896</ele>
        <time>2015-08-11T09:13:16.442Z</time>
      </trkpt>
      <trkpt lat="46.00625" lon="4.59456">
        <ele>365.200012207</ele>
        <time>2015-08-11T09:13:19.497Z</time>
      </trkpt>
      <trkpt lat="46.00624" lon="4.59452">
        <ele>365.600006104</ele>
        <time>2015-08-11T09:13:20.445Z</time>
      </trkpt>
      <trkpt lat="46.00623" lon="4.59439">
        <ele>366.799987793</ele>
        <time>2015-08-11T09:13:23.477Z</time>
      </trkpt>
      <trkpt lat="46.00623" lon="4.59435">
        <ele>367.200012207</ele>
        <time>2015-08-11T09:13:24.441Z</time>
      </trkpt>
      <trkpt lat="46.00624" lon="4.59424">
        <ele>367.600006104</ele>
        <time>2015-08-11T09:13:27.474Z</time>
      </trkpt>
      <trkpt lat="46.00625" lon="4.5942">
        <ele>367.899993896</ele>
        <time>2015-08-11T09:13:28.441Z</time>
      </trkpt>
      <trkpt lat="46.00625" lon="4.59409">
        <ele>368.399993896</ele>
        <time>2015-08-11T09:13:31.481Z</time>
      </trkpt>
      <trkpt lat="46.00625" lon="4.59406">
        <ele>368.600006104</ele>
        <time>2015-08-11T09:13:32.442Z</time>
      </trkpt>
      <trkpt lat="46.00625" lon="4.59394">
        <ele>369</ele>
        <time>2015-08-11T09:13:35.477Z</time>
      </trkpt>
      <trkpt lat="46.00624" lon="4.59391">
        <ele>369.200012207</ele>
        <time>2015-08-11T09:13:36.442Z</time>
      </trkpt>
      <trkpt lat="46.00622" lon="4.59379">
        <ele>370.200012207</ele>
        <time>2015-08-11T09:13:40.537Z</time>
      </trkpt>
      <trkpt lat="46.00621" lon="4.59376">
        <ele>370.299987793</ele>
        <time>2015-08-11T09:13:41.447Z</time>
      </trkpt>
      <trkpt lat="46.00616" lon="4.59366">
        <ele>371</ele>
        <time>2015-08-11T09:13:44.476Z</time>
      </trkpt>
      <trkpt lat="46.00615" lon="4.59363">
        <ele>371.200012207</ele>
        <time>2015-08-11T09:13:45.443Z</time>
      </trkpt>
      <trkpt lat="46.00612" lon="4.59353">
        <ele>372.100006104</ele>
        <time>2015-08-11T09:13:48.482Z</time>
      </trkpt>
      <trkpt lat="46.00611" lon="4.5935">
        <ele>372.399993896</ele>
        <time>2015-08-11T09:13:49.444Z</time>
      </trkpt>
      <trkpt lat="46.00606" lon="4.59342">
        <ele>372.600006104</ele>
        <time>2015-08-11T09:13:51.577Z</time>
      </trkpt>
      <trkpt lat="46.00605" lon="4.59339">
        <ele>372.700012207</ele>
        <time>2015-08-11T09:13:52.442Z</time>
      </trkpt>
      <trkpt lat="46.00602" lon="4.5933">
        <ele>372.600006104</ele>
        <time>2015-08-11T09:13:55.484Z</time>
      </trkpt>
      <trkpt lat="46.00601" lon="4.59326">
        <ele>372.799987793</ele>
        <time>2015-08-11T09:13:56.455Z</time>
      </trkpt>
      <trkpt lat="46.00597" lon="4.59316">
        <ele>372.600006104</ele>
        <time>2015-08-11T09:13:59.497Z</time>
      </trkpt>
      <trkpt lat="46.00595" lon="4.59313">
        <ele>372.600006104</ele>
        <time>2015-08-11T09:14:00.431Z</time>
      </trkpt>
      <trkpt lat="46.00592" lon="4.59303">
        <ele>372.600006104</ele>
        <time>2015-08-11T09:14:03.473Z</time>
      </trkpt>
      <trkpt lat="46.00591" lon="4.593">
        <ele>372.799987793</ele>
        <time>2015-08-11T09:14:04.442Z</time>
      </trkpt>
      <trkpt lat="46.00589" lon="4.59289">
        <ele>373.399993896</ele>
        <time>2015-08-11T09:14:07.563Z</time>
      </trkpt>
      <trkpt lat="46.00588" lon="4.59287">
        <ele>373.600006104</ele>
        <time>2015-08-11T09:14:08.439Z</time>
      </trkpt>
      <trkpt lat="46.00588" lon="4.59287">
        <ele>373.600006104</ele>
        <time>2015-08-11T09:14:08.48Z</time>
      </trkpt>
      <trkpt lat="46.00588" lon="4.59286">
        <ele>373.899993896</ele>
        <time>2015-08-11T09:14:09.441Z</time>
      </trkpt>
      <trkpt lat="46.00588" lon="4.59275">
        <ele>374.100006104</ele>
        <time>2015-08-11T09:14:12.483Z</time>
      </trkpt>
      <trkpt lat="46.00589" lon="4.59272">
        <ele>374</ele>
        <time>2015-08-11T09:14:13.469Z</time>
      </trkpt>
      <trkpt lat="46.00591" lon="4.59261">
        <ele>374.799987793</ele>
        <time>2015-08-11T09:14:16.523Z</time>
      </trkpt>
      <trkpt lat="46.00592" lon="4.59259">
        <ele>374.799987793</ele>
        <time>2015-08-11T09:14:17.431Z</time>
      </trkpt>
      <trkpt lat="46.00592" lon="4.59249">
        <ele>375.600006104</ele>
        <time>2015-08-11T09:14:20.476Z</time>
      </trkpt>
      <trkpt lat="46.00593" lon="4.59246">
        <ele>375.700012207</ele>
        <time>2015-08-11T09:14:21.44Z</time>
      </trkpt>
      <trkpt lat="46.00597" lon="4.59235">
        <ele>376.399993896</ele>
        <time>2015-08-11T09:14:25.475Z</time>
      </trkpt>
      <trkpt lat="46.00598" lon="4.59232">
        <ele>376.5</ele>
        <time>2015-08-11T09:14:26.464Z</time>
      </trkpt>
      <trkpt lat="46.00601" lon="4.59221">
        <ele>376.899993896</ele>
        <time>2015-08-11T09:14:30.473Z</time>
      </trkpt>
      <trkpt lat="46.00602" lon="4.59218">
        <ele>377.200012207</ele>
        <time>2015-08-11T09:14:31.441Z</time>
      </trkpt>
      <trkpt lat="46.00604" lon="4.59208">
        <ele>378.200012207</ele>
        <time>2015-08-11T09:14:35.471Z</time>
      </trkpt>
      <trkpt lat="46.00605" lon="4.59205">
        <ele>378.399993896</ele>
        <time>2015-08-11T09:14:36.439Z</time>
      </trkpt>
      <trkpt lat="46.00607" lon="4.59194">
        <ele>380.299987793</ele>
        <time>2015-08-11T09:14:41.476Z</time>
      </trkpt>
      <trkpt lat="46.00607" lon="4.59191">
        <ele>380.700012207</ele>
        <time>2015-08-11T09:14:42.509Z</time>
      </trkpt>
      <trkpt lat="46.0061" lon="4.59183">
        <ele>381.799987793</ele>
        <time>2015-08-11T09:14:45.473Z</time>
      </trkpt>
      <trkpt lat="46.00611" lon="4.59179">
        <ele>382.100006104</ele>
        <time>2015-08-11T09:14:46.442Z</time>
      </trkpt>
      <trkpt lat="46.00612" lon="4.59168">
        <ele>383.299987793</ele>
        <time>2015-08-11T09:14:49.481Z</time>
      </trkpt>
      <trkpt lat="46.00612" lon="4.59164">
        <ele>383.700012207</ele>
        <time>2015-08-11T09:14:50.44Z</time>
      </trkpt>
      <trkpt lat="46.0061" lon="4.59155">
        <ele>384.399993896</ele>
        <time>2015-08-11T09:14:52.472Z</time>
      </trkpt>
      <trkpt lat="46.0061" lon="4.5915">
        <ele>384.600006104</ele>
        <time>2015-08-11T09:14:53.445Z</time>
      </trkpt>
      <trkpt lat="46.00609" lon="4.59141">
        <ele>385.100006104</ele>
        <time>2015-08-11T09:14:55.477Z</time>
      </trkpt>
      <trkpt lat="46.00609" lon="4.59136">
        <ele>385.200012207</ele>
        <time>2015-08-11T09:14:56.445Z</time>
      </trkpt>
      <trkpt lat="46.00608" lon="4.59126">
        <ele>385.299987793</ele>
        <time>2015-08-11T09:14:58.475Z</time>
      </trkpt>
      <trkpt lat="46.00608" lon="4.59121">
        <ele>385.399993896</ele>
        <time>2015-08-11T09:14:59.445Z</time>
      </trkpt>
      <trkpt lat="46.00609" lon="4.59108">
        <ele>386.399993896</ele>
        <time>2015-08-11T09:15:02.472Z</time>
      </trkpt>
      <trkpt lat="46.00608" lon="4.59104">
        <ele>386.600006104</ele>
        <time>2015-08-11T09:15:03.442Z</time>
      </trkpt>
      <trkpt lat="46.00606" lon="4.59093">
        <ele>387.399993896</ele>
        <time>2015-08-11T09:15:06.563Z</time>
      </trkpt>
      <trkpt lat="46.00606" lon="4.59088">
        <ele>387.600006104</ele>
        <time>2015-08-11T09:15:07.443Z</time>
      </trkpt>
      <trkpt lat="46.00608" lon="4.59077">
        <ele>387.299987793</ele>
        <time>2015-08-11T09:15:10.479Z</time>
      </trkpt>
      <trkpt lat="46.00609" lon="4.59073">
        <ele>387.200012207</ele>
        <time>2015-08-11T09:15:11.438Z</time>
      </trkpt>
      <trkpt lat="46.00609" lon="4.59061">
        <ele>386.600006104</ele>
        <time>2015-08-11T09:15:14.487Z</time>
      </trkpt>
      <trkpt lat="46.00609" lon="4.59055">
        <ele>386.5</ele>
        <time>2015-08-11T09:15:15.514Z</time>
      </trkpt>
      <trkpt lat="46.00611" lon="4.59049">
        <ele>386.5</ele>
        <time>2015-08-11T09:15:16.477Z</time>
      </trkpt>
      <trkpt lat="46.00613" lon="4.59043">
        <ele>386.399993896</ele>
        <time>2015-08-11T09:15:17.449Z</time>
      </trkpt>
      <trkpt lat="46.00616" lon="4.59038">
        <ele>386.299987793</ele>
        <time>2015-08-11T09:15:18.486Z</time>
      </trkpt>
      <trkpt lat="46.0062" lon="4.59033">
        <ele>386.299987793</ele>
        <time>2015-08-11T09:15:19.443Z</time>
      </trkpt>
      <trkpt lat="46.00624" lon="4.59028">
        <ele>386.100006104</ele>
        <time>2015-08-11T09:15:20.5Z</time>
      </trkpt>
      <trkpt lat="46.00629" lon="4.59024">
        <ele>386.100006104</ele>
        <time>2015-08-11T09:15:21.428Z</time>
      </trkpt>
      <trkpt lat="46.00634" lon="4.59021">
        <ele>386.200012207</ele>
        <time>2015-08-11T09:15:22.48Z</time>
      </trkpt>
      <trkpt lat="46.0064" lon="4.59017">
        <ele>386.200012207</ele>
        <time>2015-08-11T09:15:23.433Z</time>
      </trkpt>
      <trkpt lat="46.00644" lon="4.59012">
        <ele>386.299987793</ele>
        <time>2015-08-11T09:15:24.483Z</time>
      </trkpt>
      <trkpt lat="46.00648" lon="4.59009">
        <ele>386.399993896</ele>
        <time>2015-08-11T09:15:25.443Z</time>
      </trkpt>
      <trkpt lat="46.00653" lon="4.59005">
        <ele>386.5</ele>
        <time>2015-08-11T09:15:26.474Z</time>
      </trkpt>
      <trkpt lat="46.00659" lon="4.59001">
        <ele>386.5</ele>
        <time>2015-08-11T09:15:27.442Z</time>
      </trkpt>
      <trkpt lat="46.00665" lon="4.58994">
        <ele>386.5</ele>
        <time>2015-08-11T09:15:28.476Z</time>
      </trkpt>
      <trkpt lat="46.0067" lon="4.58989">
        <ele>386.399993896</ele>
        <time>2015-08-11T09:15:29.446Z</time>
      </trkpt>
      <trkpt lat="46.00678" lon="4.58983">
        <ele>386.299987793</ele>
        <time>2015-08-11T09:15:30.492Z</time>
      </trkpt>
      <trkpt lat="46.00685" lon="4.58978">
        <ele>386.100006104</ele>
        <time>2015-08-11T09:15:31.443Z</time>
      </trkpt>
      <trkpt lat="46.00693" lon="4.58973">
        <ele>386.100006104</ele>
        <time>2015-08-11T09:15:32.473Z</time>
      </trkpt>
      <trkpt lat="46.007" lon="4.58969">
        <ele>386.100006104</ele>
        <time>2015-08-11T09:15:33.442Z</time>
      </trkpt>
      <trkpt lat="46.00706" lon="4.58963">
        <ele>386.200012207</ele>
        <time>2015-08-11T09:15:34.478Z</time>
      </trkpt>
      <trkpt lat="46.00713" lon="4.58958">
        <ele>386.200012207</ele>
        <time>2015-08-11T09:15:35.441Z</time>
      </trkpt>
      <trkpt lat="46.00719" lon="4.58952">
        <ele>386.200012207</ele>
        <time>2015-08-11T09:15:36.473Z</time>
      </trkpt>
      <trkpt lat="46.00722" lon="4.58944">
        <ele>386.299987793</ele>
        <time>2015-08-11T09:15:37.441Z</time>
      </trkpt>
      <trkpt lat="46.00724" lon="4.58932">
        <ele>386.700012207</ele>
        <time>2015-08-11T09:15:39.487Z</time>
      </trkpt>
      <trkpt lat="46.00724" lon="4.58926">
        <ele>386.700012207</ele>
        <time>2015-08-11T09:15:40.442Z</time>
      </trkpt>
      <trkpt lat="46.00718" lon="4.5892">
        <ele>387.299987793</ele>
        <time>2015-08-11T09:15:42.477Z</time>
      </trkpt>
      <trkpt lat="46.00716" lon="4.58918">
        <ele>387.299987793</ele>
        <time>2015-08-11T09:15:43.443Z</time>
      </trkpt>
      <trkpt lat="46.00711" lon="4.58912">
        <ele>387.700012207</ele>
        <time>2015-08-11T09:15:45.476Z</time>
      </trkpt>
      <trkpt lat="46.00708" lon="4.5891">
        <ele>388</ele>
        <time>2015-08-11T09:15:46.433Z</time>
      </trkpt>
      <trkpt lat="46.00701" lon="4.58906">
        <ele>388.600006104</ele>
        <time>2015-08-11T09:15:48.479Z</time>
      </trkpt>
      <trkpt lat="46.00699" lon="4.58905">
        <ele>388.700012207</ele>
        <time>2015-08-11T09:15:49.588Z</time>
      </trkpt>
      <trkpt lat="46.00692" lon="4.58902">
        <ele>388.799987793</ele>
        <time>2015-08-11T09:15:52.49Z</time>
      </trkpt>
      <trkpt lat="46.0069" lon="4.58901">
        <ele>388.600006104</ele>
        <time>2015-08-11T09:15:53.438Z</time>
      </trkpt>
      <trkpt lat="46.00683" lon="4.58899">
        <ele>387.600006104</ele>
        <time>2015-08-11T09:15:55.473Z</time>
      </trkpt>
      <trkpt lat="46.00681" lon="4.58898">
        <ele>387.5</ele>
        <time>2015-08-11T09:15:56.441Z</time>
      </trkpt>
      <trkpt lat="46.00674" lon="4.58899">
        <ele>387.399993896</ele>
        <time>2015-08-11T09:15:59.472Z</time>
      </trkpt>
      <trkpt lat="46.00672" lon="4.58898">
        <ele>387.299987793</ele>
        <time>2015-08-11T09:16:00.428Z</time>
      </trkpt>
      <trkpt lat="46.00663" lon="4.58898">
        <ele>387.200012207</ele>
        <time>2015-08-11T09:16:05.472Z</time>
      </trkpt>
      <trkpt lat="46.00661" lon="4.58898">
        <ele>387.200012207</ele>
        <time>2015-08-11T09:16:06.438Z</time>
      </trkpt>
      <trkpt lat="46.00654" lon="4.58899">
        <ele>387.5</ele>
        <time>2015-08-11T09:16:10.473Z</time>
      </trkpt>
      <trkpt lat="46.00651" lon="4.589">
        <ele>387.799987793</ele>
        <time>2015-08-11T09:16:11.438Z</time>
      </trkpt>
      <trkpt lat="46.00645" lon="4.58902">
        <ele>388.200012207</ele>
        <time>2015-08-11T09:16:14.471Z</time>
      </trkpt>
      <trkpt lat="46.00642" lon="4.58903">
        <ele>388.399993896</ele>
        <time>2015-08-11T09:16:15.442Z</time>
      </trkpt>
      <trkpt lat="46.00634" lon="4.58905">
        <ele>388.899993896</ele>
        <time>2015-08-11T09:16:18.472Z</time>
      </trkpt>
      <trkpt lat="46.00632" lon="4.58907">
        <ele>388.899993896</ele>
        <time>2015-08-11T09:16:19.443Z</time>
      </trkpt>
      <trkpt lat="46.00624" lon="4.5891">
        <ele>389.200012207</ele>
        <time>2015-08-11T09:16:23.472Z</time>
      </trkpt>
      <trkpt lat="46.00622" lon="4.58911">
        <ele>389.399993896</ele>
        <time>2015-08-11T09:16:24.435Z</time>
      </trkpt>
      <trkpt lat="46.00629" lon="4.58904">
        <ele>388.100006104</ele>
        <time>2015-08-11T09:16:45.476Z</time>
      </trkpt>
      <trkpt lat="46.0063" lon="4.58903">
        <ele>388.100006104</ele>
        <time>2015-08-11T09:16:46.439Z</time>
      </trkpt>
      <trkpt lat="46.00637" lon="4.58896">
        <ele>388.200012207</ele>
        <time>2015-08-11T09:16:52.473Z</time>
      </trkpt>
      <trkpt lat="46.00638" lon="4.58895">
        <ele>388.299987793</ele>
        <time>2015-08-11T09:16:53.456Z</time>
      </trkpt>
      <trkpt lat="46.00642" lon="4.58884">
        <ele>388.600006104</ele>
        <time>2015-08-11T09:16:59.487Z</time>
      </trkpt>
      <trkpt lat="46.00643" lon="4.58882">
        <ele>388.700012207</ele>
        <time>2015-08-11T09:17:00.429Z</time>
      </trkpt>
      <trkpt lat="46.00646" lon="4.58874">
        <ele>389.200012207</ele>
        <time>2015-08-11T09:17:05.479Z</time>
      </trkpt>
      <trkpt lat="46.00647" lon="4.58873">
        <ele>389.299987793</ele>
        <time>2015-08-11T09:17:06.433Z</time>
      </trkpt>
      <trkpt lat="46.00651" lon="4.58865">
        <ele>389.700012207</ele>
        <time>2015-08-11T09:17:10.475Z</time>
      </trkpt>
      <trkpt lat="46.00652" lon="4.58863">
        <ele>389.899993896</ele>
        <time>2015-08-11T09:17:11.433Z</time>
      </trkpt>
      <trkpt lat="46.00657" lon="4.58855">
        <ele>390.5</ele>
        <time>2015-08-11T09:17:17.473Z</time>
      </trkpt>
      <trkpt lat="46.00658" lon="4.58854">
        <ele>390.5</ele>
        <time>2015-08-11T09:17:18.438Z</time>
      </trkpt>
      <trkpt lat="46.00661" lon="4.58842">
        <ele>390.799987793</ele>
        <time>2015-08-11T09:17:25.497Z</time>
      </trkpt>
      <trkpt lat="46.00661" lon="4.5884">
        <ele>390.700012207</ele>
        <time>2015-08-11T09:17:26.459Z</time>
      </trkpt>
      <trkpt lat="46.00663" lon="4.58829">
        <ele>391</ele>
        <time>2015-08-11T09:17:32.476Z</time>
      </trkpt>
      <trkpt lat="46.00663" lon="4.58827">
        <ele>391.100006104</ele>
        <time>2015-08-11T09:17:33.442Z</time>
      </trkpt>
      <trkpt lat="46.00661" lon="4.58816">
        <ele>391.600006104</ele>
        <time>2015-08-11T09:17:39.472Z</time>
      </trkpt>
      <trkpt lat="46.00661" lon="4.58814">
        <ele>391.899993896</ele>
        <time>2015-08-11T09:17:40.44Z</time>
      </trkpt>
      <trkpt lat="46.00661" lon="4.58809">
        <ele>392.399993896</ele>
        <time>2015-08-11T09:17:44.476Z</time>
      </trkpt>
      <trkpt lat="46.0066" lon="4.58807">
        <ele>392.700012207</ele>
        <time>2015-08-11T09:17:45.461Z</time>
      </trkpt>
      <trkpt lat="46.00656" lon="4.58796">
        <ele>393.200012207</ele>
        <time>2015-08-11T09:17:51.473Z</time>
      </trkpt>
      <trkpt lat="46.00655" lon="4.58794">
        <ele>393.200012207</ele>
        <time>2015-08-11T09:17:52.483Z</time>
      </trkpt>
      <trkpt lat="46.00655" lon="4.58794">
        <ele>393.200012207</ele>
        <time>2015-08-11T09:17:52.571Z</time>
      </trkpt>
      <trkpt lat="46.00653" lon="4.58788">
        <ele>393.600006104</ele>
        <time>2015-08-11T09:17:56.489Z</time>
      </trkpt>
      <trkpt lat="46.00654" lon="4.58786">
        <ele>393.700012207</ele>
        <time>2015-08-11T09:17:57.441Z</time>
      </trkpt>
      <trkpt lat="46.00651" lon="4.58775">
        <ele>394.299987793</ele>
        <time>2015-08-11T09:18:03.475Z</time>
      </trkpt>
      <trkpt lat="46.0065" lon="4.58773">
        <ele>394.399993896</ele>
        <time>2015-08-11T09:18:04.417Z</time>
      </trkpt>
      <trkpt lat="46.00647" lon="4.58762">
        <ele>395</ele>
        <time>2015-08-11T09:18:10.474Z</time>
      </trkpt>
      <trkpt lat="46.00647" lon="4.58761">
        <ele>395.100006104</ele>
        <time>2015-08-11T09:18:11.438Z</time>
      </trkpt>
      <trkpt lat="46.00646" lon="4.58749">
        <ele>395.799987793</ele>
        <time>2015-08-11T09:18:17.472Z</time>
      </trkpt>
      <trkpt lat="46.00645" lon="4.58747">
        <ele>396</ele>
        <time>2015-08-11T09:18:18.438Z</time>
      </trkpt>
      <trkpt lat="46.00642" lon="4.58735">
        <ele>396.799987793</ele>
        <time>2015-08-11T09:18:24.479Z</time>
      </trkpt>
      <trkpt lat="46.00642" lon="4.58733">
        <ele>397</ele>
        <time>2015-08-11T09:18:25.441Z</time>
      </trkpt>
      <trkpt lat="46.00641" lon="4.58721">
        <ele>397.700012207</ele>
        <time>2015-08-11T09:18:30.476Z</time>
      </trkpt>
      <trkpt lat="46.00641" lon="4.58719">
        <ele>397.799987793</ele>
        <time>2015-08-11T09:18:31.504Z</time>
      </trkpt>
      <trkpt lat="46.00638" lon="4.58708">
        <ele>398.600006104</ele>
        <time>2015-08-11T09:18:36.515Z</time>
      </trkpt>
      <trkpt lat="46.00637" lon="4.58706">
        <ele>398.600006104</ele>
        <time>2015-08-11T09:18:37.441Z</time>
      </trkpt>
      <trkpt lat="46.00636" lon="4.58694">
        <ele>399.299987793</ele>
        <time>2015-08-11T09:18:43.473Z</time>
      </trkpt>
      <trkpt lat="46.00636" lon="4.58691">
        <ele>399.399993896</ele>
        <time>2015-08-11T09:18:44.438Z</time>
      </trkpt>
      <trkpt lat="46.00635" lon="4.58681">
        <ele>399.600006104</ele>
        <time>2015-08-11T09:18:48.471Z</time>
      </trkpt>
      <trkpt lat="46.00634" lon="4.58678">
        <ele>399.700012207</ele>
        <time>2015-08-11T09:18:49.443Z</time>
      </trkpt>
      <trkpt lat="46.00632" lon="4.58666">
        <ele>400.299987793</ele>
        <time>2015-08-11T09:18:54.471Z</time>
      </trkpt>
      <trkpt lat="46.00633" lon="4.58664">
        <ele>400.299987793</ele>
        <time>2015-08-11T09:18:55.442Z</time>
      </trkpt>
      <trkpt lat="46.00629" lon="4.58653">
        <ele>401.399993896</ele>
        <time>2015-08-11T09:19:00.472Z</time>
      </trkpt>
      <trkpt lat="46.00628" lon="4.58651">
        <ele>401.799987793</ele>
        <time>2015-08-11T09:19:01.442Z</time>
      </trkpt>
      <trkpt lat="46.00625" lon="4.58641">
        <ele>402.700012207</ele>
        <time>2015-08-11T09:19:05.472Z</time>
      </trkpt>
      <trkpt lat="46.00625" lon="4.58638">
        <ele>402.799987793</ele>
        <time>2015-08-11T09:19:06.44Z</time>
      </trkpt>
      <trkpt lat="46.00623" lon="4.58626">
        <ele>403.5</ele>
        <time>2015-08-11T09:19:10.479Z</time>
      </trkpt>
      <trkpt lat="46.00622" lon="4.58623">
        <ele>403.600006104</ele>
        <time>2015-08-11T09:19:11.438Z</time>
      </trkpt>
      <trkpt lat="46.00619" lon="4.58611">
        <ele>403.600006104</ele>
        <time>2015-08-11T09:19:15.473Z</time>
      </trkpt>
      <trkpt lat="46.00618" lon="4.58609">
        <ele>403.600006104</ele>
        <time>2015-08-11T09:19:16.44Z</time>
      </trkpt>
      <trkpt lat="46.00614" lon="4.58599">
        <ele>405.399993896</ele>
        <time>2015-08-11T09:19:20.511Z</time>
      </trkpt>
      <trkpt lat="46.00613" lon="4.58596">
        <ele>405.799987793</ele>
        <time>2015-08-11T09:19:21.44Z</time>
      </trkpt>
      <trkpt lat="46.00611" lon="4.58585">
        <ele>407.399993896</ele>
        <time>2015-08-11T09:19:25.477Z</time>
      </trkpt>
      <trkpt lat="46.00611" lon="4.58583">
        <ele>407.799987793</ele>
        <time>2015-08-11T09:19:26.473Z</time>
      </trkpt>
      <trkpt lat="46.00611" lon="4.58571">
        <ele>408.899993896</ele>
        <time>2015-08-11T09:19:31.476Z</time>
      </trkpt>
      <trkpt lat="46.00612" lon="4.58569">
        <ele>409.100006104</ele>
        <time>2015-08-11T09:19:32.438Z</time>
      </trkpt>
      <trkpt lat="46.00614" lon="4.58559">
        <ele>411.600006104</ele>
        <time>2015-08-11T09:19:38.472Z</time>
      </trkpt>
      <trkpt lat="46.00615" lon="4.58557">
        <ele>411.899993896</ele>
        <time>2015-08-11T09:19:39.462Z</time>
      </trkpt>
      <trkpt lat="46.00618" lon="4.58548">
        <ele>413.600006104</ele>
        <time>2015-08-11T09:19:44.475Z</time>
      </trkpt>
      <trkpt lat="46.00619" lon="4.58545">
        <ele>414.100006104</ele>
        <time>2015-08-11T09:19:45.442Z</time>
      </trkpt>
      <trkpt lat="46.00623" lon="4.58534">
        <ele>415.899993896</ele>
        <time>2015-08-11T09:19:51.475Z</time>
      </trkpt>
      <trkpt lat="46.00623" lon="4.58532">
        <ele>416.200012207</ele>
        <time>2015-08-11T09:19:52.437Z</time>
      </trkpt>
      <trkpt lat="46.00628" lon="4.58522">
        <ele>418.200012207</ele>
        <time>2015-08-11T09:19:59.481Z</time>
      </trkpt>
      <trkpt lat="46.00629" lon="4.58521">
        <ele>418.600006104</ele>
        <time>2015-08-11T09:20:00.437Z</time>
      </trkpt>
      <trkpt lat="46.00632" lon="4.58509">
        <ele>421</ele>
        <time>2015-08-11T09:20:08.508Z</time>
      </trkpt>
      <trkpt lat="46.00633" lon="4.58508">
        <ele>421.299987793</ele>
        <time>2015-08-11T09:20:09.44Z</time>
      </trkpt>
      <trkpt lat="46.00637" lon="4.58497">
        <ele>424.899993896</ele>
        <time>2015-08-11T09:20:17.493Z</time>
      </trkpt>
      <trkpt lat="46.00638" lon="4.58495">
        <ele>425.299987793</ele>
        <time>2015-08-11T09:20:18.438Z</time>
      </trkpt>
      <trkpt lat="46.00639" lon="4.58484">
        <ele>427.399993896</ele>
        <time>2015-08-11T09:20:23.472Z</time>
      </trkpt>
      <trkpt lat="46.0064" lon="4.58482">
        <ele>427.899993896</ele>
        <time>2015-08-11T09:20:24.442Z</time>
      </trkpt>
      <trkpt lat="46.00642" lon="4.5847">
        <ele>430.299987793</ele>
        <time>2015-08-11T09:20:30.476Z</time>
      </trkpt>
      <trkpt lat="46.00642" lon="4.58468">
        <ele>430.700012207</ele>
        <time>2015-08-11T09:20:31.447Z</time>
      </trkpt>
      <trkpt lat="46.0064" lon="4.58456">
        <ele>433.200012207</ele>
        <time>2015-08-11T09:20:38.475Z</time>
      </trkpt>
      <trkpt lat="46.0064" lon="4.58455">
        <ele>433.600006104</ele>
        <time>2015-08-11T09:20:39.441Z</time>
      </trkpt>
      <trkpt lat="46.00637" lon="4.58444">
        <ele>435.399993896</ele>
        <time>2015-08-11T09:20:46.469Z</time>
      </trkpt>
      <trkpt lat="46.00637" lon="4.58442">
        <ele>435.600006104</ele>
        <time>2015-08-11T09:20:47.437Z</time>
      </trkpt>
      <trkpt lat="46.00631" lon="4.58432">
        <ele>436.299987793</ele>
        <time>2015-08-11T09:20:54.472Z</time>
      </trkpt>
      <trkpt lat="46.00631" lon="4.58431">
        <ele>436.399993896</ele>
        <time>2015-08-11T09:20:55.513Z</time>
      </trkpt>
      <trkpt lat="46.00627" lon="4.58423">
        <ele>437</ele>
        <time>2015-08-11T09:20:59.499Z</time>
      </trkpt>
      <trkpt lat="46.00625" lon="4.5842">
        <ele>437.200012207</ele>
        <time>2015-08-11T09:21:00.417Z</time>
      </trkpt>
      <trkpt lat="46.00622" lon="4.58409">
        <ele>438.100006104</ele>
        <time>2015-08-11T09:21:04.472Z</time>
      </trkpt>
      <trkpt lat="46.00622" lon="4.58407">
        <ele>438.299987793</ele>
        <time>2015-08-11T09:21:05.518Z</time>
      </trkpt>
      <trkpt lat="46.00622" lon="4.58394">
        <ele>439.299987793</ele>
        <time>2015-08-11T09:21:11.474Z</time>
      </trkpt>
      <trkpt lat="46.00621" lon="4.58393">
        <ele>439.399993896</ele>
        <time>2015-08-11T09:21:12.438Z</time>
      </trkpt>
      <trkpt lat="46.00615" lon="4.58383">
        <ele>440</ele>
        <time>2015-08-11T09:21:18.485Z</time>
      </trkpt>
      <trkpt lat="46.00614" lon="4.58381">
        <ele>440</ele>
        <time>2015-08-11T09:21:19.469Z</time>
      </trkpt>
      <trkpt lat="46.00609" lon="4.58372">
        <ele>440</ele>
        <time>2015-08-11T09:21:23.534Z</time>
      </trkpt>
      <trkpt lat="46.00609" lon="4.58369">
        <ele>440</ele>
        <time>2015-08-11T09:21:24.437Z</time>
      </trkpt>
      <trkpt lat="46.00601" lon="4.58365">
        <ele>440.200012207</ele>
        <time>2015-08-11T09:21:28.475Z</time>
      </trkpt>
      <trkpt lat="46.006" lon="4.58364">
        <ele>440.299987793</ele>
        <time>2015-08-11T09:21:29.437Z</time>
      </trkpt>
      <trkpt lat="46.00594" lon="4.58355">
        <ele>440.799987793</ele>
        <time>2015-08-11T09:21:34.483Z</time>
      </trkpt>
      <trkpt lat="46.00593" lon="4.58355">
        <ele>440.799987793</ele>
        <time>2015-08-11T09:21:35.441Z</time>
      </trkpt>
      <trkpt lat="46.00585" lon="4.5835">
        <ele>440.799987793</ele>
        <time>2015-08-11T09:21:40.475Z</time>
      </trkpt>
      <trkpt lat="46.00583" lon="4.58348">
        <ele>441</ele>
        <time>2015-08-11T09:21:41.417Z</time>
      </trkpt>
      <trkpt lat="46.00576" lon="4.58341">
        <ele>442.299987793</ele>
        <time>2015-08-11T09:21:46.501Z</time>
      </trkpt>
      <trkpt lat="46.00575" lon="4.5834">
        <ele>442.700012207</ele>
        <time>2015-08-11T09:21:47.417Z</time>
      </trkpt>
      <trkpt lat="46.00566" lon="4.58336">
        <ele>443.200012207</ele>
        <time>2015-08-11T09:21:51.497Z</time>
      </trkpt>
      <trkpt lat="46.00564" lon="4.58335">
        <ele>443.399993896</ele>
        <time>2015-08-11T09:21:52.438Z</time>
      </trkpt>
      <trkpt lat="46.00558" lon="4.58332">
        <ele>443.899993896</ele>
        <time>2015-08-11T09:21:55.473Z</time>
      </trkpt>
      <trkpt lat="46.00555" lon="4.5833">
        <ele>443.899993896</ele>
        <time>2015-08-11T09:21:56.484Z</time>
      </trkpt>
      <trkpt lat="46.00548" lon="4.58324">
        <ele>444.100006104</ele>
        <time>2015-08-11T09:22:00.47Z</time>
      </trkpt>
      <trkpt lat="46.00546" lon="4.58323">
        <ele>444.399993896</ele>
        <time>2015-08-11T09:22:01.441Z</time>
      </trkpt>
      <trkpt lat="46.00537" lon="4.58323">
        <ele>444.799987793</ele>
        <time>2015-08-11T09:22:05.488Z</time>
      </trkpt>
      <trkpt lat="46.00535" lon="4.58323">
        <ele>445</ele>
        <time>2015-08-11T09:22:06.438Z</time>
      </trkpt>
      <trkpt lat="46.00528" lon="4.58319">
        <ele>446.200012207</ele>
        <time>2015-08-11T09:22:10.475Z</time>
      </trkpt>
      <trkpt lat="46.00526" lon="4.58317">
        <ele>446.5</ele>
        <time>2015-08-11T09:22:11.44Z</time>
      </trkpt>
      <trkpt lat="46.00519" lon="4.58311">
        <ele>447.399993896</ele>
        <time>2015-08-11T09:22:15.475Z</time>
      </trkpt>
      <trkpt lat="46.00519" lon="4.58309">
        <ele>447.399993896</ele>
        <time>2015-08-11T09:22:16.437Z</time>
      </trkpt>
      <trkpt lat="46.00523" lon="4.58299">
        <ele>447.799987793</ele>
        <time>2015-08-11T09:22:24.475Z</time>
      </trkpt>
      <trkpt lat="46.00524" lon="4.58298">
        <ele>447.799987793</ele>
        <time>2015-08-11T09:22:25.443Z</time>
      </trkpt>
      <trkpt lat="46.00533" lon="4.58297">
        <ele>448.100006104</ele>
        <time>2015-08-11T09:22:29.536Z</time>
      </trkpt>
      <trkpt lat="46.00535" lon="4.58298">
        <ele>448.399993896</ele>
        <time>2015-08-11T09:22:30.439Z</time>
      </trkpt>
      <trkpt lat="46.00541" lon="4.58304">
        <ele>449.399993896</ele>
        <time>2015-08-11T09:22:33.472Z</time>
      </trkpt>
      <trkpt lat="46.00543" lon="4.58305">
        <ele>450.600006104</ele>
        <time>2015-08-11T09:22:34.437Z</time>
      </trkpt>
      <trkpt lat="46.0055" lon="4.58305">
        <ele>451.700012207</ele>
        <time>2015-08-11T09:22:37.478Z</time>
      </trkpt>
      <trkpt lat="46.00553" lon="4.58306">
        <ele>451.899993896</ele>
        <time>2015-08-11T09:22:38.419Z</time>
      </trkpt>
      <trkpt lat="46.00559" lon="4.58308">
        <ele>452.200012207</ele>
        <time>2015-08-11T09:22:41.476Z</time>
      </trkpt>
      <trkpt lat="46.00562" lon="4.58309">
        <ele>452</ele>
        <time>2015-08-11T09:22:42.438Z</time>
      </trkpt>
      <trkpt lat="46.0057" lon="4.5831">
        <ele>450.5</ele>
        <time>2015-08-11T09:22:45.472Z</time>
      </trkpt>
      <trkpt lat="46.00572" lon="4.58312">
        <ele>450.299987793</ele>
        <time>2015-08-11T09:22:46.438Z</time>
      </trkpt>
      <trkpt lat="46.00579" lon="4.58316">
        <ele>449.200012207</ele>
        <time>2015-08-11T09:22:49.494Z</time>
      </trkpt>
      <trkpt lat="46.00582" lon="4.58317">
        <ele>449.100006104</ele>
        <time>2015-08-11T09:22:50.459Z</time>
      </trkpt>
      <trkpt lat="46.00589" lon="4.5832">
        <ele>448.799987793</ele>
        <time>2015-08-11T09:22:53.472Z</time>
      </trkpt>
      <trkpt lat="46.00591" lon="4.5832">
        <ele>449.399993896</ele>
        <time>2015-08-11T09:22:54.439Z</time>
      </trkpt>
      <trkpt lat="46.00599" lon="4.58317">
        <ele>450.200012207</ele>
        <time>2015-08-11T09:22:58.475Z</time>
      </trkpt>
      <trkpt lat="46.00601" lon="4.58315">
        <ele>450.600006104</ele>
        <time>2015-08-11T09:22:59.455Z</time>
      </trkpt>
      <trkpt lat="46.00604" lon="4.58306">
        <ele>451.200012207</ele>
        <time>2015-08-11T09:23:02.515Z</time>
      </trkpt>
      <trkpt lat="46.00604" lon="4.58302">
        <ele>451.600006104</ele>
        <time>2015-08-11T09:23:03.441Z</time>
      </trkpt>
      <trkpt lat="46.00601" lon="4.58294">
        <ele>452</ele>
        <time>2015-08-11T09:23:05.475Z</time>
      </trkpt>
      <trkpt lat="46.00599" lon="4.58291">
        <ele>452.399993896</ele>
        <time>2015-08-11T09:23:06.437Z</time>
      </trkpt>
      <trkpt lat="46.00591" lon="4.58286">
        <ele>452.700012207</ele>
        <time>2015-08-11T09:23:09.486Z</time>
      </trkpt>
      <trkpt lat="46.00589" lon="4.58285">
        <ele>453</ele>
        <time>2015-08-11T09:23:10.44Z</time>
      </trkpt>
      <trkpt lat="46.00582" lon="4.5828">
        <ele>454.399993896</ele>
        <time>2015-08-11T09:23:13.515Z</time>
      </trkpt>
      <trkpt lat="46.00579" lon="4.58279">
        <ele>454.799987793</ele>
        <time>2015-08-11T09:23:14.437Z</time>
      </trkpt>
      <trkpt lat="46.00573" lon="4.58275">
        <ele>455.299987793</ele>
        <time>2015-08-11T09:23:17.474Z</time>
      </trkpt>
      <trkpt lat="46.00571" lon="4.58274">
        <ele>455.5</ele>
        <time>2015-08-11T09:23:18.437Z</time>
      </trkpt>
      <trkpt lat="46.00565" lon="4.58268">
        <ele>456.299987793</ele>
        <time>2015-08-11T09:23:21.49Z</time>
      </trkpt>
      <trkpt lat="46.00563" lon="4.58266">
        <ele>456.600006104</ele>
        <time>2015-08-11T09:23:22.439Z</time>
      </trkpt>
      <trkpt lat="46.00556" lon="4.58259">
        <ele>458.5</ele>
        <time>2015-08-11T09:23:26.471Z</time>
      </trkpt>
      <trkpt lat="46.00554" lon="4.58258">
        <ele>458.899993896</ele>
        <time>2015-08-11T09:23:27.441Z</time>
      </trkpt>
      <trkpt lat="46.00547" lon="4.58251">
        <ele>460.600006104</ele>
        <time>2015-08-11T09:23:31.477Z</time>
      </trkpt>
      <trkpt lat="46.00547" lon="4.58247">
        <ele>460.899993896</ele>
        <time>2015-08-11T09:23:32.484Z</time>
      </trkpt>
      <trkpt lat="46.0054" lon="4.58242">
        <ele>460.5</ele>
        <time>2015-08-11T09:23:36.475Z</time>
      </trkpt>
      <trkpt lat="46.00538" lon="4.58241">
        <ele>460.399993896</ele>
        <time>2015-08-11T09:23:37.437Z</time>
      </trkpt>
      <trkpt lat="46.00531" lon="4.58236">
        <ele>460.600006104</ele>
        <time>2015-08-11T09:23:41.471Z</time>
      </trkpt>
      <trkpt lat="46.00529" lon="4.58235">
        <ele>460.5</ele>
        <time>2015-08-11T09:23:42.437Z</time>
      </trkpt>
      <trkpt lat="46.0052" lon="4.58231">
        <ele>460.200012207</ele>
        <time>2015-08-11T09:23:46.479Z</time>
      </trkpt>
      <trkpt lat="46.00518" lon="4.58231">
        <ele>460.399993896</ele>
        <time>2015-08-11T09:23:47.437Z</time>
      </trkpt>
      <trkpt lat="46.00511" lon="4.58234">
        <ele>460.899993896</ele>
        <time>2015-08-11T09:23:50.472Z</time>
      </trkpt>
      <trkpt lat="46.00508" lon="4.58235">
        <ele>461.299987793</ele>
        <time>2015-08-11T09:23:51.43Z</time>
      </trkpt>
      <trkpt lat="46.005" lon="4.58237">
        <ele>462</ele>
        <time>2015-08-11T09:23:55.507Z</time>
      </trkpt>
      <trkpt lat="46.00498" lon="4.58238">
        <ele>462.200012207</ele>
        <time>2015-08-11T09:23:56.479Z</time>
      </trkpt>
      <trkpt lat="46.00491" lon="4.58241">
        <ele>462.600006104</ele>
        <time>2015-08-11T09:24:00.475Z</time>
      </trkpt>
      <trkpt lat="46.00489" lon="4.58242">
        <ele>462.299987793</ele>
        <time>2015-08-11T09:24:01.441Z</time>
      </trkpt>
      <trkpt lat="46.0048" lon="4.58244">
        <ele>462.399993896</ele>
        <time>2015-08-11T09:24:05.47Z</time>
      </trkpt>
      <trkpt lat="46.00478" lon="4.58244">
        <ele>462.299987793</ele>
        <time>2015-08-11T09:24:06.438Z</time>
      </trkpt>
      <trkpt lat="46.00469" lon="4.58242">
        <ele>462.899993896</ele>
        <time>2015-08-11T09:24:11.47Z</time>
      </trkpt>
      <trkpt lat="46.00467" lon="4.58242">
        <ele>463</ele>
        <time>2015-08-11T09:24:12.437Z</time>
      </trkpt>
      <trkpt lat="46.00459" lon="4.5824">
        <ele>463.100006104</ele>
        <time>2015-08-11T09:24:17.479Z</time>
      </trkpt>
      <trkpt lat="46.00458" lon="4.58238">
        <ele>463.100006104</ele>
        <time>2015-08-11T09:24:18.423Z</time>
      </trkpt>
      <trkpt lat="46.00451" lon="4.5824">
        <ele>463.899993896</ele>
        <time>2015-08-11T09:24:22.5Z</time>
      </trkpt>
      <trkpt lat="46.00449" lon="4.5824">
        <ele>464.100006104</ele>
        <time>2015-08-11T09:24:23.439Z</time>
      </trkpt>
      <trkpt lat="46.00441" lon="4.58237">
        <ele>464.899993896</ele>
        <time>2015-08-11T09:24:27.533Z</time>
      </trkpt>
      <trkpt lat="46.0044" lon="4.58236">
        <ele>465.100006104</ele>
        <time>2015-08-11T09:24:28.454Z</time>
      </trkpt>
      <trkpt lat="46.00432" lon="4.58234">
        <ele>465.600006104</ele>
        <time>2015-08-11T09:24:32.475Z</time>
      </trkpt>
      <trkpt lat="46.00431" lon="4.58232">
        <ele>465.799987793</ele>
        <time>2015-08-11T09:24:33.441Z</time>
      </trkpt>
      <trkpt lat="46.00422" lon="4.5823">
        <ele>466.399993896</ele>
        <time>2015-08-11T09:24:38.505Z</time>
      </trkpt>
      <trkpt lat="46.0042" lon="4.5823">
        <ele>466.600006104</ele>
        <time>2015-08-11T09:24:39.44Z</time>
      </trkpt>
      <trkpt lat="46.00414" lon="4.58224">
        <ele>467.399993896</ele>
        <time>2015-08-11T09:24:43.478Z</time>
      </trkpt>
      <trkpt lat="46.00412" lon="4.58223">
        <ele>467.799987793</ele>
        <time>2015-08-11T09:24:44.482Z</time>
      </trkpt>
      <trkpt lat="46.00404" lon="4.58221">
        <ele>468.700012207</ele>
        <time>2015-08-11T09:24:48.476Z</time>
      </trkpt>
      <trkpt lat="46.00402" lon="4.58222">
        <ele>469</ele>
        <time>2015-08-11T09:24:49.441Z</time>
      </trkpt>
      <trkpt lat="46.00394" lon="4.58221">
        <ele>469.600006104</ele>
        <time>2015-08-11T09:24:53.473Z</time>
      </trkpt>
      <trkpt lat="46.00392" lon="4.58221">
        <ele>469.600006104</ele>
        <time>2015-08-11T09:24:54.436Z</time>
      </trkpt>
      <trkpt lat="46.00385" lon="4.58219">
        <ele>470.100006104</ele>
        <time>2015-08-11T09:24:58.499Z</time>
      </trkpt>
      <trkpt lat="46.00383" lon="4.58219">
        <ele>470.200012207</ele>
        <time>2015-08-11T09:24:59.417Z</time>
      </trkpt>
      <trkpt lat="46.00376" lon="4.58218">
        <ele>469.899993896</ele>
        <time>2015-08-11T09:25:03.475Z</time>
      </trkpt>
      <trkpt lat="46.00374" lon="4.58217">
        <ele>470</ele>
        <time>2015-08-11T09:25:04.446Z</time>
      </trkpt>
      <trkpt lat="46.00366" lon="4.58216">
        <ele>470.200012207</ele>
        <time>2015-08-11T09:25:08.476Z</time>
      </trkpt>
      <trkpt lat="46.00364" lon="4.58217">
        <ele>470.299987793</ele>
        <time>2015-08-11T09:25:09.445Z</time>
      </trkpt>
      <trkpt lat="46.00356" lon="4.58217">
        <ele>470.299987793</ele>
        <time>2015-08-11T09:25:13.471Z</time>
      </trkpt>
      <trkpt lat="46.00354" lon="4.58217">
        <ele>470.399993896</ele>
        <time>2015-08-11T09:25:14.436Z</time>
      </trkpt>
      <trkpt lat="46.00346" lon="4.58214">
        <ele>470.700012207</ele>
        <time>2015-08-11T09:25:18.47Z</time>
      </trkpt>
      <trkpt lat="46.00344" lon="4.58213">
        <ele>471</ele>
        <time>2015-08-11T09:25:19.439Z</time>
      </trkpt>
      <trkpt lat="46.00335" lon="4.58212">
        <ele>471.799987793</ele>
        <time>2015-08-11T09:25:23.471Z</time>
      </trkpt>
      <trkpt lat="46.00334" lon="4.58211">
        <ele>471.899993896</ele>
        <time>2015-08-11T09:25:24.436Z</time>
      </trkpt>
      <trkpt lat="46.00329" lon="4.58204">
        <ele>472.700012207</ele>
        <time>2015-08-11T09:25:28.471Z</time>
      </trkpt>
      <trkpt lat="46.00327" lon="4.58202">
        <ele>472.899993896</ele>
        <time>2015-08-11T09:25:29.417Z</time>
      </trkpt>
      <trkpt lat="46.00321" lon="4.58195">
        <ele>473.600006104</ele>
        <time>2015-08-11T09:25:33.475Z</time>
      </trkpt>
      <trkpt lat="46.00319" lon="4.58192">
        <ele>473.799987793</ele>
        <time>2015-08-11T09:25:34.435Z</time>
      </trkpt>
      <trkpt lat="46.00313" lon="4.58184">
        <ele>474.299987793</ele>
        <time>2015-08-11T09:25:38.487Z</time>
      </trkpt>
      <trkpt lat="46.00312" lon="4.58182">
        <ele>474.5</ele>
        <time>2015-08-11T09:25:39.435Z</time>
      </trkpt>
      <trkpt lat="46.00306" lon="4.58173">
        <ele>475.600006104</ele>
        <time>2015-08-11T09:25:44.473Z</time>
      </trkpt>
      <trkpt lat="46.00305" lon="4.58171">
        <ele>476</ele>
        <time>2015-08-11T09:25:45.437Z</time>
      </trkpt>
      <trkpt lat="46.00303" lon="4.58159">
        <ele>477.299987793</ele>
        <time>2015-08-11T09:25:49.472Z</time>
      </trkpt>
      <trkpt lat="46.00302" lon="4.58156">
        <ele>477.799987793</ele>
        <time>2015-08-11T09:25:50.44Z</time>
      </trkpt>
      <trkpt lat="46.003" lon="4.58145">
        <ele>479.399993896</ele>
        <time>2015-08-11T09:25:54.473Z</time>
      </trkpt>
      <trkpt lat="46.003" lon="4.58142">
        <ele>479.899993896</ele>
        <time>2015-08-11T09:25:55.442Z</time>
      </trkpt>
      <trkpt lat="46.00298" lon="4.58129">
        <ele>482.600006104</ele>
        <time>2015-08-11T09:26:00.473Z</time>
      </trkpt>
      <trkpt lat="46.00298" lon="4.58127">
        <ele>483.5</ele>
        <time>2015-08-11T09:26:01.441Z</time>
      </trkpt>
      <trkpt lat="46.00298" lon="4.58115">
        <ele>486.100006104</ele>
        <time>2015-08-11T09:26:06.47Z</time>
      </trkpt>
      <trkpt lat="46.00298" lon="4.58112">
        <ele>486.799987793</ele>
        <time>2015-08-11T09:26:07.433Z</time>
      </trkpt>
      <trkpt lat="46.00299" lon="4.58102">
        <ele>488</ele>
        <time>2015-08-11T09:26:11.51Z</time>
      </trkpt>
      <trkpt lat="46.00301" lon="4.58099">
        <ele>488.399993896</ele>
        <time>2015-08-11T09:26:12.454Z</time>
      </trkpt>
      <trkpt lat="46.00302" lon="4.58088">
        <ele>490.399993896</ele>
        <time>2015-08-11T09:26:16.563Z</time>
      </trkpt>
      <trkpt lat="46.00302" lon="4.58086">
        <ele>490.799987793</ele>
        <time>2015-08-11T09:26:17.437Z</time>
      </trkpt>
      <trkpt lat="46.00303" lon="4.58076">
        <ele>492.600006104</ele>
        <time>2015-08-11T09:26:21.47Z</time>
      </trkpt>
      <trkpt lat="46.00303" lon="4.58073">
        <ele>493.100006104</ele>
        <time>2015-08-11T09:26:22.444Z</time>
      </trkpt>
      <trkpt lat="46.00301" lon="4.5806">
        <ele>494.200012207</ele>
        <time>2015-08-11T09:26:26.47Z</time>
      </trkpt>
      <trkpt lat="46.00301" lon="4.58057">
        <ele>494.299987793</ele>
        <time>2015-08-11T09:26:27.437Z</time>
      </trkpt>
      <trkpt lat="46.00298" lon="4.58045">
        <ele>495.100006104</ele>
        <time>2015-08-11T09:26:32.471Z</time>
      </trkpt>
      <trkpt lat="46.00295" lon="4.58043">
        <ele>494.700012207</ele>
        <time>2015-08-11T09:26:33.468Z</time>
      </trkpt>
      <trkpt lat="46.00289" lon="4.58037">
        <ele>494.399993896</ele>
        <time>2015-08-11T09:26:37.477Z</time>
      </trkpt>
      <trkpt lat="46.00287" lon="4.58035">
        <ele>494.200012207</ele>
        <time>2015-08-11T09:26:38.418Z</time>
      </trkpt>
      <trkpt lat="46.00279" lon="4.58032">
        <ele>493.899993896</ele>
        <time>2015-08-11T09:26:42.473Z</time>
      </trkpt>
      <trkpt lat="46.00277" lon="4.58031">
        <ele>493.799987793</ele>
        <time>2015-08-11T09:26:43.442Z</time>
      </trkpt>
      <trkpt lat="46.00268" lon="4.58029">
        <ele>494</ele>
        <time>2015-08-11T09:26:47.511Z</time>
      </trkpt>
      <trkpt lat="46.00266" lon="4.58029">
        <ele>494</ele>
        <time>2015-08-11T09:26:48.439Z</time>
      </trkpt>
      <trkpt lat="46.00258" lon="4.58029">
        <ele>494.5</ele>
        <time>2015-08-11T09:26:52.471Z</time>
      </trkpt>
      <trkpt lat="46.00256" lon="4.58028">
        <ele>494.700012207</ele>
        <time>2015-08-11T09:26:53.44Z</time>
      </trkpt>
      <trkpt lat="46.00247" lon="4.58026">
        <ele>494.899993896</ele>
        <time>2015-08-11T09:26:57.486Z</time>
      </trkpt>
      <trkpt lat="46.00245" lon="4.58025">
        <ele>495.100006104</ele>
        <time>2015-08-11T09:26:58.46Z</time>
      </trkpt>
      <trkpt lat="46.00237" lon="4.5802">
        <ele>495.700012207</ele>
        <time>2015-08-11T09:27:02.471Z</time>
      </trkpt>
      <trkpt lat="46.00236" lon="4.58018">
        <ele>495.700012207</ele>
        <time>2015-08-11T09:27:03.438Z</time>
      </trkpt>
      <trkpt lat="46.00231" lon="4.58011">
        <ele>496.5</ele>
        <time>2015-08-11T09:27:07.474Z</time>
      </trkpt>
      <trkpt lat="46.00229" lon="4.58009">
        <ele>496.600006104</ele>
        <time>2015-08-11T09:27:08.437Z</time>
      </trkpt>
      <trkpt lat="46.00221" lon="4.58003">
        <ele>497.399993896</ele>
        <time>2015-08-11T09:27:12.47Z</time>
      </trkpt>
      <trkpt lat="46.0022" lon="4.58002">
        <ele>497.399993896</ele>
        <time>2015-08-11T09:27:13.441Z</time>
      </trkpt>
      <trkpt lat="46.00212" lon="4.57997">
        <ele>498.5</ele>
        <time>2015-08-11T09:27:17.474Z</time>
      </trkpt>
      <trkpt lat="46.00211" lon="4.57997">
        <ele>498.799987793</ele>
        <time>2015-08-11T09:27:18.436Z</time>
      </trkpt>
      <trkpt lat="46.00204" lon="4.57991">
        <ele>499.600006104</ele>
        <time>2015-08-11T09:27:22.537Z</time>
      </trkpt>
      <trkpt lat="46.00203" lon="4.5799">
        <ele>499.899993896</ele>
        <time>2015-08-11T09:27:23.478Z</time>
      </trkpt>
      <trkpt lat="46.00194" lon="4.57986">
        <ele>500.100006104</ele>
        <time>2015-08-11T09:27:27.472Z</time>
      </trkpt>
      <trkpt lat="46.00192" lon="4.57985">
        <ele>500</ele>
        <time>2015-08-11T09:27:28.444Z</time>
      </trkpt>
      <trkpt lat="46.00185" lon="4.5798">
        <ele>499.799987793</ele>
        <time>2015-08-11T09:27:32.473Z</time>
      </trkpt>
      <trkpt lat="46.00183" lon="4.5798">
        <ele>499.700012207</ele>
        <time>2015-08-11T09:27:33.437Z</time>
      </trkpt>
      <trkpt lat="46.00176" lon="4.57976">
        <ele>500.200012207</ele>
        <time>2015-08-11T09:27:39.475Z</time>
      </trkpt>
      <trkpt lat="46.00174" lon="4.57974">
        <ele>500.399993896</ele>
        <time>2015-08-11T09:27:40.419Z</time>
      </trkpt>
      <trkpt lat="46.00166" lon="4.57973">
        <ele>501.100006104</ele>
        <time>2015-08-11T09:27:44.475Z</time>
      </trkpt>
      <trkpt lat="46.00165" lon="4.57973">
        <ele>501.399993896</ele>
        <time>2015-08-11T09:27:45.496Z</time>
      </trkpt>
      <trkpt lat="46.00156" lon="4.57971">
        <ele>502.600006104</ele>
        <time>2015-08-11T09:27:50.47Z</time>
      </trkpt>
      <trkpt lat="46.00155" lon="4.57971">
        <ele>502.799987793</ele>
        <time>2015-08-11T09:27:51.437Z</time>
      </trkpt>
      <trkpt lat="46.00147" lon="4.57975">
        <ele>503.5</ele>
        <time>2015-08-11T09:27:55.546Z</time>
      </trkpt>
      <trkpt lat="46.00145" lon="4.57977">
        <ele>503.5</ele>
        <time>2015-08-11T09:27:56.435Z</time>
      </trkpt>
      <trkpt lat="46.00139" lon="4.57985">
        <ele>504</ele>
        <time>2015-08-11T09:28:01.478Z</time>
      </trkpt>
      <trkpt lat="46.00139" lon="4.57987">
        <ele>504.200012207</ele>
        <time>2015-08-11T09:28:02.44Z</time>
      </trkpt>
      <trkpt lat="46.00134" lon="4.57997">
        <ele>504.700012207</ele>
        <time>2015-08-11T09:28:06.488Z</time>
      </trkpt>
      <trkpt lat="46.00132" lon="4.57999">
        <ele>504.799987793</ele>
        <time>2015-08-11T09:28:07.442Z</time>
      </trkpt>
      <trkpt lat="46.00128" lon="4.58009">
        <ele>505.5</ele>
        <time>2015-08-11T09:28:11.523Z</time>
      </trkpt>
      <trkpt lat="46.00128" lon="4.58011">
        <ele>505.700012207</ele>
        <time>2015-08-11T09:28:12.443Z</time>
      </trkpt>
      <trkpt lat="46.00125" lon="4.58022">
        <ele>506.5</ele>
        <time>2015-08-11T09:28:16.47Z</time>
      </trkpt>
      <trkpt lat="46.00124" lon="4.58024">
        <ele>506.700012207</ele>
        <time>2015-08-11T09:28:17.439Z</time>
      </trkpt>
      <trkpt lat="46.00123" lon="4.58029">
        <ele>507.100006104</ele>
        <time>2015-08-11T09:28:19.514Z</time>
      </trkpt>
      <trkpt lat="46.00122" lon="4.5803">
        <ele>507.399993896</ele>
        <time>2015-08-11T09:28:20.445Z</time>
      </trkpt>
      <trkpt lat="46.00122" lon="4.58032">
        <ele>507.600006104</ele>
        <time>2015-08-11T09:28:21.475Z</time>
      </trkpt>
      <trkpt lat="46.00121" lon="4.58034">
        <ele>507.799987793</ele>
        <time>2015-08-11T09:28:22.437Z</time>
      </trkpt>
      <trkpt lat="46.00115" lon="4.58043">
        <ele>508.200012207</ele>
        <time>2015-08-11T09:28:27.474Z</time>
      </trkpt>
      <trkpt lat="46.00114" lon="4.58045">
        <ele>508.399993896</ele>
        <time>2015-08-11T09:28:28.443Z</time>
      </trkpt>
      <trkpt lat="46.00106" lon="4.5805">
        <ele>508.5</ele>
        <time>2015-08-11T09:28:33.475Z</time>
      </trkpt>
      <trkpt lat="46.00103" lon="4.5805">
        <ele>507.799987793</ele>
        <time>2015-08-11T09:28:34.435Z</time>
      </trkpt>
      <trkpt lat="46.00096" lon="4.58044">
        <ele>506.700012207</ele>
        <time>2015-08-11T09:28:37.471Z</time>
      </trkpt>
      <trkpt lat="46.00095" lon="4.58043">
        <ele>506.5</ele>
        <time>2015-08-11T09:28:38.44Z</time>
      </trkpt>
      <trkpt lat="46.00095" lon="4.58043">
        <ele>506.5</ele>
        <time>2015-08-11T09:28:38.477Z</time>
      </trkpt>
      <trkpt lat="46.00094" lon="4.58042">
        <ele>506.200012207</ele>
        <time>2015-08-11T09:28:39.435Z</time>
      </trkpt>
      <trkpt lat="46.00093" lon="4.58041">
        <ele>506.299987793</ele>
        <time>2015-08-11T09:28:40.475Z</time>
      </trkpt>
      <trkpt lat="46.00091" lon="4.58041">
        <ele>506.100006104</ele>
        <time>2015-08-11T09:28:41.461Z</time>
      </trkpt>
      <trkpt lat="46.00083" lon="4.58038">
        <ele>505.5</ele>
        <time>2015-08-11T09:28:46.493Z</time>
      </trkpt>
      <trkpt lat="46.00082" lon="4.58037">
        <ele>505.5</ele>
        <time>2015-08-11T09:28:47.483Z</time>
      </trkpt>
      <trkpt lat="46.00075" lon="4.58033">
        <ele>505.700012207</ele>
        <time>2015-08-11T09:28:50.484Z</time>
      </trkpt>
      <trkpt lat="46.00073" lon="4.58032">
        <ele>505.799987793</ele>
        <time>2015-08-11T09:28:51.455Z</time>
      </trkpt>
      <trkpt lat="46.00068" lon="4.58022">
        <ele>506.200012207</ele>
        <time>2015-08-11T09:28:54.476Z</time>
      </trkpt>
      <trkpt lat="46.00066" lon="4.58019">
        <ele>506.299987793</ele>
        <time>2015-08-11T09:28:55.452Z</time>
      </trkpt>
      <trkpt lat="46.00059" lon="4.58017">
        <ele>506.399993896</ele>
        <time>2015-08-11T09:28:59.483Z</time>
      </trkpt>
      <trkpt lat="46.00057" lon="4.58016">
        <ele>506.399993896</ele>
        <time>2015-08-11T09:29:00.553Z</time>
      </trkpt>
      <trkpt lat="46.0005" lon="4.5801">
        <ele>506.799987793</ele>
        <time>2015-08-11T09:29:04.477Z</time>
      </trkpt>
      <trkpt lat="46.00049" lon="4.58009">
        <ele>506.899993896</ele>
        <time>2015-08-11T09:29:05.446Z</time>
      </trkpt>
      <trkpt lat="46.00042" lon="4.58005">
        <ele>506.600006104</ele>
        <time>2015-08-11T09:29:09.477Z</time>
      </trkpt>
      <trkpt lat="46.0004" lon="4.58005">
        <ele>506.600006104</ele>
        <time>2015-08-11T09:29:10.448Z</time>
      </trkpt>
      <trkpt lat="46.00031" lon="4.58002">
        <ele>506.299987793</ele>
        <time>2015-08-11T09:29:14.54Z</time>
      </trkpt>
      <trkpt lat="46.00029" lon="4.58001">
        <ele>506.200012207</ele>
        <time>2015-08-11T09:29:15.443Z</time>
      </trkpt>
      <trkpt lat="46.00021" lon="4.57999">
        <ele>506.5</ele>
        <time>2015-08-11T09:29:19.48Z</time>
      </trkpt>
      <trkpt lat="46.00019" lon="4.57998">
        <ele>506.600006104</ele>
        <time>2015-08-11T09:29:20.446Z</time>
      </trkpt>
      <trkpt lat="46.00011" lon="4.57995">
        <ele>507.799987793</ele>
        <time>2015-08-11T09:29:24.613Z</time>
      </trkpt>
      <trkpt lat="46.00008" lon="4.57994">
        <ele>507.899993896</ele>
        <time>2015-08-11T09:29:25.445Z</time>
      </trkpt>
      <trkpt lat="45.99999" lon="4.57991">
        <ele>508.299987793</ele>
        <time>2015-08-11T09:29:31.476Z</time>
      </trkpt>
      <trkpt lat="45.99998" lon="4.57991">
        <ele>508.600006104</ele>
        <time>2015-08-11T09:29:32.444Z</time>
      </trkpt>
      <trkpt lat="45.9999" lon="4.57993">
        <ele>509.700012207</ele>
        <time>2015-08-11T09:29:37.476Z</time>
      </trkpt>
      <trkpt lat="45.99988" lon="4.57994">
        <ele>509.799987793</ele>
        <time>2015-08-11T09:29:38.484Z</time>
      </trkpt>
      <trkpt lat="45.99983" lon="4.57999">
        <ele>510.200012207</ele>
        <time>2015-08-11T09:29:41.476Z</time>
      </trkpt>
      <trkpt lat="45.9998" lon="4.58">
        <ele>510.399993896</ele>
        <time>2015-08-11T09:29:42.443Z</time>
      </trkpt>
      <trkpt lat="45.99973" lon="4.58005">
        <ele>511.200012207</ele>
        <time>2015-08-11T09:29:46.513Z</time>
      </trkpt>
      <trkpt lat="45.99972" lon="4.58006">
        <ele>511.299987793</ele>
        <time>2015-08-11T09:29:47.441Z</time>
      </trkpt>
      <trkpt lat="45.99964" lon="4.5801">
        <ele>512</ele>
        <time>2015-08-11T09:29:51.492Z</time>
      </trkpt>
      <trkpt lat="45.99963" lon="4.58011">
        <ele>512.200012207</ele>
        <time>2015-08-11T09:29:52.432Z</time>
      </trkpt>
      <trkpt lat="45.99955" lon="4.58015">
        <ele>512.700012207</ele>
        <time>2015-08-11T09:29:56.478Z</time>
      </trkpt>
      <trkpt lat="45.99953" lon="4.58016">
        <ele>513.099975586</ele>
        <time>2015-08-11T09:29:57.445Z</time>
      </trkpt>
      <trkpt lat="45.99945" lon="4.58017">
        <ele>514.099975586</ele>
        <time>2015-08-11T09:30:00.497Z</time>
      </trkpt>
      <trkpt lat="45.99942" lon="4.58016">
        <ele>514.299987793</ele>
        <time>2015-08-11T09:30:01.446Z</time>
      </trkpt>
      <trkpt lat="45.99934" lon="4.58015">
        <ele>515.200012207</ele>
        <time>2015-08-11T09:30:05.509Z</time>
      </trkpt>
      <trkpt lat="45.99931" lon="4.58015">
        <ele>515.299987793</ele>
        <time>2015-08-11T09:30:06.506Z</time>
      </trkpt>
      <trkpt lat="45.99924" lon="4.58014">
        <ele>515.299987793</ele>
        <time>2015-08-11T09:30:11.475Z</time>
      </trkpt>
      <trkpt lat="45.99922" lon="4.58013">
        <ele>515.200012207</ele>
        <time>2015-08-11T09:30:12.437Z</time>
      </trkpt>
      <trkpt lat="45.99915" lon="4.58009">
        <ele>515.400024414</ele>
        <time>2015-08-11T09:30:16.476Z</time>
      </trkpt>
      <trkpt lat="45.99913" lon="4.58008">
        <ele>515.400024414</ele>
        <time>2015-08-11T09:30:17.441Z</time>
      </trkpt>
      <trkpt lat="45.99907" lon="4.58005">
        <ele>515.200012207</ele>
        <time>2015-08-11T09:30:20.47Z</time>
      </trkpt>
      <trkpt lat="45.99904" lon="4.58004">
        <ele>515.299987793</ele>
        <time>2015-08-11T09:30:21.469Z</time>
      </trkpt>
      <trkpt lat="45.99896" lon="4.58003">
        <ele>515.5</ele>
        <time>2015-08-11T09:30:24.479Z</time>
      </trkpt>
      <trkpt lat="45.99894" lon="4.58002">
        <ele>515.5</ele>
        <time>2015-08-11T09:30:25.443Z</time>
      </trkpt>
      <trkpt lat="45.99887" lon="4.58002">
        <ele>515.700012207</ele>
        <time>2015-08-11T09:30:28.472Z</time>
      </trkpt>
      <trkpt lat="45.99884" lon="4.58002">
        <ele>515.599975586</ele>
        <time>2015-08-11T09:30:29.444Z</time>
      </trkpt>
      <trkpt lat="45.99878" lon="4.58003">
        <ele>516.200012207</ele>
        <time>2015-08-11T09:30:31.476Z</time>
      </trkpt>
      <trkpt lat="45.99875" lon="4.58004">
        <ele>516.099975586</ele>
        <time>2015-08-11T09:30:32.444Z</time>
      </trkpt>
      <trkpt lat="45.99868" lon="4.58006">
        <ele>516.5</ele>
        <time>2015-08-11T09:30:35.503Z</time>
      </trkpt>
      <trkpt lat="45.99866" lon="4.58008">
        <ele>516.599975586</ele>
        <time>2015-08-11T09:30:36.445Z</time>
      </trkpt>
      <trkpt lat="45.99863" lon="4.58016">
        <ele>516.799987793</ele>
        <time>2015-08-11T09:30:38.536Z</time>
      </trkpt>
      <trkpt lat="45.99861" lon="4.58021">
        <ele>516.799987793</ele>
        <time>2015-08-11T09:30:39.438Z</time>
      </trkpt>
      <trkpt lat="45.99859" lon="4.58032">
        <ele>517.099975586</ele>
        <time>2015-08-11T09:30:42.498Z</time>
      </trkpt>
      <trkpt lat="45.99858" lon="4.58035">
        <ele>517.200012207</ele>
        <time>2015-08-11T09:30:43.453Z</time>
      </trkpt>
      <trkpt lat="45.99859" lon="4.58047">
        <ele>517.400024414</ele>
        <time>2015-08-11T09:30:47.477Z</time>
      </trkpt>
      <trkpt lat="45.99859" lon="4.58052">
        <ele>517.5</ele>
        <time>2015-08-11T09:30:48.437Z</time>
      </trkpt>
      <trkpt lat="45.99861" lon="4.58064">
        <ele>517.900024414</ele>
        <time>2015-08-11T09:30:52.473Z</time>
      </trkpt>
      <trkpt lat="45.99861" lon="4.58067">
        <ele>518</ele>
        <time>2015-08-11T09:30:53.443Z</time>
      </trkpt>
      <trkpt lat="45.99863" lon="4.58077">
        <ele>518.299987793</ele>
        <time>2015-08-11T09:30:56.473Z</time>
      </trkpt>
      <trkpt lat="45.99863" lon="4.58081">
        <ele>518.400024414</ele>
        <time>2015-08-11T09:30:57.443Z</time>
      </trkpt>
      <trkpt lat="45.99864" lon="4.58094">
        <ele>518.799987793</ele>
        <time>2015-08-11T09:31:00.475Z</time>
      </trkpt>
      <trkpt lat="45.99864" lon="4.58098">
        <ele>519.099975586</ele>
        <time>2015-08-11T09:31:01.443Z</time>
      </trkpt>
      <trkpt lat="45.99866" lon="4.58109">
        <ele>520</ele>
        <time>2015-08-11T09:31:04.474Z</time>
      </trkpt>
      <trkpt lat="45.99865" lon="4.58112">
        <ele>520</ele>
        <time>2015-08-11T09:31:05.503Z</time>
      </trkpt>
      <trkpt lat="45.99868" lon="4.58123">
        <ele>520.5</ele>
        <time>2015-08-11T09:31:08.472Z</time>
      </trkpt>
      <trkpt lat="45.99869" lon="4.58127">
        <ele>521.200012207</ele>
        <time>2015-08-11T09:31:09.442Z</time>
      </trkpt>
      <trkpt lat="45.99871" lon="4.58139">
        <ele>521.799987793</ele>
        <time>2015-08-11T09:31:13.477Z</time>
      </trkpt>
      <trkpt lat="45.99872" lon="4.58142">
        <ele>522</ele>
        <time>2015-08-11T09:31:14.437Z</time>
      </trkpt>
      <trkpt lat="45.99875" lon="4.58153">
        <ele>522.400024414</ele>
        <time>2015-08-11T09:31:18.475Z</time>
      </trkpt>
      <trkpt lat="45.99875" lon="4.58157">
        <ele>522.599975586</ele>
        <time>2015-08-11T09:31:19.442Z</time>
      </trkpt>
      <trkpt lat="45.99874" lon="4.58168">
        <ele>523</ele>
        <time>2015-08-11T09:31:22.473Z</time>
      </trkpt>
      <trkpt lat="45.99875" lon="4.5817">
        <ele>523.200012207</ele>
        <time>2015-08-11T09:31:23.444Z</time>
      </trkpt>
      <trkpt lat="45.99876" lon="4.58183">
        <ele>523.700012207</ele>
        <time>2015-08-11T09:31:27.474Z</time>
      </trkpt>
      <trkpt lat="45.99877" lon="4.58185">
        <ele>523.799987793</ele>
        <time>2015-08-11T09:31:28.443Z</time>
      </trkpt>
      <trkpt lat="45.99882" lon="4.58193">
        <ele>524.5</ele>
        <time>2015-08-11T09:31:32.51Z</time>
      </trkpt>
      <trkpt lat="45.99883" lon="4.58195">
        <ele>524.700012207</ele>
        <time>2015-08-11T09:31:33.483Z</time>
      </trkpt>
      <trkpt lat="45.99891" lon="4.582">
        <ele>526.200012207</ele>
        <time>2015-08-11T09:31:38.472Z</time>
      </trkpt>
      <trkpt lat="45.99892" lon="4.58203">
        <ele>526.5</ele>
        <time>2015-08-11T09:31:39.438Z</time>
      </trkpt>
      <trkpt lat="45.99892" lon="4.58213">
        <ele>527.200012207</ele>
        <time>2015-08-11T09:31:42.523Z</time>
      </trkpt>
      <trkpt lat="45.99893" lon="4.58216">
        <ele>527.400024414</ele>
        <time>2015-08-11T09:31:43.459Z</time>
      </trkpt>
      <trkpt lat="45.99895" lon="4.58226">
        <ele>528.200012207</ele>
        <time>2015-08-11T09:31:46.472Z</time>
      </trkpt>
      <trkpt lat="45.99894" lon="4.5823">
        <ele>528.700012207</ele>
        <time>2015-08-11T09:31:47.443Z</time>
      </trkpt>
      <trkpt lat="45.99895" lon="4.58243">
        <ele>530.599975586</ele>
        <time>2015-08-11T09:31:52.472Z</time>
      </trkpt>
      <trkpt lat="45.99894" lon="4.58247">
        <ele>530.900024414</ele>
        <time>2015-08-11T09:31:53.434Z</time>
      </trkpt>
      <trkpt lat="45.99894" lon="4.58258">
        <ele>532.299987793</ele>
        <time>2015-08-11T09:31:56.475Z</time>
      </trkpt>
      <trkpt lat="45.99894" lon="4.58262">
        <ele>532.599975586</ele>
        <time>2015-08-11T09:31:57.418Z</time>
      </trkpt>
      <trkpt lat="45.99894" lon="4.58272">
        <ele>533.700012207</ele>
        <time>2015-08-11T09:31:59.502Z</time>
      </trkpt>
      <trkpt lat="45.99892" lon="4.58277">
        <ele>534</ele>
        <time>2015-08-11T09:32:00.433Z</time>
      </trkpt>
      <trkpt lat="45.99889" lon="4.58287">
        <ele>534.700012207</ele>
        <time>2015-08-11T09:32:02.502Z</time>
      </trkpt>
      <trkpt lat="45.99888" lon="4.5829">
        <ele>535.099975586</ele>
        <time>2015-08-11T09:32:03.438Z</time>
      </trkpt>
      <trkpt lat="45.99885" lon="4.58297">
        <ele>535.700012207</ele>
        <time>2015-08-11T09:32:05.47Z</time>
      </trkpt>
      <trkpt lat="45.99883" lon="4.58301">
        <ele>535.799987793</ele>
        <time>2015-08-11T09:32:06.44Z</time>
      </trkpt>
      <trkpt lat="45.99878" lon="4.58311">
        <ele>536.5</ele>
        <time>2015-08-11T09:32:09.524Z</time>
      </trkpt>
      <trkpt lat="45.99875" lon="4.58315">
        <ele>536.5</ele>
        <time>2015-08-11T09:32:10.446Z</time>
      </trkpt>
      <trkpt lat="45.9987" lon="4.58321">
        <ele>536.5</ele>
        <time>2015-08-11T09:32:12.474Z</time>
      </trkpt>
      <trkpt lat="45.99867" lon="4.58324">
        <ele>536.400024414</ele>
        <time>2015-08-11T09:32:13.463Z</time>
      </trkpt>
      <trkpt lat="45.9986" lon="4.5833">
        <ele>536.5</ele>
        <time>2015-08-11T09:32:15.477Z</time>
      </trkpt>
      <trkpt lat="45.99857" lon="4.58332">
        <ele>536.700012207</ele>
        <time>2015-08-11T09:32:16.44Z</time>
      </trkpt>
      <trkpt lat="45.9985" lon="4.58337">
        <ele>537.799987793</ele>
        <time>2015-08-11T09:32:18.53Z</time>
      </trkpt>
      <trkpt lat="45.99846" lon="4.5834">
        <ele>537.900024414</ele>
        <time>2015-08-11T09:32:19.44Z</time>
      </trkpt>
      <trkpt lat="45.99843" lon="4.58342">
        <ele>537.400024414</ele>
        <time>2015-08-11T09:32:20.471Z</time>
      </trkpt>
      <trkpt lat="45.99838" lon="4.58345">
        <ele>536.900024414</ele>
        <time>2015-08-11T09:32:21.458Z</time>
      </trkpt>
      <trkpt lat="45.99833" lon="4.58346">
        <ele>536.400024414</ele>
        <time>2015-08-11T09:32:22.473Z</time>
      </trkpt>
      <trkpt lat="45.99827" lon="4.58347">
        <ele>536.200012207</ele>
        <time>2015-08-11T09:32:23.443Z</time>
      </trkpt>
      <trkpt lat="45.99823" lon="4.58348">
        <ele>535.900024414</ele>
        <time>2015-08-11T09:32:24.483Z</time>
      </trkpt>
      <trkpt lat="45.99818" lon="4.58351">
        <ele>535.400024414</ele>
        <time>2015-08-11T09:32:25.438Z</time>
      </trkpt>
      <trkpt lat="45.99814" lon="4.58353">
        <ele>535.200012207</ele>
        <time>2015-08-11T09:32:26.487Z</time>
      </trkpt>
      <trkpt lat="45.99809" lon="4.58355">
        <ele>534.799987793</ele>
        <time>2015-08-11T09:32:27.437Z</time>
      </trkpt>
      <trkpt lat="45.99804" lon="4.58357">
        <ele>534.700012207</ele>
        <time>2015-08-11T09:32:28.472Z</time>
      </trkpt>
      <trkpt lat="45.998" lon="4.58358">
        <ele>534.599975586</ele>
        <time>2015-08-11T09:32:29.439Z</time>
      </trkpt>
      <trkpt lat="45.99792" lon="4.5836">
        <ele>534.5</ele>
        <time>2015-08-11T09:32:31.483Z</time>
      </trkpt>
      <trkpt lat="45.99788" lon="4.58362">
        <ele>534.400024414</ele>
        <time>2015-08-11T09:32:32.443Z</time>
      </trkpt>
      <trkpt lat="45.99784" lon="4.58364">
        <ele>534.299987793</ele>
        <time>2015-08-11T09:32:33.479Z</time>
      </trkpt>
      <trkpt lat="45.99779" lon="4.58365">
        <ele>534.299987793</ele>
        <time>2015-08-11T09:32:34.446Z</time>
      </trkpt>
      <trkpt lat="45.99774" lon="4.58367">
        <ele>534.200012207</ele>
        <time>2015-08-11T09:32:35.468Z</time>
      </trkpt>
      <trkpt lat="45.99765" lon="4.58369">
        <ele>533.900024414</ele>
        <time>2015-08-11T09:32:36.436Z</time>
      </trkpt>
      <trkpt lat="45.99761" lon="4.5837">
        <ele>534</ele>
        <time>2015-08-11T09:32:37.583Z</time>
      </trkpt>
      <trkpt lat="45.99756" lon="4.58372">
        <ele>533.900024414</ele>
        <time>2015-08-11T09:32:38.444Z</time>
      </trkpt>
      <trkpt lat="45.9975" lon="4.58373">
        <ele>533.900024414</ele>
        <time>2015-08-11T09:32:39.474Z</time>
      </trkpt>
      <trkpt lat="45.99745" lon="4.58374">
        <ele>533.900024414</ele>
        <time>2015-08-11T09:32:40.443Z</time>
      </trkpt>
      <trkpt lat="45.99739" lon="4.58376">
        <ele>533.900024414</ele>
        <time>2015-08-11T09:32:41.494Z</time>
      </trkpt>
      <trkpt lat="45.99734" lon="4.58378">
        <ele>533.900024414</ele>
        <time>2015-08-11T09:32:42.427Z</time>
      </trkpt>
      <trkpt lat="45.99729" lon="4.58379">
        <ele>533.900024414</ele>
        <time>2015-08-11T09:32:43.472Z</time>
      </trkpt>
      <trkpt lat="45.99724" lon="4.58382">
        <ele>533.799987793</ele>
        <time>2015-08-11T09:32:44.44Z</time>
      </trkpt>
      <trkpt lat="45.99719" lon="4.58385">
        <ele>533.799987793</ele>
        <time>2015-08-11T09:32:45.475Z</time>
      </trkpt>
      <trkpt lat="45.99714" lon="4.58388">
        <ele>533.799987793</ele>
        <time>2015-08-11T09:32:46.437Z</time>
      </trkpt>
      <trkpt lat="45.99709" lon="4.58392">
        <ele>533.799987793</ele>
        <time>2015-08-11T09:32:47.603Z</time>
      </trkpt>
      <trkpt lat="45.99704" lon="4.58395">
        <ele>533.700012207</ele>
        <time>2015-08-11T09:32:48.44Z</time>
      </trkpt>
      <trkpt lat="45.99698" lon="4.58398">
        <ele>533.599975586</ele>
        <time>2015-08-11T09:32:49.484Z</time>
      </trkpt>
      <trkpt lat="45.99693" lon="4.584">
        <ele>533.599975586</ele>
        <time>2015-08-11T09:32:50.437Z</time>
      </trkpt>
      <trkpt lat="45.99689" lon="4.58402">
        <ele>533.5</ele>
        <time>2015-08-11T09:32:51.48Z</time>
      </trkpt>
      <trkpt lat="45.99685" lon="4.58404">
        <ele>533.5</ele>
        <time>2015-08-11T09:32:52.439Z</time>
      </trkpt>
      <trkpt lat="45.99679" lon="4.58406">
        <ele>533.400024414</ele>
        <time>2015-08-11T09:32:53.47Z</time>
      </trkpt>
      <trkpt lat="45.99673" lon="4.58407">
        <ele>533.400024414</ele>
        <time>2015-08-11T09:32:54.44Z</time>
      </trkpt>
      <trkpt lat="45.99666" lon="4.58408">
        <ele>533.400024414</ele>
        <time>2015-08-11T09:32:55.476Z</time>
      </trkpt>
      <trkpt lat="45.99661" lon="4.58409">
        <ele>533.400024414</ele>
        <time>2015-08-11T09:32:56.435Z</time>
      </trkpt>
      <trkpt lat="45.99655" lon="4.58411">
        <ele>533.400024414</ele>
        <time>2015-08-11T09:32:57.501Z</time>
      </trkpt>
      <trkpt lat="45.99649" lon="4.58414">
        <ele>533.400024414</ele>
        <time>2015-08-11T09:32:58.443Z</time>
      </trkpt>
      <trkpt lat="45.99642" lon="4.58418">
        <ele>533.299987793</ele>
        <time>2015-08-11T09:32:59.49Z</time>
      </trkpt>
      <trkpt lat="45.99636" lon="4.58421">
        <ele>533.200012207</ele>
        <time>2015-08-11T09:33:00.438Z</time>
      </trkpt>
      <trkpt lat="45.99631" lon="4.58425">
        <ele>533.200012207</ele>
        <time>2015-08-11T09:33:01.472Z</time>
      </trkpt>
      <trkpt lat="45.99626" lon="4.58429">
        <ele>533.099975586</ele>
        <time>2015-08-11T09:33:02.434Z</time>
      </trkpt>
      <trkpt lat="45.99621" lon="4.58432">
        <ele>533.099975586</ele>
        <time>2015-08-11T09:33:03.491Z</time>
      </trkpt>
      <trkpt lat="45.99616" lon="4.58434">
        <ele>533.099975586</ele>
        <time>2015-08-11T09:33:04.442Z</time>
      </trkpt>
      <trkpt lat="45.9961" lon="4.58435">
        <ele>533.200012207</ele>
        <time>2015-08-11T09:33:05.533Z</time>
      </trkpt>
      <trkpt lat="45.99601" lon="4.58435">
        <ele>533</ele>
        <time>2015-08-11T09:33:06.435Z</time>
      </trkpt>
      <trkpt lat="45.99595" lon="4.58435">
        <ele>533.099975586</ele>
        <time>2015-08-11T09:33:07.478Z</time>
      </trkpt>
      <trkpt lat="45.9959" lon="4.58435">
        <ele>533.299987793</ele>
        <time>2015-08-11T09:33:08.443Z</time>
      </trkpt>
      <trkpt lat="45.99586" lon="4.58434">
        <ele>533.299987793</ele>
        <time>2015-08-11T09:33:09.475Z</time>
      </trkpt>
      <trkpt lat="45.99581" lon="4.58433">
        <ele>533.299987793</ele>
        <time>2015-08-11T09:33:10.439Z</time>
      </trkpt>
      <trkpt lat="45.99572" lon="4.58432">
        <ele>533.400024414</ele>
        <time>2015-08-11T09:33:12.473Z</time>
      </trkpt>
      <trkpt lat="45.99568" lon="4.58432">
        <ele>533.5</ele>
        <time>2015-08-11T09:33:13.441Z</time>
      </trkpt>
      <trkpt lat="45.9956" lon="4.5843">
        <ele>533.700012207</ele>
        <time>2015-08-11T09:33:15.563Z</time>
      </trkpt>
      <trkpt lat="45.99557" lon="4.58429">
        <ele>533.799987793</ele>
        <time>2015-08-11T09:33:16.44Z</time>
      </trkpt>
      <trkpt lat="45.99548" lon="4.58428">
        <ele>533.900024414</ele>
        <time>2015-08-11T09:33:18.478Z</time>
      </trkpt>
      <trkpt lat="45.99544" lon="4.58427">
        <ele>533.900024414</ele>
        <time>2015-08-11T09:33:19.439Z</time>
      </trkpt>
      <trkpt lat="45.99537" lon="4.5843">
        <ele>533.900024414</ele>
        <time>2015-08-11T09:33:20.473Z</time>
      </trkpt>
      <trkpt lat="45.99532" lon="4.5843">
        <ele>533.900024414</ele>
        <time>2015-08-11T09:33:21.437Z</time>
      </trkpt>
      <trkpt lat="45.99527" lon="4.58431">
        <ele>534</ele>
        <time>2015-08-11T09:33:22.481Z</time>
      </trkpt>
      <trkpt lat="45.99522" lon="4.58436">
        <ele>534.099975586</ele>
        <time>2015-08-11T09:33:23.437Z</time>
      </trkpt>
      <trkpt lat="45.99517" lon="4.5844">
        <ele>534.299987793</ele>
        <time>2015-08-11T09:33:24.473Z</time>
      </trkpt>
      <trkpt lat="45.99514" lon="4.58445">
        <ele>534.400024414</ele>
        <time>2015-08-11T09:33:25.441Z</time>
      </trkpt>
      <trkpt lat="45.99512" lon="4.58457">
        <ele>534.700012207</ele>
        <time>2015-08-11T09:33:27.471Z</time>
      </trkpt>
      <trkpt lat="45.99511" lon="4.58462">
        <ele>534.900024414</ele>
        <time>2015-08-11T09:33:28.439Z</time>
      </trkpt>
      <trkpt lat="45.9951" lon="4.58475">
        <ele>536.700012207</ele>
        <time>2015-08-11T09:33:31.472Z</time>
      </trkpt>
      <trkpt lat="45.99511" lon="4.58478">
        <ele>537.599975586</ele>
        <time>2015-08-11T09:33:32.443Z</time>
      </trkpt>
      <trkpt lat="45.99507" lon="4.58487">
        <ele>537.400024414</ele>
        <time>2015-08-11T09:33:35.505Z</time>
      </trkpt>
      <trkpt lat="45.99506" lon="4.5849">
        <ele>537.5</ele>
        <time>2015-08-11T09:33:36.449Z</time>
      </trkpt>
      <trkpt lat="45.99499" lon="4.58499">
        <ele>538</ele>
        <time>2015-08-11T09:33:39.48Z</time>
      </trkpt>
      <trkpt lat="45.99496" lon="4.58501">
        <ele>538.099975586</ele>
        <time>2015-08-11T09:33:40.439Z</time>
      </trkpt>
      <trkpt lat="45.9949" lon="4.58505">
        <ele>538.5</ele>
        <time>2015-08-11T09:33:42.47Z</time>
      </trkpt>
      <trkpt lat="45.99487" lon="4.58507">
        <ele>538.700012207</ele>
        <time>2015-08-11T09:33:43.439Z</time>
      </trkpt>
      <trkpt lat="45.99481" lon="4.5851">
        <ele>538.900024414</ele>
        <time>2015-08-11T09:33:45.47Z</time>
      </trkpt>
      <trkpt lat="45.99478" lon="4.58513">
        <ele>539</ele>
        <time>2015-08-11T09:33:46.439Z</time>
      </trkpt>
      <trkpt lat="45.99471" lon="4.58519">
        <ele>539.799987793</ele>
        <time>2015-08-11T09:33:49.511Z</time>
      </trkpt>
      <trkpt lat="45.99468" lon="4.5852">
        <ele>539.799987793</ele>
        <time>2015-08-11T09:33:50.46Z</time>
      </trkpt>
      <trkpt lat="45.99461" lon="4.58522">
        <ele>539.799987793</ele>
        <time>2015-08-11T09:33:52.48Z</time>
      </trkpt>
      <trkpt lat="45.99457" lon="4.58522">
        <ele>539.200012207</ele>
        <time>2015-08-11T09:33:53.446Z</time>
      </trkpt>
      <trkpt lat="45.9945" lon="4.58524">
        <ele>538.700012207</ele>
        <time>2015-08-11T09:33:55.502Z</time>
      </trkpt>
      <trkpt lat="45.99448" lon="4.58526">
        <ele>538.900024414</ele>
        <time>2015-08-11T09:33:56.443Z</time>
      </trkpt>
      <trkpt lat="45.99442" lon="4.5853">
        <ele>539.400024414</ele>
        <time>2015-08-11T09:33:58.485Z</time>
      </trkpt>
      <trkpt lat="45.99439" lon="4.58533">
        <ele>539.400024414</ele>
        <time>2015-08-11T09:33:59.425Z</time>
      </trkpt>
      <trkpt lat="45.99431" lon="4.58538">
        <ele>539.900024414</ele>
        <time>2015-08-11T09:34:02.475Z</time>
      </trkpt>
      <trkpt lat="45.99428" lon="4.5854">
        <ele>540.099975586</ele>
        <time>2015-08-11T09:34:03.438Z</time>
      </trkpt>
      <trkpt lat="45.99423" lon="4.58544">
        <ele>540.299987793</ele>
        <time>2015-08-11T09:34:05.47Z</time>
      </trkpt>
      <trkpt lat="45.9942" lon="4.58546">
        <ele>540.5</ele>
        <time>2015-08-11T09:34:06.425Z</time>
      </trkpt>
      <trkpt lat="45.99411" lon="4.5855">
        <ele>540.5</ele>
        <time>2015-08-11T09:34:09.484Z</time>
      </trkpt>
      <trkpt lat="45.99408" lon="4.58551">
        <ele>540.599975586</ele>
        <time>2015-08-11T09:34:10.439Z</time>
      </trkpt>
      <trkpt lat="45.994" lon="4.58557">
        <ele>540.900024414</ele>
        <time>2015-08-11T09:34:13.471Z</time>
      </trkpt>
      <trkpt lat="45.99398" lon="4.5856">
        <ele>540.900024414</ele>
        <time>2015-08-11T09:34:14.47Z</time>
      </trkpt>
      <trkpt lat="45.99393" lon="4.58566">
        <ele>541.200012207</ele>
        <time>2015-08-11T09:34:16.503Z</time>
      </trkpt>
      <trkpt lat="45.9939" lon="4.58568">
        <ele>541.200012207</ele>
        <time>2015-08-11T09:34:17.437Z</time>
      </trkpt>
      <trkpt lat="45.99385" lon="4.58574">
        <ele>541.200012207</ele>
        <time>2015-08-11T09:34:19.476Z</time>
      </trkpt>
      <trkpt lat="45.99383" lon="4.58576">
        <ele>541.299987793</ele>
        <time>2015-08-11T09:34:20.443Z</time>
      </trkpt>
      <trkpt lat="45.99377" lon="4.58584">
        <ele>541.5</ele>
        <time>2015-08-11T09:34:23.473Z</time>
      </trkpt>
      <trkpt lat="45.99374" lon="4.58588">
        <ele>541.900024414</ele>
        <time>2015-08-11T09:34:24.436Z</time>
      </trkpt>
      <trkpt lat="45.99369" lon="4.58594">
        <ele>542.200012207</ele>
        <time>2015-08-11T09:34:26.491Z</time>
      </trkpt>
      <trkpt lat="45.99367" lon="4.58597">
        <ele>542.299987793</ele>
        <time>2015-08-11T09:34:27.454Z</time>
      </trkpt>
      <trkpt lat="45.99362" lon="4.58603">
        <ele>542.5</ele>
        <time>2015-08-11T09:34:29.47Z</time>
      </trkpt>
      <trkpt lat="45.9936" lon="4.58606">
        <ele>542.599975586</ele>
        <time>2015-08-11T09:34:30.44Z</time>
      </trkpt>
      <trkpt lat="45.99355" lon="4.58612">
        <ele>542.700012207</ele>
        <time>2015-08-11T09:34:32.468Z</time>
      </trkpt>
      <trkpt lat="45.99353" lon="4.58616">
        <ele>542.5</ele>
        <time>2015-08-11T09:34:33.437Z</time>
      </trkpt>
      <trkpt lat="45.99348" lon="4.58623">
        <ele>542.5</ele>
        <time>2015-08-11T09:34:35.47Z</time>
      </trkpt>
      <trkpt lat="45.99345" lon="4.58626">
        <ele>542.599975586</ele>
        <time>2015-08-11T09:34:36.437Z</time>
      </trkpt>
      <trkpt lat="45.99339" lon="4.58633">
        <ele>542.700012207</ele>
        <time>2015-08-11T09:34:38.47Z</time>
      </trkpt>
      <trkpt lat="45.99337" lon="4.58637">
        <ele>542.599975586</ele>
        <time>2015-08-11T09:34:39.437Z</time>
      </trkpt>
      <trkpt lat="45.99331" lon="4.58645">
        <ele>541.599975586</ele>
        <time>2015-08-11T09:34:42.47Z</time>
      </trkpt>
      <trkpt lat="45.9933" lon="4.58648">
        <ele>541.299987793</ele>
        <time>2015-08-11T09:34:43.428Z</time>
      </trkpt>
      <trkpt lat="45.99324" lon="4.58657">
        <ele>541.5</ele>
        <time>2015-08-11T09:34:46.47Z</time>
      </trkpt>
      <trkpt lat="45.99322" lon="4.5866">
        <ele>541</ele>
        <time>2015-08-11T09:34:47.435Z</time>
      </trkpt>
      <trkpt lat="45.99318" lon="4.58667">
        <ele>540.900024414</ele>
        <time>2015-08-11T09:34:49.496Z</time>
      </trkpt>
      <trkpt lat="45.99316" lon="4.5867">
        <ele>540.599975586</ele>
        <time>2015-08-11T09:34:50.436Z</time>
      </trkpt>
      <trkpt lat="45.99312" lon="4.58679">
        <ele>540.099975586</ele>
        <time>2015-08-11T09:34:52.521Z</time>
      </trkpt>
      <trkpt lat="45.9931" lon="4.58686">
        <ele>539.799987793</ele>
        <time>2015-08-11T09:34:53.443Z</time>
      </trkpt>
      <trkpt lat="45.99309" lon="4.58692">
        <ele>539.799987793</ele>
        <time>2015-08-11T09:34:54.496Z</time>
      </trkpt>
      <trkpt lat="45.99307" lon="4.58698">
        <ele>539.700012207</ele>
        <time>2015-08-11T09:34:55.442Z</time>
      </trkpt>
      <trkpt lat="45.99304" lon="4.5871">
        <ele>539</ele>
        <time>2015-08-11T09:34:57.48Z</time>
      </trkpt>
      <trkpt lat="45.99302" lon="4.58714">
        <ele>538.799987793</ele>
        <time>2015-08-11T09:34:58.443Z</time>
      </trkpt>
      <trkpt lat="45.99294" lon="4.58708">
        <ele>537.200012207</ele>
        <time>2015-08-11T09:35:02.47Z</time>
      </trkpt>
      <trkpt lat="45.99294" lon="4.58704">
        <ele>537</ele>
        <time>2015-08-11T09:35:03.438Z</time>
      </trkpt>
      <trkpt lat="45.99294" lon="4.58694">
        <ele>536.400024414</ele>
        <time>2015-08-11T09:35:05.47Z</time>
      </trkpt>
      <trkpt lat="45.99294" lon="4.58689">
        <ele>536.299987793</ele>
        <time>2015-08-11T09:35:06.439Z</time>
      </trkpt>
      <trkpt lat="45.99295" lon="4.58677">
        <ele>536.099975586</ele>
        <time>2015-08-11T09:35:08.478Z</time>
      </trkpt>
      <trkpt lat="45.99297" lon="4.58672">
        <ele>536.200012207</ele>
        <time>2015-08-11T09:35:09.454Z</time>
      </trkpt>
      <trkpt lat="45.99299" lon="4.5866">
        <ele>536.099975586</ele>
        <time>2015-08-11T09:35:11.478Z</time>
      </trkpt>
      <trkpt lat="45.99299" lon="4.58655">
        <ele>536</ele>
        <time>2015-08-11T09:35:12.435Z</time>
      </trkpt>
      <trkpt lat="45.99299" lon="4.58644">
        <ele>535.599975586</ele>
        <time>2015-08-11T09:35:14.488Z</time>
      </trkpt>
      <trkpt lat="45.99299" lon="4.58639">
        <ele>535.400024414</ele>
        <time>2015-08-11T09:35:15.438Z</time>
      </trkpt>
      <trkpt lat="45.99299" lon="4.5863">
        <ele>535</ele>
        <time>2015-08-11T09:35:17.513Z</time>
      </trkpt>
      <trkpt lat="45.99299" lon="4.58625">
        <ele>535.099975586</ele>
        <time>2015-08-11T09:35:18.437Z</time>
      </trkpt>
      <trkpt lat="45.99297" lon="4.58615">
        <ele>534.700012207</ele>
        <time>2015-08-11T09:35:20.476Z</time>
      </trkpt>
      <trkpt lat="45.99296" lon="4.5861">
        <ele>534.700012207</ele>
        <time>2015-08-11T09:35:21.44Z</time>
      </trkpt>
      <trkpt lat="45.99293" lon="4.58601">
        <ele>535.099975586</ele>
        <time>2015-08-11T09:35:23.489Z</time>
      </trkpt>
      <trkpt lat="45.99293" lon="4.58597">
        <ele>535.299987793</ele>
        <time>2015-08-11T09:35:24.44Z</time>
      </trkpt>
      <trkpt lat="45.99291" lon="4.5859">
        <ele>535.900024414</ele>
        <time>2015-08-11T09:35:26.525Z</time>
      </trkpt>
      <trkpt lat="45.99288" lon="4.58585">
        <ele>536.400024414</ele>
        <time>2015-08-11T09:35:27.445Z</time>
      </trkpt>
      <trkpt lat="45.99284" lon="4.58576">
        <ele>537.099975586</ele>
        <time>2015-08-11T09:35:29.473Z</time>
      </trkpt>
      <trkpt lat="45.99282" lon="4.58572">
        <ele>537.099975586</ele>
        <time>2015-08-11T09:35:30.437Z</time>
      </trkpt>
      <trkpt lat="45.99278" lon="4.58566">
        <ele>537</ele>
        <time>2015-08-11T09:35:32.471Z</time>
      </trkpt>
      <trkpt lat="45.99275" lon="4.58563">
        <ele>537</ele>
        <time>2015-08-11T09:35:33.44Z</time>
      </trkpt>
      <trkpt lat="45.9927" lon="4.58561">
        <ele>536.5</ele>
        <time>2015-08-11T09:35:34.488Z</time>
      </trkpt>
      <trkpt lat="45.99266" lon="4.58561">
        <ele>536.299987793</ele>
        <time>2015-08-11T09:35:35.438Z</time>
      </trkpt>
      <trkpt lat="45.9926" lon="4.58561">
        <ele>536.200012207</ele>
        <time>2015-08-11T09:35:36.513Z</time>
      </trkpt>
      <trkpt lat="45.99255" lon="4.58561">
        <ele>536</ele>
        <time>2015-08-11T09:35:37.443Z</time>
      </trkpt>
      <trkpt lat="45.99249" lon="4.58564">
        <ele>535.799987793</ele>
        <time>2015-08-11T09:35:38.473Z</time>
      </trkpt>
      <trkpt lat="45.99243" lon="4.58563">
        <ele>535.700012207</ele>
        <time>2015-08-11T09:35:39.438Z</time>
      </trkpt>
      <trkpt lat="45.99238" lon="4.58561">
        <ele>535.5</ele>
        <time>2015-08-11T09:35:40.474Z</time>
      </trkpt>
      <trkpt lat="45.99233" lon="4.58559">
        <ele>535.299987793</ele>
        <time>2015-08-11T09:35:41.421Z</time>
      </trkpt>
      <trkpt lat="45.99227" lon="4.58556">
        <ele>535.299987793</ele>
        <time>2015-08-11T09:35:42.476Z</time>
      </trkpt>
      <trkpt lat="45.99223" lon="4.5855">
        <ele>535.099975586</ele>
        <time>2015-08-11T09:35:43.437Z</time>
      </trkpt>
      <trkpt lat="45.9922" lon="4.58544">
        <ele>534.400024414</ele>
        <time>2015-08-11T09:35:44.488Z</time>
      </trkpt>
      <trkpt lat="45.99217" lon="4.58538">
        <ele>533.900024414</ele>
        <time>2015-08-11T09:35:45.437Z</time>
      </trkpt>
      <trkpt lat="45.99214" lon="4.58533">
        <ele>533.5</ele>
        <time>2015-08-11T09:35:46.499Z</time>
      </trkpt>
      <trkpt lat="45.9921" lon="4.58527">
        <ele>533.200012207</ele>
        <time>2015-08-11T09:35:47.438Z</time>
      </trkpt>
      <trkpt lat="45.99207" lon="4.58521">
        <ele>532.900024414</ele>
        <time>2015-08-11T09:35:48.472Z</time>
      </trkpt>
      <trkpt lat="45.99203" lon="4.58515">
        <ele>532.5</ele>
        <time>2015-08-11T09:35:49.428Z</time>
      </trkpt>
      <trkpt lat="45.99201" lon="4.58509">
        <ele>532.299987793</ele>
        <time>2015-08-11T09:35:50.512Z</time>
      </trkpt>
      <trkpt lat="45.99198" lon="4.58504">
        <ele>532.099975586</ele>
        <time>2015-08-11T09:35:51.44Z</time>
      </trkpt>
      <trkpt lat="45.99193" lon="4.58494">
        <ele>531.599975586</ele>
        <time>2015-08-11T09:35:53.484Z</time>
      </trkpt>
      <trkpt lat="45.9919" lon="4.58489">
        <ele>531.5</ele>
        <time>2015-08-11T09:35:54.439Z</time>
      </trkpt>
      <trkpt lat="45.99186" lon="4.58478">
        <ele>531.099975586</ele>
        <time>2015-08-11T09:35:56.479Z</time>
      </trkpt>
      <trkpt lat="45.9918" lon="4.58477">
        <ele>530.900024414</ele>
        <time>2015-08-11T09:35:57.439Z</time>
      </trkpt>
      <trkpt lat="45.99171" lon="4.58476">
        <ele>530.299987793</ele>
        <time>2015-08-11T09:35:59.475Z</time>
      </trkpt>
      <trkpt lat="45.99167" lon="4.58476">
        <ele>529.900024414</ele>
        <time>2015-08-11T09:36:00.435Z</time>
      </trkpt>
      <trkpt lat="45.99162" lon="4.58476">
        <ele>529.400024414</ele>
        <time>2015-08-11T09:36:01.477Z</time>
      </trkpt>
      <trkpt lat="45.99157" lon="4.58476">
        <ele>528.5</ele>
        <time>2015-08-11T09:36:02.442Z</time>
      </trkpt>
      <trkpt lat="45.99149" lon="4.58476">
        <ele>527.599975586</ele>
        <time>2015-08-11T09:36:04.487Z</time>
      </trkpt>
      <trkpt lat="45.99145" lon="4.58476">
        <ele>527.200012207</ele>
        <time>2015-08-11T09:36:05.445Z</time>
      </trkpt>
      <trkpt lat="45.99137" lon="4.5848">
        <ele>526.400024414</ele>
        <time>2015-08-11T09:36:07.485Z</time>
      </trkpt>
      <trkpt lat="45.99133" lon="4.58484">
        <ele>525.799987793</ele>
        <time>2015-08-11T09:36:08.436Z</time>
      </trkpt>
      <trkpt lat="45.99129" lon="4.58487">
        <ele>525.299987793</ele>
        <time>2015-08-11T09:36:09.475Z</time>
      </trkpt>
      <trkpt lat="45.99125" lon="4.58489">
        <ele>525</ele>
        <time>2015-08-11T09:36:10.439Z</time>
      </trkpt>
      <trkpt lat="45.99118" lon="4.58498">
        <ele>524.299987793</ele>
        <time>2015-08-11T09:36:12.483Z</time>
      </trkpt>
      <trkpt lat="45.99115" lon="4.58503">
        <ele>523.900024414</ele>
        <time>2015-08-11T09:36:13.443Z</time>
      </trkpt>
      <trkpt lat="45.9911" lon="4.58513">
        <ele>522.900024414</ele>
        <time>2015-08-11T09:36:15.472Z</time>
      </trkpt>
      <trkpt lat="45.99107" lon="4.58518">
        <ele>522.299987793</ele>
        <time>2015-08-11T09:36:16.46Z</time>
      </trkpt>
      <trkpt lat="45.99104" lon="4.58524">
        <ele>521.900024414</ele>
        <time>2015-08-11T09:36:17.487Z</time>
      </trkpt>
      <trkpt lat="45.99101" lon="4.58529">
        <ele>521.5</ele>
        <time>2015-08-11T09:36:18.421Z</time>
      </trkpt>
      <trkpt lat="45.99098" lon="4.58535">
        <ele>521</ele>
        <time>2015-08-11T09:36:19.485Z</time>
      </trkpt>
      <trkpt lat="45.99094" lon="4.58541">
        <ele>520.599975586</ele>
        <time>2015-08-11T09:36:20.439Z</time>
      </trkpt>
      <trkpt lat="45.9909" lon="4.58548">
        <ele>520.099975586</ele>
        <time>2015-08-11T09:36:21.475Z</time>
      </trkpt>
      <trkpt lat="45.99087" lon="4.58553">
        <ele>519.799987793</ele>
        <time>2015-08-11T09:36:22.437Z</time>
      </trkpt>
      <trkpt lat="45.99081" lon="4.58562">
        <ele>519.099975586</ele>
        <time>2015-08-11T09:36:24.491Z</time>
      </trkpt>
      <trkpt lat="45.99079" lon="4.58566">
        <ele>518.799987793</ele>
        <time>2015-08-11T09:36:25.441Z</time>
      </trkpt>
      <trkpt lat="45.99076" lon="4.58573">
        <ele>518</ele>
        <time>2015-08-11T09:36:27.471Z</time>
      </trkpt>
      <trkpt lat="45.99073" lon="4.58578">
        <ele>517.700012207</ele>
        <time>2015-08-11T09:36:28.438Z</time>
      </trkpt>
      <trkpt lat="45.99068" lon="4.58586">
        <ele>516.900024414</ele>
        <time>2015-08-11T09:36:30.516Z</time>
      </trkpt>
      <trkpt lat="45.99064" lon="4.58591">
        <ele>516.5</ele>
        <time>2015-08-11T09:36:31.441Z</time>
      </trkpt>
      <trkpt lat="45.9906" lon="4.58595">
        <ele>516</ele>
        <time>2015-08-11T09:36:32.473Z</time>
      </trkpt>
      <trkpt lat="45.99056" lon="4.58598">
        <ele>515.700012207</ele>
        <time>2015-08-11T09:36:33.455Z</time>
      </trkpt>
      <trkpt lat="45.99049" lon="4.58603">
        <ele>513.299987793</ele>
        <time>2015-08-11T09:36:35.48Z</time>
      </trkpt>
      <trkpt lat="45.99044" lon="4.58602">
        <ele>512.599975586</ele>
        <time>2015-08-11T09:36:36.444Z</time>
      </trkpt>
      <trkpt lat="45.99038" lon="4.58599">
        <ele>512.099975586</ele>
        <time>2015-08-11T09:36:37.477Z</time>
      </trkpt>
      <trkpt lat="45.99035" lon="4.58595">
        <ele>510.600006104</ele>
        <time>2015-08-11T09:36:38.439Z</time>
      </trkpt>
      <trkpt lat="45.99033" lon="4.58586">
        <ele>510</ele>
        <time>2015-08-11T09:36:39.477Z</time>
      </trkpt>
      <trkpt lat="45.99031" lon="4.58579">
        <ele>509.100006104</ele>
        <time>2015-08-11T09:36:40.493Z</time>
      </trkpt>
      <trkpt lat="45.9903" lon="4.58571">
        <ele>508.299987793</ele>
        <time>2015-08-11T09:36:41.473Z</time>
      </trkpt>
      <trkpt lat="45.99027" lon="4.58562">
        <ele>507.5</ele>
        <time>2015-08-11T09:36:42.42Z</time>
      </trkpt>
      <trkpt lat="45.99022" lon="4.58552">
        <ele>506.700012207</ele>
        <time>2015-08-11T09:36:43.476Z</time>
      </trkpt>
      <trkpt lat="45.99018" lon="4.58541">
        <ele>506.200012207</ele>
        <time>2015-08-11T09:36:44.422Z</time>
      </trkpt>
      <trkpt lat="45.99016" lon="4.58531">
        <ele>505.600006104</ele>
        <time>2015-08-11T09:36:45.475Z</time>
      </trkpt>
      <trkpt lat="45.99012" lon="4.58521">
        <ele>505.100006104</ele>
        <time>2015-08-11T09:36:46.426Z</time>
      </trkpt>
      <trkpt lat="45.99009" lon="4.58511">
        <ele>504.399993896</ele>
        <time>2015-08-11T09:36:47.47Z</time>
      </trkpt>
      <trkpt lat="45.99006" lon="4.58502">
        <ele>503.700012207</ele>
        <time>2015-08-11T09:36:48.437Z</time>
      </trkpt>
      <trkpt lat="45.99003" lon="4.58493">
        <ele>503.200012207</ele>
        <time>2015-08-11T09:36:49.477Z</time>
      </trkpt>
      <trkpt lat="45.98999" lon="4.58485">
        <ele>502.100006104</ele>
        <time>2015-08-11T09:36:50.438Z</time>
      </trkpt>
      <trkpt lat="45.98997" lon="4.58476">
        <ele>500.700012207</ele>
        <time>2015-08-11T09:36:51.476Z</time>
      </trkpt>
      <trkpt lat="45.98994" lon="4.58468">
        <ele>499.799987793</ele>
        <time>2015-08-11T09:36:52.437Z</time>
      </trkpt>
      <trkpt lat="45.98991" lon="4.58459">
        <ele>499.200012207</ele>
        <time>2015-08-11T09:36:53.474Z</time>
      </trkpt>
      <trkpt lat="45.98988" lon="4.5845">
        <ele>498.299987793</ele>
        <time>2015-08-11T09:36:54.429Z</time>
      </trkpt>
      <trkpt lat="45.98985" lon="4.58441">
        <ele>497.5</ele>
        <time>2015-08-11T09:36:55.479Z</time>
      </trkpt>
      <trkpt lat="45.98982" lon="4.58433">
        <ele>496.600006104</ele>
        <time>2015-08-11T09:36:56.443Z</time>
      </trkpt>
      <trkpt lat="45.98977" lon="4.58424">
        <ele>495.600006104</ele>
        <time>2015-08-11T09:36:57.472Z</time>
      </trkpt>
      <trkpt lat="45.9897" lon="4.58415">
        <ele>494.5</ele>
        <time>2015-08-11T09:36:58.438Z</time>
      </trkpt>
      <trkpt lat="45.98965" lon="4.58407">
        <ele>493.5</ele>
        <time>2015-08-11T09:36:59.492Z</time>
      </trkpt>
      <trkpt lat="45.98961" lon="4.58401">
        <ele>492.399993896</ele>
        <time>2015-08-11T09:37:00.444Z</time>
      </trkpt>
      <trkpt lat="45.98958" lon="4.58396">
        <ele>491.5</ele>
        <time>2015-08-11T09:37:01.536Z</time>
      </trkpt>
      <trkpt lat="45.98954" lon="4.58391">
        <ele>490.5</ele>
        <time>2015-08-11T09:37:02.443Z</time>
      </trkpt>
      <trkpt lat="45.98947" lon="4.58384">
        <ele>489</ele>
        <time>2015-08-11T09:37:04.477Z</time>
      </trkpt>
      <trkpt lat="45.98941" lon="4.58379">
        <ele>487.5</ele>
        <time>2015-08-11T09:37:05.44Z</time>
      </trkpt>
      <trkpt lat="45.98936" lon="4.58373">
        <ele>486.700012207</ele>
        <time>2015-08-11T09:37:06.479Z</time>
      </trkpt>
      <trkpt lat="45.98933" lon="4.58366">
        <ele>485.799987793</ele>
        <time>2015-08-11T09:37:07.441Z</time>
      </trkpt>
      <trkpt lat="45.98931" lon="4.58358">
        <ele>485</ele>
        <time>2015-08-11T09:37:08.47Z</time>
      </trkpt>
      <trkpt lat="45.9893" lon="4.5835">
        <ele>484.299987793</ele>
        <time>2015-08-11T09:37:09.419Z</time>
      </trkpt>
      <trkpt lat="45.98927" lon="4.58344">
        <ele>483.600006104</ele>
        <time>2015-08-11T09:37:10.503Z</time>
      </trkpt>
      <trkpt lat="45.98927" lon="4.58336">
        <ele>483</ele>
        <time>2015-08-11T09:37:11.437Z</time>
      </trkpt>
      <trkpt lat="45.98927" lon="4.58327">
        <ele>482.299987793</ele>
        <time>2015-08-11T09:37:12.473Z</time>
      </trkpt>
      <trkpt lat="45.98927" lon="4.58321">
        <ele>481.600006104</ele>
        <time>2015-08-11T09:37:13.44Z</time>
      </trkpt>
      <trkpt lat="45.98926" lon="4.58314">
        <ele>481</ele>
        <time>2015-08-11T09:37:14.476Z</time>
      </trkpt>
      <trkpt lat="45.98924" lon="4.58307">
        <ele>480.299987793</ele>
        <time>2015-08-11T09:37:15.439Z</time>
      </trkpt>
      <trkpt lat="45.98922" lon="4.583">
        <ele>479.5</ele>
        <time>2015-08-11T09:37:16.474Z</time>
      </trkpt>
      <trkpt lat="45.98921" lon="4.58292">
        <ele>478.799987793</ele>
        <time>2015-08-11T09:37:17.436Z</time>
      </trkpt>
      <trkpt lat="45.98919" lon="4.58285">
        <ele>478.100006104</ele>
        <time>2015-08-11T09:37:18.554Z</time>
      </trkpt>
      <trkpt lat="45.98917" lon="4.58277">
        <ele>477.5</ele>
        <time>2015-08-11T09:37:19.442Z</time>
      </trkpt>
      <trkpt lat="45.98916" lon="4.5827">
        <ele>476.799987793</ele>
        <time>2015-08-11T09:37:20.49Z</time>
      </trkpt>
      <trkpt lat="45.98914" lon="4.58263">
        <ele>476.200012207</ele>
        <time>2015-08-11T09:37:21.437Z</time>
      </trkpt>
      <trkpt lat="45.98913" lon="4.58257">
        <ele>475.700012207</ele>
        <time>2015-08-11T09:37:22.474Z</time>
      </trkpt>
      <trkpt lat="45.98911" lon="4.5825">
        <ele>475</ele>
        <time>2015-08-11T09:37:23.443Z</time>
      </trkpt>
      <trkpt lat="45.98908" lon="4.58244">
        <ele>474.5</ele>
        <time>2015-08-11T09:37:24.501Z</time>
      </trkpt>
      <trkpt lat="45.98907" lon="4.58237">
        <ele>473.799987793</ele>
        <time>2015-08-11T09:37:25.442Z</time>
      </trkpt>
      <trkpt lat="45.98906" lon="4.5823">
        <ele>473.200012207</ele>
        <time>2015-08-11T09:37:26.485Z</time>
      </trkpt>
      <trkpt lat="45.98904" lon="4.58223">
        <ele>472.600006104</ele>
        <time>2015-08-11T09:37:27.439Z</time>
      </trkpt>
      <trkpt lat="45.98901" lon="4.58216">
        <ele>472.100006104</ele>
        <time>2015-08-11T09:37:28.469Z</time>
      </trkpt>
      <trkpt lat="45.98899" lon="4.5821">
        <ele>471.5</ele>
        <time>2015-08-11T09:37:29.445Z</time>
      </trkpt>
      <trkpt lat="45.98898" lon="4.58203">
        <ele>470.899993896</ele>
        <time>2015-08-11T09:37:30.47Z</time>
      </trkpt>
      <trkpt lat="45.98896" lon="4.58197">
        <ele>470.5</ele>
        <time>2015-08-11T09:37:31.428Z</time>
      </trkpt>
      <trkpt lat="45.98894" lon="4.58185">
        <ele>469.799987793</ele>
        <time>2015-08-11T09:37:33.475Z</time>
      </trkpt>
      <trkpt lat="45.98893" lon="4.5818">
        <ele>469.5</ele>
        <time>2015-08-11T09:37:34.44Z</time>
      </trkpt>
      <trkpt lat="45.98889" lon="4.58171">
        <ele>468.700012207</ele>
        <time>2015-08-11T09:37:36.487Z</time>
      </trkpt>
      <trkpt lat="45.98887" lon="4.58167">
        <ele>468.299987793</ele>
        <time>2015-08-11T09:37:37.44Z</time>
      </trkpt>
      <trkpt lat="45.9888" lon="4.58159">
        <ele>467.399993896</ele>
        <time>2015-08-11T09:37:39.483Z</time>
      </trkpt>
      <trkpt lat="45.98876" lon="4.58157">
        <ele>466.799987793</ele>
        <time>2015-08-11T09:37:40.443Z</time>
      </trkpt>
      <trkpt lat="45.9887" lon="4.58155">
        <ele>465.899993896</ele>
        <time>2015-08-11T09:37:42.523Z</time>
      </trkpt>
      <trkpt lat="45.98864" lon="4.58158">
        <ele>465.399993896</ele>
        <time>2015-08-11T09:37:43.439Z</time>
      </trkpt>
      <trkpt lat="45.98858" lon="4.5816">
        <ele>465.100006104</ele>
        <time>2015-08-11T09:37:44.472Z</time>
      </trkpt>
      <trkpt lat="45.98854" lon="4.58163">
        <ele>464.700012207</ele>
        <time>2015-08-11T09:37:45.436Z</time>
      </trkpt>
      <trkpt lat="45.98847" lon="4.58171">
        <ele>463.899993896</ele>
        <time>2015-08-11T09:37:47.47Z</time>
      </trkpt>
      <trkpt lat="45.98844" lon="4.58175">
        <ele>463.5</ele>
        <time>2015-08-11T09:37:48.436Z</time>
      </trkpt>
      <trkpt lat="45.9884" lon="4.58182">
        <ele>462.899993896</ele>
        <time>2015-08-11T09:37:50.472Z</time>
      </trkpt>
      <trkpt lat="45.98838" lon="4.58187">
        <ele>462.600006104</ele>
        <time>2015-08-11T09:37:51.445Z</time>
      </trkpt>
      <trkpt lat="45.98835" lon="4.58197">
        <ele>462</ele>
        <time>2015-08-11T09:37:53.47Z</time>
      </trkpt>
      <trkpt lat="45.98834" lon="4.582">
        <ele>461.700012207</ele>
        <time>2015-08-11T09:37:54.436Z</time>
      </trkpt>
      <trkpt lat="45.98833" lon="4.5821">
        <ele>460.899993896</ele>
        <time>2015-08-11T09:37:57.473Z</time>
      </trkpt>
      <trkpt lat="45.98831" lon="4.58215">
        <ele>460.5</ele>
        <time>2015-08-11T09:37:58.445Z</time>
      </trkpt>
      <trkpt lat="45.98827" lon="4.5822">
        <ele>459.899993896</ele>
        <time>2015-08-11T09:37:59.475Z</time>
      </trkpt>
      <trkpt lat="45.98824" lon="4.58226">
        <ele>459.5</ele>
        <time>2015-08-11T09:38:00.435Z</time>
      </trkpt>
      <trkpt lat="45.98821" lon="4.58232">
        <ele>459.100006104</ele>
        <time>2015-08-11T09:38:01.473Z</time>
      </trkpt>
      <trkpt lat="45.98819" lon="4.58237">
        <ele>458.700012207</ele>
        <time>2015-08-11T09:38:02.42Z</time>
      </trkpt>
      <trkpt lat="45.98817" lon="4.58245">
        <ele>457.600006104</ele>
        <time>2015-08-11T09:38:04.508Z</time>
      </trkpt>
      <trkpt lat="45.98814" lon="4.58251">
        <ele>457.200012207</ele>
        <time>2015-08-11T09:38:05.473Z</time>
      </trkpt>
      <trkpt lat="45.98811" lon="4.5826">
        <ele>456.399993896</ele>
        <time>2015-08-11T09:38:07.488Z</time>
      </trkpt>
      <trkpt lat="45.98809" lon="4.58265">
        <ele>456.100006104</ele>
        <time>2015-08-11T09:38:08.437Z</time>
      </trkpt>
      <trkpt lat="45.98806" lon="4.58273">
        <ele>455.399993896</ele>
        <time>2015-08-11T09:38:10.472Z</time>
      </trkpt>
      <trkpt lat="45.98807" lon="4.58283">
        <ele>455</ele>
        <time>2015-08-11T09:38:11.435Z</time>
      </trkpt>
      <trkpt lat="45.98804" lon="4.58295">
        <ele>454.799987793</ele>
        <time>2015-08-11T09:38:12.475Z</time>
      </trkpt>
      <trkpt lat="45.98801" lon="4.58303">
        <ele>454.899993896</ele>
        <time>2015-08-11T09:38:13.444Z</time>
      </trkpt>
      <trkpt lat="45.98796" lon="4.58309">
        <ele>454.399993896</ele>
        <time>2015-08-11T09:38:15.468Z</time>
      </trkpt>
      <trkpt lat="45.98795" lon="4.58314">
        <ele>454.200012207</ele>
        <time>2015-08-11T09:38:16.436Z</time>
      </trkpt>
      <trkpt lat="45.98792" lon="4.5832">
        <ele>454.399993896</ele>
        <time>2015-08-11T09:38:17.473Z</time>
      </trkpt>
      <trkpt lat="45.98789" lon="4.58326">
        <ele>454.100006104</ele>
        <time>2015-08-11T09:38:18.465Z</time>
      </trkpt>
      <trkpt lat="45.98783" lon="4.58334">
        <ele>453.799987793</ele>
        <time>2015-08-11T09:38:20.472Z</time>
      </trkpt>
      <trkpt lat="45.98776" lon="4.58345">
        <ele>453.200012207</ele>
        <time>2015-08-11T09:38:21.518Z</time>
      </trkpt>
      <trkpt lat="45.98776" lon="4.58345">
        <ele>453.200012207</ele>
        <time>2015-08-11T09:38:21.632Z</time>
      </trkpt>
      <trkpt lat="45.9878" lon="4.58357">
        <ele>452.700012207</ele>
        <time>2015-08-11T09:38:22.447Z</time>
      </trkpt>
      <trkpt lat="45.98776" lon="4.58365">
        <ele>452</ele>
        <time>2015-08-11T09:38:24.552Z</time>
      </trkpt>
      <trkpt lat="45.98776" lon="4.5837">
        <ele>451.5</ele>
        <time>2015-08-11T09:38:25.444Z</time>
      </trkpt>
      <trkpt lat="45.98774" lon="4.58382">
        <ele>450.700012207</ele>
        <time>2015-08-11T09:38:27.484Z</time>
      </trkpt>
      <trkpt lat="45.98771" lon="4.58388">
        <ele>450.299987793</ele>
        <time>2015-08-11T09:38:28.454Z</time>
      </trkpt>
      <trkpt lat="45.98763" lon="4.58388">
        <ele>449.100006104</ele>
        <time>2015-08-11T09:38:31.473Z</time>
      </trkpt>
      <trkpt lat="45.98761" lon="4.58385">
        <ele>449.299987793</ele>
        <time>2015-08-11T09:38:32.436Z</time>
      </trkpt>
      <trkpt lat="45.98753" lon="4.58389">
        <ele>448.5</ele>
        <time>2015-08-11T09:38:37.471Z</time>
      </trkpt>
      <trkpt lat="45.98751" lon="4.58391">
        <ele>448.299987793</ele>
        <time>2015-08-11T09:38:38.478Z</time>
      </trkpt>
      <trkpt lat="45.98747" lon="4.58393">
        <ele>447.700012207</ele>
        <time>2015-08-11T09:38:40.816Z</time>
      </trkpt>
      <trkpt lat="45.98747" lon="4.58391">
        <ele>447.399993896</ele>
        <time>2015-08-11T09:38:41.439Z</time>
      </trkpt>
      <trkpt lat="45.98747" lon="4.58391">
        <ele>447.399993896</ele>
        <time>2015-08-11T09:38:41.481Z</time>
      </trkpt>
      <trkpt lat="45.98746" lon="4.58393">
        <ele>446.799987793</ele>
        <time>2015-08-11T09:38:42.431Z</time>
      </trkpt>
      <trkpt lat="45.98739" lon="4.58395">
        <ele>446</ele>
        <time>2015-08-11T09:38:44.479Z</time>
      </trkpt>
      <trkpt lat="45.98734" lon="4.58396">
        <ele>445.799987793</ele>
        <time>2015-08-11T09:38:45.435Z</time>
      </trkpt>
      <trkpt lat="45.98727" lon="4.58395">
        <ele>445.399993896</ele>
        <time>2015-08-11T09:38:49.483Z</time>
      </trkpt>
      <trkpt lat="45.98725" lon="4.584">
        <ele>445.700012207</ele>
        <time>2015-08-11T09:38:50.448Z</time>
      </trkpt>
      <trkpt lat="45.98719" lon="4.58404">
        <ele>446.100006104</ele>
        <time>2015-08-11T09:38:52.478Z</time>
      </trkpt>
      <trkpt lat="45.98717" lon="4.58406">
        <ele>446.200012207</ele>
        <time>2015-08-11T09:38:53.45Z</time>
      </trkpt>
      <trkpt lat="45.9871" lon="4.5841">
        <ele>446.100006104</ele>
        <time>2015-08-11T09:38:56.476Z</time>
      </trkpt>
      <trkpt lat="45.98706" lon="4.58412">
        <ele>446.399993896</ele>
        <time>2015-08-11T09:38:57.451Z</time>
      </trkpt>
      <trkpt lat="45.98699" lon="4.58416">
        <ele>447.200012207</ele>
        <time>2015-08-11T09:39:00.478Z</time>
      </trkpt>
      <trkpt lat="45.98698" lon="4.58417">
        <ele>447.200012207</ele>
        <time>2015-08-11T09:39:01.429Z</time>
      </trkpt>
      <trkpt lat="45.9869" lon="4.58421">
        <ele>447.799987793</ele>
        <time>2015-08-11T09:39:04.492Z</time>
      </trkpt>
      <trkpt lat="45.98687" lon="4.58422">
        <ele>448.600006104</ele>
        <time>2015-08-11T09:39:05.583Z</time>
      </trkpt>
      <trkpt lat="45.98681" lon="4.58425">
        <ele>449.5</ele>
        <time>2015-08-11T09:39:08.749Z</time>
      </trkpt>
      <trkpt lat="45.98678" lon="4.58426">
        <ele>449.899993896</ele>
        <time>2015-08-11T09:39:09.44Z</time>
      </trkpt>
      <trkpt lat="45.9867" lon="4.5843">
        <ele>450.299987793</ele>
        <time>2015-08-11T09:39:12.485Z</time>
      </trkpt>
      <trkpt lat="45.98668" lon="4.5843">
        <ele>450.299987793</ele>
        <time>2015-08-11T09:39:13.514Z</time>
      </trkpt>
      <trkpt lat="45.98661" lon="4.58434">
        <ele>451</ele>
        <time>2015-08-11T09:39:17.479Z</time>
      </trkpt>
      <trkpt lat="45.98659" lon="4.58435">
        <ele>451.200012207</ele>
        <time>2015-08-11T09:39:18.449Z</time>
      </trkpt>
      <trkpt lat="45.98654" lon="4.58443">
        <ele>453.100006104</ele>
        <time>2015-08-11T09:39:21.484Z</time>
      </trkpt>
      <trkpt lat="45.98652" lon="4.58445">
        <ele>453.5</ele>
        <time>2015-08-11T09:39:22.445Z</time>
      </trkpt>
      <trkpt lat="45.98646" lon="4.58447">
        <ele>454</ele>
        <time>2015-08-11T09:39:24.573Z</time>
      </trkpt>
      <trkpt lat="45.98643" lon="4.58449">
        <ele>454.700012207</ele>
        <time>2015-08-11T09:39:25.427Z</time>
      </trkpt>
      <trkpt lat="45.98635" lon="4.58453">
        <ele>456.200012207</ele>
        <time>2015-08-11T09:39:30.496Z</time>
      </trkpt>
      <trkpt lat="45.98632" lon="4.58455">
        <ele>456.600006104</ele>
        <time>2015-08-11T09:39:31.46Z</time>
      </trkpt>
      <trkpt lat="45.98625" lon="4.58459">
        <ele>457.200012207</ele>
        <time>2015-08-11T09:39:34.524Z</time>
      </trkpt>
      <trkpt lat="45.98622" lon="4.5846">
        <ele>457.5</ele>
        <time>2015-08-11T09:39:35.444Z</time>
      </trkpt>
      <trkpt lat="45.98614" lon="4.58464">
        <ele>458.600006104</ele>
        <time>2015-08-11T09:39:37.476Z</time>
      </trkpt>
      <trkpt lat="45.98611" lon="4.58465">
        <ele>458.899993896</ele>
        <time>2015-08-11T09:39:38.44Z</time>
      </trkpt>
      <trkpt lat="45.98603" lon="4.58469">
        <ele>460.399993896</ele>
        <time>2015-08-11T09:39:42.522Z</time>
      </trkpt>
      <trkpt lat="45.986" lon="4.5847">
        <ele>460.600006104</ele>
        <time>2015-08-11T09:39:43.442Z</time>
      </trkpt>
      <trkpt lat="45.98594" lon="4.58473">
        <ele>460.799987793</ele>
        <time>2015-08-11T09:39:45.474Z</time>
      </trkpt>
      <trkpt lat="45.98591" lon="4.58474">
        <ele>461</ele>
        <time>2015-08-11T09:39:46.423Z</time>
      </trkpt>
      <trkpt lat="45.98583" lon="4.58479">
        <ele>461.700012207</ele>
        <time>2015-08-11T09:39:49.487Z</time>
      </trkpt>
      <trkpt lat="45.98582" lon="4.58481">
        <ele>462.100006104</ele>
        <time>2015-08-11T09:39:50.493Z</time>
      </trkpt>
      <trkpt lat="45.98579" lon="4.5849">
        <ele>463.100006104</ele>
        <time>2015-08-11T09:39:53.505Z</time>
      </trkpt>
      <trkpt lat="45.98577" lon="4.58493">
        <ele>463.399993896</ele>
        <time>2015-08-11T09:39:54.45Z</time>
      </trkpt>
      <trkpt lat="45.98571" lon="4.58502">
        <ele>464.5</ele>
        <time>2015-08-11T09:39:58.475Z</time>
      </trkpt>
      <trkpt lat="45.98569" lon="4.58504">
        <ele>464.799987793</ele>
        <time>2015-08-11T09:39:59.438Z</time>
      </trkpt>
      <trkpt lat="45.98563" lon="4.58514">
        <ele>465.600006104</ele>
        <time>2015-08-11T09:40:02.479Z</time>
      </trkpt>
      <trkpt lat="45.98563" lon="4.58516">
        <ele>465.799987793</ele>
        <time>2015-08-11T09:40:03.438Z</time>
      </trkpt>
      <trkpt lat="45.98557" lon="4.58526">
        <ele>467.200012207</ele>
        <time>2015-08-11T09:40:07.482Z</time>
      </trkpt>
      <trkpt lat="45.98556" lon="4.58528">
        <ele>467.399993896</ele>
        <time>2015-08-11T09:40:08.444Z</time>
      </trkpt>
      <trkpt lat="45.98552" lon="4.58538">
        <ele>468</ele>
        <time>2015-08-11T09:40:11.472Z</time>
      </trkpt>
      <trkpt lat="45.9855" lon="4.58541">
        <ele>468.299987793</ele>
        <time>2015-08-11T09:40:12.577Z</time>
      </trkpt>
      <trkpt lat="45.98545" lon="4.5855">
        <ele>469.799987793</ele>
        <time>2015-08-11T09:40:15.475Z</time>
      </trkpt>
      <trkpt lat="45.98543" lon="4.58554">
        <ele>470.100006104</ele>
        <time>2015-08-11T09:40:16.441Z</time>
      </trkpt>
      <trkpt lat="45.98538" lon="4.58563">
        <ele>470.899993896</ele>
        <time>2015-08-11T09:40:19.486Z</time>
      </trkpt>
      <trkpt lat="45.98536" lon="4.58566">
        <ele>471.600006104</ele>
        <time>2015-08-11T09:40:20.437Z</time>
      </trkpt>
      <trkpt lat="45.98529" lon="4.58573">
        <ele>472.799987793</ele>
        <time>2015-08-11T09:40:23.476Z</time>
      </trkpt>
      <trkpt lat="45.98528" lon="4.58576">
        <ele>473</ele>
        <time>2015-08-11T09:40:24.424Z</time>
      </trkpt>
      <trkpt lat="45.98522" lon="4.58585">
        <ele>474.899993896</ele>
        <time>2015-08-11T09:40:28.475Z</time>
      </trkpt>
      <trkpt lat="45.9852" lon="4.58587">
        <ele>475.299987793</ele>
        <time>2015-08-11T09:40:29.435Z</time>
      </trkpt>
      <trkpt lat="45.98515" lon="4.58595">
        <ele>476.700012207</ele>
        <time>2015-08-11T09:40:32.519Z</time>
      </trkpt>
      <trkpt lat="45.98513" lon="4.58599">
        <ele>477</ele>
        <time>2015-08-11T09:40:33.445Z</time>
      </trkpt>
      <trkpt lat="45.98508" lon="4.58603">
        <ele>478.100006104</ele>
        <time>2015-08-11T09:40:35.474Z</time>
      </trkpt>
      <trkpt lat="45.98505" lon="4.58605">
        <ele>479</ele>
        <time>2015-08-11T09:40:36.437Z</time>
      </trkpt>
      <trkpt lat="45.98498" lon="4.58612">
        <ele>481</ele>
        <time>2015-08-11T09:40:40.473Z</time>
      </trkpt>
      <trkpt lat="45.98497" lon="4.58613">
        <ele>481.5</ele>
        <time>2015-08-11T09:40:41.433Z</time>
      </trkpt>
      <trkpt lat="45.98489" lon="4.58616">
        <ele>484.399993896</ele>
        <time>2015-08-11T09:40:46.54Z</time>
      </trkpt>
      <trkpt lat="45.98488" lon="4.58617">
        <ele>484.799987793</ele>
        <time>2015-08-11T09:40:47.44Z</time>
      </trkpt>
      <trkpt lat="45.98482" lon="4.58623">
        <ele>486.100006104</ele>
        <time>2015-08-11T09:40:50.478Z</time>
      </trkpt>
      <trkpt lat="45.98479" lon="4.58625">
        <ele>487.200012207</ele>
        <time>2015-08-11T09:40:51.454Z</time>
      </trkpt>
      <trkpt lat="45.98471" lon="4.58631">
        <ele>488.899993896</ele>
        <time>2015-08-11T09:40:54.516Z</time>
      </trkpt>
      <trkpt lat="45.98469" lon="4.58633">
        <ele>489.600006104</ele>
        <time>2015-08-11T09:40:55.443Z</time>
      </trkpt>
      <trkpt lat="45.98462" lon="4.58639">
        <ele>491.600006104</ele>
        <time>2015-08-11T09:40:58.493Z</time>
      </trkpt>
      <trkpt lat="45.98459" lon="4.5864">
        <ele>492.100006104</ele>
        <time>2015-08-11T09:40:59.442Z</time>
      </trkpt>
      <trkpt lat="45.9845" lon="4.58642">
        <ele>494.200012207</ele>
        <time>2015-08-11T09:41:02.472Z</time>
      </trkpt>
      <trkpt lat="45.98447" lon="4.58643">
        <ele>494.700012207</ele>
        <time>2015-08-11T09:41:03.445Z</time>
      </trkpt>
      <trkpt lat="45.98439" lon="4.58647">
        <ele>495.700012207</ele>
        <time>2015-08-11T09:41:06.476Z</time>
      </trkpt>
      <trkpt lat="45.98437" lon="4.58648">
        <ele>496.200012207</ele>
        <time>2015-08-11T09:41:07.446Z</time>
      </trkpt>
      <trkpt lat="45.98428" lon="4.58649">
        <ele>497.100006104</ele>
        <time>2015-08-11T09:41:10.486Z</time>
      </trkpt>
      <trkpt lat="45.98426" lon="4.5865">
        <ele>497.200012207</ele>
        <time>2015-08-11T09:41:11.446Z</time>
      </trkpt>
      <trkpt lat="45.98418" lon="4.58649">
        <ele>498.899993896</ele>
        <time>2015-08-11T09:41:14.518Z</time>
      </trkpt>
      <trkpt lat="45.98416" lon="4.5865">
        <ele>499.600006104</ele>
        <time>2015-08-11T09:41:15.437Z</time>
      </trkpt>
      <trkpt lat="45.98408" lon="4.58655">
        <ele>500.799987793</ele>
        <time>2015-08-11T09:41:18.474Z</time>
      </trkpt>
      <trkpt lat="45.98405" lon="4.58655">
        <ele>501</ele>
        <time>2015-08-11T09:41:19.446Z</time>
      </trkpt>
      <trkpt lat="45.98397" lon="4.58654">
        <ele>502.100006104</ele>
        <time>2015-08-11T09:41:22.474Z</time>
      </trkpt>
      <trkpt lat="45.98395" lon="4.58654">
        <ele>502.600006104</ele>
        <time>2015-08-11T09:41:23.44Z</time>
      </trkpt>
      <trkpt lat="45.98387" lon="4.58656">
        <ele>504</ele>
        <time>2015-08-11T09:41:26.47Z</time>
      </trkpt>
      <trkpt lat="45.98384" lon="4.58657">
        <ele>504.399993896</ele>
        <time>2015-08-11T09:41:27.48Z</time>
      </trkpt>
      <trkpt lat="45.98375" lon="4.5866">
        <ele>505.200012207</ele>
        <time>2015-08-11T09:41:30.494Z</time>
      </trkpt>
      <trkpt lat="45.98373" lon="4.58661">
        <ele>505.5</ele>
        <time>2015-08-11T09:41:31.441Z</time>
      </trkpt>
      <trkpt lat="45.98366" lon="4.5866">
        <ele>506.299987793</ele>
        <time>2015-08-11T09:41:34.499Z</time>
      </trkpt>
      <trkpt lat="45.98363" lon="4.58659">
        <ele>506.5</ele>
        <time>2015-08-11T09:41:35.441Z</time>
      </trkpt>
      <trkpt lat="45.98356" lon="4.58659">
        <ele>506.399993896</ele>
        <time>2015-08-11T09:41:38.471Z</time>
      </trkpt>
      <trkpt lat="45.98353" lon="4.58659">
        <ele>506.700012207</ele>
        <time>2015-08-11T09:41:39.438Z</time>
      </trkpt>
      <trkpt lat="45.98345" lon="4.58655">
        <ele>508.200012207</ele>
        <time>2015-08-11T09:41:44.499Z</time>
      </trkpt>
      <trkpt lat="45.98345" lon="4.58653">
        <ele>508.399993896</ele>
        <time>2015-08-11T09:41:45.417Z</time>
      </trkpt>
      <trkpt lat="45.9835" lon="4.58646">
        <ele>510.299987793</ele>
        <time>2015-08-11T09:41:51.511Z</time>
      </trkpt>
      <trkpt lat="45.98352" lon="4.58645">
        <ele>510.600006104</ele>
        <time>2015-08-11T09:41:52.44Z</time>
      </trkpt>
      <trkpt lat="45.98359" lon="4.5864">
        <ele>511.299987793</ele>
        <time>2015-08-11T09:41:56.49Z</time>
      </trkpt>
      <trkpt lat="45.98361" lon="4.58639">
        <ele>511.600006104</ele>
        <time>2015-08-11T09:41:57.437Z</time>
      </trkpt>
      <trkpt lat="45.98369" lon="4.58635">
        <ele>512.5</ele>
        <time>2015-08-11T09:42:01.472Z</time>
      </trkpt>
      <trkpt lat="45.98371" lon="4.58632">
        <ele>512.799987793</ele>
        <time>2015-08-11T09:42:02.445Z</time>
      </trkpt>
      <trkpt lat="45.98376" lon="4.58625">
        <ele>513.299987793</ele>
        <time>2015-08-11T09:42:05.47Z</time>
      </trkpt>
      <trkpt lat="45.98378" lon="4.58622">
        <ele>513.5</ele>
        <time>2015-08-11T09:42:06.44Z</time>
      </trkpt>
      <trkpt lat="45.98382" lon="4.58613">
        <ele>514.099975586</ele>
        <time>2015-08-11T09:42:09.476Z</time>
      </trkpt>
      <trkpt lat="45.98382" lon="4.5861">
        <ele>514.200012207</ele>
        <time>2015-08-11T09:42:10.464Z</time>
      </trkpt>
      <trkpt lat="45.98385" lon="4.58598">
        <ele>514.599975586</ele>
        <time>2015-08-11T09:42:13.473Z</time>
      </trkpt>
      <trkpt lat="45.98386" lon="4.58595">
        <ele>514.700012207</ele>
        <time>2015-08-11T09:42:14.476Z</time>
      </trkpt>
      <trkpt lat="45.98386" lon="4.58585">
        <ele>515.299987793</ele>
        <time>2015-08-11T09:42:17.479Z</time>
      </trkpt>
      <trkpt lat="45.98384" lon="4.58582">
        <ele>515.5</ele>
        <time>2015-08-11T09:42:18.427Z</time>
      </trkpt>
      <trkpt lat="45.98377" lon="4.58576">
        <ele>515.900024414</ele>
        <time>2015-08-11T09:42:21.48Z</time>
      </trkpt>
      <trkpt lat="45.98374" lon="4.58575">
        <ele>516.099975586</ele>
        <time>2015-08-11T09:42:22.452Z</time>
      </trkpt>
      <trkpt lat="45.98366" lon="4.58573">
        <ele>516.5</ele>
        <time>2015-08-11T09:42:25.473Z</time>
      </trkpt>
      <trkpt lat="45.98364" lon="4.58572">
        <ele>516.599975586</ele>
        <time>2015-08-11T09:42:26.461Z</time>
      </trkpt>
      <trkpt lat="45.98355" lon="4.58571">
        <ele>517.299987793</ele>
        <time>2015-08-11T09:42:31.474Z</time>
      </trkpt>
      <trkpt lat="45.98353" lon="4.58571">
        <ele>517.5</ele>
        <time>2015-08-11T09:42:32.439Z</time>
      </trkpt>
      <trkpt lat="45.98345" lon="4.58572">
        <ele>518.099975586</ele>
        <time>2015-08-11T09:42:36.469Z</time>
      </trkpt>
      <trkpt lat="45.98343" lon="4.58573">
        <ele>518.299987793</ele>
        <time>2015-08-11T09:42:37.442Z</time>
      </trkpt>
      <trkpt lat="45.98334" lon="4.58573">
        <ele>518.5</ele>
        <time>2015-08-11T09:42:41.473Z</time>
      </trkpt>
      <trkpt lat="45.98332" lon="4.58573">
        <ele>518.299987793</ele>
        <time>2015-08-11T09:42:42.474Z</time>
      </trkpt>
      <trkpt lat="45.98326" lon="4.58573">
        <ele>518.299987793</ele>
        <time>2015-08-11T09:42:44.519Z</time>
      </trkpt>
      <trkpt lat="45.98322" lon="4.58573">
        <ele>518.400024414</ele>
        <time>2015-08-11T09:42:45.437Z</time>
      </trkpt>
      <trkpt lat="45.98316" lon="4.58574">
        <ele>518.599975586</ele>
        <time>2015-08-11T09:42:47.47Z</time>
      </trkpt>
      <trkpt lat="45.98313" lon="4.58575">
        <ele>518.799987793</ele>
        <time>2015-08-11T09:42:48.453Z</time>
      </trkpt>
      <trkpt lat="45.98304" lon="4.5858">
        <ele>519.200012207</ele>
        <time>2015-08-11T09:42:51.474Z</time>
      </trkpt>
      <trkpt lat="45.98301" lon="4.5858">
        <ele>519.200012207</ele>
        <time>2015-08-11T09:42:52.442Z</time>
      </trkpt>
      <trkpt lat="45.98292" lon="4.5858">
        <ele>520</ele>
        <time>2015-08-11T09:42:56.469Z</time>
      </trkpt>
      <trkpt lat="45.9829" lon="4.5858">
        <ele>520.099975586</ele>
        <time>2015-08-11T09:42:57.444Z</time>
      </trkpt>
      <trkpt lat="45.98285" lon="4.58589">
        <ele>520.700012207</ele>
        <time>2015-08-11T09:43:01.475Z</time>
      </trkpt>
      <trkpt lat="45.98282" lon="4.58589">
        <ele>520.900024414</ele>
        <time>2015-08-11T09:43:02.438Z</time>
      </trkpt>
      <trkpt lat="45.98276" lon="4.58588">
        <ele>520.599975586</ele>
        <time>2015-08-11T09:43:04.502Z</time>
      </trkpt>
      <trkpt lat="45.98273" lon="4.58587">
        <ele>520.5</ele>
        <time>2015-08-11T09:43:05.445Z</time>
      </trkpt>
      <trkpt lat="45.98264" lon="4.58587">
        <ele>519.900024414</ele>
        <time>2015-08-11T09:43:08.471Z</time>
      </trkpt>
      <trkpt lat="45.98262" lon="4.58587">
        <ele>520</ele>
        <time>2015-08-11T09:43:09.48Z</time>
      </trkpt>
      <trkpt lat="45.98253" lon="4.58584">
        <ele>519.400024414</ele>
        <time>2015-08-11T09:43:13.471Z</time>
      </trkpt>
      <trkpt lat="45.98251" lon="4.58583">
        <ele>519.599975586</ele>
        <time>2015-08-11T09:43:14.485Z</time>
      </trkpt>
      <trkpt lat="45.98243" lon="4.5858">
        <ele>520</ele>
        <time>2015-08-11T09:43:17.501Z</time>
      </trkpt>
      <trkpt lat="45.9824" lon="4.5858">
        <ele>520</ele>
        <time>2015-08-11T09:43:18.445Z</time>
      </trkpt>
      <trkpt lat="45.98233" lon="4.5858">
        <ele>520</ele>
        <time>2015-08-11T09:43:21.511Z</time>
      </trkpt>
      <trkpt lat="45.98231" lon="4.58579">
        <ele>520</ele>
        <time>2015-08-11T09:43:22.439Z</time>
      </trkpt>
      <trkpt lat="45.98224" lon="4.58577">
        <ele>520.200012207</ele>
        <time>2015-08-11T09:43:25.491Z</time>
      </trkpt>
      <trkpt lat="45.98222" lon="4.58577">
        <ele>520.299987793</ele>
        <time>2015-08-11T09:43:26.445Z</time>
      </trkpt>
      <trkpt lat="45.98214" lon="4.58578">
        <ele>520.799987793</ele>
        <time>2015-08-11T09:43:29.473Z</time>
      </trkpt>
      <trkpt lat="45.98212" lon="4.58577">
        <ele>520.799987793</ele>
        <time>2015-08-11T09:43:30.438Z</time>
      </trkpt>
      <trkpt lat="45.98205" lon="4.58574">
        <ele>521.099975586</ele>
        <time>2015-08-11T09:43:34.501Z</time>
      </trkpt>
      <trkpt lat="45.98203" lon="4.58574">
        <ele>521.299987793</ele>
        <time>2015-08-11T09:43:35.439Z</time>
      </trkpt>
      <trkpt lat="45.98196" lon="4.58574">
        <ele>521.599975586</ele>
        <time>2015-08-11T09:43:38.486Z</time>
      </trkpt>
      <trkpt lat="45.98194" lon="4.58573">
        <ele>521.700012207</ele>
        <time>2015-08-11T09:43:39.418Z</time>
      </trkpt>
      <trkpt lat="45.98186" lon="4.58569">
        <ele>521.400024414</ele>
        <time>2015-08-11T09:43:43.563Z</time>
      </trkpt>
      <trkpt lat="45.98184" lon="4.58569">
        <ele>521.299987793</ele>
        <time>2015-08-11T09:43:44.5Z</time>
      </trkpt>
      <trkpt lat="45.98176" lon="4.5857">
        <ele>521.5</ele>
        <time>2015-08-11T09:43:48.473Z</time>
      </trkpt>
      <trkpt lat="45.98175" lon="4.5857">
        <ele>521.5</ele>
        <time>2015-08-11T09:43:49.44Z</time>
      </trkpt>
      <trkpt lat="45.98167" lon="4.58567">
        <ele>521.900024414</ele>
        <time>2015-08-11T09:43:52.524Z</time>
      </trkpt>
      <trkpt lat="45.98165" lon="4.58565">
        <ele>522.099975586</ele>
        <time>2015-08-11T09:43:53.437Z</time>
      </trkpt>
      <trkpt lat="45.98157" lon="4.58563">
        <ele>523.200012207</ele>
        <time>2015-08-11T09:43:57.485Z</time>
      </trkpt>
      <trkpt lat="45.98155" lon="4.58563">
        <ele>523.700012207</ele>
        <time>2015-08-11T09:43:58.425Z</time>
      </trkpt>
      <trkpt lat="45.98148" lon="4.58562">
        <ele>524.900024414</ele>
        <time>2015-08-11T09:44:01.533Z</time>
      </trkpt>
      <trkpt lat="45.98146" lon="4.58562">
        <ele>525.200012207</ele>
        <time>2015-08-11T09:44:02.435Z</time>
      </trkpt>
      <trkpt lat="45.98137" lon="4.5856">
        <ele>526</ele>
        <time>2015-08-11T09:44:06.503Z</time>
      </trkpt>
      <trkpt lat="45.98135" lon="4.5856">
        <ele>526.099975586</ele>
        <time>2015-08-11T09:44:07.442Z</time>
      </trkpt>
      <trkpt lat="45.98127" lon="4.58561">
        <ele>526.099975586</ele>
        <time>2015-08-11T09:44:11.476Z</time>
      </trkpt>
      <trkpt lat="45.98124" lon="4.58561">
        <ele>526</ele>
        <time>2015-08-11T09:44:12.445Z</time>
      </trkpt>
      <trkpt lat="45.98117" lon="4.58558">
        <ele>525.099975586</ele>
        <time>2015-08-11T09:44:16.47Z</time>
      </trkpt>
      <trkpt lat="45.98115" lon="4.58557">
        <ele>525.299987793</ele>
        <time>2015-08-11T09:44:17.476Z</time>
      </trkpt>
      <trkpt lat="45.98106" lon="4.58555">
        <ele>526.599975586</ele>
        <time>2015-08-11T09:44:20.547Z</time>
      </trkpt>
      <trkpt lat="45.98104" lon="4.58556">
        <ele>527.200012207</ele>
        <time>2015-08-11T09:44:21.458Z</time>
      </trkpt>
      <trkpt lat="45.98095" lon="4.58559">
        <ele>528.099975586</ele>
        <time>2015-08-11T09:44:24.554Z</time>
      </trkpt>
      <trkpt lat="45.98093" lon="4.58559">
        <ele>528.200012207</ele>
        <time>2015-08-11T09:44:25.441Z</time>
      </trkpt>
      <trkpt lat="45.98085" lon="4.58558">
        <ele>528.799987793</ele>
        <time>2015-08-11T09:44:28.47Z</time>
      </trkpt>
      <trkpt lat="45.98083" lon="4.58556">
        <ele>528.900024414</ele>
        <time>2015-08-11T09:44:29.439Z</time>
      </trkpt>
      <trkpt lat="45.98075" lon="4.58555">
        <ele>529.400024414</ele>
        <time>2015-08-11T09:44:33.491Z</time>
      </trkpt>
      <trkpt lat="45.98073" lon="4.58556">
        <ele>529.5</ele>
        <time>2015-08-11T09:44:34.425Z</time>
      </trkpt>
      <trkpt lat="45.98064" lon="4.58552">
        <ele>529.700012207</ele>
        <time>2015-08-11T09:44:39.473Z</time>
      </trkpt>
      <trkpt lat="45.98062" lon="4.58551">
        <ele>530.099975586</ele>
        <time>2015-08-11T09:44:40.443Z</time>
      </trkpt>
      <trkpt lat="45.98054" lon="4.5855">
        <ele>530.700012207</ele>
        <time>2015-08-11T09:44:44.498Z</time>
      </trkpt>
      <trkpt lat="45.98053" lon="4.5855">
        <ele>530.799987793</ele>
        <time>2015-08-11T09:44:45.437Z</time>
      </trkpt>
      <trkpt lat="45.98046" lon="4.58548">
        <ele>531</ele>
        <time>2015-08-11T09:44:50.479Z</time>
      </trkpt>
      <trkpt lat="45.98043" lon="4.58548">
        <ele>530.900024414</ele>
        <time>2015-08-11T09:44:51.444Z</time>
      </trkpt>
      <trkpt lat="45.98035" lon="4.58545">
        <ele>530.5</ele>
        <time>2015-08-11T09:44:54.57Z</time>
      </trkpt>
      <trkpt lat="45.98033" lon="4.58544">
        <ele>530.299987793</ele>
        <time>2015-08-11T09:44:55.441Z</time>
      </trkpt>
      <trkpt lat="45.98025" lon="4.58545">
        <ele>530.299987793</ele>
        <time>2015-08-11T09:44:59.469Z</time>
      </trkpt>
      <trkpt lat="45.98024" lon="4.58545">
        <ele>530.400024414</ele>
        <time>2015-08-11T09:45:00.456Z</time>
      </trkpt>
      <trkpt lat="45.98015" lon="4.58545">
        <ele>530.400024414</ele>
        <time>2015-08-11T09:45:06.473Z</time>
      </trkpt>
      <trkpt lat="45.98012" lon="4.58545">
        <ele>530.799987793</ele>
        <time>2015-08-11T09:45:07.441Z</time>
      </trkpt>
      <trkpt lat="45.98004" lon="4.58546">
        <ele>532</ele>
        <time>2015-08-11T09:45:11.468Z</time>
      </trkpt>
      <trkpt lat="45.98001" lon="4.58546">
        <ele>532.299987793</ele>
        <time>2015-08-11T09:45:12.437Z</time>
      </trkpt>
      <trkpt lat="45.97994" lon="4.58549">
        <ele>533.200012207</ele>
        <time>2015-08-11T09:45:15.474Z</time>
      </trkpt>
      <trkpt lat="45.97992" lon="4.58551">
        <ele>533.599975586</ele>
        <time>2015-08-11T09:45:16.437Z</time>
      </trkpt>
      <trkpt lat="45.97984" lon="4.5855">
        <ele>534.400024414</ele>
        <time>2015-08-11T09:45:19.545Z</time>
      </trkpt>
      <trkpt lat="45.97983" lon="4.58549">
        <ele>534.700012207</ele>
        <time>2015-08-11T09:45:20.443Z</time>
      </trkpt>
      <trkpt lat="45.97975" lon="4.5855">
        <ele>535.400024414</ele>
        <time>2015-08-11T09:45:24.498Z</time>
      </trkpt>
      <trkpt lat="45.97972" lon="4.58551">
        <ele>535.700012207</ele>
        <time>2015-08-11T09:45:25.463Z</time>
      </trkpt>
      <trkpt lat="45.97964" lon="4.58548">
        <ele>536.799987793</ele>
        <time>2015-08-11T09:45:29.471Z</time>
      </trkpt>
      <trkpt lat="45.97962" lon="4.58548">
        <ele>537</ele>
        <time>2015-08-11T09:45:30.456Z</time>
      </trkpt>
      <trkpt lat="45.97953" lon="4.58549">
        <ele>538.700012207</ele>
        <time>2015-08-11T09:45:34.498Z</time>
      </trkpt>
      <trkpt lat="45.97951" lon="4.58549">
        <ele>539.099975586</ele>
        <time>2015-08-11T09:45:35.442Z</time>
      </trkpt>
      <trkpt lat="45.97944" lon="4.58549">
        <ele>540</ele>
        <time>2015-08-11T09:45:38.469Z</time>
      </trkpt>
      <trkpt lat="45.97942" lon="4.58549">
        <ele>540.400024414</ele>
        <time>2015-08-11T09:45:39.439Z</time>
      </trkpt>
      <trkpt lat="45.97935" lon="4.58551">
        <ele>540.799987793</ele>
        <time>2015-08-11T09:45:42.479Z</time>
      </trkpt>
      <trkpt lat="45.97933" lon="4.58551">
        <ele>540.900024414</ele>
        <time>2015-08-11T09:45:43.442Z</time>
      </trkpt>
      <trkpt lat="45.97925" lon="4.58552">
        <ele>541.799987793</ele>
        <time>2015-08-11T09:45:46.486Z</time>
      </trkpt>
      <trkpt lat="45.97923" lon="4.58552">
        <ele>541.700012207</ele>
        <time>2015-08-11T09:45:47.437Z</time>
      </trkpt>
      <trkpt lat="45.97916" lon="4.58551">
        <ele>541.900024414</ele>
        <time>2015-08-11T09:45:50.478Z</time>
      </trkpt>
      <trkpt lat="45.97914" lon="4.58551">
        <ele>541.599975586</ele>
        <time>2015-08-11T09:45:51.436Z</time>
      </trkpt>
      <trkpt lat="45.97907" lon="4.58553">
        <ele>541.5</ele>
        <time>2015-08-11T09:45:54.489Z</time>
      </trkpt>
      <trkpt lat="45.97905" lon="4.58552">
        <ele>541.700012207</ele>
        <time>2015-08-11T09:45:55.436Z</time>
      </trkpt>
      <trkpt lat="45.97898" lon="4.5855">
        <ele>542.200012207</ele>
        <time>2015-08-11T09:45:58.478Z</time>
      </trkpt>
      <trkpt lat="45.97896" lon="4.5855">
        <ele>542.599975586</ele>
        <time>2015-08-11T09:45:59.437Z</time>
      </trkpt>
      <trkpt lat="45.97889" lon="4.58549">
        <ele>543.200012207</ele>
        <time>2015-08-11T09:46:02.474Z</time>
      </trkpt>
      <trkpt lat="45.97886" lon="4.58548">
        <ele>543.400024414</ele>
        <time>2015-08-11T09:46:03.438Z</time>
      </trkpt>
      <trkpt lat="45.9788" lon="4.5855">
        <ele>544.200012207</ele>
        <time>2015-08-11T09:46:06.471Z</time>
      </trkpt>
      <trkpt lat="45.97877" lon="4.5855">
        <ele>544.400024414</ele>
        <time>2015-08-11T09:46:07.428Z</time>
      </trkpt>
      <trkpt lat="45.9787" lon="4.58551">
        <ele>545.099975586</ele>
        <time>2015-08-11T09:46:10.471Z</time>
      </trkpt>
      <trkpt lat="45.97867" lon="4.58552">
        <ele>545.400024414</ele>
        <time>2015-08-11T09:46:11.436Z</time>
      </trkpt>
      <trkpt lat="45.97859" lon="4.58552">
        <ele>546.900024414</ele>
        <time>2015-08-11T09:46:15.482Z</time>
      </trkpt>
      <trkpt lat="45.97857" lon="4.58552">
        <ele>547.099975586</ele>
        <time>2015-08-11T09:46:16.436Z</time>
      </trkpt>
      <trkpt lat="45.97849" lon="4.58551">
        <ele>547.299987793</ele>
        <time>2015-08-11T09:46:19.476Z</time>
      </trkpt>
      <trkpt lat="45.97847" lon="4.5855">
        <ele>547.599975586</ele>
        <time>2015-08-11T09:46:20.469Z</time>
      </trkpt>
      <trkpt lat="45.97838" lon="4.58548">
        <ele>547.900024414</ele>
        <time>2015-08-11T09:46:24.703Z</time>
      </trkpt>
      <trkpt lat="45.97837" lon="4.58547">
        <ele>548.099975586</ele>
        <time>2015-08-11T09:46:25.58Z</time>
      </trkpt>
      <trkpt lat="45.97831" lon="4.58538">
        <ele>549.200012207</ele>
        <time>2015-08-11T09:46:30.633Z</time>
      </trkpt>
      <trkpt lat="45.97831" lon="4.58535">
        <ele>549.400024414</ele>
        <time>2015-08-11T09:46:31.445Z</time>
      </trkpt>
      <trkpt lat="45.97831" lon="4.58524">
        <ele>551.299987793</ele>
        <time>2015-08-11T09:46:34.48Z</time>
      </trkpt>
      <trkpt lat="45.9783" lon="4.58521">
        <ele>551.400024414</ele>
        <time>2015-08-11T09:46:35.435Z</time>
      </trkpt>
      <trkpt lat="45.97829" lon="4.5851">
        <ele>552.400024414</ele>
        <time>2015-08-11T09:46:38.471Z</time>
      </trkpt>
      <trkpt lat="45.97828" lon="4.58507">
        <ele>552.299987793</ele>
        <time>2015-08-11T09:46:39.437Z</time>
      </trkpt>
      <trkpt lat="45.97827" lon="4.58497">
        <ele>552.700012207</ele>
        <time>2015-08-11T09:46:42.504Z</time>
      </trkpt>
      <trkpt lat="45.97827" lon="4.58493">
        <ele>553.099975586</ele>
        <time>2015-08-11T09:46:43.478Z</time>
      </trkpt>
      <trkpt lat="45.97826" lon="4.58483">
        <ele>554.200012207</ele>
        <time>2015-08-11T09:46:46.468Z</time>
      </trkpt>
      <trkpt lat="45.97824" lon="4.5848">
        <ele>552.700012207</ele>
        <time>2015-08-11T09:46:47.436Z</time>
      </trkpt>
      <trkpt lat="45.97825" lon="4.58469">
        <ele>553.099975586</ele>
        <time>2015-08-11T09:46:50.496Z</time>
      </trkpt>
      <trkpt lat="45.97825" lon="4.58466">
        <ele>553.799987793</ele>
        <time>2015-08-11T09:46:51.443Z</time>
      </trkpt>
      <trkpt lat="45.97826" lon="4.58454">
        <ele>555.5</ele>
        <time>2015-08-11T09:46:55.475Z</time>
      </trkpt>
      <trkpt lat="45.97827" lon="4.58451">
        <ele>556.299987793</ele>
        <time>2015-08-11T09:46:56.457Z</time>
      </trkpt>
      <trkpt lat="45.97828" lon="4.58438">
        <ele>557.799987793</ele>
        <time>2015-08-11T09:47:00.469Z</time>
      </trkpt>
      <trkpt lat="45.97828" lon="4.58435">
        <ele>557.799987793</ele>
        <time>2015-08-11T09:47:01.448Z</time>
      </trkpt>
      <trkpt lat="45.9783" lon="4.58423">
        <ele>559.700012207</ele>
        <time>2015-08-11T09:47:04.47Z</time>
      </trkpt>
      <trkpt lat="45.9783" lon="4.5842">
        <ele>559.900024414</ele>
        <time>2015-08-11T09:47:05.438Z</time>
      </trkpt>
      <trkpt lat="45.97829" lon="4.5841">
        <ele>560.700012207</ele>
        <time>2015-08-11T09:47:08.472Z</time>
      </trkpt>
      <trkpt lat="45.97829" lon="4.58406">
        <ele>561.099975586</ele>
        <time>2015-08-11T09:47:09.44Z</time>
      </trkpt>
      <trkpt lat="45.97828" lon="4.58396">
        <ele>561.400024414</ele>
        <time>2015-08-11T09:47:12.51Z</time>
      </trkpt>
      <trkpt lat="45.97828" lon="4.58393">
        <ele>561.599975586</ele>
        <time>2015-08-11T09:47:13.441Z</time>
      </trkpt>
      <trkpt lat="45.97829" lon="4.58382">
        <ele>562.599975586</ele>
        <time>2015-08-11T09:47:16.468Z</time>
      </trkpt>
      <trkpt lat="45.97829" lon="4.58378">
        <ele>562.900024414</ele>
        <time>2015-08-11T09:47:17.437Z</time>
      </trkpt>
      <trkpt lat="45.97831" lon="4.58366">
        <ele>563.5</ele>
        <time>2015-08-11T09:47:20.472Z</time>
      </trkpt>
      <trkpt lat="45.97831" lon="4.58362">
        <ele>563.599975586</ele>
        <time>2015-08-11T09:47:21.439Z</time>
      </trkpt>
      <trkpt lat="45.97831" lon="4.58349">
        <ele>563.5</ele>
        <time>2015-08-11T09:47:24.471Z</time>
      </trkpt>
      <trkpt lat="45.9783" lon="4.58346">
        <ele>563.599975586</ele>
        <time>2015-08-11T09:47:25.428Z</time>
      </trkpt>
      <trkpt lat="45.97828" lon="4.5834">
        <ele>564.700012207</ele>
        <time>2015-08-11T09:47:27.48Z</time>
      </trkpt>
      <trkpt lat="45.97826" lon="4.58339">
        <ele>565.099975586</ele>
        <time>2015-08-11T09:47:28.436Z</time>
      </trkpt>
      <trkpt lat="45.97826" lon="4.58334">
        <ele>568.5</ele>
        <time>2015-08-11T09:48:52.474Z</time>
      </trkpt>
      <trkpt lat="45.97823" lon="4.58333">
        <ele>568.200012207</ele>
        <time>2015-08-11T09:48:53.437Z</time>
      </trkpt>
      <trkpt lat="45.97815" lon="4.58335">
        <ele>567.799987793</ele>
        <time>2015-08-11T09:49:02.537Z</time>
      </trkpt>
      <trkpt lat="45.97814" lon="4.58337">
        <ele>567.599975586</ele>
        <time>2015-08-11T09:49:03.438Z</time>
      </trkpt>
      <trkpt lat="45.9781" lon="4.58343">
        <ele>567.5</ele>
        <time>2015-08-11T09:49:05.469Z</time>
      </trkpt>
      <trkpt lat="45.97808" lon="4.58347">
        <ele>567.400024414</ele>
        <time>2015-08-11T09:49:06.478Z</time>
      </trkpt>
      <trkpt lat="45.97804" lon="4.58357">
        <ele>567.400024414</ele>
        <time>2015-08-11T09:49:08.474Z</time>
      </trkpt>
      <trkpt lat="45.97803" lon="4.58362">
        <ele>567.299987793</ele>
        <time>2015-08-11T09:49:09.437Z</time>
      </trkpt>
      <trkpt lat="45.978" lon="4.58373">
        <ele>567.099975586</ele>
        <time>2015-08-11T09:49:11.467Z</time>
      </trkpt>
      <trkpt lat="45.97797" lon="4.58379">
        <ele>567.200012207</ele>
        <time>2015-08-11T09:49:12.435Z</time>
      </trkpt>
      <trkpt lat="45.97793" lon="4.58389">
        <ele>567.099975586</ele>
        <time>2015-08-11T09:49:14.469Z</time>
      </trkpt>
      <trkpt lat="45.97791" lon="4.58394">
        <ele>567</ele>
        <time>2015-08-11T09:49:15.436Z</time>
      </trkpt>
      <trkpt lat="45.97788" lon="4.58404">
        <ele>566.799987793</ele>
        <time>2015-08-11T09:49:17.467Z</time>
      </trkpt>
      <trkpt lat="45.97786" lon="4.58409">
        <ele>566.799987793</ele>
        <time>2015-08-11T09:49:18.451Z</time>
      </trkpt>
      <trkpt lat="45.97784" lon="4.58414">
        <ele>566.5</ele>
        <time>2015-08-11T09:49:19.482Z</time>
      </trkpt>
      <trkpt lat="45.9778" lon="4.58419">
        <ele>566.400024414</ele>
        <time>2015-08-11T09:49:20.435Z</time>
      </trkpt>
      <trkpt lat="45.97775" lon="4.58429">
        <ele>566.200012207</ele>
        <time>2015-08-11T09:49:22.523Z</time>
      </trkpt>
      <trkpt lat="45.97773" lon="4.58435">
        <ele>565.900024414</ele>
        <time>2015-08-11T09:49:23.437Z</time>
      </trkpt>
      <trkpt lat="45.97771" lon="4.5844">
        <ele>565.799987793</ele>
        <time>2015-08-11T09:49:24.474Z</time>
      </trkpt>
      <trkpt lat="45.97769" lon="4.58446">
        <ele>565.799987793</ele>
        <time>2015-08-11T09:49:25.417Z</time>
      </trkpt>
      <trkpt lat="45.97766" lon="4.58452">
        <ele>565.5</ele>
        <time>2015-08-11T09:49:26.479Z</time>
      </trkpt>
      <trkpt lat="45.97763" lon="4.58457">
        <ele>565.299987793</ele>
        <time>2015-08-11T09:49:27.439Z</time>
      </trkpt>
      <trkpt lat="45.9776" lon="4.58462">
        <ele>565</ele>
        <time>2015-08-11T09:49:28.47Z</time>
      </trkpt>
      <trkpt lat="45.97757" lon="4.58467">
        <ele>564.599975586</ele>
        <time>2015-08-11T09:49:29.437Z</time>
      </trkpt>
      <trkpt lat="45.97754" lon="4.58472">
        <ele>564.299987793</ele>
        <time>2015-08-11T09:49:30.484Z</time>
      </trkpt>
      <trkpt lat="45.9775" lon="4.58477">
        <ele>563.599975586</ele>
        <time>2015-08-11T09:49:31.439Z</time>
      </trkpt>
      <trkpt lat="45.97746" lon="4.58482">
        <ele>562.900024414</ele>
        <time>2015-08-11T09:49:32.542Z</time>
      </trkpt>
      <trkpt lat="45.97742" lon="4.58487">
        <ele>562.400024414</ele>
        <time>2015-08-11T09:49:33.444Z</time>
      </trkpt>
      <trkpt lat="45.97739" lon="4.58493">
        <ele>562.200012207</ele>
        <time>2015-08-11T09:49:34.475Z</time>
      </trkpt>
      <trkpt lat="45.97736" lon="4.58497">
        <ele>561.599975586</ele>
        <time>2015-08-11T09:49:35.436Z</time>
      </trkpt>
      <trkpt lat="45.97733" lon="4.58502">
        <ele>561.5</ele>
        <time>2015-08-11T09:49:36.467Z</time>
      </trkpt>
      <trkpt lat="45.9773" lon="4.58507">
        <ele>561.099975586</ele>
        <time>2015-08-11T09:49:37.439Z</time>
      </trkpt>
      <trkpt lat="45.97724" lon="4.58515">
        <ele>560</ele>
        <time>2015-08-11T09:49:39.472Z</time>
      </trkpt>
      <trkpt lat="45.97722" lon="4.58518">
        <ele>559.599975586</ele>
        <time>2015-08-11T09:49:40.433Z</time>
      </trkpt>
      <trkpt lat="45.97721" lon="4.58519">
        <ele>559.299987793</ele>
        <time>2015-08-11T09:49:41.469Z</time>
      </trkpt>
      <trkpt lat="45.97721" lon="4.5852">
        <ele>559.099975586</ele>
        <time>2015-08-11T09:49:42.437Z</time>
      </trkpt>
      <trkpt lat="45.97722" lon="4.58519">
        <ele>559.200012207</ele>
        <time>2015-08-11T09:49:52.47Z</time>
      </trkpt>
      <trkpt lat="45.97721" lon="4.58518">
        <ele>558.799987793</ele>
        <time>2015-08-11T09:49:53.437Z</time>
      </trkpt>
      <trkpt lat="45.97717" lon="4.58529">
        <ele>558.700012207</ele>
        <time>2015-08-11T09:49:58.479Z</time>
      </trkpt>
      <trkpt lat="45.97714" lon="4.58533">
        <ele>558.700012207</ele>
        <time>2015-08-11T09:49:59.442Z</time>
      </trkpt>
      <trkpt lat="45.97709" lon="4.58541">
        <ele>558.799987793</ele>
        <time>2015-08-11T09:50:01.47Z</time>
      </trkpt>
      <trkpt lat="45.97706" lon="4.58545">
        <ele>559</ele>
        <time>2015-08-11T09:50:02.437Z</time>
      </trkpt>
      <trkpt lat="45.97702" lon="4.58549">
        <ele>559.099975586</ele>
        <time>2015-08-11T09:50:03.468Z</time>
      </trkpt>
      <trkpt lat="45.97698" lon="4.58554">
        <ele>559.099975586</ele>
        <time>2015-08-11T09:50:04.449Z</time>
      </trkpt>
      <trkpt lat="45.97695" lon="4.58559">
        <ele>559.400024414</ele>
        <time>2015-08-11T09:50:05.469Z</time>
      </trkpt>
      <trkpt lat="45.97691" lon="4.58562">
        <ele>559.5</ele>
        <time>2015-08-11T09:50:06.435Z</time>
      </trkpt>
      <trkpt lat="45.97688" lon="4.58568">
        <ele>559.599975586</ele>
        <time>2015-08-11T09:50:07.47Z</time>
      </trkpt>
      <trkpt lat="45.97685" lon="4.58573">
        <ele>559.799987793</ele>
        <time>2015-08-11T09:50:08.437Z</time>
      </trkpt>
      <trkpt lat="45.97683" lon="4.58579">
        <ele>559.900024414</ele>
        <time>2015-08-11T09:50:09.468Z</time>
      </trkpt>
      <trkpt lat="45.9768" lon="4.58585">
        <ele>560</ele>
        <time>2015-08-11T09:50:10.432Z</time>
      </trkpt>
      <trkpt lat="45.97678" lon="4.58592">
        <ele>559.900024414</ele>
        <time>2015-08-11T09:50:11.476Z</time>
      </trkpt>
      <trkpt lat="45.97676" lon="4.58598">
        <ele>559.900024414</ele>
        <time>2015-08-11T09:50:12.425Z</time>
      </trkpt>
      <trkpt lat="45.97675" lon="4.58604">
        <ele>559.799987793</ele>
        <time>2015-08-11T09:50:13.492Z</time>
      </trkpt>
      <trkpt lat="45.97672" lon="4.5861">
        <ele>559.700012207</ele>
        <time>2015-08-11T09:50:14.437Z</time>
      </trkpt>
      <trkpt lat="45.9767" lon="4.58616">
        <ele>559.5</ele>
        <time>2015-08-11T09:50:15.479Z</time>
      </trkpt>
      <trkpt lat="45.97668" lon="4.58624">
        <ele>559.099975586</ele>
        <time>2015-08-11T09:50:16.435Z</time>
      </trkpt>
      <trkpt lat="45.97666" lon="4.58631">
        <ele>558.799987793</ele>
        <time>2015-08-11T09:50:17.483Z</time>
      </trkpt>
      <trkpt lat="45.97664" lon="4.58638">
        <ele>558.700012207</ele>
        <time>2015-08-11T09:50:18.437Z</time>
      </trkpt>
      <trkpt lat="45.97661" lon="4.58645">
        <ele>558.599975586</ele>
        <time>2015-08-11T09:50:19.493Z</time>
      </trkpt>
      <trkpt lat="45.97658" lon="4.58652">
        <ele>558.599975586</ele>
        <time>2015-08-11T09:50:20.437Z</time>
      </trkpt>
      <trkpt lat="45.97654" lon="4.58659">
        <ele>558.099975586</ele>
        <time>2015-08-11T09:50:21.472Z</time>
      </trkpt>
      <trkpt lat="45.97651" lon="4.58666">
        <ele>557.900024414</ele>
        <time>2015-08-11T09:50:22.422Z</time>
      </trkpt>
      <trkpt lat="45.97648" lon="4.58673">
        <ele>557.799987793</ele>
        <time>2015-08-11T09:50:23.469Z</time>
      </trkpt>
      <trkpt lat="45.97644" lon="4.5868">
        <ele>557.700012207</ele>
        <time>2015-08-11T09:50:24.437Z</time>
      </trkpt>
      <trkpt lat="45.9764" lon="4.58687">
        <ele>557.599975586</ele>
        <time>2015-08-11T09:50:25.554Z</time>
      </trkpt>
      <trkpt lat="45.97636" lon="4.58693">
        <ele>557.400024414</ele>
        <time>2015-08-11T09:50:26.438Z</time>
      </trkpt>
      <trkpt lat="45.97632" lon="4.58699">
        <ele>557.099975586</ele>
        <time>2015-08-11T09:50:27.471Z</time>
      </trkpt>
      <trkpt lat="45.97627" lon="4.58705">
        <ele>556.900024414</ele>
        <time>2015-08-11T09:50:28.437Z</time>
      </trkpt>
      <trkpt lat="45.97623" lon="4.58711">
        <ele>556.700012207</ele>
        <time>2015-08-11T09:50:29.468Z</time>
      </trkpt>
      <trkpt lat="45.97619" lon="4.58717">
        <ele>556.599975586</ele>
        <time>2015-08-11T09:50:30.435Z</time>
      </trkpt>
      <trkpt lat="45.97615" lon="4.58723">
        <ele>556.400024414</ele>
        <time>2015-08-11T09:50:31.474Z</time>
      </trkpt>
      <trkpt lat="45.97611" lon="4.58728">
        <ele>556.299987793</ele>
        <time>2015-08-11T09:50:32.435Z</time>
      </trkpt>
      <trkpt lat="45.97606" lon="4.58733">
        <ele>556.200012207</ele>
        <time>2015-08-11T09:50:33.468Z</time>
      </trkpt>
      <trkpt lat="45.97602" lon="4.58739">
        <ele>556.200012207</ele>
        <time>2015-08-11T09:50:34.437Z</time>
      </trkpt>
      <trkpt lat="45.97597" lon="4.58746">
        <ele>555.900024414</ele>
        <time>2015-08-11T09:50:35.507Z</time>
      </trkpt>
      <trkpt lat="45.97592" lon="4.58749">
        <ele>555.900024414</ele>
        <time>2015-08-11T09:50:36.437Z</time>
      </trkpt>
      <trkpt lat="45.97586" lon="4.58753">
        <ele>555.5</ele>
        <time>2015-08-11T09:50:37.491Z</time>
      </trkpt>
      <trkpt lat="45.97581" lon="4.58758">
        <ele>555.299987793</ele>
        <time>2015-08-11T09:50:38.423Z</time>
      </trkpt>
      <trkpt lat="45.97575" lon="4.58761">
        <ele>555</ele>
        <time>2015-08-11T09:50:39.468Z</time>
      </trkpt>
      <trkpt lat="45.97569" lon="4.58765">
        <ele>554.599975586</ele>
        <time>2015-08-11T09:50:40.422Z</time>
      </trkpt>
      <trkpt lat="45.97563" lon="4.58768">
        <ele>554.200012207</ele>
        <time>2015-08-11T09:50:41.47Z</time>
      </trkpt>
      <trkpt lat="45.97557" lon="4.5877">
        <ele>554.099975586</ele>
        <time>2015-08-11T09:50:42.435Z</time>
      </trkpt>
      <trkpt lat="45.97551" lon="4.58773">
        <ele>553.900024414</ele>
        <time>2015-08-11T09:50:43.489Z</time>
      </trkpt>
      <trkpt lat="45.97544" lon="4.58777">
        <ele>553.5</ele>
        <time>2015-08-11T09:50:44.437Z</time>
      </trkpt>
      <trkpt lat="45.97538" lon="4.58781">
        <ele>553</ele>
        <time>2015-08-11T09:50:45.472Z</time>
      </trkpt>
      <trkpt lat="45.97531" lon="4.58784">
        <ele>552.700012207</ele>
        <time>2015-08-11T09:50:46.437Z</time>
      </trkpt>
      <trkpt lat="45.97524" lon="4.58788">
        <ele>552.299987793</ele>
        <time>2015-08-11T09:50:47.47Z</time>
      </trkpt>
      <trkpt lat="45.97517" lon="4.58792">
        <ele>551.900024414</ele>
        <time>2015-08-11T09:50:48.423Z</time>
      </trkpt>
      <trkpt lat="45.9751" lon="4.58795">
        <ele>551.400024414</ele>
        <time>2015-08-11T09:50:49.474Z</time>
      </trkpt>
      <trkpt lat="45.97503" lon="4.58801">
        <ele>550.5</ele>
        <time>2015-08-11T09:50:50.437Z</time>
      </trkpt>
      <trkpt lat="45.97496" lon="4.58805">
        <ele>550.5</ele>
        <time>2015-08-11T09:50:51.533Z</time>
      </trkpt>
      <trkpt lat="45.97489" lon="4.58808">
        <ele>550.299987793</ele>
        <time>2015-08-11T09:50:52.437Z</time>
      </trkpt>
      <trkpt lat="45.97482" lon="4.58813">
        <ele>549.900024414</ele>
        <time>2015-08-11T09:50:53.469Z</time>
      </trkpt>
      <trkpt lat="45.97475" lon="4.58817">
        <ele>549.5</ele>
        <time>2015-08-11T09:50:54.435Z</time>
      </trkpt>
      <trkpt lat="45.97468" lon="4.58822">
        <ele>549.099975586</ele>
        <time>2015-08-11T09:50:55.473Z</time>
      </trkpt>
      <trkpt lat="45.97461" lon="4.58829">
        <ele>549.099975586</ele>
        <time>2015-08-11T09:50:56.435Z</time>
      </trkpt>
      <trkpt lat="45.97456" lon="4.58836">
        <ele>548.900024414</ele>
        <time>2015-08-11T09:50:57.473Z</time>
      </trkpt>
      <trkpt lat="45.97452" lon="4.58843">
        <ele>548.5</ele>
        <time>2015-08-11T09:50:58.436Z</time>
      </trkpt>
      <trkpt lat="45.97448" lon="4.58852">
        <ele>548.200012207</ele>
        <time>2015-08-11T09:50:59.477Z</time>
      </trkpt>
      <trkpt lat="45.97445" lon="4.5886">
        <ele>548</ele>
        <time>2015-08-11T09:51:00.43Z</time>
      </trkpt>
      <trkpt lat="45.97443" lon="4.58868">
        <ele>547.799987793</ele>
        <time>2015-08-11T09:51:01.468Z</time>
      </trkpt>
      <trkpt lat="45.97441" lon="4.58876">
        <ele>547.599975586</ele>
        <time>2015-08-11T09:51:02.435Z</time>
      </trkpt>
      <trkpt lat="45.97439" lon="4.58883">
        <ele>547.5</ele>
        <time>2015-08-11T09:51:03.502Z</time>
      </trkpt>
      <trkpt lat="45.97438" lon="4.5889">
        <ele>547.200012207</ele>
        <time>2015-08-11T09:51:04.423Z</time>
      </trkpt>
      <trkpt lat="45.97437" lon="4.58898">
        <ele>547</ele>
        <time>2015-08-11T09:51:05.477Z</time>
      </trkpt>
      <trkpt lat="45.97435" lon="4.58904">
        <ele>546.799987793</ele>
        <time>2015-08-11T09:51:06.436Z</time>
      </trkpt>
      <trkpt lat="45.97433" lon="4.5891">
        <ele>546.5</ele>
        <time>2015-08-11T09:51:07.484Z</time>
      </trkpt>
      <trkpt lat="45.97432" lon="4.58918">
        <ele>546.5</ele>
        <time>2015-08-11T09:51:08.436Z</time>
      </trkpt>
      <trkpt lat="45.9743" lon="4.58925">
        <ele>546.5</ele>
        <time>2015-08-11T09:51:09.486Z</time>
      </trkpt>
      <trkpt lat="45.97428" lon="4.58933">
        <ele>546.599975586</ele>
        <time>2015-08-11T09:51:10.438Z</time>
      </trkpt>
      <trkpt lat="45.97427" lon="4.5894">
        <ele>546.5</ele>
        <time>2015-08-11T09:51:11.473Z</time>
      </trkpt>
      <trkpt lat="45.97426" lon="4.58947">
        <ele>546.200012207</ele>
        <time>2015-08-11T09:51:12.436Z</time>
      </trkpt>
      <trkpt lat="45.97424" lon="4.58954">
        <ele>545.900024414</ele>
        <time>2015-08-11T09:51:13.476Z</time>
      </trkpt>
      <trkpt lat="45.97423" lon="4.58961">
        <ele>545.900024414</ele>
        <time>2015-08-11T09:51:14.437Z</time>
      </trkpt>
      <trkpt lat="45.97422" lon="4.58969">
        <ele>545.799987793</ele>
        <time>2015-08-11T09:51:15.49Z</time>
      </trkpt>
      <trkpt lat="45.97421" lon="4.58976">
        <ele>545.799987793</ele>
        <time>2015-08-11T09:51:16.436Z</time>
      </trkpt>
      <trkpt lat="45.9742" lon="4.58983">
        <ele>545.700012207</ele>
        <time>2015-08-11T09:51:17.554Z</time>
      </trkpt>
      <trkpt lat="45.97418" lon="4.5899">
        <ele>546.200012207</ele>
        <time>2015-08-11T09:51:18.438Z</time>
      </trkpt>
      <trkpt lat="45.97416" lon="4.58997">
        <ele>546.5</ele>
        <time>2015-08-11T09:51:19.468Z</time>
      </trkpt>
      <trkpt lat="45.97414" lon="4.59004">
        <ele>546.599975586</ele>
        <time>2015-08-11T09:51:20.433Z</time>
      </trkpt>
      <trkpt lat="45.97413" lon="4.5901">
        <ele>546.599975586</ele>
        <time>2015-08-11T09:51:21.513Z</time>
      </trkpt>
      <trkpt lat="45.9741" lon="4.59016">
        <ele>546.599975586</ele>
        <time>2015-08-11T09:51:22.435Z</time>
      </trkpt>
      <trkpt lat="45.97409" lon="4.59023">
        <ele>546.599975586</ele>
        <time>2015-08-11T09:51:23.475Z</time>
      </trkpt>
      <trkpt lat="45.97407" lon="4.5903">
        <ele>546.799987793</ele>
        <time>2015-08-11T09:51:24.435Z</time>
      </trkpt>
      <trkpt lat="45.97406" lon="4.59037">
        <ele>546.700012207</ele>
        <time>2015-08-11T09:51:25.491Z</time>
      </trkpt>
      <trkpt lat="45.97404" lon="4.59044">
        <ele>546.799987793</ele>
        <time>2015-08-11T09:51:26.463Z</time>
      </trkpt>
      <trkpt lat="45.97402" lon="4.5905">
        <ele>547.099975586</ele>
        <time>2015-08-11T09:51:27.469Z</time>
      </trkpt>
      <trkpt lat="45.97399" lon="4.59056">
        <ele>547.400024414</ele>
        <time>2015-08-11T09:51:28.437Z</time>
      </trkpt>
      <trkpt lat="45.97397" lon="4.59062">
        <ele>547.599975586</ele>
        <time>2015-08-11T09:51:29.47Z</time>
      </trkpt>
      <trkpt lat="45.97395" lon="4.59069">
        <ele>547.700012207</ele>
        <time>2015-08-11T09:51:30.416Z</time>
      </trkpt>
      <trkpt lat="45.97393" lon="4.59075">
        <ele>547.900024414</ele>
        <time>2015-08-11T09:51:31.49Z</time>
      </trkpt>
      <trkpt lat="45.97391" lon="4.59081">
        <ele>548</ele>
        <time>2015-08-11T09:51:32.423Z</time>
      </trkpt>
      <trkpt lat="45.97389" lon="4.59087">
        <ele>548.099975586</ele>
        <time>2015-08-11T09:51:33.466Z</time>
      </trkpt>
      <trkpt lat="45.97386" lon="4.59093">
        <ele>548.099975586</ele>
        <time>2015-08-11T09:51:34.436Z</time>
      </trkpt>
      <trkpt lat="45.97384" lon="4.59099">
        <ele>548.299987793</ele>
        <time>2015-08-11T09:51:35.533Z</time>
      </trkpt>
      <trkpt lat="45.97381" lon="4.59105">
        <ele>548.5</ele>
        <time>2015-08-11T09:51:36.436Z</time>
      </trkpt>
      <trkpt lat="45.97376" lon="4.59115">
        <ele>548.599975586</ele>
        <time>2015-08-11T09:51:38.466Z</time>
      </trkpt>
      <trkpt lat="45.97373" lon="4.59121">
        <ele>548.799987793</ele>
        <time>2015-08-11T09:51:39.432Z</time>
      </trkpt>
      <trkpt lat="45.9737" lon="4.59127">
        <ele>548.900024414</ele>
        <time>2015-08-11T09:51:40.47Z</time>
      </trkpt>
      <trkpt lat="45.97368" lon="4.59132">
        <ele>549.299987793</ele>
        <time>2015-08-11T09:51:41.432Z</time>
      </trkpt>
      <trkpt lat="45.97365" lon="4.59138">
        <ele>549.5</ele>
        <time>2015-08-11T09:51:42.473Z</time>
      </trkpt>
      <trkpt lat="45.97362" lon="4.59144">
        <ele>549.599975586</ele>
        <time>2015-08-11T09:51:43.439Z</time>
      </trkpt>
      <trkpt lat="45.97359" lon="4.5915">
        <ele>549.799987793</ele>
        <time>2015-08-11T09:51:44.529Z</time>
      </trkpt>
      <trkpt lat="45.97356" lon="4.59155">
        <ele>550</ele>
        <time>2015-08-11T09:51:45.436Z</time>
      </trkpt>
      <trkpt lat="45.97351" lon="4.59165">
        <ele>550.700012207</ele>
        <time>2015-08-11T09:51:47.47Z</time>
      </trkpt>
      <trkpt lat="45.97349" lon="4.59171">
        <ele>551</ele>
        <time>2015-08-11T09:51:48.442Z</time>
      </trkpt>
      <trkpt lat="45.97344" lon="4.59181">
        <ele>551.599975586</ele>
        <time>2015-08-11T09:51:50.466Z</time>
      </trkpt>
      <trkpt lat="45.97341" lon="4.59186">
        <ele>551.700012207</ele>
        <time>2015-08-11T09:51:51.437Z</time>
      </trkpt>
      <trkpt lat="45.97336" lon="4.59195">
        <ele>552.200012207</ele>
        <time>2015-08-11T09:51:53.528Z</time>
      </trkpt>
      <trkpt lat="45.97333" lon="4.592">
        <ele>552.299987793</ele>
        <time>2015-08-11T09:51:54.437Z</time>
      </trkpt>
      <trkpt lat="45.9733" lon="4.59206">
        <ele>552.299987793</ele>
        <time>2015-08-11T09:51:55.473Z</time>
      </trkpt>
      <trkpt lat="45.97327" lon="4.59212">
        <ele>552.5</ele>
        <time>2015-08-11T09:51:56.435Z</time>
      </trkpt>
      <trkpt lat="45.97323" lon="4.59218">
        <ele>552.700012207</ele>
        <time>2015-08-11T09:51:57.514Z</time>
      </trkpt>
      <trkpt lat="45.9732" lon="4.59225">
        <ele>553</ele>
        <time>2015-08-11T09:51:58.435Z</time>
      </trkpt>
      <trkpt lat="45.97317" lon="4.59231">
        <ele>553.200012207</ele>
        <time>2015-08-11T09:51:59.474Z</time>
      </trkpt>
      <trkpt lat="45.97314" lon="4.59237">
        <ele>553.400024414</ele>
        <time>2015-08-11T09:52:00.425Z</time>
      </trkpt>
      <trkpt lat="45.97311" lon="4.59243">
        <ele>553.599975586</ele>
        <time>2015-08-11T09:52:01.472Z</time>
      </trkpt>
      <trkpt lat="45.97308" lon="4.59249">
        <ele>553.799987793</ele>
        <time>2015-08-11T09:52:02.435Z</time>
      </trkpt>
      <trkpt lat="45.97306" lon="4.59255">
        <ele>554</ele>
        <time>2015-08-11T09:52:03.469Z</time>
      </trkpt>
      <trkpt lat="45.97303" lon="4.59261">
        <ele>554.200012207</ele>
        <time>2015-08-11T09:52:04.437Z</time>
      </trkpt>
      <trkpt lat="45.97301" lon="4.59267">
        <ele>554.299987793</ele>
        <time>2015-08-11T09:52:05.471Z</time>
      </trkpt>
      <trkpt lat="45.97299" lon="4.59275">
        <ele>554.400024414</ele>
        <time>2015-08-11T09:52:06.435Z</time>
      </trkpt>
      <trkpt lat="45.97297" lon="4.59282">
        <ele>554.599975586</ele>
        <time>2015-08-11T09:52:07.487Z</time>
      </trkpt>
      <trkpt lat="45.97295" lon="4.59289">
        <ele>554.799987793</ele>
        <time>2015-08-11T09:52:08.436Z</time>
      </trkpt>
      <trkpt lat="45.97293" lon="4.59296">
        <ele>554.799987793</ele>
        <time>2015-08-11T09:52:09.473Z</time>
      </trkpt>
      <trkpt lat="45.9729" lon="4.59303">
        <ele>555</ele>
        <time>2015-08-11T09:52:10.475Z</time>
      </trkpt>
      <trkpt lat="45.97288" lon="4.5931">
        <ele>555</ele>
        <time>2015-08-11T09:52:11.465Z</time>
      </trkpt>
      <trkpt lat="45.97286" lon="4.59317">
        <ele>555.099975586</ele>
        <time>2015-08-11T09:52:12.434Z</time>
      </trkpt>
      <trkpt lat="45.97285" lon="4.59325">
        <ele>555.200012207</ele>
        <time>2015-08-11T09:52:13.473Z</time>
      </trkpt>
      <trkpt lat="45.97285" lon="4.59334">
        <ele>555.099975586</ele>
        <time>2015-08-11T09:52:14.435Z</time>
      </trkpt>
      <trkpt lat="45.97282" lon="4.59342">
        <ele>555</ele>
        <time>2015-08-11T09:52:15.468Z</time>
      </trkpt>
      <trkpt lat="45.9728" lon="4.59351">
        <ele>554.799987793</ele>
        <time>2015-08-11T09:52:16.433Z</time>
      </trkpt>
      <trkpt lat="45.97277" lon="4.59358">
        <ele>554.5</ele>
        <time>2015-08-11T09:52:17.47Z</time>
      </trkpt>
      <trkpt lat="45.97275" lon="4.59366">
        <ele>554.200012207</ele>
        <time>2015-08-11T09:52:18.435Z</time>
      </trkpt>
      <trkpt lat="45.97272" lon="4.59374">
        <ele>554.099975586</ele>
        <time>2015-08-11T09:52:19.468Z</time>
      </trkpt>
      <trkpt lat="45.97268" lon="4.59382">
        <ele>554.200012207</ele>
        <time>2015-08-11T09:52:20.422Z</time>
      </trkpt>
      <trkpt lat="45.97264" lon="4.59389">
        <ele>554</ele>
        <time>2015-08-11T09:52:21.467Z</time>
      </trkpt>
      <trkpt lat="45.97259" lon="4.59394">
        <ele>554.099975586</ele>
        <time>2015-08-11T09:52:22.435Z</time>
      </trkpt>
      <trkpt lat="45.97255" lon="4.59399">
        <ele>553.799987793</ele>
        <time>2015-08-11T09:52:23.47Z</time>
      </trkpt>
      <trkpt lat="45.97249" lon="4.59403">
        <ele>553.400024414</ele>
        <time>2015-08-11T09:52:24.418Z</time>
      </trkpt>
      <trkpt lat="45.97242" lon="4.59406">
        <ele>553.299987793</ele>
        <time>2015-08-11T09:52:25.494Z</time>
      </trkpt>
      <trkpt lat="45.97236" lon="4.59409">
        <ele>553.200012207</ele>
        <time>2015-08-11T09:52:26.433Z</time>
      </trkpt>
      <trkpt lat="45.97229" lon="4.5941">
        <ele>553.099975586</ele>
        <time>2015-08-11T09:52:27.523Z</time>
      </trkpt>
      <trkpt lat="45.97222" lon="4.59412">
        <ele>553</ele>
        <time>2015-08-11T09:52:28.437Z</time>
      </trkpt>
      <trkpt lat="45.97215" lon="4.59413">
        <ele>552.799987793</ele>
        <time>2015-08-11T09:52:29.478Z</time>
      </trkpt>
      <trkpt lat="45.97207" lon="4.59415">
        <ele>552.700012207</ele>
        <time>2015-08-11T09:52:30.435Z</time>
      </trkpt>
      <trkpt lat="45.972" lon="4.59417">
        <ele>552.099975586</ele>
        <time>2015-08-11T09:52:31.475Z</time>
      </trkpt>
      <trkpt lat="45.97191" lon="4.59418">
        <ele>551.700012207</ele>
        <time>2015-08-11T09:52:32.431Z</time>
      </trkpt>
      <trkpt lat="45.97191" lon="4.59418">
        <ele>551.700012207</ele>
        <time>2015-08-11T09:52:32.482Z</time>
      </trkpt>
      <trkpt lat="45.97182" lon="4.5942">
        <ele>551.200012207</ele>
        <time>2015-08-11T09:52:33.438Z</time>
      </trkpt>
      <trkpt lat="45.97182" lon="4.5942">
        <ele>551.200012207</ele>
        <time>2015-08-11T09:52:33.469Z</time>
      </trkpt>
      <trkpt lat="45.97172" lon="4.59422">
        <ele>550.599975586</ele>
        <time>2015-08-11T09:52:34.436Z</time>
      </trkpt>
      <trkpt lat="45.97172" lon="4.59422">
        <ele>550.599975586</ele>
        <time>2015-08-11T09:52:34.479Z</time>
      </trkpt>
      <trkpt lat="45.97162" lon="4.59424">
        <ele>550</ele>
        <time>2015-08-11T09:52:35.442Z</time>
      </trkpt>
      <trkpt lat="45.97162" lon="4.59424">
        <ele>550</ele>
        <time>2015-08-11T09:52:35.475Z</time>
      </trkpt>
      <trkpt lat="45.97152" lon="4.59426">
        <ele>549.5</ele>
        <time>2015-08-11T09:52:36.422Z</time>
      </trkpt>
      <trkpt lat="45.97152" lon="4.59426">
        <ele>549.5</ele>
        <time>2015-08-11T09:52:36.501Z</time>
      </trkpt>
      <trkpt lat="45.97141" lon="4.59426">
        <ele>549.299987793</ele>
        <time>2015-08-11T09:52:37.444Z</time>
      </trkpt>
      <trkpt lat="45.97141" lon="4.59426">
        <ele>549.299987793</ele>
        <time>2015-08-11T09:52:37.478Z</time>
      </trkpt>
      <trkpt lat="45.97131" lon="4.59427">
        <ele>548.599975586</ele>
        <time>2015-08-11T09:52:38.471Z</time>
      </trkpt>
      <trkpt lat="45.97131" lon="4.59427">
        <ele>548.599975586</ele>
        <time>2015-08-11T09:52:38.508Z</time>
      </trkpt>
      <trkpt lat="45.97121" lon="4.59429">
        <ele>548</ele>
        <time>2015-08-11T09:52:39.428Z</time>
      </trkpt>
      <trkpt lat="45.97121" lon="4.59429">
        <ele>548</ele>
        <time>2015-08-11T09:52:39.506Z</time>
      </trkpt>
      <trkpt lat="45.9711" lon="4.59432">
        <ele>547.400024414</ele>
        <time>2015-08-11T09:52:40.435Z</time>
      </trkpt>
      <trkpt lat="45.9711" lon="4.59432">
        <ele>547.400024414</ele>
        <time>2015-08-11T09:52:40.501Z</time>
      </trkpt>
      <trkpt lat="45.97098" lon="4.59434">
        <ele>546.799987793</ele>
        <time>2015-08-11T09:52:41.434Z</time>
      </trkpt>
      <trkpt lat="45.97098" lon="4.59434">
        <ele>546.799987793</ele>
        <time>2015-08-11T09:52:41.502Z</time>
      </trkpt>
      <trkpt lat="45.97087" lon="4.59438">
        <ele>546.099975586</ele>
        <time>2015-08-11T09:52:42.438Z</time>
      </trkpt>
      <trkpt lat="45.97087" lon="4.59438">
        <ele>546.099975586</ele>
        <time>2015-08-11T09:52:42.483Z</time>
      </trkpt>
      <trkpt lat="45.97075" lon="4.59443">
        <ele>545.299987793</ele>
        <time>2015-08-11T09:52:43.441Z</time>
      </trkpt>
      <trkpt lat="45.97075" lon="4.59443">
        <ele>545.299987793</ele>
        <time>2015-08-11T09:52:43.633Z</time>
      </trkpt>
      <trkpt lat="45.97064" lon="4.5945">
        <ele>544.400024414</ele>
        <time>2015-08-11T09:52:44.449Z</time>
      </trkpt>
      <trkpt lat="45.97064" lon="4.5945">
        <ele>544.400024414</ele>
        <time>2015-08-11T09:52:44.486Z</time>
      </trkpt>
      <trkpt lat="45.97054" lon="4.59458">
        <ele>543.5</ele>
        <time>2015-08-11T09:52:45.451Z</time>
      </trkpt>
      <trkpt lat="45.97054" lon="4.59458">
        <ele>543.5</ele>
        <time>2015-08-11T09:52:45.509Z</time>
      </trkpt>
      <trkpt lat="45.97045" lon="4.59468">
        <ele>542.799987793</ele>
        <time>2015-08-11T09:52:46.447Z</time>
      </trkpt>
      <trkpt lat="45.97045" lon="4.59468">
        <ele>542.799987793</ele>
        <time>2015-08-11T09:52:46.509Z</time>
      </trkpt>
      <trkpt lat="45.97038" lon="4.59482">
        <ele>542.200012207</ele>
        <time>2015-08-11T09:52:47.448Z</time>
      </trkpt>
      <trkpt lat="45.97038" lon="4.59482">
        <ele>542.200012207</ele>
        <time>2015-08-11T09:52:47.496Z</time>
      </trkpt>
      <trkpt lat="45.97031" lon="4.59497">
        <ele>541.700012207</ele>
        <time>2015-08-11T09:52:48.468Z</time>
      </trkpt>
      <trkpt lat="45.97031" lon="4.59497">
        <ele>541.700012207</ele>
        <time>2015-08-11T09:52:48.515Z</time>
      </trkpt>
      <trkpt lat="45.97024" lon="4.59512">
        <ele>541.099975586</ele>
        <time>2015-08-11T09:52:49.43Z</time>
      </trkpt>
      <trkpt lat="45.97024" lon="4.59512">
        <ele>541.099975586</ele>
        <time>2015-08-11T09:52:49.546Z</time>
      </trkpt>
      <trkpt lat="45.97018" lon="4.59527">
        <ele>540.599975586</ele>
        <time>2015-08-11T09:52:50.444Z</time>
      </trkpt>
      <trkpt lat="45.97018" lon="4.59527">
        <ele>540.599975586</ele>
        <time>2015-08-11T09:52:50.498Z</time>
      </trkpt>
      <trkpt lat="45.9701" lon="4.59541">
        <ele>540.099975586</ele>
        <time>2015-08-11T09:52:51.436Z</time>
      </trkpt>
      <trkpt lat="45.9701" lon="4.59541">
        <ele>540.099975586</ele>
        <time>2015-08-11T09:52:51.643Z</time>
      </trkpt>
      <trkpt lat="45.97003" lon="4.59555">
        <ele>539.5</ele>
        <time>2015-08-11T09:52:52.441Z</time>
      </trkpt>
      <trkpt lat="45.97003" lon="4.59555">
        <ele>539.5</ele>
        <time>2015-08-11T09:52:52.489Z</time>
      </trkpt>
      <trkpt lat="45.96996" lon="4.59567">
        <ele>539</ele>
        <time>2015-08-11T09:52:53.444Z</time>
      </trkpt>
      <trkpt lat="45.96996" lon="4.59567">
        <ele>539</ele>
        <time>2015-08-11T09:52:53.49Z</time>
      </trkpt>
      <trkpt lat="45.9699" lon="4.59582">
        <ele>538</ele>
        <time>2015-08-11T09:52:54.426Z</time>
      </trkpt>
      <trkpt lat="45.9699" lon="4.59582">
        <ele>538</ele>
        <time>2015-08-11T09:52:54.542Z</time>
      </trkpt>
      <trkpt lat="45.96986" lon="4.59598">
        <ele>537.200012207</ele>
        <time>2015-08-11T09:52:55.449Z</time>
      </trkpt>
      <trkpt lat="45.96986" lon="4.59598">
        <ele>537.200012207</ele>
        <time>2015-08-11T09:52:55.503Z</time>
      </trkpt>
      <trkpt lat="45.96983" lon="4.59613">
        <ele>536.400024414</ele>
        <time>2015-08-11T09:52:56.445Z</time>
      </trkpt>
      <trkpt lat="45.96983" lon="4.59613">
        <ele>536.400024414</ele>
        <time>2015-08-11T09:52:56.489Z</time>
      </trkpt>
      <trkpt lat="45.96984" lon="4.59629">
        <ele>535.5</ele>
        <time>2015-08-11T09:52:57.445Z</time>
      </trkpt>
      <trkpt lat="45.96984" lon="4.59629">
        <ele>535.5</ele>
        <time>2015-08-11T09:52:57.478Z</time>
      </trkpt>
      <trkpt lat="45.96986" lon="4.59646">
        <ele>534.900024414</ele>
        <time>2015-08-11T09:52:58.438Z</time>
      </trkpt>
      <trkpt lat="45.96986" lon="4.59646">
        <ele>534.900024414</ele>
        <time>2015-08-11T09:52:58.492Z</time>
      </trkpt>
      <trkpt lat="45.96988" lon="4.59663">
        <ele>534.200012207</ele>
        <time>2015-08-11T09:52:59.435Z</time>
      </trkpt>
      <trkpt lat="45.96988" lon="4.59663">
        <ele>534.200012207</ele>
        <time>2015-08-11T09:52:59.673Z</time>
      </trkpt>
      <trkpt lat="45.9699" lon="4.5968">
        <ele>533.5</ele>
        <time>2015-08-11T09:53:00.439Z</time>
      </trkpt>
      <trkpt lat="45.9699" lon="4.5968">
        <ele>533.5</ele>
        <time>2015-08-11T09:53:00.485Z</time>
      </trkpt>
      <trkpt lat="45.96992" lon="4.59697">
        <ele>532.700012207</ele>
        <time>2015-08-11T09:53:01.448Z</time>
      </trkpt>
      <trkpt lat="45.96992" lon="4.59697">
        <ele>532.700012207</ele>
        <time>2015-08-11T09:53:01.497Z</time>
      </trkpt>
      <trkpt lat="45.96996" lon="4.59713">
        <ele>531.5</ele>
        <time>2015-08-11T09:53:02.439Z</time>
      </trkpt>
      <trkpt lat="45.96996" lon="4.59713">
        <ele>531.5</ele>
        <time>2015-08-11T09:53:02.498Z</time>
      </trkpt>
      <trkpt lat="45.97001" lon="4.59729">
        <ele>530</ele>
        <time>2015-08-11T09:53:03.443Z</time>
      </trkpt>
      <trkpt lat="45.97001" lon="4.59729">
        <ele>530</ele>
        <time>2015-08-11T09:53:03.487Z</time>
      </trkpt>
      <trkpt lat="45.97007" lon="4.59743">
        <ele>528.299987793</ele>
        <time>2015-08-11T09:53:04.438Z</time>
      </trkpt>
      <trkpt lat="45.97007" lon="4.59743">
        <ele>528.299987793</ele>
        <time>2015-08-11T09:53:04.492Z</time>
      </trkpt>
      <trkpt lat="45.97015" lon="4.59754">
        <ele>526.799987793</ele>
        <time>2015-08-11T09:53:05.486Z</time>
      </trkpt>
      <trkpt lat="45.97015" lon="4.59754">
        <ele>526.799987793</ele>
        <time>2015-08-11T09:53:05.544Z</time>
      </trkpt>
      <trkpt lat="45.97024" lon="4.59764">
        <ele>525.700012207</ele>
        <time>2015-08-11T09:53:06.449Z</time>
      </trkpt>
      <trkpt lat="45.97024" lon="4.59764">
        <ele>525.700012207</ele>
        <time>2015-08-11T09:53:06.515Z</time>
      </trkpt>
      <trkpt lat="45.97033" lon="4.59772">
        <ele>524.5</ele>
        <time>2015-08-11T09:53:07.447Z</time>
      </trkpt>
      <trkpt lat="45.97033" lon="4.59772">
        <ele>524.5</ele>
        <time>2015-08-11T09:53:07.503Z</time>
      </trkpt>
      <trkpt lat="45.97042" lon="4.59779">
        <ele>523.5</ele>
        <time>2015-08-11T09:53:08.434Z</time>
      </trkpt>
      <trkpt lat="45.97042" lon="4.59779">
        <ele>523.5</ele>
        <time>2015-08-11T09:53:08.554Z</time>
      </trkpt>
      <trkpt lat="45.97051" lon="4.59785">
        <ele>522.400024414</ele>
        <time>2015-08-11T09:53:09.443Z</time>
      </trkpt>
      <trkpt lat="45.97051" lon="4.59785">
        <ele>522.400024414</ele>
        <time>2015-08-11T09:53:09.52Z</time>
      </trkpt>
      <trkpt lat="45.97059" lon="4.59791">
        <ele>521.200012207</ele>
        <time>2015-08-11T09:53:10.44Z</time>
      </trkpt>
      <trkpt lat="45.97066" lon="4.59798">
        <ele>520.200012207</ele>
        <time>2015-08-11T09:53:11.473Z</time>
      </trkpt>
      <trkpt lat="45.97072" lon="4.59806">
        <ele>519.299987793</ele>
        <time>2015-08-11T09:53:12.443Z</time>
      </trkpt>
      <trkpt lat="45.97075" lon="4.59815">
        <ele>518.5</ele>
        <time>2015-08-11T09:53:13.475Z</time>
      </trkpt>
      <trkpt lat="45.97073" lon="4.59826">
        <ele>517.599975586</ele>
        <time>2015-08-11T09:53:14.435Z</time>
      </trkpt>
      <trkpt lat="45.97072" lon="4.59836">
        <ele>516.299987793</ele>
        <time>2015-08-11T09:53:15.482Z</time>
      </trkpt>
      <trkpt lat="45.9707" lon="4.59848">
        <ele>515.099975586</ele>
        <time>2015-08-11T09:53:16.436Z</time>
      </trkpt>
      <trkpt lat="45.97067" lon="4.5986">
        <ele>513.900024414</ele>
        <time>2015-08-11T09:53:17.475Z</time>
      </trkpt>
      <trkpt lat="45.97063" lon="4.59872">
        <ele>513</ele>
        <time>2015-08-11T09:53:18.437Z</time>
      </trkpt>
      <trkpt lat="45.97063" lon="4.59872">
        <ele>513</ele>
        <time>2015-08-11T09:53:18.497Z</time>
      </trkpt>
      <trkpt lat="45.97059" lon="4.59884">
        <ele>511.899993896</ele>
        <time>2015-08-11T09:53:19.479Z</time>
      </trkpt>
      <trkpt lat="45.97059" lon="4.59884">
        <ele>511.899993896</ele>
        <time>2015-08-11T09:53:19.524Z</time>
      </trkpt>
      <trkpt lat="45.97054" lon="4.59896">
        <ele>511.100006104</ele>
        <time>2015-08-11T09:53:20.423Z</time>
      </trkpt>
      <trkpt lat="45.97054" lon="4.59896">
        <ele>511.100006104</ele>
        <time>2015-08-11T09:53:20.521Z</time>
      </trkpt>
      <trkpt lat="45.97049" lon="4.59908">
        <ele>510.299987793</ele>
        <time>2015-08-11T09:53:21.442Z</time>
      </trkpt>
      <trkpt lat="45.97049" lon="4.59908">
        <ele>510.299987793</ele>
        <time>2015-08-11T09:53:21.488Z</time>
      </trkpt>
      <trkpt lat="45.97043" lon="4.5992">
        <ele>509.399993896</ele>
        <time>2015-08-11T09:53:22.436Z</time>
      </trkpt>
      <trkpt lat="45.97043" lon="4.5992">
        <ele>509.399993896</ele>
        <time>2015-08-11T09:53:22.673Z</time>
      </trkpt>
      <trkpt lat="45.97038" lon="4.59932">
        <ele>508.5</ele>
        <time>2015-08-11T09:53:23.436Z</time>
      </trkpt>
      <trkpt lat="45.97038" lon="4.59932">
        <ele>508.5</ele>
        <time>2015-08-11T09:53:23.511Z</time>
      </trkpt>
      <trkpt lat="45.97031" lon="4.59944">
        <ele>507.899993896</ele>
        <time>2015-08-11T09:53:24.434Z</time>
      </trkpt>
      <trkpt lat="45.97031" lon="4.59944">
        <ele>507.899993896</ele>
        <time>2015-08-11T09:53:24.57Z</time>
      </trkpt>
      <trkpt lat="45.97024" lon="4.59957">
        <ele>507.200012207</ele>
        <time>2015-08-11T09:53:25.437Z</time>
      </trkpt>
      <trkpt lat="45.97024" lon="4.59957">
        <ele>507.200012207</ele>
        <time>2015-08-11T09:53:25.487Z</time>
      </trkpt>
      <trkpt lat="45.97018" lon="4.5997">
        <ele>506.299987793</ele>
        <time>2015-08-11T09:53:26.43Z</time>
      </trkpt>
      <trkpt lat="45.97018" lon="4.5997">
        <ele>506.299987793</ele>
        <time>2015-08-11T09:53:26.552Z</time>
      </trkpt>
      <trkpt lat="45.97011" lon="4.59983">
        <ele>505.399993896</ele>
        <time>2015-08-11T09:53:27.441Z</time>
      </trkpt>
      <trkpt lat="45.97011" lon="4.59983">
        <ele>505.399993896</ele>
        <time>2015-08-11T09:53:27.477Z</time>
      </trkpt>
      <trkpt lat="45.97004" lon="4.59995">
        <ele>504.700012207</ele>
        <time>2015-08-11T09:53:28.442Z</time>
      </trkpt>
      <trkpt lat="45.97004" lon="4.59995">
        <ele>504.700012207</ele>
        <time>2015-08-11T09:53:28.581Z</time>
      </trkpt>
      <trkpt lat="45.96998" lon="4.60007">
        <ele>503.899993896</ele>
        <time>2015-08-11T09:53:29.44Z</time>
      </trkpt>
      <trkpt lat="45.96998" lon="4.60007">
        <ele>503.899993896</ele>
        <time>2015-08-11T09:53:29.486Z</time>
      </trkpt>
      <trkpt lat="45.96991" lon="4.60018">
        <ele>503.200012207</ele>
        <time>2015-08-11T09:53:30.44Z</time>
      </trkpt>
      <trkpt lat="45.96991" lon="4.60018">
        <ele>503.200012207</ele>
        <time>2015-08-11T09:53:30.574Z</time>
      </trkpt>
      <trkpt lat="45.96984" lon="4.60029">
        <ele>502.399993896</ele>
        <time>2015-08-11T09:53:31.444Z</time>
      </trkpt>
      <trkpt lat="45.96984" lon="4.60029">
        <ele>502.399993896</ele>
        <time>2015-08-11T09:53:31.5Z</time>
      </trkpt>
      <trkpt lat="45.96977" lon="4.6004">
        <ele>501.799987793</ele>
        <time>2015-08-11T09:53:32.437Z</time>
      </trkpt>
      <trkpt lat="45.96977" lon="4.6004">
        <ele>501.799987793</ele>
        <time>2015-08-11T09:53:32.494Z</time>
      </trkpt>
      <trkpt lat="45.96969" lon="4.60051">
        <ele>501.100006104</ele>
        <time>2015-08-11T09:53:33.439Z</time>
      </trkpt>
      <trkpt lat="45.96969" lon="4.60051">
        <ele>501.100006104</ele>
        <time>2015-08-11T09:53:33.489Z</time>
      </trkpt>
      <trkpt lat="45.96962" lon="4.60062">
        <ele>500.299987793</ele>
        <time>2015-08-11T09:53:34.437Z</time>
      </trkpt>
      <trkpt lat="45.96962" lon="4.60062">
        <ele>500.299987793</ele>
        <time>2015-08-11T09:53:34.493Z</time>
      </trkpt>
      <trkpt lat="45.96954" lon="4.60073">
        <ele>499.600006104</ele>
        <time>2015-08-11T09:53:35.437Z</time>
      </trkpt>
      <trkpt lat="45.96954" lon="4.60073">
        <ele>499.600006104</ele>
        <time>2015-08-11T09:53:35.483Z</time>
      </trkpt>
      <trkpt lat="45.96947" lon="4.60084">
        <ele>498.899993896</ele>
        <time>2015-08-11T09:53:36.433Z</time>
      </trkpt>
      <trkpt lat="45.96947" lon="4.60084">
        <ele>498.899993896</ele>
        <time>2015-08-11T09:53:36.492Z</time>
      </trkpt>
      <trkpt lat="45.96939" lon="4.60095">
        <ele>498.100006104</ele>
        <time>2015-08-11T09:53:37.44Z</time>
      </trkpt>
      <trkpt lat="45.96939" lon="4.60095">
        <ele>498.100006104</ele>
        <time>2015-08-11T09:53:37.478Z</time>
      </trkpt>
      <trkpt lat="45.96935" lon="4.60109">
        <ele>497.200012207</ele>
        <time>2015-08-11T09:53:38.437Z</time>
      </trkpt>
      <trkpt lat="45.96935" lon="4.60109">
        <ele>497.200012207</ele>
        <time>2015-08-11T09:53:38.649Z</time>
      </trkpt>
      <trkpt lat="45.96929" lon="4.60125">
        <ele>496.399993896</ele>
        <time>2015-08-11T09:53:39.445Z</time>
      </trkpt>
      <trkpt lat="45.96929" lon="4.60125">
        <ele>496.399993896</ele>
        <time>2015-08-11T09:53:39.486Z</time>
      </trkpt>
      <trkpt lat="45.96922" lon="4.6014">
        <ele>495.399993896</ele>
        <time>2015-08-11T09:53:40.46Z</time>
      </trkpt>
      <trkpt lat="45.96922" lon="4.6014">
        <ele>495.399993896</ele>
        <time>2015-08-11T09:53:40.512Z</time>
      </trkpt>
      <trkpt lat="45.96916" lon="4.60156">
        <ele>494.600006104</ele>
        <time>2015-08-11T09:53:41.441Z</time>
      </trkpt>
      <trkpt lat="45.96916" lon="4.60156">
        <ele>494.600006104</ele>
        <time>2015-08-11T09:53:41.487Z</time>
      </trkpt>
      <trkpt lat="45.96907" lon="4.60175">
        <ele>493.700012207</ele>
        <time>2015-08-11T09:53:42.437Z</time>
      </trkpt>
      <trkpt lat="45.96907" lon="4.60175">
        <ele>493.700012207</ele>
        <time>2015-08-11T09:53:42.488Z</time>
      </trkpt>
      <trkpt lat="45.96898" lon="4.60192">
        <ele>492.700012207</ele>
        <time>2015-08-11T09:53:43.443Z</time>
      </trkpt>
      <trkpt lat="45.96898" lon="4.60192">
        <ele>492.700012207</ele>
        <time>2015-08-11T09:53:43.481Z</time>
      </trkpt>
      <trkpt lat="45.9689" lon="4.60211">
        <ele>491.700012207</ele>
        <time>2015-08-11T09:53:44.434Z</time>
      </trkpt>
      <trkpt lat="45.9689" lon="4.60211">
        <ele>491.700012207</ele>
        <time>2015-08-11T09:53:44.565Z</time>
      </trkpt>
      <trkpt lat="45.96884" lon="4.6023">
        <ele>490.700012207</ele>
        <time>2015-08-11T09:53:45.439Z</time>
      </trkpt>
      <trkpt lat="45.96884" lon="4.6023">
        <ele>490.700012207</ele>
        <time>2015-08-11T09:53:45.483Z</time>
      </trkpt>
      <trkpt lat="45.9688" lon="4.60251">
        <ele>489.700012207</ele>
        <time>2015-08-11T09:53:46.434Z</time>
      </trkpt>
      <trkpt lat="45.9688" lon="4.60251">
        <ele>489.700012207</ele>
        <time>2015-08-11T09:53:46.481Z</time>
      </trkpt>
      <trkpt lat="45.96879" lon="4.60271">
        <ele>488.899993896</ele>
        <time>2015-08-11T09:53:47.439Z</time>
      </trkpt>
      <trkpt lat="45.96879" lon="4.60271">
        <ele>488.899993896</ele>
        <time>2015-08-11T09:53:47.474Z</time>
      </trkpt>
      <trkpt lat="45.96877" lon="4.6029">
        <ele>488.100006104</ele>
        <time>2015-08-11T09:53:48.441Z</time>
      </trkpt>
      <trkpt lat="45.96877" lon="4.6029">
        <ele>488.100006104</ele>
        <time>2015-08-11T09:53:48.485Z</time>
      </trkpt>
      <trkpt lat="45.96874" lon="4.60312">
        <ele>487.700012207</ele>
        <time>2015-08-11T09:53:49.437Z</time>
      </trkpt>
      <trkpt lat="45.96874" lon="4.60312">
        <ele>487.700012207</ele>
        <time>2015-08-11T09:53:49.502Z</time>
      </trkpt>
      <trkpt lat="45.96872" lon="4.60331">
        <ele>486.899993896</ele>
        <time>2015-08-11T09:53:50.439Z</time>
      </trkpt>
      <trkpt lat="45.96872" lon="4.60331">
        <ele>486.899993896</ele>
        <time>2015-08-11T09:53:50.472Z</time>
      </trkpt>
      <trkpt lat="45.96868" lon="4.6035">
        <ele>486.100006104</ele>
        <time>2015-08-11T09:53:51.44Z</time>
      </trkpt>
      <trkpt lat="45.96868" lon="4.6035">
        <ele>486.100006104</ele>
        <time>2015-08-11T09:53:51.481Z</time>
      </trkpt>
      <trkpt lat="45.96862" lon="4.60368">
        <ele>485.299987793</ele>
        <time>2015-08-11T09:53:52.437Z</time>
      </trkpt>
      <trkpt lat="45.96862" lon="4.60368">
        <ele>485.299987793</ele>
        <time>2015-08-11T09:53:52.509Z</time>
      </trkpt>
      <trkpt lat="45.96856" lon="4.60384">
        <ele>484.399993896</ele>
        <time>2015-08-11T09:53:53.442Z</time>
      </trkpt>
      <trkpt lat="45.96856" lon="4.60384">
        <ele>484.399993896</ele>
        <time>2015-08-11T09:53:53.488Z</time>
      </trkpt>
      <trkpt lat="45.96848" lon="4.60402">
        <ele>483.5</ele>
        <time>2015-08-11T09:53:54.432Z</time>
      </trkpt>
      <trkpt lat="45.96848" lon="4.60402">
        <ele>483.5</ele>
        <time>2015-08-11T09:53:54.497Z</time>
      </trkpt>
      <trkpt lat="45.96841" lon="4.60421">
        <ele>482.700012207</ele>
        <time>2015-08-11T09:53:55.437Z</time>
      </trkpt>
      <trkpt lat="45.96841" lon="4.60421">
        <ele>482.700012207</ele>
        <time>2015-08-11T09:53:55.486Z</time>
      </trkpt>
      <trkpt lat="45.96833" lon="4.60439">
        <ele>481.899993896</ele>
        <time>2015-08-11T09:53:56.436Z</time>
      </trkpt>
      <trkpt lat="45.96833" lon="4.60439">
        <ele>481.899993896</ele>
        <time>2015-08-11T09:53:56.473Z</time>
      </trkpt>
      <trkpt lat="45.96824" lon="4.60456">
        <ele>481.100006104</ele>
        <time>2015-08-11T09:53:57.437Z</time>
      </trkpt>
      <trkpt lat="45.96824" lon="4.60456">
        <ele>481.100006104</ele>
        <time>2015-08-11T09:53:57.548Z</time>
      </trkpt>
      <trkpt lat="45.96818" lon="4.60474">
        <ele>480.299987793</ele>
        <time>2015-08-11T09:53:58.437Z</time>
      </trkpt>
      <trkpt lat="45.96818" lon="4.60474">
        <ele>480.299987793</ele>
        <time>2015-08-11T09:53:58.485Z</time>
      </trkpt>
      <trkpt lat="45.96809" lon="4.60492">
        <ele>479.399993896</ele>
        <time>2015-08-11T09:53:59.436Z</time>
      </trkpt>
      <trkpt lat="45.96809" lon="4.60492">
        <ele>479.399993896</ele>
        <time>2015-08-11T09:53:59.489Z</time>
      </trkpt>
      <trkpt lat="45.96804" lon="4.6051">
        <ele>478.600006104</ele>
        <time>2015-08-11T09:54:00.44Z</time>
      </trkpt>
      <trkpt lat="45.96804" lon="4.6051">
        <ele>478.600006104</ele>
        <time>2015-08-11T09:54:00.484Z</time>
      </trkpt>
      <trkpt lat="45.96797" lon="4.60528">
        <ele>477.799987793</ele>
        <time>2015-08-11T09:54:01.453Z</time>
      </trkpt>
      <trkpt lat="45.96797" lon="4.60528">
        <ele>477.799987793</ele>
        <time>2015-08-11T09:54:01.486Z</time>
      </trkpt>
      <trkpt lat="45.9679" lon="4.60547">
        <ele>477</ele>
        <time>2015-08-11T09:54:02.432Z</time>
      </trkpt>
      <trkpt lat="45.9679" lon="4.60547">
        <ele>477</ele>
        <time>2015-08-11T09:54:02.503Z</time>
      </trkpt>
      <trkpt lat="45.96784" lon="4.60565">
        <ele>476.200012207</ele>
        <time>2015-08-11T09:54:03.435Z</time>
      </trkpt>
      <trkpt lat="45.96784" lon="4.60565">
        <ele>476.200012207</ele>
        <time>2015-08-11T09:54:03.485Z</time>
      </trkpt>
      <trkpt lat="45.96778" lon="4.60583">
        <ele>475.299987793</ele>
        <time>2015-08-11T09:54:04.441Z</time>
      </trkpt>
      <trkpt lat="45.96778" lon="4.60583">
        <ele>475.299987793</ele>
        <time>2015-08-11T09:54:04.485Z</time>
      </trkpt>
      <trkpt lat="45.96771" lon="4.60602">
        <ele>474.399993896</ele>
        <time>2015-08-11T09:54:05.436Z</time>
      </trkpt>
      <trkpt lat="45.96771" lon="4.60602">
        <ele>474.399993896</ele>
        <time>2015-08-11T09:54:05.484Z</time>
      </trkpt>
      <trkpt lat="45.96766" lon="4.60618">
        <ele>473.100006104</ele>
        <time>2015-08-11T09:54:06.457Z</time>
      </trkpt>
      <trkpt lat="45.96766" lon="4.60618">
        <ele>473.100006104</ele>
        <time>2015-08-11T09:54:06.518Z</time>
      </trkpt>
      <trkpt lat="45.9676" lon="4.60635">
        <ele>471.899993896</ele>
        <time>2015-08-11T09:54:07.436Z</time>
      </trkpt>
      <trkpt lat="45.9676" lon="4.60635">
        <ele>471.899993896</ele>
        <time>2015-08-11T09:54:07.483Z</time>
      </trkpt>
      <trkpt lat="45.96755" lon="4.6065">
        <ele>470.399993896</ele>
        <time>2015-08-11T09:54:08.44Z</time>
      </trkpt>
      <trkpt lat="45.96755" lon="4.6065">
        <ele>470.399993896</ele>
        <time>2015-08-11T09:54:08.471Z</time>
      </trkpt>
      <trkpt lat="45.9675" lon="4.60665">
        <ele>469.200012207</ele>
        <time>2015-08-11T09:54:09.44Z</time>
      </trkpt>
      <trkpt lat="45.9675" lon="4.60665">
        <ele>469.200012207</ele>
        <time>2015-08-11T09:54:09.479Z</time>
      </trkpt>
      <trkpt lat="45.96741" lon="4.60681">
        <ele>467.799987793</ele>
        <time>2015-08-11T09:54:10.442Z</time>
      </trkpt>
      <trkpt lat="45.96741" lon="4.60681">
        <ele>467.799987793</ele>
        <time>2015-08-11T09:54:10.496Z</time>
      </trkpt>
      <trkpt lat="45.96731" lon="4.60696">
        <ele>466.200012207</ele>
        <time>2015-08-11T09:54:11.433Z</time>
      </trkpt>
      <trkpt lat="45.96731" lon="4.60696">
        <ele>466.200012207</ele>
        <time>2015-08-11T09:54:11.508Z</time>
      </trkpt>
      <trkpt lat="45.96724" lon="4.60711">
        <ele>465</ele>
        <time>2015-08-11T09:54:12.483Z</time>
      </trkpt>
      <trkpt lat="45.96724" lon="4.60711">
        <ele>465</ele>
        <time>2015-08-11T09:54:12.718Z</time>
      </trkpt>
      <trkpt lat="45.96719" lon="4.60724">
        <ele>463.899993896</ele>
        <time>2015-08-11T09:54:13.458Z</time>
      </trkpt>
      <trkpt lat="45.96719" lon="4.60724">
        <ele>463.899993896</ele>
        <time>2015-08-11T09:54:13.523Z</time>
      </trkpt>
      <trkpt lat="45.96714" lon="4.60736">
        <ele>462.700012207</ele>
        <time>2015-08-11T09:54:14.44Z</time>
      </trkpt>
      <trkpt lat="45.9671" lon="4.60746">
        <ele>461.700012207</ele>
        <time>2015-08-11T09:54:15.472Z</time>
      </trkpt>
      <trkpt lat="45.96706" lon="4.60755">
        <ele>460.700012207</ele>
        <time>2015-08-11T09:54:16.441Z</time>
      </trkpt>
      <trkpt lat="45.96702" lon="4.60762">
        <ele>459.700012207</ele>
        <time>2015-08-11T09:54:17.471Z</time>
      </trkpt>
      <trkpt lat="45.96698" lon="4.60768">
        <ele>458.399993896</ele>
        <time>2015-08-11T09:54:18.44Z</time>
      </trkpt>
      <trkpt lat="45.96695" lon="4.60774">
        <ele>457.5</ele>
        <time>2015-08-11T09:54:19.475Z</time>
      </trkpt>
      <trkpt lat="45.9669" lon="4.60778">
        <ele>456.600006104</ele>
        <time>2015-08-11T09:54:20.44Z</time>
      </trkpt>
      <trkpt lat="45.96685" lon="4.60778">
        <ele>455.600006104</ele>
        <time>2015-08-11T09:54:21.544Z</time>
      </trkpt>
      <trkpt lat="45.9668" lon="4.60774">
        <ele>455</ele>
        <time>2015-08-11T09:54:22.435Z</time>
      </trkpt>
      <trkpt lat="45.96674" lon="4.6077">
        <ele>454</ele>
        <time>2015-08-11T09:54:23.468Z</time>
      </trkpt>
      <trkpt lat="45.96669" lon="4.60765">
        <ele>453.200012207</ele>
        <time>2015-08-11T09:54:24.436Z</time>
      </trkpt>
      <trkpt lat="45.96665" lon="4.6076">
        <ele>452.299987793</ele>
        <time>2015-08-11T09:54:25.469Z</time>
      </trkpt>
      <trkpt lat="45.96661" lon="4.60753">
        <ele>451.700012207</ele>
        <time>2015-08-11T09:54:26.44Z</time>
      </trkpt>
      <trkpt lat="45.96657" lon="4.60747">
        <ele>451</ele>
        <time>2015-08-11T09:54:27.466Z</time>
      </trkpt>
      <trkpt lat="45.96652" lon="4.60741">
        <ele>450.200012207</ele>
        <time>2015-08-11T09:54:28.437Z</time>
      </trkpt>
      <trkpt lat="45.96647" lon="4.60735">
        <ele>449.5</ele>
        <time>2015-08-11T09:54:29.468Z</time>
      </trkpt>
      <trkpt lat="45.96642" lon="4.60729">
        <ele>448.700012207</ele>
        <time>2015-08-11T09:54:30.437Z</time>
      </trkpt>
      <trkpt lat="45.96637" lon="4.60723">
        <ele>447.799987793</ele>
        <time>2015-08-11T09:54:31.533Z</time>
      </trkpt>
      <trkpt lat="45.96633" lon="4.60716">
        <ele>446.799987793</ele>
        <time>2015-08-11T09:54:32.44Z</time>
      </trkpt>
      <trkpt lat="45.9663" lon="4.6071">
        <ele>445.899993896</ele>
        <time>2015-08-11T09:54:33.473Z</time>
      </trkpt>
      <trkpt lat="45.96624" lon="4.60704">
        <ele>445.399993896</ele>
        <time>2015-08-11T09:54:34.437Z</time>
      </trkpt>
      <trkpt lat="45.96619" lon="4.60698">
        <ele>444.600006104</ele>
        <time>2015-08-11T09:54:35.47Z</time>
      </trkpt>
      <trkpt lat="45.96614" lon="4.60692">
        <ele>443.799987793</ele>
        <time>2015-08-11T09:54:36.437Z</time>
      </trkpt>
      <trkpt lat="45.96609" lon="4.60687">
        <ele>442.899993896</ele>
        <time>2015-08-11T09:54:37.491Z</time>
      </trkpt>
      <trkpt lat="45.96604" lon="4.60682">
        <ele>442.100006104</ele>
        <time>2015-08-11T09:54:38.423Z</time>
      </trkpt>
      <trkpt lat="45.96599" lon="4.60677">
        <ele>441.399993896</ele>
        <time>2015-08-11T09:54:39.485Z</time>
      </trkpt>
      <trkpt lat="45.96595" lon="4.60673">
        <ele>440.600006104</ele>
        <time>2015-08-11T09:54:40.439Z</time>
      </trkpt>
      <trkpt lat="45.96591" lon="4.60668">
        <ele>440</ele>
        <time>2015-08-11T09:54:41.469Z</time>
      </trkpt>
      <trkpt lat="45.96586" lon="4.60664">
        <ele>439.299987793</ele>
        <time>2015-08-11T09:54:42.434Z</time>
      </trkpt>
      <trkpt lat="45.96581" lon="4.60659">
        <ele>438.700012207</ele>
        <time>2015-08-11T09:54:43.513Z</time>
      </trkpt>
      <trkpt lat="45.96576" lon="4.60655">
        <ele>438</ele>
        <time>2015-08-11T09:54:44.437Z</time>
      </trkpt>
      <trkpt lat="45.96571" lon="4.6065">
        <ele>437.399993896</ele>
        <time>2015-08-11T09:54:45.469Z</time>
      </trkpt>
      <trkpt lat="45.96567" lon="4.60645">
        <ele>436.799987793</ele>
        <time>2015-08-11T09:54:46.422Z</time>
      </trkpt>
      <trkpt lat="45.96561" lon="4.60641">
        <ele>436.200012207</ele>
        <time>2015-08-11T09:54:47.467Z</time>
      </trkpt>
      <trkpt lat="45.96556" lon="4.60636">
        <ele>435.600006104</ele>
        <time>2015-08-11T09:54:48.421Z</time>
      </trkpt>
      <trkpt lat="45.96552" lon="4.6063">
        <ele>435</ele>
        <time>2015-08-11T09:54:49.471Z</time>
      </trkpt>
      <trkpt lat="45.96549" lon="4.60623">
        <ele>434.399993896</ele>
        <time>2015-08-11T09:54:50.435Z</time>
      </trkpt>
      <trkpt lat="45.96546" lon="4.60616">
        <ele>433.799987793</ele>
        <time>2015-08-11T09:54:51.465Z</time>
      </trkpt>
      <trkpt lat="45.96542" lon="4.6061">
        <ele>433.200012207</ele>
        <time>2015-08-11T09:54:52.436Z</time>
      </trkpt>
      <trkpt lat="45.96538" lon="4.60604">
        <ele>432.5</ele>
        <time>2015-08-11T09:54:53.482Z</time>
      </trkpt>
      <trkpt lat="45.96534" lon="4.60598">
        <ele>432</ele>
        <time>2015-08-11T09:54:54.436Z</time>
      </trkpt>
      <trkpt lat="45.9653" lon="4.60592">
        <ele>431.399993896</ele>
        <time>2015-08-11T09:54:55.469Z</time>
      </trkpt>
      <trkpt lat="45.96526" lon="4.60586">
        <ele>430.899993896</ele>
        <time>2015-08-11T09:54:56.436Z</time>
      </trkpt>
      <trkpt lat="45.96522" lon="4.6058">
        <ele>430.299987793</ele>
        <time>2015-08-11T09:54:57.467Z</time>
      </trkpt>
      <trkpt lat="45.96517" lon="4.60574">
        <ele>429.600006104</ele>
        <time>2015-08-11T09:54:58.436Z</time>
      </trkpt>
      <trkpt lat="45.96513" lon="4.60568">
        <ele>429</ele>
        <time>2015-08-11T09:54:59.467Z</time>
      </trkpt>
      <trkpt lat="45.96509" lon="4.60563">
        <ele>428.5</ele>
        <time>2015-08-11T09:55:00.474Z</time>
      </trkpt>
      <trkpt lat="45.96503" lon="4.60558">
        <ele>428.100006104</ele>
        <time>2015-08-11T09:55:01.473Z</time>
      </trkpt>
      <trkpt lat="45.96499" lon="4.60551">
        <ele>427.5</ele>
        <time>2015-08-11T09:55:02.436Z</time>
      </trkpt>
      <trkpt lat="45.96495" lon="4.60544">
        <ele>427</ele>
        <time>2015-08-11T09:55:03.471Z</time>
      </trkpt>
      <trkpt lat="45.96491" lon="4.60539">
        <ele>426.5</ele>
        <time>2015-08-11T09:55:04.422Z</time>
      </trkpt>
      <trkpt lat="45.96486" lon="4.60533">
        <ele>426.100006104</ele>
        <time>2015-08-11T09:55:05.466Z</time>
      </trkpt>
      <trkpt lat="45.96481" lon="4.60527">
        <ele>425.5</ele>
        <time>2015-08-11T09:55:06.423Z</time>
      </trkpt>
      <trkpt lat="45.96476" lon="4.6052">
        <ele>425</ele>
        <time>2015-08-11T09:55:07.493Z</time>
      </trkpt>
      <trkpt lat="45.9647" lon="4.60514">
        <ele>424.5</ele>
        <time>2015-08-11T09:55:08.433Z</time>
      </trkpt>
      <trkpt lat="45.96464" lon="4.60508">
        <ele>424</ele>
        <time>2015-08-11T09:55:09.564Z</time>
      </trkpt>
      <trkpt lat="45.96458" lon="4.60502">
        <ele>423.399993896</ele>
        <time>2015-08-11T09:55:10.442Z</time>
      </trkpt>
      <trkpt lat="45.96454" lon="4.60495">
        <ele>422.799987793</ele>
        <time>2015-08-11T09:55:11.478Z</time>
      </trkpt>
      <trkpt lat="45.96449" lon="4.60488">
        <ele>422.299987793</ele>
        <time>2015-08-11T09:55:12.424Z</time>
      </trkpt>
      <trkpt lat="45.96444" lon="4.60483">
        <ele>421.899993896</ele>
        <time>2015-08-11T09:55:13.511Z</time>
      </trkpt>
      <trkpt lat="45.96441" lon="4.60476">
        <ele>421.399993896</ele>
        <time>2015-08-11T09:55:14.44Z</time>
      </trkpt>
      <trkpt lat="45.96438" lon="4.60469">
        <ele>421.100006104</ele>
        <time>2015-08-11T09:55:15.466Z</time>
      </trkpt>
      <trkpt lat="45.96434" lon="4.60462">
        <ele>420.899993896</ele>
        <time>2015-08-11T09:55:16.436Z</time>
      </trkpt>
      <trkpt lat="45.96431" lon="4.60455">
        <ele>420.600006104</ele>
        <time>2015-08-11T09:55:17.466Z</time>
      </trkpt>
      <trkpt lat="45.96428" lon="4.60447">
        <ele>420.5</ele>
        <time>2015-08-11T09:55:18.493Z</time>
      </trkpt>
      <trkpt lat="45.96425" lon="4.60441">
        <ele>420.399993896</ele>
        <time>2015-08-11T09:55:19.471Z</time>
      </trkpt>
      <trkpt lat="45.96422" lon="4.60433">
        <ele>420.100006104</ele>
        <time>2015-08-11T09:55:20.418Z</time>
      </trkpt>
      <trkpt lat="45.96417" lon="4.60423">
        <ele>419.799987793</ele>
        <time>2015-08-11T09:55:21.467Z</time>
      </trkpt>
      <trkpt lat="45.96414" lon="4.60416">
        <ele>419.5</ele>
        <time>2015-08-11T09:55:22.434Z</time>
      </trkpt>
      <trkpt lat="45.9641" lon="4.60408">
        <ele>419.399993896</ele>
        <time>2015-08-11T09:55:23.47Z</time>
      </trkpt>
      <trkpt lat="45.96406" lon="4.60401">
        <ele>419.200012207</ele>
        <time>2015-08-11T09:55:24.422Z</time>
      </trkpt>
      <trkpt lat="45.96402" lon="4.60394">
        <ele>419</ele>
        <time>2015-08-11T09:55:25.484Z</time>
      </trkpt>
      <trkpt lat="45.96397" lon="4.60388">
        <ele>418.700012207</ele>
        <time>2015-08-11T09:55:26.436Z</time>
      </trkpt>
      <trkpt lat="45.9639" lon="4.60383">
        <ele>418.399993896</ele>
        <time>2015-08-11T09:55:27.487Z</time>
      </trkpt>
      <trkpt lat="45.96385" lon="4.6038">
        <ele>418.200012207</ele>
        <time>2015-08-11T09:55:28.433Z</time>
      </trkpt>
      <trkpt lat="45.96378" lon="4.60378">
        <ele>418</ele>
        <time>2015-08-11T09:55:29.481Z</time>
      </trkpt>
      <trkpt lat="45.96372" lon="4.60377">
        <ele>417.700012207</ele>
        <time>2015-08-11T09:55:30.436Z</time>
      </trkpt>
      <trkpt lat="45.96364" lon="4.60378">
        <ele>417.299987793</ele>
        <time>2015-08-11T09:55:31.514Z</time>
      </trkpt>
      <trkpt lat="45.96357" lon="4.60378">
        <ele>416.899993896</ele>
        <time>2015-08-11T09:55:32.44Z</time>
      </trkpt>
      <trkpt lat="45.96351" lon="4.60379">
        <ele>416.399993896</ele>
        <time>2015-08-11T09:55:33.474Z</time>
      </trkpt>
      <trkpt lat="45.96345" lon="4.6038">
        <ele>416</ele>
        <time>2015-08-11T09:55:34.44Z</time>
      </trkpt>
      <trkpt lat="45.96337" lon="4.60379">
        <ele>415.700012207</ele>
        <time>2015-08-11T09:55:35.475Z</time>
      </trkpt>
      <trkpt lat="45.96329" lon="4.60378">
        <ele>415.399993896</ele>
        <time>2015-08-11T09:55:36.434Z</time>
      </trkpt>
      <trkpt lat="45.96322" lon="4.60377">
        <ele>415</ele>
        <time>2015-08-11T09:55:37.475Z</time>
      </trkpt>
      <trkpt lat="45.96315" lon="4.60374">
        <ele>414.700012207</ele>
        <time>2015-08-11T09:55:38.439Z</time>
      </trkpt>
      <trkpt lat="45.96309" lon="4.60372">
        <ele>414.399993896</ele>
        <time>2015-08-11T09:55:39.466Z</time>
      </trkpt>
      <trkpt lat="45.96302" lon="4.60369">
        <ele>414.100006104</ele>
        <time>2015-08-11T09:55:40.44Z</time>
      </trkpt>
      <trkpt lat="45.96295" lon="4.60367">
        <ele>413.799987793</ele>
        <time>2015-08-11T09:55:41.466Z</time>
      </trkpt>
      <trkpt lat="45.96288" lon="4.60365">
        <ele>413.600006104</ele>
        <time>2015-08-11T09:55:42.435Z</time>
      </trkpt>
      <trkpt lat="45.96281" lon="4.60362">
        <ele>413.399993896</ele>
        <time>2015-08-11T09:55:43.467Z</time>
      </trkpt>
      <trkpt lat="45.96273" lon="4.6036">
        <ele>413.200012207</ele>
        <time>2015-08-11T09:55:44.434Z</time>
      </trkpt>
      <trkpt lat="45.96266" lon="4.60359">
        <ele>413.100006104</ele>
        <time>2015-08-11T09:55:45.472Z</time>
      </trkpt>
      <trkpt lat="45.96258" lon="4.60357">
        <ele>413</ele>
        <time>2015-08-11T09:55:46.423Z</time>
      </trkpt>
      <trkpt lat="45.9625" lon="4.60357">
        <ele>413</ele>
        <time>2015-08-11T09:55:47.513Z</time>
      </trkpt>
      <trkpt lat="45.96244" lon="4.60356">
        <ele>412.700012207</ele>
        <time>2015-08-11T09:55:48.435Z</time>
      </trkpt>
      <trkpt lat="45.96241" lon="4.6035">
        <ele>411.600006104</ele>
        <time>2015-08-11T09:55:50.47Z</time>
      </trkpt>
      <trkpt lat="45.96235" lon="4.60352">
        <ele>411.100006104</ele>
        <time>2015-08-11T09:55:51.456Z</time>
      </trkpt>
      <trkpt lat="45.96229" lon="4.60354">
        <ele>410.5</ele>
        <time>2015-08-11T09:55:52.471Z</time>
      </trkpt>
      <trkpt lat="45.96223" lon="4.60356">
        <ele>410.299987793</ele>
        <time>2015-08-11T09:55:53.438Z</time>
      </trkpt>
      <trkpt lat="45.96218" lon="4.60362">
        <ele>410.200012207</ele>
        <time>2015-08-11T09:55:54.469Z</time>
      </trkpt>
      <trkpt lat="45.96212" lon="4.60368">
        <ele>410.299987793</ele>
        <time>2015-08-11T09:55:55.436Z</time>
      </trkpt>
      <trkpt lat="45.96212" lon="4.60368">
        <ele>410.299987793</ele>
        <time>2015-08-11T09:55:55.489Z</time>
      </trkpt>
      <trkpt lat="45.96204" lon="4.60376">
        <ele>410.299987793</ele>
        <time>2015-08-11T09:55:56.438Z</time>
      </trkpt>
      <trkpt lat="45.96198" lon="4.60381">
        <ele>410.100006104</ele>
        <time>2015-08-11T09:55:57.465Z</time>
      </trkpt>
      <trkpt lat="45.9619" lon="4.60385">
        <ele>409.5</ele>
        <time>2015-08-11T09:55:58.458Z</time>
      </trkpt>
      <trkpt lat="45.9619" lon="4.60385">
        <ele>409.5</ele>
        <time>2015-08-11T09:55:58.516Z</time>
      </trkpt>
      <trkpt lat="45.96193" lon="4.60399">
        <ele>409.100006104</ele>
        <time>2015-08-11T09:55:59.433Z</time>
      </trkpt>
      <trkpt lat="45.96189" lon="4.6041">
        <ele>408.399993896</ele>
        <time>2015-08-11T09:56:00.472Z</time>
      </trkpt>
      <trkpt lat="45.96184" lon="4.6042">
        <ele>407.899993896</ele>
        <time>2015-08-11T09:56:01.437Z</time>
      </trkpt>
      <trkpt lat="45.9618" lon="4.60431">
        <ele>407.399993896</ele>
        <time>2015-08-11T09:56:02.47Z</time>
      </trkpt>
      <trkpt lat="45.96177" lon="4.60442">
        <ele>406.899993896</ele>
        <time>2015-08-11T09:56:03.437Z</time>
      </trkpt>
      <trkpt lat="45.96173" lon="4.60454">
        <ele>406.600006104</ele>
        <time>2015-08-11T09:56:04.471Z</time>
      </trkpt>
      <trkpt lat="45.96169" lon="4.60466">
        <ele>406.299987793</ele>
        <time>2015-08-11T09:56:05.433Z</time>
      </trkpt>
      <trkpt lat="45.96166" lon="4.60477">
        <ele>406</ele>
        <time>2015-08-11T09:56:06.468Z</time>
      </trkpt>
      <trkpt lat="45.96163" lon="4.60488">
        <ele>405.899993896</ele>
        <time>2015-08-11T09:56:07.437Z</time>
      </trkpt>
      <trkpt lat="45.96159" lon="4.605">
        <ele>405.700012207</ele>
        <time>2015-08-11T09:56:08.483Z</time>
      </trkpt>
      <trkpt lat="45.96157" lon="4.60513">
        <ele>406.200012207</ele>
        <time>2015-08-11T09:56:09.436Z</time>
      </trkpt>
      <trkpt lat="45.96155" lon="4.60525">
        <ele>406.5</ele>
        <time>2015-08-11T09:56:10.475Z</time>
      </trkpt>
      <trkpt lat="45.96152" lon="4.60537">
        <ele>406.600006104</ele>
        <time>2015-08-11T09:56:11.423Z</time>
      </trkpt>
      <trkpt lat="45.96148" lon="4.60548">
        <ele>406.700012207</ele>
        <time>2015-08-11T09:56:12.469Z</time>
      </trkpt>
      <trkpt lat="45.96145" lon="4.60558">
        <ele>406.600006104</ele>
        <time>2015-08-11T09:56:13.437Z</time>
      </trkpt>
      <trkpt lat="45.9614" lon="4.60567">
        <ele>406.399993896</ele>
        <time>2015-08-11T09:56:14.474Z</time>
      </trkpt>
      <trkpt lat="45.9614" lon="4.60576">
        <ele>406.200012207</ele>
        <time>2015-08-11T09:56:15.486Z</time>
      </trkpt>
      <trkpt lat="45.96136" lon="4.60584">
        <ele>406</ele>
        <time>2015-08-11T09:56:16.464Z</time>
      </trkpt>
      <trkpt lat="45.96135" lon="4.60591">
        <ele>406.100006104</ele>
        <time>2015-08-11T09:56:17.451Z</time>
      </trkpt>
      <trkpt lat="45.9613" lon="4.60599">
        <ele>406</ele>
        <time>2015-08-11T09:56:18.47Z</time>
      </trkpt>
      <trkpt lat="45.96124" lon="4.60606">
        <ele>405.799987793</ele>
        <time>2015-08-11T09:56:19.436Z</time>
      </trkpt>
      <trkpt lat="45.96118" lon="4.60613">
        <ele>405.799987793</ele>
        <time>2015-08-11T09:56:20.466Z</time>
      </trkpt>
      <trkpt lat="45.96112" lon="4.60619">
        <ele>405.799987793</ele>
        <time>2015-08-11T09:56:21.435Z</time>
      </trkpt>
      <trkpt lat="45.96107" lon="4.60626">
        <ele>405.899993896</ele>
        <time>2015-08-11T09:56:22.504Z</time>
      </trkpt>
      <trkpt lat="45.96103" lon="4.60631">
        <ele>405.899993896</ele>
        <time>2015-08-11T09:56:23.465Z</time>
      </trkpt>
      <trkpt lat="45.96099" lon="4.60636">
        <ele>405.799987793</ele>
        <time>2015-08-11T09:56:24.479Z</time>
      </trkpt>
      <trkpt lat="45.96096" lon="4.60641">
        <ele>405.799987793</ele>
        <time>2015-08-11T09:56:25.503Z</time>
      </trkpt>
      <trkpt lat="45.96093" lon="4.60646">
        <ele>405.799987793</ele>
        <time>2015-08-11T09:56:26.47Z</time>
      </trkpt>
      <trkpt lat="45.9609" lon="4.60651">
        <ele>405.799987793</ele>
        <time>2015-08-11T09:56:27.434Z</time>
      </trkpt>
      <trkpt lat="45.96087" lon="4.60656">
        <ele>405.799987793</ele>
        <time>2015-08-11T09:56:28.473Z</time>
      </trkpt>
      <trkpt lat="45.96083" lon="4.60661">
        <ele>406</ele>
        <time>2015-08-11T09:56:29.435Z</time>
      </trkpt>
      <trkpt lat="45.96077" lon="4.60669">
        <ele>406.100006104</ele>
        <time>2015-08-11T09:56:31.522Z</time>
      </trkpt>
      <trkpt lat="45.96073" lon="4.60675">
        <ele>406.200012207</ele>
        <time>2015-08-11T09:56:32.434Z</time>
      </trkpt>
      <trkpt lat="45.9607" lon="4.60682">
        <ele>406.299987793</ele>
        <time>2015-08-11T09:56:33.467Z</time>
      </trkpt>
      <trkpt lat="45.96067" lon="4.60689">
        <ele>406.700012207</ele>
        <time>2015-08-11T09:56:34.436Z</time>
      </trkpt>
      <trkpt lat="45.96063" lon="4.60696">
        <ele>407.700012207</ele>
        <time>2015-08-11T09:56:35.469Z</time>
      </trkpt>
      <trkpt lat="45.9606" lon="4.60702">
        <ele>408.299987793</ele>
        <time>2015-08-11T09:56:36.437Z</time>
      </trkpt>
      <trkpt lat="45.96057" lon="4.60708">
        <ele>409</ele>
        <time>2015-08-11T09:56:37.477Z</time>
      </trkpt>
      <trkpt lat="45.96054" lon="4.60715">
        <ele>409.700012207</ele>
        <time>2015-08-11T09:56:38.452Z</time>
      </trkpt>
      <trkpt lat="45.96052" lon="4.60721">
        <ele>410.5</ele>
        <time>2015-08-11T09:56:39.492Z</time>
      </trkpt>
      <trkpt lat="45.9605" lon="4.60727">
        <ele>411.100006104</ele>
        <time>2015-08-11T09:56:40.436Z</time>
      </trkpt>
      <trkpt lat="45.96048" lon="4.60733">
        <ele>412.200012207</ele>
        <time>2015-08-11T09:56:41.476Z</time>
      </trkpt>
      <trkpt lat="45.96046" lon="4.60739">
        <ele>412.5</ele>
        <time>2015-08-11T09:56:42.435Z</time>
      </trkpt>
      <trkpt lat="45.96044" lon="4.60745">
        <ele>413.600006104</ele>
        <time>2015-08-11T09:56:43.468Z</time>
      </trkpt>
      <trkpt lat="45.96042" lon="4.60751">
        <ele>414.799987793</ele>
        <time>2015-08-11T09:56:44.426Z</time>
      </trkpt>
      <trkpt lat="45.96037" lon="4.60759">
        <ele>417</ele>
        <time>2015-08-11T09:56:46.464Z</time>
      </trkpt>
      <trkpt lat="45.96035" lon="4.60764">
        <ele>417.600006104</ele>
        <time>2015-08-11T09:56:47.436Z</time>
      </trkpt>
      <trkpt lat="45.96031" lon="4.60774">
        <ele>419.899993896</ele>
        <time>2015-08-11T09:56:49.478Z</time>
      </trkpt>
      <trkpt lat="45.96028" lon="4.60778">
        <ele>421</ele>
        <time>2015-08-11T09:56:50.422Z</time>
      </trkpt>
      <trkpt lat="45.96023" lon="4.60788">
        <ele>424</ele>
        <time>2015-08-11T09:56:52.465Z</time>
      </trkpt>
      <trkpt lat="45.96021" lon="4.60794">
        <ele>425.399993896</ele>
        <time>2015-08-11T09:56:53.435Z</time>
      </trkpt>
      <trkpt lat="45.96018" lon="4.60805">
        <ele>427.899993896</ele>
        <time>2015-08-11T09:56:55.466Z</time>
      </trkpt>
      <trkpt lat="45.96016" lon="4.6081">
        <ele>429.200012207</ele>
        <time>2015-08-11T09:56:56.434Z</time>
      </trkpt>
      <trkpt lat="45.96011" lon="4.60817">
        <ele>431.200012207</ele>
        <time>2015-08-11T09:56:58.52Z</time>
      </trkpt>
      <trkpt lat="45.96009" lon="4.60821">
        <ele>432</ele>
        <time>2015-08-11T09:56:59.429Z</time>
      </trkpt>
      <trkpt lat="45.96002" lon="4.60827">
        <ele>433.899993896</ele>
        <time>2015-08-11T09:57:01.503Z</time>
      </trkpt>
      <trkpt lat="45.95999" lon="4.6083">
        <ele>434.700012207</ele>
        <time>2015-08-11T09:57:02.435Z</time>
      </trkpt>
      <trkpt lat="45.95993" lon="4.60834">
        <ele>435.5</ele>
        <time>2015-08-11T09:57:04.481Z</time>
      </trkpt>
      <trkpt lat="45.95991" lon="4.60837">
        <ele>436</ele>
        <time>2015-08-11T09:57:05.438Z</time>
      </trkpt>
      <trkpt lat="45.95984" lon="4.60839">
        <ele>436</ele>
        <time>2015-08-11T09:57:06.472Z</time>
      </trkpt>
      <trkpt lat="45.95978" lon="4.60841">
        <ele>435.700012207</ele>
        <time>2015-08-11T09:57:07.436Z</time>
      </trkpt>
      <trkpt lat="45.95972" lon="4.60844">
        <ele>435.899993896</ele>
        <time>2015-08-11T09:57:08.48Z</time>
      </trkpt>
      <trkpt lat="45.9597" lon="4.60847">
        <ele>436.399993896</ele>
        <time>2015-08-11T09:57:09.445Z</time>
      </trkpt>
      <trkpt lat="45.95969" lon="4.60856">
        <ele>437.399993896</ele>
        <time>2015-08-11T09:57:11.477Z</time>
      </trkpt>
      <trkpt lat="45.95969" lon="4.6086">
        <ele>437.700012207</ele>
        <time>2015-08-11T09:57:12.434Z</time>
      </trkpt>
      <trkpt lat="45.95969" lon="4.60872">
        <ele>438</ele>
        <time>2015-08-11T09:57:14.469Z</time>
      </trkpt>
      <trkpt lat="45.95968" lon="4.60878">
        <ele>438.299987793</ele>
        <time>2015-08-11T09:57:15.437Z</time>
      </trkpt>
      <trkpt lat="45.95963" lon="4.60888">
        <ele>438.399993896</ele>
        <time>2015-08-11T09:57:17.52Z</time>
      </trkpt>
      <trkpt lat="45.95959" lon="4.60891">
        <ele>438.5</ele>
        <time>2015-08-11T09:57:18.434Z</time>
      </trkpt>
      <trkpt lat="45.95951" lon="4.60896">
        <ele>438.5</ele>
        <time>2015-08-11T09:57:20.489Z</time>
      </trkpt>
      <trkpt lat="45.95947" lon="4.60898">
        <ele>438.100006104</ele>
        <time>2015-08-11T09:57:21.436Z</time>
      </trkpt>
      <trkpt lat="45.95944" lon="4.60902">
        <ele>437.899993896</ele>
        <time>2015-08-11T09:57:22.467Z</time>
      </trkpt>
      <trkpt lat="45.95939" lon="4.60905">
        <ele>437.5</ele>
        <time>2015-08-11T09:57:23.434Z</time>
      </trkpt>
      <trkpt lat="45.95934" lon="4.60908">
        <ele>436.899993896</ele>
        <time>2015-08-11T09:57:24.466Z</time>
      </trkpt>
      <trkpt lat="45.95928" lon="4.6091">
        <ele>436.700012207</ele>
        <time>2015-08-11T09:57:25.439Z</time>
      </trkpt>
      <trkpt lat="45.95922" lon="4.60911">
        <ele>436.799987793</ele>
        <time>2015-08-11T09:57:26.469Z</time>
      </trkpt>
      <trkpt lat="45.95915" lon="4.60912">
        <ele>437.100006104</ele>
        <time>2015-08-11T09:57:27.434Z</time>
      </trkpt>
      <trkpt lat="45.95908" lon="4.60913">
        <ele>437.399993896</ele>
        <time>2015-08-11T09:57:28.465Z</time>
      </trkpt>
      <trkpt lat="45.959" lon="4.60915">
        <ele>437.299987793</ele>
        <time>2015-08-11T09:57:29.434Z</time>
      </trkpt>
      <trkpt lat="45.95892" lon="4.60917">
        <ele>437.600006104</ele>
        <time>2015-08-11T09:57:30.533Z</time>
      </trkpt>
      <trkpt lat="45.95885" lon="4.60918">
        <ele>437.799987793</ele>
        <time>2015-08-11T09:57:31.436Z</time>
      </trkpt>
      <trkpt lat="45.95876" lon="4.6092">
        <ele>438</ele>
        <time>2015-08-11T09:57:32.471Z</time>
      </trkpt>
      <trkpt lat="45.95867" lon="4.60919">
        <ele>437.299987793</ele>
        <time>2015-08-11T09:57:33.434Z</time>
      </trkpt>
      <trkpt lat="45.95858" lon="4.6092">
        <ele>437.100006104</ele>
        <time>2015-08-11T09:57:34.468Z</time>
      </trkpt>
      <trkpt lat="45.95848" lon="4.6092">
        <ele>436.799987793</ele>
        <time>2015-08-11T09:57:35.437Z</time>
      </trkpt>
      <trkpt lat="45.95848" lon="4.6092">
        <ele>436.799987793</ele>
        <time>2015-08-11T09:57:35.482Z</time>
      </trkpt>
      <trkpt lat="45.95838" lon="4.60919">
        <ele>436.700012207</ele>
        <time>2015-08-11T09:57:36.435Z</time>
      </trkpt>
      <trkpt lat="45.95838" lon="4.60919">
        <ele>436.700012207</ele>
        <time>2015-08-11T09:57:36.492Z</time>
      </trkpt>
      <trkpt lat="45.95828" lon="4.60919">
        <ele>436.5</ele>
        <time>2015-08-11T09:57:37.438Z</time>
      </trkpt>
      <trkpt lat="45.95828" lon="4.60919">
        <ele>436.5</ele>
        <time>2015-08-11T09:57:37.471Z</time>
      </trkpt>
      <trkpt lat="45.95819" lon="4.60919">
        <ele>436</ele>
        <time>2015-08-11T09:57:38.434Z</time>
      </trkpt>
      <trkpt lat="45.95819" lon="4.60919">
        <ele>436</ele>
        <time>2015-08-11T09:57:38.489Z</time>
      </trkpt>
      <trkpt lat="45.9581" lon="4.60919">
        <ele>435.799987793</ele>
        <time>2015-08-11T09:57:39.429Z</time>
      </trkpt>
      <trkpt lat="45.95801" lon="4.60921">
        <ele>435</ele>
        <time>2015-08-11T09:57:40.465Z</time>
      </trkpt>
      <trkpt lat="45.95792" lon="4.60921">
        <ele>434.299987793</ele>
        <time>2015-08-11T09:57:41.436Z</time>
      </trkpt>
      <trkpt lat="45.95783" lon="4.60922">
        <ele>434</ele>
        <time>2015-08-11T09:57:42.465Z</time>
      </trkpt>
      <trkpt lat="45.95774" lon="4.60922">
        <ele>433.799987793</ele>
        <time>2015-08-11T09:57:43.436Z</time>
      </trkpt>
      <trkpt lat="45.95766" lon="4.60921">
        <ele>433.700012207</ele>
        <time>2015-08-11T09:57:44.469Z</time>
      </trkpt>
      <trkpt lat="45.95757" lon="4.6092">
        <ele>433.299987793</ele>
        <time>2015-08-11T09:57:45.436Z</time>
      </trkpt>
      <trkpt lat="45.95749" lon="4.60923">
        <ele>433.100006104</ele>
        <time>2015-08-11T09:57:46.485Z</time>
      </trkpt>
      <trkpt lat="45.95741" lon="4.60922">
        <ele>432.799987793</ele>
        <time>2015-08-11T09:57:47.433Z</time>
      </trkpt>
      <trkpt lat="45.95734" lon="4.60921">
        <ele>432.5</ele>
        <time>2015-08-11T09:57:48.464Z</time>
      </trkpt>
      <trkpt lat="45.95727" lon="4.60919">
        <ele>432.299987793</ele>
        <time>2015-08-11T09:57:49.437Z</time>
      </trkpt>
      <trkpt lat="45.95719" lon="4.60917">
        <ele>432.100006104</ele>
        <time>2015-08-11T09:57:50.467Z</time>
      </trkpt>
      <trkpt lat="45.95713" lon="4.60915">
        <ele>431.899993896</ele>
        <time>2015-08-11T09:57:51.436Z</time>
      </trkpt>
      <trkpt lat="45.95707" lon="4.60912">
        <ele>431.700012207</ele>
        <time>2015-08-11T09:57:52.469Z</time>
      </trkpt>
      <trkpt lat="45.95702" lon="4.60907">
        <ele>431.399993896</ele>
        <time>2015-08-11T09:57:53.433Z</time>
      </trkpt>
      <trkpt lat="45.95696" lon="4.60905">
        <ele>430.899993896</ele>
        <time>2015-08-11T09:57:54.468Z</time>
      </trkpt>
      <trkpt lat="45.95688" lon="4.60903">
        <ele>430.399993896</ele>
        <time>2015-08-11T09:57:55.443Z</time>
      </trkpt>
      <trkpt lat="45.95681" lon="4.60901">
        <ele>429.799987793</ele>
        <time>2015-08-11T09:57:56.468Z</time>
      </trkpt>
      <trkpt lat="45.95674" lon="4.60901">
        <ele>429.200012207</ele>
        <time>2015-08-11T09:57:57.435Z</time>
      </trkpt>
      <trkpt lat="45.95667" lon="4.609">
        <ele>428.799987793</ele>
        <time>2015-08-11T09:57:58.504Z</time>
      </trkpt>
      <trkpt lat="45.9566" lon="4.60899">
        <ele>428.299987793</ele>
        <time>2015-08-11T09:57:59.435Z</time>
      </trkpt>
      <trkpt lat="45.95653" lon="4.60898">
        <ele>427.899993896</ele>
        <time>2015-08-11T09:58:00.468Z</time>
      </trkpt>
      <trkpt lat="45.95645" lon="4.60898">
        <ele>427.700012207</ele>
        <time>2015-08-11T09:58:01.437Z</time>
      </trkpt>
      <trkpt lat="45.95638" lon="4.60897">
        <ele>427.299987793</ele>
        <time>2015-08-11T09:58:02.469Z</time>
      </trkpt>
      <trkpt lat="45.95631" lon="4.60897">
        <ele>426.799987793</ele>
        <time>2015-08-11T09:58:03.436Z</time>
      </trkpt>
      <trkpt lat="45.95625" lon="4.609">
        <ele>426.700012207</ele>
        <time>2015-08-11T09:58:04.47Z</time>
      </trkpt>
      <trkpt lat="45.95618" lon="4.60903">
        <ele>426.600006104</ele>
        <time>2015-08-11T09:58:05.45Z</time>
      </trkpt>
      <trkpt lat="45.95613" lon="4.60907">
        <ele>426.399993896</ele>
        <time>2015-08-11T09:58:06.469Z</time>
      </trkpt>
      <trkpt lat="45.95607" lon="4.60912">
        <ele>426.200012207</ele>
        <time>2015-08-11T09:58:07.437Z</time>
      </trkpt>
      <trkpt lat="45.95603" lon="4.6092">
        <ele>425.799987793</ele>
        <time>2015-08-11T09:58:08.65Z</time>
      </trkpt>
      <trkpt lat="45.956" lon="4.60928">
        <ele>425.5</ele>
        <time>2015-08-11T09:58:09.447Z</time>
      </trkpt>
      <trkpt lat="45.95598" lon="4.60936">
        <ele>425.299987793</ele>
        <time>2015-08-11T09:58:10.515Z</time>
      </trkpt>
      <trkpt lat="45.95597" lon="4.60943">
        <ele>425</ele>
        <time>2015-08-11T09:58:11.441Z</time>
      </trkpt>
      <trkpt lat="45.95597" lon="4.60951">
        <ele>424.899993896</ele>
        <time>2015-08-11T09:58:12.47Z</time>
      </trkpt>
      <trkpt lat="45.95596" lon="4.60958">
        <ele>424.700012207</ele>
        <time>2015-08-11T09:58:13.443Z</time>
      </trkpt>
      <trkpt lat="45.95596" lon="4.60965">
        <ele>424.700012207</ele>
        <time>2015-08-11T09:58:14.523Z</time>
      </trkpt>
      <trkpt lat="45.95595" lon="4.60972">
        <ele>424.600006104</ele>
        <time>2015-08-11T09:58:15.438Z</time>
      </trkpt>
      <trkpt lat="45.95594" lon="4.6098">
        <ele>424.600006104</ele>
        <time>2015-08-11T09:58:16.473Z</time>
      </trkpt>
      <trkpt lat="45.95592" lon="4.60987">
        <ele>424.600006104</ele>
        <time>2015-08-11T09:58:17.451Z</time>
      </trkpt>
      <trkpt lat="45.9559" lon="4.60994">
        <ele>424.700012207</ele>
        <time>2015-08-11T09:58:18.469Z</time>
      </trkpt>
      <trkpt lat="45.95587" lon="4.60999">
        <ele>424.600006104</ele>
        <time>2015-08-11T09:58:19.437Z</time>
      </trkpt>
      <trkpt lat="45.95583" lon="4.61005">
        <ele>424.600006104</ele>
        <time>2015-08-11T09:58:20.469Z</time>
      </trkpt>
      <trkpt lat="45.9558" lon="4.61011">
        <ele>424.600006104</ele>
        <time>2015-08-11T09:58:21.431Z</time>
      </trkpt>
      <trkpt lat="45.95575" lon="4.6102">
        <ele>424.5</ele>
        <time>2015-08-11T09:58:23.469Z</time>
      </trkpt>
      <trkpt lat="45.95573" lon="4.61023">
        <ele>424.5</ele>
        <time>2015-08-11T09:58:24.423Z</time>
      </trkpt>
      <trkpt lat="45.95566" lon="4.6103">
        <ele>424.399993896</ele>
        <time>2015-08-11T09:58:28.469Z</time>
      </trkpt>
      <trkpt lat="45.95565" lon="4.6103">
        <ele>424.399993896</ele>
        <time>2015-08-11T09:58:29.433Z</time>
      </trkpt>
      <trkpt lat="45.95559" lon="4.61037">
        <ele>424.799987793</ele>
        <time>2015-08-11T09:58:32.481Z</time>
      </trkpt>
      <trkpt lat="45.95556" lon="4.61038">
        <ele>424.700012207</ele>
        <time>2015-08-11T09:58:33.45Z</time>
      </trkpt>
      <trkpt lat="45.95551" lon="4.61043">
        <ele>424.799987793</ele>
        <time>2015-08-11T09:58:35.475Z</time>
      </trkpt>
      <trkpt lat="45.95548" lon="4.61046">
        <ele>424.799987793</ele>
        <time>2015-08-11T09:58:36.434Z</time>
      </trkpt>
      <trkpt lat="45.95544" lon="4.61053">
        <ele>424.899993896</ele>
        <time>2015-08-11T09:58:38.469Z</time>
      </trkpt>
      <trkpt lat="45.95541" lon="4.61058">
        <ele>425.200012207</ele>
        <time>2015-08-11T09:58:39.423Z</time>
      </trkpt>
      <trkpt lat="45.95537" lon="4.61068">
        <ele>425.5</ele>
        <time>2015-08-11T09:58:41.47Z</time>
      </trkpt>
      <trkpt lat="45.95534" lon="4.61072">
        <ele>425.5</ele>
        <time>2015-08-11T09:58:42.439Z</time>
      </trkpt>
      <trkpt lat="45.95531" lon="4.61082">
        <ele>425.899993896</ele>
        <time>2015-08-11T09:58:44.464Z</time>
      </trkpt>
      <trkpt lat="45.9553" lon="4.61087">
        <ele>426.200012207</ele>
        <time>2015-08-11T09:58:45.438Z</time>
      </trkpt>
      <trkpt lat="45.95528" lon="4.61096">
        <ele>426.399993896</ele>
        <time>2015-08-11T09:58:47.465Z</time>
      </trkpt>
      <trkpt lat="45.95525" lon="4.61101">
        <ele>426.600006104</ele>
        <time>2015-08-11T09:58:48.434Z</time>
      </trkpt>
      <trkpt lat="45.95523" lon="4.61106">
        <ele>426.600006104</ele>
        <time>2015-08-11T09:58:49.467Z</time>
      </trkpt>
      <trkpt lat="45.95521" lon="4.61113">
        <ele>426.600006104</ele>
        <time>2015-08-11T09:58:50.433Z</time>
      </trkpt>
      <trkpt lat="45.95519" lon="4.61124">
        <ele>426.899993896</ele>
        <time>2015-08-11T09:58:52.468Z</time>
      </trkpt>
      <trkpt lat="45.95518" lon="4.61129">
        <ele>427</ele>
        <time>2015-08-11T09:58:53.433Z</time>
      </trkpt>
      <trkpt lat="45.95516" lon="4.6114">
        <ele>427.200012207</ele>
        <time>2015-08-11T09:58:55.468Z</time>
      </trkpt>
      <trkpt lat="45.95515" lon="4.61145">
        <ele>427.299987793</ele>
        <time>2015-08-11T09:58:56.433Z</time>
      </trkpt>
      <trkpt lat="45.95514" lon="4.61156">
        <ele>427.399993896</ele>
        <time>2015-08-11T09:58:58.483Z</time>
      </trkpt>
      <trkpt lat="45.95514" lon="4.61161">
        <ele>427.399993896</ele>
        <time>2015-08-11T09:58:59.426Z</time>
      </trkpt>
      <trkpt lat="45.95516" lon="4.61172">
        <ele>427.700012207</ele>
        <time>2015-08-11T09:59:01.473Z</time>
      </trkpt>
      <trkpt lat="45.95515" lon="4.61177">
        <ele>427.700012207</ele>
        <time>2015-08-11T09:59:02.435Z</time>
      </trkpt>
      <trkpt lat="45.95514" lon="4.61186">
        <ele>427.299987793</ele>
        <time>2015-08-11T09:59:04.478Z</time>
      </trkpt>
      <trkpt lat="45.95512" lon="4.61192">
        <ele>427.200012207</ele>
        <time>2015-08-11T09:59:05.437Z</time>
      </trkpt>
      <trkpt lat="45.95512" lon="4.61201">
        <ele>427.299987793</ele>
        <time>2015-08-11T09:59:07.473Z</time>
      </trkpt>
      <trkpt lat="45.9551" lon="4.61205">
        <ele>427.299987793</ele>
        <time>2015-08-11T09:59:08.422Z</time>
      </trkpt>
      <trkpt lat="45.95509" lon="4.61218">
        <ele>427.700012207</ele>
        <time>2015-08-11T09:59:11.468Z</time>
      </trkpt>
      <trkpt lat="45.95509" lon="4.61222">
        <ele>427.899993896</ele>
        <time>2015-08-11T09:59:12.436Z</time>
      </trkpt>
      <trkpt lat="45.9551" lon="4.61231">
        <ele>427.899993896</ele>
        <time>2015-08-11T09:59:14.502Z</time>
      </trkpt>
      <trkpt lat="45.9551" lon="4.61235">
        <ele>428.100006104</ele>
        <time>2015-08-11T09:59:15.437Z</time>
      </trkpt>
      <trkpt lat="45.95511" lon="4.61248">
        <ele>428.5</ele>
        <time>2015-08-11T09:59:18.475Z</time>
      </trkpt>
      <trkpt lat="45.95511" lon="4.61251">
        <ele>428.700012207</ele>
        <time>2015-08-11T09:59:19.437Z</time>
      </trkpt>
      <trkpt lat="45.95511" lon="4.61261">
        <ele>429.200012207</ele>
        <time>2015-08-11T09:59:21.468Z</time>
      </trkpt>
      <trkpt lat="45.95511" lon="4.61264">
        <ele>429.5</ele>
        <time>2015-08-11T09:59:22.435Z</time>
      </trkpt>
      <trkpt lat="45.95512" lon="4.61276">
        <ele>429.600006104</ele>
        <time>2015-08-11T09:59:25.538Z</time>
      </trkpt>
      <trkpt lat="45.95515" lon="4.6128">
        <ele>429.799987793</ele>
        <time>2015-08-11T09:59:26.438Z</time>
      </trkpt>
      <trkpt lat="45.95518" lon="4.6129">
        <ele>429.799987793</ele>
        <time>2015-08-11T09:59:29.468Z</time>
      </trkpt>
      <trkpt lat="45.9552" lon="4.61293">
        <ele>429.899993896</ele>
        <time>2015-08-11T09:59:30.434Z</time>
      </trkpt>
      <trkpt lat="45.95524" lon="4.61299">
        <ele>429.799987793</ele>
        <time>2015-08-11T09:59:32.518Z</time>
      </trkpt>
      <trkpt lat="45.95527" lon="4.61303">
        <ele>429.600006104</ele>
        <time>2015-08-11T09:59:33.529Z</time>
      </trkpt>
      <trkpt lat="45.95531" lon="4.6131">
        <ele>429.5</ele>
        <time>2015-08-11T09:59:35.482Z</time>
      </trkpt>
      <trkpt lat="45.95532" lon="4.61314">
        <ele>429.5</ele>
        <time>2015-08-11T09:59:36.433Z</time>
      </trkpt>
      <trkpt lat="45.95536" lon="4.61323">
        <ele>429.200012207</ele>
        <time>2015-08-11T09:59:39.48Z</time>
      </trkpt>
      <trkpt lat="45.95538" lon="4.61325">
        <ele>428.899993896</ele>
        <time>2015-08-11T09:59:40.434Z</time>
      </trkpt>
      <trkpt lat="45.95543" lon="4.61336">
        <ele>428.700012207</ele>
        <time>2015-08-11T09:59:43.467Z</time>
      </trkpt>
      <trkpt lat="45.95544" lon="4.61339">
        <ele>428.600006104</ele>
        <time>2015-08-11T09:59:44.435Z</time>
      </trkpt>
      <trkpt lat="45.95548" lon="4.61347">
        <ele>428.600006104</ele>
        <time>2015-08-11T09:59:46.48Z</time>
      </trkpt>
      <trkpt lat="45.95549" lon="4.61351">
        <ele>428.700012207</ele>
        <time>2015-08-11T09:59:47.426Z</time>
      </trkpt>
      <trkpt lat="45.95551" lon="4.61359">
        <ele>429.100006104</ele>
        <time>2015-08-11T09:59:49.533Z</time>
      </trkpt>
      <trkpt lat="45.95551" lon="4.61363">
        <ele>429.600006104</ele>
        <time>2015-08-11T09:59:50.435Z</time>
      </trkpt>
      <trkpt lat="45.95554" lon="4.61375">
        <ele>430.600006104</ele>
        <time>2015-08-11T09:59:53.468Z</time>
      </trkpt>
      <trkpt lat="45.95555" lon="4.61378">
        <ele>430.899993896</ele>
        <time>2015-08-11T09:59:54.43Z</time>
      </trkpt>
      <trkpt lat="45.95557" lon="4.61391">
        <ele>431.899993896</ele>
        <time>2015-08-11T09:59:57.491Z</time>
      </trkpt>
      <trkpt lat="45.95557" lon="4.61394">
        <ele>432.299987793</ele>
        <time>2015-08-11T09:59:58.434Z</time>
      </trkpt>
      <trkpt lat="45.95559" lon="4.61403">
        <ele>432.799987793</ele>
        <time>2015-08-11T10:00:00.471Z</time>
      </trkpt>
      <trkpt lat="45.95559" lon="4.61407">
        <ele>433</ele>
        <time>2015-08-11T10:00:01.437Z</time>
      </trkpt>
      <trkpt lat="45.95559" lon="4.61419">
        <ele>432.899993896</ele>
        <time>2015-08-11T10:00:03.529Z</time>
      </trkpt>
      <trkpt lat="45.95561" lon="4.61423">
        <ele>433</ele>
        <time>2015-08-11T10:00:04.433Z</time>
      </trkpt>
      <trkpt lat="45.95562" lon="4.61433">
        <ele>434.100006104</ele>
        <time>2015-08-11T10:00:06.466Z</time>
      </trkpt>
      <trkpt lat="45.95562" lon="4.61439">
        <ele>434.399993896</ele>
        <time>2015-08-11T10:00:07.442Z</time>
      </trkpt>
      <trkpt lat="45.95562" lon="4.61448">
        <ele>434.799987793</ele>
        <time>2015-08-11T10:00:09.47Z</time>
      </trkpt>
      <trkpt lat="45.95562" lon="4.61453">
        <ele>435</ele>
        <time>2015-08-11T10:00:10.435Z</time>
      </trkpt>
      <trkpt lat="45.95562" lon="4.61464">
        <ele>435.700012207</ele>
        <time>2015-08-11T10:00:12.523Z</time>
      </trkpt>
      <trkpt lat="45.95562" lon="4.6147">
        <ele>435.799987793</ele>
        <time>2015-08-11T10:00:13.433Z</time>
      </trkpt>
      <trkpt lat="45.95562" lon="4.61482">
        <ele>435.600006104</ele>
        <time>2015-08-11T10:00:15.491Z</time>
      </trkpt>
      <trkpt lat="45.95562" lon="4.61489">
        <ele>435.600006104</ele>
        <time>2015-08-11T10:00:16.456Z</time>
      </trkpt>
      <trkpt lat="45.95562" lon="4.61496">
        <ele>435.600006104</ele>
        <time>2015-08-11T10:00:17.469Z</time>
      </trkpt>
      <trkpt lat="45.95561" lon="4.61503">
        <ele>435.700012207</ele>
        <time>2015-08-11T10:00:18.443Z</time>
      </trkpt>
      <trkpt lat="45.95561" lon="4.61509">
        <ele>436</ele>
        <time>2015-08-11T10:00:19.472Z</time>
      </trkpt>
      <trkpt lat="45.9556" lon="4.61516">
        <ele>436.200012207</ele>
        <time>2015-08-11T10:00:20.434Z</time>
      </trkpt>
      <trkpt lat="45.9556" lon="4.61524">
        <ele>436.299987793</ele>
        <time>2015-08-11T10:00:21.465Z</time>
      </trkpt>
      <trkpt lat="45.95559" lon="4.61533">
        <ele>436.200012207</ele>
        <time>2015-08-11T10:00:22.431Z</time>
      </trkpt>
      <trkpt lat="45.95559" lon="4.61541">
        <ele>436.399993896</ele>
        <time>2015-08-11T10:00:23.465Z</time>
      </trkpt>
      <trkpt lat="45.95558" lon="4.61549">
        <ele>436.5</ele>
        <time>2015-08-11T10:00:24.436Z</time>
      </trkpt>
      <trkpt lat="45.95556" lon="4.61558">
        <ele>436.700012207</ele>
        <time>2015-08-11T10:00:25.476Z</time>
      </trkpt>
      <trkpt lat="45.95554" lon="4.61566">
        <ele>436.700012207</ele>
        <time>2015-08-11T10:00:26.434Z</time>
      </trkpt>
      <trkpt lat="45.95552" lon="4.61574">
        <ele>436.799987793</ele>
        <time>2015-08-11T10:00:27.486Z</time>
      </trkpt>
      <trkpt lat="45.95549" lon="4.61582">
        <ele>436.899993896</ele>
        <time>2015-08-11T10:00:28.432Z</time>
      </trkpt>
      <trkpt lat="45.95546" lon="4.61591">
        <ele>436.600006104</ele>
        <time>2015-08-11T10:00:29.469Z</time>
      </trkpt>
      <trkpt lat="45.95544" lon="4.61599">
        <ele>436.299987793</ele>
        <time>2015-08-11T10:00:30.436Z</time>
      </trkpt>
      <trkpt lat="45.9554" lon="4.61607">
        <ele>436.299987793</ele>
        <time>2015-08-11T10:00:31.544Z</time>
      </trkpt>
      <trkpt lat="45.95537" lon="4.61616">
        <ele>435.899993896</ele>
        <time>2015-08-11T10:00:32.436Z</time>
      </trkpt>
      <trkpt lat="45.95533" lon="4.61624">
        <ele>435.899993896</ele>
        <time>2015-08-11T10:00:33.466Z</time>
      </trkpt>
      <trkpt lat="45.95529" lon="4.61634">
        <ele>436.100006104</ele>
        <time>2015-08-11T10:00:34.434Z</time>
      </trkpt>
      <trkpt lat="45.95525" lon="4.61643">
        <ele>436.200012207</ele>
        <time>2015-08-11T10:00:35.47Z</time>
      </trkpt>
      <trkpt lat="45.95521" lon="4.61653">
        <ele>436</ele>
        <time>2015-08-11T10:00:36.435Z</time>
      </trkpt>
      <trkpt lat="45.95516" lon="4.61661">
        <ele>435.899993896</ele>
        <time>2015-08-11T10:00:37.47Z</time>
      </trkpt>
      <trkpt lat="45.9551" lon="4.61669">
        <ele>435.799987793</ele>
        <time>2015-08-11T10:00:38.423Z</time>
      </trkpt>
      <trkpt lat="45.95504" lon="4.61676">
        <ele>435.399993896</ele>
        <time>2015-08-11T10:00:39.479Z</time>
      </trkpt>
      <trkpt lat="45.95498" lon="4.61683">
        <ele>434.5</ele>
        <time>2015-08-11T10:00:40.436Z</time>
      </trkpt>
      <trkpt lat="45.95491" lon="4.6169">
        <ele>434.100006104</ele>
        <time>2015-08-11T10:00:41.575Z</time>
      </trkpt>
      <trkpt lat="45.95483" lon="4.61696">
        <ele>433.600006104</ele>
        <time>2015-08-11T10:00:42.43Z</time>
      </trkpt>
      <trkpt lat="45.95475" lon="4.617">
        <ele>433</ele>
        <time>2015-08-11T10:00:43.488Z</time>
      </trkpt>
      <trkpt lat="45.95466" lon="4.61703">
        <ele>432.5</ele>
        <time>2015-08-11T10:00:44.434Z</time>
      </trkpt>
      <trkpt lat="45.95466" lon="4.61703">
        <ele>432.5</ele>
        <time>2015-08-11T10:00:44.486Z</time>
      </trkpt>
      <trkpt lat="45.95457" lon="4.61705">
        <ele>431.899993896</ele>
        <time>2015-08-11T10:00:45.436Z</time>
      </trkpt>
      <trkpt lat="45.95457" lon="4.61705">
        <ele>431.899993896</ele>
        <time>2015-08-11T10:00:45.491Z</time>
      </trkpt>
      <trkpt lat="45.95447" lon="4.61705">
        <ele>431.299987793</ele>
        <time>2015-08-11T10:00:46.436Z</time>
      </trkpt>
      <trkpt lat="45.95447" lon="4.61705">
        <ele>431.299987793</ele>
        <time>2015-08-11T10:00:46.488Z</time>
      </trkpt>
      <trkpt lat="45.95438" lon="4.61704">
        <ele>430.799987793</ele>
        <time>2015-08-11T10:00:47.435Z</time>
      </trkpt>
      <trkpt lat="45.95438" lon="4.61704">
        <ele>430.799987793</ele>
        <time>2015-08-11T10:00:47.488Z</time>
      </trkpt>
      <trkpt lat="45.95429" lon="4.61702">
        <ele>430.399993896</ele>
        <time>2015-08-11T10:00:48.434Z</time>
      </trkpt>
      <trkpt lat="45.9542" lon="4.61702">
        <ele>429.700012207</ele>
        <time>2015-08-11T10:00:49.471Z</time>
      </trkpt>
      <trkpt lat="45.95411" lon="4.61699">
        <ele>429.100006104</ele>
        <time>2015-08-11T10:00:50.434Z</time>
      </trkpt>
      <trkpt lat="45.95411" lon="4.61699">
        <ele>429.100006104</ele>
        <time>2015-08-11T10:00:50.592Z</time>
      </trkpt>
      <trkpt lat="45.95402" lon="4.61698">
        <ele>428.399993896</ele>
        <time>2015-08-11T10:00:51.436Z</time>
      </trkpt>
      <trkpt lat="45.95402" lon="4.61698">
        <ele>428.399993896</ele>
        <time>2015-08-11T10:00:51.475Z</time>
      </trkpt>
      <trkpt lat="45.95392" lon="4.61697">
        <ele>428</ele>
        <time>2015-08-11T10:00:52.436Z</time>
      </trkpt>
      <trkpt lat="45.95392" lon="4.61697">
        <ele>428</ele>
        <time>2015-08-11T10:00:52.485Z</time>
      </trkpt>
      <trkpt lat="45.95383" lon="4.61696">
        <ele>427.600006104</ele>
        <time>2015-08-11T10:00:53.434Z</time>
      </trkpt>
      <trkpt lat="45.95374" lon="4.61695">
        <ele>427.299987793</ele>
        <time>2015-08-11T10:00:54.469Z</time>
      </trkpt>
      <trkpt lat="45.95365" lon="4.61695">
        <ele>426.899993896</ele>
        <time>2015-08-11T10:00:55.44Z</time>
      </trkpt>
      <trkpt lat="45.95365" lon="4.61695">
        <ele>426.899993896</ele>
        <time>2015-08-11T10:00:55.492Z</time>
      </trkpt>
      <trkpt lat="45.95355" lon="4.61695">
        <ele>426.399993896</ele>
        <time>2015-08-11T10:00:56.422Z</time>
      </trkpt>
      <trkpt lat="45.95355" lon="4.61695">
        <ele>426.399993896</ele>
        <time>2015-08-11T10:00:56.477Z</time>
      </trkpt>
      <trkpt lat="45.95346" lon="4.61696">
        <ele>425.899993896</ele>
        <time>2015-08-11T10:00:57.435Z</time>
      </trkpt>
      <trkpt lat="45.95346" lon="4.61696">
        <ele>425.899993896</ele>
        <time>2015-08-11T10:00:57.495Z</time>
      </trkpt>
      <trkpt lat="45.95337" lon="4.61698">
        <ele>425.700012207</ele>
        <time>2015-08-11T10:00:58.422Z</time>
      </trkpt>
      <trkpt lat="45.95328" lon="4.617">
        <ele>425.399993896</ele>
        <time>2015-08-11T10:00:59.483Z</time>
      </trkpt>
      <trkpt lat="45.95319" lon="4.61702">
        <ele>425.100006104</ele>
        <time>2015-08-11T10:01:00.436Z</time>
      </trkpt>
      <trkpt lat="45.95311" lon="4.61705">
        <ele>424.700012207</ele>
        <time>2015-08-11T10:01:01.471Z</time>
      </trkpt>
      <trkpt lat="45.95302" lon="4.61708">
        <ele>424.299987793</ele>
        <time>2015-08-11T10:01:02.435Z</time>
      </trkpt>
      <trkpt lat="45.95295" lon="4.61712">
        <ele>424.100006104</ele>
        <time>2015-08-11T10:01:03.465Z</time>
      </trkpt>
      <trkpt lat="45.95286" lon="4.61715">
        <ele>423.899993896</ele>
        <time>2015-08-11T10:01:04.422Z</time>
      </trkpt>
      <trkpt lat="45.95279" lon="4.61722">
        <ele>423.700012207</ele>
        <time>2015-08-11T10:01:05.473Z</time>
      </trkpt>
      <trkpt lat="45.95272" lon="4.6173">
        <ele>423.600006104</ele>
        <time>2015-08-11T10:01:06.434Z</time>
      </trkpt>
      <trkpt lat="45.95272" lon="4.6173">
        <ele>423.600006104</ele>
        <time>2015-08-11T10:01:06.488Z</time>
      </trkpt>
      <trkpt lat="45.95265" lon="4.61739">
        <ele>423.5</ele>
        <time>2015-08-11T10:01:07.437Z</time>
      </trkpt>
      <trkpt lat="45.95261" lon="4.61748">
        <ele>423.299987793</ele>
        <time>2015-08-11T10:01:08.533Z</time>
      </trkpt>
      <trkpt lat="45.95257" lon="4.61758">
        <ele>423.200012207</ele>
        <time>2015-08-11T10:01:09.451Z</time>
      </trkpt>
      <trkpt lat="45.95254" lon="4.61766">
        <ele>422.799987793</ele>
        <time>2015-08-11T10:01:10.467Z</time>
      </trkpt>
      <trkpt lat="45.95251" lon="4.61775">
        <ele>422.600006104</ele>
        <time>2015-08-11T10:01:11.434Z</time>
      </trkpt>
      <trkpt lat="45.95251" lon="4.61783">
        <ele>422.399993896</ele>
        <time>2015-08-11T10:01:12.469Z</time>
      </trkpt>
      <trkpt lat="45.95249" lon="4.61791">
        <ele>422.299987793</ele>
        <time>2015-08-11T10:01:13.437Z</time>
      </trkpt>
      <trkpt lat="45.95245" lon="4.61798">
        <ele>422.100006104</ele>
        <time>2015-08-11T10:01:14.468Z</time>
      </trkpt>
      <trkpt lat="45.95242" lon="4.61805">
        <ele>421.899993896</ele>
        <time>2015-08-11T10:01:15.437Z</time>
      </trkpt>
      <trkpt lat="45.95239" lon="4.61812">
        <ele>421.700012207</ele>
        <time>2015-08-11T10:01:16.504Z</time>
      </trkpt>
      <trkpt lat="45.95235" lon="4.61818">
        <ele>421.600006104</ele>
        <time>2015-08-11T10:01:17.436Z</time>
      </trkpt>
      <trkpt lat="45.95232" lon="4.61825">
        <ele>421.399993896</ele>
        <time>2015-08-11T10:01:18.468Z</time>
      </trkpt>
      <trkpt lat="45.9523" lon="4.61832">
        <ele>421.5</ele>
        <time>2015-08-11T10:01:19.437Z</time>
      </trkpt>
      <trkpt lat="45.95226" lon="4.61841">
        <ele>420.600006104</ele>
        <time>2015-08-11T10:01:21.473Z</time>
      </trkpt>
      <trkpt lat="45.95224" lon="4.61847">
        <ele>420.200012207</ele>
        <time>2015-08-11T10:01:22.434Z</time>
      </trkpt>
      <trkpt lat="45.95221" lon="4.61852">
        <ele>419.899993896</ele>
        <time>2015-08-11T10:01:23.466Z</time>
      </trkpt>
      <trkpt lat="45.95218" lon="4.61858">
        <ele>419.600006104</ele>
        <time>2015-08-11T10:01:24.434Z</time>
      </trkpt>
      <trkpt lat="45.95214" lon="4.61862">
        <ele>419.200012207</ele>
        <time>2015-08-11T10:01:25.493Z</time>
      </trkpt>
      <trkpt lat="45.9521" lon="4.61867">
        <ele>419</ele>
        <time>2015-08-11T10:01:26.434Z</time>
      </trkpt>
      <trkpt lat="45.95207" lon="4.61874">
        <ele>418.899993896</ele>
        <time>2015-08-11T10:01:27.503Z</time>
      </trkpt>
      <trkpt lat="45.95204" lon="4.61881">
        <ele>418.700012207</ele>
        <time>2015-08-11T10:01:28.434Z</time>
      </trkpt>
      <trkpt lat="45.95201" lon="4.61886">
        <ele>418.600006104</ele>
        <time>2015-08-11T10:01:29.465Z</time>
      </trkpt>
      <trkpt lat="45.95198" lon="4.61892">
        <ele>418.600006104</ele>
        <time>2015-08-11T10:01:30.422Z</time>
      </trkpt>
      <trkpt lat="45.95194" lon="4.61897">
        <ele>418.399993896</ele>
        <time>2015-08-11T10:01:31.472Z</time>
      </trkpt>
      <trkpt lat="45.95189" lon="4.61902">
        <ele>418.200012207</ele>
        <time>2015-08-11T10:01:32.435Z</time>
      </trkpt>
      <trkpt lat="45.95185" lon="4.61906">
        <ele>418.100006104</ele>
        <time>2015-08-11T10:01:33.473Z</time>
      </trkpt>
      <trkpt lat="45.95181" lon="4.61909">
        <ele>418</ele>
        <time>2015-08-11T10:01:34.434Z</time>
      </trkpt>
      <trkpt lat="45.95175" lon="4.61915">
        <ele>418.200012207</ele>
        <time>2015-08-11T10:01:35.491Z</time>
      </trkpt>
      <trkpt lat="45.95169" lon="4.6192">
        <ele>418.5</ele>
        <time>2015-08-11T10:01:36.449Z</time>
      </trkpt>
      <trkpt lat="45.95164" lon="4.61926">
        <ele>418.399993896</ele>
        <time>2015-08-11T10:01:37.477Z</time>
      </trkpt>
      <trkpt lat="45.95158" lon="4.6193">
        <ele>418.700012207</ele>
        <time>2015-08-11T10:01:38.434Z</time>
      </trkpt>
      <trkpt lat="45.95153" lon="4.61933">
        <ele>419.100006104</ele>
        <time>2015-08-11T10:01:39.478Z</time>
      </trkpt>
      <trkpt lat="45.95149" lon="4.61936">
        <ele>419.100006104</ele>
        <time>2015-08-11T10:01:40.432Z</time>
      </trkpt>
      <trkpt lat="45.95144" lon="4.61939">
        <ele>419</ele>
        <time>2015-08-11T10:01:41.469Z</time>
      </trkpt>
      <trkpt lat="45.9514" lon="4.61942">
        <ele>419</ele>
        <time>2015-08-11T10:01:42.422Z</time>
      </trkpt>
      <trkpt lat="45.95132" lon="4.61946">
        <ele>419</ele>
        <time>2015-08-11T10:01:44.465Z</time>
      </trkpt>
      <trkpt lat="45.95127" lon="4.61949">
        <ele>419</ele>
        <time>2015-08-11T10:01:45.438Z</time>
      </trkpt>
      <trkpt lat="45.95122" lon="4.61951">
        <ele>418.899993896</ele>
        <time>2015-08-11T10:01:46.475Z</time>
      </trkpt>
      <trkpt lat="45.95117" lon="4.61954">
        <ele>418.799987793</ele>
        <time>2015-08-11T10:01:47.436Z</time>
      </trkpt>
      <trkpt lat="45.95111" lon="4.61957">
        <ele>418.799987793</ele>
        <time>2015-08-11T10:01:48.465Z</time>
      </trkpt>
      <trkpt lat="45.95105" lon="4.61958">
        <ele>418.600006104</ele>
        <time>2015-08-11T10:01:49.435Z</time>
      </trkpt>
      <trkpt lat="45.951" lon="4.61959">
        <ele>418.5</ele>
        <time>2015-08-11T10:01:50.465Z</time>
      </trkpt>
      <trkpt lat="45.95094" lon="4.61961">
        <ele>418.5</ele>
        <time>2015-08-11T10:01:51.422Z</time>
      </trkpt>
      <trkpt lat="45.9509" lon="4.61963">
        <ele>418.399993896</ele>
        <time>2015-08-11T10:01:52.463Z</time>
      </trkpt>
      <trkpt lat="45.95084" lon="4.61964">
        <ele>418.399993896</ele>
        <time>2015-08-11T10:01:53.435Z</time>
      </trkpt>
      <trkpt lat="45.95078" lon="4.61967">
        <ele>418.200012207</ele>
        <time>2015-08-11T10:01:54.464Z</time>
      </trkpt>
      <trkpt lat="45.95069" lon="4.61972">
        <ele>417.799987793</ele>
        <time>2015-08-11T10:01:55.436Z</time>
      </trkpt>
      <trkpt lat="45.95063" lon="4.61975">
        <ele>417.600006104</ele>
        <time>2015-08-11T10:01:56.546Z</time>
      </trkpt>
      <trkpt lat="45.95055" lon="4.61979">
        <ele>417.299987793</ele>
        <time>2015-08-11T10:01:57.437Z</time>
      </trkpt>
      <trkpt lat="45.95047" lon="4.61982">
        <ele>417</ele>
        <time>2015-08-11T10:01:58.464Z</time>
      </trkpt>
      <trkpt lat="45.95041" lon="4.61986">
        <ele>416.799987793</ele>
        <time>2015-08-11T10:01:59.434Z</time>
      </trkpt>
      <trkpt lat="45.95034" lon="4.6199">
        <ele>416.600006104</ele>
        <time>2015-08-11T10:02:00.466Z</time>
      </trkpt>
      <trkpt lat="45.95028" lon="4.61995">
        <ele>416.399993896</ele>
        <time>2015-08-11T10:02:01.435Z</time>
      </trkpt>
      <trkpt lat="45.95022" lon="4.61999">
        <ele>416.200012207</ele>
        <time>2015-08-11T10:02:02.469Z</time>
      </trkpt>
      <trkpt lat="45.95015" lon="4.62003">
        <ele>416.100006104</ele>
        <time>2015-08-11T10:02:03.435Z</time>
      </trkpt>
      <trkpt lat="45.95008" lon="4.62007">
        <ele>416</ele>
        <time>2015-08-11T10:02:04.487Z</time>
      </trkpt>
      <trkpt lat="45.95" lon="4.6201">
        <ele>415.899993896</ele>
        <time>2015-08-11T10:02:05.438Z</time>
      </trkpt>
      <trkpt lat="45.94992" lon="4.62013">
        <ele>415.799987793</ele>
        <time>2015-08-11T10:02:06.467Z</time>
      </trkpt>
      <trkpt lat="45.94985" lon="4.62017">
        <ele>415.700012207</ele>
        <time>2015-08-11T10:02:07.435Z</time>
      </trkpt>
      <trkpt lat="45.94977" lon="4.62021">
        <ele>415.5</ele>
        <time>2015-08-11T10:02:08.469Z</time>
      </trkpt>
      <trkpt lat="45.94971" lon="4.62025">
        <ele>415.299987793</ele>
        <time>2015-08-11T10:02:09.437Z</time>
      </trkpt>
      <trkpt lat="45.94963" lon="4.62029">
        <ele>415.100006104</ele>
        <time>2015-08-11T10:02:10.473Z</time>
      </trkpt>
      <trkpt lat="45.94956" lon="4.62033">
        <ele>414.899993896</ele>
        <time>2015-08-11T10:02:11.422Z</time>
      </trkpt>
      <trkpt lat="45.94949" lon="4.62038">
        <ele>414.799987793</ele>
        <time>2015-08-11T10:02:12.465Z</time>
      </trkpt>
      <trkpt lat="45.94942" lon="4.62042">
        <ele>414.5</ele>
        <time>2015-08-11T10:02:13.439Z</time>
      </trkpt>
      <trkpt lat="45.94936" lon="4.62047">
        <ele>414.200012207</ele>
        <time>2015-08-11T10:02:14.477Z</time>
      </trkpt>
      <trkpt lat="45.94929" lon="4.62051">
        <ele>414</ele>
        <time>2015-08-11T10:02:15.439Z</time>
      </trkpt>
      <trkpt lat="45.94922" lon="4.62054">
        <ele>413.799987793</ele>
        <time>2015-08-11T10:02:16.468Z</time>
      </trkpt>
      <trkpt lat="45.94914" lon="4.62055">
        <ele>413.399993896</ele>
        <time>2015-08-11T10:02:17.494Z</time>
      </trkpt>
      <trkpt lat="45.94906" lon="4.62054">
        <ele>413.100006104</ele>
        <time>2015-08-11T10:02:18.466Z</time>
      </trkpt>
      <trkpt lat="45.94898" lon="4.62054">
        <ele>413.200012207</ele>
        <time>2015-08-11T10:02:19.458Z</time>
      </trkpt>
      <trkpt lat="45.94891" lon="4.62054">
        <ele>413.5</ele>
        <time>2015-08-11T10:02:20.479Z</time>
      </trkpt>
      <trkpt lat="45.94882" lon="4.62053">
        <ele>413.299987793</ele>
        <time>2015-08-11T10:02:21.434Z</time>
      </trkpt>
      <trkpt lat="45.94882" lon="4.62053">
        <ele>413.299987793</ele>
        <time>2015-08-11T10:02:21.483Z</time>
      </trkpt>
      <trkpt lat="45.94871" lon="4.62054">
        <ele>413.399993896</ele>
        <time>2015-08-11T10:02:22.435Z</time>
      </trkpt>
      <trkpt lat="45.94871" lon="4.62054">
        <ele>413.399993896</ele>
        <time>2015-08-11T10:02:22.489Z</time>
      </trkpt>
      <trkpt lat="45.94861" lon="4.62055">
        <ele>413.299987793</ele>
        <time>2015-08-11T10:02:23.435Z</time>
      </trkpt>
      <trkpt lat="45.94861" lon="4.62055">
        <ele>413.299987793</ele>
        <time>2015-08-11T10:02:23.478Z</time>
      </trkpt>
      <trkpt lat="45.94852" lon="4.62057">
        <ele>413</ele>
        <time>2015-08-11T10:02:24.432Z</time>
      </trkpt>
      <trkpt lat="45.94844" lon="4.62058">
        <ele>412.700012207</ele>
        <time>2015-08-11T10:02:25.474Z</time>
      </trkpt>
      <trkpt lat="45.94836" lon="4.62059">
        <ele>412.700012207</ele>
        <time>2015-08-11T10:02:26.436Z</time>
      </trkpt>
      <trkpt lat="45.94828" lon="4.62059">
        <ele>412.399993896</ele>
        <time>2015-08-11T10:02:27.469Z</time>
      </trkpt>
      <trkpt lat="45.9482" lon="4.62059">
        <ele>412.200012207</ele>
        <time>2015-08-11T10:02:28.431Z</time>
      </trkpt>
      <trkpt lat="45.94812" lon="4.62058">
        <ele>411.899993896</ele>
        <time>2015-08-11T10:02:29.473Z</time>
      </trkpt>
      <trkpt lat="45.94806" lon="4.62057">
        <ele>411.399993896</ele>
        <time>2015-08-11T10:02:30.422Z</time>
      </trkpt>
      <trkpt lat="45.94799" lon="4.62051">
        <ele>411.100006104</ele>
        <time>2015-08-11T10:02:31.468Z</time>
      </trkpt>
      <trkpt lat="45.94793" lon="4.62043">
        <ele>411</ele>
        <time>2015-08-11T10:02:32.435Z</time>
      </trkpt>
      <trkpt lat="45.94786" lon="4.62039">
        <ele>410.899993896</ele>
        <time>2015-08-11T10:02:33.482Z</time>
      </trkpt>
      <trkpt lat="45.94779" lon="4.62035">
        <ele>410.799987793</ele>
        <time>2015-08-11T10:02:34.435Z</time>
      </trkpt>
      <trkpt lat="45.94774" lon="4.62033">
        <ele>410.600006104</ele>
        <time>2015-08-11T10:02:35.474Z</time>
      </trkpt>
      <trkpt lat="45.94767" lon="4.62031">
        <ele>410.399993896</ele>
        <time>2015-08-11T10:02:36.435Z</time>
      </trkpt>
      <trkpt lat="45.9476" lon="4.6203">
        <ele>410.100006104</ele>
        <time>2015-08-11T10:02:37.484Z</time>
      </trkpt>
      <trkpt lat="45.94753" lon="4.62031">
        <ele>409.799987793</ele>
        <time>2015-08-11T10:02:38.437Z</time>
      </trkpt>
      <trkpt lat="45.94745" lon="4.62032">
        <ele>409.5</ele>
        <time>2015-08-11T10:02:39.469Z</time>
      </trkpt>
      <trkpt lat="45.94738" lon="4.62036">
        <ele>409.200012207</ele>
        <time>2015-08-11T10:02:40.422Z</time>
      </trkpt>
      <trkpt lat="45.94731" lon="4.6204">
        <ele>409.100006104</ele>
        <time>2015-08-11T10:02:41.468Z</time>
      </trkpt>
      <trkpt lat="45.94725" lon="4.62043">
        <ele>409</ele>
        <time>2015-08-11T10:02:42.435Z</time>
      </trkpt>
      <trkpt lat="45.94719" lon="4.62047">
        <ele>408.799987793</ele>
        <time>2015-08-11T10:02:43.509Z</time>
      </trkpt>
      <trkpt lat="45.94712" lon="4.6205">
        <ele>408.600006104</ele>
        <time>2015-08-11T10:02:44.418Z</time>
      </trkpt>
      <trkpt lat="45.94706" lon="4.62054">
        <ele>408.200012207</ele>
        <time>2015-08-11T10:02:45.478Z</time>
      </trkpt>
      <trkpt lat="45.94699" lon="4.62057">
        <ele>407.899993896</ele>
        <time>2015-08-11T10:02:46.427Z</time>
      </trkpt>
      <trkpt lat="45.94691" lon="4.6206">
        <ele>407.600006104</ele>
        <time>2015-08-11T10:02:47.469Z</time>
      </trkpt>
      <trkpt lat="45.94683" lon="4.62063">
        <ele>407.200012207</ele>
        <time>2015-08-11T10:02:48.434Z</time>
      </trkpt>
      <trkpt lat="45.94675" lon="4.62065">
        <ele>406.899993896</ele>
        <time>2015-08-11T10:02:49.484Z</time>
      </trkpt>
      <trkpt lat="45.94668" lon="4.62068">
        <ele>406.600006104</ele>
        <time>2015-08-11T10:02:50.432Z</time>
      </trkpt>
      <trkpt lat="45.94663" lon="4.62069">
        <ele>406.299987793</ele>
        <time>2015-08-11T10:02:51.468Z</time>
      </trkpt>
      <trkpt lat="45.94657" lon="4.62073">
        <ele>406.100006104</ele>
        <time>2015-08-11T10:02:52.434Z</time>
      </trkpt>
      <trkpt lat="45.9465" lon="4.62078">
        <ele>405.899993896</ele>
        <time>2015-08-11T10:02:53.465Z</time>
      </trkpt>
      <trkpt lat="45.94639" lon="4.62082">
        <ele>405.5</ele>
        <time>2015-08-11T10:02:54.473Z</time>
      </trkpt>
      <trkpt lat="45.94632" lon="4.62086">
        <ele>405.100006104</ele>
        <time>2015-08-11T10:02:55.479Z</time>
      </trkpt>
      <trkpt lat="45.94624" lon="4.62092">
        <ele>404.799987793</ele>
        <time>2015-08-11T10:02:56.434Z</time>
      </trkpt>
      <trkpt lat="45.94618" lon="4.62097">
        <ele>404.399993896</ele>
        <time>2015-08-11T10:02:57.47Z</time>
      </trkpt>
      <trkpt lat="45.94611" lon="4.62103">
        <ele>404</ele>
        <time>2015-08-11T10:02:58.434Z</time>
      </trkpt>
      <trkpt lat="45.94605" lon="4.62109">
        <ele>403.700012207</ele>
        <time>2015-08-11T10:02:59.479Z</time>
      </trkpt>
      <trkpt lat="45.94599" lon="4.62114">
        <ele>403.5</ele>
        <time>2015-08-11T10:03:00.435Z</time>
      </trkpt>
      <trkpt lat="45.94593" lon="4.62121">
        <ele>403.399993896</ele>
        <time>2015-08-11T10:03:01.467Z</time>
      </trkpt>
      <trkpt lat="45.94588" lon="4.62128">
        <ele>403.5</ele>
        <time>2015-08-11T10:03:02.435Z</time>
      </trkpt>
      <trkpt lat="45.94583" lon="4.62135">
        <ele>403.600006104</ele>
        <time>2015-08-11T10:03:03.511Z</time>
      </trkpt>
      <trkpt lat="45.94578" lon="4.62143">
        <ele>403.600006104</ele>
        <time>2015-08-11T10:03:04.436Z</time>
      </trkpt>
      <trkpt lat="45.94574" lon="4.62151">
        <ele>403.600006104</ele>
        <time>2015-08-11T10:03:05.497Z</time>
      </trkpt>
      <trkpt lat="45.9457" lon="4.62159">
        <ele>403.5</ele>
        <time>2015-08-11T10:03:06.434Z</time>
      </trkpt>
      <trkpt lat="45.94566" lon="4.62166">
        <ele>403.399993896</ele>
        <time>2015-08-11T10:03:07.468Z</time>
      </trkpt>
      <trkpt lat="45.94562" lon="4.62173">
        <ele>403.299987793</ele>
        <time>2015-08-11T10:03:08.434Z</time>
      </trkpt>
      <trkpt lat="45.94557" lon="4.6218">
        <ele>403.200012207</ele>
        <time>2015-08-11T10:03:09.468Z</time>
      </trkpt>
      <trkpt lat="45.94554" lon="4.62188">
        <ele>403.299987793</ele>
        <time>2015-08-11T10:03:10.452Z</time>
      </trkpt>
      <trkpt lat="45.9455" lon="4.62195">
        <ele>403.200012207</ele>
        <time>2015-08-11T10:03:11.468Z</time>
      </trkpt>
      <trkpt lat="45.94546" lon="4.62202">
        <ele>403.399993896</ele>
        <time>2015-08-11T10:03:12.427Z</time>
      </trkpt>
      <trkpt lat="45.94542" lon="4.6221">
        <ele>403.200012207</ele>
        <time>2015-08-11T10:03:13.492Z</time>
      </trkpt>
      <trkpt lat="45.94537" lon="4.62217">
        <ele>403.100006104</ele>
        <time>2015-08-11T10:03:14.434Z</time>
      </trkpt>
      <trkpt lat="45.94533" lon="4.62223">
        <ele>403</ele>
        <time>2015-08-11T10:03:15.48Z</time>
      </trkpt>
      <trkpt lat="45.94528" lon="4.62229">
        <ele>402.899993896</ele>
        <time>2015-08-11T10:03:16.435Z</time>
      </trkpt>
      <trkpt lat="45.94524" lon="4.62235">
        <ele>403.399993896</ele>
        <time>2015-08-11T10:03:17.466Z</time>
      </trkpt>
      <trkpt lat="45.94519" lon="4.62239">
        <ele>403.399993896</ele>
        <time>2015-08-11T10:03:18.422Z</time>
      </trkpt>
      <trkpt lat="45.94513" lon="4.62243">
        <ele>403.600006104</ele>
        <time>2015-08-11T10:03:19.467Z</time>
      </trkpt>
      <trkpt lat="45.94508" lon="4.62246">
        <ele>403.600006104</ele>
        <time>2015-08-11T10:03:20.433Z</time>
      </trkpt>
      <trkpt lat="45.94504" lon="4.6225">
        <ele>402.899993896</ele>
        <time>2015-08-11T10:03:21.521Z</time>
      </trkpt>
      <trkpt lat="45.94501" lon="4.62254">
        <ele>402.899993896</ele>
        <time>2015-08-11T10:03:22.432Z</time>
      </trkpt>
      <trkpt lat="45.94499" lon="4.62259">
        <ele>402.799987793</ele>
        <time>2015-08-11T10:03:23.477Z</time>
      </trkpt>
      <trkpt lat="45.94494" lon="4.62261">
        <ele>402.700012207</ele>
        <time>2015-08-11T10:03:24.434Z</time>
      </trkpt>
      <trkpt lat="45.94489" lon="4.62264">
        <ele>402.5</ele>
        <time>2015-08-11T10:03:25.486Z</time>
      </trkpt>
      <trkpt lat="45.94483" lon="4.62267">
        <ele>402.600006104</ele>
        <time>2015-08-11T10:03:26.43Z</time>
      </trkpt>
      <trkpt lat="45.94478" lon="4.62271">
        <ele>402.799987793</ele>
        <time>2015-08-11T10:03:27.469Z</time>
      </trkpt>
      <trkpt lat="45.94471" lon="4.62274">
        <ele>403</ele>
        <time>2015-08-11T10:03:28.434Z</time>
      </trkpt>
      <trkpt lat="45.94466" lon="4.62276">
        <ele>403</ele>
        <time>2015-08-11T10:03:29.469Z</time>
      </trkpt>
      <trkpt lat="45.94459" lon="4.62279">
        <ele>403.100006104</ele>
        <time>2015-08-11T10:03:30.435Z</time>
      </trkpt>
      <trkpt lat="45.94454" lon="4.62282">
        <ele>403</ele>
        <time>2015-08-11T10:03:31.502Z</time>
      </trkpt>
      <trkpt lat="45.94449" lon="4.62285">
        <ele>403.100006104</ele>
        <time>2015-08-11T10:03:32.435Z</time>
      </trkpt>
      <trkpt lat="45.94445" lon="4.62288">
        <ele>402.5</ele>
        <time>2015-08-11T10:03:33.469Z</time>
      </trkpt>
      <trkpt lat="45.9444" lon="4.6229">
        <ele>402.100006104</ele>
        <time>2015-08-11T10:03:34.434Z</time>
      </trkpt>
      <trkpt lat="45.94433" lon="4.62293">
        <ele>401.700012207</ele>
        <time>2015-08-11T10:03:35.484Z</time>
      </trkpt>
      <trkpt lat="45.94426" lon="4.62296">
        <ele>401.600006104</ele>
        <time>2015-08-11T10:03:36.422Z</time>
      </trkpt>
      <trkpt lat="45.94419" lon="4.62301">
        <ele>401.5</ele>
        <time>2015-08-11T10:03:37.491Z</time>
      </trkpt>
      <trkpt lat="45.94412" lon="4.62304">
        <ele>401.399993896</ele>
        <time>2015-08-11T10:03:38.434Z</time>
      </trkpt>
      <trkpt lat="45.94404" lon="4.62308">
        <ele>401.5</ele>
        <time>2015-08-11T10:03:39.515Z</time>
      </trkpt>
      <trkpt lat="45.94396" lon="4.62311">
        <ele>401.299987793</ele>
        <time>2015-08-11T10:03:40.434Z</time>
      </trkpt>
      <trkpt lat="45.94388" lon="4.62315">
        <ele>401</ele>
        <time>2015-08-11T10:03:41.467Z</time>
      </trkpt>
      <trkpt lat="45.94379" lon="4.62319">
        <ele>400.799987793</ele>
        <time>2015-08-11T10:03:42.421Z</time>
      </trkpt>
      <trkpt lat="45.94379" lon="4.62319">
        <ele>400.799987793</ele>
        <time>2015-08-11T10:03:42.538Z</time>
      </trkpt>
      <trkpt lat="45.94371" lon="4.62323">
        <ele>400.399993896</ele>
        <time>2015-08-11T10:03:43.438Z</time>
      </trkpt>
      <trkpt lat="45.94371" lon="4.62323">
        <ele>400.399993896</ele>
        <time>2015-08-11T10:03:43.471Z</time>
      </trkpt>
      <trkpt lat="45.94362" lon="4.62327">
        <ele>400.100006104</ele>
        <time>2015-08-11T10:03:44.432Z</time>
      </trkpt>
      <trkpt lat="45.94362" lon="4.62327">
        <ele>400.100006104</ele>
        <time>2015-08-11T10:03:44.503Z</time>
      </trkpt>
      <trkpt lat="45.94353" lon="4.6233">
        <ele>399.899993896</ele>
        <time>2015-08-11T10:03:45.445Z</time>
      </trkpt>
      <trkpt lat="45.94353" lon="4.6233">
        <ele>399.899993896</ele>
        <time>2015-08-11T10:03:45.525Z</time>
      </trkpt>
      <trkpt lat="45.94343" lon="4.62332">
        <ele>399.600006104</ele>
        <time>2015-08-11T10:03:46.423Z</time>
      </trkpt>
      <trkpt lat="45.94336" lon="4.62336">
        <ele>399.399993896</ele>
        <time>2015-08-11T10:03:47.485Z</time>
      </trkpt>
      <trkpt lat="45.94327" lon="4.62339">
        <ele>399.399993896</ele>
        <time>2015-08-11T10:03:48.433Z</time>
      </trkpt>
      <trkpt lat="45.94327" lon="4.62339">
        <ele>399.399993896</ele>
        <time>2015-08-11T10:03:48.51Z</time>
      </trkpt>
      <trkpt lat="45.94318" lon="4.62342">
        <ele>399.299987793</ele>
        <time>2015-08-11T10:03:49.438Z</time>
      </trkpt>
      <trkpt lat="45.94318" lon="4.62342">
        <ele>399.299987793</ele>
        <time>2015-08-11T10:03:49.637Z</time>
      </trkpt>
      <trkpt lat="45.94307" lon="4.62346">
        <ele>398.899993896</ele>
        <time>2015-08-11T10:03:50.434Z</time>
      </trkpt>
      <trkpt lat="45.94307" lon="4.62346">
        <ele>398.899993896</ele>
        <time>2015-08-11T10:03:50.49Z</time>
      </trkpt>
      <trkpt lat="45.94296" lon="4.6235">
        <ele>398.600006104</ele>
        <time>2015-08-11T10:03:51.435Z</time>
      </trkpt>
      <trkpt lat="45.94296" lon="4.6235">
        <ele>398.600006104</ele>
        <time>2015-08-11T10:03:51.491Z</time>
      </trkpt>
      <trkpt lat="45.94285" lon="4.62354">
        <ele>398.100006104</ele>
        <time>2015-08-11T10:03:52.418Z</time>
      </trkpt>
      <trkpt lat="45.94285" lon="4.62354">
        <ele>398.100006104</ele>
        <time>2015-08-11T10:03:52.562Z</time>
      </trkpt>
      <trkpt lat="45.94274" lon="4.62359">
        <ele>397.399993896</ele>
        <time>2015-08-11T10:03:53.435Z</time>
      </trkpt>
      <trkpt lat="45.94274" lon="4.62359">
        <ele>397.399993896</ele>
        <time>2015-08-11T10:03:53.485Z</time>
      </trkpt>
      <trkpt lat="45.94263" lon="4.62365">
        <ele>396.899993896</ele>
        <time>2015-08-11T10:03:54.435Z</time>
      </trkpt>
      <trkpt lat="45.94263" lon="4.62365">
        <ele>396.899993896</ele>
        <time>2015-08-11T10:03:54.486Z</time>
      </trkpt>
      <trkpt lat="45.94252" lon="4.62372">
        <ele>396.5</ele>
        <time>2015-08-11T10:03:55.462Z</time>
      </trkpt>
      <trkpt lat="45.94252" lon="4.62372">
        <ele>396.5</ele>
        <time>2015-08-11T10:03:55.505Z</time>
      </trkpt>
      <trkpt lat="45.94241" lon="4.62379">
        <ele>395.799987793</ele>
        <time>2015-08-11T10:03:56.423Z</time>
      </trkpt>
      <trkpt lat="45.94241" lon="4.62379">
        <ele>395.799987793</ele>
        <time>2015-08-11T10:03:56.494Z</time>
      </trkpt>
      <trkpt lat="45.94231" lon="4.62385">
        <ele>395.100006104</ele>
        <time>2015-08-11T10:03:57.432Z</time>
      </trkpt>
      <trkpt lat="45.94231" lon="4.62385">
        <ele>395.100006104</ele>
        <time>2015-08-11T10:03:57.618Z</time>
      </trkpt>
      <trkpt lat="45.94219" lon="4.62389">
        <ele>394.399993896</ele>
        <time>2015-08-11T10:03:58.462Z</time>
      </trkpt>
      <trkpt lat="45.94219" lon="4.62389">
        <ele>394.399993896</ele>
        <time>2015-08-11T10:03:58.618Z</time>
      </trkpt>
      <trkpt lat="45.94208" lon="4.6239">
        <ele>393.700012207</ele>
        <time>2015-08-11T10:03:59.434Z</time>
      </trkpt>
      <trkpt lat="45.94208" lon="4.6239">
        <ele>393.700012207</ele>
        <time>2015-08-11T10:03:59.488Z</time>
      </trkpt>
      <trkpt lat="45.94196" lon="4.62389">
        <ele>393</ele>
        <time>2015-08-11T10:04:00.439Z</time>
      </trkpt>
      <trkpt lat="45.94196" lon="4.62389">
        <ele>393</ele>
        <time>2015-08-11T10:04:00.473Z</time>
      </trkpt>
      <trkpt lat="45.94185" lon="4.62387">
        <ele>392</ele>
        <time>2015-08-11T10:04:01.436Z</time>
      </trkpt>
      <trkpt lat="45.94185" lon="4.62387">
        <ele>392</ele>
        <time>2015-08-11T10:04:01.484Z</time>
      </trkpt>
      <trkpt lat="45.94174" lon="4.62386">
        <ele>391</ele>
        <time>2015-08-11T10:04:02.433Z</time>
      </trkpt>
      <trkpt lat="45.94174" lon="4.62386">
        <ele>391</ele>
        <time>2015-08-11T10:04:02.51Z</time>
      </trkpt>
      <trkpt lat="45.94163" lon="4.6238">
        <ele>390.299987793</ele>
        <time>2015-08-11T10:04:03.437Z</time>
      </trkpt>
      <trkpt lat="45.94163" lon="4.6238">
        <ele>390.299987793</ele>
        <time>2015-08-11T10:04:03.491Z</time>
      </trkpt>
      <trkpt lat="45.94152" lon="4.62375">
        <ele>389.700012207</ele>
        <time>2015-08-11T10:04:04.435Z</time>
      </trkpt>
      <trkpt lat="45.94152" lon="4.62375">
        <ele>389.700012207</ele>
        <time>2015-08-11T10:04:04.498Z</time>
      </trkpt>
      <trkpt lat="45.94141" lon="4.62368">
        <ele>389.200012207</ele>
        <time>2015-08-11T10:04:05.458Z</time>
      </trkpt>
      <trkpt lat="45.94141" lon="4.62368">
        <ele>389.200012207</ele>
        <time>2015-08-11T10:04:05.521Z</time>
      </trkpt>
      <trkpt lat="45.94131" lon="4.62362">
        <ele>388.700012207</ele>
        <time>2015-08-11T10:04:06.434Z</time>
      </trkpt>
      <trkpt lat="45.94131" lon="4.62362">
        <ele>388.700012207</ele>
        <time>2015-08-11T10:04:06.487Z</time>
      </trkpt>
      <trkpt lat="45.94121" lon="4.62355">
        <ele>388.100006104</ele>
        <time>2015-08-11T10:04:07.42Z</time>
      </trkpt>
      <trkpt lat="45.94121" lon="4.62355">
        <ele>388.100006104</ele>
        <time>2015-08-11T10:04:07.567Z</time>
      </trkpt>
      <trkpt lat="45.94112" lon="4.6235">
        <ele>387.799987793</ele>
        <time>2015-08-11T10:04:08.439Z</time>
      </trkpt>
      <trkpt lat="45.94112" lon="4.6235">
        <ele>387.799987793</ele>
        <time>2015-08-11T10:04:08.482Z</time>
      </trkpt>
      <trkpt lat="45.94101" lon="4.62347">
        <ele>387.399993896</ele>
        <time>2015-08-11T10:04:09.436Z</time>
      </trkpt>
      <trkpt lat="45.94101" lon="4.62347">
        <ele>387.399993896</ele>
        <time>2015-08-11T10:04:09.468Z</time>
      </trkpt>
      <trkpt lat="45.94091" lon="4.62346">
        <ele>387</ele>
        <time>2015-08-11T10:04:10.436Z</time>
      </trkpt>
      <trkpt lat="45.94091" lon="4.62346">
        <ele>387</ele>
        <time>2015-08-11T10:04:10.489Z</time>
      </trkpt>
      <trkpt lat="45.94082" lon="4.62348">
        <ele>386.200012207</ele>
        <time>2015-08-11T10:04:11.434Z</time>
      </trkpt>
      <trkpt lat="45.94082" lon="4.62348">
        <ele>386.200012207</ele>
        <time>2015-08-11T10:04:11.495Z</time>
      </trkpt>
      <trkpt lat="45.94072" lon="4.6235">
        <ele>385.600006104</ele>
        <time>2015-08-11T10:04:12.419Z</time>
      </trkpt>
      <trkpt lat="45.94072" lon="4.6235">
        <ele>385.600006104</ele>
        <time>2015-08-11T10:04:12.489Z</time>
      </trkpt>
      <trkpt lat="45.94062" lon="4.62354">
        <ele>385</ele>
        <time>2015-08-11T10:04:13.452Z</time>
      </trkpt>
      <trkpt lat="45.94062" lon="4.62354">
        <ele>385</ele>
        <time>2015-08-11T10:04:13.506Z</time>
      </trkpt>
      <trkpt lat="45.94053" lon="4.62357">
        <ele>384.299987793</ele>
        <time>2015-08-11T10:04:14.434Z</time>
      </trkpt>
      <trkpt lat="45.94053" lon="4.62357">
        <ele>384.299987793</ele>
        <time>2015-08-11T10:04:14.49Z</time>
      </trkpt>
      <trkpt lat="45.94044" lon="4.6236">
        <ele>383.799987793</ele>
        <time>2015-08-11T10:04:15.456Z</time>
      </trkpt>
      <trkpt lat="45.94035" lon="4.62364">
        <ele>383.299987793</ele>
        <time>2015-08-11T10:04:16.468Z</time>
      </trkpt>
      <trkpt lat="45.94027" lon="4.62368">
        <ele>382.799987793</ele>
        <time>2015-08-11T10:04:17.435Z</time>
      </trkpt>
      <trkpt lat="45.94019" lon="4.62371">
        <ele>382.5</ele>
        <time>2015-08-11T10:04:18.465Z</time>
      </trkpt>
      <trkpt lat="45.94011" lon="4.62375">
        <ele>382.200012207</ele>
        <time>2015-08-11T10:04:19.436Z</time>
      </trkpt>
      <trkpt lat="45.94003" lon="4.62379">
        <ele>382</ele>
        <time>2015-08-11T10:04:20.47Z</time>
      </trkpt>
      <trkpt lat="45.93995" lon="4.62384">
        <ele>381.600006104</ele>
        <time>2015-08-11T10:04:21.434Z</time>
      </trkpt>
      <trkpt lat="45.93988" lon="4.62388">
        <ele>381.399993896</ele>
        <time>2015-08-11T10:04:22.469Z</time>
      </trkpt>
      <trkpt lat="45.9398" lon="4.62392">
        <ele>381.100006104</ele>
        <time>2015-08-11T10:04:23.434Z</time>
      </trkpt>
      <trkpt lat="45.93973" lon="4.62394">
        <ele>380.799987793</ele>
        <time>2015-08-11T10:04:24.469Z</time>
      </trkpt>
      <trkpt lat="45.93966" lon="4.62398">
        <ele>380.399993896</ele>
        <time>2015-08-11T10:04:25.486Z</time>
      </trkpt>
      <trkpt lat="45.93959" lon="4.62401">
        <ele>380</ele>
        <time>2015-08-11T10:04:26.48Z</time>
      </trkpt>
      <trkpt lat="45.93953" lon="4.62405">
        <ele>379.600006104</ele>
        <time>2015-08-11T10:04:27.433Z</time>
      </trkpt>
      <trkpt lat="45.93946" lon="4.62407">
        <ele>379.399993896</ele>
        <time>2015-08-11T10:04:28.466Z</time>
      </trkpt>
      <trkpt lat="45.93939" lon="4.6241">
        <ele>378.899993896</ele>
        <time>2015-08-11T10:04:29.434Z</time>
      </trkpt>
      <trkpt lat="45.93932" lon="4.62413">
        <ele>378.700012207</ele>
        <time>2015-08-11T10:04:30.466Z</time>
      </trkpt>
      <trkpt lat="45.93926" lon="4.62416">
        <ele>378.299987793</ele>
        <time>2015-08-11T10:04:31.424Z</time>
      </trkpt>
      <trkpt lat="45.93919" lon="4.62418">
        <ele>378.200012207</ele>
        <time>2015-08-11T10:04:32.476Z</time>
      </trkpt>
      <trkpt lat="45.93913" lon="4.62421">
        <ele>377.799987793</ele>
        <time>2015-08-11T10:04:33.433Z</time>
      </trkpt>
      <trkpt lat="45.93908" lon="4.62423">
        <ele>377.600006104</ele>
        <time>2015-08-11T10:04:34.484Z</time>
      </trkpt>
      <trkpt lat="45.93902" lon="4.62427">
        <ele>377.399993896</ele>
        <time>2015-08-11T10:04:35.465Z</time>
      </trkpt>
      <trkpt lat="45.93896" lon="4.62429">
        <ele>377.100006104</ele>
        <time>2015-08-11T10:04:36.467Z</time>
      </trkpt>
      <trkpt lat="45.9389" lon="4.62432">
        <ele>376.899993896</ele>
        <time>2015-08-11T10:04:37.435Z</time>
      </trkpt>
      <trkpt lat="45.93884" lon="4.62433">
        <ele>376.799987793</ele>
        <time>2015-08-11T10:04:38.476Z</time>
      </trkpt>
      <trkpt lat="45.93878" lon="4.62434">
        <ele>376.600006104</ele>
        <time>2015-08-11T10:04:39.434Z</time>
      </trkpt>
      <trkpt lat="45.93871" lon="4.62434">
        <ele>376.399993896</ele>
        <time>2015-08-11T10:04:40.47Z</time>
      </trkpt>
      <trkpt lat="45.93865" lon="4.62434">
        <ele>376.299987793</ele>
        <time>2015-08-11T10:04:41.434Z</time>
      </trkpt>
      <trkpt lat="45.93858" lon="4.62433">
        <ele>376.100006104</ele>
        <time>2015-08-11T10:04:42.469Z</time>
      </trkpt>
      <trkpt lat="45.9385" lon="4.62432">
        <ele>375.799987793</ele>
        <time>2015-08-11T10:04:43.436Z</time>
      </trkpt>
      <trkpt lat="45.93843" lon="4.6243">
        <ele>375.399993896</ele>
        <time>2015-08-11T10:04:44.533Z</time>
      </trkpt>
      <trkpt lat="45.93836" lon="4.62427">
        <ele>375</ele>
        <time>2015-08-11T10:04:45.467Z</time>
      </trkpt>
      <trkpt lat="45.93828" lon="4.62423">
        <ele>374.799987793</ele>
        <time>2015-08-11T10:04:46.468Z</time>
      </trkpt>
      <trkpt lat="45.93819" lon="4.62421">
        <ele>374.399993896</ele>
        <time>2015-08-11T10:04:47.433Z</time>
      </trkpt>
      <trkpt lat="45.93819" lon="4.62421">
        <ele>374.399993896</ele>
        <time>2015-08-11T10:04:47.52Z</time>
      </trkpt>
      <trkpt lat="45.9381" lon="4.62418">
        <ele>374</ele>
        <time>2015-08-11T10:04:48.433Z</time>
      </trkpt>
      <trkpt lat="45.9381" lon="4.62418">
        <ele>374</ele>
        <time>2015-08-11T10:04:48.474Z</time>
      </trkpt>
      <trkpt lat="45.93801" lon="4.62415">
        <ele>373.600006104</ele>
        <time>2015-08-11T10:04:49.437Z</time>
      </trkpt>
      <trkpt lat="45.93801" lon="4.62415">
        <ele>373.600006104</ele>
        <time>2015-08-11T10:04:49.492Z</time>
      </trkpt>
      <trkpt lat="45.93792" lon="4.62411">
        <ele>373.200012207</ele>
        <time>2015-08-11T10:04:50.434Z</time>
      </trkpt>
      <trkpt lat="45.93792" lon="4.62411">
        <ele>373.200012207</ele>
        <time>2015-08-11T10:04:50.496Z</time>
      </trkpt>
      <trkpt lat="45.93783" lon="4.62406">
        <ele>372.700012207</ele>
        <time>2015-08-11T10:04:51.434Z</time>
      </trkpt>
      <trkpt lat="45.93776" lon="4.624">
        <ele>372.399993896</ele>
        <time>2015-08-11T10:04:52.469Z</time>
      </trkpt>
      <trkpt lat="45.93768" lon="4.62394">
        <ele>372.399993896</ele>
        <time>2015-08-11T10:04:53.434Z</time>
      </trkpt>
      <trkpt lat="45.93761" lon="4.62389">
        <ele>372.299987793</ele>
        <time>2015-08-11T10:04:54.464Z</time>
      </trkpt>
      <trkpt lat="45.93753" lon="4.62385">
        <ele>372</ele>
        <time>2015-08-11T10:04:55.474Z</time>
      </trkpt>
      <trkpt lat="45.93745" lon="4.62381">
        <ele>371.5</ele>
        <time>2015-08-11T10:04:56.465Z</time>
      </trkpt>
      <trkpt lat="45.93737" lon="4.62376">
        <ele>371.100006104</ele>
        <time>2015-08-11T10:04:57.435Z</time>
      </trkpt>
      <trkpt lat="45.9373" lon="4.6237">
        <ele>370.5</ele>
        <time>2015-08-11T10:04:58.469Z</time>
      </trkpt>
      <trkpt lat="45.93722" lon="4.62363">
        <ele>369.700012207</ele>
        <time>2015-08-11T10:04:59.434Z</time>
      </trkpt>
      <trkpt lat="45.93722" lon="4.62363">
        <ele>369.700012207</ele>
        <time>2015-08-11T10:04:59.492Z</time>
      </trkpt>
      <trkpt lat="45.93714" lon="4.62356">
        <ele>369.100006104</ele>
        <time>2015-08-11T10:05:00.438Z</time>
      </trkpt>
      <trkpt lat="45.93707" lon="4.6235">
        <ele>368.5</ele>
        <time>2015-08-11T10:05:01.494Z</time>
      </trkpt>
      <trkpt lat="45.937" lon="4.62343">
        <ele>368.200012207</ele>
        <time>2015-08-11T10:05:02.434Z</time>
      </trkpt>
      <trkpt lat="45.937" lon="4.62343">
        <ele>368.200012207</ele>
        <time>2015-08-11T10:05:02.484Z</time>
      </trkpt>
      <trkpt lat="45.93692" lon="4.62335">
        <ele>367.700012207</ele>
        <time>2015-08-11T10:05:03.438Z</time>
      </trkpt>
      <trkpt lat="45.93684" lon="4.62331">
        <ele>367.299987793</ele>
        <time>2015-08-11T10:05:04.468Z</time>
      </trkpt>
      <trkpt lat="45.93676" lon="4.62331">
        <ele>366.600006104</ele>
        <time>2015-08-11T10:05:05.463Z</time>
      </trkpt>
      <trkpt lat="45.93668" lon="4.62335">
        <ele>366.200012207</ele>
        <time>2015-08-11T10:05:06.475Z</time>
      </trkpt>
      <trkpt lat="45.9366" lon="4.6234">
        <ele>365.700012207</ele>
        <time>2015-08-11T10:05:07.435Z</time>
      </trkpt>
      <trkpt lat="45.9366" lon="4.6234">
        <ele>365.700012207</ele>
        <time>2015-08-11T10:05:07.513Z</time>
      </trkpt>
      <trkpt lat="45.93652" lon="4.62346">
        <ele>365.200012207</ele>
        <time>2015-08-11T10:05:08.422Z</time>
      </trkpt>
      <trkpt lat="45.93652" lon="4.62346">
        <ele>365.200012207</ele>
        <time>2015-08-11T10:05:08.54Z</time>
      </trkpt>
      <trkpt lat="45.93643" lon="4.62351">
        <ele>364.600006104</ele>
        <time>2015-08-11T10:05:09.474Z</time>
      </trkpt>
      <trkpt lat="45.93643" lon="4.62351">
        <ele>364.600006104</ele>
        <time>2015-08-11T10:05:09.534Z</time>
      </trkpt>
      <trkpt lat="45.93634" lon="4.62357">
        <ele>364</ele>
        <time>2015-08-11T10:05:10.434Z</time>
      </trkpt>
      <trkpt lat="45.93634" lon="4.62357">
        <ele>364</ele>
        <time>2015-08-11T10:05:10.502Z</time>
      </trkpt>
      <trkpt lat="45.93625" lon="4.62363">
        <ele>363.299987793</ele>
        <time>2015-08-11T10:05:11.422Z</time>
      </trkpt>
      <trkpt lat="45.93625" lon="4.62363">
        <ele>363.299987793</ele>
        <time>2015-08-11T10:05:11.491Z</time>
      </trkpt>
      <trkpt lat="45.93615" lon="4.6237">
        <ele>362.5</ele>
        <time>2015-08-11T10:05:12.436Z</time>
      </trkpt>
      <trkpt lat="45.93615" lon="4.6237">
        <ele>362.5</ele>
        <time>2015-08-11T10:05:12.494Z</time>
      </trkpt>
      <trkpt lat="45.93606" lon="4.62377">
        <ele>361.799987793</ele>
        <time>2015-08-11T10:05:13.437Z</time>
      </trkpt>
      <trkpt lat="45.93606" lon="4.62377">
        <ele>361.799987793</ele>
        <time>2015-08-11T10:05:13.49Z</time>
      </trkpt>
      <trkpt lat="45.93596" lon="4.62383">
        <ele>361.200012207</ele>
        <time>2015-08-11T10:05:14.437Z</time>
      </trkpt>
      <trkpt lat="45.93596" lon="4.62383">
        <ele>361.200012207</ele>
        <time>2015-08-11T10:05:14.494Z</time>
      </trkpt>
      <trkpt lat="45.93585" lon="4.62389">
        <ele>360.700012207</ele>
        <time>2015-08-11T10:05:15.466Z</time>
      </trkpt>
      <trkpt lat="45.93585" lon="4.62389">
        <ele>360.700012207</ele>
        <time>2015-08-11T10:05:15.519Z</time>
      </trkpt>
      <trkpt lat="45.93574" lon="4.62394">
        <ele>359.700012207</ele>
        <time>2015-08-11T10:05:16.454Z</time>
      </trkpt>
      <trkpt lat="45.93574" lon="4.62394">
        <ele>359.700012207</ele>
        <time>2015-08-11T10:05:16.496Z</time>
      </trkpt>
      <trkpt lat="45.93562" lon="4.62399">
        <ele>358.899993896</ele>
        <time>2015-08-11T10:05:17.434Z</time>
      </trkpt>
      <trkpt lat="45.93562" lon="4.62399">
        <ele>358.899993896</ele>
        <time>2015-08-11T10:05:17.49Z</time>
      </trkpt>
      <trkpt lat="45.93551" lon="4.62403">
        <ele>358.200012207</ele>
        <time>2015-08-11T10:05:18.434Z</time>
      </trkpt>
      <trkpt lat="45.93551" lon="4.62403">
        <ele>358.200012207</ele>
        <time>2015-08-11T10:05:18.493Z</time>
      </trkpt>
      <trkpt lat="45.93541" lon="4.62407">
        <ele>357.899993896</ele>
        <time>2015-08-11T10:05:19.436Z</time>
      </trkpt>
      <trkpt lat="45.93541" lon="4.62407">
        <ele>357.899993896</ele>
        <time>2015-08-11T10:05:19.473Z</time>
      </trkpt>
      <trkpt lat="45.9353" lon="4.6241">
        <ele>357.299987793</ele>
        <time>2015-08-11T10:05:20.434Z</time>
      </trkpt>
      <trkpt lat="45.9353" lon="4.6241">
        <ele>357.299987793</ele>
        <time>2015-08-11T10:05:20.5Z</time>
      </trkpt>
      <trkpt lat="45.93519" lon="4.62414">
        <ele>356.5</ele>
        <time>2015-08-11T10:05:21.435Z</time>
      </trkpt>
      <trkpt lat="45.93519" lon="4.62414">
        <ele>356.5</ele>
        <time>2015-08-11T10:05:21.477Z</time>
      </trkpt>
      <trkpt lat="45.93509" lon="4.62417">
        <ele>355.799987793</ele>
        <time>2015-08-11T10:05:22.434Z</time>
      </trkpt>
      <trkpt lat="45.93509" lon="4.62417">
        <ele>355.799987793</ele>
        <time>2015-08-11T10:05:22.491Z</time>
      </trkpt>
      <trkpt lat="45.93499" lon="4.62422">
        <ele>355.100006104</ele>
        <time>2015-08-11T10:05:23.435Z</time>
      </trkpt>
      <trkpt lat="45.93499" lon="4.62422">
        <ele>355.100006104</ele>
        <time>2015-08-11T10:05:23.487Z</time>
      </trkpt>
      <trkpt lat="45.9349" lon="4.62429">
        <ele>354.399993896</ele>
        <time>2015-08-11T10:05:24.434Z</time>
      </trkpt>
      <trkpt lat="45.9349" lon="4.62429">
        <ele>354.399993896</ele>
        <time>2015-08-11T10:05:24.493Z</time>
      </trkpt>
      <trkpt lat="45.93481" lon="4.62436">
        <ele>353.700012207</ele>
        <time>2015-08-11T10:05:25.457Z</time>
      </trkpt>
      <trkpt lat="45.93481" lon="4.62436">
        <ele>353.700012207</ele>
        <time>2015-08-11T10:05:25.508Z</time>
      </trkpt>
      <trkpt lat="45.93471" lon="4.62444">
        <ele>353</ele>
        <time>2015-08-11T10:05:26.473Z</time>
      </trkpt>
      <trkpt lat="45.93471" lon="4.62444">
        <ele>353</ele>
        <time>2015-08-11T10:05:26.558Z</time>
      </trkpt>
      <trkpt lat="45.93462" lon="4.62452">
        <ele>352.200012207</ele>
        <time>2015-08-11T10:05:27.435Z</time>
      </trkpt>
      <trkpt lat="45.93462" lon="4.62452">
        <ele>352.200012207</ele>
        <time>2015-08-11T10:05:27.505Z</time>
      </trkpt>
      <trkpt lat="45.93452" lon="4.62459">
        <ele>351.299987793</ele>
        <time>2015-08-11T10:05:28.434Z</time>
      </trkpt>
      <trkpt lat="45.93452" lon="4.62459">
        <ele>351.299987793</ele>
        <time>2015-08-11T10:05:28.603Z</time>
      </trkpt>
      <trkpt lat="45.93442" lon="4.62464">
        <ele>350.600006104</ele>
        <time>2015-08-11T10:05:29.436Z</time>
      </trkpt>
      <trkpt lat="45.93442" lon="4.62464">
        <ele>350.600006104</ele>
        <time>2015-08-11T10:05:29.49Z</time>
      </trkpt>
      <trkpt lat="45.9343" lon="4.62467">
        <ele>350</ele>
        <time>2015-08-11T10:05:30.436Z</time>
      </trkpt>
      <trkpt lat="45.9343" lon="4.62467">
        <ele>350</ele>
        <time>2015-08-11T10:05:30.473Z</time>
      </trkpt>
      <trkpt lat="45.93419" lon="4.62469">
        <ele>349</ele>
        <time>2015-08-11T10:05:31.436Z</time>
      </trkpt>
      <trkpt lat="45.93419" lon="4.62469">
        <ele>349</ele>
        <time>2015-08-11T10:05:31.49Z</time>
      </trkpt>
      <trkpt lat="45.93407" lon="4.62469">
        <ele>347.799987793</ele>
        <time>2015-08-11T10:05:32.422Z</time>
      </trkpt>
      <trkpt lat="45.93407" lon="4.62469">
        <ele>347.799987793</ele>
        <time>2015-08-11T10:05:32.523Z</time>
      </trkpt>
      <trkpt lat="45.93396" lon="4.62467">
        <ele>346.700012207</ele>
        <time>2015-08-11T10:05:33.434Z</time>
      </trkpt>
      <trkpt lat="45.93396" lon="4.62467">
        <ele>346.700012207</ele>
        <time>2015-08-11T10:05:33.483Z</time>
      </trkpt>
      <trkpt lat="45.93384" lon="4.62466">
        <ele>345.600006104</ele>
        <time>2015-08-11T10:05:34.422Z</time>
      </trkpt>
      <trkpt lat="45.93384" lon="4.62466">
        <ele>345.600006104</ele>
        <time>2015-08-11T10:05:34.513Z</time>
      </trkpt>
      <trkpt lat="45.93371" lon="4.62464">
        <ele>344.899993896</ele>
        <time>2015-08-11T10:05:35.46Z</time>
      </trkpt>
      <trkpt lat="45.93371" lon="4.62464">
        <ele>344.899993896</ele>
        <time>2015-08-11T10:05:35.502Z</time>
      </trkpt>
      <trkpt lat="45.93358" lon="4.62464">
        <ele>343.700012207</ele>
        <time>2015-08-11T10:05:36.435Z</time>
      </trkpt>
      <trkpt lat="45.93358" lon="4.62464">
        <ele>343.700012207</ele>
        <time>2015-08-11T10:05:36.471Z</time>
      </trkpt>
      <trkpt lat="45.93346" lon="4.62464">
        <ele>342.799987793</ele>
        <time>2015-08-11T10:05:37.45Z</time>
      </trkpt>
      <trkpt lat="45.93346" lon="4.62464">
        <ele>342.799987793</ele>
        <time>2015-08-11T10:05:37.511Z</time>
      </trkpt>
      <trkpt lat="45.93333" lon="4.62465">
        <ele>342</ele>
        <time>2015-08-11T10:05:38.435Z</time>
      </trkpt>
      <trkpt lat="45.93333" lon="4.62465">
        <ele>342</ele>
        <time>2015-08-11T10:05:38.487Z</time>
      </trkpt>
      <trkpt lat="45.93321" lon="4.62468">
        <ele>341.100006104</ele>
        <time>2015-08-11T10:05:39.432Z</time>
      </trkpt>
      <trkpt lat="45.93321" lon="4.62468">
        <ele>341.100006104</ele>
        <time>2015-08-11T10:05:39.498Z</time>
      </trkpt>
      <trkpt lat="45.9331" lon="4.62472">
        <ele>339.600006104</ele>
        <time>2015-08-11T10:05:40.423Z</time>
      </trkpt>
      <trkpt lat="45.9331" lon="4.62472">
        <ele>339.600006104</ele>
        <time>2015-08-11T10:05:40.5Z</time>
      </trkpt>
      <trkpt lat="45.93298" lon="4.62477">
        <ele>338.700012207</ele>
        <time>2015-08-11T10:05:41.436Z</time>
      </trkpt>
      <trkpt lat="45.93298" lon="4.62477">
        <ele>338.700012207</ele>
        <time>2015-08-11T10:05:41.472Z</time>
      </trkpt>
      <trkpt lat="45.93286" lon="4.62483">
        <ele>337.700012207</ele>
        <time>2015-08-11T10:05:42.422Z</time>
      </trkpt>
      <trkpt lat="45.93286" lon="4.62483">
        <ele>337.700012207</ele>
        <time>2015-08-11T10:05:42.502Z</time>
      </trkpt>
      <trkpt lat="45.93274" lon="4.62488">
        <ele>336.700012207</ele>
        <time>2015-08-11T10:05:43.435Z</time>
      </trkpt>
      <trkpt lat="45.93274" lon="4.62488">
        <ele>336.700012207</ele>
        <time>2015-08-11T10:05:43.481Z</time>
      </trkpt>
      <trkpt lat="45.93263" lon="4.62493">
        <ele>335.5</ele>
        <time>2015-08-11T10:05:44.462Z</time>
      </trkpt>
      <trkpt lat="45.93263" lon="4.62493">
        <ele>335.5</ele>
        <time>2015-08-11T10:05:44.546Z</time>
      </trkpt>
      <trkpt lat="45.93252" lon="4.62496">
        <ele>334.899993896</ele>
        <time>2015-08-11T10:05:45.463Z</time>
      </trkpt>
      <trkpt lat="45.93252" lon="4.62496">
        <ele>334.899993896</ele>
        <time>2015-08-11T10:05:45.632Z</time>
      </trkpt>
      <trkpt lat="45.93242" lon="4.62499">
        <ele>334.299987793</ele>
        <time>2015-08-11T10:05:46.433Z</time>
      </trkpt>
      <trkpt lat="45.93242" lon="4.62499">
        <ele>334.299987793</ele>
        <time>2015-08-11T10:05:46.5Z</time>
      </trkpt>
      <trkpt lat="45.93233" lon="4.62501">
        <ele>333.799987793</ele>
        <time>2015-08-11T10:05:47.435Z</time>
      </trkpt>
      <trkpt lat="45.93224" lon="4.62501">
        <ele>333</ele>
        <time>2015-08-11T10:05:48.468Z</time>
      </trkpt>
      <trkpt lat="45.93215" lon="4.625">
        <ele>332.5</ele>
        <time>2015-08-11T10:05:49.437Z</time>
      </trkpt>
      <trkpt lat="45.93207" lon="4.62497">
        <ele>332</ele>
        <time>2015-08-11T10:05:50.543Z</time>
      </trkpt>
      <trkpt lat="45.93199" lon="4.62491">
        <ele>331.399993896</ele>
        <time>2015-08-11T10:05:51.422Z</time>
      </trkpt>
      <trkpt lat="45.93193" lon="4.62488">
        <ele>330.5</ele>
        <time>2015-08-11T10:05:52.473Z</time>
      </trkpt>
      <trkpt lat="45.93184" lon="4.62483">
        <ele>329.600006104</ele>
        <time>2015-08-11T10:05:53.433Z</time>
      </trkpt>
      <trkpt lat="45.93178" lon="4.6248">
        <ele>329</ele>
        <time>2015-08-11T10:05:54.465Z</time>
      </trkpt>
      <trkpt lat="45.93172" lon="4.62479">
        <ele>328.799987793</ele>
        <time>2015-08-11T10:05:55.484Z</time>
      </trkpt>
      <trkpt lat="45.93167" lon="4.6248">
        <ele>328.700012207</ele>
        <time>2015-08-11T10:05:56.468Z</time>
      </trkpt>
      <trkpt lat="45.93163" lon="4.62486">
        <ele>328.299987793</ele>
        <time>2015-08-11T10:05:57.436Z</time>
      </trkpt>
      <trkpt lat="45.93158" lon="4.62492">
        <ele>327.700012207</ele>
        <time>2015-08-11T10:05:58.484Z</time>
      </trkpt>
      <trkpt lat="45.93157" lon="4.62502">
        <ele>327.100006104</ele>
        <time>2015-08-11T10:05:59.433Z</time>
      </trkpt>
      <trkpt lat="45.93155" lon="4.6251">
        <ele>326.5</ele>
        <time>2015-08-11T10:06:00.469Z</time>
      </trkpt>
      <trkpt lat="45.93155" lon="4.6252">
        <ele>325.899993896</ele>
        <time>2015-08-11T10:06:01.463Z</time>
      </trkpt>
      <trkpt lat="45.93153" lon="4.62531">
        <ele>325.600006104</ele>
        <time>2015-08-11T10:06:02.483Z</time>
      </trkpt>
      <trkpt lat="45.93151" lon="4.6254">
        <ele>325.100006104</ele>
        <time>2015-08-11T10:06:03.433Z</time>
      </trkpt>
      <trkpt lat="45.9315" lon="4.62548">
        <ele>324.899993896</ele>
        <time>2015-08-11T10:06:04.465Z</time>
      </trkpt>
      <trkpt lat="45.93148" lon="4.62556">
        <ele>324.600006104</ele>
        <time>2015-08-11T10:06:05.456Z</time>
      </trkpt>
      <trkpt lat="45.93147" lon="4.62566">
        <ele>324.200012207</ele>
        <time>2015-08-11T10:06:06.47Z</time>
      </trkpt>
      <trkpt lat="45.93146" lon="4.62576">
        <ele>323.899993896</ele>
        <time>2015-08-11T10:06:07.438Z</time>
      </trkpt>
      <trkpt lat="45.93145" lon="4.62586">
        <ele>323.5</ele>
        <time>2015-08-11T10:06:08.465Z</time>
      </trkpt>
      <trkpt lat="45.93143" lon="4.62595">
        <ele>323</ele>
        <time>2015-08-11T10:06:09.433Z</time>
      </trkpt>
      <trkpt lat="45.93142" lon="4.62604">
        <ele>322.600006104</ele>
        <time>2015-08-11T10:06:10.521Z</time>
      </trkpt>
      <trkpt lat="45.93141" lon="4.62614">
        <ele>322.100006104</ele>
        <time>2015-08-11T10:06:11.435Z</time>
      </trkpt>
      <trkpt lat="45.93139" lon="4.62623">
        <ele>321.600006104</ele>
        <time>2015-08-11T10:06:12.468Z</time>
      </trkpt>
      <trkpt lat="45.93138" lon="4.62633">
        <ele>321.200012207</ele>
        <time>2015-08-11T10:06:13.436Z</time>
      </trkpt>
      <trkpt lat="45.93137" lon="4.62643">
        <ele>320.600006104</ele>
        <time>2015-08-11T10:06:14.467Z</time>
      </trkpt>
      <trkpt lat="45.93136" lon="4.62652">
        <ele>320.200012207</ele>
        <time>2015-08-11T10:06:15.45Z</time>
      </trkpt>
      <trkpt lat="45.93134" lon="4.62662">
        <ele>319.700012207</ele>
        <time>2015-08-11T10:06:16.464Z</time>
      </trkpt>
      <trkpt lat="45.93133" lon="4.62671">
        <ele>319.200012207</ele>
        <time>2015-08-11T10:06:17.435Z</time>
      </trkpt>
      <trkpt lat="45.93132" lon="4.62681">
        <ele>318.799987793</ele>
        <time>2015-08-11T10:06:18.465Z</time>
      </trkpt>
      <trkpt lat="45.93131" lon="4.62691">
        <ele>318.200012207</ele>
        <time>2015-08-11T10:06:19.43Z</time>
      </trkpt>
      <trkpt lat="45.93128" lon="4.627">
        <ele>317.700012207</ele>
        <time>2015-08-11T10:06:20.468Z</time>
      </trkpt>
      <trkpt lat="45.93127" lon="4.62709">
        <ele>317.299987793</ele>
        <time>2015-08-11T10:06:21.434Z</time>
      </trkpt>
      <trkpt lat="45.93125" lon="4.62718">
        <ele>317.100006104</ele>
        <time>2015-08-11T10:06:22.467Z</time>
      </trkpt>
      <trkpt lat="45.93125" lon="4.62728">
        <ele>316.5</ele>
        <time>2015-08-11T10:06:23.434Z</time>
      </trkpt>
      <trkpt lat="45.93124" lon="4.62736">
        <ele>316.100006104</ele>
        <time>2015-08-11T10:06:24.483Z</time>
      </trkpt>
      <trkpt lat="45.93124" lon="4.62745">
        <ele>315.899993896</ele>
        <time>2015-08-11T10:06:25.509Z</time>
      </trkpt>
      <trkpt lat="45.93123" lon="4.62753">
        <ele>315.600006104</ele>
        <time>2015-08-11T10:06:26.6Z</time>
      </trkpt>
      <trkpt lat="45.93123" lon="4.62761">
        <ele>315.5</ele>
        <time>2015-08-11T10:06:27.436Z</time>
      </trkpt>
      <trkpt lat="45.93122" lon="4.62769">
        <ele>315.399993896</ele>
        <time>2015-08-11T10:06:28.465Z</time>
      </trkpt>
      <trkpt lat="45.93121" lon="4.62777">
        <ele>315.200012207</ele>
        <time>2015-08-11T10:06:29.433Z</time>
      </trkpt>
      <trkpt lat="45.9312" lon="4.62785">
        <ele>315</ele>
        <time>2015-08-11T10:06:30.477Z</time>
      </trkpt>
      <trkpt lat="45.93118" lon="4.62793">
        <ele>314.799987793</ele>
        <time>2015-08-11T10:06:31.437Z</time>
      </trkpt>
      <trkpt lat="45.93115" lon="4.62802">
        <ele>314.600006104</ele>
        <time>2015-08-11T10:06:32.468Z</time>
      </trkpt>
      <trkpt lat="45.93113" lon="4.6281">
        <ele>314.399993896</ele>
        <time>2015-08-11T10:06:33.434Z</time>
      </trkpt>
      <trkpt lat="45.93109" lon="4.62816">
        <ele>314.299987793</ele>
        <time>2015-08-11T10:06:34.464Z</time>
      </trkpt>
      <trkpt lat="45.93106" lon="4.62825">
        <ele>314.100006104</ele>
        <time>2015-08-11T10:06:35.45Z</time>
      </trkpt>
      <trkpt lat="45.93104" lon="4.62833">
        <ele>313.799987793</ele>
        <time>2015-08-11T10:06:36.464Z</time>
      </trkpt>
      <trkpt lat="45.93101" lon="4.62841">
        <ele>313.700012207</ele>
        <time>2015-08-11T10:06:37.433Z</time>
      </trkpt>
      <trkpt lat="45.93096" lon="4.6285">
        <ele>313.299987793</ele>
        <time>2015-08-11T10:06:38.464Z</time>
      </trkpt>
      <trkpt lat="45.93092" lon="4.62858">
        <ele>313.100006104</ele>
        <time>2015-08-11T10:06:39.422Z</time>
      </trkpt>
      <trkpt lat="45.93092" lon="4.62867">
        <ele>312.799987793</ele>
        <time>2015-08-11T10:06:40.464Z</time>
      </trkpt>
      <trkpt lat="45.9309" lon="4.62875">
        <ele>312.600006104</ele>
        <time>2015-08-11T10:06:41.434Z</time>
      </trkpt>
      <trkpt lat="45.93088" lon="4.62885">
        <ele>312.100006104</ele>
        <time>2015-08-11T10:06:42.464Z</time>
      </trkpt>
      <trkpt lat="45.93085" lon="4.62894">
        <ele>311.799987793</ele>
        <time>2015-08-11T10:06:43.473Z</time>
      </trkpt>
      <trkpt lat="45.93081" lon="4.62902">
        <ele>311.600006104</ele>
        <time>2015-08-11T10:06:44.474Z</time>
      </trkpt>
      <trkpt lat="45.93077" lon="4.62911">
        <ele>311.399993896</ele>
        <time>2015-08-11T10:06:45.433Z</time>
      </trkpt>
      <trkpt lat="45.93073" lon="4.6292">
        <ele>311.100006104</ele>
        <time>2015-08-11T10:06:46.468Z</time>
      </trkpt>
      <trkpt lat="45.9307" lon="4.62929">
        <ele>310.899993896</ele>
        <time>2015-08-11T10:06:47.435Z</time>
      </trkpt>
      <trkpt lat="45.93066" lon="4.62938">
        <ele>310.600006104</ele>
        <time>2015-08-11T10:06:48.465Z</time>
      </trkpt>
      <trkpt lat="45.93062" lon="4.62947">
        <ele>310.5</ele>
        <time>2015-08-11T10:06:49.457Z</time>
      </trkpt>
      <trkpt lat="45.93059" lon="4.62955">
        <ele>310.299987793</ele>
        <time>2015-08-11T10:06:50.483Z</time>
      </trkpt>
      <trkpt lat="45.93055" lon="4.62963">
        <ele>310.299987793</ele>
        <time>2015-08-11T10:06:51.436Z</time>
      </trkpt>
      <trkpt lat="45.93054" lon="4.62971">
        <ele>310.200012207</ele>
        <time>2015-08-11T10:06:52.464Z</time>
      </trkpt>
      <trkpt lat="45.93051" lon="4.62979">
        <ele>310</ele>
        <time>2015-08-11T10:06:53.433Z</time>
      </trkpt>
      <trkpt lat="45.93049" lon="4.62987">
        <ele>309.899993896</ele>
        <time>2015-08-11T10:06:54.468Z</time>
      </trkpt>
      <trkpt lat="45.93048" lon="4.62994">
        <ele>309.700012207</ele>
        <time>2015-08-11T10:06:55.517Z</time>
      </trkpt>
      <trkpt lat="45.93047" lon="4.63001">
        <ele>309.399993896</ele>
        <time>2015-08-11T10:06:56.464Z</time>
      </trkpt>
      <trkpt lat="45.93046" lon="4.63007">
        <ele>309.299987793</ele>
        <time>2015-08-11T10:06:57.436Z</time>
      </trkpt>
      <trkpt lat="45.93041" lon="4.63017">
        <ele>308.700012207</ele>
        <time>2015-08-11T10:06:59.481Z</time>
      </trkpt>
      <trkpt lat="45.93039" lon="4.63022">
        <ele>308.5</ele>
        <time>2015-08-11T10:07:00.435Z</time>
      </trkpt>
      <trkpt lat="45.9304" lon="4.63031">
        <ele>308.399993896</ele>
        <time>2015-08-11T10:07:02.464Z</time>
      </trkpt>
      <trkpt lat="45.93041" lon="4.63035">
        <ele>308.200012207</ele>
        <time>2015-08-11T10:07:03.435Z</time>
      </trkpt>
      <trkpt lat="45.93045" lon="4.63041">
        <ele>308.100006104</ele>
        <time>2015-08-11T10:07:04.466Z</time>
      </trkpt>
      <trkpt lat="45.93047" lon="4.63045">
        <ele>308</ele>
        <time>2015-08-11T10:07:05.433Z</time>
      </trkpt>
      <trkpt lat="45.9305" lon="4.63054">
        <ele>307.700012207</ele>
        <time>2015-08-11T10:07:07.468Z</time>
      </trkpt>
      <trkpt lat="45.9305" lon="4.63058">
        <ele>307.700012207</ele>
        <time>2015-08-11T10:07:08.435Z</time>
      </trkpt>
      <trkpt lat="45.9305" lon="4.63069">
        <ele>307.600006104</ele>
        <time>2015-08-11T10:07:11.523Z</time>
      </trkpt>
      <trkpt lat="45.9305" lon="4.63073">
        <ele>307.5</ele>
        <time>2015-08-11T10:07:12.435Z</time>
      </trkpt>
      <trkpt lat="45.93052" lon="4.63085">
        <ele>307.399993896</ele>
        <time>2015-08-11T10:07:15.494Z</time>
      </trkpt>
      <trkpt lat="45.93052" lon="4.63088">
        <ele>307.200012207</ele>
        <time>2015-08-11T10:07:16.451Z</time>
      </trkpt>
      <trkpt lat="45.93052" lon="4.63099">
        <ele>307.200012207</ele>
        <time>2015-08-11T10:07:19.628Z</time>
      </trkpt>
      <trkpt lat="45.93053" lon="4.63104">
        <ele>307.5</ele>
        <time>2015-08-11T10:07:20.435Z</time>
      </trkpt>
      <trkpt lat="45.93053" lon="4.63104">
        <ele>307.5</ele>
        <time>2015-08-11T10:07:20.475Z</time>
      </trkpt>
      <trkpt lat="45.93054" lon="4.63106">
        <ele>307.700012207</ele>
        <time>2015-08-11T10:07:21.434Z</time>
      </trkpt>
      <trkpt lat="45.93053" lon="4.63118">
        <ele>308.299987793</ele>
        <time>2015-08-11T10:07:24.505Z</time>
      </trkpt>
      <trkpt lat="45.93069" lon="4.63126">
        <ele>309.700012207</ele>
        <time>2015-08-11T10:07:25.446Z</time>
      </trkpt>
      <trkpt lat="45.93074" lon="4.63134">
        <ele>310.399993896</ele>
        <time>2015-08-11T10:07:26.485Z</time>
      </trkpt>
      <trkpt lat="45.93076" lon="4.63139">
        <ele>310.600006104</ele>
        <time>2015-08-11T10:07:27.45Z</time>
      </trkpt>
      <trkpt lat="45.93077" lon="4.63151">
        <ele>311</ele>
        <time>2015-08-11T10:07:29.464Z</time>
      </trkpt>
      <trkpt lat="45.93076" lon="4.63156">
        <ele>311.200012207</ele>
        <time>2015-08-11T10:07:30.435Z</time>
      </trkpt>
      <trkpt lat="45.93073" lon="4.63165">
        <ele>311.700012207</ele>
        <time>2015-08-11T10:07:33.521Z</time>
      </trkpt>
      <trkpt lat="45.93072" lon="4.63168">
        <ele>312.5</ele>
        <time>2015-08-11T10:07:34.434Z</time>
      </trkpt>
      <trkpt lat="45.93067" lon="4.63177">
        <ele>313.5</ele>
        <time>2015-08-11T10:07:38.534Z</time>
      </trkpt>
      <trkpt lat="45.93066" lon="4.63179">
        <ele>313.5</ele>
        <time>2015-08-11T10:07:39.434Z</time>
      </trkpt>
      <trkpt lat="45.93061" lon="4.63188">
        <ele>314.700012207</ele>
        <time>2015-08-11T10:07:43.487Z</time>
      </trkpt>
      <trkpt lat="45.93059" lon="4.6319">
        <ele>315</ele>
        <time>2015-08-11T10:07:44.435Z</time>
      </trkpt>
      <trkpt lat="45.93056" lon="4.632">
        <ele>316.399993896</ele>
        <time>2015-08-11T10:07:48.484Z</time>
      </trkpt>
      <trkpt lat="45.93055" lon="4.63202">
        <ele>317.100006104</ele>
        <time>2015-08-11T10:07:49.435Z</time>
      </trkpt>
      <trkpt lat="45.93047" lon="4.63209">
        <ele>318.399993896</ele>
        <time>2015-08-11T10:07:54.504Z</time>
      </trkpt>
      <trkpt lat="45.93047" lon="4.63211">
        <ele>318.600006104</ele>
        <time>2015-08-11T10:07:55.436Z</time>
      </trkpt>
      <trkpt lat="45.93045" lon="4.63221">
        <ele>319.5</ele>
        <time>2015-08-11T10:07:58.48Z</time>
      </trkpt>
      <trkpt lat="45.93044" lon="4.63224">
        <ele>319.799987793</ele>
        <time>2015-08-11T10:07:59.434Z</time>
      </trkpt>
      <trkpt lat="45.93038" lon="4.63235">
        <ele>321.299987793</ele>
        <time>2015-08-11T10:08:04.504Z</time>
      </trkpt>
      <trkpt lat="45.93038" lon="4.63236">
        <ele>321.600006104</ele>
        <time>2015-08-11T10:08:05.439Z</time>
      </trkpt>
      <trkpt lat="45.93034" lon="4.63246">
        <ele>325.399993896</ele>
        <time>2015-08-11T10:08:12.475Z</time>
      </trkpt>
      <trkpt lat="45.93034" lon="4.63249">
        <ele>325.700012207</ele>
        <time>2015-08-11T10:08:13.452Z</time>
      </trkpt>
      <trkpt lat="45.93028" lon="4.63258">
        <ele>327.399993896</ele>
        <time>2015-08-11T10:08:18.465Z</time>
      </trkpt>
      <trkpt lat="45.93027" lon="4.63259">
        <ele>327.600006104</ele>
        <time>2015-08-11T10:08:19.452Z</time>
      </trkpt>
      <trkpt lat="45.93024" lon="4.63271">
        <ele>329</ele>
        <time>2015-08-11T10:08:23.465Z</time>
      </trkpt>
      <trkpt lat="45.93023" lon="4.63274">
        <ele>329.200012207</ele>
        <time>2015-08-11T10:08:24.435Z</time>
      </trkpt>
      <trkpt lat="45.9302" lon="4.63285">
        <ele>330.600006104</ele>
        <time>2015-08-11T10:08:29.465Z</time>
      </trkpt>
      <trkpt lat="45.9302" lon="4.63289">
        <ele>330.899993896</ele>
        <time>2015-08-11T10:08:30.422Z</time>
      </trkpt>
      <trkpt lat="45.93021" lon="4.63299">
        <ele>331.700012207</ele>
        <time>2015-08-11T10:08:33.468Z</time>
      </trkpt>
      <trkpt lat="45.93021" lon="4.63302">
        <ele>331.899993896</ele>
        <time>2015-08-11T10:08:34.435Z</time>
      </trkpt>
      <trkpt lat="45.93017" lon="4.63313">
        <ele>333.5</ele>
        <time>2015-08-11T10:08:37.471Z</time>
      </trkpt>
      <trkpt lat="45.93016" lon="4.63316">
        <ele>333.700012207</ele>
        <time>2015-08-11T10:08:38.434Z</time>
      </trkpt>
      <trkpt lat="45.93009" lon="4.63323">
        <ele>334.700012207</ele>
        <time>2015-08-11T10:08:41.476Z</time>
      </trkpt>
      <trkpt lat="45.93005" lon="4.63325">
        <ele>334.799987793</ele>
        <time>2015-08-11T10:08:42.425Z</time>
      </trkpt>
      <trkpt lat="45.92998" lon="4.63329">
        <ele>335.100006104</ele>
        <time>2015-08-11T10:08:44.465Z</time>
      </trkpt>
      <trkpt lat="45.92996" lon="4.63332">
        <ele>335.399993896</ele>
        <time>2015-08-11T10:08:45.434Z</time>
      </trkpt>
      <trkpt lat="45.92991" lon="4.63339">
        <ele>336.200012207</ele>
        <time>2015-08-11T10:08:47.508Z</time>
      </trkpt>
      <trkpt lat="45.92989" lon="4.63342">
        <ele>336.700012207</ele>
        <time>2015-08-11T10:08:48.434Z</time>
      </trkpt>
      <trkpt lat="45.92984" lon="4.63353">
        <ele>337.799987793</ele>
        <time>2015-08-11T10:08:51.489Z</time>
      </trkpt>
      <trkpt lat="45.92981" lon="4.63357">
        <ele>338.299987793</ele>
        <time>2015-08-11T10:08:52.433Z</time>
      </trkpt>
      <trkpt lat="45.92978" lon="4.63365">
        <ele>339.399993896</ele>
        <time>2015-08-11T10:08:54.488Z</time>
      </trkpt>
      <trkpt lat="45.92978" lon="4.6337">
        <ele>339.700012207</ele>
        <time>2015-08-11T10:08:55.435Z</time>
      </trkpt>
      <trkpt lat="45.92976" lon="4.63378">
        <ele>340.299987793</ele>
        <time>2015-08-11T10:08:57.469Z</time>
      </trkpt>
      <trkpt lat="45.92974" lon="4.63382">
        <ele>340.899993896</ele>
        <time>2015-08-11T10:08:58.426Z</time>
      </trkpt>
      <trkpt lat="45.9297" lon="4.6339">
        <ele>341.799987793</ele>
        <time>2015-08-11T10:09:00.47Z</time>
      </trkpt>
      <trkpt lat="45.92968" lon="4.63393">
        <ele>342.399993896</ele>
        <time>2015-08-11T10:09:01.455Z</time>
      </trkpt>
      <trkpt lat="45.92965" lon="4.63401">
        <ele>343.399993896</ele>
        <time>2015-08-11T10:09:03.468Z</time>
      </trkpt>
      <trkpt lat="45.92963" lon="4.63405">
        <ele>343.299987793</ele>
        <time>2015-08-11T10:09:04.433Z</time>
      </trkpt>
      <trkpt lat="45.9296" lon="4.63414">
        <ele>343.700012207</ele>
        <time>2015-08-11T10:09:06.465Z</time>
      </trkpt>
      <trkpt lat="45.92958" lon="4.63418">
        <ele>343.700012207</ele>
        <time>2015-08-11T10:09:07.435Z</time>
      </trkpt>
      <trkpt lat="45.92954" lon="4.63428">
        <ele>343.700012207</ele>
        <time>2015-08-11T10:09:09.469Z</time>
      </trkpt>
      <trkpt lat="45.92952" lon="4.63433">
        <ele>343.700012207</ele>
        <time>2015-08-11T10:09:10.434Z</time>
      </trkpt>
      <trkpt lat="45.9295" lon="4.63439">
        <ele>343.5</ele>
        <time>2015-08-11T10:09:11.468Z</time>
      </trkpt>
      <trkpt lat="45.92948" lon="4.63445">
        <ele>343.200012207</ele>
        <time>2015-08-11T10:09:12.433Z</time>
      </trkpt>
      <trkpt lat="45.92946" lon="4.6345">
        <ele>343.200012207</ele>
        <time>2015-08-11T10:09:13.479Z</time>
      </trkpt>
      <trkpt lat="45.92943" lon="4.63456">
        <ele>343</ele>
        <time>2015-08-11T10:09:14.433Z</time>
      </trkpt>
      <trkpt lat="45.92941" lon="4.63462">
        <ele>342.899993896</ele>
        <time>2015-08-11T10:09:15.469Z</time>
      </trkpt>
      <trkpt lat="45.92938" lon="4.63468">
        <ele>342.899993896</ele>
        <time>2015-08-11T10:09:16.435Z</time>
      </trkpt>
      <trkpt lat="45.92936" lon="4.63474">
        <ele>343</ele>
        <time>2015-08-11T10:09:17.474Z</time>
      </trkpt>
      <trkpt lat="45.92933" lon="4.6348">
        <ele>342.700012207</ele>
        <time>2015-08-11T10:09:18.435Z</time>
      </trkpt>
      <trkpt lat="45.9293" lon="4.63486">
        <ele>342.700012207</ele>
        <time>2015-08-11T10:09:19.468Z</time>
      </trkpt>
      <trkpt lat="45.92928" lon="4.63492">
        <ele>342.5</ele>
        <time>2015-08-11T10:09:20.435Z</time>
      </trkpt>
      <trkpt lat="45.92924" lon="4.63499">
        <ele>342.399993896</ele>
        <time>2015-08-11T10:09:21.469Z</time>
      </trkpt>
      <trkpt lat="45.92921" lon="4.63506">
        <ele>342.200012207</ele>
        <time>2015-08-11T10:09:22.422Z</time>
      </trkpt>
      <trkpt lat="45.92917" lon="4.63512">
        <ele>342.100006104</ele>
        <time>2015-08-11T10:09:23.466Z</time>
      </trkpt>
      <trkpt lat="45.92913" lon="4.63519">
        <ele>342.200012207</ele>
        <time>2015-08-11T10:09:24.434Z</time>
      </trkpt>
      <trkpt lat="45.9291" lon="4.63527">
        <ele>341.799987793</ele>
        <time>2015-08-11T10:09:25.468Z</time>
      </trkpt>
      <trkpt lat="45.92906" lon="4.63533">
        <ele>341.899993896</ele>
        <time>2015-08-11T10:09:26.433Z</time>
      </trkpt>
      <trkpt lat="45.92902" lon="4.63541">
        <ele>341.899993896</ele>
        <time>2015-08-11T10:09:27.484Z</time>
      </trkpt>
      <trkpt lat="45.92899" lon="4.63548">
        <ele>341.899993896</ele>
        <time>2015-08-11T10:09:28.435Z</time>
      </trkpt>
      <trkpt lat="45.92895" lon="4.63557">
        <ele>342.100006104</ele>
        <time>2015-08-11T10:09:29.465Z</time>
      </trkpt>
      <trkpt lat="45.92892" lon="4.63565">
        <ele>341.799987793</ele>
        <time>2015-08-11T10:09:30.418Z</time>
      </trkpt>
      <trkpt lat="45.92889" lon="4.63574">
        <ele>341.600006104</ele>
        <time>2015-08-11T10:09:31.472Z</time>
      </trkpt>
      <trkpt lat="45.92886" lon="4.63584">
        <ele>341.399993896</ele>
        <time>2015-08-11T10:09:32.421Z</time>
      </trkpt>
      <trkpt lat="45.92884" lon="4.63593">
        <ele>341.299987793</ele>
        <time>2015-08-11T10:09:33.466Z</time>
      </trkpt>
      <trkpt lat="45.92882" lon="4.63603">
        <ele>341.299987793</ele>
        <time>2015-08-11T10:09:34.437Z</time>
      </trkpt>
      <trkpt lat="45.92879" lon="4.63613">
        <ele>341.399993896</ele>
        <time>2015-08-11T10:09:35.554Z</time>
      </trkpt>
      <trkpt lat="45.92877" lon="4.63623">
        <ele>341.299987793</ele>
        <time>2015-08-11T10:09:36.432Z</time>
      </trkpt>
      <trkpt lat="45.92875" lon="4.63634">
        <ele>341.299987793</ele>
        <time>2015-08-11T10:09:37.468Z</time>
      </trkpt>
      <trkpt lat="45.92873" lon="4.63644">
        <ele>341.200012207</ele>
        <time>2015-08-11T10:09:38.42Z</time>
      </trkpt>
      <trkpt lat="45.92872" lon="4.63655">
        <ele>341</ele>
        <time>2015-08-11T10:09:39.478Z</time>
      </trkpt>
      <trkpt lat="45.92871" lon="4.63666">
        <ele>340.399993896</ele>
        <time>2015-08-11T10:09:40.433Z</time>
      </trkpt>
      <trkpt lat="45.9287" lon="4.63677">
        <ele>340.100006104</ele>
        <time>2015-08-11T10:09:41.469Z</time>
      </trkpt>
      <trkpt lat="45.92869" lon="4.63688">
        <ele>339.700012207</ele>
        <time>2015-08-11T10:09:42.433Z</time>
      </trkpt>
      <trkpt lat="45.92867" lon="4.637">
        <ele>339.399993896</ele>
        <time>2015-08-11T10:09:43.488Z</time>
      </trkpt>
      <trkpt lat="45.92866" lon="4.63712">
        <ele>338.899993896</ele>
        <time>2015-08-11T10:09:44.468Z</time>
      </trkpt>
      <trkpt lat="45.92866" lon="4.63723">
        <ele>338.700012207</ele>
        <time>2015-08-11T10:09:45.465Z</time>
      </trkpt>
      <trkpt lat="45.92866" lon="4.63735">
        <ele>338.5</ele>
        <time>2015-08-11T10:09:46.435Z</time>
      </trkpt>
      <trkpt lat="45.92866" lon="4.63747">
        <ele>338</ele>
        <time>2015-08-11T10:09:47.469Z</time>
      </trkpt>
      <trkpt lat="45.92867" lon="4.63758">
        <ele>337.700012207</ele>
        <time>2015-08-11T10:09:48.434Z</time>
      </trkpt>
      <trkpt lat="45.92868" lon="4.63768">
        <ele>337.200012207</ele>
        <time>2015-08-11T10:09:49.467Z</time>
      </trkpt>
      <trkpt lat="45.9287" lon="4.63778">
        <ele>337.299987793</ele>
        <time>2015-08-11T10:09:50.422Z</time>
      </trkpt>
      <trkpt lat="45.92871" lon="4.63788">
        <ele>336.899993896</ele>
        <time>2015-08-11T10:09:51.476Z</time>
      </trkpt>
      <trkpt lat="45.92871" lon="4.63797">
        <ele>336.399993896</ele>
        <time>2015-08-11T10:09:52.48Z</time>
      </trkpt>
      <trkpt lat="45.9287" lon="4.63804">
        <ele>335.899993896</ele>
        <time>2015-08-11T10:09:53.463Z</time>
      </trkpt>
      <trkpt lat="45.9287" lon="4.63812">
        <ele>335.799987793</ele>
        <time>2015-08-11T10:09:54.422Z</time>
      </trkpt>
      <trkpt lat="45.9287" lon="4.6382">
        <ele>335.600006104</ele>
        <time>2015-08-11T10:09:55.58Z</time>
      </trkpt>
      <trkpt lat="45.92869" lon="4.63827">
        <ele>335.399993896</ele>
        <time>2015-08-11T10:09:56.421Z</time>
      </trkpt>
      <trkpt lat="45.92868" lon="4.63834">
        <ele>335.299987793</ele>
        <time>2015-08-11T10:09:57.466Z</time>
      </trkpt>
      <trkpt lat="45.92867" lon="4.63841">
        <ele>335</ele>
        <time>2015-08-11T10:09:58.421Z</time>
      </trkpt>
      <trkpt lat="45.92865" lon="4.63847">
        <ele>335.200012207</ele>
        <time>2015-08-11T10:09:59.482Z</time>
      </trkpt>
      <trkpt lat="45.92863" lon="4.63853">
        <ele>335</ele>
        <time>2015-08-11T10:10:00.426Z</time>
      </trkpt>
      <trkpt lat="45.92862" lon="4.6386">
        <ele>334.700012207</ele>
        <time>2015-08-11T10:10:01.479Z</time>
      </trkpt>
      <trkpt lat="45.9286" lon="4.63866">
        <ele>334.5</ele>
        <time>2015-08-11T10:10:02.434Z</time>
      </trkpt>
      <trkpt lat="45.92858" lon="4.63872">
        <ele>333.899993896</ele>
        <time>2015-08-11T10:10:03.465Z</time>
      </trkpt>
      <trkpt lat="45.92856" lon="4.63879">
        <ele>333.799987793</ele>
        <time>2015-08-11T10:10:04.433Z</time>
      </trkpt>
      <trkpt lat="45.92854" lon="4.63885">
        <ele>333.899993896</ele>
        <time>2015-08-11T10:10:05.473Z</time>
      </trkpt>
      <trkpt lat="45.92852" lon="4.63892">
        <ele>334.100006104</ele>
        <time>2015-08-11T10:10:06.433Z</time>
      </trkpt>
      <trkpt lat="45.92849" lon="4.63899">
        <ele>335.100006104</ele>
        <time>2015-08-11T10:10:07.477Z</time>
      </trkpt>
      <trkpt lat="45.92847" lon="4.63904">
        <ele>335.200012207</ele>
        <time>2015-08-11T10:10:08.435Z</time>
      </trkpt>
      <trkpt lat="45.92842" lon="4.63915">
        <ele>335.5</ele>
        <time>2015-08-11T10:10:10.473Z</time>
      </trkpt>
      <trkpt lat="45.92841" lon="4.63921">
        <ele>335</ele>
        <time>2015-08-11T10:10:11.428Z</time>
      </trkpt>
      <trkpt lat="45.92837" lon="4.63933">
        <ele>334.700012207</ele>
        <time>2015-08-11T10:10:13.471Z</time>
      </trkpt>
      <trkpt lat="45.92835" lon="4.63939">
        <ele>334.799987793</ele>
        <time>2015-08-11T10:10:14.434Z</time>
      </trkpt>
      <trkpt lat="45.92834" lon="4.63946">
        <ele>334.899993896</ele>
        <time>2015-08-11T10:10:15.466Z</time>
      </trkpt>
      <trkpt lat="45.92833" lon="4.63953">
        <ele>334.799987793</ele>
        <time>2015-08-11T10:10:16.441Z</time>
      </trkpt>
      <trkpt lat="45.92832" lon="4.6396">
        <ele>334.799987793</ele>
        <time>2015-08-11T10:10:17.463Z</time>
      </trkpt>
      <trkpt lat="45.92833" lon="4.63968">
        <ele>334</ele>
        <time>2015-08-11T10:10:18.435Z</time>
      </trkpt>
      <trkpt lat="45.92834" lon="4.63975">
        <ele>333.899993896</ele>
        <time>2015-08-11T10:10:19.467Z</time>
      </trkpt>
      <trkpt lat="45.92835" lon="4.63983">
        <ele>333.399993896</ele>
        <time>2015-08-11T10:10:20.419Z</time>
      </trkpt>
      <trkpt lat="45.92837" lon="4.63992">
        <ele>332.299987793</ele>
        <time>2015-08-11T10:10:21.47Z</time>
      </trkpt>
      <trkpt lat="45.92839" lon="4.64002">
        <ele>331.200012207</ele>
        <time>2015-08-11T10:10:22.431Z</time>
      </trkpt>
      <trkpt lat="45.92841" lon="4.64012">
        <ele>330.399993896</ele>
        <time>2015-08-11T10:10:23.465Z</time>
      </trkpt>
      <trkpt lat="45.92841" lon="4.64023">
        <ele>328.799987793</ele>
        <time>2015-08-11T10:10:24.458Z</time>
      </trkpt>
      <trkpt lat="45.92844" lon="4.64035">
        <ele>327.799987793</ele>
        <time>2015-08-11T10:10:25.503Z</time>
      </trkpt>
      <trkpt lat="45.92844" lon="4.64047">
        <ele>327.200012207</ele>
        <time>2015-08-11T10:10:26.443Z</time>
      </trkpt>
      <trkpt lat="45.92844" lon="4.64047">
        <ele>327.200012207</ele>
        <time>2015-08-11T10:10:26.495Z</time>
      </trkpt>
      <trkpt lat="45.92845" lon="4.6406">
        <ele>326.899993896</ele>
        <time>2015-08-11T10:10:27.434Z</time>
      </trkpt>
      <trkpt lat="45.92844" lon="4.64073">
        <ele>326.799987793</ele>
        <time>2015-08-11T10:10:28.516Z</time>
      </trkpt>
      <trkpt lat="45.92844" lon="4.64085">
        <ele>326.700012207</ele>
        <time>2015-08-11T10:10:29.435Z</time>
      </trkpt>
      <trkpt lat="45.92844" lon="4.64098">
        <ele>326.799987793</ele>
        <time>2015-08-11T10:10:30.468Z</time>
      </trkpt>
      <trkpt lat="45.92844" lon="4.6411">
        <ele>326.299987793</ele>
        <time>2015-08-11T10:10:31.437Z</time>
      </trkpt>
      <trkpt lat="45.92844" lon="4.64121">
        <ele>326.100006104</ele>
        <time>2015-08-11T10:10:32.468Z</time>
      </trkpt>
      <trkpt lat="45.92845" lon="4.64132">
        <ele>326.100006104</ele>
        <time>2015-08-11T10:10:33.437Z</time>
      </trkpt>
      <trkpt lat="45.92846" lon="4.64142">
        <ele>326</ele>
        <time>2015-08-11T10:10:34.492Z</time>
      </trkpt>
      <trkpt lat="45.92846" lon="4.64151">
        <ele>326</ele>
        <time>2015-08-11T10:10:35.444Z</time>
      </trkpt>
      <trkpt lat="45.92847" lon="4.6416">
        <ele>325.700012207</ele>
        <time>2015-08-11T10:10:36.489Z</time>
      </trkpt>
      <trkpt lat="45.92847" lon="4.64169">
        <ele>325.5</ele>
        <time>2015-08-11T10:10:37.448Z</time>
      </trkpt>
      <trkpt lat="45.92847" lon="4.64178">
        <ele>325</ele>
        <time>2015-08-11T10:10:38.478Z</time>
      </trkpt>
      <trkpt lat="45.92847" lon="4.64186">
        <ele>325</ele>
        <time>2015-08-11T10:10:39.443Z</time>
      </trkpt>
      <trkpt lat="45.92847" lon="4.64194">
        <ele>324.700012207</ele>
        <time>2015-08-11T10:10:40.475Z</time>
      </trkpt>
      <trkpt lat="45.92847" lon="4.64201">
        <ele>324.399993896</ele>
        <time>2015-08-11T10:10:41.436Z</time>
      </trkpt>
      <trkpt lat="45.92846" lon="4.64208">
        <ele>324.299987793</ele>
        <time>2015-08-11T10:10:42.583Z</time>
      </trkpt>
      <trkpt lat="45.92845" lon="4.64215">
        <ele>324.299987793</ele>
        <time>2015-08-11T10:10:43.441Z</time>
      </trkpt>
      <trkpt lat="45.92844" lon="4.64222">
        <ele>324.299987793</ele>
        <time>2015-08-11T10:10:44.475Z</time>
      </trkpt>
      <trkpt lat="45.92842" lon="4.64229">
        <ele>324.299987793</ele>
        <time>2015-08-11T10:10:45.435Z</time>
      </trkpt>
      <trkpt lat="45.92841" lon="4.64236">
        <ele>324.299987793</ele>
        <time>2015-08-11T10:10:46.497Z</time>
      </trkpt>
      <trkpt lat="45.92839" lon="4.64243">
        <ele>324.399993896</ele>
        <time>2015-08-11T10:10:47.44Z</time>
      </trkpt>
      <trkpt lat="45.92837" lon="4.64254">
        <ele>324.600006104</ele>
        <time>2015-08-11T10:10:49.479Z</time>
      </trkpt>
      <trkpt lat="45.92835" lon="4.64259">
        <ele>324.700012207</ele>
        <time>2015-08-11T10:10:50.434Z</time>
      </trkpt>
      <trkpt lat="45.92833" lon="4.64265">
        <ele>324.700012207</ele>
        <time>2015-08-11T10:10:51.563Z</time>
      </trkpt>
      <trkpt lat="45.92832" lon="4.64272">
        <ele>324.799987793</ele>
        <time>2015-08-11T10:10:52.441Z</time>
      </trkpt>
      <trkpt lat="45.92829" lon="4.64278">
        <ele>325</ele>
        <time>2015-08-11T10:10:53.493Z</time>
      </trkpt>
      <trkpt lat="45.92826" lon="4.64284">
        <ele>325.299987793</ele>
        <time>2015-08-11T10:10:54.437Z</time>
      </trkpt>
      <trkpt lat="45.92824" lon="4.64291">
        <ele>325.5</ele>
        <time>2015-08-11T10:10:55.475Z</time>
      </trkpt>
      <trkpt lat="45.92823" lon="4.64298">
        <ele>326</ele>
        <time>2015-08-11T10:10:56.437Z</time>
      </trkpt>
      <trkpt lat="45.92821" lon="4.64306">
        <ele>326.200012207</ele>
        <time>2015-08-11T10:10:57.475Z</time>
      </trkpt>
      <trkpt lat="45.9282" lon="4.64312">
        <ele>326.399993896</ele>
        <time>2015-08-11T10:10:58.44Z</time>
      </trkpt>
      <trkpt lat="45.92819" lon="4.64319">
        <ele>326.399993896</ele>
        <time>2015-08-11T10:10:59.468Z</time>
      </trkpt>
      <trkpt lat="45.92818" lon="4.64325">
        <ele>326.399993896</ele>
        <time>2015-08-11T10:11:00.441Z</time>
      </trkpt>
      <trkpt lat="45.92817" lon="4.64333">
        <ele>326.299987793</ele>
        <time>2015-08-11T10:11:01.475Z</time>
      </trkpt>
      <trkpt lat="45.92816" lon="4.6434">
        <ele>326.299987793</ele>
        <time>2015-08-11T10:11:02.419Z</time>
      </trkpt>
      <trkpt lat="45.92814" lon="4.64347">
        <ele>326.299987793</ele>
        <time>2015-08-11T10:11:03.472Z</time>
      </trkpt>
      <trkpt lat="45.92813" lon="4.64355">
        <ele>326.100006104</ele>
        <time>2015-08-11T10:11:04.434Z</time>
      </trkpt>
      <trkpt lat="45.92812" lon="4.64362">
        <ele>326.200012207</ele>
        <time>2015-08-11T10:11:05.558Z</time>
      </trkpt>
      <trkpt lat="45.92811" lon="4.64369">
        <ele>326.399993896</ele>
        <time>2015-08-11T10:11:06.436Z</time>
      </trkpt>
      <trkpt lat="45.9281" lon="4.64378">
        <ele>326.399993896</ele>
        <time>2015-08-11T10:11:07.49Z</time>
      </trkpt>
      <trkpt lat="45.92809" lon="4.64387">
        <ele>326</ele>
        <time>2015-08-11T10:11:08.432Z</time>
      </trkpt>
      <trkpt lat="45.92808" lon="4.64396">
        <ele>325.799987793</ele>
        <time>2015-08-11T10:11:09.471Z</time>
      </trkpt>
      <trkpt lat="45.92808" lon="4.64405">
        <ele>325.399993896</ele>
        <time>2015-08-11T10:11:10.434Z</time>
      </trkpt>
      <trkpt lat="45.92809" lon="4.64413">
        <ele>325.100006104</ele>
        <time>2015-08-11T10:11:11.47Z</time>
      </trkpt>
      <trkpt lat="45.9281" lon="4.64422">
        <ele>324.899993896</ele>
        <time>2015-08-11T10:11:12.44Z</time>
      </trkpt>
      <trkpt lat="45.92811" lon="4.64431">
        <ele>324.5</ele>
        <time>2015-08-11T10:11:13.475Z</time>
      </trkpt>
      <trkpt lat="45.92813" lon="4.6444">
        <ele>324.100006104</ele>
        <time>2015-08-11T10:11:14.436Z</time>
      </trkpt>
      <trkpt lat="45.92814" lon="4.64448">
        <ele>323.600006104</ele>
        <time>2015-08-11T10:11:15.468Z</time>
      </trkpt>
      <trkpt lat="45.92819" lon="4.64454">
        <ele>322.700012207</ele>
        <time>2015-08-11T10:11:16.434Z</time>
      </trkpt>
      <trkpt lat="45.92823" lon="4.6446">
        <ele>322.200012207</ele>
        <time>2015-08-11T10:11:17.483Z</time>
      </trkpt>
      <trkpt lat="45.92827" lon="4.64464">
        <ele>321.5</ele>
        <time>2015-08-11T10:11:18.42Z</time>
      </trkpt>
      <trkpt lat="45.92834" lon="4.64472">
        <ele>320.799987793</ele>
        <time>2015-08-11T10:11:20.478Z</time>
      </trkpt>
      <trkpt lat="45.92836" lon="4.64476">
        <ele>320.399993896</ele>
        <time>2015-08-11T10:11:21.435Z</time>
      </trkpt>
      <trkpt lat="45.92832" lon="4.64487">
        <ele>319.600006104</ele>
        <time>2015-08-11T10:11:24.472Z</time>
      </trkpt>
      <trkpt lat="45.92829" lon="4.6449">
        <ele>319.600006104</ele>
        <time>2015-08-11T10:11:25.439Z</time>
      </trkpt>
      <trkpt lat="45.92823" lon="4.64495">
        <ele>319.600006104</ele>
        <time>2015-08-11T10:11:27.52Z</time>
      </trkpt>
      <trkpt lat="45.9282" lon="4.64497">
        <ele>319.600006104</ele>
        <time>2015-08-11T10:11:28.449Z</time>
      </trkpt>
      <trkpt lat="45.92814" lon="4.64501">
        <ele>319.899993896</ele>
        <time>2015-08-11T10:11:30.46Z</time>
      </trkpt>
      <trkpt lat="45.92811" lon="4.64505">
        <ele>320</ele>
        <time>2015-08-11T10:11:31.459Z</time>
      </trkpt>
      <trkpt lat="45.92808" lon="4.64516">
        <ele>319.799987793</ele>
        <time>2015-08-11T10:11:33.469Z</time>
      </trkpt>
      <trkpt lat="45.92807" lon="4.64523">
        <ele>319.799987793</ele>
        <time>2015-08-11T10:11:34.436Z</time>
      </trkpt>
      <trkpt lat="45.92807" lon="4.64529">
        <ele>319.600006104</ele>
        <time>2015-08-11T10:11:35.476Z</time>
      </trkpt>
      <trkpt lat="45.92807" lon="4.64537">
        <ele>319.5</ele>
        <time>2015-08-11T10:11:36.434Z</time>
      </trkpt>
      <trkpt lat="45.92809" lon="4.64544">
        <ele>319.5</ele>
        <time>2015-08-11T10:11:37.472Z</time>
      </trkpt>
      <trkpt lat="45.9281" lon="4.64552">
        <ele>319.299987793</ele>
        <time>2015-08-11T10:11:38.439Z</time>
      </trkpt>
      <trkpt lat="45.9281" lon="4.6456">
        <ele>319</ele>
        <time>2015-08-11T10:11:39.468Z</time>
      </trkpt>
      <trkpt lat="45.9281" lon="4.64567">
        <ele>318.700012207</ele>
        <time>2015-08-11T10:11:40.435Z</time>
      </trkpt>
      <trkpt lat="45.92811" lon="4.64575">
        <ele>318.600006104</ele>
        <time>2015-08-11T10:11:41.474Z</time>
      </trkpt>
      <trkpt lat="45.9281" lon="4.64583">
        <ele>318.600006104</ele>
        <time>2015-08-11T10:11:42.47Z</time>
      </trkpt>
      <trkpt lat="45.9281" lon="4.64592">
        <ele>318.299987793</ele>
        <time>2015-08-11T10:11:43.472Z</time>
      </trkpt>
      <trkpt lat="45.92809" lon="4.646">
        <ele>318.100006104</ele>
        <time>2015-08-11T10:11:44.426Z</time>
      </trkpt>
      <trkpt lat="45.92809" lon="4.64608">
        <ele>317.799987793</ele>
        <time>2015-08-11T10:11:45.471Z</time>
      </trkpt>
      <trkpt lat="45.9281" lon="4.64617">
        <ele>317.5</ele>
        <time>2015-08-11T10:11:46.435Z</time>
      </trkpt>
      <trkpt lat="45.92809" lon="4.64625">
        <ele>317.600006104</ele>
        <time>2015-08-11T10:11:47.473Z</time>
      </trkpt>
      <trkpt lat="45.92809" lon="4.64633">
        <ele>317.700012207</ele>
        <time>2015-08-11T10:11:48.435Z</time>
      </trkpt>
      <trkpt lat="45.92809" lon="4.64641">
        <ele>317.799987793</ele>
        <time>2015-08-11T10:11:49.492Z</time>
      </trkpt>
      <trkpt lat="45.92809" lon="4.64649">
        <ele>317.899993896</ele>
        <time>2015-08-11T10:11:50.436Z</time>
      </trkpt>
      <trkpt lat="45.92809" lon="4.64657">
        <ele>317.799987793</ele>
        <time>2015-08-11T10:11:51.466Z</time>
      </trkpt>
      <trkpt lat="45.92809" lon="4.64665">
        <ele>317.600006104</ele>
        <time>2015-08-11T10:11:52.436Z</time>
      </trkpt>
      <trkpt lat="45.92809" lon="4.64673">
        <ele>317.600006104</ele>
        <time>2015-08-11T10:11:53.466Z</time>
      </trkpt>
      <trkpt lat="45.92809" lon="4.64681">
        <ele>317.299987793</ele>
        <time>2015-08-11T10:11:54.439Z</time>
      </trkpt>
      <trkpt lat="45.92809" lon="4.64689">
        <ele>317.899993896</ele>
        <time>2015-08-11T10:11:55.469Z</time>
      </trkpt>
      <trkpt lat="45.9281" lon="4.64698">
        <ele>317.899993896</ele>
        <time>2015-08-11T10:11:56.436Z</time>
      </trkpt>
      <trkpt lat="45.9281" lon="4.64705">
        <ele>318.100006104</ele>
        <time>2015-08-11T10:11:57.474Z</time>
      </trkpt>
      <trkpt lat="45.9281" lon="4.64712">
        <ele>318.100006104</ele>
        <time>2015-08-11T10:11:58.439Z</time>
      </trkpt>
      <trkpt lat="45.92809" lon="4.6472">
        <ele>318.200012207</ele>
        <time>2015-08-11T10:11:59.472Z</time>
      </trkpt>
      <trkpt lat="45.92809" lon="4.64727">
        <ele>318.100006104</ele>
        <time>2015-08-11T10:12:00.44Z</time>
      </trkpt>
      <trkpt lat="45.92809" lon="4.64735">
        <ele>318.200012207</ele>
        <time>2015-08-11T10:12:01.469Z</time>
      </trkpt>
      <trkpt lat="45.92809" lon="4.64744">
        <ele>318.299987793</ele>
        <time>2015-08-11T10:12:02.434Z</time>
      </trkpt>
      <trkpt lat="45.92809" lon="4.64753">
        <ele>318.200012207</ele>
        <time>2015-08-11T10:12:03.468Z</time>
      </trkpt>
      <trkpt lat="45.9281" lon="4.64762">
        <ele>318.299987793</ele>
        <time>2015-08-11T10:12:04.422Z</time>
      </trkpt>
      <trkpt lat="45.92811" lon="4.6477">
        <ele>318.200012207</ele>
        <time>2015-08-11T10:12:05.471Z</time>
      </trkpt>
      <trkpt lat="45.92811" lon="4.64779">
        <ele>317.899993896</ele>
        <time>2015-08-11T10:12:06.435Z</time>
      </trkpt>
      <trkpt lat="45.92811" lon="4.64787">
        <ele>317.899993896</ele>
        <time>2015-08-11T10:12:07.474Z</time>
      </trkpt>
      <trkpt lat="45.92811" lon="4.64795">
        <ele>318.200012207</ele>
        <time>2015-08-11T10:12:08.439Z</time>
      </trkpt>
      <trkpt lat="45.92811" lon="4.64803">
        <ele>318</ele>
        <time>2015-08-11T10:12:09.472Z</time>
      </trkpt>
      <trkpt lat="45.9281" lon="4.6481">
        <ele>318.100006104</ele>
        <time>2015-08-11T10:12:10.461Z</time>
      </trkpt>
      <trkpt lat="45.9281" lon="4.64818">
        <ele>318.100006104</ele>
        <time>2015-08-11T10:12:11.476Z</time>
      </trkpt>
      <trkpt lat="45.92809" lon="4.64826">
        <ele>318</ele>
        <time>2015-08-11T10:12:12.419Z</time>
      </trkpt>
      <trkpt lat="45.92808" lon="4.64834">
        <ele>318</ele>
        <time>2015-08-11T10:12:13.506Z</time>
      </trkpt>
      <trkpt lat="45.92808" lon="4.64842">
        <ele>318</ele>
        <time>2015-08-11T10:12:14.433Z</time>
      </trkpt>
      <trkpt lat="45.92808" lon="4.6485">
        <ele>318.200012207</ele>
        <time>2015-08-11T10:12:15.617Z</time>
      </trkpt>
      <trkpt lat="45.92808" lon="4.64858">
        <ele>318.299987793</ele>
        <time>2015-08-11T10:12:16.437Z</time>
      </trkpt>
      <trkpt lat="45.92808" lon="4.64866">
        <ele>318.5</ele>
        <time>2015-08-11T10:12:17.469Z</time>
      </trkpt>
      <trkpt lat="45.92808" lon="4.64875">
        <ele>318.399993896</ele>
        <time>2015-08-11T10:12:18.442Z</time>
      </trkpt>
      <trkpt lat="45.92808" lon="4.64884">
        <ele>318.399993896</ele>
        <time>2015-08-11T10:12:19.47Z</time>
      </trkpt>
      <trkpt lat="45.92808" lon="4.64893">
        <ele>318.399993896</ele>
        <time>2015-08-11T10:12:20.433Z</time>
      </trkpt>
      <trkpt lat="45.92808" lon="4.64902">
        <ele>318.399993896</ele>
        <time>2015-08-11T10:12:21.47Z</time>
      </trkpt>
      <trkpt lat="45.92808" lon="4.64911">
        <ele>318.299987793</ele>
        <time>2015-08-11T10:12:22.436Z</time>
      </trkpt>
      <trkpt lat="45.92807" lon="4.6492">
        <ele>318.200012207</ele>
        <time>2015-08-11T10:12:23.467Z</time>
      </trkpt>
      <trkpt lat="45.92808" lon="4.6493">
        <ele>318.100006104</ele>
        <time>2015-08-11T10:12:24.473Z</time>
      </trkpt>
      <trkpt lat="45.92809" lon="4.64939">
        <ele>317.899993896</ele>
        <time>2015-08-11T10:12:25.469Z</time>
      </trkpt>
      <trkpt lat="45.92809" lon="4.64949">
        <ele>318.100006104</ele>
        <time>2015-08-11T10:12:26.443Z</time>
      </trkpt>
      <trkpt lat="45.9281" lon="4.64958">
        <ele>318.200012207</ele>
        <time>2015-08-11T10:12:27.534Z</time>
      </trkpt>
      <trkpt lat="45.9281" lon="4.64968">
        <ele>318.600006104</ele>
        <time>2015-08-11T10:12:28.473Z</time>
      </trkpt>
      <trkpt lat="45.92809" lon="4.64977">
        <ele>318.600006104</ele>
        <time>2015-08-11T10:12:29.605Z</time>
      </trkpt>
      <trkpt lat="45.92809" lon="4.64987">
        <ele>318.600006104</ele>
        <time>2015-08-11T10:12:30.473Z</time>
      </trkpt>
      <trkpt lat="45.92808" lon="4.64995">
        <ele>318.600006104</ele>
        <time>2015-08-11T10:12:31.636Z</time>
      </trkpt>
      <trkpt lat="45.92808" lon="4.65005">
        <ele>318.200012207</ele>
        <time>2015-08-11T10:12:32.469Z</time>
      </trkpt>
      <trkpt lat="45.92808" lon="4.65014">
        <ele>318.200012207</ele>
        <time>2015-08-11T10:12:33.694Z</time>
      </trkpt>
      <trkpt lat="45.92807" lon="4.65024">
        <ele>317.700012207</ele>
        <time>2015-08-11T10:12:34.473Z</time>
      </trkpt>
      <trkpt lat="45.92806" lon="4.65033">
        <ele>317.399993896</ele>
        <time>2015-08-11T10:12:35.553Z</time>
      </trkpt>
      <trkpt lat="45.92806" lon="4.65043">
        <ele>317.5</ele>
        <time>2015-08-11T10:12:36.472Z</time>
      </trkpt>
      <trkpt lat="45.92804" lon="4.65052">
        <ele>317.5</ele>
        <time>2015-08-11T10:12:37.541Z</time>
      </trkpt>
      <trkpt lat="45.92803" lon="4.65062">
        <ele>317.200012207</ele>
        <time>2015-08-11T10:12:38.438Z</time>
      </trkpt>
      <trkpt lat="45.92801" lon="4.65071">
        <ele>317</ele>
        <time>2015-08-11T10:12:39.471Z</time>
      </trkpt>
      <trkpt lat="45.92799" lon="4.65081">
        <ele>316.899993896</ele>
        <time>2015-08-11T10:12:40.435Z</time>
      </trkpt>
      <trkpt lat="45.92797" lon="4.65091">
        <ele>316.600006104</ele>
        <time>2015-08-11T10:12:41.471Z</time>
      </trkpt>
      <trkpt lat="45.92795" lon="4.65102">
        <ele>316.5</ele>
        <time>2015-08-11T10:12:42.424Z</time>
      </trkpt>
      <trkpt lat="45.92792" lon="4.65112">
        <ele>316.399993896</ele>
        <time>2015-08-11T10:12:43.469Z</time>
      </trkpt>
      <trkpt lat="45.92789" lon="4.65121">
        <ele>316.299987793</ele>
        <time>2015-08-11T10:12:44.435Z</time>
      </trkpt>
      <trkpt lat="45.92786" lon="4.65131">
        <ele>316.100006104</ele>
        <time>2015-08-11T10:12:45.471Z</time>
      </trkpt>
      <trkpt lat="45.92782" lon="4.65139">
        <ele>315.799987793</ele>
        <time>2015-08-11T10:12:46.435Z</time>
      </trkpt>
      <trkpt lat="45.92778" lon="4.65148">
        <ele>315.600006104</ele>
        <time>2015-08-11T10:12:47.489Z</time>
      </trkpt>
      <trkpt lat="45.92775" lon="4.65158">
        <ele>315.399993896</ele>
        <time>2015-08-11T10:12:48.435Z</time>
      </trkpt>
      <trkpt lat="45.92771" lon="4.65167">
        <ele>315.299987793</ele>
        <time>2015-08-11T10:12:49.47Z</time>
      </trkpt>
      <trkpt lat="45.92767" lon="4.65176">
        <ele>315.100006104</ele>
        <time>2015-08-11T10:12:50.433Z</time>
      </trkpt>
      <trkpt lat="45.92764" lon="4.65186">
        <ele>314.899993896</ele>
        <time>2015-08-11T10:12:51.466Z</time>
      </trkpt>
      <trkpt lat="45.9276" lon="4.65196">
        <ele>314.799987793</ele>
        <time>2015-08-11T10:12:52.435Z</time>
      </trkpt>
      <trkpt lat="45.92757" lon="4.65207">
        <ele>314.5</ele>
        <time>2015-08-11T10:12:53.471Z</time>
      </trkpt>
      <trkpt lat="45.92754" lon="4.65219">
        <ele>314.399993896</ele>
        <time>2015-08-11T10:12:54.434Z</time>
      </trkpt>
      <trkpt lat="45.92752" lon="4.65229">
        <ele>314.399993896</ele>
        <time>2015-08-11T10:12:55.469Z</time>
      </trkpt>
      <trkpt lat="45.9275" lon="4.65239">
        <ele>314</ele>
        <time>2015-08-11T10:12:56.438Z</time>
      </trkpt>
      <trkpt lat="45.92747" lon="4.6525">
        <ele>313.700012207</ele>
        <time>2015-08-11T10:12:57.471Z</time>
      </trkpt>
      <trkpt lat="45.92745" lon="4.65261">
        <ele>313.399993896</ele>
        <time>2015-08-11T10:12:58.433Z</time>
      </trkpt>
      <trkpt lat="45.92742" lon="4.65272">
        <ele>313</ele>
        <time>2015-08-11T10:12:59.544Z</time>
      </trkpt>
      <trkpt lat="45.9274" lon="4.65282">
        <ele>313.100006104</ele>
        <time>2015-08-11T10:13:00.435Z</time>
      </trkpt>
      <trkpt lat="45.92736" lon="4.65293">
        <ele>313.200012207</ele>
        <time>2015-08-11T10:13:01.472Z</time>
      </trkpt>
      <trkpt lat="45.92733" lon="4.65303">
        <ele>313.399993896</ele>
        <time>2015-08-11T10:13:02.43Z</time>
      </trkpt>
      <trkpt lat="45.9273" lon="4.65314">
        <ele>313.100006104</ele>
        <time>2015-08-11T10:13:03.47Z</time>
      </trkpt>
      <trkpt lat="45.92728" lon="4.65325">
        <ele>313</ele>
        <time>2015-08-11T10:13:04.433Z</time>
      </trkpt>
      <trkpt lat="45.92725" lon="4.65336">
        <ele>313.200012207</ele>
        <time>2015-08-11T10:13:05.466Z</time>
      </trkpt>
      <trkpt lat="45.92722" lon="4.65346">
        <ele>312.899993896</ele>
        <time>2015-08-11T10:13:06.433Z</time>
      </trkpt>
      <trkpt lat="45.92719" lon="4.65357">
        <ele>313.100006104</ele>
        <time>2015-08-11T10:13:07.493Z</time>
      </trkpt>
      <trkpt lat="45.92717" lon="4.65368">
        <ele>312.899993896</ele>
        <time>2015-08-11T10:13:08.435Z</time>
      </trkpt>
      <trkpt lat="45.92714" lon="4.65378">
        <ele>312.700012207</ele>
        <time>2015-08-11T10:13:09.469Z</time>
      </trkpt>
      <trkpt lat="45.92711" lon="4.65389">
        <ele>312.700012207</ele>
        <time>2015-08-11T10:13:10.435Z</time>
      </trkpt>
      <trkpt lat="45.92708" lon="4.65399">
        <ele>311.899993896</ele>
        <time>2015-08-11T10:13:11.477Z</time>
      </trkpt>
      <trkpt lat="45.92705" lon="4.65409">
        <ele>312.100006104</ele>
        <time>2015-08-11T10:13:12.433Z</time>
      </trkpt>
      <trkpt lat="45.92702" lon="4.6542">
        <ele>312</ele>
        <time>2015-08-11T10:13:13.472Z</time>
      </trkpt>
      <trkpt lat="45.92699" lon="4.6543">
        <ele>311.700012207</ele>
        <time>2015-08-11T10:13:14.438Z</time>
      </trkpt>
      <trkpt lat="45.92696" lon="4.6544">
        <ele>311.799987793</ele>
        <time>2015-08-11T10:13:15.472Z</time>
      </trkpt>
      <trkpt lat="45.92693" lon="4.6545">
        <ele>311.700012207</ele>
        <time>2015-08-11T10:13:16.433Z</time>
      </trkpt>
      <trkpt lat="45.92692" lon="4.6546">
        <ele>311.700012207</ele>
        <time>2015-08-11T10:13:17.463Z</time>
      </trkpt>
      <trkpt lat="45.92689" lon="4.6547">
        <ele>311.399993896</ele>
        <time>2015-08-11T10:13:18.458Z</time>
      </trkpt>
      <trkpt lat="45.92687" lon="4.6548">
        <ele>311.399993896</ele>
        <time>2015-08-11T10:13:19.468Z</time>
      </trkpt>
      <trkpt lat="45.92685" lon="4.65489">
        <ele>311.399993896</ele>
        <time>2015-08-11T10:13:20.435Z</time>
      </trkpt>
      <trkpt lat="45.92681" lon="4.65498">
        <ele>311.399993896</ele>
        <time>2015-08-11T10:13:21.469Z</time>
      </trkpt>
      <trkpt lat="45.92679" lon="4.65508">
        <ele>311.200012207</ele>
        <time>2015-08-11T10:13:22.438Z</time>
      </trkpt>
      <trkpt lat="45.92677" lon="4.65517">
        <ele>311</ele>
        <time>2015-08-11T10:13:23.471Z</time>
      </trkpt>
      <trkpt lat="45.92676" lon="4.65525">
        <ele>310.700012207</ele>
        <time>2015-08-11T10:13:24.438Z</time>
      </trkpt>
      <trkpt lat="45.92675" lon="4.65533">
        <ele>310.299987793</ele>
        <time>2015-08-11T10:13:25.467Z</time>
      </trkpt>
      <trkpt lat="45.92675" lon="4.65542">
        <ele>310.100006104</ele>
        <time>2015-08-11T10:13:26.434Z</time>
      </trkpt>
      <trkpt lat="45.92676" lon="4.6555">
        <ele>310.100006104</ele>
        <time>2015-08-11T10:13:27.473Z</time>
      </trkpt>
      <trkpt lat="45.92677" lon="4.65558">
        <ele>310</ele>
        <time>2015-08-11T10:13:28.424Z</time>
      </trkpt>
      <trkpt lat="45.92679" lon="4.65568">
        <ele>309.600006104</ele>
        <time>2015-08-11T10:13:29.483Z</time>
      </trkpt>
      <trkpt lat="45.92681" lon="4.65576">
        <ele>308.899993896</ele>
        <time>2015-08-11T10:13:30.435Z</time>
      </trkpt>
      <trkpt lat="45.92682" lon="4.65585">
        <ele>308.700012207</ele>
        <time>2015-08-11T10:13:31.475Z</time>
      </trkpt>
      <trkpt lat="45.92684" lon="4.65594">
        <ele>308.100006104</ele>
        <time>2015-08-11T10:13:32.433Z</time>
      </trkpt>
      <trkpt lat="45.92685" lon="4.65601">
        <ele>307.600006104</ele>
        <time>2015-08-11T10:13:33.467Z</time>
      </trkpt>
      <trkpt lat="45.92687" lon="4.65609">
        <ele>307.299987793</ele>
        <time>2015-08-11T10:13:34.435Z</time>
      </trkpt>
      <trkpt lat="45.92688" lon="4.65616">
        <ele>306.899993896</ele>
        <time>2015-08-11T10:13:35.465Z</time>
      </trkpt>
      <trkpt lat="45.92689" lon="4.65622">
        <ele>306.5</ele>
        <time>2015-08-11T10:13:36.433Z</time>
      </trkpt>
      <trkpt lat="45.9269" lon="4.65628">
        <ele>306.399993896</ele>
        <time>2015-08-11T10:13:37.476Z</time>
      </trkpt>
      <trkpt lat="45.9269" lon="4.65635">
        <ele>306.299987793</ele>
        <time>2015-08-11T10:13:38.434Z</time>
      </trkpt>
      <trkpt lat="45.92691" lon="4.65647">
        <ele>305.799987793</ele>
        <time>2015-08-11T10:13:40.468Z</time>
      </trkpt>
      <trkpt lat="45.92692" lon="4.65652">
        <ele>305.600006104</ele>
        <time>2015-08-11T10:13:41.439Z</time>
      </trkpt>
      <trkpt lat="45.92695" lon="4.65662">
        <ele>305.399993896</ele>
        <time>2015-08-11T10:13:43.471Z</time>
      </trkpt>
      <trkpt lat="45.92698" lon="4.65667">
        <ele>305.299987793</ele>
        <time>2015-08-11T10:13:44.421Z</time>
      </trkpt>
      <trkpt lat="45.927" lon="4.65678">
        <ele>304.700012207</ele>
        <time>2015-08-11T10:13:46.469Z</time>
      </trkpt>
      <trkpt lat="45.927" lon="4.65682">
        <ele>304.399993896</ele>
        <time>2015-08-11T10:13:47.435Z</time>
      </trkpt>
      <trkpt lat="45.92702" lon="4.65692">
        <ele>304.200012207</ele>
        <time>2015-08-11T10:13:49.489Z</time>
      </trkpt>
      <trkpt lat="45.92702" lon="4.65696">
        <ele>304.100006104</ele>
        <time>2015-08-11T10:13:50.434Z</time>
      </trkpt>
      <trkpt lat="45.92704" lon="4.65705">
        <ele>304.100006104</ele>
        <time>2015-08-11T10:13:52.464Z</time>
      </trkpt>
      <trkpt lat="45.92705" lon="4.65708">
        <ele>304</ele>
        <time>2015-08-11T10:13:53.435Z</time>
      </trkpt>
      <trkpt lat="45.92705" lon="4.6572">
        <ele>304.299987793</ele>
        <time>2015-08-11T10:13:55.472Z</time>
      </trkpt>
      <trkpt lat="45.92705" lon="4.65725">
        <ele>304.600006104</ele>
        <time>2015-08-11T10:13:56.438Z</time>
      </trkpt>
      <trkpt lat="45.92704" lon="4.65734">
        <ele>305.200012207</ele>
        <time>2015-08-11T10:13:58.486Z</time>
      </trkpt>
      <trkpt lat="45.92703" lon="4.65738">
        <ele>305.299987793</ele>
        <time>2015-08-11T10:13:59.458Z</time>
      </trkpt>
      <trkpt lat="45.927" lon="4.65747">
        <ele>305.600006104</ele>
        <time>2015-08-11T10:14:01.472Z</time>
      </trkpt>
      <trkpt lat="45.92699" lon="4.65751">
        <ele>305.700012207</ele>
        <time>2015-08-11T10:14:02.455Z</time>
      </trkpt>
      <trkpt lat="45.92695" lon="4.65762">
        <ele>305.799987793</ele>
        <time>2015-08-11T10:14:05.47Z</time>
      </trkpt>
      <trkpt lat="45.92693" lon="4.65766">
        <ele>306</ele>
        <time>2015-08-11T10:14:06.433Z</time>
      </trkpt>
      <trkpt lat="45.92687" lon="4.65769">
        <ele>306</ele>
        <time>2015-08-11T10:14:07.468Z</time>
      </trkpt>
      <trkpt lat="45.92684" lon="4.65773">
        <ele>306</ele>
        <time>2015-08-11T10:14:08.438Z</time>
      </trkpt>
      <trkpt lat="45.92683" lon="4.65782">
        <ele>306.299987793</ele>
        <time>2015-08-11T10:14:10.53Z</time>
      </trkpt>
      <trkpt lat="45.92682" lon="4.65785">
        <ele>306.399993896</ele>
        <time>2015-08-11T10:14:11.438Z</time>
      </trkpt>
      <trkpt lat="45.9268" lon="4.65795">
        <ele>306.399993896</ele>
        <time>2015-08-11T10:14:13.469Z</time>
      </trkpt>
      <trkpt lat="45.92679" lon="4.658">
        <ele>306.399993896</ele>
        <time>2015-08-11T10:14:14.42Z</time>
      </trkpt>
      <trkpt lat="45.92676" lon="4.65809">
        <ele>306.399993896</ele>
        <time>2015-08-11T10:14:16.5Z</time>
      </trkpt>
      <trkpt lat="45.92674" lon="4.65812">
        <ele>306.399993896</ele>
        <time>2015-08-11T10:14:17.435Z</time>
      </trkpt>
      <trkpt lat="45.92674" lon="4.65825">
        <ele>306.899993896</ele>
        <time>2015-08-11T10:14:20.474Z</time>
      </trkpt>
      <trkpt lat="45.92674" lon="4.65828">
        <ele>306.899993896</ele>
        <time>2015-08-11T10:14:21.434Z</time>
      </trkpt>
      <trkpt lat="45.92674" lon="4.65836">
        <ele>307.100006104</ele>
        <time>2015-08-11T10:14:23.465Z</time>
      </trkpt>
      <trkpt lat="45.92673" lon="4.65841">
        <ele>307.200012207</ele>
        <time>2015-08-11T10:14:24.435Z</time>
      </trkpt>
      <trkpt lat="45.92674" lon="4.6585">
        <ele>307.399993896</ele>
        <time>2015-08-11T10:14:26.484Z</time>
      </trkpt>
      <trkpt lat="45.92675" lon="4.65856">
        <ele>307.600006104</ele>
        <time>2015-08-11T10:14:27.433Z</time>
      </trkpt>
      <trkpt lat="45.92677" lon="4.65866">
        <ele>307.799987793</ele>
        <time>2015-08-11T10:14:29.464Z</time>
      </trkpt>
      <trkpt lat="45.92677" lon="4.65872">
        <ele>307.899993896</ele>
        <time>2015-08-11T10:14:30.42Z</time>
      </trkpt>
      <trkpt lat="45.92677" lon="4.65881">
        <ele>308.200012207</ele>
        <time>2015-08-11T10:14:32.465Z</time>
      </trkpt>
      <trkpt lat="45.92681" lon="4.65886">
        <ele>309.200012207</ele>
        <time>2015-08-11T10:14:33.436Z</time>
      </trkpt>
      <trkpt lat="45.92684" lon="4.65896">
        <ele>310</ele>
        <time>2015-08-11T10:14:36.469Z</time>
      </trkpt>
      <trkpt lat="45.92684" lon="4.659">
        <ele>310.200012207</ele>
        <time>2015-08-11T10:14:37.441Z</time>
      </trkpt>
      <trkpt lat="45.92685" lon="4.65913">
        <ele>311.100006104</ele>
        <time>2015-08-11T10:14:40.464Z</time>
      </trkpt>
      <trkpt lat="45.92686" lon="4.65918">
        <ele>311.299987793</ele>
        <time>2015-08-11T10:14:41.433Z</time>
      </trkpt>
      <trkpt lat="45.92686" lon="4.65927">
        <ele>311.799987793</ele>
        <time>2015-08-11T10:14:43.471Z</time>
      </trkpt>
      <trkpt lat="45.92686" lon="4.65931">
        <ele>312</ele>
        <time>2015-08-11T10:14:44.435Z</time>
      </trkpt>
      <trkpt lat="45.92687" lon="4.65944">
        <ele>312.799987793</ele>
        <time>2015-08-11T10:14:47.483Z</time>
      </trkpt>
      <trkpt lat="45.92688" lon="4.65948">
        <ele>313.200012207</ele>
        <time>2015-08-11T10:14:48.433Z</time>
      </trkpt>
      <trkpt lat="45.92688" lon="4.65959">
        <ele>314.700012207</ele>
        <time>2015-08-11T10:14:51.482Z</time>
      </trkpt>
      <trkpt lat="45.92692" lon="4.65964">
        <ele>316.299987793</ele>
        <time>2015-08-11T10:14:52.429Z</time>
      </trkpt>
      <trkpt lat="45.92692" lon="4.65967">
        <ele>316.899993896</ele>
        <time>2015-08-11T10:14:53.507Z</time>
      </trkpt>
      <trkpt lat="45.927" lon="4.65972">
        <ele>319.899993896</ele>
        <time>2015-08-11T10:14:54.42Z</time>
      </trkpt>
      <trkpt lat="45.92704" lon="4.65977">
        <ele>322</ele>
        <time>2015-08-11T10:14:55.467Z</time>
      </trkpt>
      <trkpt lat="45.92709" lon="4.65984">
        <ele>323.600006104</ele>
        <time>2015-08-11T10:14:56.433Z</time>
      </trkpt>
      <trkpt lat="45.92711" lon="4.65993">
        <ele>325.600006104</ele>
        <time>2015-08-11T10:14:58.468Z</time>
      </trkpt>
      <trkpt lat="45.92711" lon="4.65997">
        <ele>326.200012207</ele>
        <time>2015-08-11T10:14:59.433Z</time>
      </trkpt>
      <trkpt lat="45.92711" lon="4.66008">
        <ele>327.5</ele>
        <time>2015-08-11T10:15:01.502Z</time>
      </trkpt>
      <trkpt lat="45.92712" lon="4.66014">
        <ele>327.399993896</ele>
        <time>2015-08-11T10:15:02.433Z</time>
      </trkpt>
      <trkpt lat="45.92712" lon="4.66025">
        <ele>328.100006104</ele>
        <time>2015-08-11T10:15:04.508Z</time>
      </trkpt>
      <trkpt lat="45.92713" lon="4.6603">
        <ele>328.399993896</ele>
        <time>2015-08-11T10:15:05.433Z</time>
      </trkpt>
      <trkpt lat="45.92712" lon="4.66039">
        <ele>329.100006104</ele>
        <time>2015-08-11T10:15:07.467Z</time>
      </trkpt>
      <trkpt lat="45.92712" lon="4.66043">
        <ele>329.399993896</ele>
        <time>2015-08-11T10:15:08.433Z</time>
      </trkpt>
      <trkpt lat="45.92712" lon="4.66053">
        <ele>330.299987793</ele>
        <time>2015-08-11T10:15:10.466Z</time>
      </trkpt>
      <trkpt lat="45.92711" lon="4.66057">
        <ele>330.600006104</ele>
        <time>2015-08-11T10:15:11.434Z</time>
      </trkpt>
      <trkpt lat="45.92711" lon="4.66066">
        <ele>330.799987793</ele>
        <time>2015-08-11T10:15:13.471Z</time>
      </trkpt>
      <trkpt lat="45.92712" lon="4.6607">
        <ele>330.5</ele>
        <time>2015-08-11T10:15:14.433Z</time>
      </trkpt>
      <trkpt lat="45.92711" lon="4.66079">
        <ele>331.200012207</ele>
        <time>2015-08-11T10:15:16.468Z</time>
      </trkpt>
      <trkpt lat="45.92709" lon="4.66083">
        <ele>331.799987793</ele>
        <time>2015-08-11T10:15:17.42Z</time>
      </trkpt>
      <trkpt lat="45.92704" lon="4.66093">
        <ele>333.5</ele>
        <time>2015-08-11T10:15:20.468Z</time>
      </trkpt>
      <trkpt lat="45.92703" lon="4.66097">
        <ele>334.100006104</ele>
        <time>2015-08-11T10:15:21.433Z</time>
      </trkpt>
      <trkpt lat="45.92699" lon="4.66107">
        <ele>335.200012207</ele>
        <time>2015-08-11T10:15:24.464Z</time>
      </trkpt>
      <trkpt lat="45.92698" lon="4.66112">
        <ele>336.100006104</ele>
        <time>2015-08-11T10:15:25.437Z</time>
      </trkpt>
      <trkpt lat="45.92693" lon="4.6612">
        <ele>338.799987793</ele>
        <time>2015-08-11T10:15:28.468Z</time>
      </trkpt>
      <trkpt lat="45.92691" lon="4.66124">
        <ele>339.299987793</ele>
        <time>2015-08-11T10:15:29.464Z</time>
      </trkpt>
      <trkpt lat="45.92689" lon="4.66134">
        <ele>340</ele>
        <time>2015-08-11T10:15:31.473Z</time>
      </trkpt>
      <trkpt lat="45.92688" lon="4.66139">
        <ele>340.5</ele>
        <time>2015-08-11T10:15:32.433Z</time>
      </trkpt>
      <trkpt lat="45.92685" lon="4.66148">
        <ele>341.299987793</ele>
        <time>2015-08-11T10:15:34.464Z</time>
      </trkpt>
      <trkpt lat="45.92684" lon="4.66153">
        <ele>341.700012207</ele>
        <time>2015-08-11T10:15:35.434Z</time>
      </trkpt>
      <trkpt lat="45.92682" lon="4.66163">
        <ele>342.200012207</ele>
        <time>2015-08-11T10:15:37.506Z</time>
      </trkpt>
      <trkpt lat="45.92681" lon="4.66167">
        <ele>342.600006104</ele>
        <time>2015-08-11T10:15:38.423Z</time>
      </trkpt>
      <trkpt lat="45.92679" lon="4.66176">
        <ele>343.700012207</ele>
        <time>2015-08-11T10:15:40.463Z</time>
      </trkpt>
      <trkpt lat="45.92678" lon="4.66181">
        <ele>343.899993896</ele>
        <time>2015-08-11T10:15:41.469Z</time>
      </trkpt>
      <trkpt lat="45.92675" lon="4.6619">
        <ele>344.700012207</ele>
        <time>2015-08-11T10:15:43.484Z</time>
      </trkpt>
      <trkpt lat="45.92674" lon="4.66195">
        <ele>345.299987793</ele>
        <time>2015-08-11T10:15:44.433Z</time>
      </trkpt>
      <trkpt lat="45.92673" lon="4.66205">
        <ele>345.299987793</ele>
        <time>2015-08-11T10:15:46.467Z</time>
      </trkpt>
      <trkpt lat="45.92671" lon="4.6621">
        <ele>345.100006104</ele>
        <time>2015-08-11T10:15:47.451Z</time>
      </trkpt>
      <trkpt lat="45.9267" lon="4.6622">
        <ele>344.600006104</ele>
        <time>2015-08-11T10:15:49.467Z</time>
      </trkpt>
      <trkpt lat="45.92669" lon="4.66227">
        <ele>342.799987793</ele>
        <time>2015-08-11T10:15:50.432Z</time>
      </trkpt>
      <trkpt lat="45.92668" lon="4.66238">
        <ele>342</ele>
        <time>2015-08-11T10:15:52.469Z</time>
      </trkpt>
      <trkpt lat="45.92667" lon="4.66242">
        <ele>342.399993896</ele>
        <time>2015-08-11T10:15:53.424Z</time>
      </trkpt>
      <trkpt lat="45.92667" lon="4.66253">
        <ele>340.200012207</ele>
        <time>2015-08-11T10:15:55.474Z</time>
      </trkpt>
      <trkpt lat="45.92667" lon="4.66259">
        <ele>338.299987793</ele>
        <time>2015-08-11T10:15:56.447Z</time>
      </trkpt>
      <trkpt lat="45.92666" lon="4.66268">
        <ele>336.600006104</ele>
        <time>2015-08-11T10:15:58.468Z</time>
      </trkpt>
      <trkpt lat="45.92666" lon="4.66273">
        <ele>336.200012207</ele>
        <time>2015-08-11T10:15:59.459Z</time>
      </trkpt>
      <trkpt lat="45.92664" lon="4.66281">
        <ele>335.799987793</ele>
        <time>2015-08-11T10:16:01.469Z</time>
      </trkpt>
      <trkpt lat="45.92663" lon="4.66286">
        <ele>335.5</ele>
        <time>2015-08-11T10:16:02.432Z</time>
      </trkpt>
      <trkpt lat="45.92663" lon="4.66298">
        <ele>334.399993896</ele>
        <time>2015-08-11T10:16:05.467Z</time>
      </trkpt>
      <trkpt lat="45.92662" lon="4.66302">
        <ele>334.200012207</ele>
        <time>2015-08-11T10:16:06.433Z</time>
      </trkpt>
      <trkpt lat="45.92661" lon="4.66311">
        <ele>333.100006104</ele>
        <time>2015-08-11T10:16:08.465Z</time>
      </trkpt>
      <trkpt lat="45.9266" lon="4.66315">
        <ele>332.700012207</ele>
        <time>2015-08-11T10:16:09.422Z</time>
      </trkpt>
      <trkpt lat="45.9266" lon="4.66327">
        <ele>331</ele>
        <time>2015-08-11T10:16:12.467Z</time>
      </trkpt>
      <trkpt lat="45.9266" lon="4.66331">
        <ele>330.5</ele>
        <time>2015-08-11T10:16:13.434Z</time>
      </trkpt>
      <trkpt lat="45.92659" lon="4.6634">
        <ele>329.299987793</ele>
        <time>2015-08-11T10:16:15.48Z</time>
      </trkpt>
      <trkpt lat="45.92658" lon="4.66344">
        <ele>329.100006104</ele>
        <time>2015-08-11T10:16:16.432Z</time>
      </trkpt>
      <trkpt lat="45.92657" lon="4.66356">
        <ele>328.899993896</ele>
        <time>2015-08-11T10:16:19.467Z</time>
      </trkpt>
      <trkpt lat="45.92657" lon="4.6636">
        <ele>328.5</ele>
        <time>2015-08-11T10:16:20.433Z</time>
      </trkpt>
      <trkpt lat="45.92657" lon="4.66371">
        <ele>327.799987793</ele>
        <time>2015-08-11T10:16:23.468Z</time>
      </trkpt>
      <trkpt lat="45.92656" lon="4.66374">
        <ele>327.700012207</ele>
        <time>2015-08-11T10:16:24.433Z</time>
      </trkpt>
      <trkpt lat="45.92656" lon="4.66385">
        <ele>327.299987793</ele>
        <time>2015-08-11T10:16:27.468Z</time>
      </trkpt>
      <trkpt lat="45.92657" lon="4.66387">
        <ele>327.100006104</ele>
        <time>2015-08-11T10:16:28.433Z</time>
      </trkpt>
      <trkpt lat="45.92655" lon="4.66397">
        <ele>326.899993896</ele>
        <time>2015-08-11T10:16:31.477Z</time>
      </trkpt>
      <trkpt lat="45.92654" lon="4.66401">
        <ele>326.5</ele>
        <time>2015-08-11T10:16:32.428Z</time>
      </trkpt>
      <trkpt lat="45.92653" lon="4.66412">
        <ele>326.200012207</ele>
        <time>2015-08-11T10:16:35.463Z</time>
      </trkpt>
      <trkpt lat="45.92652" lon="4.66415">
        <ele>326.200012207</ele>
        <time>2015-08-11T10:16:36.432Z</time>
      </trkpt>
      <trkpt lat="45.9265" lon="4.66424">
        <ele>326.600006104</ele>
        <time>2015-08-11T10:16:39.465Z</time>
      </trkpt>
      <trkpt lat="45.9265" lon="4.66428">
        <ele>326.600006104</ele>
        <time>2015-08-11T10:16:40.433Z</time>
      </trkpt>
      <trkpt lat="45.92649" lon="4.66437">
        <ele>326.799987793</ele>
        <time>2015-08-11T10:16:43.471Z</time>
      </trkpt>
      <trkpt lat="45.92649" lon="4.66441">
        <ele>327.100006104</ele>
        <time>2015-08-11T10:16:44.468Z</time>
      </trkpt>
      <trkpt lat="45.92648" lon="4.66453">
        <ele>327</ele>
        <time>2015-08-11T10:16:48.494Z</time>
      </trkpt>
      <trkpt lat="45.92647" lon="4.66456">
        <ele>326.899993896</ele>
        <time>2015-08-11T10:16:49.435Z</time>
      </trkpt>
      <trkpt lat="45.92648" lon="4.66466">
        <ele>327.200012207</ele>
        <time>2015-08-11T10:16:52.616Z</time>
      </trkpt>
      <trkpt lat="45.92647" lon="4.66469">
        <ele>327.600006104</ele>
        <time>2015-08-11T10:16:53.433Z</time>
      </trkpt>
      <trkpt lat="45.92645" lon="4.66482">
        <ele>328.399993896</ele>
        <time>2015-08-11T10:16:57.474Z</time>
      </trkpt>
      <trkpt lat="45.92645" lon="4.66485">
        <ele>328.5</ele>
        <time>2015-08-11T10:16:58.433Z</time>
      </trkpt>
      <trkpt lat="45.92645" lon="4.66496">
        <ele>328.899993896</ele>
        <time>2015-08-11T10:17:01.554Z</time>
      </trkpt>
      <trkpt lat="45.92644" lon="4.66499">
        <ele>329</ele>
        <time>2015-08-11T10:17:02.438Z</time>
      </trkpt>
      <trkpt lat="45.92643" lon="4.6651">
        <ele>329.899993896</ele>
        <time>2015-08-11T10:17:06.468Z</time>
      </trkpt>
      <trkpt lat="45.92643" lon="4.66514">
        <ele>330.399993896</ele>
        <time>2015-08-11T10:17:07.452Z</time>
      </trkpt>
      <trkpt lat="45.92641" lon="4.66523">
        <ele>331.5</ele>
        <time>2015-08-11T10:17:10.576Z</time>
      </trkpt>
      <trkpt lat="45.9264" lon="4.66526">
        <ele>331.799987793</ele>
        <time>2015-08-11T10:17:11.433Z</time>
      </trkpt>
      <trkpt lat="45.92637" lon="4.66535">
        <ele>332.700012207</ele>
        <time>2015-08-11T10:17:14.465Z</time>
      </trkpt>
      <trkpt lat="45.92635" lon="4.66538">
        <ele>333</ele>
        <time>2015-08-11T10:17:15.433Z</time>
      </trkpt>
      <trkpt lat="45.92632" lon="4.66547">
        <ele>333.799987793</ele>
        <time>2015-08-11T10:17:18.51Z</time>
      </trkpt>
      <trkpt lat="45.92629" lon="4.66548">
        <ele>334.100006104</ele>
        <time>2015-08-11T10:17:19.437Z</time>
      </trkpt>
      <trkpt lat="45.92625" lon="4.66556">
        <ele>334.5</ele>
        <time>2015-08-11T10:17:21.465Z</time>
      </trkpt>
      <trkpt lat="45.92623" lon="4.6656">
        <ele>334.700012207</ele>
        <time>2015-08-11T10:17:22.436Z</time>
      </trkpt>
      <trkpt lat="45.9262" lon="4.66569">
        <ele>335.399993896</ele>
        <time>2015-08-11T10:17:25.472Z</time>
      </trkpt>
      <trkpt lat="45.9262" lon="4.66572">
        <ele>335.600006104</ele>
        <time>2015-08-11T10:17:26.433Z</time>
      </trkpt>
      <trkpt lat="45.9262" lon="4.66584">
        <ele>336.399993896</ele>
        <time>2015-08-11T10:17:29.507Z</time>
      </trkpt>
      <trkpt lat="45.92621" lon="4.66587">
        <ele>336.799987793</ele>
        <time>2015-08-11T10:17:30.433Z</time>
      </trkpt>
      <trkpt lat="45.92621" lon="4.66597">
        <ele>338</ele>
        <time>2015-08-11T10:17:33.472Z</time>
      </trkpt>
      <trkpt lat="45.92622" lon="4.666">
        <ele>338.299987793</ele>
        <time>2015-08-11T10:17:34.433Z</time>
      </trkpt>
      <trkpt lat="45.92624" lon="4.66609">
        <ele>338.799987793</ele>
        <time>2015-08-11T10:17:36.465Z</time>
      </trkpt>
      <trkpt lat="45.92626" lon="4.66614">
        <ele>339.200012207</ele>
        <time>2015-08-11T10:17:37.436Z</time>
      </trkpt>
      <trkpt lat="45.92631" lon="4.66622">
        <ele>340</ele>
        <time>2015-08-11T10:17:39.468Z</time>
      </trkpt>
      <trkpt lat="45.92632" lon="4.66627">
        <ele>340.399993896</ele>
        <time>2015-08-11T10:17:40.449Z</time>
      </trkpt>
      <trkpt lat="45.92634" lon="4.66636">
        <ele>340.5</ele>
        <time>2015-08-11T10:17:42.463Z</time>
      </trkpt>
      <trkpt lat="45.92634" lon="4.66641">
        <ele>340.700012207</ele>
        <time>2015-08-11T10:17:43.46Z</time>
      </trkpt>
      <trkpt lat="45.92636" lon="4.66652">
        <ele>341.200012207</ele>
        <time>2015-08-11T10:17:45.465Z</time>
      </trkpt>
      <trkpt lat="45.92637" lon="4.66657">
        <ele>341.399993896</ele>
        <time>2015-08-11T10:17:46.433Z</time>
      </trkpt>
      <trkpt lat="45.92637" lon="4.66668">
        <ele>341.899993896</ele>
        <time>2015-08-11T10:17:48.513Z</time>
      </trkpt>
      <trkpt lat="45.92638" lon="4.66673">
        <ele>342.100006104</ele>
        <time>2015-08-11T10:17:49.435Z</time>
      </trkpt>
      <trkpt lat="45.9264" lon="4.66683">
        <ele>342.600006104</ele>
        <time>2015-08-11T10:17:51.468Z</time>
      </trkpt>
      <trkpt lat="45.92639" lon="4.66688">
        <ele>342.899993896</ele>
        <time>2015-08-11T10:17:52.437Z</time>
      </trkpt>
      <trkpt lat="45.92638" lon="4.66695">
        <ele>343</ele>
        <time>2015-08-11T10:17:53.467Z</time>
      </trkpt>
      <trkpt lat="45.92638" lon="4.66701">
        <ele>343.299987793</ele>
        <time>2015-08-11T10:17:54.478Z</time>
      </trkpt>
      <trkpt lat="45.92638" lon="4.66709">
        <ele>343.399993896</ele>
        <time>2015-08-11T10:17:55.47Z</time>
      </trkpt>
      <trkpt lat="45.92637" lon="4.66722">
        <ele>343.700012207</ele>
        <time>2015-08-11T10:17:56.433Z</time>
      </trkpt>
      <trkpt lat="45.92637" lon="4.66731">
        <ele>343.899993896</ele>
        <time>2015-08-11T10:17:57.465Z</time>
      </trkpt>
      <trkpt lat="45.92638" lon="4.66739">
        <ele>344</ele>
        <time>2015-08-11T10:17:58.431Z</time>
      </trkpt>
      <trkpt lat="45.92638" lon="4.66746">
        <ele>344.100006104</ele>
        <time>2015-08-11T10:17:59.472Z</time>
      </trkpt>
      <trkpt lat="45.92638" lon="4.66753">
        <ele>344.299987793</ele>
        <time>2015-08-11T10:18:00.422Z</time>
      </trkpt>
      <trkpt lat="45.92639" lon="4.6676">
        <ele>344.399993896</ele>
        <time>2015-08-11T10:18:01.469Z</time>
      </trkpt>
      <trkpt lat="45.92639" lon="4.66766">
        <ele>344.600006104</ele>
        <time>2015-08-11T10:18:02.432Z</time>
      </trkpt>
      <trkpt lat="45.92637" lon="4.66778">
        <ele>344.899993896</ele>
        <time>2015-08-11T10:18:04.503Z</time>
      </trkpt>
      <trkpt lat="45.92635" lon="4.66784">
        <ele>345</ele>
        <time>2015-08-11T10:18:05.433Z</time>
      </trkpt>
      <trkpt lat="45.92632" lon="4.6679">
        <ele>345.200012207</ele>
        <time>2015-08-11T10:18:06.466Z</time>
      </trkpt>
      <trkpt lat="45.92631" lon="4.66796">
        <ele>345.200012207</ele>
        <time>2015-08-11T10:18:07.439Z</time>
      </trkpt>
      <trkpt lat="45.9263" lon="4.66803">
        <ele>345.299987793</ele>
        <time>2015-08-11T10:18:08.476Z</time>
      </trkpt>
      <trkpt lat="45.92629" lon="4.66809">
        <ele>345.5</ele>
        <time>2015-08-11T10:18:09.453Z</time>
      </trkpt>
      <trkpt lat="45.92627" lon="4.66815">
        <ele>345.700012207</ele>
        <time>2015-08-11T10:18:10.49Z</time>
      </trkpt>
      <trkpt lat="45.92628" lon="4.66823">
        <ele>346</ele>
        <time>2015-08-11T10:18:11.433Z</time>
      </trkpt>
      <trkpt lat="45.92629" lon="4.6683">
        <ele>346.100006104</ele>
        <time>2015-08-11T10:18:12.468Z</time>
      </trkpt>
      <trkpt lat="45.92628" lon="4.66837">
        <ele>346.399993896</ele>
        <time>2015-08-11T10:18:13.434Z</time>
      </trkpt>
      <trkpt lat="45.92625" lon="4.66843">
        <ele>346.899993896</ele>
        <time>2015-08-11T10:18:14.466Z</time>
      </trkpt>
      <trkpt lat="45.92624" lon="4.6685">
        <ele>347.399993896</ele>
        <time>2015-08-11T10:18:15.431Z</time>
      </trkpt>
      <trkpt lat="45.92623" lon="4.66857">
        <ele>347.799987793</ele>
        <time>2015-08-11T10:18:16.469Z</time>
      </trkpt>
      <trkpt lat="45.92621" lon="4.66865">
        <ele>348.100006104</ele>
        <time>2015-08-11T10:18:17.432Z</time>
      </trkpt>
      <trkpt lat="45.9262" lon="4.66872">
        <ele>348.200012207</ele>
        <time>2015-08-11T10:18:18.464Z</time>
      </trkpt>
      <trkpt lat="45.92619" lon="4.6688">
        <ele>348.299987793</ele>
        <time>2015-08-11T10:18:19.422Z</time>
      </trkpt>
      <trkpt lat="45.92618" lon="4.66887">
        <ele>348.299987793</ele>
        <time>2015-08-11T10:18:20.464Z</time>
      </trkpt>
      <trkpt lat="45.92616" lon="4.66895">
        <ele>348.299987793</ele>
        <time>2015-08-11T10:18:21.432Z</time>
      </trkpt>
      <trkpt lat="45.92614" lon="4.66902">
        <ele>348.399993896</ele>
        <time>2015-08-11T10:18:22.463Z</time>
      </trkpt>
      <trkpt lat="45.92612" lon="4.66909">
        <ele>348.399993896</ele>
        <time>2015-08-11T10:18:23.433Z</time>
      </trkpt>
      <trkpt lat="45.9261" lon="4.66917">
        <ele>348.600006104</ele>
        <time>2015-08-11T10:18:24.461Z</time>
      </trkpt>
      <trkpt lat="45.92608" lon="4.66926">
        <ele>348.5</ele>
        <time>2015-08-11T10:18:25.434Z</time>
      </trkpt>
      <trkpt lat="45.92606" lon="4.66935">
        <ele>348.399993896</ele>
        <time>2015-08-11T10:18:26.467Z</time>
      </trkpt>
      <trkpt lat="45.92604" lon="4.66946">
        <ele>348.399993896</ele>
        <time>2015-08-11T10:18:27.433Z</time>
      </trkpt>
      <trkpt lat="45.92602" lon="4.66957">
        <ele>348</ele>
        <time>2015-08-11T10:18:28.484Z</time>
      </trkpt>
      <trkpt lat="45.92601" lon="4.66967">
        <ele>347.5</ele>
        <time>2015-08-11T10:18:29.432Z</time>
      </trkpt>
      <trkpt lat="45.926" lon="4.66979">
        <ele>347.299987793</ele>
        <time>2015-08-11T10:18:30.484Z</time>
      </trkpt>
      <trkpt lat="45.92598" lon="4.66991">
        <ele>347.100006104</ele>
        <time>2015-08-11T10:18:31.436Z</time>
      </trkpt>
      <trkpt lat="45.92596" lon="4.67003">
        <ele>346.899993896</ele>
        <time>2015-08-11T10:18:32.468Z</time>
      </trkpt>
      <trkpt lat="45.92595" lon="4.67016">
        <ele>346.799987793</ele>
        <time>2015-08-11T10:18:33.483Z</time>
      </trkpt>
      <trkpt lat="45.92595" lon="4.67016">
        <ele>346.799987793</ele>
        <time>2015-08-11T10:18:33.623Z</time>
      </trkpt>
      <trkpt lat="45.92594" lon="4.6703">
        <ele>346.5</ele>
        <time>2015-08-11T10:18:34.432Z</time>
      </trkpt>
      <trkpt lat="45.92594" lon="4.6703">
        <ele>346.5</ele>
        <time>2015-08-11T10:18:34.482Z</time>
      </trkpt>
      <trkpt lat="45.92592" lon="4.67043">
        <ele>346.399993896</ele>
        <time>2015-08-11T10:18:35.43Z</time>
      </trkpt>
      <trkpt lat="45.92592" lon="4.67043">
        <ele>346.399993896</ele>
        <time>2015-08-11T10:18:35.479Z</time>
      </trkpt>
      <trkpt lat="45.9259" lon="4.67057">
        <ele>346.299987793</ele>
        <time>2015-08-11T10:18:36.432Z</time>
      </trkpt>
      <trkpt lat="45.9259" lon="4.67057">
        <ele>346.299987793</ele>
        <time>2015-08-11T10:18:36.474Z</time>
      </trkpt>
      <trkpt lat="45.92588" lon="4.67073">
        <ele>346.100006104</ele>
        <time>2015-08-11T10:18:37.434Z</time>
      </trkpt>
      <trkpt lat="45.92588" lon="4.67073">
        <ele>346.100006104</ele>
        <time>2015-08-11T10:18:37.488Z</time>
      </trkpt>
      <trkpt lat="45.92585" lon="4.67088">
        <ele>345.700012207</ele>
        <time>2015-08-11T10:18:38.433Z</time>
      </trkpt>
      <trkpt lat="45.92585" lon="4.67088">
        <ele>345.700012207</ele>
        <time>2015-08-11T10:18:38.475Z</time>
      </trkpt>
      <trkpt lat="45.92581" lon="4.67104">
        <ele>345.399993896</ele>
        <time>2015-08-11T10:18:39.42Z</time>
      </trkpt>
      <trkpt lat="45.92581" lon="4.67104">
        <ele>345.399993896</ele>
        <time>2015-08-11T10:18:39.496Z</time>
      </trkpt>
      <trkpt lat="45.92577" lon="4.6712">
        <ele>344.899993896</ele>
        <time>2015-08-11T10:18:40.436Z</time>
      </trkpt>
      <trkpt lat="45.92577" lon="4.6712">
        <ele>344.899993896</ele>
        <time>2015-08-11T10:18:40.484Z</time>
      </trkpt>
      <trkpt lat="45.92571" lon="4.67136">
        <ele>344.600006104</ele>
        <time>2015-08-11T10:18:41.432Z</time>
      </trkpt>
      <trkpt lat="45.92571" lon="4.67136">
        <ele>344.600006104</ele>
        <time>2015-08-11T10:18:41.484Z</time>
      </trkpt>
      <trkpt lat="45.92564" lon="4.67151">
        <ele>344.100006104</ele>
        <time>2015-08-11T10:18:42.43Z</time>
      </trkpt>
      <trkpt lat="45.92564" lon="4.67151">
        <ele>344.100006104</ele>
        <time>2015-08-11T10:18:42.481Z</time>
      </trkpt>
      <trkpt lat="45.92557" lon="4.67168">
        <ele>343.700012207</ele>
        <time>2015-08-11T10:18:43.43Z</time>
      </trkpt>
      <trkpt lat="45.92557" lon="4.67168">
        <ele>343.700012207</ele>
        <time>2015-08-11T10:18:43.556Z</time>
      </trkpt>
      <trkpt lat="45.92552" lon="4.67186">
        <ele>342.899993896</ele>
        <time>2015-08-11T10:18:44.432Z</time>
      </trkpt>
      <trkpt lat="45.92552" lon="4.67186">
        <ele>342.899993896</ele>
        <time>2015-08-11T10:18:44.487Z</time>
      </trkpt>
      <trkpt lat="45.92546" lon="4.67205">
        <ele>342</ele>
        <time>2015-08-11T10:18:45.432Z</time>
      </trkpt>
      <trkpt lat="45.92546" lon="4.67205">
        <ele>342</ele>
        <time>2015-08-11T10:18:45.469Z</time>
      </trkpt>
      <trkpt lat="45.92542" lon="4.67223">
        <ele>341.100006104</ele>
        <time>2015-08-11T10:18:46.434Z</time>
      </trkpt>
      <trkpt lat="45.92542" lon="4.67223">
        <ele>341.100006104</ele>
        <time>2015-08-11T10:18:46.476Z</time>
      </trkpt>
      <trkpt lat="45.92539" lon="4.67242">
        <ele>340.200012207</ele>
        <time>2015-08-11T10:18:47.432Z</time>
      </trkpt>
      <trkpt lat="45.92539" lon="4.67242">
        <ele>340.200012207</ele>
        <time>2015-08-11T10:18:47.471Z</time>
      </trkpt>
      <trkpt lat="45.92536" lon="4.67261">
        <ele>339.600006104</ele>
        <time>2015-08-11T10:18:48.418Z</time>
      </trkpt>
      <trkpt lat="45.92536" lon="4.67261">
        <ele>339.600006104</ele>
        <time>2015-08-11T10:18:48.49Z</time>
      </trkpt>
      <trkpt lat="45.92535" lon="4.67281">
        <ele>338.100006104</ele>
        <time>2015-08-11T10:18:49.436Z</time>
      </trkpt>
      <trkpt lat="45.92535" lon="4.67281">
        <ele>338.100006104</ele>
        <time>2015-08-11T10:18:49.484Z</time>
      </trkpt>
      <trkpt lat="45.92535" lon="4.67301">
        <ele>337.100006104</ele>
        <time>2015-08-11T10:18:50.468Z</time>
      </trkpt>
      <trkpt lat="45.92535" lon="4.67301">
        <ele>337.100006104</ele>
        <time>2015-08-11T10:18:50.569Z</time>
      </trkpt>
      <trkpt lat="45.92539" lon="4.6732">
        <ele>336</ele>
        <time>2015-08-11T10:18:51.434Z</time>
      </trkpt>
      <trkpt lat="45.92539" lon="4.6732">
        <ele>336</ele>
        <time>2015-08-11T10:18:51.484Z</time>
      </trkpt>
      <trkpt lat="45.92544" lon="4.67339">
        <ele>334.5</ele>
        <time>2015-08-11T10:18:52.432Z</time>
      </trkpt>
      <trkpt lat="45.92544" lon="4.67339">
        <ele>334.5</ele>
        <time>2015-08-11T10:18:52.484Z</time>
      </trkpt>
      <trkpt lat="45.92549" lon="4.67357">
        <ele>332.600006104</ele>
        <time>2015-08-11T10:18:53.432Z</time>
      </trkpt>
      <trkpt lat="45.92549" lon="4.67357">
        <ele>332.600006104</ele>
        <time>2015-08-11T10:18:53.506Z</time>
      </trkpt>
      <trkpt lat="45.92556" lon="4.67374">
        <ele>330.200012207</ele>
        <time>2015-08-11T10:18:54.433Z</time>
      </trkpt>
      <trkpt lat="45.92556" lon="4.67374">
        <ele>330.200012207</ele>
        <time>2015-08-11T10:18:54.481Z</time>
      </trkpt>
      <trkpt lat="45.92562" lon="4.67391">
        <ele>327.299987793</ele>
        <time>2015-08-11T10:18:55.433Z</time>
      </trkpt>
      <trkpt lat="45.92562" lon="4.67391">
        <ele>327.299987793</ele>
        <time>2015-08-11T10:18:55.484Z</time>
      </trkpt>
      <trkpt lat="45.92568" lon="4.67409">
        <ele>324.600006104</ele>
        <time>2015-08-11T10:18:56.433Z</time>
      </trkpt>
      <trkpt lat="45.92568" lon="4.67409">
        <ele>324.600006104</ele>
        <time>2015-08-11T10:18:56.483Z</time>
      </trkpt>
      <trkpt lat="45.92574" lon="4.67427">
        <ele>323</ele>
        <time>2015-08-11T10:18:57.433Z</time>
      </trkpt>
      <trkpt lat="45.92574" lon="4.67427">
        <ele>323</ele>
        <time>2015-08-11T10:18:57.48Z</time>
      </trkpt>
      <trkpt lat="45.92579" lon="4.67445">
        <ele>321.200012207</ele>
        <time>2015-08-11T10:18:58.432Z</time>
      </trkpt>
      <trkpt lat="45.92579" lon="4.67445">
        <ele>321.200012207</ele>
        <time>2015-08-11T10:18:58.469Z</time>
      </trkpt>
      <trkpt lat="45.92583" lon="4.67463">
        <ele>319.799987793</ele>
        <time>2015-08-11T10:18:59.425Z</time>
      </trkpt>
      <trkpt lat="45.92583" lon="4.67463">
        <ele>319.799987793</ele>
        <time>2015-08-11T10:18:59.502Z</time>
      </trkpt>
      <trkpt lat="45.92587" lon="4.67481">
        <ele>318.700012207</ele>
        <time>2015-08-11T10:19:00.422Z</time>
      </trkpt>
      <trkpt lat="45.92587" lon="4.67481">
        <ele>318.700012207</ele>
        <time>2015-08-11T10:19:00.509Z</time>
      </trkpt>
      <trkpt lat="45.9259" lon="4.67498">
        <ele>317.200012207</ele>
        <time>2015-08-11T10:19:01.456Z</time>
      </trkpt>
      <trkpt lat="45.9259" lon="4.67498">
        <ele>317.200012207</ele>
        <time>2015-08-11T10:19:01.486Z</time>
      </trkpt>
      <trkpt lat="45.92593" lon="4.67516">
        <ele>315.700012207</ele>
        <time>2015-08-11T10:19:02.433Z</time>
      </trkpt>
      <trkpt lat="45.92593" lon="4.67516">
        <ele>315.700012207</ele>
        <time>2015-08-11T10:19:02.478Z</time>
      </trkpt>
      <trkpt lat="45.92596" lon="4.67532">
        <ele>314.299987793</ele>
        <time>2015-08-11T10:19:03.433Z</time>
      </trkpt>
      <trkpt lat="45.92596" lon="4.67532">
        <ele>314.299987793</ele>
        <time>2015-08-11T10:19:03.481Z</time>
      </trkpt>
      <trkpt lat="45.92599" lon="4.67547">
        <ele>312.100006104</ele>
        <time>2015-08-11T10:19:04.437Z</time>
      </trkpt>
      <trkpt lat="45.92599" lon="4.67547">
        <ele>312.100006104</ele>
        <time>2015-08-11T10:19:04.484Z</time>
      </trkpt>
      <trkpt lat="45.92601" lon="4.67562">
        <ele>311.5</ele>
        <time>2015-08-11T10:19:05.432Z</time>
      </trkpt>
      <trkpt lat="45.92601" lon="4.67562">
        <ele>311.5</ele>
        <time>2015-08-11T10:19:05.482Z</time>
      </trkpt>
      <trkpt lat="45.92604" lon="4.67576">
        <ele>309.5</ele>
        <time>2015-08-11T10:19:06.42Z</time>
      </trkpt>
      <trkpt lat="45.92604" lon="4.67576">
        <ele>309.5</ele>
        <time>2015-08-11T10:19:06.524Z</time>
      </trkpt>
      <trkpt lat="45.92606" lon="4.67589">
        <ele>309.100006104</ele>
        <time>2015-08-11T10:19:07.437Z</time>
      </trkpt>
      <trkpt lat="45.92608" lon="4.676">
        <ele>309</ele>
        <time>2015-08-11T10:19:08.467Z</time>
      </trkpt>
      <trkpt lat="45.92609" lon="4.67611">
        <ele>308.600006104</ele>
        <time>2015-08-11T10:19:09.433Z</time>
      </trkpt>
      <trkpt lat="45.92611" lon="4.67621">
        <ele>307.700012207</ele>
        <time>2015-08-11T10:19:10.467Z</time>
      </trkpt>
      <trkpt lat="45.92612" lon="4.6763">
        <ele>307</ele>
        <time>2015-08-11T10:19:11.433Z</time>
      </trkpt>
      <trkpt lat="45.92612" lon="4.67638">
        <ele>306.799987793</ele>
        <time>2015-08-11T10:19:12.467Z</time>
      </trkpt>
      <trkpt lat="45.92613" lon="4.67645">
        <ele>306.5</ele>
        <time>2015-08-11T10:19:13.436Z</time>
      </trkpt>
      <trkpt lat="45.92614" lon="4.67656">
        <ele>306.299987793</ele>
        <time>2015-08-11T10:19:15.465Z</time>
      </trkpt>
      <trkpt lat="45.92614" lon="4.6766">
        <ele>306.100006104</ele>
        <time>2015-08-11T10:19:16.433Z</time>
      </trkpt>
      <trkpt lat="45.92614" lon="4.67672">
        <ele>305.600006104</ele>
        <time>2015-08-11T10:19:19.467Z</time>
      </trkpt>
      <trkpt lat="45.92614" lon="4.67675">
        <ele>306</ele>
        <time>2015-08-11T10:19:20.433Z</time>
      </trkpt>
      <trkpt lat="45.92614" lon="4.67686">
        <ele>305.399993896</ele>
        <time>2015-08-11T10:19:24.465Z</time>
      </trkpt>
      <trkpt lat="45.92613" lon="4.67689">
        <ele>305.5</ele>
        <time>2015-08-11T10:19:25.433Z</time>
      </trkpt>
      <trkpt lat="45.9261" lon="4.67702">
        <ele>305.299987793</ele>
        <time>2015-08-11T10:19:29.467Z</time>
      </trkpt>
      <trkpt lat="45.9261" lon="4.67704">
        <ele>305.5</ele>
        <time>2015-08-11T10:19:30.431Z</time>
      </trkpt>
      <trkpt lat="45.92606" lon="4.67713">
        <ele>306.799987793</ele>
        <time>2015-08-11T10:19:34.463Z</time>
      </trkpt>
      <trkpt lat="45.92605" lon="4.67716">
        <ele>306.899993896</ele>
        <time>2015-08-11T10:19:35.431Z</time>
      </trkpt>
      <trkpt lat="45.92602" lon="4.67727">
        <ele>308.299987793</ele>
        <time>2015-08-11T10:19:41.464Z</time>
      </trkpt>
      <trkpt lat="45.92601" lon="4.67729">
        <ele>308.399993896</ele>
        <time>2015-08-11T10:19:42.433Z</time>
      </trkpt>
      <trkpt lat="45.92596" lon="4.67737">
        <ele>309</ele>
        <time>2015-08-11T10:19:48.461Z</time>
      </trkpt>
      <trkpt lat="45.92595" lon="4.67739">
        <ele>309.200012207</ele>
        <time>2015-08-11T10:19:49.433Z</time>
      </trkpt>
      <trkpt lat="45.92589" lon="4.67747">
        <ele>311.299987793</ele>
        <time>2015-08-11T10:19:54.467Z</time>
      </trkpt>
      <trkpt lat="45.92588" lon="4.67749">
        <ele>311.899993896</ele>
        <time>2015-08-11T10:19:55.434Z</time>
      </trkpt>
      <trkpt lat="45.92581" lon="4.67757">
        <ele>314.799987793</ele>
        <time>2015-08-11T10:20:01.467Z</time>
      </trkpt>
      <trkpt lat="45.92581" lon="4.67759">
        <ele>315.200012207</ele>
        <time>2015-08-11T10:20:02.441Z</time>
      </trkpt>
      <trkpt lat="45.92575" lon="4.67768">
        <ele>316.600006104</ele>
        <time>2015-08-11T10:20:08.499Z</time>
      </trkpt>
      <trkpt lat="45.92575" lon="4.6777">
        <ele>316.799987793</ele>
        <time>2015-08-11T10:20:09.435Z</time>
      </trkpt>
      <trkpt lat="45.9257" lon="4.6778">
        <ele>317.899993896</ele>
        <time>2015-08-11T10:20:14.463Z</time>
      </trkpt>
      <trkpt lat="45.9257" lon="4.67783">
        <ele>318.5</ele>
        <time>2015-08-11T10:20:15.433Z</time>
      </trkpt>
      <trkpt lat="45.92569" lon="4.67795">
        <ele>319.600006104</ele>
        <time>2015-08-11T10:20:20.468Z</time>
      </trkpt>
      <trkpt lat="45.92569" lon="4.67797">
        <ele>319.799987793</ele>
        <time>2015-08-11T10:20:21.432Z</time>
      </trkpt>
      <trkpt lat="45.92569" lon="4.67809">
        <ele>320.399993896</ele>
        <time>2015-08-11T10:20:26.5Z</time>
      </trkpt>
      <trkpt lat="45.92569" lon="4.67811">
        <ele>320.299987793</ele>
        <time>2015-08-11T10:20:27.433Z</time>
      </trkpt>
      <trkpt lat="45.92567" lon="4.67822">
        <ele>320.600006104</ele>
        <time>2015-08-11T10:20:32.463Z</time>
      </trkpt>
      <trkpt lat="45.92567" lon="4.67825">
        <ele>320.5</ele>
        <time>2015-08-11T10:20:33.434Z</time>
      </trkpt>
      <trkpt lat="45.92569" lon="4.67837">
        <ele>320.700012207</ele>
        <time>2015-08-11T10:20:38.523Z</time>
      </trkpt>
      <trkpt lat="45.92569" lon="4.67838">
        <ele>320.600006104</ele>
        <time>2015-08-11T10:20:39.433Z</time>
      </trkpt>
      <trkpt lat="45.92568" lon="4.67851">
        <ele>321.799987793</ele>
        <time>2015-08-11T10:20:45.5Z</time>
      </trkpt>
      <trkpt lat="45.92568" lon="4.67854">
        <ele>322</ele>
        <time>2015-08-11T10:20:46.433Z</time>
      </trkpt>
      <trkpt lat="45.92566" lon="4.67866">
        <ele>323.5</ele>
        <time>2015-08-11T10:20:51.469Z</time>
      </trkpt>
      <trkpt lat="45.92565" lon="4.67867">
        <ele>323.899993896</ele>
        <time>2015-08-11T10:20:52.433Z</time>
      </trkpt>
      <trkpt lat="45.92565" lon="4.67878">
        <ele>324.799987793</ele>
        <time>2015-08-11T10:20:57.465Z</time>
      </trkpt>
      <trkpt lat="45.92565" lon="4.6788">
        <ele>324.899993896</ele>
        <time>2015-08-11T10:20:58.433Z</time>
      </trkpt>
      <trkpt lat="45.92566" lon="4.67892">
        <ele>325.700012207</ele>
        <time>2015-08-11T10:21:03.465Z</time>
      </trkpt>
      <trkpt lat="45.92566" lon="4.67895">
        <ele>325.799987793</ele>
        <time>2015-08-11T10:21:04.454Z</time>
      </trkpt>
      <trkpt lat="45.92562" lon="4.67906">
        <ele>326.600006104</ele>
        <time>2015-08-11T10:21:08.473Z</time>
      </trkpt>
      <trkpt lat="45.92561" lon="4.67908">
        <ele>326.799987793</ele>
        <time>2015-08-11T10:21:09.428Z</time>
      </trkpt>
      <trkpt lat="45.9256" lon="4.6792">
        <ele>327.799987793</ele>
        <time>2015-08-11T10:21:14.463Z</time>
      </trkpt>
      <trkpt lat="45.92561" lon="4.67922">
        <ele>328</ele>
        <time>2015-08-11T10:21:15.43Z</time>
      </trkpt>
      <trkpt lat="45.92561" lon="4.67933">
        <ele>328.899993896</ele>
        <time>2015-08-11T10:21:19.469Z</time>
      </trkpt>
      <trkpt lat="45.92562" lon="4.67936">
        <ele>329.200012207</ele>
        <time>2015-08-11T10:21:20.433Z</time>
      </trkpt>
      <trkpt lat="45.92561" lon="4.67944">
        <ele>329.700012207</ele>
        <time>2015-08-11T10:21:23.467Z</time>
      </trkpt>
      <trkpt lat="45.92562" lon="4.67946">
        <ele>330</ele>
        <time>2015-08-11T10:21:24.436Z</time>
      </trkpt>
      <trkpt lat="45.92565" lon="4.67951">
        <ele>330.399993896</ele>
        <time>2015-08-11T10:21:26.468Z</time>
      </trkpt>
      <trkpt lat="45.92569" lon="4.67955">
        <ele>330.799987793</ele>
        <time>2015-08-11T10:21:27.433Z</time>
      </trkpt>
      <trkpt lat="45.92572" lon="4.67966">
        <ele>332.200012207</ele>
        <time>2015-08-11T10:21:32.476Z</time>
      </trkpt>
      <trkpt lat="45.92572" lon="4.67968">
        <ele>332.5</ele>
        <time>2015-08-11T10:21:33.432Z</time>
      </trkpt>
      <trkpt lat="45.92572" lon="4.67981">
        <ele>333.600006104</ele>
        <time>2015-08-11T10:21:38.467Z</time>
      </trkpt>
      <trkpt lat="45.92573" lon="4.67986">
        <ele>333.399993896</ele>
        <time>2015-08-11T10:21:39.444Z</time>
      </trkpt>
      <trkpt lat="45.92575" lon="4.67995">
        <ele>333.299987793</ele>
        <time>2015-08-11T10:21:42.479Z</time>
      </trkpt>
      <trkpt lat="45.92575" lon="4.67998">
        <ele>333.299987793</ele>
        <time>2015-08-11T10:21:43.435Z</time>
      </trkpt>
      <trkpt lat="45.92578" lon="4.6801">
        <ele>333.700012207</ele>
        <time>2015-08-11T10:21:47.506Z</time>
      </trkpt>
      <trkpt lat="45.92578" lon="4.68013">
        <ele>333.700012207</ele>
        <time>2015-08-11T10:21:48.432Z</time>
      </trkpt>
      <trkpt lat="45.9258" lon="4.68024">
        <ele>333.5</ele>
        <time>2015-08-11T10:21:52.48Z</time>
      </trkpt>
      <trkpt lat="45.9258" lon="4.68027">
        <ele>333.600006104</ele>
        <time>2015-08-11T10:21:53.432Z</time>
      </trkpt>
      <trkpt lat="45.92583" lon="4.68038">
        <ele>333.600006104</ele>
        <time>2015-08-11T10:21:57.468Z</time>
      </trkpt>
      <trkpt lat="45.92583" lon="4.68041">
        <ele>333.5</ele>
        <time>2015-08-11T10:21:58.452Z</time>
      </trkpt>
      <trkpt lat="45.92585" lon="4.68053">
        <ele>333.299987793</ele>
        <time>2015-08-11T10:22:02.463Z</time>
      </trkpt>
      <trkpt lat="45.92584" lon="4.68056">
        <ele>333.299987793</ele>
        <time>2015-08-11T10:22:03.468Z</time>
      </trkpt>
      <trkpt lat="45.92583" lon="4.68067">
        <ele>333.600006104</ele>
        <time>2015-08-11T10:22:07.469Z</time>
      </trkpt>
      <trkpt lat="45.92581" lon="4.6807">
        <ele>333.899993896</ele>
        <time>2015-08-11T10:22:08.431Z</time>
      </trkpt>
      <trkpt lat="45.92579" lon="4.6808">
        <ele>334.899993896</ele>
        <time>2015-08-11T10:22:13.469Z</time>
      </trkpt>
      <trkpt lat="45.92579" lon="4.68083">
        <ele>335</ele>
        <time>2015-08-11T10:22:14.433Z</time>
      </trkpt>
      <trkpt lat="45.92584" lon="4.68092">
        <ele>335.600006104</ele>
        <time>2015-08-11T10:22:17.495Z</time>
      </trkpt>
      <trkpt lat="45.92585" lon="4.68094">
        <ele>335.700012207</ele>
        <time>2015-08-11T10:22:18.435Z</time>
      </trkpt>
      <trkpt lat="45.92587" lon="4.68106">
        <ele>336.200012207</ele>
        <time>2015-08-11T10:22:22.467Z</time>
      </trkpt>
      <trkpt lat="45.92586" lon="4.6811">
        <ele>336.399993896</ele>
        <time>2015-08-11T10:22:23.431Z</time>
      </trkpt>
      <trkpt lat="45.92582" lon="4.68119">
        <ele>337.700012207</ele>
        <time>2015-08-11T10:22:27.465Z</time>
      </trkpt>
      <trkpt lat="45.92581" lon="4.68122">
        <ele>337.700012207</ele>
        <time>2015-08-11T10:22:28.448Z</time>
      </trkpt>
      <trkpt lat="45.92581" lon="4.68134">
        <ele>338.600006104</ele>
        <time>2015-08-11T10:22:32.462Z</time>
      </trkpt>
      <trkpt lat="45.92581" lon="4.68136">
        <ele>338.799987793</ele>
        <time>2015-08-11T10:22:33.43Z</time>
      </trkpt>
      <trkpt lat="45.9258" lon="4.68149">
        <ele>339.600006104</ele>
        <time>2015-08-11T10:22:37.488Z</time>
      </trkpt>
      <trkpt lat="45.9258" lon="4.68151">
        <ele>339.600006104</ele>
        <time>2015-08-11T10:22:38.465Z</time>
      </trkpt>
      <trkpt lat="45.92583" lon="4.68161">
        <ele>340.100006104</ele>
        <time>2015-08-11T10:22:41.462Z</time>
      </trkpt>
      <trkpt lat="45.92583" lon="4.68164">
        <ele>340.200012207</ele>
        <time>2015-08-11T10:22:42.431Z</time>
      </trkpt>
      <trkpt lat="45.92583" lon="4.68174">
        <ele>340.799987793</ele>
        <time>2015-08-11T10:22:46.475Z</time>
      </trkpt>
      <trkpt lat="45.92583" lon="4.68176">
        <ele>341.100006104</ele>
        <time>2015-08-11T10:22:47.433Z</time>
      </trkpt>
      <trkpt lat="45.92585" lon="4.68188">
        <ele>342.200012207</ele>
        <time>2015-08-11T10:22:52.537Z</time>
      </trkpt>
      <trkpt lat="45.92585" lon="4.68191">
        <ele>342.399993896</ele>
        <time>2015-08-11T10:22:53.432Z</time>
      </trkpt>
      <trkpt lat="45.92586" lon="4.68203">
        <ele>343.399993896</ele>
        <time>2015-08-11T10:22:58.463Z</time>
      </trkpt>
      <trkpt lat="45.92586" lon="4.68206">
        <ele>343.600006104</ele>
        <time>2015-08-11T10:22:59.432Z</time>
      </trkpt>
      <trkpt lat="45.92585" lon="4.68216">
        <ele>344.299987793</ele>
        <time>2015-08-11T10:23:04.462Z</time>
      </trkpt>
      <trkpt lat="45.92586" lon="4.6822">
        <ele>344.600006104</ele>
        <time>2015-08-11T10:23:05.433Z</time>
      </trkpt>
      <trkpt lat="45.92586" lon="4.68231">
        <ele>345.5</ele>
        <time>2015-08-11T10:23:09.465Z</time>
      </trkpt>
      <trkpt lat="45.92585" lon="4.68233">
        <ele>345.700012207</ele>
        <time>2015-08-11T10:23:10.433Z</time>
      </trkpt>
      <trkpt lat="45.92584" lon="4.68246">
        <ele>345.899993896</ele>
        <time>2015-08-11T10:23:15.482Z</time>
      </trkpt>
      <trkpt lat="45.92585" lon="4.68249">
        <ele>345.899993896</ele>
        <time>2015-08-11T10:23:16.444Z</time>
      </trkpt>
      <trkpt lat="45.92586" lon="4.68259">
        <ele>346.5</ele>
        <time>2015-08-11T10:23:20.468Z</time>
      </trkpt>
      <trkpt lat="45.92586" lon="4.68262">
        <ele>346.700012207</ele>
        <time>2015-08-11T10:23:21.433Z</time>
      </trkpt>
      <trkpt lat="45.92587" lon="4.68274">
        <ele>347.5</ele>
        <time>2015-08-11T10:23:26.481Z</time>
      </trkpt>
      <trkpt lat="45.92587" lon="4.68277">
        <ele>347.600006104</ele>
        <time>2015-08-11T10:23:27.433Z</time>
      </trkpt>
      <trkpt lat="45.92586" lon="4.68289">
        <ele>348.700012207</ele>
        <time>2015-08-11T10:23:32.467Z</time>
      </trkpt>
      <trkpt lat="45.92586" lon="4.68291">
        <ele>348.799987793</ele>
        <time>2015-08-11T10:23:33.449Z</time>
      </trkpt>
      <trkpt lat="45.92586" lon="4.68304">
        <ele>349.700012207</ele>
        <time>2015-08-11T10:23:38.484Z</time>
      </trkpt>
      <trkpt lat="45.92587" lon="4.68306">
        <ele>349.799987793</ele>
        <time>2015-08-11T10:23:39.432Z</time>
      </trkpt>
      <trkpt lat="45.92587" lon="4.68316">
        <ele>350.700012207</ele>
        <time>2015-08-11T10:23:43.476Z</time>
      </trkpt>
      <trkpt lat="45.92587" lon="4.68319">
        <ele>350.799987793</ele>
        <time>2015-08-11T10:23:44.433Z</time>
      </trkpt>
      <trkpt lat="45.92584" lon="4.68331">
        <ele>352</ele>
        <time>2015-08-11T10:23:49.483Z</time>
      </trkpt>
      <trkpt lat="45.92584" lon="4.68332">
        <ele>352.5</ele>
        <time>2015-08-11T10:23:50.453Z</time>
      </trkpt>
      <trkpt lat="45.92586" lon="4.68343">
        <ele>353.799987793</ele>
        <time>2015-08-11T10:23:55.477Z</time>
      </trkpt>
      <trkpt lat="45.92586" lon="4.68345">
        <ele>354</ele>
        <time>2015-08-11T10:23:56.433Z</time>
      </trkpt>
      <trkpt lat="45.92585" lon="4.68356">
        <ele>354.299987793</ele>
        <time>2015-08-11T10:24:00.482Z</time>
      </trkpt>
      <trkpt lat="45.92585" lon="4.68358">
        <ele>354.399993896</ele>
        <time>2015-08-11T10:24:01.433Z</time>
      </trkpt>
      <trkpt lat="45.92585" lon="4.68369">
        <ele>355.100006104</ele>
        <time>2015-08-11T10:24:05.468Z</time>
      </trkpt>
      <trkpt lat="45.92585" lon="4.68372">
        <ele>355.399993896</ele>
        <time>2015-08-11T10:24:06.433Z</time>
      </trkpt>
      <trkpt lat="45.92583" lon="4.68382">
        <ele>356.100006104</ele>
        <time>2015-08-11T10:24:10.466Z</time>
      </trkpt>
      <trkpt lat="45.92583" lon="4.68385">
        <ele>356.399993896</ele>
        <time>2015-08-11T10:24:11.431Z</time>
      </trkpt>
      <trkpt lat="45.92584" lon="4.68398">
        <ele>357.200012207</ele>
        <time>2015-08-11T10:24:16.464Z</time>
      </trkpt>
      <trkpt lat="45.92584" lon="4.684">
        <ele>357.399993896</ele>
        <time>2015-08-11T10:24:17.433Z</time>
      </trkpt>
      <trkpt lat="45.92586" lon="4.68412">
        <ele>357.700012207</ele>
        <time>2015-08-11T10:24:22.466Z</time>
      </trkpt>
      <trkpt lat="45.92586" lon="4.68414">
        <ele>357.600006104</ele>
        <time>2015-08-11T10:24:23.432Z</time>
      </trkpt>
      <trkpt lat="45.92586" lon="4.68425">
        <ele>358</ele>
        <time>2015-08-11T10:24:27.47Z</time>
      </trkpt>
      <trkpt lat="45.92586" lon="4.68428">
        <ele>358.100006104</ele>
        <time>2015-08-11T10:24:28.433Z</time>
      </trkpt>
      <trkpt lat="45.92585" lon="4.6844">
        <ele>358.700012207</ele>
        <time>2015-08-11T10:24:33.465Z</time>
      </trkpt>
      <trkpt lat="45.92585" lon="4.68443">
        <ele>358.899993896</ele>
        <time>2015-08-11T10:24:34.431Z</time>
      </trkpt>
      <trkpt lat="45.92583" lon="4.68454">
        <ele>359.600006104</ele>
        <time>2015-08-11T10:24:38.573Z</time>
      </trkpt>
      <trkpt lat="45.92582" lon="4.68457">
        <ele>359.700012207</ele>
        <time>2015-08-11T10:24:39.48Z</time>
      </trkpt>
      <trkpt lat="45.92582" lon="4.68468">
        <ele>360.200012207</ele>
        <time>2015-08-11T10:24:44.465Z</time>
      </trkpt>
      <trkpt lat="45.92582" lon="4.6847">
        <ele>360.399993896</ele>
        <time>2015-08-11T10:24:45.432Z</time>
      </trkpt>
      <trkpt lat="45.92584" lon="4.6848">
        <ele>361.100006104</ele>
        <time>2015-08-11T10:24:49.467Z</time>
      </trkpt>
      <trkpt lat="45.92585" lon="4.68483">
        <ele>361.299987793</ele>
        <time>2015-08-11T10:24:50.432Z</time>
      </trkpt>
      <trkpt lat="45.92585" lon="4.68493">
        <ele>361.899993896</ele>
        <time>2015-08-11T10:24:54.47Z</time>
      </trkpt>
      <trkpt lat="45.92586" lon="4.68497">
        <ele>361.700012207</ele>
        <time>2015-08-11T10:24:55.432Z</time>
      </trkpt>
      <trkpt lat="45.92589" lon="4.68507">
        <ele>361.899993896</ele>
        <time>2015-08-11T10:24:59.467Z</time>
      </trkpt>
      <trkpt lat="45.92589" lon="4.6851">
        <ele>362.100006104</ele>
        <time>2015-08-11T10:25:00.422Z</time>
      </trkpt>
      <trkpt lat="45.92589" lon="4.6852">
        <ele>362.5</ele>
        <time>2015-08-11T10:25:04.466Z</time>
      </trkpt>
      <trkpt lat="45.92589" lon="4.68523">
        <ele>362.600006104</ele>
        <time>2015-08-11T10:25:05.444Z</time>
      </trkpt>
      <trkpt lat="45.92594" lon="4.68532">
        <ele>362.600006104</ele>
        <time>2015-08-11T10:25:09.465Z</time>
      </trkpt>
      <trkpt lat="45.92595" lon="4.68535">
        <ele>362.600006104</ele>
        <time>2015-08-11T10:25:10.436Z</time>
      </trkpt>
      <trkpt lat="45.92594" lon="4.68547">
        <ele>363.100006104</ele>
        <time>2015-08-11T10:25:14.502Z</time>
      </trkpt>
      <trkpt lat="45.92595" lon="4.6855">
        <ele>363.299987793</ele>
        <time>2015-08-11T10:25:15.431Z</time>
      </trkpt>
      <trkpt lat="45.92595" lon="4.68561">
        <ele>364</ele>
        <time>2015-08-11T10:25:19.583Z</time>
      </trkpt>
      <trkpt lat="45.92596" lon="4.68564">
        <ele>364.299987793</ele>
        <time>2015-08-11T10:25:20.432Z</time>
      </trkpt>
      <trkpt lat="45.92597" lon="4.68576">
        <ele>365.5</ele>
        <time>2015-08-11T10:25:24.465Z</time>
      </trkpt>
      <trkpt lat="45.92597" lon="4.68579">
        <ele>365.700012207</ele>
        <time>2015-08-11T10:25:25.432Z</time>
      </trkpt>
      <trkpt lat="45.92597" lon="4.68579">
        <ele>365.700012207</ele>
        <time>2015-08-11T10:25:25.483Z</time>
      </trkpt>
      <trkpt lat="45.92599" lon="4.68579">
        <ele>366</ele>
        <time>2015-08-11T10:25:26.43Z</time>
      </trkpt>
      <trkpt lat="45.92599" lon="4.68579">
        <ele>366</ele>
        <time>2015-08-11T10:25:26.468Z</time>
      </trkpt>
      <trkpt lat="45.92599" lon="4.6858">
        <ele>366.100006104</ele>
        <time>2015-08-11T10:25:27.454Z</time>
      </trkpt>
      <trkpt lat="45.92602" lon="4.68592">
        <ele>367.299987793</ele>
        <time>2015-08-11T10:25:31.642Z</time>
      </trkpt>
      <trkpt lat="45.92603" lon="4.68594">
        <ele>367.600006104</ele>
        <time>2015-08-11T10:25:32.432Z</time>
      </trkpt>
      <trkpt lat="45.92604" lon="4.68605">
        <ele>368.600006104</ele>
        <time>2015-08-11T10:25:36.471Z</time>
      </trkpt>
      <trkpt lat="45.92602" lon="4.68608">
        <ele>368.700012207</ele>
        <time>2015-08-11T10:25:37.435Z</time>
      </trkpt>
      <trkpt lat="45.926" lon="4.68619">
        <ele>369.100006104</ele>
        <time>2015-08-11T10:25:40.476Z</time>
      </trkpt>
      <trkpt lat="45.92599" lon="4.68624">
        <ele>369</ele>
        <time>2015-08-11T10:25:41.435Z</time>
      </trkpt>
      <trkpt lat="45.92598" lon="4.68633">
        <ele>368.899993896</ele>
        <time>2015-08-11T10:25:43.473Z</time>
      </trkpt>
      <trkpt lat="45.92596" lon="4.68638">
        <ele>369</ele>
        <time>2015-08-11T10:25:44.429Z</time>
      </trkpt>
      <trkpt lat="45.92591" lon="4.68647">
        <ele>369.100006104</ele>
        <time>2015-08-11T10:25:46.467Z</time>
      </trkpt>
      <trkpt lat="45.92589" lon="4.68652">
        <ele>369</ele>
        <time>2015-08-11T10:25:47.432Z</time>
      </trkpt>
      <trkpt lat="45.92586" lon="4.68662">
        <ele>368.899993896</ele>
        <time>2015-08-11T10:25:49.468Z</time>
      </trkpt>
      <trkpt lat="45.92587" lon="4.68669">
        <ele>368.799987793</ele>
        <time>2015-08-11T10:25:50.444Z</time>
      </trkpt>
      <trkpt lat="45.92588" lon="4.68679">
        <ele>368.600006104</ele>
        <time>2015-08-11T10:25:52.594Z</time>
      </trkpt>
      <trkpt lat="45.92589" lon="4.68687">
        <ele>368.399993896</ele>
        <time>2015-08-11T10:25:53.471Z</time>
      </trkpt>
      <trkpt lat="45.92584" lon="4.68694">
        <ele>367.899993896</ele>
        <time>2015-08-11T10:25:55.491Z</time>
      </trkpt>
      <trkpt lat="45.92585" lon="4.68705">
        <ele>367.5</ele>
        <time>2015-08-11T10:25:56.443Z</time>
      </trkpt>
      <trkpt lat="45.92584" lon="4.68714">
        <ele>367.299987793</ele>
        <time>2015-08-11T10:25:57.481Z</time>
      </trkpt>
      <trkpt lat="45.92582" lon="4.68722">
        <ele>367.100006104</ele>
        <time>2015-08-11T10:25:58.428Z</time>
      </trkpt>
      <trkpt lat="45.92581" lon="4.6873">
        <ele>366.799987793</ele>
        <time>2015-08-11T10:25:59.47Z</time>
      </trkpt>
      <trkpt lat="45.92579" lon="4.6874">
        <ele>366.700012207</ele>
        <time>2015-08-11T10:26:00.438Z</time>
      </trkpt>
      <trkpt lat="45.92577" lon="4.68751">
        <ele>366.5</ele>
        <time>2015-08-11T10:26:01.478Z</time>
      </trkpt>
      <trkpt lat="45.92575" lon="4.68763">
        <ele>366.200012207</ele>
        <time>2015-08-11T10:26:02.438Z</time>
      </trkpt>
      <trkpt lat="45.92571" lon="4.68774">
        <ele>366</ele>
        <time>2015-08-11T10:26:03.472Z</time>
      </trkpt>
      <trkpt lat="45.92569" lon="4.68787">
        <ele>365.700012207</ele>
        <time>2015-08-11T10:26:04.423Z</time>
      </trkpt>
      <trkpt lat="45.92569" lon="4.68787">
        <ele>365.700012207</ele>
        <time>2015-08-11T10:26:04.501Z</time>
      </trkpt>
      <trkpt lat="45.92565" lon="4.688">
        <ele>365.399993896</ele>
        <time>2015-08-11T10:26:05.44Z</time>
      </trkpt>
      <trkpt lat="45.92565" lon="4.688">
        <ele>365.399993896</ele>
        <time>2015-08-11T10:26:05.485Z</time>
      </trkpt>
      <trkpt lat="45.92562" lon="4.68813">
        <ele>365.200012207</ele>
        <time>2015-08-11T10:26:06.426Z</time>
      </trkpt>
      <trkpt lat="45.92562" lon="4.68813">
        <ele>365.200012207</ele>
        <time>2015-08-11T10:26:06.53Z</time>
      </trkpt>
      <trkpt lat="45.92557" lon="4.68826">
        <ele>365</ele>
        <time>2015-08-11T10:26:07.444Z</time>
      </trkpt>
      <trkpt lat="45.92557" lon="4.68826">
        <ele>365</ele>
        <time>2015-08-11T10:26:07.493Z</time>
      </trkpt>
      <trkpt lat="45.92554" lon="4.68841">
        <ele>364.600006104</ele>
        <time>2015-08-11T10:26:08.433Z</time>
      </trkpt>
      <trkpt lat="45.92554" lon="4.68841">
        <ele>364.600006104</ele>
        <time>2015-08-11T10:26:08.5Z</time>
      </trkpt>
      <trkpt lat="45.9255" lon="4.68855">
        <ele>364.399993896</ele>
        <time>2015-08-11T10:26:09.457Z</time>
      </trkpt>
      <trkpt lat="45.9255" lon="4.68855">
        <ele>364.399993896</ele>
        <time>2015-08-11T10:26:09.518Z</time>
      </trkpt>
      <trkpt lat="45.92548" lon="4.6887">
        <ele>364.200012207</ele>
        <time>2015-08-11T10:26:10.439Z</time>
      </trkpt>
      <trkpt lat="45.92548" lon="4.6887">
        <ele>364.200012207</ele>
        <time>2015-08-11T10:26:10.5Z</time>
      </trkpt>
      <trkpt lat="45.92544" lon="4.68886">
        <ele>363.899993896</ele>
        <time>2015-08-11T10:26:11.44Z</time>
      </trkpt>
      <trkpt lat="45.92544" lon="4.68886">
        <ele>363.899993896</ele>
        <time>2015-08-11T10:26:11.49Z</time>
      </trkpt>
      <trkpt lat="45.92541" lon="4.68901">
        <ele>363.5</ele>
        <time>2015-08-11T10:26:12.421Z</time>
      </trkpt>
      <trkpt lat="45.92541" lon="4.68901">
        <ele>363.5</ele>
        <time>2015-08-11T10:26:12.495Z</time>
      </trkpt>
      <trkpt lat="45.92538" lon="4.68916">
        <ele>363.200012207</ele>
        <time>2015-08-11T10:26:13.437Z</time>
      </trkpt>
      <trkpt lat="45.92538" lon="4.68916">
        <ele>363.200012207</ele>
        <time>2015-08-11T10:26:13.486Z</time>
      </trkpt>
      <trkpt lat="45.92536" lon="4.68931">
        <ele>362.5</ele>
        <time>2015-08-11T10:26:14.439Z</time>
      </trkpt>
      <trkpt lat="45.92536" lon="4.68931">
        <ele>362.5</ele>
        <time>2015-08-11T10:26:14.487Z</time>
      </trkpt>
      <trkpt lat="45.92533" lon="4.68944">
        <ele>362.200012207</ele>
        <time>2015-08-11T10:26:15.44Z</time>
      </trkpt>
      <trkpt lat="45.92531" lon="4.68956">
        <ele>361.799987793</ele>
        <time>2015-08-11T10:26:16.471Z</time>
      </trkpt>
      <trkpt lat="45.92528" lon="4.68967">
        <ele>361.5</ele>
        <time>2015-08-11T10:26:17.436Z</time>
      </trkpt>
      <trkpt lat="45.92527" lon="4.68977">
        <ele>360.899993896</ele>
        <time>2015-08-11T10:26:18.474Z</time>
      </trkpt>
      <trkpt lat="45.92527" lon="4.68989">
        <ele>360.399993896</ele>
        <time>2015-08-11T10:26:19.437Z</time>
      </trkpt>
      <trkpt lat="45.92528" lon="4.68999">
        <ele>359.899993896</ele>
        <time>2015-08-11T10:26:20.473Z</time>
      </trkpt>
      <trkpt lat="45.92531" lon="4.6901">
        <ele>359.799987793</ele>
        <time>2015-08-11T10:26:21.44Z</time>
      </trkpt>
      <trkpt lat="45.92531" lon="4.6901">
        <ele>359.799987793</ele>
        <time>2015-08-11T10:26:21.488Z</time>
      </trkpt>
      <trkpt lat="45.92544" lon="4.69024">
        <ele>359.600006104</ele>
        <time>2015-08-11T10:26:22.439Z</time>
      </trkpt>
      <trkpt lat="45.92544" lon="4.69024">
        <ele>359.600006104</ele>
        <time>2015-08-11T10:26:22.487Z</time>
      </trkpt>
      <trkpt lat="45.9255" lon="4.69036">
        <ele>359.399993896</ele>
        <time>2015-08-11T10:26:23.823Z</time>
      </trkpt>
      <trkpt lat="45.9255" lon="4.69036">
        <ele>359.399993896</ele>
        <time>2015-08-11T10:26:23.857Z</time>
      </trkpt>
      <trkpt lat="45.92556" lon="4.69049">
        <ele>359</ele>
        <time>2015-08-11T10:26:24.431Z</time>
      </trkpt>
      <trkpt lat="45.92556" lon="4.69049">
        <ele>359</ele>
        <time>2015-08-11T10:26:24.498Z</time>
      </trkpt>
      <trkpt lat="45.92563" lon="4.6906">
        <ele>358.799987793</ele>
        <time>2015-08-11T10:26:25.438Z</time>
      </trkpt>
      <trkpt lat="45.92563" lon="4.6906">
        <ele>358.799987793</ele>
        <time>2015-08-11T10:26:25.484Z</time>
      </trkpt>
      <trkpt lat="45.92569" lon="4.69073">
        <ele>358.5</ele>
        <time>2015-08-11T10:26:26.48Z</time>
      </trkpt>
      <trkpt lat="45.92569" lon="4.69073">
        <ele>358.5</ele>
        <time>2015-08-11T10:26:26.54Z</time>
      </trkpt>
      <trkpt lat="45.92576" lon="4.69086">
        <ele>358.200012207</ele>
        <time>2015-08-11T10:26:27.436Z</time>
      </trkpt>
      <trkpt lat="45.92576" lon="4.69086">
        <ele>358.200012207</ele>
        <time>2015-08-11T10:26:27.494Z</time>
      </trkpt>
      <trkpt lat="45.92583" lon="4.69099">
        <ele>357.899993896</ele>
        <time>2015-08-11T10:26:28.437Z</time>
      </trkpt>
      <trkpt lat="45.92583" lon="4.69099">
        <ele>357.899993896</ele>
        <time>2015-08-11T10:26:28.486Z</time>
      </trkpt>
      <trkpt lat="45.92589" lon="4.69111">
        <ele>357.700012207</ele>
        <time>2015-08-11T10:26:29.438Z</time>
      </trkpt>
      <trkpt lat="45.92589" lon="4.69111">
        <ele>357.700012207</ele>
        <time>2015-08-11T10:26:29.474Z</time>
      </trkpt>
      <trkpt lat="45.92596" lon="4.69123">
        <ele>357.5</ele>
        <time>2015-08-11T10:26:30.461Z</time>
      </trkpt>
      <trkpt lat="45.92596" lon="4.69123">
        <ele>357.5</ele>
        <time>2015-08-11T10:26:30.508Z</time>
      </trkpt>
      <trkpt lat="45.92602" lon="4.69135">
        <ele>357.399993896</ele>
        <time>2015-08-11T10:26:31.486Z</time>
      </trkpt>
      <trkpt lat="45.92602" lon="4.69135">
        <ele>357.399993896</ele>
        <time>2015-08-11T10:26:31.69Z</time>
      </trkpt>
      <trkpt lat="45.92608" lon="4.69147">
        <ele>357.200012207</ele>
        <time>2015-08-11T10:26:32.432Z</time>
      </trkpt>
      <trkpt lat="45.92608" lon="4.69147">
        <ele>357.200012207</ele>
        <time>2015-08-11T10:26:32.494Z</time>
      </trkpt>
      <trkpt lat="45.92614" lon="4.69157">
        <ele>356.799987793</ele>
        <time>2015-08-11T10:26:33.435Z</time>
      </trkpt>
      <trkpt lat="45.92614" lon="4.69157">
        <ele>356.799987793</ele>
        <time>2015-08-11T10:26:33.481Z</time>
      </trkpt>
      <trkpt lat="45.9262" lon="4.69167">
        <ele>356.700012207</ele>
        <time>2015-08-11T10:26:34.431Z</time>
      </trkpt>
      <trkpt lat="45.92626" lon="4.69175">
        <ele>356.600006104</ele>
        <time>2015-08-11T10:26:35.491Z</time>
      </trkpt>
      <trkpt lat="45.92632" lon="4.69184">
        <ele>356.399993896</ele>
        <time>2015-08-11T10:26:36.44Z</time>
      </trkpt>
      <trkpt lat="45.92637" lon="4.69192">
        <ele>356.200012207</ele>
        <time>2015-08-11T10:26:37.483Z</time>
      </trkpt>
      <trkpt lat="45.92644" lon="4.692">
        <ele>355.899993896</ele>
        <time>2015-08-11T10:26:38.434Z</time>
      </trkpt>
      <trkpt lat="45.92651" lon="4.69199">
        <ele>355.299987793</ele>
        <time>2015-08-11T10:26:39.472Z</time>
      </trkpt>
      <trkpt lat="45.92661" lon="4.69202">
        <ele>353.600006104</ele>
        <time>2015-08-11T10:26:40.438Z</time>
      </trkpt>
      <trkpt lat="45.92668" lon="4.69197">
        <ele>352.600006104</ele>
        <time>2015-08-11T10:26:41.467Z</time>
      </trkpt>
      <trkpt lat="45.92675" lon="4.69192">
        <ele>351.600006104</ele>
        <time>2015-08-11T10:26:42.425Z</time>
      </trkpt>
      <trkpt lat="45.92681" lon="4.69183">
        <ele>350.799987793</ele>
        <time>2015-08-11T10:26:43.471Z</time>
      </trkpt>
      <trkpt lat="45.92684" lon="4.69172">
        <ele>350.299987793</ele>
        <time>2015-08-11T10:26:44.438Z</time>
      </trkpt>
      <trkpt lat="45.92687" lon="4.69162">
        <ele>349.700012207</ele>
        <time>2015-08-11T10:26:45.47Z</time>
      </trkpt>
      <trkpt lat="45.9269" lon="4.6915">
        <ele>349.200012207</ele>
        <time>2015-08-11T10:26:46.44Z</time>
      </trkpt>
      <trkpt lat="45.92691" lon="4.6914">
        <ele>348.799987793</ele>
        <time>2015-08-11T10:26:47.494Z</time>
      </trkpt>
      <trkpt lat="45.92689" lon="4.69129">
        <ele>347.899993896</ele>
        <time>2015-08-11T10:26:48.442Z</time>
      </trkpt>
      <trkpt lat="45.92689" lon="4.69118">
        <ele>347.5</ele>
        <time>2015-08-11T10:26:49.469Z</time>
      </trkpt>
      <trkpt lat="45.92689" lon="4.69107">
        <ele>346.799987793</ele>
        <time>2015-08-11T10:26:50.431Z</time>
      </trkpt>
      <trkpt lat="45.92688" lon="4.69095">
        <ele>345.799987793</ele>
        <time>2015-08-11T10:26:51.483Z</time>
      </trkpt>
      <trkpt lat="45.92687" lon="4.69083">
        <ele>345.200012207</ele>
        <time>2015-08-11T10:26:52.436Z</time>
      </trkpt>
      <trkpt lat="45.92687" lon="4.69072">
        <ele>344.700012207</ele>
        <time>2015-08-11T10:26:53.471Z</time>
      </trkpt>
      <trkpt lat="45.92688" lon="4.69062">
        <ele>344.200012207</ele>
        <time>2015-08-11T10:26:54.434Z</time>
      </trkpt>
      <trkpt lat="45.9269" lon="4.69052">
        <ele>343.600006104</ele>
        <time>2015-08-11T10:26:55.471Z</time>
      </trkpt>
      <trkpt lat="45.92693" lon="4.69042">
        <ele>343.200012207</ele>
        <time>2015-08-11T10:26:56.435Z</time>
      </trkpt>
      <trkpt lat="45.92697" lon="4.69033">
        <ele>342.700012207</ele>
        <time>2015-08-11T10:26:57.485Z</time>
      </trkpt>
      <trkpt lat="45.92701" lon="4.69026">
        <ele>342.200012207</ele>
        <time>2015-08-11T10:26:58.434Z</time>
      </trkpt>
      <trkpt lat="45.92707" lon="4.6902">
        <ele>341.700012207</ele>
        <time>2015-08-11T10:26:59.479Z</time>
      </trkpt>
      <trkpt lat="45.92712" lon="4.69016">
        <ele>341</ele>
        <time>2015-08-11T10:27:00.457Z</time>
      </trkpt>
      <trkpt lat="45.92719" lon="4.69015">
        <ele>340.5</ele>
        <time>2015-08-11T10:27:01.488Z</time>
      </trkpt>
      <trkpt lat="45.92726" lon="4.69015">
        <ele>340</ele>
        <time>2015-08-11T10:27:02.44Z</time>
      </trkpt>
      <trkpt lat="45.92733" lon="4.69017">
        <ele>339.399993896</ele>
        <time>2015-08-11T10:27:03.473Z</time>
      </trkpt>
      <trkpt lat="45.9274" lon="4.69019">
        <ele>338.799987793</ele>
        <time>2015-08-11T10:27:04.441Z</time>
      </trkpt>
      <trkpt lat="45.92746" lon="4.69021">
        <ele>338.100006104</ele>
        <time>2015-08-11T10:27:05.473Z</time>
      </trkpt>
      <trkpt lat="45.92754" lon="4.69024">
        <ele>337.700012207</ele>
        <time>2015-08-11T10:27:06.436Z</time>
      </trkpt>
      <trkpt lat="45.92761" lon="4.69025">
        <ele>336.899993896</ele>
        <time>2015-08-11T10:27:07.472Z</time>
      </trkpt>
      <trkpt lat="45.92769" lon="4.69027">
        <ele>336.299987793</ele>
        <time>2015-08-11T10:27:08.44Z</time>
      </trkpt>
      <trkpt lat="45.92777" lon="4.6903">
        <ele>335.799987793</ele>
        <time>2015-08-11T10:27:09.472Z</time>
      </trkpt>
      <trkpt lat="45.92787" lon="4.69031">
        <ele>334.799987793</ele>
        <time>2015-08-11T10:27:10.432Z</time>
      </trkpt>
      <trkpt lat="45.92787" lon="4.69031">
        <ele>334.799987793</ele>
        <time>2015-08-11T10:27:10.514Z</time>
      </trkpt>
      <trkpt lat="45.92797" lon="4.69033">
        <ele>334.200012207</ele>
        <time>2015-08-11T10:27:11.434Z</time>
      </trkpt>
      <trkpt lat="45.92797" lon="4.69033">
        <ele>334.200012207</ele>
        <time>2015-08-11T10:27:11.469Z</time>
      </trkpt>
      <trkpt lat="45.92805" lon="4.69035">
        <ele>333.700012207</ele>
        <time>2015-08-11T10:27:12.478Z</time>
      </trkpt>
      <trkpt lat="45.92805" lon="4.69035">
        <ele>333.700012207</ele>
        <time>2015-08-11T10:27:12.613Z</time>
      </trkpt>
      <trkpt lat="45.92813" lon="4.69042">
        <ele>333.100006104</ele>
        <time>2015-08-11T10:27:13.443Z</time>
      </trkpt>
      <trkpt lat="45.9282" lon="4.69049">
        <ele>332.299987793</ele>
        <time>2015-08-11T10:27:14.47Z</time>
      </trkpt>
      <trkpt lat="45.92823" lon="4.69064">
        <ele>331.100006104</ele>
        <time>2015-08-11T10:27:15.429Z</time>
      </trkpt>
      <trkpt lat="45.92823" lon="4.69064">
        <ele>331.100006104</ele>
        <time>2015-08-11T10:27:15.486Z</time>
      </trkpt>
      <trkpt lat="45.92821" lon="4.6908">
        <ele>329.700012207</ele>
        <time>2015-08-11T10:27:16.433Z</time>
      </trkpt>
      <trkpt lat="45.92821" lon="4.6908">
        <ele>329.700012207</ele>
        <time>2015-08-11T10:27:16.521Z</time>
      </trkpt>
      <trkpt lat="45.92822" lon="4.69094">
        <ele>329</ele>
        <time>2015-08-11T10:27:17.433Z</time>
      </trkpt>
      <trkpt lat="45.92822" lon="4.69094">
        <ele>329</ele>
        <time>2015-08-11T10:27:17.487Z</time>
      </trkpt>
      <trkpt lat="45.9282" lon="4.6911">
        <ele>328.700012207</ele>
        <time>2015-08-11T10:27:18.437Z</time>
      </trkpt>
      <trkpt lat="45.9282" lon="4.6911">
        <ele>328.700012207</ele>
        <time>2015-08-11T10:27:18.496Z</time>
      </trkpt>
      <trkpt lat="45.92817" lon="4.69123">
        <ele>327.899993896</ele>
        <time>2015-08-11T10:27:19.431Z</time>
      </trkpt>
      <trkpt lat="45.92817" lon="4.69123">
        <ele>327.899993896</ele>
        <time>2015-08-11T10:27:19.5Z</time>
      </trkpt>
      <trkpt lat="45.92815" lon="4.69137">
        <ele>327.100006104</ele>
        <time>2015-08-11T10:27:20.433Z</time>
      </trkpt>
      <trkpt lat="45.92815" lon="4.69137">
        <ele>327.100006104</ele>
        <time>2015-08-11T10:27:20.494Z</time>
      </trkpt>
      <trkpt lat="45.92812" lon="4.69151">
        <ele>326.200012207</ele>
        <time>2015-08-11T10:27:21.435Z</time>
      </trkpt>
      <trkpt lat="45.92812" lon="4.69151">
        <ele>326.200012207</ele>
        <time>2015-08-11T10:27:21.654Z</time>
      </trkpt>
      <trkpt lat="45.9281" lon="4.69165">
        <ele>325.600006104</ele>
        <time>2015-08-11T10:27:22.433Z</time>
      </trkpt>
      <trkpt lat="45.9281" lon="4.69165">
        <ele>325.600006104</ele>
        <time>2015-08-11T10:27:22.493Z</time>
      </trkpt>
      <trkpt lat="45.92808" lon="4.69179">
        <ele>325.100006104</ele>
        <time>2015-08-11T10:27:23.434Z</time>
      </trkpt>
      <trkpt lat="45.92808" lon="4.69179">
        <ele>325.100006104</ele>
        <time>2015-08-11T10:27:23.486Z</time>
      </trkpt>
      <trkpt lat="45.92807" lon="4.69192">
        <ele>324.5</ele>
        <time>2015-08-11T10:27:24.432Z</time>
      </trkpt>
      <trkpt lat="45.92807" lon="4.69192">
        <ele>324.5</ele>
        <time>2015-08-11T10:27:24.472Z</time>
      </trkpt>
      <trkpt lat="45.92806" lon="4.69206">
        <ele>323.799987793</ele>
        <time>2015-08-11T10:27:25.437Z</time>
      </trkpt>
      <trkpt lat="45.92806" lon="4.69206">
        <ele>323.799987793</ele>
        <time>2015-08-11T10:27:25.486Z</time>
      </trkpt>
      <trkpt lat="45.92806" lon="4.69219">
        <ele>322.600006104</ele>
        <time>2015-08-11T10:27:26.439Z</time>
      </trkpt>
      <trkpt lat="45.92806" lon="4.69219">
        <ele>322.600006104</ele>
        <time>2015-08-11T10:27:26.471Z</time>
      </trkpt>
      <trkpt lat="45.92806" lon="4.69233">
        <ele>321.899993896</ele>
        <time>2015-08-11T10:27:27.433Z</time>
      </trkpt>
      <trkpt lat="45.92806" lon="4.69233">
        <ele>321.899993896</ele>
        <time>2015-08-11T10:27:27.488Z</time>
      </trkpt>
      <trkpt lat="45.92807" lon="4.69248">
        <ele>320.899993896</ele>
        <time>2015-08-11T10:27:28.438Z</time>
      </trkpt>
      <trkpt lat="45.92807" lon="4.69248">
        <ele>320.899993896</ele>
        <time>2015-08-11T10:27:28.47Z</time>
      </trkpt>
      <trkpt lat="45.9281" lon="4.69262">
        <ele>319.600006104</ele>
        <time>2015-08-11T10:27:29.433Z</time>
      </trkpt>
      <trkpt lat="45.9281" lon="4.69262">
        <ele>319.600006104</ele>
        <time>2015-08-11T10:27:29.486Z</time>
      </trkpt>
      <trkpt lat="45.92815" lon="4.69276">
        <ele>318.700012207</ele>
        <time>2015-08-11T10:27:30.438Z</time>
      </trkpt>
      <trkpt lat="45.92815" lon="4.69276">
        <ele>318.700012207</ele>
        <time>2015-08-11T10:27:30.484Z</time>
      </trkpt>
      <trkpt lat="45.92822" lon="4.69287">
        <ele>317.899993896</ele>
        <time>2015-08-11T10:27:31.433Z</time>
      </trkpt>
      <trkpt lat="45.92822" lon="4.69287">
        <ele>317.899993896</ele>
        <time>2015-08-11T10:27:31.488Z</time>
      </trkpt>
      <trkpt lat="45.92829" lon="4.69298">
        <ele>316.700012207</ele>
        <time>2015-08-11T10:27:32.433Z</time>
      </trkpt>
      <trkpt lat="45.92829" lon="4.69298">
        <ele>316.700012207</ele>
        <time>2015-08-11T10:27:32.481Z</time>
      </trkpt>
      <trkpt lat="45.92838" lon="4.69307">
        <ele>315</ele>
        <time>2015-08-11T10:27:33.433Z</time>
      </trkpt>
      <trkpt lat="45.92838" lon="4.69307">
        <ele>315</ele>
        <time>2015-08-11T10:27:33.47Z</time>
      </trkpt>
      <trkpt lat="45.92846" lon="4.69317">
        <ele>314.100006104</ele>
        <time>2015-08-11T10:27:34.437Z</time>
      </trkpt>
      <trkpt lat="45.92846" lon="4.69317">
        <ele>314.100006104</ele>
        <time>2015-08-11T10:27:34.47Z</time>
      </trkpt>
      <trkpt lat="45.92853" lon="4.69326">
        <ele>312.899993896</ele>
        <time>2015-08-11T10:27:35.438Z</time>
      </trkpt>
      <trkpt lat="45.92853" lon="4.69326">
        <ele>312.899993896</ele>
        <time>2015-08-11T10:27:35.476Z</time>
      </trkpt>
      <trkpt lat="45.9286" lon="4.69338">
        <ele>311.899993896</ele>
        <time>2015-08-11T10:27:36.434Z</time>
      </trkpt>
      <trkpt lat="45.9286" lon="4.69338">
        <ele>311.899993896</ele>
        <time>2015-08-11T10:27:36.491Z</time>
      </trkpt>
      <trkpt lat="45.92866" lon="4.6935">
        <ele>311.399993896</ele>
        <time>2015-08-11T10:27:37.437Z</time>
      </trkpt>
      <trkpt lat="45.92866" lon="4.6935">
        <ele>311.399993896</ele>
        <time>2015-08-11T10:27:37.475Z</time>
      </trkpt>
      <trkpt lat="45.92871" lon="4.69363">
        <ele>310.700012207</ele>
        <time>2015-08-11T10:27:38.494Z</time>
      </trkpt>
      <trkpt lat="45.92871" lon="4.69363">
        <ele>310.700012207</ele>
        <time>2015-08-11T10:27:38.672Z</time>
      </trkpt>
      <trkpt lat="45.92876" lon="4.69376">
        <ele>309.600006104</ele>
        <time>2015-08-11T10:27:39.436Z</time>
      </trkpt>
      <trkpt lat="45.92876" lon="4.69376">
        <ele>309.600006104</ele>
        <time>2015-08-11T10:27:39.493Z</time>
      </trkpt>
      <trkpt lat="45.9288" lon="4.6939">
        <ele>307.5</ele>
        <time>2015-08-11T10:27:40.434Z</time>
      </trkpt>
      <trkpt lat="45.9288" lon="4.6939">
        <ele>307.5</ele>
        <time>2015-08-11T10:27:40.51Z</time>
      </trkpt>
      <trkpt lat="45.92884" lon="4.69404">
        <ele>306.600006104</ele>
        <time>2015-08-11T10:27:41.434Z</time>
      </trkpt>
      <trkpt lat="45.92884" lon="4.69404">
        <ele>306.600006104</ele>
        <time>2015-08-11T10:27:41.496Z</time>
      </trkpt>
      <trkpt lat="45.92888" lon="4.69419">
        <ele>306</ele>
        <time>2015-08-11T10:27:42.432Z</time>
      </trkpt>
      <trkpt lat="45.92888" lon="4.69419">
        <ele>306</ele>
        <time>2015-08-11T10:27:42.486Z</time>
      </trkpt>
      <trkpt lat="45.92891" lon="4.69434">
        <ele>305.299987793</ele>
        <time>2015-08-11T10:27:43.452Z</time>
      </trkpt>
      <trkpt lat="45.92891" lon="4.69434">
        <ele>305.299987793</ele>
        <time>2015-08-11T10:27:43.5Z</time>
      </trkpt>
      <trkpt lat="45.92895" lon="4.69448">
        <ele>304.600006104</ele>
        <time>2015-08-11T10:27:44.432Z</time>
      </trkpt>
      <trkpt lat="45.92895" lon="4.69448">
        <ele>304.600006104</ele>
        <time>2015-08-11T10:27:44.55Z</time>
      </trkpt>
      <trkpt lat="45.929" lon="4.69462">
        <ele>303.899993896</ele>
        <time>2015-08-11T10:27:45.439Z</time>
      </trkpt>
      <trkpt lat="45.929" lon="4.69462">
        <ele>303.899993896</ele>
        <time>2015-08-11T10:27:45.473Z</time>
      </trkpt>
      <trkpt lat="45.92904" lon="4.69476">
        <ele>303.100006104</ele>
        <time>2015-08-11T10:27:46.421Z</time>
      </trkpt>
      <trkpt lat="45.92904" lon="4.69476">
        <ele>303.100006104</ele>
        <time>2015-08-11T10:27:46.495Z</time>
      </trkpt>
      <trkpt lat="45.9291" lon="4.69489">
        <ele>302.100006104</ele>
        <time>2015-08-11T10:27:47.432Z</time>
      </trkpt>
      <trkpt lat="45.9291" lon="4.69489">
        <ele>302.100006104</ele>
        <time>2015-08-11T10:27:47.477Z</time>
      </trkpt>
      <trkpt lat="45.92917" lon="4.69502">
        <ele>301.200012207</ele>
        <time>2015-08-11T10:27:48.437Z</time>
      </trkpt>
      <trkpt lat="45.92917" lon="4.69502">
        <ele>301.200012207</ele>
        <time>2015-08-11T10:27:48.522Z</time>
      </trkpt>
      <trkpt lat="45.92924" lon="4.69513">
        <ele>300.200012207</ele>
        <time>2015-08-11T10:27:49.437Z</time>
      </trkpt>
      <trkpt lat="45.92924" lon="4.69513">
        <ele>300.200012207</ele>
        <time>2015-08-11T10:27:49.49Z</time>
      </trkpt>
      <trkpt lat="45.92931" lon="4.69525">
        <ele>299.5</ele>
        <time>2015-08-11T10:27:50.434Z</time>
      </trkpt>
      <trkpt lat="45.92931" lon="4.69525">
        <ele>299.5</ele>
        <time>2015-08-11T10:27:50.469Z</time>
      </trkpt>
      <trkpt lat="45.92938" lon="4.69537">
        <ele>298.5</ele>
        <time>2015-08-11T10:27:51.433Z</time>
      </trkpt>
      <trkpt lat="45.92938" lon="4.69537">
        <ele>298.5</ele>
        <time>2015-08-11T10:27:51.49Z</time>
      </trkpt>
      <trkpt lat="45.92946" lon="4.69549">
        <ele>297.5</ele>
        <time>2015-08-11T10:27:52.433Z</time>
      </trkpt>
      <trkpt lat="45.92946" lon="4.69549">
        <ele>297.5</ele>
        <time>2015-08-11T10:27:52.501Z</time>
      </trkpt>
      <trkpt lat="45.92953" lon="4.69562">
        <ele>296.799987793</ele>
        <time>2015-08-11T10:27:53.435Z</time>
      </trkpt>
      <trkpt lat="45.92953" lon="4.69562">
        <ele>296.799987793</ele>
        <time>2015-08-11T10:27:53.468Z</time>
      </trkpt>
      <trkpt lat="45.92959" lon="4.69575">
        <ele>296.100006104</ele>
        <time>2015-08-11T10:27:54.422Z</time>
      </trkpt>
      <trkpt lat="45.92959" lon="4.69575">
        <ele>296.100006104</ele>
        <time>2015-08-11T10:27:54.507Z</time>
      </trkpt>
      <trkpt lat="45.92965" lon="4.69587">
        <ele>295.299987793</ele>
        <time>2015-08-11T10:27:55.435Z</time>
      </trkpt>
      <trkpt lat="45.92965" lon="4.69587">
        <ele>295.299987793</ele>
        <time>2015-08-11T10:27:55.499Z</time>
      </trkpt>
      <trkpt lat="45.92973" lon="4.69598">
        <ele>294.600006104</ele>
        <time>2015-08-11T10:27:56.433Z</time>
      </trkpt>
      <trkpt lat="45.92973" lon="4.69598">
        <ele>294.600006104</ele>
        <time>2015-08-11T10:27:56.515Z</time>
      </trkpt>
      <trkpt lat="45.92981" lon="4.69608">
        <ele>293.700012207</ele>
        <time>2015-08-11T10:27:57.436Z</time>
      </trkpt>
      <trkpt lat="45.92981" lon="4.69608">
        <ele>293.700012207</ele>
        <time>2015-08-11T10:27:57.51Z</time>
      </trkpt>
      <trkpt lat="45.9299" lon="4.69618">
        <ele>292.700012207</ele>
        <time>2015-08-11T10:27:58.431Z</time>
      </trkpt>
      <trkpt lat="45.9299" lon="4.69618">
        <ele>292.700012207</ele>
        <time>2015-08-11T10:27:58.466Z</time>
      </trkpt>
      <trkpt lat="45.92999" lon="4.69628">
        <ele>291.899993896</ele>
        <time>2015-08-11T10:27:59.438Z</time>
      </trkpt>
      <trkpt lat="45.92999" lon="4.69628">
        <ele>291.899993896</ele>
        <time>2015-08-11T10:27:59.481Z</time>
      </trkpt>
      <trkpt lat="45.93008" lon="4.69636">
        <ele>291.100006104</ele>
        <time>2015-08-11T10:28:00.422Z</time>
      </trkpt>
      <trkpt lat="45.93008" lon="4.69636">
        <ele>291.100006104</ele>
        <time>2015-08-11T10:28:00.49Z</time>
      </trkpt>
      <trkpt lat="45.93018" lon="4.69644">
        <ele>290.299987793</ele>
        <time>2015-08-11T10:28:01.435Z</time>
      </trkpt>
      <trkpt lat="45.93018" lon="4.69644">
        <ele>290.299987793</ele>
        <time>2015-08-11T10:28:01.485Z</time>
      </trkpt>
      <trkpt lat="45.93029" lon="4.69652">
        <ele>289.399993896</ele>
        <time>2015-08-11T10:28:02.432Z</time>
      </trkpt>
      <trkpt lat="45.93029" lon="4.69652">
        <ele>289.399993896</ele>
        <time>2015-08-11T10:28:02.488Z</time>
      </trkpt>
      <trkpt lat="45.93039" lon="4.69658">
        <ele>288.600006104</ele>
        <time>2015-08-11T10:28:03.433Z</time>
      </trkpt>
      <trkpt lat="45.93039" lon="4.69658">
        <ele>288.600006104</ele>
        <time>2015-08-11T10:28:03.471Z</time>
      </trkpt>
      <trkpt lat="45.93049" lon="4.69663">
        <ele>287.799987793</ele>
        <time>2015-08-11T10:28:04.45Z</time>
      </trkpt>
      <trkpt lat="45.93049" lon="4.69663">
        <ele>287.799987793</ele>
        <time>2015-08-11T10:28:04.492Z</time>
      </trkpt>
      <trkpt lat="45.93061" lon="4.69666">
        <ele>287</ele>
        <time>2015-08-11T10:28:05.431Z</time>
      </trkpt>
      <trkpt lat="45.93061" lon="4.69666">
        <ele>287</ele>
        <time>2015-08-11T10:28:05.503Z</time>
      </trkpt>
      <trkpt lat="45.93071" lon="4.69671">
        <ele>285.899993896</ele>
        <time>2015-08-11T10:28:06.474Z</time>
      </trkpt>
      <trkpt lat="45.93071" lon="4.69671">
        <ele>285.899993896</ele>
        <time>2015-08-11T10:28:06.533Z</time>
      </trkpt>
      <trkpt lat="45.93083" lon="4.69674">
        <ele>285</ele>
        <time>2015-08-11T10:28:07.435Z</time>
      </trkpt>
      <trkpt lat="45.93083" lon="4.69674">
        <ele>285</ele>
        <time>2015-08-11T10:28:07.477Z</time>
      </trkpt>
      <trkpt lat="45.93094" lon="4.69678">
        <ele>284.100006104</ele>
        <time>2015-08-11T10:28:08.434Z</time>
      </trkpt>
      <trkpt lat="45.93094" lon="4.69678">
        <ele>284.100006104</ele>
        <time>2015-08-11T10:28:08.484Z</time>
      </trkpt>
      <trkpt lat="45.93105" lon="4.69682">
        <ele>283.100006104</ele>
        <time>2015-08-11T10:28:09.433Z</time>
      </trkpt>
      <trkpt lat="45.93105" lon="4.69682">
        <ele>283.100006104</ele>
        <time>2015-08-11T10:28:09.485Z</time>
      </trkpt>
      <trkpt lat="45.93116" lon="4.69688">
        <ele>282.200012207</ele>
        <time>2015-08-11T10:28:10.44Z</time>
      </trkpt>
      <trkpt lat="45.93116" lon="4.69688">
        <ele>282.200012207</ele>
        <time>2015-08-11T10:28:10.471Z</time>
      </trkpt>
      <trkpt lat="45.93127" lon="4.69693">
        <ele>281.399993896</ele>
        <time>2015-08-11T10:28:11.432Z</time>
      </trkpt>
      <trkpt lat="45.93127" lon="4.69693">
        <ele>281.399993896</ele>
        <time>2015-08-11T10:28:11.497Z</time>
      </trkpt>
      <trkpt lat="45.93138" lon="4.69696">
        <ele>280.399993896</ele>
        <time>2015-08-11T10:28:12.433Z</time>
      </trkpt>
      <trkpt lat="45.93138" lon="4.69696">
        <ele>280.399993896</ele>
        <time>2015-08-11T10:28:12.576Z</time>
      </trkpt>
      <trkpt lat="45.9315" lon="4.69697">
        <ele>279.299987793</ele>
        <time>2015-08-11T10:28:13.435Z</time>
      </trkpt>
      <trkpt lat="45.9315" lon="4.69697">
        <ele>279.299987793</ele>
        <time>2015-08-11T10:28:13.491Z</time>
      </trkpt>
      <trkpt lat="45.93161" lon="4.69699">
        <ele>278.5</ele>
        <time>2015-08-11T10:28:14.437Z</time>
      </trkpt>
      <trkpt lat="45.93161" lon="4.69699">
        <ele>278.5</ele>
        <time>2015-08-11T10:28:14.486Z</time>
      </trkpt>
      <trkpt lat="45.93173" lon="4.697">
        <ele>277.700012207</ele>
        <time>2015-08-11T10:28:15.438Z</time>
      </trkpt>
      <trkpt lat="45.93173" lon="4.697">
        <ele>277.700012207</ele>
        <time>2015-08-11T10:28:15.47Z</time>
      </trkpt>
      <trkpt lat="45.93184" lon="4.69701">
        <ele>276.799987793</ele>
        <time>2015-08-11T10:28:16.437Z</time>
      </trkpt>
      <trkpt lat="45.93184" lon="4.69701">
        <ele>276.799987793</ele>
        <time>2015-08-11T10:28:16.492Z</time>
      </trkpt>
      <trkpt lat="45.93196" lon="4.69702">
        <ele>276</ele>
        <time>2015-08-11T10:28:17.488Z</time>
      </trkpt>
      <trkpt lat="45.93196" lon="4.69702">
        <ele>276</ele>
        <time>2015-08-11T10:28:17.535Z</time>
      </trkpt>
      <trkpt lat="45.93207" lon="4.69703">
        <ele>275.299987793</ele>
        <time>2015-08-11T10:28:18.463Z</time>
      </trkpt>
      <trkpt lat="45.93207" lon="4.69703">
        <ele>275.299987793</ele>
        <time>2015-08-11T10:28:18.668Z</time>
      </trkpt>
      <trkpt lat="45.93219" lon="4.69703">
        <ele>274.299987793</ele>
        <time>2015-08-11T10:28:19.443Z</time>
      </trkpt>
      <trkpt lat="45.93219" lon="4.69703">
        <ele>274.299987793</ele>
        <time>2015-08-11T10:28:19.481Z</time>
      </trkpt>
      <trkpt lat="45.9323" lon="4.69703">
        <ele>273.200012207</ele>
        <time>2015-08-11T10:28:20.437Z</time>
      </trkpt>
      <trkpt lat="45.9323" lon="4.69703">
        <ele>273.200012207</ele>
        <time>2015-08-11T10:28:20.49Z</time>
      </trkpt>
      <trkpt lat="45.93241" lon="4.69701">
        <ele>272</ele>
        <time>2015-08-11T10:28:21.425Z</time>
      </trkpt>
      <trkpt lat="45.93241" lon="4.69701">
        <ele>272</ele>
        <time>2015-08-11T10:28:21.499Z</time>
      </trkpt>
      <trkpt lat="45.93252" lon="4.697">
        <ele>271.299987793</ele>
        <time>2015-08-11T10:28:22.438Z</time>
      </trkpt>
      <trkpt lat="45.93252" lon="4.697">
        <ele>271.299987793</ele>
        <time>2015-08-11T10:28:22.478Z</time>
      </trkpt>
      <trkpt lat="45.93262" lon="4.69698">
        <ele>270.299987793</ele>
        <time>2015-08-11T10:28:23.438Z</time>
      </trkpt>
      <trkpt lat="45.9327" lon="4.69696">
        <ele>268.700012207</ele>
        <time>2015-08-11T10:28:24.468Z</time>
      </trkpt>
      <trkpt lat="45.93278" lon="4.69696">
        <ele>268.100006104</ele>
        <time>2015-08-11T10:28:25.441Z</time>
      </trkpt>
      <trkpt lat="45.93285" lon="4.69701">
        <ele>267.399993896</ele>
        <time>2015-08-11T10:28:26.465Z</time>
      </trkpt>
      <trkpt lat="45.93291" lon="4.69706">
        <ele>266.899993896</ele>
        <time>2015-08-11T10:28:27.438Z</time>
      </trkpt>
      <trkpt lat="45.93295" lon="4.69711">
        <ele>266.299987793</ele>
        <time>2015-08-11T10:28:28.483Z</time>
      </trkpt>
      <trkpt lat="45.93295" lon="4.69726">
        <ele>266.100006104</ele>
        <time>2015-08-11T10:28:29.432Z</time>
      </trkpt>
      <trkpt lat="45.93295" lon="4.69726">
        <ele>266.100006104</ele>
        <time>2015-08-11T10:28:29.468Z</time>
      </trkpt>
      <trkpt lat="45.93293" lon="4.69744">
        <ele>266.299987793</ele>
        <time>2015-08-11T10:28:30.454Z</time>
      </trkpt>
      <trkpt lat="45.93293" lon="4.69755">
        <ele>266.200012207</ele>
        <time>2015-08-11T10:28:31.472Z</time>
      </trkpt>
      <trkpt lat="45.9329" lon="4.69762">
        <ele>266.299987793</ele>
        <time>2015-08-11T10:28:32.431Z</time>
      </trkpt>
      <trkpt lat="45.93283" lon="4.69764">
        <ele>266.200012207</ele>
        <time>2015-08-11T10:28:33.472Z</time>
      </trkpt>
      <trkpt lat="45.93275" lon="4.69766">
        <ele>266.100006104</ele>
        <time>2015-08-11T10:28:34.434Z</time>
      </trkpt>
      <trkpt lat="45.93275" lon="4.69766">
        <ele>266.100006104</ele>
        <time>2015-08-11T10:28:34.489Z</time>
      </trkpt>
      <trkpt lat="45.93261" lon="4.69767">
        <ele>265.5</ele>
        <time>2015-08-11T10:28:35.435Z</time>
      </trkpt>
      <trkpt lat="45.93261" lon="4.69767">
        <ele>265.5</ele>
        <time>2015-08-11T10:28:35.481Z</time>
      </trkpt>
      <trkpt lat="45.93251" lon="4.69769">
        <ele>265</ele>
        <time>2015-08-11T10:28:36.422Z</time>
      </trkpt>
      <trkpt lat="45.93251" lon="4.69769">
        <ele>265</ele>
        <time>2015-08-11T10:28:36.491Z</time>
      </trkpt>
      <trkpt lat="45.93238" lon="4.69772">
        <ele>264.399993896</ele>
        <time>2015-08-11T10:28:37.435Z</time>
      </trkpt>
      <trkpt lat="45.93238" lon="4.69772">
        <ele>264.399993896</ele>
        <time>2015-08-11T10:28:37.488Z</time>
      </trkpt>
      <trkpt lat="45.93224" lon="4.69774">
        <ele>263.799987793</ele>
        <time>2015-08-11T10:28:38.433Z</time>
      </trkpt>
      <trkpt lat="45.93224" lon="4.69774">
        <ele>263.799987793</ele>
        <time>2015-08-11T10:28:38.478Z</time>
      </trkpt>
      <trkpt lat="45.93213" lon="4.69777">
        <ele>263.5</ele>
        <time>2015-08-11T10:28:39.449Z</time>
      </trkpt>
      <trkpt lat="45.93213" lon="4.69777">
        <ele>263.5</ele>
        <time>2015-08-11T10:28:39.498Z</time>
      </trkpt>
      <trkpt lat="45.93202" lon="4.69779">
        <ele>263</ele>
        <time>2015-08-11T10:28:40.438Z</time>
      </trkpt>
      <trkpt lat="45.93202" lon="4.69779">
        <ele>263</ele>
        <time>2015-08-11T10:28:40.47Z</time>
      </trkpt>
      <trkpt lat="45.93192" lon="4.69782">
        <ele>262.5</ele>
        <time>2015-08-11T10:28:41.432Z</time>
      </trkpt>
      <trkpt lat="45.93192" lon="4.69782">
        <ele>262.5</ele>
        <time>2015-08-11T10:28:41.5Z</time>
      </trkpt>
      <trkpt lat="45.93182" lon="4.69787">
        <ele>262</ele>
        <time>2015-08-11T10:28:42.437Z</time>
      </trkpt>
      <trkpt lat="45.93182" lon="4.69787">
        <ele>262</ele>
        <time>2015-08-11T10:28:42.476Z</time>
      </trkpt>
      <trkpt lat="45.93172" lon="4.69791">
        <ele>261.5</ele>
        <time>2015-08-11T10:28:43.435Z</time>
      </trkpt>
      <trkpt lat="45.93172" lon="4.69791">
        <ele>261.5</ele>
        <time>2015-08-11T10:28:43.483Z</time>
      </trkpt>
      <trkpt lat="45.93162" lon="4.69796">
        <ele>261</ele>
        <time>2015-08-11T10:28:44.433Z</time>
      </trkpt>
      <trkpt lat="45.93162" lon="4.69796">
        <ele>261</ele>
        <time>2015-08-11T10:28:44.484Z</time>
      </trkpt>
      <trkpt lat="45.93153" lon="4.698">
        <ele>260.399993896</ele>
        <time>2015-08-11T10:28:45.43Z</time>
      </trkpt>
      <trkpt lat="45.93153" lon="4.698">
        <ele>260.399993896</ele>
        <time>2015-08-11T10:28:45.493Z</time>
      </trkpt>
      <trkpt lat="45.93144" lon="4.69806">
        <ele>259.899993896</ele>
        <time>2015-08-11T10:28:46.437Z</time>
      </trkpt>
      <trkpt lat="45.93144" lon="4.69806">
        <ele>259.899993896</ele>
        <time>2015-08-11T10:28:46.534Z</time>
      </trkpt>
      <trkpt lat="45.93134" lon="4.69812">
        <ele>259.5</ele>
        <time>2015-08-11T10:28:47.433Z</time>
      </trkpt>
      <trkpt lat="45.93134" lon="4.69812">
        <ele>259.5</ele>
        <time>2015-08-11T10:28:47.481Z</time>
      </trkpt>
      <trkpt lat="45.93124" lon="4.69819">
        <ele>259.200012207</ele>
        <time>2015-08-11T10:28:48.437Z</time>
      </trkpt>
      <trkpt lat="45.93124" lon="4.69819">
        <ele>259.200012207</ele>
        <time>2015-08-11T10:28:48.489Z</time>
      </trkpt>
      <trkpt lat="45.93115" lon="4.69827">
        <ele>258.600006104</ele>
        <time>2015-08-11T10:28:49.435Z</time>
      </trkpt>
      <trkpt lat="45.93115" lon="4.69827">
        <ele>258.600006104</ele>
        <time>2015-08-11T10:28:49.484Z</time>
      </trkpt>
      <trkpt lat="45.93107" lon="4.69836">
        <ele>258</ele>
        <time>2015-08-11T10:28:50.433Z</time>
      </trkpt>
      <trkpt lat="45.93107" lon="4.69836">
        <ele>258</ele>
        <time>2015-08-11T10:28:50.487Z</time>
      </trkpt>
      <trkpt lat="45.93098" lon="4.69845">
        <ele>257.5</ele>
        <time>2015-08-11T10:28:51.42Z</time>
      </trkpt>
      <trkpt lat="45.93098" lon="4.69845">
        <ele>257.5</ele>
        <time>2015-08-11T10:28:51.468Z</time>
      </trkpt>
      <trkpt lat="45.9309" lon="4.69854">
        <ele>257.100006104</ele>
        <time>2015-08-11T10:28:52.433Z</time>
      </trkpt>
      <trkpt lat="45.9309" lon="4.69854">
        <ele>257.100006104</ele>
        <time>2015-08-11T10:28:52.467Z</time>
      </trkpt>
      <trkpt lat="45.93082" lon="4.69863">
        <ele>256.600006104</ele>
        <time>2015-08-11T10:28:53.463Z</time>
      </trkpt>
      <trkpt lat="45.93082" lon="4.69863">
        <ele>256.600006104</ele>
        <time>2015-08-11T10:28:53.556Z</time>
      </trkpt>
      <trkpt lat="45.93074" lon="4.69872">
        <ele>256.100006104</ele>
        <time>2015-08-11T10:28:54.433Z</time>
      </trkpt>
      <trkpt lat="45.93074" lon="4.69872">
        <ele>256.100006104</ele>
        <time>2015-08-11T10:28:54.489Z</time>
      </trkpt>
      <trkpt lat="45.93065" lon="4.69881">
        <ele>256.299987793</ele>
        <time>2015-08-11T10:28:55.437Z</time>
      </trkpt>
      <trkpt lat="45.93065" lon="4.69881">
        <ele>256.299987793</ele>
        <time>2015-08-11T10:28:55.507Z</time>
      </trkpt>
      <trkpt lat="45.93057" lon="4.69888">
        <ele>256.700012207</ele>
        <time>2015-08-11T10:28:56.453Z</time>
      </trkpt>
      <trkpt lat="45.93057" lon="4.69888">
        <ele>256.700012207</ele>
        <time>2015-08-11T10:28:56.501Z</time>
      </trkpt>
      <trkpt lat="45.93049" lon="4.69896">
        <ele>256.299987793</ele>
        <time>2015-08-11T10:28:57.436Z</time>
      </trkpt>
      <trkpt lat="45.93049" lon="4.69896">
        <ele>256.299987793</ele>
        <time>2015-08-11T10:28:57.488Z</time>
      </trkpt>
      <trkpt lat="45.9304" lon="4.69905">
        <ele>256</ele>
        <time>2015-08-11T10:28:58.438Z</time>
      </trkpt>
      <trkpt lat="45.9304" lon="4.69905">
        <ele>256</ele>
        <time>2015-08-11T10:28:58.479Z</time>
      </trkpt>
      <trkpt lat="45.93032" lon="4.69915">
        <ele>255.600006104</ele>
        <time>2015-08-11T10:28:59.437Z</time>
      </trkpt>
      <trkpt lat="45.93032" lon="4.69915">
        <ele>255.600006104</ele>
        <time>2015-08-11T10:28:59.471Z</time>
      </trkpt>
      <trkpt lat="45.93024" lon="4.69925">
        <ele>255.300003052</ele>
        <time>2015-08-11T10:29:00.434Z</time>
      </trkpt>
      <trkpt lat="45.93024" lon="4.69925">
        <ele>255.300003052</ele>
        <time>2015-08-11T10:29:00.482Z</time>
      </trkpt>
      <trkpt lat="45.93016" lon="4.69935">
        <ele>254.899993896</ele>
        <time>2015-08-11T10:29:01.483Z</time>
      </trkpt>
      <trkpt lat="45.93016" lon="4.69935">
        <ele>254.899993896</ele>
        <time>2015-08-11T10:29:01.635Z</time>
      </trkpt>
      <trkpt lat="45.93007" lon="4.69945">
        <ele>254.899993896</ele>
        <time>2015-08-11T10:29:02.433Z</time>
      </trkpt>
      <trkpt lat="45.93007" lon="4.69945">
        <ele>254.899993896</ele>
        <time>2015-08-11T10:29:02.474Z</time>
      </trkpt>
      <trkpt lat="45.93" lon="4.69958">
        <ele>254.899993896</ele>
        <time>2015-08-11T10:29:03.438Z</time>
      </trkpt>
      <trkpt lat="45.93" lon="4.69958">
        <ele>254.899993896</ele>
        <time>2015-08-11T10:29:03.495Z</time>
      </trkpt>
      <trkpt lat="45.92995" lon="4.69971">
        <ele>254.800003052</ele>
        <time>2015-08-11T10:29:04.433Z</time>
      </trkpt>
      <trkpt lat="45.92995" lon="4.69971">
        <ele>254.800003052</ele>
        <time>2015-08-11T10:29:04.476Z</time>
      </trkpt>
      <trkpt lat="45.9299" lon="4.69986">
        <ele>254.300003052</ele>
        <time>2015-08-11T10:29:05.431Z</time>
      </trkpt>
      <trkpt lat="45.9299" lon="4.69986">
        <ele>254.300003052</ele>
        <time>2015-08-11T10:29:05.475Z</time>
      </trkpt>
      <trkpt lat="45.92986" lon="4.7">
        <ele>253.5</ele>
        <time>2015-08-11T10:29:06.433Z</time>
      </trkpt>
      <trkpt lat="45.92986" lon="4.7">
        <ele>253.5</ele>
        <time>2015-08-11T10:29:06.485Z</time>
      </trkpt>
      <trkpt lat="45.92982" lon="4.70014">
        <ele>252.800003052</ele>
        <time>2015-08-11T10:29:07.435Z</time>
      </trkpt>
      <trkpt lat="45.92982" lon="4.70014">
        <ele>252.800003052</ele>
        <time>2015-08-11T10:29:07.486Z</time>
      </trkpt>
      <trkpt lat="45.92978" lon="4.70028">
        <ele>252.100006104</ele>
        <time>2015-08-11T10:29:08.436Z</time>
      </trkpt>
      <trkpt lat="45.92978" lon="4.70028">
        <ele>252.100006104</ele>
        <time>2015-08-11T10:29:08.469Z</time>
      </trkpt>
      <trkpt lat="45.92972" lon="4.70041">
        <ele>251.399993896</ele>
        <time>2015-08-11T10:29:09.433Z</time>
      </trkpt>
      <trkpt lat="45.92972" lon="4.70041">
        <ele>251.399993896</ele>
        <time>2015-08-11T10:29:09.473Z</time>
      </trkpt>
      <trkpt lat="45.92967" lon="4.70053">
        <ele>250.800003052</ele>
        <time>2015-08-11T10:29:10.433Z</time>
      </trkpt>
      <trkpt lat="45.92963" lon="4.70062">
        <ele>250</ele>
        <time>2015-08-11T10:29:11.465Z</time>
      </trkpt>
      <trkpt lat="45.92958" lon="4.70068">
        <ele>249.399993896</ele>
        <time>2015-08-11T10:29:12.433Z</time>
      </trkpt>
      <trkpt lat="45.92951" lon="4.70067">
        <ele>248.800003052</ele>
        <time>2015-08-11T10:29:13.471Z</time>
      </trkpt>
      <trkpt lat="45.92943" lon="4.70062">
        <ele>248.399993896</ele>
        <time>2015-08-11T10:29:14.432Z</time>
      </trkpt>
      <trkpt lat="45.92943" lon="4.70062">
        <ele>248.399993896</ele>
        <time>2015-08-11T10:29:14.487Z</time>
      </trkpt>
      <trkpt lat="45.92935" lon="4.70053">
        <ele>248.100006104</ele>
        <time>2015-08-11T10:29:15.432Z</time>
      </trkpt>
      <trkpt lat="45.92935" lon="4.70053">
        <ele>248.100006104</ele>
        <time>2015-08-11T10:29:15.484Z</time>
      </trkpt>
      <trkpt lat="45.92931" lon="4.70041">
        <ele>247.699996948</ele>
        <time>2015-08-11T10:29:16.437Z</time>
      </trkpt>
      <trkpt lat="45.92931" lon="4.70041">
        <ele>247.699996948</ele>
        <time>2015-08-11T10:29:16.48Z</time>
      </trkpt>
      <trkpt lat="45.92929" lon="4.70028">
        <ele>247.5</ele>
        <time>2015-08-11T10:29:17.453Z</time>
      </trkpt>
      <trkpt lat="45.92929" lon="4.70028">
        <ele>247.5</ele>
        <time>2015-08-11T10:29:17.501Z</time>
      </trkpt>
      <trkpt lat="45.92923" lon="4.70018">
        <ele>247.5</ele>
        <time>2015-08-11T10:29:18.434Z</time>
      </trkpt>
      <trkpt lat="45.92915" lon="4.70012">
        <ele>247.199996948</ele>
        <time>2015-08-11T10:29:19.468Z</time>
      </trkpt>
      <trkpt lat="45.92907" lon="4.7001">
        <ele>246.600006104</ele>
        <time>2015-08-11T10:29:20.478Z</time>
      </trkpt>
      <trkpt lat="45.92898" lon="4.70012">
        <ele>245.899993896</ele>
        <time>2015-08-11T10:29:21.469Z</time>
      </trkpt>
      <trkpt lat="45.92891" lon="4.70015">
        <ele>245.199996948</ele>
        <time>2015-08-11T10:29:22.433Z</time>
      </trkpt>
      <trkpt lat="45.92884" lon="4.70022">
        <ele>244.699996948</ele>
        <time>2015-08-11T10:29:23.473Z</time>
      </trkpt>
      <trkpt lat="45.92883" lon="4.70037">
        <ele>243.899993896</ele>
        <time>2015-08-11T10:29:24.437Z</time>
      </trkpt>
      <trkpt lat="45.92883" lon="4.70037">
        <ele>243.899993896</ele>
        <time>2015-08-11T10:29:24.488Z</time>
      </trkpt>
      <trkpt lat="45.92883" lon="4.70051">
        <ele>243.300003052</ele>
        <time>2015-08-11T10:29:25.44Z</time>
      </trkpt>
      <trkpt lat="45.92883" lon="4.70051">
        <ele>243.300003052</ele>
        <time>2015-08-11T10:29:25.515Z</time>
      </trkpt>
      <trkpt lat="45.92882" lon="4.70063">
        <ele>242.800003052</ele>
        <time>2015-08-11T10:29:26.436Z</time>
      </trkpt>
      <trkpt lat="45.92882" lon="4.70074">
        <ele>242.199996948</ele>
        <time>2015-08-11T10:29:27.467Z</time>
      </trkpt>
      <trkpt lat="45.92882" lon="4.70086">
        <ele>241.600006104</ele>
        <time>2015-08-11T10:29:28.436Z</time>
      </trkpt>
      <trkpt lat="45.92882" lon="4.70099">
        <ele>241.100006104</ele>
        <time>2015-08-11T10:29:29.468Z</time>
      </trkpt>
      <trkpt lat="45.92881" lon="4.70112">
        <ele>240.600006104</ele>
        <time>2015-08-11T10:29:30.432Z</time>
      </trkpt>
      <trkpt lat="45.92881" lon="4.70112">
        <ele>240.600006104</ele>
        <time>2015-08-11T10:29:30.487Z</time>
      </trkpt>
      <trkpt lat="45.9288" lon="4.70125">
        <ele>240.100006104</ele>
        <time>2015-08-11T10:29:31.436Z</time>
      </trkpt>
      <trkpt lat="45.9288" lon="4.70125">
        <ele>240.100006104</ele>
        <time>2015-08-11T10:29:31.486Z</time>
      </trkpt>
      <trkpt lat="45.9288" lon="4.70139">
        <ele>239.699996948</ele>
        <time>2015-08-11T10:29:32.432Z</time>
      </trkpt>
      <trkpt lat="45.9288" lon="4.70139">
        <ele>239.699996948</ele>
        <time>2015-08-11T10:29:32.491Z</time>
      </trkpt>
      <trkpt lat="45.9288" lon="4.70154">
        <ele>239.300003052</ele>
        <time>2015-08-11T10:29:33.435Z</time>
      </trkpt>
      <trkpt lat="45.9288" lon="4.70154">
        <ele>239.300003052</ele>
        <time>2015-08-11T10:29:33.481Z</time>
      </trkpt>
      <trkpt lat="45.9288" lon="4.70168">
        <ele>238.899993896</ele>
        <time>2015-08-11T10:29:34.432Z</time>
      </trkpt>
      <trkpt lat="45.9288" lon="4.70168">
        <ele>238.899993896</ele>
        <time>2015-08-11T10:29:34.479Z</time>
      </trkpt>
      <trkpt lat="45.9288" lon="4.70182">
        <ele>238.5</ele>
        <time>2015-08-11T10:29:35.432Z</time>
      </trkpt>
      <trkpt lat="45.9288" lon="4.70182">
        <ele>238.5</ele>
        <time>2015-08-11T10:29:35.489Z</time>
      </trkpt>
      <trkpt lat="45.9288" lon="4.70196">
        <ele>238.399993896</ele>
        <time>2015-08-11T10:29:36.436Z</time>
      </trkpt>
      <trkpt lat="45.9288" lon="4.70196">
        <ele>238.399993896</ele>
        <time>2015-08-11T10:29:36.492Z</time>
      </trkpt>
      <trkpt lat="45.92879" lon="4.7021">
        <ele>237.899993896</ele>
        <time>2015-08-11T10:29:37.437Z</time>
      </trkpt>
      <trkpt lat="45.92879" lon="4.7021">
        <ele>237.899993896</ele>
        <time>2015-08-11T10:29:37.484Z</time>
      </trkpt>
      <trkpt lat="45.92878" lon="4.70225">
        <ele>237.199996948</ele>
        <time>2015-08-11T10:29:38.452Z</time>
      </trkpt>
      <trkpt lat="45.92878" lon="4.70225">
        <ele>237.199996948</ele>
        <time>2015-08-11T10:29:38.493Z</time>
      </trkpt>
      <trkpt lat="45.92877" lon="4.7024">
        <ele>236.699996948</ele>
        <time>2015-08-11T10:29:39.433Z</time>
      </trkpt>
      <trkpt lat="45.92877" lon="4.7024">
        <ele>236.699996948</ele>
        <time>2015-08-11T10:29:39.475Z</time>
      </trkpt>
      <trkpt lat="45.92876" lon="4.70254">
        <ele>236.199996948</ele>
        <time>2015-08-11T10:29:40.438Z</time>
      </trkpt>
      <trkpt lat="45.92876" lon="4.70254">
        <ele>236.199996948</ele>
        <time>2015-08-11T10:29:40.483Z</time>
      </trkpt>
      <trkpt lat="45.92874" lon="4.70268">
        <ele>235.899993896</ele>
        <time>2015-08-11T10:29:41.434Z</time>
      </trkpt>
      <trkpt lat="45.92874" lon="4.70268">
        <ele>235.899993896</ele>
        <time>2015-08-11T10:29:41.485Z</time>
      </trkpt>
      <trkpt lat="45.92871" lon="4.70282">
        <ele>235.600006104</ele>
        <time>2015-08-11T10:29:42.413Z</time>
      </trkpt>
      <trkpt lat="45.92871" lon="4.70282">
        <ele>235.600006104</ele>
        <time>2015-08-11T10:29:42.523Z</time>
      </trkpt>
      <trkpt lat="45.92868" lon="4.70296">
        <ele>235.300003052</ele>
        <time>2015-08-11T10:29:43.435Z</time>
      </trkpt>
      <trkpt lat="45.92868" lon="4.70296">
        <ele>235.300003052</ele>
        <time>2015-08-11T10:29:43.542Z</time>
      </trkpt>
      <trkpt lat="45.92866" lon="4.70311">
        <ele>234.899993896</ele>
        <time>2015-08-11T10:29:44.433Z</time>
      </trkpt>
      <trkpt lat="45.92866" lon="4.70311">
        <ele>234.899993896</ele>
        <time>2015-08-11T10:29:44.486Z</time>
      </trkpt>
      <trkpt lat="45.92862" lon="4.70325">
        <ele>234.5</ele>
        <time>2015-08-11T10:29:45.433Z</time>
      </trkpt>
      <trkpt lat="45.92862" lon="4.70325">
        <ele>234.5</ele>
        <time>2015-08-11T10:29:45.5Z</time>
      </trkpt>
      <trkpt lat="45.92859" lon="4.70339">
        <ele>234.300003052</ele>
        <time>2015-08-11T10:29:46.432Z</time>
      </trkpt>
      <trkpt lat="45.92859" lon="4.70339">
        <ele>234.300003052</ele>
        <time>2015-08-11T10:29:46.539Z</time>
      </trkpt>
      <trkpt lat="45.92856" lon="4.70354">
        <ele>234.100006104</ele>
        <time>2015-08-11T10:29:47.434Z</time>
      </trkpt>
      <trkpt lat="45.92856" lon="4.70354">
        <ele>234.100006104</ele>
        <time>2015-08-11T10:29:47.469Z</time>
      </trkpt>
      <trkpt lat="45.92854" lon="4.70368">
        <ele>233.699996948</ele>
        <time>2015-08-11T10:29:48.431Z</time>
      </trkpt>
      <trkpt lat="45.92854" lon="4.70368">
        <ele>233.699996948</ele>
        <time>2015-08-11T10:29:48.479Z</time>
      </trkpt>
      <trkpt lat="45.92851" lon="4.70383">
        <ele>233.199996948</ele>
        <time>2015-08-11T10:29:49.437Z</time>
      </trkpt>
      <trkpt lat="45.92851" lon="4.70383">
        <ele>233.199996948</ele>
        <time>2015-08-11T10:29:49.486Z</time>
      </trkpt>
      <trkpt lat="45.92848" lon="4.70397">
        <ele>232.600006104</ele>
        <time>2015-08-11T10:29:50.434Z</time>
      </trkpt>
      <trkpt lat="45.92848" lon="4.70397">
        <ele>232.600006104</ele>
        <time>2015-08-11T10:29:50.483Z</time>
      </trkpt>
      <trkpt lat="45.92845" lon="4.70411">
        <ele>232.199996948</ele>
        <time>2015-08-11T10:29:51.433Z</time>
      </trkpt>
      <trkpt lat="45.92845" lon="4.70411">
        <ele>232.199996948</ele>
        <time>2015-08-11T10:29:51.487Z</time>
      </trkpt>
      <trkpt lat="45.92843" lon="4.70426">
        <ele>231.699996948</ele>
        <time>2015-08-11T10:29:52.43Z</time>
      </trkpt>
      <trkpt lat="45.92843" lon="4.70426">
        <ele>231.699996948</ele>
        <time>2015-08-11T10:29:52.476Z</time>
      </trkpt>
      <trkpt lat="45.92841" lon="4.70441">
        <ele>231.199996948</ele>
        <time>2015-08-11T10:29:53.434Z</time>
      </trkpt>
      <trkpt lat="45.92841" lon="4.70441">
        <ele>231.199996948</ele>
        <time>2015-08-11T10:29:53.584Z</time>
      </trkpt>
      <trkpt lat="45.9284" lon="4.70456">
        <ele>230.199996948</ele>
        <time>2015-08-11T10:29:54.433Z</time>
      </trkpt>
      <trkpt lat="45.9284" lon="4.70456">
        <ele>230.199996948</ele>
        <time>2015-08-11T10:29:54.481Z</time>
      </trkpt>
      <trkpt lat="45.9284" lon="4.70471">
        <ele>228.699996948</ele>
        <time>2015-08-11T10:29:55.439Z</time>
      </trkpt>
      <trkpt lat="45.9284" lon="4.70471">
        <ele>228.699996948</ele>
        <time>2015-08-11T10:29:55.516Z</time>
      </trkpt>
      <trkpt lat="45.92844" lon="4.70489">
        <ele>228.399993896</ele>
        <time>2015-08-11T10:29:56.439Z</time>
      </trkpt>
      <trkpt lat="45.92844" lon="4.70489">
        <ele>228.399993896</ele>
        <time>2015-08-11T10:29:56.47Z</time>
      </trkpt>
      <trkpt lat="45.9285" lon="4.70504">
        <ele>227.199996948</ele>
        <time>2015-08-11T10:29:57.438Z</time>
      </trkpt>
      <trkpt lat="45.9285" lon="4.70504">
        <ele>227.199996948</ele>
        <time>2015-08-11T10:29:57.474Z</time>
      </trkpt>
      <trkpt lat="45.92856" lon="4.70518">
        <ele>226.100006104</ele>
        <time>2015-08-11T10:29:58.43Z</time>
      </trkpt>
      <trkpt lat="45.92856" lon="4.70518">
        <ele>226.100006104</ele>
        <time>2015-08-11T10:29:58.48Z</time>
      </trkpt>
      <trkpt lat="45.92863" lon="4.70533">
        <ele>224.899993896</ele>
        <time>2015-08-11T10:29:59.437Z</time>
      </trkpt>
      <trkpt lat="45.92863" lon="4.70533">
        <ele>224.899993896</ele>
        <time>2015-08-11T10:29:59.488Z</time>
      </trkpt>
      <trkpt lat="45.92869" lon="4.70546">
        <ele>224.300003052</ele>
        <time>2015-08-11T10:30:00.421Z</time>
      </trkpt>
      <trkpt lat="45.92869" lon="4.70546">
        <ele>224.300003052</ele>
        <time>2015-08-11T10:30:00.497Z</time>
      </trkpt>
      <trkpt lat="45.92875" lon="4.7056">
        <ele>223.5</ele>
        <time>2015-08-11T10:30:01.436Z</time>
      </trkpt>
      <trkpt lat="45.92875" lon="4.7056">
        <ele>223.5</ele>
        <time>2015-08-11T10:30:01.498Z</time>
      </trkpt>
      <trkpt lat="45.92881" lon="4.70573">
        <ele>222.399993896</ele>
        <time>2015-08-11T10:30:02.447Z</time>
      </trkpt>
      <trkpt lat="45.92881" lon="4.70573">
        <ele>222.399993896</ele>
        <time>2015-08-11T10:30:02.492Z</time>
      </trkpt>
      <trkpt lat="45.92887" lon="4.70587">
        <ele>221.300003052</ele>
        <time>2015-08-11T10:30:03.432Z</time>
      </trkpt>
      <trkpt lat="45.92887" lon="4.70587">
        <ele>221.300003052</ele>
        <time>2015-08-11T10:30:03.471Z</time>
      </trkpt>
      <trkpt lat="45.92893" lon="4.706">
        <ele>220.199996948</ele>
        <time>2015-08-11T10:30:04.478Z</time>
      </trkpt>
      <trkpt lat="45.92893" lon="4.706">
        <ele>220.199996948</ele>
        <time>2015-08-11T10:30:04.51Z</time>
      </trkpt>
      <trkpt lat="45.92899" lon="4.70614">
        <ele>219</ele>
        <time>2015-08-11T10:30:05.436Z</time>
      </trkpt>
      <trkpt lat="45.92899" lon="4.70614">
        <ele>219</ele>
        <time>2015-08-11T10:30:05.483Z</time>
      </trkpt>
      <trkpt lat="45.92905" lon="4.70628">
        <ele>218.100006104</ele>
        <time>2015-08-11T10:30:06.433Z</time>
      </trkpt>
      <trkpt lat="45.92905" lon="4.70628">
        <ele>218.100006104</ele>
        <time>2015-08-11T10:30:06.469Z</time>
      </trkpt>
      <trkpt lat="45.92912" lon="4.70642">
        <ele>217.100006104</ele>
        <time>2015-08-11T10:30:07.441Z</time>
      </trkpt>
      <trkpt lat="45.92912" lon="4.70642">
        <ele>217.100006104</ele>
        <time>2015-08-11T10:30:07.502Z</time>
      </trkpt>
      <trkpt lat="45.92918" lon="4.70656">
        <ele>216.100006104</ele>
        <time>2015-08-11T10:30:08.44Z</time>
      </trkpt>
      <trkpt lat="45.92918" lon="4.70656">
        <ele>216.100006104</ele>
        <time>2015-08-11T10:30:08.487Z</time>
      </trkpt>
      <trkpt lat="45.92925" lon="4.70672">
        <ele>214.899993896</ele>
        <time>2015-08-11T10:30:09.44Z</time>
      </trkpt>
      <trkpt lat="45.92925" lon="4.70672">
        <ele>214.899993896</ele>
        <time>2015-08-11T10:30:09.498Z</time>
      </trkpt>
      <trkpt lat="45.92931" lon="4.70687">
        <ele>213.800003052</ele>
        <time>2015-08-11T10:30:10.442Z</time>
      </trkpt>
      <trkpt lat="45.92931" lon="4.70687">
        <ele>213.800003052</ele>
        <time>2015-08-11T10:30:10.489Z</time>
      </trkpt>
      <trkpt lat="45.92937" lon="4.70703">
        <ele>212.899993896</ele>
        <time>2015-08-11T10:30:11.433Z</time>
      </trkpt>
      <trkpt lat="45.92937" lon="4.70703">
        <ele>212.899993896</ele>
        <time>2015-08-11T10:30:11.481Z</time>
      </trkpt>
      <trkpt lat="45.92944" lon="4.70719">
        <ele>212.199996948</ele>
        <time>2015-08-11T10:30:12.432Z</time>
      </trkpt>
      <trkpt lat="45.92944" lon="4.70719">
        <ele>212.199996948</ele>
        <time>2015-08-11T10:30:12.472Z</time>
      </trkpt>
      <trkpt lat="45.9295" lon="4.70735">
        <ele>211.5</ele>
        <time>2015-08-11T10:30:13.441Z</time>
      </trkpt>
      <trkpt lat="45.9295" lon="4.70735">
        <ele>211.5</ele>
        <time>2015-08-11T10:30:13.485Z</time>
      </trkpt>
      <trkpt lat="45.92957" lon="4.7075">
        <ele>210.600006104</ele>
        <time>2015-08-11T10:30:14.437Z</time>
      </trkpt>
      <trkpt lat="45.92957" lon="4.7075">
        <ele>210.600006104</ele>
        <time>2015-08-11T10:30:14.469Z</time>
      </trkpt>
      <trkpt lat="45.92964" lon="4.70764">
        <ele>209.699996948</ele>
        <time>2015-08-11T10:30:15.432Z</time>
      </trkpt>
      <trkpt lat="45.92964" lon="4.70764">
        <ele>209.699996948</ele>
        <time>2015-08-11T10:30:15.492Z</time>
      </trkpt>
      <trkpt lat="45.92971" lon="4.70779">
        <ele>208.800003052</ele>
        <time>2015-08-11T10:30:16.433Z</time>
      </trkpt>
      <trkpt lat="45.92971" lon="4.70779">
        <ele>208.800003052</ele>
        <time>2015-08-11T10:30:16.465Z</time>
      </trkpt>
      <trkpt lat="45.92978" lon="4.70794">
        <ele>207.800003052</ele>
        <time>2015-08-11T10:30:17.433Z</time>
      </trkpt>
      <trkpt lat="45.92978" lon="4.70794">
        <ele>207.800003052</ele>
        <time>2015-08-11T10:30:17.491Z</time>
      </trkpt>
      <trkpt lat="45.92984" lon="4.70809">
        <ele>206.899993896</ele>
        <time>2015-08-11T10:30:18.437Z</time>
      </trkpt>
      <trkpt lat="45.92984" lon="4.70809">
        <ele>206.899993896</ele>
        <time>2015-08-11T10:30:18.486Z</time>
      </trkpt>
      <trkpt lat="45.92991" lon="4.70823">
        <ele>206.199996948</ele>
        <time>2015-08-11T10:30:19.435Z</time>
      </trkpt>
      <trkpt lat="45.92991" lon="4.70823">
        <ele>206.199996948</ele>
        <time>2015-08-11T10:30:19.485Z</time>
      </trkpt>
      <trkpt lat="45.92997" lon="4.70838">
        <ele>205.399993896</ele>
        <time>2015-08-11T10:30:20.433Z</time>
      </trkpt>
      <trkpt lat="45.92997" lon="4.70838">
        <ele>205.399993896</ele>
        <time>2015-08-11T10:30:20.469Z</time>
      </trkpt>
      <trkpt lat="45.93004" lon="4.70851">
        <ele>204.600006104</ele>
        <time>2015-08-11T10:30:21.433Z</time>
      </trkpt>
      <trkpt lat="45.93004" lon="4.70851">
        <ele>204.600006104</ele>
        <time>2015-08-11T10:30:21.488Z</time>
      </trkpt>
      <trkpt lat="45.9301" lon="4.70865">
        <ele>203.699996948</ele>
        <time>2015-08-11T10:30:22.43Z</time>
      </trkpt>
      <trkpt lat="45.9301" lon="4.70865">
        <ele>203.699996948</ele>
        <time>2015-08-11T10:30:22.504Z</time>
      </trkpt>
      <trkpt lat="45.93016" lon="4.70879">
        <ele>203</ele>
        <time>2015-08-11T10:30:23.433Z</time>
      </trkpt>
      <trkpt lat="45.93016" lon="4.70879">
        <ele>203</ele>
        <time>2015-08-11T10:30:23.484Z</time>
      </trkpt>
      <trkpt lat="45.93023" lon="4.70893">
        <ele>202.5</ele>
        <time>2015-08-11T10:30:24.432Z</time>
      </trkpt>
      <trkpt lat="45.93023" lon="4.70893">
        <ele>202.5</ele>
        <time>2015-08-11T10:30:24.634Z</time>
      </trkpt>
      <trkpt lat="45.93029" lon="4.70906">
        <ele>201.800003052</ele>
        <time>2015-08-11T10:30:25.433Z</time>
      </trkpt>
      <trkpt lat="45.93029" lon="4.70906">
        <ele>201.800003052</ele>
        <time>2015-08-11T10:30:25.515Z</time>
      </trkpt>
      <trkpt lat="45.93035" lon="4.70919">
        <ele>201.199996948</ele>
        <time>2015-08-11T10:30:26.432Z</time>
      </trkpt>
      <trkpt lat="45.93035" lon="4.70919">
        <ele>201.199996948</ele>
        <time>2015-08-11T10:30:26.492Z</time>
      </trkpt>
      <trkpt lat="45.93041" lon="4.70932">
        <ele>200.899993896</ele>
        <time>2015-08-11T10:30:27.433Z</time>
      </trkpt>
      <trkpt lat="45.93041" lon="4.70932">
        <ele>200.899993896</ele>
        <time>2015-08-11T10:30:27.488Z</time>
      </trkpt>
      <trkpt lat="45.93045" lon="4.70944">
        <ele>200.600006104</ele>
        <time>2015-08-11T10:30:28.437Z</time>
      </trkpt>
      <trkpt lat="45.93049" lon="4.70954">
        <ele>200.199996948</ele>
        <time>2015-08-11T10:30:29.467Z</time>
      </trkpt>
      <trkpt lat="45.93053" lon="4.70963">
        <ele>199.600006104</ele>
        <time>2015-08-11T10:30:30.437Z</time>
      </trkpt>
      <trkpt lat="45.93055" lon="4.7097">
        <ele>198.899993896</ele>
        <time>2015-08-11T10:30:31.471Z</time>
      </trkpt>
      <trkpt lat="45.93057" lon="4.70977">
        <ele>198.399993896</ele>
        <time>2015-08-11T10:30:32.431Z</time>
      </trkpt>
      <trkpt lat="45.93058" lon="4.70985">
        <ele>197.899993896</ele>
        <time>2015-08-11T10:30:33.559Z</time>
      </trkpt>
      <trkpt lat="45.93059" lon="4.70992">
        <ele>197.5</ele>
        <time>2015-08-11T10:30:34.432Z</time>
      </trkpt>
      <trkpt lat="45.93056" lon="4.70998">
        <ele>197.300003052</ele>
        <time>2015-08-11T10:30:35.489Z</time>
      </trkpt>
      <trkpt lat="45.93056" lon="4.71005">
        <ele>196.800003052</ele>
        <time>2015-08-11T10:30:36.433Z</time>
      </trkpt>
      <trkpt lat="45.93057" lon="4.71013">
        <ele>196.399993896</ele>
        <time>2015-08-11T10:30:37.467Z</time>
      </trkpt>
      <trkpt lat="45.9306" lon="4.71022">
        <ele>196</ele>
        <time>2015-08-11T10:30:38.432Z</time>
      </trkpt>
      <trkpt lat="45.93064" lon="4.71029">
        <ele>195.199996948</ele>
        <time>2015-08-11T10:30:39.465Z</time>
      </trkpt>
      <trkpt lat="45.9307" lon="4.71036">
        <ele>194.5</ele>
        <time>2015-08-11T10:30:40.433Z</time>
      </trkpt>
      <trkpt lat="45.93076" lon="4.71042">
        <ele>194</ele>
        <time>2015-08-11T10:30:41.47Z</time>
      </trkpt>
      <trkpt lat="45.93082" lon="4.71047">
        <ele>192.699996948</ele>
        <time>2015-08-11T10:30:42.432Z</time>
      </trkpt>
      <trkpt lat="45.93087" lon="4.71055">
        <ele>192.300003052</ele>
        <time>2015-08-11T10:30:43.465Z</time>
      </trkpt>
      <trkpt lat="45.93092" lon="4.71063">
        <ele>191.800003052</ele>
        <time>2015-08-11T10:30:44.432Z</time>
      </trkpt>
      <trkpt lat="45.93098" lon="4.71071">
        <ele>191.300003052</ele>
        <time>2015-08-11T10:30:45.468Z</time>
      </trkpt>
      <trkpt lat="45.93103" lon="4.71079">
        <ele>190.800003052</ele>
        <time>2015-08-11T10:30:46.431Z</time>
      </trkpt>
      <trkpt lat="45.93108" lon="4.71087">
        <ele>190.600006104</ele>
        <time>2015-08-11T10:30:47.463Z</time>
      </trkpt>
      <trkpt lat="45.93113" lon="4.71095">
        <ele>190.199996948</ele>
        <time>2015-08-11T10:30:48.434Z</time>
      </trkpt>
      <trkpt lat="45.93118" lon="4.71104">
        <ele>189.699996948</ele>
        <time>2015-08-11T10:30:49.467Z</time>
      </trkpt>
      <trkpt lat="45.93123" lon="4.71113">
        <ele>189.300003052</ele>
        <time>2015-08-11T10:30:50.433Z</time>
      </trkpt>
      <trkpt lat="45.93128" lon="4.71123">
        <ele>188.800003052</ele>
        <time>2015-08-11T10:30:51.465Z</time>
      </trkpt>
      <trkpt lat="45.93132" lon="4.71132">
        <ele>188.5</ele>
        <time>2015-08-11T10:30:52.421Z</time>
      </trkpt>
      <trkpt lat="45.93136" lon="4.71142">
        <ele>188.199996948</ele>
        <time>2015-08-11T10:30:53.462Z</time>
      </trkpt>
      <trkpt lat="45.9314" lon="4.71152">
        <ele>187.800003052</ele>
        <time>2015-08-11T10:30:54.433Z</time>
      </trkpt>
      <trkpt lat="45.93144" lon="4.71162">
        <ele>187.600006104</ele>
        <time>2015-08-11T10:30:55.467Z</time>
      </trkpt>
      <trkpt lat="45.93148" lon="4.71172">
        <ele>187.100006104</ele>
        <time>2015-08-11T10:30:56.433Z</time>
      </trkpt>
      <trkpt lat="45.93152" lon="4.71182">
        <ele>186.300003052</ele>
        <time>2015-08-11T10:30:57.524Z</time>
      </trkpt>
      <trkpt lat="45.93155" lon="4.71192">
        <ele>186.300003052</ele>
        <time>2015-08-11T10:30:58.435Z</time>
      </trkpt>
      <trkpt lat="45.93159" lon="4.71201">
        <ele>185.800003052</ele>
        <time>2015-08-11T10:30:59.465Z</time>
      </trkpt>
      <trkpt lat="45.93163" lon="4.71211">
        <ele>185.100006104</ele>
        <time>2015-08-11T10:31:00.421Z</time>
      </trkpt>
      <trkpt lat="45.93167" lon="4.7122">
        <ele>185.199996948</ele>
        <time>2015-08-11T10:31:01.516Z</time>
      </trkpt>
      <trkpt lat="45.93172" lon="4.71229">
        <ele>184.600006104</ele>
        <time>2015-08-11T10:31:02.433Z</time>
      </trkpt>
      <trkpt lat="45.93177" lon="4.71239">
        <ele>184.300003052</ele>
        <time>2015-08-11T10:31:03.465Z</time>
      </trkpt>
      <trkpt lat="45.93182" lon="4.71248">
        <ele>184</ele>
        <time>2015-08-11T10:31:04.432Z</time>
      </trkpt>
      <trkpt lat="45.93187" lon="4.71258">
        <ele>183.800003052</ele>
        <time>2015-08-11T10:31:05.465Z</time>
      </trkpt>
      <trkpt lat="45.93192" lon="4.71268">
        <ele>183.5</ele>
        <time>2015-08-11T10:31:06.435Z</time>
      </trkpt>
      <trkpt lat="45.93197" lon="4.71277">
        <ele>183.800003052</ele>
        <time>2015-08-11T10:31:07.469Z</time>
      </trkpt>
      <trkpt lat="45.93201" lon="4.71287">
        <ele>183.300003052</ele>
        <time>2015-08-11T10:31:08.433Z</time>
      </trkpt>
      <trkpt lat="45.93206" lon="4.71296">
        <ele>182.899993896</ele>
        <time>2015-08-11T10:31:09.466Z</time>
      </trkpt>
      <trkpt lat="45.9321" lon="4.71306">
        <ele>182.699996948</ele>
        <time>2015-08-11T10:31:10.433Z</time>
      </trkpt>
      <trkpt lat="45.93215" lon="4.71316">
        <ele>182.5</ele>
        <time>2015-08-11T10:31:11.543Z</time>
      </trkpt>
      <trkpt lat="45.93219" lon="4.71326">
        <ele>182.399993896</ele>
        <time>2015-08-11T10:31:12.433Z</time>
      </trkpt>
      <trkpt lat="45.93223" lon="4.71336">
        <ele>182.600006104</ele>
        <time>2015-08-11T10:31:13.469Z</time>
      </trkpt>
      <trkpt lat="45.93227" lon="4.71347">
        <ele>182.600006104</ele>
        <time>2015-08-11T10:31:14.433Z</time>
      </trkpt>
      <trkpt lat="45.93231" lon="4.71357">
        <ele>182.300003052</ele>
        <time>2015-08-11T10:31:15.505Z</time>
      </trkpt>
      <trkpt lat="45.93236" lon="4.71366">
        <ele>181.800003052</ele>
        <time>2015-08-11T10:31:16.431Z</time>
      </trkpt>
      <trkpt lat="45.9324" lon="4.71375">
        <ele>181.5</ele>
        <time>2015-08-11T10:31:17.463Z</time>
      </trkpt>
      <trkpt lat="45.93244" lon="4.71383">
        <ele>181.100006104</ele>
        <time>2015-08-11T10:31:18.432Z</time>
      </trkpt>
      <trkpt lat="45.93248" lon="4.71393">
        <ele>181.399993896</ele>
        <time>2015-08-11T10:31:19.467Z</time>
      </trkpt>
      <trkpt lat="45.93252" lon="4.71402">
        <ele>181.399993896</ele>
        <time>2015-08-11T10:31:20.433Z</time>
      </trkpt>
      <trkpt lat="45.93257" lon="4.71411">
        <ele>181.300003052</ele>
        <time>2015-08-11T10:31:21.465Z</time>
      </trkpt>
      <trkpt lat="45.93261" lon="4.7142">
        <ele>181.199996948</ele>
        <time>2015-08-11T10:31:22.423Z</time>
      </trkpt>
      <trkpt lat="45.93266" lon="4.71429">
        <ele>181.100006104</ele>
        <time>2015-08-11T10:31:23.507Z</time>
      </trkpt>
      <trkpt lat="45.9327" lon="4.71437">
        <ele>181.199996948</ele>
        <time>2015-08-11T10:31:24.433Z</time>
      </trkpt>
      <trkpt lat="45.93275" lon="4.71446">
        <ele>181.199996948</ele>
        <time>2015-08-11T10:31:25.477Z</time>
      </trkpt>
      <trkpt lat="45.93278" lon="4.71454">
        <ele>181</ele>
        <time>2015-08-11T10:31:26.436Z</time>
      </trkpt>
      <trkpt lat="45.93282" lon="4.71463">
        <ele>180.899993896</ele>
        <time>2015-08-11T10:31:27.54Z</time>
      </trkpt>
      <trkpt lat="45.93284" lon="4.71474">
        <ele>181.600006104</ele>
        <time>2015-08-11T10:31:28.431Z</time>
      </trkpt>
      <trkpt lat="45.93287" lon="4.71484">
        <ele>181.699996948</ele>
        <time>2015-08-11T10:31:29.475Z</time>
      </trkpt>
      <trkpt lat="45.9329" lon="4.71494">
        <ele>181.899993896</ele>
        <time>2015-08-11T10:31:30.483Z</time>
      </trkpt>
      <trkpt lat="45.93292" lon="4.71506">
        <ele>182.100006104</ele>
        <time>2015-08-11T10:31:31.47Z</time>
      </trkpt>
      <trkpt lat="45.93294" lon="4.71519">
        <ele>182.199996948</ele>
        <time>2015-08-11T10:31:32.433Z</time>
      </trkpt>
      <trkpt lat="45.93294" lon="4.71519">
        <ele>182.199996948</ele>
        <time>2015-08-11T10:31:32.525Z</time>
      </trkpt>
      <trkpt lat="45.93296" lon="4.71533">
        <ele>182.199996948</ele>
        <time>2015-08-11T10:31:33.427Z</time>
      </trkpt>
      <trkpt lat="45.93296" lon="4.71533">
        <ele>182.199996948</ele>
        <time>2015-08-11T10:31:33.574Z</time>
      </trkpt>
      <trkpt lat="45.93297" lon="4.71547">
        <ele>182.199996948</ele>
        <time>2015-08-11T10:31:34.429Z</time>
      </trkpt>
      <trkpt lat="45.93297" lon="4.71559">
        <ele>182.300003052</ele>
        <time>2015-08-11T10:31:35.68Z</time>
      </trkpt>
      <trkpt lat="45.93295" lon="4.71569">
        <ele>182.199996948</ele>
        <time>2015-08-11T10:31:36.49Z</time>
      </trkpt>
      <trkpt lat="45.93294" lon="4.71578">
        <ele>182</ele>
        <time>2015-08-11T10:31:37.577Z</time>
      </trkpt>
      <trkpt lat="45.93291" lon="4.71586">
        <ele>181.5</ele>
        <time>2015-08-11T10:31:38.452Z</time>
      </trkpt>
      <trkpt lat="45.93287" lon="4.71593">
        <ele>181.399993896</ele>
        <time>2015-08-11T10:31:39.611Z</time>
      </trkpt>
      <trkpt lat="45.93289" lon="4.71599">
        <ele>181.399993896</ele>
        <time>2015-08-11T10:31:40.453Z</time>
      </trkpt>
      <trkpt lat="45.93289" lon="4.71599">
        <ele>181.399993896</ele>
        <time>2015-08-11T10:31:40.562Z</time>
      </trkpt>
      <trkpt lat="45.93301" lon="4.7159">
        <ele>181.199996948</ele>
        <time>2015-08-11T10:31:41.436Z</time>
      </trkpt>
      <trkpt lat="45.93309" lon="4.71594">
        <ele>181.300003052</ele>
        <time>2015-08-11T10:31:43.488Z</time>
      </trkpt>
      <trkpt lat="45.93316" lon="4.71601">
        <ele>181.399993896</ele>
        <time>2015-08-11T10:31:44.435Z</time>
      </trkpt>
      <trkpt lat="45.93321" lon="4.71607">
        <ele>181.5</ele>
        <time>2015-08-11T10:31:45.472Z</time>
      </trkpt>
      <trkpt lat="45.93326" lon="4.71613">
        <ele>181.699996948</ele>
        <time>2015-08-11T10:31:46.43Z</time>
      </trkpt>
      <trkpt lat="45.93326" lon="4.71613">
        <ele>181.699996948</ele>
        <time>2015-08-11T10:31:46.47Z</time>
      </trkpt>
      <trkpt lat="45.93336" lon="4.71622">
        <ele>181.899993896</ele>
        <time>2015-08-11T10:31:47.428Z</time>
      </trkpt>
      <trkpt lat="45.93343" lon="4.71628">
        <ele>181.800003052</ele>
        <time>2015-08-11T10:31:48.503Z</time>
      </trkpt>
      <trkpt lat="45.93347" lon="4.71631">
        <ele>181.699996948</ele>
        <time>2015-08-11T10:31:49.433Z</time>
      </trkpt>
      <trkpt lat="45.93347" lon="4.71631">
        <ele>181.699996948</ele>
        <time>2015-08-11T10:31:49.504Z</time>
      </trkpt>
      <trkpt lat="45.93357" lon="4.71638">
        <ele>181.699996948</ele>
        <time>2015-08-11T10:31:50.429Z</time>
      </trkpt>
      <trkpt lat="45.93357" lon="4.71638">
        <ele>181.699996948</ele>
        <time>2015-08-11T10:31:50.556Z</time>
      </trkpt>
      <trkpt lat="45.93365" lon="4.71645">
        <ele>181.699996948</ele>
        <time>2015-08-11T10:31:51.437Z</time>
      </trkpt>
      <trkpt lat="45.93372" lon="4.71653">
        <ele>181.5</ele>
        <time>2015-08-11T10:31:52.547Z</time>
      </trkpt>
      <trkpt lat="45.93377" lon="4.71662">
        <ele>181.399993896</ele>
        <time>2015-08-11T10:31:53.452Z</time>
      </trkpt>
      <trkpt lat="45.93377" lon="4.71662">
        <ele>181.399993896</ele>
        <time>2015-08-11T10:31:53.512Z</time>
      </trkpt>
      <trkpt lat="45.93378" lon="4.71677">
        <ele>181.899993896</ele>
        <time>2015-08-11T10:31:54.633Z</time>
      </trkpt>
      <trkpt lat="45.93378" lon="4.71677">
        <ele>181.899993896</ele>
        <time>2015-08-11T10:31:54.784Z</time>
      </trkpt>
      <trkpt lat="45.9338" lon="4.71691">
        <ele>182.399993896</ele>
        <time>2015-08-11T10:31:55.432Z</time>
      </trkpt>
      <trkpt lat="45.9338" lon="4.71691">
        <ele>182.399993896</ele>
        <time>2015-08-11T10:31:55.491Z</time>
      </trkpt>
      <trkpt lat="45.93384" lon="4.71705">
        <ele>182.300003052</ele>
        <time>2015-08-11T10:31:56.432Z</time>
      </trkpt>
      <trkpt lat="45.93384" lon="4.71705">
        <ele>182.300003052</ele>
        <time>2015-08-11T10:31:56.496Z</time>
      </trkpt>
      <trkpt lat="45.93387" lon="4.71716">
        <ele>182</ele>
        <time>2015-08-11T10:31:57.433Z</time>
      </trkpt>
      <trkpt lat="45.93387" lon="4.71716">
        <ele>182</ele>
        <time>2015-08-11T10:31:57.566Z</time>
      </trkpt>
      <trkpt lat="45.93392" lon="4.71729">
        <ele>181.699996948</ele>
        <time>2015-08-11T10:31:58.433Z</time>
      </trkpt>
      <trkpt lat="45.93392" lon="4.71729">
        <ele>181.699996948</ele>
        <time>2015-08-11T10:31:58.47Z</time>
      </trkpt>
      <trkpt lat="45.93398" lon="4.71743">
        <ele>181.300003052</ele>
        <time>2015-08-11T10:31:59.431Z</time>
      </trkpt>
      <trkpt lat="45.93398" lon="4.71743">
        <ele>181.300003052</ele>
        <time>2015-08-11T10:31:59.475Z</time>
      </trkpt>
      <trkpt lat="45.93402" lon="4.71756">
        <ele>180.800003052</ele>
        <time>2015-08-11T10:32:00.418Z</time>
      </trkpt>
      <trkpt lat="45.93402" lon="4.71756">
        <ele>180.800003052</ele>
        <time>2015-08-11T10:32:00.484Z</time>
      </trkpt>
      <trkpt lat="45.93407" lon="4.71768">
        <ele>180.399993896</ele>
        <time>2015-08-11T10:32:01.434Z</time>
      </trkpt>
      <trkpt lat="45.93407" lon="4.71768">
        <ele>180.399993896</ele>
        <time>2015-08-11T10:32:01.5Z</time>
      </trkpt>
      <trkpt lat="45.93412" lon="4.71781">
        <ele>180.100006104</ele>
        <time>2015-08-11T10:32:02.427Z</time>
      </trkpt>
      <trkpt lat="45.93412" lon="4.71781">
        <ele>180.100006104</ele>
        <time>2015-08-11T10:32:02.528Z</time>
      </trkpt>
      <trkpt lat="45.93417" lon="4.71794">
        <ele>179.899993896</ele>
        <time>2015-08-11T10:32:03.506Z</time>
      </trkpt>
      <trkpt lat="45.93416" lon="4.71804">
        <ele>179.699996948</ele>
        <time>2015-08-11T10:32:05.466Z</time>
      </trkpt>
      <trkpt lat="45.9342" lon="4.71812">
        <ele>179.800003052</ele>
        <time>2015-08-11T10:32:06.431Z</time>
      </trkpt>
      <trkpt lat="45.93426" lon="4.71811">
        <ele>179.600006104</ele>
        <time>2015-08-11T10:32:07.468Z</time>
      </trkpt>
      <trkpt lat="45.93429" lon="4.71818">
        <ele>179.800003052</ele>
        <time>2015-08-11T10:32:08.415Z</time>
      </trkpt>
      <trkpt lat="45.93433" lon="4.71826">
        <ele>179.899993896</ele>
        <time>2015-08-11T10:32:09.468Z</time>
      </trkpt>
      <trkpt lat="45.93435" lon="4.71834">
        <ele>179.899993896</ele>
        <time>2015-08-11T10:32:10.431Z</time>
      </trkpt>
      <trkpt lat="45.93435" lon="4.71834">
        <ele>179.899993896</ele>
        <time>2015-08-11T10:32:10.494Z</time>
      </trkpt>
      <trkpt lat="45.93442" lon="4.71843">
        <ele>180.100006104</ele>
        <time>2015-08-11T10:32:11.429Z</time>
      </trkpt>
      <trkpt lat="45.93447" lon="4.7185">
        <ele>180</ele>
        <time>2015-08-11T10:32:12.476Z</time>
      </trkpt>
      <trkpt lat="45.93454" lon="4.71856">
        <ele>180.100006104</ele>
        <time>2015-08-11T10:32:13.433Z</time>
      </trkpt>
      <trkpt lat="45.93461" lon="4.71861">
        <ele>180</ele>
        <time>2015-08-11T10:32:14.466Z</time>
      </trkpt>
      <trkpt lat="45.93468" lon="4.71859">
        <ele>180.300003052</ele>
        <time>2015-08-11T10:32:15.444Z</time>
      </trkpt>
      <trkpt lat="45.93475" lon="4.71861">
        <ele>180.5</ele>
        <time>2015-08-11T10:32:16.466Z</time>
      </trkpt>
      <trkpt lat="45.93481" lon="4.71861">
        <ele>180.699996948</ele>
        <time>2015-08-11T10:32:17.43Z</time>
      </trkpt>
      <trkpt lat="45.93488" lon="4.71859">
        <ele>181.100006104</ele>
        <time>2015-08-11T10:32:18.477Z</time>
      </trkpt>
      <trkpt lat="45.93496" lon="4.71854">
        <ele>181.600006104</ele>
        <time>2015-08-11T10:32:19.422Z</time>
      </trkpt>
      <trkpt lat="45.93503" lon="4.71852">
        <ele>181.899993896</ele>
        <time>2015-08-11T10:32:20.489Z</time>
      </trkpt>
      <trkpt lat="45.93512" lon="4.71852">
        <ele>182.5</ele>
        <time>2015-08-11T10:32:21.425Z</time>
      </trkpt>
      <trkpt lat="45.9352" lon="4.71851">
        <ele>183.100006104</ele>
        <time>2015-08-11T10:32:22.463Z</time>
      </trkpt>
      <trkpt lat="45.93527" lon="4.71849">
        <ele>183.600006104</ele>
        <time>2015-08-11T10:32:23.431Z</time>
      </trkpt>
      <trkpt lat="45.93535" lon="4.71847">
        <ele>184.199996948</ele>
        <time>2015-08-11T10:32:24.485Z</time>
      </trkpt>
      <trkpt lat="45.9354" lon="4.71843">
        <ele>184.800003052</ele>
        <time>2015-08-11T10:32:25.434Z</time>
      </trkpt>
      <trkpt lat="45.93546" lon="4.71841">
        <ele>185.300003052</ele>
        <time>2015-08-11T10:32:26.464Z</time>
      </trkpt>
      <trkpt lat="45.93553" lon="4.7184">
        <ele>185.800003052</ele>
        <time>2015-08-11T10:32:27.547Z</time>
      </trkpt>
      <trkpt lat="45.93562" lon="4.7184">
        <ele>186.300003052</ele>
        <time>2015-08-11T10:32:28.467Z</time>
      </trkpt>
      <trkpt lat="45.9357" lon="4.71838">
        <ele>186.699996948</ele>
        <time>2015-08-11T10:32:29.431Z</time>
      </trkpt>
      <trkpt lat="45.93576" lon="4.71837">
        <ele>187.300003052</ele>
        <time>2015-08-11T10:32:30.533Z</time>
      </trkpt>
      <trkpt lat="45.93582" lon="4.71834">
        <ele>188.100006104</ele>
        <time>2015-08-11T10:32:31.436Z</time>
      </trkpt>
      <trkpt lat="45.93587" lon="4.71829">
        <ele>188.399993896</ele>
        <time>2015-08-11T10:32:32.471Z</time>
      </trkpt>
      <trkpt lat="45.93594" lon="4.71827">
        <ele>188.199996948</ele>
        <time>2015-08-11T10:32:33.442Z</time>
      </trkpt>
      <trkpt lat="45.936" lon="4.71821">
        <ele>188.300003052</ele>
        <time>2015-08-11T10:32:34.489Z</time>
      </trkpt>
      <trkpt lat="45.93606" lon="4.71815">
        <ele>188.600006104</ele>
        <time>2015-08-11T10:32:35.435Z</time>
      </trkpt>
      <trkpt lat="45.93611" lon="4.7181">
        <ele>188.699996948</ele>
        <time>2015-08-11T10:32:36.467Z</time>
      </trkpt>
      <trkpt lat="45.93617" lon="4.71806">
        <ele>189</ele>
        <time>2015-08-11T10:32:37.434Z</time>
      </trkpt>
      <trkpt lat="45.93623" lon="4.71803">
        <ele>189.199996948</ele>
        <time>2015-08-11T10:32:38.465Z</time>
      </trkpt>
      <trkpt lat="45.93629" lon="4.71799">
        <ele>189.5</ele>
        <time>2015-08-11T10:32:39.431Z</time>
      </trkpt>
      <trkpt lat="45.93634" lon="4.71796">
        <ele>189.800003052</ele>
        <time>2015-08-11T10:32:40.468Z</time>
      </trkpt>
      <trkpt lat="45.9364" lon="4.71793">
        <ele>190.199996948</ele>
        <time>2015-08-11T10:32:41.427Z</time>
      </trkpt>
      <trkpt lat="45.93644" lon="4.7179">
        <ele>190.699996948</ele>
        <time>2015-08-11T10:32:42.52Z</time>
      </trkpt>
      <trkpt lat="45.93649" lon="4.71787">
        <ele>191</ele>
        <time>2015-08-11T10:32:43.422Z</time>
      </trkpt>
      <trkpt lat="45.93654" lon="4.71785">
        <ele>191.399993896</ele>
        <time>2015-08-11T10:32:44.485Z</time>
      </trkpt>
      <trkpt lat="45.9366" lon="4.71784">
        <ele>191.699996948</ele>
        <time>2015-08-11T10:32:45.43Z</time>
      </trkpt>
      <trkpt lat="45.93664" lon="4.71784">
        <ele>192.100006104</ele>
        <time>2015-08-11T10:32:46.465Z</time>
      </trkpt>
      <trkpt lat="45.93669" lon="4.71784">
        <ele>192.5</ele>
        <time>2015-08-11T10:32:47.43Z</time>
      </trkpt>
      <trkpt lat="45.93672" lon="4.71786">
        <ele>192.899993896</ele>
        <time>2015-08-11T10:32:48.466Z</time>
      </trkpt>
      <trkpt lat="45.93676" lon="4.71797">
        <ele>192.199996948</ele>
        <time>2015-08-11T10:32:49.434Z</time>
      </trkpt>
      <trkpt lat="45.93678" lon="4.71803">
        <ele>192.399993896</ele>
        <time>2015-08-11T10:32:50.488Z</time>
      </trkpt>
      <trkpt lat="45.93681" lon="4.71812">
        <ele>192.199996948</ele>
        <time>2015-08-11T10:32:51.434Z</time>
      </trkpt>
      <trkpt lat="45.93682" lon="4.71819">
        <ele>192</ele>
        <time>2015-08-11T10:32:52.478Z</time>
      </trkpt>
      <trkpt lat="45.93683" lon="4.71826">
        <ele>192.100006104</ele>
        <time>2015-08-11T10:32:53.432Z</time>
      </trkpt>
      <trkpt lat="45.93684" lon="4.71833">
        <ele>192</ele>
        <time>2015-08-11T10:32:54.494Z</time>
      </trkpt>
      <trkpt lat="45.93684" lon="4.7184">
        <ele>191.899993896</ele>
        <time>2015-08-11T10:32:55.433Z</time>
      </trkpt>
      <trkpt lat="45.93686" lon="4.7185">
        <ele>192.300003052</ele>
        <time>2015-08-11T10:32:57.631Z</time>
      </trkpt>
      <trkpt lat="45.93684" lon="4.71855">
        <ele>192.600006104</ele>
        <time>2015-08-11T10:32:58.421Z</time>
      </trkpt>
      <trkpt lat="45.93682" lon="4.7186">
        <ele>193</ele>
        <time>2015-08-11T10:32:59.472Z</time>
      </trkpt>
      <trkpt lat="45.93677" lon="4.71868">
        <ele>193.5</ele>
        <time>2015-08-11T10:33:00.435Z</time>
      </trkpt>
      <trkpt lat="45.93672" lon="4.71875">
        <ele>193.699996948</ele>
        <time>2015-08-11T10:33:01.663Z</time>
      </trkpt>
      <trkpt lat="45.93668" lon="4.71881">
        <ele>193.899993896</ele>
        <time>2015-08-11T10:33:02.435Z</time>
      </trkpt>
      <trkpt lat="45.93663" lon="4.71888">
        <ele>194.100006104</ele>
        <time>2015-08-11T10:33:03.467Z</time>
      </trkpt>
      <trkpt lat="45.9366" lon="4.71895">
        <ele>194.399993896</ele>
        <time>2015-08-11T10:33:04.576Z</time>
      </trkpt>
      <trkpt lat="45.93656" lon="4.71901">
        <ele>194.600006104</ele>
        <time>2015-08-11T10:33:05.466Z</time>
      </trkpt>
      <trkpt lat="45.93652" lon="4.71909">
        <ele>194.699996948</ele>
        <time>2015-08-11T10:33:06.436Z</time>
      </trkpt>
      <trkpt lat="45.93649" lon="4.71916">
        <ele>194.800003052</ele>
        <time>2015-08-11T10:33:07.471Z</time>
      </trkpt>
      <trkpt lat="45.93645" lon="4.71923">
        <ele>194.899993896</ele>
        <time>2015-08-11T10:33:08.469Z</time>
      </trkpt>
      <trkpt lat="45.93642" lon="4.71932">
        <ele>195.199996948</ele>
        <time>2015-08-11T10:33:09.466Z</time>
      </trkpt>
      <trkpt lat="45.93639" lon="4.7194">
        <ele>195.399993896</ele>
        <time>2015-08-11T10:33:10.424Z</time>
      </trkpt>
      <trkpt lat="45.93636" lon="4.71949">
        <ele>195.600006104</ele>
        <time>2015-08-11T10:33:11.481Z</time>
      </trkpt>
      <trkpt lat="45.93636" lon="4.71958">
        <ele>195.899993896</ele>
        <time>2015-08-11T10:33:12.432Z</time>
      </trkpt>
      <trkpt lat="45.93633" lon="4.71966">
        <ele>196.199996948</ele>
        <time>2015-08-11T10:33:13.462Z</time>
      </trkpt>
      <trkpt lat="45.93631" lon="4.71975">
        <ele>196.5</ele>
        <time>2015-08-11T10:33:14.428Z</time>
      </trkpt>
      <trkpt lat="45.93627" lon="4.71983">
        <ele>196.800003052</ele>
        <time>2015-08-11T10:33:15.469Z</time>
      </trkpt>
      <trkpt lat="45.93623" lon="4.71991">
        <ele>197</ele>
        <time>2015-08-11T10:33:16.431Z</time>
      </trkpt>
      <trkpt lat="45.93618" lon="4.71998">
        <ele>197.300003052</ele>
        <time>2015-08-11T10:33:17.552Z</time>
      </trkpt>
      <trkpt lat="45.93612" lon="4.72005">
        <ele>197.300003052</ele>
        <time>2015-08-11T10:33:18.418Z</time>
      </trkpt>
      <trkpt lat="45.93608" lon="4.72012">
        <ele>197.5</ele>
        <time>2015-08-11T10:33:19.475Z</time>
      </trkpt>
      <trkpt lat="45.93604" lon="4.72019">
        <ele>197.699996948</ele>
        <time>2015-08-11T10:33:20.428Z</time>
      </trkpt>
      <trkpt lat="45.936" lon="4.72027">
        <ele>197.899993896</ele>
        <time>2015-08-11T10:33:21.464Z</time>
      </trkpt>
      <trkpt lat="45.93597" lon="4.72036">
        <ele>197.899993896</ele>
        <time>2015-08-11T10:33:22.409Z</time>
      </trkpt>
      <trkpt lat="45.93595" lon="4.72045">
        <ele>198</ele>
        <time>2015-08-11T10:33:23.468Z</time>
      </trkpt>
      <trkpt lat="45.93592" lon="4.72054">
        <ele>198</ele>
        <time>2015-08-11T10:33:24.431Z</time>
      </trkpt>
      <trkpt lat="45.93586" lon="4.72062">
        <ele>198.100006104</ele>
        <time>2015-08-11T10:33:25.467Z</time>
      </trkpt>
      <trkpt lat="45.93584" lon="4.72071">
        <ele>198</ele>
        <time>2015-08-11T10:33:26.422Z</time>
      </trkpt>
      <trkpt lat="45.93577" lon="4.72078">
        <ele>198</ele>
        <time>2015-08-11T10:33:27.462Z</time>
      </trkpt>
      <trkpt lat="45.93574" lon="4.72078">
        <ele>198.399993896</ele>
        <time>2015-08-11T10:33:28.428Z</time>
      </trkpt>
      <trkpt lat="45.93573" lon="4.72087">
        <ele>198.699996948</ele>
        <time>2015-08-11T10:33:29.593Z</time>
      </trkpt>
      <trkpt lat="45.9357" lon="4.72092">
        <ele>198.899993896</ele>
        <time>2015-08-11T10:33:30.43Z</time>
      </trkpt>
      <trkpt lat="45.93569" lon="4.72101">
        <ele>199</ele>
        <time>2015-08-11T10:33:31.488Z</time>
      </trkpt>
      <trkpt lat="45.93565" lon="4.72111">
        <ele>199</ele>
        <time>2015-08-11T10:33:32.429Z</time>
      </trkpt>
      <trkpt lat="45.93562" lon="4.72118">
        <ele>199.100006104</ele>
        <time>2015-08-11T10:33:33.462Z</time>
      </trkpt>
      <trkpt lat="45.93558" lon="4.72126">
        <ele>199.199996948</ele>
        <time>2015-08-11T10:33:34.432Z</time>
      </trkpt>
      <trkpt lat="45.93557" lon="4.72139">
        <ele>199.399993896</ele>
        <time>2015-08-11T10:33:35.477Z</time>
      </trkpt>
      <trkpt lat="45.93555" lon="4.72147">
        <ele>199.399993896</ele>
        <time>2015-08-11T10:33:36.432Z</time>
      </trkpt>
      <trkpt lat="45.93554" lon="4.72157">
        <ele>199.399993896</ele>
        <time>2015-08-11T10:33:37.465Z</time>
      </trkpt>
      <trkpt lat="45.93556" lon="4.72167">
        <ele>199.300003052</ele>
        <time>2015-08-11T10:33:38.431Z</time>
      </trkpt>
      <trkpt lat="45.93555" lon="4.72176">
        <ele>199.399993896</ele>
        <time>2015-08-11T10:33:39.474Z</time>
      </trkpt>
      <trkpt lat="45.93553" lon="4.72184">
        <ele>199.399993896</ele>
        <time>2015-08-11T10:33:40.428Z</time>
      </trkpt>
      <trkpt lat="45.93546" lon="4.72189">
        <ele>199.699996948</ele>
        <time>2015-08-11T10:33:41.463Z</time>
      </trkpt>
      <trkpt lat="45.93544" lon="4.72196">
        <ele>199.800003052</ele>
        <time>2015-08-11T10:33:42.431Z</time>
      </trkpt>
      <trkpt lat="45.9354" lon="4.72202">
        <ele>199.899993896</ele>
        <time>2015-08-11T10:33:43.471Z</time>
      </trkpt>
      <trkpt lat="45.93538" lon="4.72208">
        <ele>199.800003052</ele>
        <time>2015-08-11T10:33:44.431Z</time>
      </trkpt>
      <trkpt lat="45.93533" lon="4.72209">
        <ele>199.600006104</ele>
        <time>2015-08-11T10:33:45.463Z</time>
      </trkpt>
      <trkpt lat="45.93529" lon="4.72213">
        <ele>200.100006104</ele>
        <time>2015-08-11T10:33:46.438Z</time>
      </trkpt>
      <trkpt lat="45.93526" lon="4.72218">
        <ele>200.300003052</ele>
        <time>2015-08-11T10:33:47.461Z</time>
      </trkpt>
      <trkpt lat="45.93523" lon="4.72224">
        <ele>200.600006104</ele>
        <time>2015-08-11T10:33:48.415Z</time>
      </trkpt>
      <trkpt lat="45.93522" lon="4.72233">
        <ele>200.300003052</ele>
        <time>2015-08-11T10:33:49.469Z</time>
      </trkpt>
      <trkpt lat="45.93519" lon="4.72241">
        <ele>200.5</ele>
        <time>2015-08-11T10:33:50.445Z</time>
      </trkpt>
      <trkpt lat="45.93514" lon="4.72251">
        <ele>200.699996948</ele>
        <time>2015-08-11T10:33:51.465Z</time>
      </trkpt>
      <trkpt lat="45.93511" lon="4.7226">
        <ele>201</ele>
        <time>2015-08-11T10:33:52.423Z</time>
      </trkpt>
      <trkpt lat="45.93508" lon="4.72268">
        <ele>201.199996948</ele>
        <time>2015-08-11T10:33:53.542Z</time>
      </trkpt>
      <trkpt lat="45.93504" lon="4.72278">
        <ele>201.199996948</ele>
        <time>2015-08-11T10:33:54.433Z</time>
      </trkpt>
      <trkpt lat="45.93502" lon="4.72286">
        <ele>201.100006104</ele>
        <time>2015-08-11T10:33:55.476Z</time>
      </trkpt>
      <trkpt lat="45.93501" lon="4.72296">
        <ele>200.899993896</ele>
        <time>2015-08-11T10:33:56.476Z</time>
      </trkpt>
      <trkpt lat="45.93501" lon="4.72305">
        <ele>200.800003052</ele>
        <time>2015-08-11T10:33:57.675Z</time>
      </trkpt>
      <trkpt lat="45.93499" lon="4.72314">
        <ele>200.699996948</ele>
        <time>2015-08-11T10:33:58.435Z</time>
      </trkpt>
      <trkpt lat="45.93497" lon="4.7232">
        <ele>200.600006104</ele>
        <time>2015-08-11T10:33:59.565Z</time>
      </trkpt>
      <trkpt lat="45.93498" lon="4.72328">
        <ele>200.600006104</ele>
        <time>2015-08-11T10:34:00.435Z</time>
      </trkpt>
      <trkpt lat="45.93503" lon="4.72336">
        <ele>200.5</ele>
        <time>2015-08-11T10:34:02.465Z</time>
      </trkpt>
      <trkpt lat="45.93504" lon="4.72341">
        <ele>200.399993896</ele>
        <time>2015-08-11T10:34:03.435Z</time>
      </trkpt>
      <trkpt lat="45.93503" lon="4.72348">
        <ele>200.399993896</ele>
        <time>2015-08-11T10:34:04.466Z</time>
      </trkpt>
      <trkpt lat="45.93498" lon="4.72355">
        <ele>200.5</ele>
        <time>2015-08-11T10:34:05.429Z</time>
      </trkpt>
      <trkpt lat="45.93492" lon="4.72363">
        <ele>200.5</ele>
        <time>2015-08-11T10:34:06.463Z</time>
      </trkpt>
      <trkpt lat="45.93469" lon="4.72365">
        <ele>200.399993896</ele>
        <time>2015-08-11T10:34:07.435Z</time>
      </trkpt>
      <trkpt lat="45.93469" lon="4.72365">
        <ele>200.399993896</ele>
        <time>2015-08-11T10:34:07.479Z</time>
      </trkpt>
      <trkpt lat="45.93457" lon="4.72366">
        <ele>200.300003052</ele>
        <time>2015-08-11T10:34:08.43Z</time>
      </trkpt>
      <trkpt lat="45.93454" lon="4.72378">
        <ele>200.199996948</ele>
        <time>2015-08-11T10:34:10.375Z</time>
      </trkpt>
      <trkpt lat="45.93447" lon="4.72382">
        <ele>200.300003052</ele>
        <time>2015-08-11T10:34:10.642Z</time>
      </trkpt>
      <trkpt lat="45.93442" lon="4.72386">
        <ele>200.5</ele>
        <time>2015-08-11T10:34:11.467Z</time>
      </trkpt>
      <trkpt lat="45.93436" lon="4.72389">
        <ele>200.300003052</ele>
        <time>2015-08-11T10:34:12.428Z</time>
      </trkpt>
      <trkpt lat="45.93429" lon="4.72392">
        <ele>200.100006104</ele>
        <time>2015-08-11T10:34:13.5Z</time>
      </trkpt>
      <trkpt lat="45.93425" lon="4.72397">
        <ele>199.699996948</ele>
        <time>2015-08-11T10:34:14.539Z</time>
      </trkpt>
      <trkpt lat="45.93419" lon="4.724">
        <ele>199.699996948</ele>
        <time>2015-08-11T10:34:15.471Z</time>
      </trkpt>
      <trkpt lat="45.93413" lon="4.72403">
        <ele>199.699996948</ele>
        <time>2015-08-11T10:34:16.43Z</time>
      </trkpt>
      <trkpt lat="45.93407" lon="4.72405">
        <ele>199.800003052</ele>
        <time>2015-08-11T10:34:17.467Z</time>
      </trkpt>
      <trkpt lat="45.93401" lon="4.72408">
        <ele>199.800003052</ele>
        <time>2015-08-11T10:34:18.435Z</time>
      </trkpt>
      <trkpt lat="45.93396" lon="4.72411">
        <ele>199.699996948</ele>
        <time>2015-08-11T10:34:19.473Z</time>
      </trkpt>
      <trkpt lat="45.93389" lon="4.72409">
        <ele>199.300003052</ele>
        <time>2015-08-11T10:34:20.431Z</time>
      </trkpt>
      <trkpt lat="45.93385" lon="4.72413">
        <ele>199.100006104</ele>
        <time>2015-08-11T10:34:22.465Z</time>
      </trkpt>
      <trkpt lat="45.93382" lon="4.72417">
        <ele>198.899993896</ele>
        <time>2015-08-11T10:34:23.432Z</time>
      </trkpt>
      <trkpt lat="45.93379" lon="4.72423">
        <ele>198.399993896</ele>
        <time>2015-08-11T10:34:24.776Z</time>
      </trkpt>
      <trkpt lat="45.93382" lon="4.7243">
        <ele>198.5</ele>
        <time>2015-08-11T10:34:25.446Z</time>
      </trkpt>
      <trkpt lat="45.93385" lon="4.72436">
        <ele>198.300003052</ele>
        <time>2015-08-11T10:34:26.482Z</time>
      </trkpt>
      <trkpt lat="45.93388" lon="4.72443">
        <ele>197.899993896</ele>
        <time>2015-08-11T10:34:27.753Z</time>
      </trkpt>
      <trkpt lat="45.93391" lon="4.72452">
        <ele>197.399993896</ele>
        <time>2015-08-11T10:34:28.623Z</time>
      </trkpt>
      <trkpt lat="45.93394" lon="4.72461">
        <ele>197.100006104</ele>
        <time>2015-08-11T10:34:29.466Z</time>
      </trkpt>
      <trkpt lat="45.93397" lon="4.7247">
        <ele>197</ele>
        <time>2015-08-11T10:34:30.554Z</time>
      </trkpt>
      <trkpt lat="45.93394" lon="4.72475">
        <ele>196.600006104</ele>
        <time>2015-08-11T10:34:31.447Z</time>
      </trkpt>
      <trkpt lat="45.93388" lon="4.72479">
        <ele>196.5</ele>
        <time>2015-08-11T10:34:32.515Z</time>
      </trkpt>
      <trkpt lat="45.93381" lon="4.72481">
        <ele>196.300003052</ele>
        <time>2015-08-11T10:34:33.446Z</time>
      </trkpt>
      <trkpt lat="45.93377" lon="4.72487">
        <ele>196.300003052</ele>
        <time>2015-08-11T10:34:34.482Z</time>
      </trkpt>
      <trkpt lat="45.93373" lon="4.72493">
        <ele>196.300003052</ele>
        <time>2015-08-11T10:34:35.44Z</time>
      </trkpt>
      <trkpt lat="45.9337" lon="4.72499">
        <ele>196.300003052</ele>
        <time>2015-08-11T10:34:36.468Z</time>
      </trkpt>
      <trkpt lat="45.93366" lon="4.72505">
        <ele>196.199996948</ele>
        <time>2015-08-11T10:34:37.433Z</time>
      </trkpt>
      <trkpt lat="45.93359" lon="4.7251">
        <ele>196.100006104</ele>
        <time>2015-08-11T10:34:38.468Z</time>
      </trkpt>
      <trkpt lat="45.93353" lon="4.72516">
        <ele>195.800003052</ele>
        <time>2015-08-11T10:34:39.438Z</time>
      </trkpt>
      <trkpt lat="45.93346" lon="4.72518">
        <ele>195.699996948</ele>
        <time>2015-08-11T10:34:40.492Z</time>
      </trkpt>
      <trkpt lat="45.93337" lon="4.72521">
        <ele>195.5</ele>
        <time>2015-08-11T10:34:41.493Z</time>
      </trkpt>
      <trkpt lat="45.9333" lon="4.72527">
        <ele>195.399993896</ele>
        <time>2015-08-11T10:34:42.505Z</time>
      </trkpt>
      <trkpt lat="45.93326" lon="4.72532">
        <ele>195.199996948</ele>
        <time>2015-08-11T10:34:43.441Z</time>
      </trkpt>
      <trkpt lat="45.93322" lon="4.72537">
        <ele>195.199996948</ele>
        <time>2015-08-11T10:34:44.466Z</time>
      </trkpt>
      <trkpt lat="45.93317" lon="4.72545">
        <ele>194.899993896</ele>
        <time>2015-08-11T10:34:45.44Z</time>
      </trkpt>
      <trkpt lat="45.93309" lon="4.7255">
        <ele>194.800003052</ele>
        <time>2015-08-11T10:34:46.472Z</time>
      </trkpt>
      <trkpt lat="45.93303" lon="4.72557">
        <ele>194.600006104</ele>
        <time>2015-08-11T10:34:47.438Z</time>
      </trkpt>
      <trkpt lat="45.93298" lon="4.72563">
        <ele>194.399993896</ele>
        <time>2015-08-11T10:34:48.487Z</time>
      </trkpt>
      <trkpt lat="45.93292" lon="4.72569">
        <ele>194.5</ele>
        <time>2015-08-11T10:34:49.44Z</time>
      </trkpt>
      <trkpt lat="45.93287" lon="4.72575">
        <ele>194.399993896</ele>
        <time>2015-08-11T10:34:50.471Z</time>
      </trkpt>
      <trkpt lat="45.93282" lon="4.72581">
        <ele>194.199996948</ele>
        <time>2015-08-11T10:34:51.436Z</time>
      </trkpt>
      <trkpt lat="45.93281" lon="4.72591">
        <ele>193.199996948</ele>
        <time>2015-08-11T10:34:52.469Z</time>
      </trkpt>
      <trkpt lat="45.93277" lon="4.72596">
        <ele>193</ele>
        <time>2015-08-11T10:34:53.438Z</time>
      </trkpt>
      <trkpt lat="45.93273" lon="4.72601">
        <ele>192.800003052</ele>
        <time>2015-08-11T10:34:54.471Z</time>
      </trkpt>
      <trkpt lat="45.93268" lon="4.72607">
        <ele>192.600006104</ele>
        <time>2015-08-11T10:34:55.444Z</time>
      </trkpt>
      <trkpt lat="45.93262" lon="4.72611">
        <ele>192.300003052</ele>
        <time>2015-08-11T10:34:56.475Z</time>
      </trkpt>
      <trkpt lat="45.93257" lon="4.72616">
        <ele>192.199996948</ele>
        <time>2015-08-11T10:34:57.438Z</time>
      </trkpt>
      <trkpt lat="45.93252" lon="4.72621">
        <ele>192</ele>
        <time>2015-08-11T10:34:58.573Z</time>
      </trkpt>
      <trkpt lat="45.93246" lon="4.72626">
        <ele>191.899993896</ele>
        <time>2015-08-11T10:34:59.434Z</time>
      </trkpt>
      <trkpt lat="45.93241" lon="4.72631">
        <ele>192</ele>
        <time>2015-08-11T10:35:00.47Z</time>
      </trkpt>
      <trkpt lat="45.93236" lon="4.72636">
        <ele>191.899993896</ele>
        <time>2015-08-11T10:35:01.44Z</time>
      </trkpt>
      <trkpt lat="45.93232" lon="4.72641">
        <ele>191.899993896</ele>
        <time>2015-08-11T10:35:02.47Z</time>
      </trkpt>
      <trkpt lat="45.93227" lon="4.72647">
        <ele>191.800003052</ele>
        <time>2015-08-11T10:35:03.437Z</time>
      </trkpt>
      <trkpt lat="45.93222" lon="4.72653">
        <ele>191.5</ele>
        <time>2015-08-11T10:35:04.466Z</time>
      </trkpt>
      <trkpt lat="45.93218" lon="4.72658">
        <ele>191.399993896</ele>
        <time>2015-08-11T10:35:05.434Z</time>
      </trkpt>
      <trkpt lat="45.93213" lon="4.72664">
        <ele>191.199996948</ele>
        <time>2015-08-11T10:35:06.492Z</time>
      </trkpt>
      <trkpt lat="45.93208" lon="4.72669">
        <ele>191.100006104</ele>
        <time>2015-08-11T10:35:07.436Z</time>
      </trkpt>
      <trkpt lat="45.93202" lon="4.72675">
        <ele>191</ele>
        <time>2015-08-11T10:35:08.468Z</time>
      </trkpt>
      <trkpt lat="45.93197" lon="4.7268">
        <ele>191</ele>
        <time>2015-08-11T10:35:09.43Z</time>
      </trkpt>
      <trkpt lat="45.93191" lon="4.72685">
        <ele>190.899993896</ele>
        <time>2015-08-11T10:35:10.473Z</time>
      </trkpt>
      <trkpt lat="45.93186" lon="4.72689">
        <ele>191</ele>
        <time>2015-08-11T10:35:11.433Z</time>
      </trkpt>
      <trkpt lat="45.93181" lon="4.72694">
        <ele>191</ele>
        <time>2015-08-11T10:35:12.47Z</time>
      </trkpt>
      <trkpt lat="45.93176" lon="4.72701">
        <ele>190.899993896</ele>
        <time>2015-08-11T10:35:13.439Z</time>
      </trkpt>
      <trkpt lat="45.93172" lon="4.72706">
        <ele>190.899993896</ele>
        <time>2015-08-11T10:35:14.463Z</time>
      </trkpt>
      <trkpt lat="45.93168" lon="4.72711">
        <ele>190.899993896</ele>
        <time>2015-08-11T10:35:15.438Z</time>
      </trkpt>
      <trkpt lat="45.93163" lon="4.72716">
        <ele>190.899993896</ele>
        <time>2015-08-11T10:35:16.467Z</time>
      </trkpt>
      <trkpt lat="45.93158" lon="4.72722">
        <ele>190.899993896</ele>
        <time>2015-08-11T10:35:17.424Z</time>
      </trkpt>
      <trkpt lat="45.93153" lon="4.72726">
        <ele>191</ele>
        <time>2015-08-11T10:35:18.467Z</time>
      </trkpt>
      <trkpt lat="45.93148" lon="4.72731">
        <ele>191</ele>
        <time>2015-08-11T10:35:19.44Z</time>
      </trkpt>
      <trkpt lat="45.93143" lon="4.72736">
        <ele>191</ele>
        <time>2015-08-11T10:35:20.463Z</time>
      </trkpt>
      <trkpt lat="45.93138" lon="4.72742">
        <ele>190.800003052</ele>
        <time>2015-08-11T10:35:21.436Z</time>
      </trkpt>
      <trkpt lat="45.93134" lon="4.72747">
        <ele>190.699996948</ele>
        <time>2015-08-11T10:35:22.471Z</time>
      </trkpt>
      <trkpt lat="45.93129" lon="4.72753">
        <ele>190.600006104</ele>
        <time>2015-08-11T10:35:23.437Z</time>
      </trkpt>
      <trkpt lat="45.93124" lon="4.72758">
        <ele>190.199996948</ele>
        <time>2015-08-11T10:35:24.487Z</time>
      </trkpt>
      <trkpt lat="45.93119" lon="4.72763">
        <ele>190</ele>
        <time>2015-08-11T10:35:25.452Z</time>
      </trkpt>
      <trkpt lat="45.93114" lon="4.72767">
        <ele>189.800003052</ele>
        <time>2015-08-11T10:35:26.471Z</time>
      </trkpt>
      <trkpt lat="45.93108" lon="4.72769">
        <ele>189.800003052</ele>
        <time>2015-08-11T10:35:27.452Z</time>
      </trkpt>
      <trkpt lat="45.93103" lon="4.72773">
        <ele>189.800003052</ele>
        <time>2015-08-11T10:35:28.467Z</time>
      </trkpt>
      <trkpt lat="45.93098" lon="4.72779">
        <ele>189.899993896</ele>
        <time>2015-08-11T10:35:29.433Z</time>
      </trkpt>
      <trkpt lat="45.93094" lon="4.72786">
        <ele>190</ele>
        <time>2015-08-11T10:35:30.465Z</time>
      </trkpt>
      <trkpt lat="45.93089" lon="4.72791">
        <ele>189.899993896</ele>
        <time>2015-08-11T10:35:31.439Z</time>
      </trkpt>
      <trkpt lat="45.93084" lon="4.72797">
        <ele>190</ele>
        <time>2015-08-11T10:35:32.47Z</time>
      </trkpt>
      <trkpt lat="45.93079" lon="4.72802">
        <ele>190.100006104</ele>
        <time>2015-08-11T10:35:33.433Z</time>
      </trkpt>
      <trkpt lat="45.93074" lon="4.72807">
        <ele>190.199996948</ele>
        <time>2015-08-11T10:35:34.467Z</time>
      </trkpt>
      <trkpt lat="45.93069" lon="4.72812">
        <ele>190.300003052</ele>
        <time>2015-08-11T10:35:35.431Z</time>
      </trkpt>
      <trkpt lat="45.93064" lon="4.72817">
        <ele>190.300003052</ele>
        <time>2015-08-11T10:35:36.467Z</time>
      </trkpt>
      <trkpt lat="45.93059" lon="4.72821">
        <ele>190.399993896</ele>
        <time>2015-08-11T10:35:37.434Z</time>
      </trkpt>
      <trkpt lat="45.93054" lon="4.72826">
        <ele>190.5</ele>
        <time>2015-08-11T10:35:38.48Z</time>
      </trkpt>
      <trkpt lat="45.93049" lon="4.72832">
        <ele>190.5</ele>
        <time>2015-08-11T10:35:39.43Z</time>
      </trkpt>
      <trkpt lat="45.93044" lon="4.72839">
        <ele>190.5</ele>
        <time>2015-08-11T10:35:40.544Z</time>
      </trkpt>
      <trkpt lat="45.93038" lon="4.72846">
        <ele>190.399993896</ele>
        <time>2015-08-11T10:35:41.43Z</time>
      </trkpt>
      <trkpt lat="45.93032" lon="4.72851">
        <ele>190.399993896</ele>
        <time>2015-08-11T10:35:42.469Z</time>
      </trkpt>
      <trkpt lat="45.93027" lon="4.72858">
        <ele>190.399993896</ele>
        <time>2015-08-11T10:35:43.434Z</time>
      </trkpt>
      <trkpt lat="45.93023" lon="4.72863">
        <ele>190.5</ele>
        <time>2015-08-11T10:35:44.471Z</time>
      </trkpt>
      <trkpt lat="45.93018" lon="4.72868">
        <ele>190.600006104</ele>
        <time>2015-08-11T10:35:45.434Z</time>
      </trkpt>
      <trkpt lat="45.93014" lon="4.72874">
        <ele>190.600006104</ele>
        <time>2015-08-11T10:35:46.468Z</time>
      </trkpt>
      <trkpt lat="45.93009" lon="4.72879">
        <ele>190.699996948</ele>
        <time>2015-08-11T10:35:47.433Z</time>
      </trkpt>
      <trkpt lat="45.93004" lon="4.72884">
        <ele>190.800003052</ele>
        <time>2015-08-11T10:35:48.484Z</time>
      </trkpt>
      <trkpt lat="45.93001" lon="4.72889">
        <ele>190.699996948</ele>
        <time>2015-08-11T10:35:49.439Z</time>
      </trkpt>
      <trkpt lat="45.92998" lon="4.72897">
        <ele>190.600006104</ele>
        <time>2015-08-11T10:35:50.468Z</time>
      </trkpt>
      <trkpt lat="45.92995" lon="4.72903">
        <ele>190.600006104</ele>
        <time>2015-08-11T10:35:51.434Z</time>
      </trkpt>
      <trkpt lat="45.92991" lon="4.72909">
        <ele>190.5</ele>
        <time>2015-08-11T10:35:52.47Z</time>
      </trkpt>
      <trkpt lat="45.92987" lon="4.72915">
        <ele>190.399993896</ele>
        <time>2015-08-11T10:35:53.431Z</time>
      </trkpt>
      <trkpt lat="45.92983" lon="4.72921">
        <ele>190.300003052</ele>
        <time>2015-08-11T10:35:54.465Z</time>
      </trkpt>
      <trkpt lat="45.92978" lon="4.72926">
        <ele>190.100006104</ele>
        <time>2015-08-11T10:35:55.438Z</time>
      </trkpt>
      <trkpt lat="45.92973" lon="4.7293">
        <ele>190</ele>
        <time>2015-08-11T10:35:56.469Z</time>
      </trkpt>
      <trkpt lat="45.92968" lon="4.72934">
        <ele>190</ele>
        <time>2015-08-11T10:35:57.432Z</time>
      </trkpt>
      <trkpt lat="45.92963" lon="4.72939">
        <ele>189.899993896</ele>
        <time>2015-08-11T10:35:58.466Z</time>
      </trkpt>
      <trkpt lat="45.92959" lon="4.72947">
        <ele>189.600006104</ele>
        <time>2015-08-11T10:35:59.419Z</time>
      </trkpt>
      <trkpt lat="45.92954" lon="4.72952">
        <ele>189.5</ele>
        <time>2015-08-11T10:36:00.465Z</time>
      </trkpt>
      <trkpt lat="45.92949" lon="4.72958">
        <ele>189.399993896</ele>
        <time>2015-08-11T10:36:01.435Z</time>
      </trkpt>
      <trkpt lat="45.92945" lon="4.72963">
        <ele>189.199996948</ele>
        <time>2015-08-11T10:36:02.464Z</time>
      </trkpt>
      <trkpt lat="45.92941" lon="4.72968">
        <ele>189.199996948</ele>
        <time>2015-08-11T10:36:03.437Z</time>
      </trkpt>
      <trkpt lat="45.92937" lon="4.72972">
        <ele>189</ele>
        <time>2015-08-11T10:36:04.487Z</time>
      </trkpt>
      <trkpt lat="45.92932" lon="4.72977">
        <ele>188.899993896</ele>
        <time>2015-08-11T10:36:05.437Z</time>
      </trkpt>
      <trkpt lat="45.92927" lon="4.72981">
        <ele>188.699996948</ele>
        <time>2015-08-11T10:36:06.553Z</time>
      </trkpt>
      <trkpt lat="45.92923" lon="4.72986">
        <ele>188.699996948</ele>
        <time>2015-08-11T10:36:07.441Z</time>
      </trkpt>
      <trkpt lat="45.92918" lon="4.72991">
        <ele>188.699996948</ele>
        <time>2015-08-11T10:36:08.465Z</time>
      </trkpt>
      <trkpt lat="45.92914" lon="4.72996">
        <ele>188.699996948</ele>
        <time>2015-08-11T10:36:09.435Z</time>
      </trkpt>
      <trkpt lat="45.9291" lon="4.73001">
        <ele>188.600006104</ele>
        <time>2015-08-11T10:36:10.468Z</time>
      </trkpt>
      <trkpt lat="45.92906" lon="4.73007">
        <ele>188.5</ele>
        <time>2015-08-11T10:36:11.435Z</time>
      </trkpt>
      <trkpt lat="45.92902" lon="4.73012">
        <ele>188.5</ele>
        <time>2015-08-11T10:36:12.466Z</time>
      </trkpt>
      <trkpt lat="45.92897" lon="4.73017">
        <ele>188.600006104</ele>
        <time>2015-08-11T10:36:13.44Z</time>
      </trkpt>
      <trkpt lat="45.92893" lon="4.73021">
        <ele>188.600006104</ele>
        <time>2015-08-11T10:36:14.472Z</time>
      </trkpt>
      <trkpt lat="45.92889" lon="4.73026">
        <ele>188.600006104</ele>
        <time>2015-08-11T10:36:15.429Z</time>
      </trkpt>
      <trkpt lat="45.92886" lon="4.73032">
        <ele>188.699996948</ele>
        <time>2015-08-11T10:36:16.465Z</time>
      </trkpt>
      <trkpt lat="45.92882" lon="4.73037">
        <ele>188.800003052</ele>
        <time>2015-08-11T10:36:17.458Z</time>
      </trkpt>
      <trkpt lat="45.92879" lon="4.73043">
        <ele>188.800003052</ele>
        <time>2015-08-11T10:36:18.465Z</time>
      </trkpt>
      <trkpt lat="45.92876" lon="4.73049">
        <ele>188.699996948</ele>
        <time>2015-08-11T10:36:19.435Z</time>
      </trkpt>
      <trkpt lat="45.92873" lon="4.73055">
        <ele>188.699996948</ele>
        <time>2015-08-11T10:36:20.537Z</time>
      </trkpt>
      <trkpt lat="45.92871" lon="4.73062">
        <ele>188.699996948</ele>
        <time>2015-08-11T10:36:21.431Z</time>
      </trkpt>
      <trkpt lat="45.92866" lon="4.73072">
        <ele>188.399993896</ele>
        <time>2015-08-11T10:36:23.533Z</time>
      </trkpt>
      <trkpt lat="45.92864" lon="4.73079">
        <ele>188.300003052</ele>
        <time>2015-08-11T10:36:24.437Z</time>
      </trkpt>
      <trkpt lat="45.92862" lon="4.73087">
        <ele>188.199996948</ele>
        <time>2015-08-11T10:36:25.491Z</time>
      </trkpt>
      <trkpt lat="45.9286" lon="4.73095">
        <ele>188.100006104</ele>
        <time>2015-08-11T10:36:26.431Z</time>
      </trkpt>
      <trkpt lat="45.92858" lon="4.73103">
        <ele>188.100006104</ele>
        <time>2015-08-11T10:36:27.465Z</time>
      </trkpt>
      <trkpt lat="45.92856" lon="4.73111">
        <ele>187.899993896</ele>
        <time>2015-08-11T10:36:28.432Z</time>
      </trkpt>
      <trkpt lat="45.92854" lon="4.7312">
        <ele>187.800003052</ele>
        <time>2015-08-11T10:36:29.469Z</time>
      </trkpt>
      <trkpt lat="45.92853" lon="4.73131">
        <ele>187.199996948</ele>
        <time>2015-08-11T10:36:30.436Z</time>
      </trkpt>
      <trkpt lat="45.92853" lon="4.73141">
        <ele>186.100006104</ele>
        <time>2015-08-11T10:36:31.471Z</time>
      </trkpt>
      <trkpt lat="45.92852" lon="4.73151">
        <ele>185</ele>
        <time>2015-08-11T10:36:32.431Z</time>
      </trkpt>
      <trkpt lat="45.92852" lon="4.7316">
        <ele>184</ele>
        <time>2015-08-11T10:36:33.463Z</time>
      </trkpt>
      <trkpt lat="45.92851" lon="4.73169">
        <ele>183.600006104</ele>
        <time>2015-08-11T10:36:34.433Z</time>
      </trkpt>
      <trkpt lat="45.9285" lon="4.73178">
        <ele>183.199996948</ele>
        <time>2015-08-11T10:36:35.467Z</time>
      </trkpt>
      <trkpt lat="45.92849" lon="4.73187">
        <ele>182.800003052</ele>
        <time>2015-08-11T10:36:36.432Z</time>
      </trkpt>
      <trkpt lat="45.92849" lon="4.73197">
        <ele>181.600006104</ele>
        <time>2015-08-11T10:36:37.469Z</time>
      </trkpt>
      <trkpt lat="45.92848" lon="4.73205">
        <ele>181.199996948</ele>
        <time>2015-08-11T10:36:38.431Z</time>
      </trkpt>
      <trkpt lat="45.92848" lon="4.73214">
        <ele>179.899993896</ele>
        <time>2015-08-11T10:36:39.466Z</time>
      </trkpt>
      <trkpt lat="45.92848" lon="4.73224">
        <ele>178.800003052</ele>
        <time>2015-08-11T10:36:40.432Z</time>
      </trkpt>
      <trkpt lat="45.92848" lon="4.73234">
        <ele>177.600006104</ele>
        <time>2015-08-11T10:36:41.484Z</time>
      </trkpt>
      <trkpt lat="45.92847" lon="4.73244">
        <ele>176.600006104</ele>
        <time>2015-08-11T10:36:42.432Z</time>
      </trkpt>
      <trkpt lat="45.92846" lon="4.73254">
        <ele>175.800003052</ele>
        <time>2015-08-11T10:36:43.469Z</time>
      </trkpt>
      <trkpt lat="45.92846" lon="4.73263">
        <ele>175.399993896</ele>
        <time>2015-08-11T10:36:44.436Z</time>
      </trkpt>
      <trkpt lat="45.92845" lon="4.73273">
        <ele>175.5</ele>
        <time>2015-08-11T10:36:45.466Z</time>
      </trkpt>
      <trkpt lat="45.92844" lon="4.73282">
        <ele>175.699996948</ele>
        <time>2015-08-11T10:36:46.432Z</time>
      </trkpt>
      <trkpt lat="45.92843" lon="4.73291">
        <ele>175.800003052</ele>
        <time>2015-08-11T10:36:47.476Z</time>
      </trkpt>
      <trkpt lat="45.92842" lon="4.733">
        <ele>176.199996948</ele>
        <time>2015-08-11T10:36:48.432Z</time>
      </trkpt>
      <trkpt lat="45.92841" lon="4.73309">
        <ele>175.699996948</ele>
        <time>2015-08-11T10:36:49.563Z</time>
      </trkpt>
      <trkpt lat="45.92841" lon="4.73318">
        <ele>176.5</ele>
        <time>2015-08-11T10:36:50.436Z</time>
      </trkpt>
      <trkpt lat="45.9284" lon="4.73326">
        <ele>176.199996948</ele>
        <time>2015-08-11T10:36:51.467Z</time>
      </trkpt>
      <trkpt lat="45.9284" lon="4.73334">
        <ele>176.199996948</ele>
        <time>2015-08-11T10:36:52.419Z</time>
      </trkpt>
      <trkpt lat="45.9284" lon="4.73343">
        <ele>176.600006104</ele>
        <time>2015-08-11T10:36:53.475Z</time>
      </trkpt>
      <trkpt lat="45.92839" lon="4.7335">
        <ele>176.399993896</ele>
        <time>2015-08-11T10:36:54.433Z</time>
      </trkpt>
      <trkpt lat="45.92839" lon="4.73358">
        <ele>176.100006104</ele>
        <time>2015-08-11T10:36:55.469Z</time>
      </trkpt>
      <trkpt lat="45.92837" lon="4.73366">
        <ele>176</ele>
        <time>2015-08-11T10:36:56.429Z</time>
      </trkpt>
      <trkpt lat="45.92836" lon="4.73374">
        <ele>176</ele>
        <time>2015-08-11T10:36:57.467Z</time>
      </trkpt>
      <trkpt lat="45.92835" lon="4.73382">
        <ele>175.899993896</ele>
        <time>2015-08-11T10:36:58.49Z</time>
      </trkpt>
      <trkpt lat="45.92833" lon="4.73389">
        <ele>175.800003052</ele>
        <time>2015-08-11T10:36:59.481Z</time>
      </trkpt>
      <trkpt lat="45.92832" lon="4.73398">
        <ele>175.800003052</ele>
        <time>2015-08-11T10:37:00.433Z</time>
      </trkpt>
      <trkpt lat="45.92831" lon="4.73406">
        <ele>175.800003052</ele>
        <time>2015-08-11T10:37:01.475Z</time>
      </trkpt>
      <trkpt lat="45.92829" lon="4.73414">
        <ele>175.899993896</ele>
        <time>2015-08-11T10:37:02.451Z</time>
      </trkpt>
      <trkpt lat="45.92828" lon="4.73423">
        <ele>175.800003052</ele>
        <time>2015-08-11T10:37:03.468Z</time>
      </trkpt>
      <trkpt lat="45.92827" lon="4.73432">
        <ele>175.5</ele>
        <time>2015-08-11T10:37:04.418Z</time>
      </trkpt>
      <trkpt lat="45.92827" lon="4.7344">
        <ele>175</ele>
        <time>2015-08-11T10:37:05.464Z</time>
      </trkpt>
      <trkpt lat="45.92826" lon="4.73448">
        <ele>174.899993896</ele>
        <time>2015-08-11T10:37:06.433Z</time>
      </trkpt>
      <trkpt lat="45.92825" lon="4.73456">
        <ele>174.300003052</ele>
        <time>2015-08-11T10:37:07.468Z</time>
      </trkpt>
      <trkpt lat="45.92823" lon="4.73464">
        <ele>174</ele>
        <time>2015-08-11T10:37:08.433Z</time>
      </trkpt>
      <trkpt lat="45.92822" lon="4.73472">
        <ele>173.399993896</ele>
        <time>2015-08-11T10:37:09.466Z</time>
      </trkpt>
      <trkpt lat="45.92821" lon="4.7348">
        <ele>172.800003052</ele>
        <time>2015-08-11T10:37:10.438Z</time>
      </trkpt>
      <trkpt lat="45.9282" lon="4.73488">
        <ele>172.399993896</ele>
        <time>2015-08-11T10:37:11.465Z</time>
      </trkpt>
      <trkpt lat="45.92819" lon="4.73496">
        <ele>171.699996948</ele>
        <time>2015-08-11T10:37:12.434Z</time>
      </trkpt>
      <trkpt lat="45.92817" lon="4.73504">
        <ele>171.5</ele>
        <time>2015-08-11T10:37:13.473Z</time>
      </trkpt>
      <trkpt lat="45.92815" lon="4.73512">
        <ele>171.399993896</ele>
        <time>2015-08-11T10:37:14.432Z</time>
      </trkpt>
      <trkpt lat="45.92814" lon="4.73519">
        <ele>171.100006104</ele>
        <time>2015-08-11T10:37:15.554Z</time>
      </trkpt>
      <trkpt lat="45.92814" lon="4.73527">
        <ele>170.800003052</ele>
        <time>2015-08-11T10:37:16.44Z</time>
      </trkpt>
      <trkpt lat="45.92813" lon="4.73536">
        <ele>170.300003052</ele>
        <time>2015-08-11T10:37:17.467Z</time>
      </trkpt>
      <trkpt lat="45.92812" lon="4.73544">
        <ele>170.100006104</ele>
        <time>2015-08-11T10:37:18.436Z</time>
      </trkpt>
      <trkpt lat="45.92811" lon="4.73552">
        <ele>169.899993896</ele>
        <time>2015-08-11T10:37:19.491Z</time>
      </trkpt>
      <trkpt lat="45.9281" lon="4.7356">
        <ele>170</ele>
        <time>2015-08-11T10:37:20.433Z</time>
      </trkpt>
      <trkpt lat="45.9281" lon="4.73568">
        <ele>170.199996948</ele>
        <time>2015-08-11T10:37:21.465Z</time>
      </trkpt>
      <trkpt lat="45.9281" lon="4.73576">
        <ele>170.699996948</ele>
        <time>2015-08-11T10:37:22.428Z</time>
      </trkpt>
      <trkpt lat="45.9281" lon="4.73584">
        <ele>170.699996948</ele>
        <time>2015-08-11T10:37:23.488Z</time>
      </trkpt>
      <trkpt lat="45.92809" lon="4.7359">
        <ele>170.600006104</ele>
        <time>2015-08-11T10:37:24.483Z</time>
      </trkpt>
      <trkpt lat="45.9281" lon="4.73598">
        <ele>170.5</ele>
        <time>2015-08-11T10:37:25.469Z</time>
      </trkpt>
      <trkpt lat="45.9281" lon="4.73605">
        <ele>170.600006104</ele>
        <time>2015-08-11T10:37:26.432Z</time>
      </trkpt>
      <trkpt lat="45.92809" lon="4.73611">
        <ele>170.199996948</ele>
        <time>2015-08-11T10:37:27.491Z</time>
      </trkpt>
      <trkpt lat="45.92808" lon="4.73618">
        <ele>170.199996948</ele>
        <time>2015-08-11T10:37:28.436Z</time>
      </trkpt>
      <trkpt lat="45.92806" lon="4.73626">
        <ele>169.300003052</ele>
        <time>2015-08-11T10:37:29.467Z</time>
      </trkpt>
      <trkpt lat="45.92804" lon="4.73633">
        <ele>168.899993896</ele>
        <time>2015-08-11T10:37:30.432Z</time>
      </trkpt>
      <trkpt lat="45.92802" lon="4.73639">
        <ele>168.600006104</ele>
        <time>2015-08-11T10:37:31.469Z</time>
      </trkpt>
      <trkpt lat="45.92799" lon="4.73645">
        <ele>168.300003052</ele>
        <time>2015-08-11T10:37:32.431Z</time>
      </trkpt>
      <trkpt lat="45.92796" lon="4.73651">
        <ele>168</ele>
        <time>2015-08-11T10:37:33.465Z</time>
      </trkpt>
      <trkpt lat="45.92795" lon="4.73657">
        <ele>168.100006104</ele>
        <time>2015-08-11T10:37:34.418Z</time>
      </trkpt>
      <trkpt lat="45.92792" lon="4.73668">
        <ele>168.100006104</ele>
        <time>2015-08-11T10:37:36.469Z</time>
      </trkpt>
      <trkpt lat="45.9279" lon="4.73675">
        <ele>168.199996948</ele>
        <time>2015-08-11T10:37:37.433Z</time>
      </trkpt>
      <trkpt lat="45.92789" lon="4.73681">
        <ele>168.399993896</ele>
        <time>2015-08-11T10:37:38.463Z</time>
      </trkpt>
      <trkpt lat="45.92786" lon="4.73687">
        <ele>168.300003052</ele>
        <time>2015-08-11T10:37:39.451Z</time>
      </trkpt>
      <trkpt lat="45.92785" lon="4.73693">
        <ele>168.399993896</ele>
        <time>2015-08-11T10:37:40.55Z</time>
      </trkpt>
      <trkpt lat="45.92784" lon="4.73701">
        <ele>168.5</ele>
        <time>2015-08-11T10:37:41.432Z</time>
      </trkpt>
      <trkpt lat="45.92783" lon="4.73707">
        <ele>168.699996948</ele>
        <time>2015-08-11T10:37:42.48Z</time>
      </trkpt>
      <trkpt lat="45.92782" lon="4.73713">
        <ele>168.100006104</ele>
        <time>2015-08-11T10:37:43.433Z</time>
      </trkpt>
      <trkpt lat="45.92779" lon="4.73723">
        <ele>168</ele>
        <time>2015-08-11T10:37:45.468Z</time>
      </trkpt>
      <trkpt lat="45.92776" lon="4.73727">
        <ele>167.600006104</ele>
        <time>2015-08-11T10:37:46.429Z</time>
      </trkpt>
      <trkpt lat="45.92771" lon="4.73726">
        <ele>167.300003052</ele>
        <time>2015-08-11T10:37:47.467Z</time>
      </trkpt>
      <trkpt lat="45.92767" lon="4.73726">
        <ele>167.100006104</ele>
        <time>2015-08-11T10:37:48.43Z</time>
      </trkpt>
      <trkpt lat="45.92759" lon="4.73724">
        <ele>166.899993896</ele>
        <time>2015-08-11T10:37:50.523Z</time>
      </trkpt>
      <trkpt lat="45.92755" lon="4.73722">
        <ele>166.699996948</ele>
        <time>2015-08-11T10:37:51.432Z</time>
      </trkpt>
      <trkpt lat="45.9275" lon="4.73721">
        <ele>166.5</ele>
        <time>2015-08-11T10:37:52.466Z</time>
      </trkpt>
      <trkpt lat="45.92746" lon="4.73721">
        <ele>166.199996948</ele>
        <time>2015-08-11T10:37:53.43Z</time>
      </trkpt>
      <trkpt lat="45.92741" lon="4.73719">
        <ele>166.100006104</ele>
        <time>2015-08-11T10:37:54.475Z</time>
      </trkpt>
      <trkpt lat="45.92734" lon="4.73718">
        <ele>166</ele>
        <time>2015-08-11T10:37:55.432Z</time>
      </trkpt>
      <trkpt lat="45.92729" lon="4.73717">
        <ele>166</ele>
        <time>2015-08-11T10:37:56.462Z</time>
      </trkpt>
      <trkpt lat="45.92723" lon="4.73716">
        <ele>165.800003052</ele>
        <time>2015-08-11T10:37:57.434Z</time>
      </trkpt>
      <trkpt lat="45.92718" lon="4.73716">
        <ele>165.600006104</ele>
        <time>2015-08-11T10:37:58.508Z</time>
      </trkpt>
      <trkpt lat="45.92713" lon="4.73713">
        <ele>165.600006104</ele>
        <time>2015-08-11T10:37:59.473Z</time>
      </trkpt>
      <trkpt lat="45.92707" lon="4.73712">
        <ele>165.399993896</ele>
        <time>2015-08-11T10:38:00.466Z</time>
      </trkpt>
      <trkpt lat="45.92702" lon="4.73711">
        <ele>165.199996948</ele>
        <time>2015-08-11T10:38:01.438Z</time>
      </trkpt>
      <trkpt lat="45.92697" lon="4.73711">
        <ele>165</ele>
        <time>2015-08-11T10:38:02.466Z</time>
      </trkpt>
      <trkpt lat="45.92691" lon="4.7371">
        <ele>164.899993896</ele>
        <time>2015-08-11T10:38:03.431Z</time>
      </trkpt>
      <trkpt lat="45.92686" lon="4.73709">
        <ele>164.800003052</ele>
        <time>2015-08-11T10:38:04.484Z</time>
      </trkpt>
      <trkpt lat="45.92681" lon="4.73708">
        <ele>164.600006104</ele>
        <time>2015-08-11T10:38:05.43Z</time>
      </trkpt>
      <trkpt lat="45.92676" lon="4.73707">
        <ele>164.5</ele>
        <time>2015-08-11T10:38:06.462Z</time>
      </trkpt>
      <trkpt lat="45.92671" lon="4.73705">
        <ele>164.300003052</ele>
        <time>2015-08-11T10:38:07.434Z</time>
      </trkpt>
      <trkpt lat="45.92667" lon="4.73703">
        <ele>164.300003052</ele>
        <time>2015-08-11T10:38:08.468Z</time>
      </trkpt>
      <trkpt lat="45.92662" lon="4.73701">
        <ele>164.100006104</ele>
        <time>2015-08-11T10:38:09.436Z</time>
      </trkpt>
      <trkpt lat="45.92658" lon="4.73697">
        <ele>164.100006104</ele>
        <time>2015-08-11T10:38:10.483Z</time>
      </trkpt>
      <trkpt lat="45.92653" lon="4.73692">
        <ele>164</ele>
        <time>2015-08-11T10:38:11.433Z</time>
      </trkpt>
      <trkpt lat="45.92649" lon="4.73686">
        <ele>163.899993896</ele>
        <time>2015-08-11T10:38:12.463Z</time>
      </trkpt>
      <trkpt lat="45.92645" lon="4.73678">
        <ele>163.800003052</ele>
        <time>2015-08-11T10:38:13.448Z</time>
      </trkpt>
      <trkpt lat="45.92645" lon="4.73678">
        <ele>163.800003052</ele>
        <time>2015-08-11T10:38:13.521Z</time>
      </trkpt>
      <trkpt lat="45.92637" lon="4.73668">
        <ele>164</ele>
        <time>2015-08-11T10:38:14.436Z</time>
      </trkpt>
      <trkpt lat="45.92633" lon="4.73659">
        <ele>164.399993896</ele>
        <time>2015-08-11T10:38:15.519Z</time>
      </trkpt>
      <trkpt lat="45.92631" lon="4.73653">
        <ele>164.699996948</ele>
        <time>2015-08-11T10:38:16.429Z</time>
      </trkpt>
      <trkpt lat="45.92629" lon="4.73647">
        <ele>164.800003052</ele>
        <time>2015-08-11T10:38:17.534Z</time>
      </trkpt>
      <trkpt lat="45.92627" lon="4.73641">
        <ele>164.899993896</ele>
        <time>2015-08-11T10:38:18.435Z</time>
      </trkpt>
      <trkpt lat="45.92625" lon="4.73634">
        <ele>164.899993896</ele>
        <time>2015-08-11T10:38:19.596Z</time>
      </trkpt>
      <trkpt lat="45.92621" lon="4.73628">
        <ele>164.899993896</ele>
        <time>2015-08-11T10:38:20.433Z</time>
      </trkpt>
      <trkpt lat="45.92618" lon="4.73624">
        <ele>164.899993896</ele>
        <time>2015-08-11T10:38:21.468Z</time>
      </trkpt>
      <trkpt lat="45.92612" lon="4.73622">
        <ele>165.100006104</ele>
        <time>2015-08-11T10:38:22.434Z</time>
      </trkpt>
      <trkpt lat="45.92607" lon="4.73621">
        <ele>165.100006104</ele>
        <time>2015-08-11T10:38:23.469Z</time>
      </trkpt>
      <trkpt lat="45.92601" lon="4.73622">
        <ele>164.899993896</ele>
        <time>2015-08-11T10:38:24.433Z</time>
      </trkpt>
      <trkpt lat="45.92595" lon="4.73623">
        <ele>164.800003052</ele>
        <time>2015-08-11T10:38:25.466Z</time>
      </trkpt>
      <trkpt lat="45.92588" lon="4.73626">
        <ele>164.5</ele>
        <time>2015-08-11T10:38:26.43Z</time>
      </trkpt>
      <trkpt lat="45.92582" lon="4.73631">
        <ele>164.300003052</ele>
        <time>2015-08-11T10:38:27.466Z</time>
      </trkpt>
      <trkpt lat="45.92577" lon="4.73636">
        <ele>164</ele>
        <time>2015-08-11T10:38:28.489Z</time>
      </trkpt>
      <trkpt lat="45.92574" lon="4.73642">
        <ele>163.699996948</ele>
        <time>2015-08-11T10:38:29.655Z</time>
      </trkpt>
      <trkpt lat="45.92573" lon="4.73648">
        <ele>163.399993896</ele>
        <time>2015-08-11T10:38:30.43Z</time>
      </trkpt>
      <trkpt lat="45.92571" lon="4.73654">
        <ele>163</ele>
        <time>2015-08-11T10:38:31.489Z</time>
      </trkpt>
      <trkpt lat="45.92565" lon="4.73654">
        <ele>162.699996948</ele>
        <time>2015-08-11T10:38:32.437Z</time>
      </trkpt>
      <trkpt lat="45.92559" lon="4.73656">
        <ele>162.300003052</ele>
        <time>2015-08-11T10:38:33.471Z</time>
      </trkpt>
      <trkpt lat="45.92554" lon="4.73655">
        <ele>161.899993896</ele>
        <time>2015-08-11T10:38:34.421Z</time>
      </trkpt>
      <trkpt lat="45.92548" lon="4.73656">
        <ele>161.399993896</ele>
        <time>2015-08-11T10:38:35.485Z</time>
      </trkpt>
      <trkpt lat="45.92542" lon="4.73657">
        <ele>161</ele>
        <time>2015-08-11T10:38:36.433Z</time>
      </trkpt>
      <trkpt lat="45.92535" lon="4.73654">
        <ele>160.800003052</ele>
        <time>2015-08-11T10:38:37.622Z</time>
      </trkpt>
      <trkpt lat="45.9253" lon="4.73656">
        <ele>160.399993896</ele>
        <time>2015-08-11T10:38:38.436Z</time>
      </trkpt>
      <trkpt lat="45.92525" lon="4.73656">
        <ele>160.100006104</ele>
        <time>2015-08-11T10:38:39.471Z</time>
      </trkpt>
      <trkpt lat="45.9252" lon="4.73655">
        <ele>159.699996948</ele>
        <time>2015-08-11T10:38:40.435Z</time>
      </trkpt>
      <trkpt lat="45.92515" lon="4.73654">
        <ele>159.399993896</ele>
        <time>2015-08-11T10:38:41.481Z</time>
      </trkpt>
      <trkpt lat="45.9251" lon="4.73652">
        <ele>159.199996948</ele>
        <time>2015-08-11T10:38:42.435Z</time>
      </trkpt>
      <trkpt lat="45.92505" lon="4.7365">
        <ele>158.899993896</ele>
        <time>2015-08-11T10:38:43.469Z</time>
      </trkpt>
      <trkpt lat="45.92499" lon="4.73649">
        <ele>158.600006104</ele>
        <time>2015-08-11T10:38:44.428Z</time>
      </trkpt>
      <trkpt lat="45.92494" lon="4.73647">
        <ele>158.600006104</ele>
        <time>2015-08-11T10:38:45.544Z</time>
      </trkpt>
      <trkpt lat="45.9249" lon="4.73647">
        <ele>158.300003052</ele>
        <time>2015-08-11T10:38:46.43Z</time>
      </trkpt>
      <trkpt lat="45.92483" lon="4.73649">
        <ele>157.800003052</ele>
        <time>2015-08-11T10:38:48.463Z</time>
      </trkpt>
      <trkpt lat="45.92479" lon="4.73652">
        <ele>157.600006104</ele>
        <time>2015-08-11T10:38:49.42Z</time>
      </trkpt>
      <trkpt lat="45.92473" lon="4.73659">
        <ele>157.300003052</ele>
        <time>2015-08-11T10:38:51.467Z</time>
      </trkpt>
      <trkpt lat="45.9247" lon="4.73664">
        <ele>157.5</ele>
        <time>2015-08-11T10:38:52.431Z</time>
      </trkpt>
      <trkpt lat="45.92469" lon="4.73674">
        <ele>157.399993896</ele>
        <time>2015-08-11T10:38:54.463Z</time>
      </trkpt>
      <trkpt lat="45.92468" lon="4.73679">
        <ele>157.300003052</ele>
        <time>2015-08-11T10:38:55.426Z</time>
      </trkpt>
      <trkpt lat="45.92465" lon="4.73691">
        <ele>158</ele>
        <time>2015-08-11T10:38:59.49Z</time>
      </trkpt>
      <trkpt lat="45.92467" lon="4.73697">
        <ele>158.100006104</ele>
        <time>2015-08-11T10:39:00.439Z</time>
      </trkpt>
      <trkpt lat="45.92463" lon="4.73708">
        <ele>158.199996948</ele>
        <time>2015-08-11T10:39:04.634Z</time>
      </trkpt>
      <trkpt lat="45.92462" lon="4.73708">
        <ele>158.399993896</ele>
        <time>2015-08-11T10:39:05.435Z</time>
      </trkpt>
      <trkpt lat="45.92459" lon="4.73711">
        <ele>160.699996948</ele>
        <time>2015-08-11T10:39:13.468Z</time>
      </trkpt>
      <trkpt lat="45.92453" lon="4.73712">
        <ele>158.5</ele>
        <time>2015-08-11T10:39:14.432Z</time>
      </trkpt>
      <trkpt lat="45.92446" lon="4.73711">
        <ele>156</ele>
        <time>2015-08-11T10:39:16.487Z</time>
      </trkpt>
      <trkpt lat="45.92443" lon="4.73711">
        <ele>155.300003052</ele>
        <time>2015-08-11T10:39:17.43Z</time>
      </trkpt>
      <trkpt lat="45.92442" lon="4.73711">
        <ele>154.399993896</ele>
        <time>2015-08-11T10:39:18.466Z</time>
      </trkpt>
      <trkpt lat="45.92441" lon="4.73711">
        <ele>153.5</ele>
        <time>2015-08-11T10:39:19.421Z</time>
      </trkpt>
      <trkpt lat="45.92446" lon="4.7371">
        <ele>155</ele>
        <time>2015-08-11T10:39:36.728Z</time>
      </trkpt>
      <trkpt lat="45.92455" lon="4.73709">
        <ele>156.300003052</ele>
        <time>2015-08-11T10:39:37.419Z</time>
      </trkpt>
      <trkpt lat="45.92455" lon="4.73707">
        <ele>156.899993896</ele>
        <time>2015-08-11T10:39:40.712Z</time>
      </trkpt>
    </trkseg>
  </trk>
</gpx>